<?xml version="1.0" encoding="UTF-8" standalone="no" ?>
<gpx xmlns="http://www.topografix.com/GPX/1/1" xmlns:xsi="http://www.w3.org/2001/XMLSchema-instance" xsi:schemaLocation="http://www.topografix.com/GPX/1/1 http://www.topografix.com/GPX/1/1/gpx.xsd" version="1.1" creator="VisuGPX - https://www.visugpx.com">
  <metadata>
    <name>Velo Laragne La Saulce</name>
    <desc><![CDATA[Parcours vélo Départ Laragne via Lazer / Ventavon puis chemin le long du canal jusqu'à la Saulce puis retour par la rive gauche de la Durance]]></desc>
  </metadata>
  <trk>
    <name><![CDATA[Velo Laragne La Saulce_1]]></name>
    <trkseg>
      <trkpt lat="44.31606" lon="5.82975">
        <ele>574</ele>
        <time>2019-03-05T12:51:19Z</time>
      </trkpt>
      <trkpt lat="44.31592" lon="5.82942">
        <ele>577</ele>
        <time>2019-03-05T12:51:53Z</time>
      </trkpt>
      <trkpt lat="44.3159" lon="5.82939">
        <ele>577</ele>
        <time>2019-03-05T12:51:54Z</time>
      </trkpt>
      <trkpt lat="44.31587" lon="5.82937">
        <ele>576</ele>
        <time>2019-03-05T12:51:55Z</time>
      </trkpt>
      <trkpt lat="44.31584" lon="5.82935">
        <ele>576</ele>
        <time>2019-03-05T12:51:56Z</time>
      </trkpt>
      <trkpt lat="44.31581" lon="5.82932">
        <ele>576</ele>
        <time>2019-03-05T12:51:57Z</time>
      </trkpt>
      <trkpt lat="44.31577" lon="5.82929">
        <ele>576</ele>
        <time>2019-03-05T12:51:58Z</time>
      </trkpt>
      <trkpt lat="44.31573" lon="5.82926">
        <ele>576</ele>
        <time>2019-03-05T12:51:59Z</time>
      </trkpt>
      <trkpt lat="44.31569" lon="5.82924">
        <ele>575</ele>
        <time>2019-03-05T12:52:00Z</time>
      </trkpt>
      <trkpt lat="44.31565" lon="5.82921">
        <ele>575</ele>
        <time>2019-03-05T12:52:01Z</time>
      </trkpt>
      <trkpt lat="44.31561" lon="5.82919">
        <ele>575</ele>
        <time>2019-03-05T12:52:02Z</time>
      </trkpt>
      <trkpt lat="44.31557" lon="5.82917">
        <ele>575</ele>
        <time>2019-03-05T12:52:03Z</time>
      </trkpt>
      <trkpt lat="44.31553" lon="5.82916">
        <ele>575</ele>
        <time>2019-03-05T12:52:04Z</time>
      </trkpt>
      <trkpt lat="44.31551" lon="5.82913">
        <ele>575</ele>
        <time>2019-03-05T12:52:05Z</time>
      </trkpt>
      <trkpt lat="44.31548" lon="5.8291">
        <ele>574</ele>
        <time>2019-03-05T12:52:06Z</time>
      </trkpt>
      <trkpt lat="44.31546" lon="5.82907">
        <ele>574</ele>
        <time>2019-03-05T12:52:07Z</time>
      </trkpt>
      <trkpt lat="44.31543" lon="5.82904">
        <ele>574</ele>
        <time>2019-03-05T12:52:08Z</time>
      </trkpt>
      <trkpt lat="44.31539" lon="5.82901">
        <ele>574</ele>
        <time>2019-03-05T12:52:09Z</time>
      </trkpt>
      <trkpt lat="44.31536" lon="5.82898">
        <ele>574</ele>
        <time>2019-03-05T12:52:10Z</time>
      </trkpt>
      <trkpt lat="44.31533" lon="5.82895">
        <ele>574</ele>
        <time>2019-03-05T12:52:11Z</time>
      </trkpt>
      <trkpt lat="44.31529" lon="5.82891">
        <ele>574</ele>
        <time>2019-03-05T12:52:12Z</time>
      </trkpt>
      <trkpt lat="44.31526" lon="5.82888">
        <ele>574</ele>
        <time>2019-03-05T12:52:13Z</time>
      </trkpt>
      <trkpt lat="44.31523" lon="5.82885">
        <ele>574</ele>
        <time>2019-03-05T12:52:14Z</time>
      </trkpt>
      <trkpt lat="44.3152" lon="5.82881">
        <ele>573</ele>
        <time>2019-03-05T12:52:15Z</time>
      </trkpt>
      <trkpt lat="44.31517" lon="5.82878">
        <ele>573</ele>
        <time>2019-03-05T12:52:16Z</time>
      </trkpt>
      <trkpt lat="44.31514" lon="5.82875">
        <ele>573</ele>
        <time>2019-03-05T12:52:17Z</time>
      </trkpt>
      <trkpt lat="44.31511" lon="5.82873">
        <ele>573</ele>
        <time>2019-03-05T12:52:18Z</time>
      </trkpt>
      <trkpt lat="44.31506" lon="5.82873">
        <ele>573</ele>
        <time>2019-03-05T12:52:19Z</time>
      </trkpt>
      <trkpt lat="44.31503" lon="5.82874">
        <ele>573</ele>
        <time>2019-03-05T12:52:20Z</time>
      </trkpt>
      <trkpt lat="44.31499" lon="5.82877">
        <ele>573</ele>
        <time>2019-03-05T12:52:21Z</time>
      </trkpt>
      <trkpt lat="44.31496" lon="5.8288">
        <ele>573</ele>
        <time>2019-03-05T12:52:22Z</time>
      </trkpt>
      <trkpt lat="44.31493" lon="5.82884">
        <ele>573</ele>
        <time>2019-03-05T12:52:23Z</time>
      </trkpt>
      <trkpt lat="44.31491" lon="5.82888">
        <ele>573</ele>
        <time>2019-03-05T12:52:24Z</time>
      </trkpt>
      <trkpt lat="44.31488" lon="5.82891">
        <ele>573</ele>
        <time>2019-03-05T12:52:25Z</time>
      </trkpt>
      <trkpt lat="44.31486" lon="5.82895">
        <ele>573</ele>
        <time>2019-03-05T12:52:26Z</time>
      </trkpt>
      <trkpt lat="44.31484" lon="5.82899">
        <ele>573</ele>
        <time>2019-03-05T12:52:27Z</time>
      </trkpt>
      <trkpt lat="44.31482" lon="5.82903">
        <ele>573</ele>
        <time>2019-03-05T12:52:28Z</time>
      </trkpt>
      <trkpt lat="44.31479" lon="5.82907">
        <ele>573</ele>
        <time>2019-03-05T12:52:29Z</time>
      </trkpt>
      <trkpt lat="44.31476" lon="5.82911">
        <ele>573</ele>
        <time>2019-03-05T12:52:30Z</time>
      </trkpt>
      <trkpt lat="44.31473" lon="5.82915">
        <ele>573</ele>
        <time>2019-03-05T12:52:31Z</time>
      </trkpt>
      <trkpt lat="44.3147" lon="5.82919">
        <ele>573</ele>
        <time>2019-03-05T12:52:32Z</time>
      </trkpt>
      <trkpt lat="44.31467" lon="5.82924">
        <ele>573</ele>
        <time>2019-03-05T12:52:33Z</time>
      </trkpt>
      <trkpt lat="44.31464" lon="5.82928">
        <ele>573</ele>
        <time>2019-03-05T12:52:34Z</time>
      </trkpt>
      <trkpt lat="44.31461" lon="5.82932">
        <ele>573</ele>
        <time>2019-03-05T12:52:35Z</time>
      </trkpt>
      <trkpt lat="44.31459" lon="5.82936">
        <ele>573</ele>
        <time>2019-03-05T12:52:36Z</time>
      </trkpt>
      <trkpt lat="44.31456" lon="5.8294">
        <ele>573</ele>
        <time>2019-03-05T12:52:37Z</time>
      </trkpt>
      <trkpt lat="44.31453" lon="5.82945">
        <ele>573</ele>
        <time>2019-03-05T12:52:38Z</time>
      </trkpt>
      <trkpt lat="44.3145" lon="5.82949">
        <ele>573</ele>
        <time>2019-03-05T12:52:39Z</time>
      </trkpt>
      <trkpt lat="44.31446" lon="5.82954">
        <ele>573</ele>
        <time>2019-03-05T12:52:40Z</time>
      </trkpt>
      <trkpt lat="44.31443" lon="5.82959">
        <ele>573</ele>
        <time>2019-03-05T12:52:41Z</time>
      </trkpt>
      <trkpt lat="44.3144" lon="5.82964">
        <ele>573</ele>
        <time>2019-03-05T12:52:42Z</time>
      </trkpt>
      <trkpt lat="44.31436" lon="5.82969">
        <ele>573</ele>
        <time>2019-03-05T12:52:43Z</time>
      </trkpt>
      <trkpt lat="44.31433" lon="5.82974">
        <ele>573</ele>
        <time>2019-03-05T12:52:44Z</time>
      </trkpt>
      <trkpt lat="44.3143" lon="5.82979">
        <ele>573</ele>
        <time>2019-03-05T12:52:45Z</time>
      </trkpt>
      <trkpt lat="44.31427" lon="5.82984">
        <ele>573</ele>
        <time>2019-03-05T12:52:46Z</time>
      </trkpt>
      <trkpt lat="44.31423" lon="5.82989">
        <ele>573</ele>
        <time>2019-03-05T12:52:47Z</time>
      </trkpt>
      <trkpt lat="44.3142" lon="5.82994">
        <ele>573</ele>
        <time>2019-03-05T12:52:48Z</time>
      </trkpt>
      <trkpt lat="44.31417" lon="5.83">
        <ele>573</ele>
        <time>2019-03-05T12:52:49Z</time>
      </trkpt>
      <trkpt lat="44.31413" lon="5.83005">
        <ele>573</ele>
        <time>2019-03-05T12:52:50Z</time>
      </trkpt>
      <trkpt lat="44.31409" lon="5.8301">
        <ele>573</ele>
        <time>2019-03-05T12:52:51Z</time>
      </trkpt>
      <trkpt lat="44.31406" lon="5.83015">
        <ele>574</ele>
        <time>2019-03-05T12:52:52Z</time>
      </trkpt>
      <trkpt lat="44.31402" lon="5.83021">
        <ele>574</ele>
        <time>2019-03-05T12:52:53Z</time>
      </trkpt>
      <trkpt lat="44.31398" lon="5.83026">
        <ele>574</ele>
        <time>2019-03-05T12:52:54Z</time>
      </trkpt>
      <trkpt lat="44.31395" lon="5.83031">
        <ele>574</ele>
        <time>2019-03-05T12:52:55Z</time>
      </trkpt>
      <trkpt lat="44.31391" lon="5.83036">
        <ele>574</ele>
        <time>2019-03-05T12:52:56Z</time>
      </trkpt>
      <trkpt lat="44.31387" lon="5.83041">
        <ele>574</ele>
        <time>2019-03-05T12:52:57Z</time>
      </trkpt>
      <trkpt lat="44.31384" lon="5.83045">
        <ele>574</ele>
        <time>2019-03-05T12:52:58Z</time>
      </trkpt>
      <trkpt lat="44.31381" lon="5.83049">
        <ele>574</ele>
        <time>2019-03-05T12:52:59Z</time>
      </trkpt>
      <trkpt lat="44.31378" lon="5.83054">
        <ele>574</ele>
        <time>2019-03-05T12:53:00Z</time>
      </trkpt>
      <trkpt lat="44.31375" lon="5.83058">
        <ele>574</ele>
        <time>2019-03-05T12:53:01Z</time>
      </trkpt>
      <trkpt lat="44.31373" lon="5.83062">
        <ele>574</ele>
        <time>2019-03-05T12:53:02Z</time>
      </trkpt>
      <trkpt lat="44.31371" lon="5.83067">
        <ele>574</ele>
        <time>2019-03-05T12:53:03Z</time>
      </trkpt>
      <trkpt lat="44.31369" lon="5.83072">
        <ele>574</ele>
        <time>2019-03-05T12:53:04Z</time>
      </trkpt>
      <trkpt lat="44.31367" lon="5.83076">
        <ele>574</ele>
        <time>2019-03-05T12:53:05Z</time>
      </trkpt>
      <trkpt lat="44.31365" lon="5.83081">
        <ele>574</ele>
        <time>2019-03-05T12:53:06Z</time>
      </trkpt>
      <trkpt lat="44.31363" lon="5.83087">
        <ele>574</ele>
        <time>2019-03-05T12:53:07Z</time>
      </trkpt>
      <trkpt lat="44.31361" lon="5.83092">
        <ele>574</ele>
        <time>2019-03-05T12:53:08Z</time>
      </trkpt>
      <trkpt lat="44.31359" lon="5.83097">
        <ele>574</ele>
        <time>2019-03-05T12:53:09Z</time>
      </trkpt>
      <trkpt lat="44.31357" lon="5.83101">
        <ele>574</ele>
        <time>2019-03-05T12:53:10Z</time>
      </trkpt>
      <trkpt lat="44.31355" lon="5.83103">
        <ele>574</ele>
        <time>2019-03-05T12:53:11Z</time>
      </trkpt>
      <trkpt lat="44.31353" lon="5.83104">
        <ele>574</ele>
        <time>2019-03-05T12:53:12Z</time>
      </trkpt>
      <trkpt lat="44.31352" lon="5.83103">
        <ele>574</ele>
        <time>2019-03-05T12:53:13Z</time>
      </trkpt>
      <trkpt lat="44.3135" lon="5.83101">
        <ele>574</ele>
        <time>2019-03-05T12:53:14Z</time>
      </trkpt>
      <trkpt lat="44.31349" lon="5.83098">
        <ele>574</ele>
        <time>2019-03-05T12:53:15Z</time>
      </trkpt>
      <trkpt lat="44.31348" lon="5.83094">
        <ele>574</ele>
        <time>2019-03-05T12:53:16Z</time>
      </trkpt>
      <trkpt lat="44.31348" lon="5.83088">
        <ele>574</ele>
        <time>2019-03-05T12:53:17Z</time>
      </trkpt>
      <trkpt lat="44.31348" lon="5.83083">
        <ele>574</ele>
        <time>2019-03-05T12:53:18Z</time>
      </trkpt>
      <trkpt lat="44.31348" lon="5.83078">
        <ele>574</ele>
        <time>2019-03-05T12:53:19Z</time>
      </trkpt>
      <trkpt lat="44.31348" lon="5.83073">
        <ele>574</ele>
        <time>2019-03-05T12:53:20Z</time>
      </trkpt>
      <trkpt lat="44.31349" lon="5.83068">
        <ele>574</ele>
        <time>2019-03-05T12:53:21Z</time>
      </trkpt>
      <trkpt lat="44.3135" lon="5.83062">
        <ele>574</ele>
        <time>2019-03-05T12:53:22Z</time>
      </trkpt>
      <trkpt lat="44.31352" lon="5.83055">
        <ele>574</ele>
        <time>2019-03-05T12:53:23Z</time>
      </trkpt>
      <trkpt lat="44.31353" lon="5.83049">
        <ele>574</ele>
        <time>2019-03-05T12:53:24Z</time>
      </trkpt>
      <trkpt lat="44.31355" lon="5.83043">
        <ele>574</ele>
        <time>2019-03-05T12:53:25Z</time>
      </trkpt>
      <trkpt lat="44.31355" lon="5.83036">
        <ele>574</ele>
        <time>2019-03-05T12:53:26Z</time>
      </trkpt>
      <trkpt lat="44.31356" lon="5.83029">
        <ele>574</ele>
        <time>2019-03-05T12:53:27Z</time>
      </trkpt>
      <trkpt lat="44.31357" lon="5.83021">
        <ele>574</ele>
        <time>2019-03-05T12:53:28Z</time>
      </trkpt>
      <trkpt lat="44.31358" lon="5.83014">
        <ele>574</ele>
        <time>2019-03-05T12:53:29Z</time>
      </trkpt>
      <trkpt lat="44.31359" lon="5.83007">
        <ele>574</ele>
        <time>2019-03-05T12:53:30Z</time>
      </trkpt>
      <trkpt lat="44.31361" lon="5.83">
        <ele>574</ele>
        <time>2019-03-05T12:53:31Z</time>
      </trkpt>
      <trkpt lat="44.31362" lon="5.82992">
        <ele>574</ele>
        <time>2019-03-05T12:53:32Z</time>
      </trkpt>
      <trkpt lat="44.31363" lon="5.82983">
        <ele>574</ele>
        <time>2019-03-05T12:53:33Z</time>
      </trkpt>
      <trkpt lat="44.31364" lon="5.82974">
        <ele>574</ele>
        <time>2019-03-05T12:53:34Z</time>
      </trkpt>
      <trkpt lat="44.31365" lon="5.82965">
        <ele>574</ele>
        <time>2019-03-05T12:53:35Z</time>
      </trkpt>
      <trkpt lat="44.31366" lon="5.82956">
        <ele>574</ele>
        <time>2019-03-05T12:53:36Z</time>
      </trkpt>
      <trkpt lat="44.31367" lon="5.82947">
        <ele>574</ele>
        <time>2019-03-05T12:53:37Z</time>
      </trkpt>
      <trkpt lat="44.31368" lon="5.82937">
        <ele>574</ele>
        <time>2019-03-05T12:53:38Z</time>
      </trkpt>
      <trkpt lat="44.3137" lon="5.82928">
        <ele>574</ele>
        <time>2019-03-05T12:53:39Z</time>
      </trkpt>
      <trkpt lat="44.31371" lon="5.82918">
        <ele>574</ele>
        <time>2019-03-05T12:53:40Z</time>
      </trkpt>
      <trkpt lat="44.31372" lon="5.82909">
        <ele>574</ele>
        <time>2019-03-05T12:53:41Z</time>
      </trkpt>
      <trkpt lat="44.31373" lon="5.829">
        <ele>574</ele>
        <time>2019-03-05T12:53:42Z</time>
      </trkpt>
      <trkpt lat="44.31374" lon="5.8289">
        <ele>574</ele>
        <time>2019-03-05T12:53:43Z</time>
      </trkpt>
      <trkpt lat="44.31374" lon="5.82881">
        <ele>574</ele>
        <time>2019-03-05T12:53:44Z</time>
      </trkpt>
      <trkpt lat="44.31375" lon="5.82872">
        <ele>573</ele>
        <time>2019-03-05T12:53:45Z</time>
      </trkpt>
      <trkpt lat="44.31376" lon="5.82863">
        <ele>573</ele>
        <time>2019-03-05T12:53:46Z</time>
      </trkpt>
      <trkpt lat="44.31377" lon="5.82855">
        <ele>573</ele>
        <time>2019-03-05T12:53:47Z</time>
      </trkpt>
      <trkpt lat="44.31378" lon="5.82846">
        <ele>573</ele>
        <time>2019-03-05T12:53:48Z</time>
      </trkpt>
      <trkpt lat="44.31379" lon="5.82837">
        <ele>572</ele>
        <time>2019-03-05T12:53:49Z</time>
      </trkpt>
      <trkpt lat="44.31379" lon="5.82829">
        <ele>572</ele>
        <time>2019-03-05T12:53:50Z</time>
      </trkpt>
      <trkpt lat="44.3138" lon="5.82821">
        <ele>572</ele>
        <time>2019-03-05T12:53:51Z</time>
      </trkpt>
      <trkpt lat="44.31381" lon="5.82813">
        <ele>572</ele>
        <time>2019-03-05T12:53:52Z</time>
      </trkpt>
      <trkpt lat="44.31382" lon="5.82805">
        <ele>571</ele>
        <time>2019-03-05T12:53:53Z</time>
      </trkpt>
      <trkpt lat="44.31382" lon="5.82797">
        <ele>571</ele>
        <time>2019-03-05T12:53:54Z</time>
      </trkpt>
      <trkpt lat="44.31382" lon="5.82789">
        <ele>571</ele>
        <time>2019-03-05T12:53:55Z</time>
      </trkpt>
      <trkpt lat="44.31382" lon="5.82781">
        <ele>571</ele>
        <time>2019-03-05T12:53:56Z</time>
      </trkpt>
      <trkpt lat="44.31382" lon="5.82773">
        <ele>571</ele>
        <time>2019-03-05T12:53:57Z</time>
      </trkpt>
      <trkpt lat="44.31382" lon="5.82764">
        <ele>570</ele>
        <time>2019-03-05T12:53:58Z</time>
      </trkpt>
      <trkpt lat="44.31381" lon="5.82756">
        <ele>570</ele>
        <time>2019-03-05T12:53:59Z</time>
      </trkpt>
      <trkpt lat="44.31381" lon="5.82748">
        <ele>570</ele>
        <time>2019-03-05T12:54:00Z</time>
      </trkpt>
      <trkpt lat="44.31381" lon="5.8274">
        <ele>570</ele>
        <time>2019-03-05T12:54:01Z</time>
      </trkpt>
      <trkpt lat="44.31381" lon="5.82733">
        <ele>569</ele>
        <time>2019-03-05T12:54:02Z</time>
      </trkpt>
      <trkpt lat="44.3138" lon="5.82725">
        <ele>569</ele>
        <time>2019-03-05T12:54:03Z</time>
      </trkpt>
      <trkpt lat="44.3138" lon="5.82718">
        <ele>569</ele>
        <time>2019-03-05T12:54:04Z</time>
      </trkpt>
      <trkpt lat="44.31379" lon="5.82712">
        <ele>569</ele>
        <time>2019-03-05T12:54:05Z</time>
      </trkpt>
      <trkpt lat="44.31379" lon="5.82704">
        <ele>569</ele>
        <time>2019-03-05T12:54:06Z</time>
      </trkpt>
      <trkpt lat="44.31379" lon="5.82697">
        <ele>569</ele>
        <time>2019-03-05T12:54:07Z</time>
      </trkpt>
      <trkpt lat="44.31379" lon="5.8269">
        <ele>569</ele>
        <time>2019-03-05T12:54:08Z</time>
      </trkpt>
      <trkpt lat="44.3138" lon="5.82683">
        <ele>569</ele>
        <time>2019-03-05T12:54:09Z</time>
      </trkpt>
      <trkpt lat="44.31382" lon="5.82676">
        <ele>569</ele>
        <time>2019-03-05T12:54:10Z</time>
      </trkpt>
      <trkpt lat="44.31384" lon="5.8267">
        <ele>569</ele>
        <time>2019-03-05T12:54:11Z</time>
      </trkpt>
      <trkpt lat="44.31387" lon="5.82664">
        <ele>569</ele>
        <time>2019-03-05T12:54:12Z</time>
      </trkpt>
      <trkpt lat="44.31389" lon="5.82658">
        <ele>569</ele>
        <time>2019-03-05T12:54:13Z</time>
      </trkpt>
      <trkpt lat="44.31391" lon="5.82652">
        <ele>569</ele>
        <time>2019-03-05T12:54:14Z</time>
      </trkpt>
      <trkpt lat="44.31393" lon="5.82646">
        <ele>569</ele>
        <time>2019-03-05T12:54:15Z</time>
      </trkpt>
      <trkpt lat="44.31396" lon="5.8264">
        <ele>569</ele>
        <time>2019-03-05T12:54:16Z</time>
      </trkpt>
      <trkpt lat="44.31398" lon="5.82633">
        <ele>569</ele>
        <time>2019-03-05T12:54:17Z</time>
      </trkpt>
      <trkpt lat="44.314" lon="5.82627">
        <ele>569</ele>
        <time>2019-03-05T12:54:18Z</time>
      </trkpt>
      <trkpt lat="44.31402" lon="5.82621">
        <ele>569</ele>
        <time>2019-03-05T12:54:19Z</time>
      </trkpt>
      <trkpt lat="44.31403" lon="5.82614">
        <ele>569</ele>
        <time>2019-03-05T12:54:20Z</time>
      </trkpt>
      <trkpt lat="44.31405" lon="5.82608">
        <ele>569</ele>
        <time>2019-03-05T12:54:21Z</time>
      </trkpt>
      <trkpt lat="44.31407" lon="5.82601">
        <ele>569</ele>
        <time>2019-03-05T12:54:22Z</time>
      </trkpt>
      <trkpt lat="44.31408" lon="5.82595">
        <ele>569</ele>
        <time>2019-03-05T12:54:23Z</time>
      </trkpt>
      <trkpt lat="44.3141" lon="5.82588">
        <ele>569</ele>
        <time>2019-03-05T12:54:24Z</time>
      </trkpt>
      <trkpt lat="44.31412" lon="5.82582">
        <ele>569</ele>
        <time>2019-03-05T12:54:25Z</time>
      </trkpt>
      <trkpt lat="44.31414" lon="5.82575">
        <ele>569</ele>
        <time>2019-03-05T12:54:26Z</time>
      </trkpt>
      <trkpt lat="44.31416" lon="5.82569">
        <ele>569</ele>
        <time>2019-03-05T12:54:27Z</time>
      </trkpt>
      <trkpt lat="44.31418" lon="5.82562">
        <ele>569</ele>
        <time>2019-03-05T12:54:28Z</time>
      </trkpt>
      <trkpt lat="44.3142" lon="5.82555">
        <ele>569</ele>
        <time>2019-03-05T12:54:29Z</time>
      </trkpt>
      <trkpt lat="44.31421" lon="5.82549">
        <ele>569</ele>
        <time>2019-03-05T12:54:30Z</time>
      </trkpt>
      <trkpt lat="44.31423" lon="5.82542">
        <ele>569</ele>
        <time>2019-03-05T12:54:31Z</time>
      </trkpt>
      <trkpt lat="44.31424" lon="5.82534">
        <ele>569</ele>
        <time>2019-03-05T12:54:32Z</time>
      </trkpt>
      <trkpt lat="44.31425" lon="5.82527">
        <ele>569</ele>
        <time>2019-03-05T12:54:33Z</time>
      </trkpt>
      <trkpt lat="44.31427" lon="5.8252">
        <ele>569</ele>
        <time>2019-03-05T12:54:34Z</time>
      </trkpt>
      <trkpt lat="44.31428" lon="5.82514">
        <ele>569</ele>
        <time>2019-03-05T12:54:35Z</time>
      </trkpt>
      <trkpt lat="44.3143" lon="5.82507">
        <ele>569</ele>
        <time>2019-03-05T12:54:36Z</time>
      </trkpt>
      <trkpt lat="44.31431" lon="5.825">
        <ele>569</ele>
        <time>2019-03-05T12:54:37Z</time>
      </trkpt>
      <trkpt lat="44.31433" lon="5.82493">
        <ele>569</ele>
        <time>2019-03-05T12:54:38Z</time>
      </trkpt>
      <trkpt lat="44.31435" lon="5.82487">
        <ele>569</ele>
        <time>2019-03-05T12:54:39Z</time>
      </trkpt>
      <trkpt lat="44.31437" lon="5.8248">
        <ele>569</ele>
        <time>2019-03-05T12:54:40Z</time>
      </trkpt>
      <trkpt lat="44.31438" lon="5.82473">
        <ele>569</ele>
        <time>2019-03-05T12:54:41Z</time>
      </trkpt>
      <trkpt lat="44.31439" lon="5.82466">
        <ele>569</ele>
        <time>2019-03-05T12:54:42Z</time>
      </trkpt>
      <trkpt lat="44.3144" lon="5.82459">
        <ele>569</ele>
        <time>2019-03-05T12:54:43Z</time>
      </trkpt>
      <trkpt lat="44.31442" lon="5.82453">
        <ele>569</ele>
        <time>2019-03-05T12:54:44Z</time>
      </trkpt>
      <trkpt lat="44.31444" lon="5.82446">
        <ele>569</ele>
        <time>2019-03-05T12:54:45Z</time>
      </trkpt>
      <trkpt lat="44.31445" lon="5.82439">
        <ele>569</ele>
        <time>2019-03-05T12:54:46Z</time>
      </trkpt>
      <trkpt lat="44.31446" lon="5.82432">
        <ele>569</ele>
        <time>2019-03-05T12:54:47Z</time>
      </trkpt>
      <trkpt lat="44.31445" lon="5.82424">
        <ele>569</ele>
        <time>2019-03-05T12:54:48Z</time>
      </trkpt>
      <trkpt lat="44.31446" lon="5.82417">
        <ele>569</ele>
        <time>2019-03-05T12:54:49Z</time>
      </trkpt>
      <trkpt lat="44.31446" lon="5.8241">
        <ele>569</ele>
        <time>2019-03-05T12:54:50Z</time>
      </trkpt>
      <trkpt lat="44.31447" lon="5.82404">
        <ele>569</ele>
        <time>2019-03-05T12:54:51Z</time>
      </trkpt>
      <trkpt lat="44.31447" lon="5.82398">
        <ele>569</ele>
        <time>2019-03-05T12:54:52Z</time>
      </trkpt>
      <trkpt lat="44.31447" lon="5.82392">
        <ele>569</ele>
        <time>2019-03-05T12:54:53Z</time>
      </trkpt>
      <trkpt lat="44.31447" lon="5.82386">
        <ele>569</ele>
        <time>2019-03-05T12:54:54Z</time>
      </trkpt>
      <trkpt lat="44.31446" lon="5.8238">
        <ele>569</ele>
        <time>2019-03-05T12:54:55Z</time>
      </trkpt>
      <trkpt lat="44.31446" lon="5.82376">
        <ele>569</ele>
        <time>2019-03-05T12:54:56Z</time>
      </trkpt>
      <trkpt lat="44.31447" lon="5.82372">
        <ele>569</ele>
        <time>2019-03-05T12:54:57Z</time>
      </trkpt>
      <trkpt lat="44.31448" lon="5.82369">
        <ele>569</ele>
        <time>2019-03-05T12:54:58Z</time>
      </trkpt>
      <trkpt lat="44.31448" lon="5.82367">
        <ele>569</ele>
        <time>2019-03-05T12:54:59Z</time>
      </trkpt>
      <trkpt lat="44.31451" lon="5.82368">
        <ele>569</ele>
        <time>2019-03-05T12:55:00Z</time>
      </trkpt>
      <trkpt lat="44.31454" lon="5.8237">
        <ele>569</ele>
        <time>2019-03-05T12:55:01Z</time>
      </trkpt>
      <trkpt lat="44.31457" lon="5.82373">
        <ele>569</ele>
        <time>2019-03-05T12:55:02Z</time>
      </trkpt>
      <trkpt lat="44.31461" lon="5.82376">
        <ele>569</ele>
        <time>2019-03-05T12:55:02Z</time>
      </trkpt>
      <trkpt lat="44.31465" lon="5.8238">
        <ele>569</ele>
        <time>2019-03-05T12:55:03Z</time>
      </trkpt>
      <trkpt lat="44.31469" lon="5.82385">
        <ele>569</ele>
        <time>2019-03-05T12:55:04Z</time>
      </trkpt>
      <trkpt lat="44.31473" lon="5.82389">
        <ele>569</ele>
        <time>2019-03-05T12:55:06Z</time>
      </trkpt>
      <trkpt lat="44.31477" lon="5.82394">
        <ele>569</ele>
        <time>2019-03-05T12:55:07Z</time>
      </trkpt>
      <trkpt lat="44.31481" lon="5.82399">
        <ele>569</ele>
        <time>2019-03-05T12:55:07Z</time>
      </trkpt>
      <trkpt lat="44.31487" lon="5.82405">
        <ele>569</ele>
        <time>2019-03-05T12:55:09Z</time>
      </trkpt>
      <trkpt lat="44.31492" lon="5.82411">
        <ele>569</ele>
        <time>2019-03-05T12:55:10Z</time>
      </trkpt>
      <trkpt lat="44.31496" lon="5.82417">
        <ele>569</ele>
        <time>2019-03-05T12:55:11Z</time>
      </trkpt>
      <trkpt lat="44.31501" lon="5.82424">
        <ele>569</ele>
        <time>2019-03-05T12:55:12Z</time>
      </trkpt>
      <trkpt lat="44.31507" lon="5.82429">
        <ele>569</ele>
        <time>2019-03-05T12:55:13Z</time>
      </trkpt>
      <trkpt lat="44.31513" lon="5.82436">
        <ele>569</ele>
        <time>2019-03-05T12:55:14Z</time>
      </trkpt>
      <trkpt lat="44.31519" lon="5.82441">
        <ele>569</ele>
        <time>2019-03-05T12:55:15Z</time>
      </trkpt>
      <trkpt lat="44.31525" lon="5.82447">
        <ele>569</ele>
        <time>2019-03-05T12:55:15Z</time>
      </trkpt>
      <trkpt lat="44.31531" lon="5.82453">
        <ele>569</ele>
        <time>2019-03-05T12:55:17Z</time>
      </trkpt>
      <trkpt lat="44.31536" lon="5.82459">
        <ele>569</ele>
        <time>2019-03-05T12:55:18Z</time>
      </trkpt>
      <trkpt lat="44.31542" lon="5.82464">
        <ele>569</ele>
        <time>2019-03-05T12:55:18Z</time>
      </trkpt>
      <trkpt lat="44.31547" lon="5.8247">
        <ele>569</ele>
        <time>2019-03-05T12:55:20Z</time>
      </trkpt>
      <trkpt lat="44.31553" lon="5.82475">
        <ele>569</ele>
        <time>2019-03-05T12:55:21Z</time>
      </trkpt>
      <trkpt lat="44.31558" lon="5.8248">
        <ele>568</ele>
        <time>2019-03-05T12:55:22Z</time>
      </trkpt>
      <trkpt lat="44.31563" lon="5.82486">
        <ele>568</ele>
        <time>2019-03-05T12:55:23Z</time>
      </trkpt>
      <trkpt lat="44.31569" lon="5.82491">
        <ele>568</ele>
        <time>2019-03-05T12:55:23Z</time>
      </trkpt>
      <trkpt lat="44.31573" lon="5.82496">
        <ele>568</ele>
        <time>2019-03-05T12:55:25Z</time>
      </trkpt>
      <trkpt lat="44.31578" lon="5.82501">
        <ele>568</ele>
        <time>2019-03-05T12:55:26Z</time>
      </trkpt>
      <trkpt lat="44.31583" lon="5.82507">
        <ele>568</ele>
        <time>2019-03-05T12:55:26Z</time>
      </trkpt>
      <trkpt lat="44.31588" lon="5.82512">
        <ele>568</ele>
        <time>2019-03-05T12:55:28Z</time>
      </trkpt>
      <trkpt lat="44.31592" lon="5.82516">
        <ele>568</ele>
        <time>2019-03-05T12:55:29Z</time>
      </trkpt>
      <trkpt lat="44.31597" lon="5.82521">
        <ele>568</ele>
        <time>2019-03-05T12:55:30Z</time>
      </trkpt>
      <trkpt lat="44.31601" lon="5.82526">
        <ele>567</ele>
        <time>2019-03-05T12:55:31Z</time>
      </trkpt>
      <trkpt lat="44.31606" lon="5.82531">
        <ele>567</ele>
        <time>2019-03-05T12:55:31Z</time>
      </trkpt>
      <trkpt lat="44.31611" lon="5.82535">
        <ele>567</ele>
        <time>2019-03-05T12:55:33Z</time>
      </trkpt>
      <trkpt lat="44.31615" lon="5.82539">
        <ele>567</ele>
        <time>2019-03-05T12:55:34Z</time>
      </trkpt>
      <trkpt lat="44.3162" lon="5.82543">
        <ele>567</ele>
        <time>2019-03-05T12:55:34Z</time>
      </trkpt>
      <trkpt lat="44.31627" lon="5.8255">
        <ele>567</ele>
        <time>2019-03-05T12:55:36Z</time>
      </trkpt>
      <trkpt lat="44.31632" lon="5.82554">
        <ele>567</ele>
        <time>2019-03-05T12:55:38Z</time>
      </trkpt>
      <trkpt lat="44.31636" lon="5.82558">
        <ele>567</ele>
        <time>2019-03-05T12:55:39Z</time>
      </trkpt>
      <trkpt lat="44.31639" lon="5.82563">
        <ele>567</ele>
        <time>2019-03-05T12:55:39Z</time>
      </trkpt>
      <trkpt lat="44.31643" lon="5.82567">
        <ele>567</ele>
        <time>2019-03-05T12:55:41Z</time>
      </trkpt>
      <trkpt lat="44.31647" lon="5.82571">
        <ele>567</ele>
        <time>2019-03-05T12:55:42Z</time>
      </trkpt>
      <trkpt lat="44.31651" lon="5.82575">
        <ele>567</ele>
        <time>2019-03-05T12:55:43Z</time>
      </trkpt>
      <trkpt lat="44.31654" lon="5.82579">
        <ele>567</ele>
        <time>2019-03-05T12:55:43Z</time>
      </trkpt>
      <trkpt lat="44.31658" lon="5.82583">
        <ele>567</ele>
        <time>2019-03-05T12:55:44Z</time>
      </trkpt>
      <trkpt lat="44.31662" lon="5.82587">
        <ele>567</ele>
        <time>2019-03-05T12:55:46Z</time>
      </trkpt>
      <trkpt lat="44.31666" lon="5.82591">
        <ele>567</ele>
        <time>2019-03-05T12:55:47Z</time>
      </trkpt>
      <trkpt lat="44.3167" lon="5.82596">
        <ele>567</ele>
        <time>2019-03-05T12:55:48Z</time>
      </trkpt>
      <trkpt lat="44.31673" lon="5.826">
        <ele>567</ele>
        <time>2019-03-05T12:55:48Z</time>
      </trkpt>
      <trkpt lat="44.31677" lon="5.82604">
        <ele>567</ele>
        <time>2019-03-05T12:55:49Z</time>
      </trkpt>
      <trkpt lat="44.31682" lon="5.82609">
        <ele>567</ele>
        <time>2019-03-05T12:55:51Z</time>
      </trkpt>
      <trkpt lat="44.31686" lon="5.82613">
        <ele>567</ele>
        <time>2019-03-05T12:55:51Z</time>
      </trkpt>
      <trkpt lat="44.3169" lon="5.82618">
        <ele>567</ele>
        <time>2019-03-05T12:55:53Z</time>
      </trkpt>
      <trkpt lat="44.31694" lon="5.82622">
        <ele>567</ele>
        <time>2019-03-05T12:55:53Z</time>
      </trkpt>
      <trkpt lat="44.31699" lon="5.82626">
        <ele>567</ele>
        <time>2019-03-05T12:55:55Z</time>
      </trkpt>
      <trkpt lat="44.31703" lon="5.8263">
        <ele>567</ele>
        <time>2019-03-05T12:55:55Z</time>
      </trkpt>
      <trkpt lat="44.31707" lon="5.82633">
        <ele>567</ele>
        <time>2019-03-05T12:55:57Z</time>
      </trkpt>
      <trkpt lat="44.3171" lon="5.82637">
        <ele>567</ele>
        <time>2019-03-05T12:55:58Z</time>
      </trkpt>
      <trkpt lat="44.31714" lon="5.82642">
        <ele>567</ele>
        <time>2019-03-05T12:55:59Z</time>
      </trkpt>
      <trkpt lat="44.31719" lon="5.82647">
        <ele>567</ele>
        <time>2019-03-05T12:55:59Z</time>
      </trkpt>
      <trkpt lat="44.31723" lon="5.82651">
        <ele>567</ele>
        <time>2019-03-05T12:56:00Z</time>
      </trkpt>
      <trkpt lat="44.31727" lon="5.82656">
        <ele>566</ele>
        <time>2019-03-05T12:56:01Z</time>
      </trkpt>
      <trkpt lat="44.31731" lon="5.8266">
        <ele>566</ele>
        <time>2019-03-05T12:56:03Z</time>
      </trkpt>
      <trkpt lat="44.31736" lon="5.82665">
        <ele>566</ele>
        <time>2019-03-05T12:56:04Z</time>
      </trkpt>
      <trkpt lat="44.3174" lon="5.82669">
        <ele>566</ele>
        <time>2019-03-05T12:56:04Z</time>
      </trkpt>
      <trkpt lat="44.31744" lon="5.82674">
        <ele>566</ele>
        <time>2019-03-05T12:56:05Z</time>
      </trkpt>
      <trkpt lat="44.31748" lon="5.82678">
        <ele>566</ele>
        <time>2019-03-05T12:56:07Z</time>
      </trkpt>
      <trkpt lat="44.31752" lon="5.82683">
        <ele>566</ele>
        <time>2019-03-05T12:56:07Z</time>
      </trkpt>
      <trkpt lat="44.31756" lon="5.82687">
        <ele>566</ele>
        <time>2019-03-05T12:56:09Z</time>
      </trkpt>
      <trkpt lat="44.3176" lon="5.8269">
        <ele>566</ele>
        <time>2019-03-05T12:56:09Z</time>
      </trkpt>
      <trkpt lat="44.31762" lon="5.82693">
        <ele>566</ele>
        <time>2019-03-05T12:56:11Z</time>
      </trkpt>
      <trkpt lat="44.31765" lon="5.82695">
        <ele>566</ele>
        <time>2019-03-05T12:56:11Z</time>
      </trkpt>
      <trkpt lat="44.31765" lon="5.82693">
        <ele>566</ele>
        <time>2019-03-05T12:56:17Z</time>
      </trkpt>
      <trkpt lat="44.31766" lon="5.82693">
        <ele>566</ele>
        <time>2019-03-05T12:56:20Z</time>
      </trkpt>
      <trkpt lat="44.31765" lon="5.82691">
        <ele>566</ele>
        <time>2019-03-05T12:56:22Z</time>
      </trkpt>
      <trkpt lat="44.31764" lon="5.82691">
        <ele>566</ele>
        <time>2019-03-05T12:56:22Z</time>
      </trkpt>
      <trkpt lat="44.31763" lon="5.82691">
        <ele>566</ele>
        <time>2019-03-05T12:56:23Z</time>
      </trkpt>
      <trkpt lat="44.31761" lon="5.8269">
        <ele>566</ele>
        <time>2019-03-05T12:56:24Z</time>
      </trkpt>
      <trkpt lat="44.3176" lon="5.82689">
        <ele>566</ele>
        <time>2019-03-05T12:56:25Z</time>
      </trkpt>
      <trkpt lat="44.31758" lon="5.82688">
        <ele>566</ele>
        <time>2019-03-05T12:56:26Z</time>
      </trkpt>
      <trkpt lat="44.31757" lon="5.82687">
        <ele>566</ele>
        <time>2019-03-05T12:56:28Z</time>
      </trkpt>
      <trkpt lat="44.31755" lon="5.82686">
        <ele>566</ele>
        <time>2019-03-05T12:56:28Z</time>
      </trkpt>
      <trkpt lat="44.31753" lon="5.82685">
        <ele>565</ele>
        <time>2019-03-05T12:56:29Z</time>
      </trkpt>
      <trkpt lat="44.31752" lon="5.82684">
        <ele>565</ele>
        <time>2019-03-05T12:56:30Z</time>
      </trkpt>
      <trkpt lat="44.3175" lon="5.82683">
        <ele>565</ele>
        <time>2019-03-05T12:56:31Z</time>
      </trkpt>
      <trkpt lat="44.31749" lon="5.82681">
        <ele>565</ele>
        <time>2019-03-05T12:56:33Z</time>
      </trkpt>
      <trkpt lat="44.31748" lon="5.8268">
        <ele>565</ele>
        <time>2019-03-05T12:56:33Z</time>
      </trkpt>
      <trkpt lat="44.31746" lon="5.82679">
        <ele>565</ele>
        <time>2019-03-05T12:56:35Z</time>
      </trkpt>
      <trkpt lat="44.31744" lon="5.82677">
        <ele>565</ele>
        <time>2019-03-05T12:56:36Z</time>
      </trkpt>
      <trkpt lat="44.31743" lon="5.82675">
        <ele>565</ele>
        <time>2019-03-05T12:56:38Z</time>
      </trkpt>
      <trkpt lat="44.31741" lon="5.82673">
        <ele>565</ele>
        <time>2019-03-05T12:56:38Z</time>
      </trkpt>
      <trkpt lat="44.31739" lon="5.82672">
        <ele>565</ele>
        <time>2019-03-05T12:56:39Z</time>
      </trkpt>
      <trkpt lat="44.31737" lon="5.8267">
        <ele>565</ele>
        <time>2019-03-05T12:56:40Z</time>
      </trkpt>
      <trkpt lat="44.31736" lon="5.82668">
        <ele>565</ele>
        <time>2019-03-05T12:56:41Z</time>
      </trkpt>
      <trkpt lat="44.31734" lon="5.82667">
        <ele>565</ele>
        <time>2019-03-05T12:56:43Z</time>
      </trkpt>
      <trkpt lat="44.31733" lon="5.82665">
        <ele>565</ele>
        <time>2019-03-05T12:56:43Z</time>
      </trkpt>
      <trkpt lat="44.31732" lon="5.82663">
        <ele>565</ele>
        <time>2019-03-05T12:56:44Z</time>
      </trkpt>
      <trkpt lat="44.31731" lon="5.82661">
        <ele>565</ele>
        <time>2019-03-05T12:56:45Z</time>
      </trkpt>
      <trkpt lat="44.31729" lon="5.82659">
        <ele>565</ele>
        <time>2019-03-05T12:56:48Z</time>
      </trkpt>
      <trkpt lat="44.31728" lon="5.82662">
        <ele>565</ele>
        <time>2019-03-05T12:56:49Z</time>
      </trkpt>
      <trkpt lat="44.31729" lon="5.82661">
        <ele>565</ele>
        <time>2019-03-05T12:56:55Z</time>
      </trkpt>
      <trkpt lat="44.31728" lon="5.82659">
        <ele>565</ele>
        <time>2019-03-05T12:57:04Z</time>
      </trkpt>
      <trkpt lat="44.31728" lon="5.82658">
        <ele>565</ele>
        <time>2019-03-05T12:57:07Z</time>
      </trkpt>
      <trkpt lat="44.31728" lon="5.82656">
        <ele>565</ele>
        <time>2019-03-05T12:57:17Z</time>
      </trkpt>
      <trkpt lat="44.31728" lon="5.82655">
        <ele>565</ele>
        <time>2019-03-05T12:57:26Z</time>
      </trkpt>
      <trkpt lat="44.31727" lon="5.82656">
        <ele>566</ele>
        <time>2019-03-05T12:57:53Z</time>
      </trkpt>
      <trkpt lat="44.31728" lon="5.82658">
        <ele>566</ele>
        <time>2019-03-05T12:58:01Z</time>
      </trkpt>
      <trkpt lat="44.31728" lon="5.82659">
        <ele>566</ele>
        <time>2019-03-05T12:58:14Z</time>
      </trkpt>
      <trkpt lat="44.31728" lon="5.82658">
        <ele>566</ele>
        <time>2019-03-05T12:58:38Z</time>
      </trkpt>
      <trkpt lat="44.31727" lon="5.82657">
        <ele>566</ele>
        <time>2019-03-05T12:58:59Z</time>
      </trkpt>
      <trkpt lat="44.31728" lon="5.82659">
        <ele>566</ele>
        <time>2019-03-05T12:59:06Z</time>
      </trkpt>
      <trkpt lat="44.3173" lon="5.8266">
        <ele>566</ele>
        <time>2019-03-05T12:59:07Z</time>
      </trkpt>
      <trkpt lat="44.31731" lon="5.8266">
        <ele>566</ele>
        <time>2019-03-05T12:59:08Z</time>
      </trkpt>
      <trkpt lat="44.31732" lon="5.82661">
        <ele>566</ele>
        <time>2019-03-05T12:59:10Z</time>
      </trkpt>
      <trkpt lat="44.31733" lon="5.82661">
        <ele>566</ele>
        <time>2019-03-05T12:59:11Z</time>
      </trkpt>
      <trkpt lat="44.31734" lon="5.82662">
        <ele>566</ele>
        <time>2019-03-05T12:59:12Z</time>
      </trkpt>
      <trkpt lat="44.31736" lon="5.82664">
        <ele>566</ele>
        <time>2019-03-05T12:59:12Z</time>
      </trkpt>
      <trkpt lat="44.31737" lon="5.82666">
        <ele>566</ele>
        <time>2019-03-05T12:59:13Z</time>
      </trkpt>
      <trkpt lat="44.3174" lon="5.82668">
        <ele>566</ele>
        <time>2019-03-05T12:59:14Z</time>
      </trkpt>
      <trkpt lat="44.31742" lon="5.8267">
        <ele>566</ele>
        <time>2019-03-05T12:59:16Z</time>
      </trkpt>
      <trkpt lat="44.31744" lon="5.82672">
        <ele>566</ele>
        <time>2019-03-05T12:59:16Z</time>
      </trkpt>
      <trkpt lat="44.31746" lon="5.82675">
        <ele>566</ele>
        <time>2019-03-05T12:59:17Z</time>
      </trkpt>
      <trkpt lat="44.31748" lon="5.82677">
        <ele>566</ele>
        <time>2019-03-05T12:59:18Z</time>
      </trkpt>
      <trkpt lat="44.3175" lon="5.82679">
        <ele>566</ele>
        <time>2019-03-05T12:59:20Z</time>
      </trkpt>
      <trkpt lat="44.31752" lon="5.82681">
        <ele>566</ele>
        <time>2019-03-05T12:59:20Z</time>
      </trkpt>
      <trkpt lat="44.31754" lon="5.82683">
        <ele>566</ele>
        <time>2019-03-05T12:59:22Z</time>
      </trkpt>
      <trkpt lat="44.31757" lon="5.82686">
        <ele>566</ele>
        <time>2019-03-05T12:59:22Z</time>
      </trkpt>
      <trkpt lat="44.31759" lon="5.82688">
        <ele>566</ele>
        <time>2019-03-05T12:59:23Z</time>
      </trkpt>
      <trkpt lat="44.31761" lon="5.82691">
        <ele>566</ele>
        <time>2019-03-05T12:59:24Z</time>
      </trkpt>
      <trkpt lat="44.31764" lon="5.82694">
        <ele>566</ele>
        <time>2019-03-05T12:59:25Z</time>
      </trkpt>
      <trkpt lat="44.31767" lon="5.82697">
        <ele>566</ele>
        <time>2019-03-05T12:59:27Z</time>
      </trkpt>
      <trkpt lat="44.3177" lon="5.827">
        <ele>566</ele>
        <time>2019-03-05T12:59:27Z</time>
      </trkpt>
      <trkpt lat="44.31773" lon="5.82703">
        <ele>566</ele>
        <time>2019-03-05T12:59:28Z</time>
      </trkpt>
      <trkpt lat="44.31776" lon="5.82706">
        <ele>566</ele>
        <time>2019-03-05T12:59:29Z</time>
      </trkpt>
      <trkpt lat="44.31778" lon="5.82709">
        <ele>566</ele>
        <time>2019-03-05T12:59:30Z</time>
      </trkpt>
      <trkpt lat="44.31781" lon="5.82712">
        <ele>566</ele>
        <time>2019-03-05T12:59:32Z</time>
      </trkpt>
      <trkpt lat="44.31784" lon="5.82715">
        <ele>566</ele>
        <time>2019-03-05T12:59:33Z</time>
      </trkpt>
      <trkpt lat="44.31787" lon="5.82718">
        <ele>566</ele>
        <time>2019-03-05T12:59:33Z</time>
      </trkpt>
      <trkpt lat="44.3179" lon="5.82721">
        <ele>566</ele>
        <time>2019-03-05T12:59:34Z</time>
      </trkpt>
      <trkpt lat="44.31793" lon="5.82724">
        <ele>566</ele>
        <time>2019-03-05T12:59:35Z</time>
      </trkpt>
      <trkpt lat="44.31796" lon="5.82727">
        <ele>566</ele>
        <time>2019-03-05T12:59:37Z</time>
      </trkpt>
      <trkpt lat="44.31799" lon="5.8273">
        <ele>566</ele>
        <time>2019-03-05T12:59:37Z</time>
      </trkpt>
      <trkpt lat="44.31802" lon="5.82733">
        <ele>566</ele>
        <time>2019-03-05T12:59:38Z</time>
      </trkpt>
      <trkpt lat="44.31805" lon="5.82737">
        <ele>566</ele>
        <time>2019-03-05T12:59:39Z</time>
      </trkpt>
      <trkpt lat="44.31809" lon="5.8274">
        <ele>566</ele>
        <time>2019-03-05T12:59:40Z</time>
      </trkpt>
      <trkpt lat="44.31813" lon="5.82743">
        <ele>566</ele>
        <time>2019-03-05T12:59:42Z</time>
      </trkpt>
      <trkpt lat="44.31817" lon="5.82746">
        <ele>566</ele>
        <time>2019-03-05T12:59:42Z</time>
      </trkpt>
      <trkpt lat="44.31821" lon="5.82749">
        <ele>566</ele>
        <time>2019-03-05T12:59:43Z</time>
      </trkpt>
      <trkpt lat="44.31823" lon="5.82752">
        <ele>566</ele>
        <time>2019-03-05T12:59:44Z</time>
      </trkpt>
      <trkpt lat="44.31827" lon="5.82755">
        <ele>566</ele>
        <time>2019-03-05T12:59:45Z</time>
      </trkpt>
      <trkpt lat="44.31831" lon="5.82758">
        <ele>566</ele>
        <time>2019-03-05T12:59:47Z</time>
      </trkpt>
      <trkpt lat="44.31834" lon="5.8276">
        <ele>566</ele>
        <time>2019-03-05T12:59:47Z</time>
      </trkpt>
      <trkpt lat="44.31838" lon="5.82763">
        <ele>566</ele>
        <time>2019-03-05T12:59:48Z</time>
      </trkpt>
      <trkpt lat="44.31842" lon="5.82765">
        <ele>566</ele>
        <time>2019-03-05T12:59:49Z</time>
      </trkpt>
      <trkpt lat="44.31845" lon="5.82767">
        <ele>566</ele>
        <time>2019-03-05T12:59:50Z</time>
      </trkpt>
      <trkpt lat="44.31849" lon="5.82769">
        <ele>566</ele>
        <time>2019-03-05T12:59:52Z</time>
      </trkpt>
      <trkpt lat="44.31853" lon="5.82771">
        <ele>566</ele>
        <time>2019-03-05T12:59:52Z</time>
      </trkpt>
      <trkpt lat="44.31857" lon="5.82772">
        <ele>566</ele>
        <time>2019-03-05T12:59:53Z</time>
      </trkpt>
      <trkpt lat="44.31861" lon="5.82773">
        <ele>566</ele>
        <time>2019-03-05T12:59:54Z</time>
      </trkpt>
      <trkpt lat="44.31865" lon="5.82775">
        <ele>566</ele>
        <time>2019-03-05T12:59:55Z</time>
      </trkpt>
      <trkpt lat="44.31869" lon="5.82775">
        <ele>566</ele>
        <time>2019-03-05T12:59:57Z</time>
      </trkpt>
      <trkpt lat="44.31873" lon="5.82776">
        <ele>566</ele>
        <time>2019-03-05T12:59:57Z</time>
      </trkpt>
      <trkpt lat="44.31877" lon="5.82777">
        <ele>566</ele>
        <time>2019-03-05T12:59:59Z</time>
      </trkpt>
      <trkpt lat="44.31881" lon="5.82777">
        <ele>566</ele>
        <time>2019-03-05T12:59:59Z</time>
      </trkpt>
      <trkpt lat="44.31885" lon="5.82777">
        <ele>566</ele>
        <time>2019-03-05T13:00:00Z</time>
      </trkpt>
      <trkpt lat="44.31889" lon="5.82778">
        <ele>566</ele>
        <time>2019-03-05T13:00:02Z</time>
      </trkpt>
      <trkpt lat="44.31893" lon="5.82777">
        <ele>566</ele>
        <time>2019-03-05T13:00:02Z</time>
      </trkpt>
      <trkpt lat="44.31897" lon="5.82777">
        <ele>567</ele>
        <time>2019-03-05T13:00:03Z</time>
      </trkpt>
      <trkpt lat="44.31901" lon="5.82777">
        <ele>567</ele>
        <time>2019-03-05T13:00:04Z</time>
      </trkpt>
      <trkpt lat="44.31905" lon="5.82777">
        <ele>567</ele>
        <time>2019-03-05T13:00:05Z</time>
      </trkpt>
      <trkpt lat="44.31909" lon="5.82778">
        <ele>568</ele>
        <time>2019-03-05T13:00:07Z</time>
      </trkpt>
      <trkpt lat="44.31913" lon="5.82778">
        <ele>568</ele>
        <time>2019-03-05T13:00:07Z</time>
      </trkpt>
      <trkpt lat="44.31918" lon="5.82778">
        <ele>568</ele>
        <time>2019-03-05T13:00:08Z</time>
      </trkpt>
      <trkpt lat="44.31921" lon="5.82778">
        <ele>569</ele>
        <time>2019-03-05T13:00:09Z</time>
      </trkpt>
      <trkpt lat="44.31925" lon="5.82778">
        <ele>569</ele>
        <time>2019-03-05T13:00:10Z</time>
      </trkpt>
      <trkpt lat="44.31929" lon="5.82779">
        <ele>570</ele>
        <time>2019-03-05T13:00:12Z</time>
      </trkpt>
      <trkpt lat="44.31934" lon="5.82779">
        <ele>570</ele>
        <time>2019-03-05T13:00:12Z</time>
      </trkpt>
      <trkpt lat="44.31938" lon="5.8278">
        <ele>570</ele>
        <time>2019-03-05T13:00:13Z</time>
      </trkpt>
      <trkpt lat="44.31942" lon="5.82781">
        <ele>571</ele>
        <time>2019-03-05T13:00:14Z</time>
      </trkpt>
      <trkpt lat="44.31946" lon="5.82782">
        <ele>571</ele>
        <time>2019-03-05T13:00:15Z</time>
      </trkpt>
      <trkpt lat="44.3195" lon="5.82784">
        <ele>571</ele>
        <time>2019-03-05T13:00:17Z</time>
      </trkpt>
      <trkpt lat="44.31954" lon="5.82785">
        <ele>571</ele>
        <time>2019-03-05T13:00:17Z</time>
      </trkpt>
      <trkpt lat="44.31958" lon="5.82787">
        <ele>571</ele>
        <time>2019-03-05T13:00:18Z</time>
      </trkpt>
      <trkpt lat="44.31962" lon="5.82788">
        <ele>571</ele>
        <time>2019-03-05T13:00:20Z</time>
      </trkpt>
      <trkpt lat="44.31966" lon="5.8279">
        <ele>572</ele>
        <time>2019-03-05T13:00:20Z</time>
      </trkpt>
      <trkpt lat="44.3197" lon="5.82792">
        <ele>572</ele>
        <time>2019-03-05T13:00:22Z</time>
      </trkpt>
      <trkpt lat="44.31974" lon="5.82793">
        <ele>572</ele>
        <time>2019-03-05T13:00:22Z</time>
      </trkpt>
      <trkpt lat="44.31979" lon="5.82794">
        <ele>572</ele>
        <time>2019-03-05T13:00:23Z</time>
      </trkpt>
      <trkpt lat="44.31982" lon="5.82796">
        <ele>572</ele>
        <time>2019-03-05T13:00:24Z</time>
      </trkpt>
      <trkpt lat="44.31987" lon="5.82798">
        <ele>572</ele>
        <time>2019-03-05T13:00:25Z</time>
      </trkpt>
      <trkpt lat="44.31991" lon="5.82799">
        <ele>572</ele>
        <time>2019-03-05T13:00:26Z</time>
      </trkpt>
      <trkpt lat="44.31995" lon="5.82801">
        <ele>573</ele>
        <time>2019-03-05T13:00:27Z</time>
      </trkpt>
      <trkpt lat="44.31999" lon="5.82802">
        <ele>573</ele>
        <time>2019-03-05T13:00:28Z</time>
      </trkpt>
      <trkpt lat="44.32003" lon="5.82804">
        <ele>573</ele>
        <time>2019-03-05T13:00:29Z</time>
      </trkpt>
      <trkpt lat="44.32007" lon="5.82806">
        <ele>573</ele>
        <time>2019-03-05T13:00:30Z</time>
      </trkpt>
      <trkpt lat="44.32011" lon="5.82808">
        <ele>574</ele>
        <time>2019-03-05T13:00:32Z</time>
      </trkpt>
      <trkpt lat="44.32015" lon="5.8281">
        <ele>574</ele>
        <time>2019-03-05T13:00:32Z</time>
      </trkpt>
      <trkpt lat="44.32019" lon="5.82813">
        <ele>574</ele>
        <time>2019-03-05T13:00:33Z</time>
      </trkpt>
      <trkpt lat="44.32022" lon="5.82815">
        <ele>574</ele>
        <time>2019-03-05T13:00:34Z</time>
      </trkpt>
      <trkpt lat="44.32026" lon="5.82817">
        <ele>575</ele>
        <time>2019-03-05T13:00:35Z</time>
      </trkpt>
      <trkpt lat="44.3203" lon="5.8282">
        <ele>575</ele>
        <time>2019-03-05T13:00:36Z</time>
      </trkpt>
      <trkpt lat="44.32033" lon="5.82822">
        <ele>575</ele>
        <time>2019-03-05T13:00:37Z</time>
      </trkpt>
      <trkpt lat="44.32037" lon="5.82824">
        <ele>575</ele>
        <time>2019-03-05T13:00:38Z</time>
      </trkpt>
      <trkpt lat="44.3204" lon="5.82827">
        <ele>575</ele>
        <time>2019-03-05T13:00:39Z</time>
      </trkpt>
      <trkpt lat="44.32044" lon="5.82829">
        <ele>576</ele>
        <time>2019-03-05T13:00:41Z</time>
      </trkpt>
      <trkpt lat="44.32048" lon="5.82831">
        <ele>576</ele>
        <time>2019-03-05T13:00:42Z</time>
      </trkpt>
      <trkpt lat="44.32051" lon="5.82833">
        <ele>577</ele>
        <time>2019-03-05T13:00:42Z</time>
      </trkpt>
      <trkpt lat="44.32055" lon="5.82836">
        <ele>577</ele>
        <time>2019-03-05T13:00:43Z</time>
      </trkpt>
      <trkpt lat="44.32057" lon="5.82838">
        <ele>577</ele>
        <time>2019-03-05T13:00:44Z</time>
      </trkpt>
      <trkpt lat="44.32061" lon="5.82841">
        <ele>577</ele>
        <time>2019-03-05T13:00:45Z</time>
      </trkpt>
      <trkpt lat="44.32064" lon="5.82843">
        <ele>577</ele>
        <time>2019-03-05T13:00:47Z</time>
      </trkpt>
      <trkpt lat="44.32067" lon="5.82845">
        <ele>577</ele>
        <time>2019-03-05T13:00:47Z</time>
      </trkpt>
      <trkpt lat="44.32071" lon="5.82847">
        <ele>577</ele>
        <time>2019-03-05T13:00:48Z</time>
      </trkpt>
      <trkpt lat="44.32074" lon="5.82849">
        <ele>577</ele>
        <time>2019-03-05T13:00:49Z</time>
      </trkpt>
      <trkpt lat="44.32077" lon="5.82851">
        <ele>577</ele>
        <time>2019-03-05T13:00:50Z</time>
      </trkpt>
      <trkpt lat="44.3208" lon="5.82853">
        <ele>578</ele>
        <time>2019-03-05T13:00:52Z</time>
      </trkpt>
      <trkpt lat="44.32083" lon="5.82854">
        <ele>578</ele>
        <time>2019-03-05T13:00:52Z</time>
      </trkpt>
      <trkpt lat="44.32087" lon="5.82855">
        <ele>579</ele>
        <time>2019-03-05T13:00:53Z</time>
      </trkpt>
      <trkpt lat="44.3209" lon="5.82856">
        <ele>579</ele>
        <time>2019-03-05T13:00:54Z</time>
      </trkpt>
      <trkpt lat="44.32094" lon="5.82857">
        <ele>580</ele>
        <time>2019-03-05T13:00:55Z</time>
      </trkpt>
      <trkpt lat="44.32098" lon="5.82859">
        <ele>580</ele>
        <time>2019-03-05T13:00:57Z</time>
      </trkpt>
      <trkpt lat="44.32101" lon="5.82859">
        <ele>580</ele>
        <time>2019-03-05T13:00:57Z</time>
      </trkpt>
      <trkpt lat="44.32105" lon="5.8286">
        <ele>581</ele>
        <time>2019-03-05T13:00:58Z</time>
      </trkpt>
      <trkpt lat="44.32109" lon="5.82861">
        <ele>581</ele>
        <time>2019-03-05T13:00:59Z</time>
      </trkpt>
      <trkpt lat="44.32113" lon="5.82861">
        <ele>581</ele>
        <time>2019-03-05T13:01:00Z</time>
      </trkpt>
      <trkpt lat="44.32116" lon="5.82862">
        <ele>581</ele>
        <time>2019-03-05T13:01:02Z</time>
      </trkpt>
      <trkpt lat="44.32121" lon="5.82863">
        <ele>581</ele>
        <time>2019-03-05T13:01:02Z</time>
      </trkpt>
      <trkpt lat="44.32125" lon="5.82863">
        <ele>581</ele>
        <time>2019-03-05T13:01:03Z</time>
      </trkpt>
      <trkpt lat="44.32129" lon="5.82864">
        <ele>581</ele>
        <time>2019-03-05T13:01:05Z</time>
      </trkpt>
      <trkpt lat="44.32133" lon="5.82865">
        <ele>581</ele>
        <time>2019-03-05T13:01:05Z</time>
      </trkpt>
      <trkpt lat="44.32138" lon="5.82866">
        <ele>581</ele>
        <time>2019-03-05T13:01:07Z</time>
      </trkpt>
      <trkpt lat="44.32142" lon="5.82867">
        <ele>581</ele>
        <time>2019-03-05T13:01:07Z</time>
      </trkpt>
      <trkpt lat="44.32146" lon="5.82869">
        <ele>581</ele>
        <time>2019-03-05T13:01:08Z</time>
      </trkpt>
      <trkpt lat="44.3215" lon="5.8287">
        <ele>581</ele>
        <time>2019-03-05T13:01:09Z</time>
      </trkpt>
      <trkpt lat="44.32154" lon="5.82872">
        <ele>581</ele>
        <time>2019-03-05T13:01:11Z</time>
      </trkpt>
      <trkpt lat="44.32158" lon="5.82874">
        <ele>581</ele>
        <time>2019-03-05T13:01:12Z</time>
      </trkpt>
      <trkpt lat="44.32163" lon="5.82876">
        <ele>581</ele>
        <time>2019-03-05T13:01:12Z</time>
      </trkpt>
      <trkpt lat="44.32167" lon="5.82878">
        <ele>581</ele>
        <time>2019-03-05T13:01:13Z</time>
      </trkpt>
      <trkpt lat="44.32172" lon="5.82881">
        <ele>581</ele>
        <time>2019-03-05T13:01:14Z</time>
      </trkpt>
      <trkpt lat="44.32176" lon="5.82883">
        <ele>581</ele>
        <time>2019-03-05T13:01:15Z</time>
      </trkpt>
      <trkpt lat="44.3218" lon="5.82885">
        <ele>581</ele>
        <time>2019-03-05T13:01:17Z</time>
      </trkpt>
      <trkpt lat="44.32185" lon="5.82888">
        <ele>581</ele>
        <time>2019-03-05T13:01:17Z</time>
      </trkpt>
      <trkpt lat="44.3219" lon="5.82891">
        <ele>581</ele>
        <time>2019-03-05T13:01:18Z</time>
      </trkpt>
      <trkpt lat="44.32195" lon="5.82893">
        <ele>581</ele>
        <time>2019-03-05T13:01:20Z</time>
      </trkpt>
      <trkpt lat="44.32199" lon="5.82896">
        <ele>581</ele>
        <time>2019-03-05T13:01:20Z</time>
      </trkpt>
      <trkpt lat="44.32204" lon="5.82898">
        <ele>581</ele>
        <time>2019-03-05T13:01:22Z</time>
      </trkpt>
      <trkpt lat="44.32209" lon="5.829">
        <ele>581</ele>
        <time>2019-03-05T13:01:23Z</time>
      </trkpt>
      <trkpt lat="44.32213" lon="5.82903">
        <ele>582</ele>
        <time>2019-03-05T13:01:23Z</time>
      </trkpt>
      <trkpt lat="44.32218" lon="5.82906">
        <ele>582</ele>
        <time>2019-03-05T13:01:24Z</time>
      </trkpt>
      <trkpt lat="44.32223" lon="5.82908">
        <ele>582</ele>
        <time>2019-03-05T13:01:25Z</time>
      </trkpt>
      <trkpt lat="44.32227" lon="5.82911">
        <ele>582</ele>
        <time>2019-03-05T13:01:27Z</time>
      </trkpt>
      <trkpt lat="44.32232" lon="5.82913">
        <ele>582</ele>
        <time>2019-03-05T13:01:27Z</time>
      </trkpt>
      <trkpt lat="44.32236" lon="5.82915">
        <ele>582</ele>
        <time>2019-03-05T13:01:28Z</time>
      </trkpt>
      <trkpt lat="44.32241" lon="5.82918">
        <ele>582</ele>
        <time>2019-03-05T13:01:29Z</time>
      </trkpt>
      <trkpt lat="44.32245" lon="5.8292">
        <ele>582</ele>
        <time>2019-03-05T13:01:30Z</time>
      </trkpt>
      <trkpt lat="44.3225" lon="5.82923">
        <ele>583</ele>
        <time>2019-03-05T13:01:32Z</time>
      </trkpt>
      <trkpt lat="44.32254" lon="5.82925">
        <ele>583</ele>
        <time>2019-03-05T13:01:32Z</time>
      </trkpt>
      <trkpt lat="44.32258" lon="5.82928">
        <ele>583</ele>
        <time>2019-03-05T13:01:33Z</time>
      </trkpt>
      <trkpt lat="44.32262" lon="5.82929">
        <ele>583</ele>
        <time>2019-03-05T13:01:35Z</time>
      </trkpt>
      <trkpt lat="44.32266" lon="5.82932">
        <ele>583</ele>
        <time>2019-03-05T13:01:35Z</time>
      </trkpt>
      <trkpt lat="44.32271" lon="5.82934">
        <ele>583</ele>
        <time>2019-03-05T13:01:37Z</time>
      </trkpt>
      <trkpt lat="44.32275" lon="5.82936">
        <ele>583</ele>
        <time>2019-03-05T13:01:37Z</time>
      </trkpt>
      <trkpt lat="44.32279" lon="5.82938">
        <ele>583</ele>
        <time>2019-03-05T13:01:38Z</time>
      </trkpt>
      <trkpt lat="44.32283" lon="5.8294">
        <ele>583</ele>
        <time>2019-03-05T13:01:39Z</time>
      </trkpt>
      <trkpt lat="44.32287" lon="5.82942">
        <ele>583</ele>
        <time>2019-03-05T13:01:40Z</time>
      </trkpt>
      <trkpt lat="44.32291" lon="5.82944">
        <ele>583</ele>
        <time>2019-03-05T13:01:42Z</time>
      </trkpt>
      <trkpt lat="44.32296" lon="5.82946">
        <ele>583</ele>
        <time>2019-03-05T13:01:42Z</time>
      </trkpt>
      <trkpt lat="44.323" lon="5.82948">
        <ele>583</ele>
        <time>2019-03-05T13:01:43Z</time>
      </trkpt>
      <trkpt lat="44.32304" lon="5.8295">
        <ele>583</ele>
        <time>2019-03-05T13:01:44Z</time>
      </trkpt>
      <trkpt lat="44.32309" lon="5.82952">
        <ele>583</ele>
        <time>2019-03-05T13:01:45Z</time>
      </trkpt>
      <trkpt lat="44.32313" lon="5.82954">
        <ele>583</ele>
        <time>2019-03-05T13:01:47Z</time>
      </trkpt>
      <trkpt lat="44.32317" lon="5.82956">
        <ele>583</ele>
        <time>2019-03-05T13:01:47Z</time>
      </trkpt>
      <trkpt lat="44.32321" lon="5.82959">
        <ele>583</ele>
        <time>2019-03-05T13:01:48Z</time>
      </trkpt>
      <trkpt lat="44.32326" lon="5.82962">
        <ele>583</ele>
        <time>2019-03-05T13:01:49Z</time>
      </trkpt>
      <trkpt lat="44.3233" lon="5.82965">
        <ele>583</ele>
        <time>2019-03-05T13:01:50Z</time>
      </trkpt>
      <trkpt lat="44.32335" lon="5.82967">
        <ele>584</ele>
        <time>2019-03-05T13:01:52Z</time>
      </trkpt>
      <trkpt lat="44.32339" lon="5.8297">
        <ele>584</ele>
        <time>2019-03-05T13:01:52Z</time>
      </trkpt>
      <trkpt lat="44.32343" lon="5.82974">
        <ele>584</ele>
        <time>2019-03-05T13:01:53Z</time>
      </trkpt>
      <trkpt lat="44.32347" lon="5.82977">
        <ele>584</ele>
        <time>2019-03-05T13:01:54Z</time>
      </trkpt>
      <trkpt lat="44.32351" lon="5.82981">
        <ele>584</ele>
        <time>2019-03-05T13:01:55Z</time>
      </trkpt>
      <trkpt lat="44.32354" lon="5.82986">
        <ele>584</ele>
        <time>2019-03-05T13:01:57Z</time>
      </trkpt>
      <trkpt lat="44.32358" lon="5.82991">
        <ele>584</ele>
        <time>2019-03-05T13:01:57Z</time>
      </trkpt>
      <trkpt lat="44.32361" lon="5.82996">
        <ele>584</ele>
        <time>2019-03-05T13:01:58Z</time>
      </trkpt>
      <trkpt lat="44.32364" lon="5.83002">
        <ele>584</ele>
        <time>2019-03-05T13:01:59Z</time>
      </trkpt>
      <trkpt lat="44.32367" lon="5.83007">
        <ele>584</ele>
        <time>2019-03-05T13:02:00Z</time>
      </trkpt>
      <trkpt lat="44.3237" lon="5.83013">
        <ele>584</ele>
        <time>2019-03-05T13:02:02Z</time>
      </trkpt>
      <trkpt lat="44.32372" lon="5.8302">
        <ele>584</ele>
        <time>2019-03-05T13:02:02Z</time>
      </trkpt>
      <trkpt lat="44.32374" lon="5.83026">
        <ele>584</ele>
        <time>2019-03-05T13:02:03Z</time>
      </trkpt>
      <trkpt lat="44.32375" lon="5.83033">
        <ele>584</ele>
        <time>2019-03-05T13:02:05Z</time>
      </trkpt>
      <trkpt lat="44.32377" lon="5.8304">
        <ele>584</ele>
        <time>2019-03-05T13:02:05Z</time>
      </trkpt>
      <trkpt lat="44.32379" lon="5.83047">
        <ele>584</ele>
        <time>2019-03-05T13:02:07Z</time>
      </trkpt>
      <trkpt lat="44.32381" lon="5.83054">
        <ele>584</ele>
        <time>2019-03-05T13:02:07Z</time>
      </trkpt>
      <trkpt lat="44.32383" lon="5.83062">
        <ele>584</ele>
        <time>2019-03-05T13:02:08Z</time>
      </trkpt>
      <trkpt lat="44.32385" lon="5.83069">
        <ele>584</ele>
        <time>2019-03-05T13:02:09Z</time>
      </trkpt>
      <trkpt lat="44.32388" lon="5.83076">
        <ele>584</ele>
        <time>2019-03-05T13:02:10Z</time>
      </trkpt>
      <trkpt lat="44.32392" lon="5.83083">
        <ele>584</ele>
        <time>2019-03-05T13:02:12Z</time>
      </trkpt>
      <trkpt lat="44.32396" lon="5.8309">
        <ele>584</ele>
        <time>2019-03-05T13:02:12Z</time>
      </trkpt>
      <trkpt lat="44.324" lon="5.83098">
        <ele>584</ele>
        <time>2019-03-05T13:02:13Z</time>
      </trkpt>
      <trkpt lat="44.32404" lon="5.83104">
        <ele>584</ele>
        <time>2019-03-05T13:02:14Z</time>
      </trkpt>
      <trkpt lat="44.32408" lon="5.83111">
        <ele>584</ele>
        <time>2019-03-05T13:02:15Z</time>
      </trkpt>
      <trkpt lat="44.32413" lon="5.83117">
        <ele>584</ele>
        <time>2019-03-05T13:02:17Z</time>
      </trkpt>
      <trkpt lat="44.32418" lon="5.83122">
        <ele>584</ele>
        <time>2019-03-05T13:02:17Z</time>
      </trkpt>
      <trkpt lat="44.32423" lon="5.83128">
        <ele>584</ele>
        <time>2019-03-05T13:02:18Z</time>
      </trkpt>
      <trkpt lat="44.32429" lon="5.83133">
        <ele>584</ele>
        <time>2019-03-05T13:02:20Z</time>
      </trkpt>
      <trkpt lat="44.32434" lon="5.83138">
        <ele>584</ele>
        <time>2019-03-05T13:02:20Z</time>
      </trkpt>
      <trkpt lat="44.32439" lon="5.83142">
        <ele>584</ele>
        <time>2019-03-05T13:02:22Z</time>
      </trkpt>
      <trkpt lat="44.32444" lon="5.83147">
        <ele>584</ele>
        <time>2019-03-05T13:02:22Z</time>
      </trkpt>
      <trkpt lat="44.32449" lon="5.83151">
        <ele>584</ele>
        <time>2019-03-05T13:02:23Z</time>
      </trkpt>
      <trkpt lat="44.32453" lon="5.83155">
        <ele>584</ele>
        <time>2019-03-05T13:02:24Z</time>
      </trkpt>
      <trkpt lat="44.32458" lon="5.8316">
        <ele>584</ele>
        <time>2019-03-05T13:02:25Z</time>
      </trkpt>
      <trkpt lat="44.32462" lon="5.83164">
        <ele>584</ele>
        <time>2019-03-05T13:02:27Z</time>
      </trkpt>
      <trkpt lat="44.32467" lon="5.83168">
        <ele>584</ele>
        <time>2019-03-05T13:02:27Z</time>
      </trkpt>
      <trkpt lat="44.32472" lon="5.83172">
        <ele>584</ele>
        <time>2019-03-05T13:02:28Z</time>
      </trkpt>
      <trkpt lat="44.32477" lon="5.83176">
        <ele>584</ele>
        <time>2019-03-05T13:02:29Z</time>
      </trkpt>
      <trkpt lat="44.32483" lon="5.83179">
        <ele>584</ele>
        <time>2019-03-05T13:02:30Z</time>
      </trkpt>
      <trkpt lat="44.32487" lon="5.83182">
        <ele>584</ele>
        <time>2019-03-05T13:02:32Z</time>
      </trkpt>
      <trkpt lat="44.32492" lon="5.83185">
        <ele>584</ele>
        <time>2019-03-05T13:02:32Z</time>
      </trkpt>
      <trkpt lat="44.32497" lon="5.83188">
        <ele>584</ele>
        <time>2019-03-05T13:02:34Z</time>
      </trkpt>
      <trkpt lat="44.32502" lon="5.83191">
        <ele>584</ele>
        <time>2019-03-05T13:02:34Z</time>
      </trkpt>
      <trkpt lat="44.32507" lon="5.83194">
        <ele>584</ele>
        <time>2019-03-05T13:02:35Z</time>
      </trkpt>
      <trkpt lat="44.32512" lon="5.83196">
        <ele>584</ele>
        <time>2019-03-05T13:02:37Z</time>
      </trkpt>
      <trkpt lat="44.32517" lon="5.83198">
        <ele>584</ele>
        <time>2019-03-05T13:02:37Z</time>
      </trkpt>
      <trkpt lat="44.32522" lon="5.832">
        <ele>584</ele>
        <time>2019-03-05T13:02:38Z</time>
      </trkpt>
      <trkpt lat="44.32527" lon="5.83203">
        <ele>584</ele>
        <time>2019-03-05T13:02:39Z</time>
      </trkpt>
      <trkpt lat="44.32533" lon="5.83205">
        <ele>584</ele>
        <time>2019-03-05T13:02:41Z</time>
      </trkpt>
      <trkpt lat="44.32537" lon="5.83207">
        <ele>584</ele>
        <time>2019-03-05T13:02:42Z</time>
      </trkpt>
      <trkpt lat="44.32542" lon="5.83209">
        <ele>584</ele>
        <time>2019-03-05T13:02:42Z</time>
      </trkpt>
      <trkpt lat="44.32547" lon="5.83211">
        <ele>584</ele>
        <time>2019-03-05T13:02:43Z</time>
      </trkpt>
      <trkpt lat="44.32552" lon="5.83213">
        <ele>584</ele>
        <time>2019-03-05T13:02:44Z</time>
      </trkpt>
      <trkpt lat="44.32557" lon="5.83215">
        <ele>584</ele>
        <time>2019-03-05T13:02:45Z</time>
      </trkpt>
      <trkpt lat="44.32561" lon="5.83216">
        <ele>584</ele>
        <time>2019-03-05T13:02:47Z</time>
      </trkpt>
      <trkpt lat="44.32566" lon="5.83218">
        <ele>584</ele>
        <time>2019-03-05T13:02:47Z</time>
      </trkpt>
      <trkpt lat="44.3257" lon="5.8322">
        <ele>584</ele>
        <time>2019-03-05T13:02:48Z</time>
      </trkpt>
      <trkpt lat="44.32575" lon="5.83222">
        <ele>584</ele>
        <time>2019-03-05T13:02:49Z</time>
      </trkpt>
      <trkpt lat="44.32579" lon="5.83224">
        <ele>584</ele>
        <time>2019-03-05T13:02:50Z</time>
      </trkpt>
      <trkpt lat="44.32584" lon="5.83227">
        <ele>584</ele>
        <time>2019-03-05T13:02:52Z</time>
      </trkpt>
      <trkpt lat="44.32588" lon="5.83229">
        <ele>584</ele>
        <time>2019-03-05T13:02:53Z</time>
      </trkpt>
      <trkpt lat="44.32593" lon="5.83231">
        <ele>584</ele>
        <time>2019-03-05T13:02:53Z</time>
      </trkpt>
      <trkpt lat="44.32597" lon="5.83233">
        <ele>584</ele>
        <time>2019-03-05T13:02:54Z</time>
      </trkpt>
      <trkpt lat="44.32602" lon="5.83236">
        <ele>584</ele>
        <time>2019-03-05T13:02:55Z</time>
      </trkpt>
      <trkpt lat="44.32606" lon="5.83239">
        <ele>584</ele>
        <time>2019-03-05T13:02:57Z</time>
      </trkpt>
      <trkpt lat="44.3261" lon="5.83242">
        <ele>584</ele>
        <time>2019-03-05T13:02:57Z</time>
      </trkpt>
      <trkpt lat="44.32615" lon="5.83244">
        <ele>584</ele>
        <time>2019-03-05T13:02:58Z</time>
      </trkpt>
      <trkpt lat="44.32619" lon="5.83248">
        <ele>584</ele>
        <time>2019-03-05T13:02:59Z</time>
      </trkpt>
      <trkpt lat="44.32624" lon="5.83251">
        <ele>584</ele>
        <time>2019-03-05T13:03:00Z</time>
      </trkpt>
      <trkpt lat="44.32628" lon="5.83253">
        <ele>584</ele>
        <time>2019-03-05T13:03:02Z</time>
      </trkpt>
      <trkpt lat="44.32632" lon="5.83256">
        <ele>584</ele>
        <time>2019-03-05T13:03:02Z</time>
      </trkpt>
      <trkpt lat="44.32637" lon="5.83259">
        <ele>584</ele>
        <time>2019-03-05T13:03:03Z</time>
      </trkpt>
      <trkpt lat="44.32641" lon="5.83262">
        <ele>584</ele>
        <time>2019-03-05T13:03:04Z</time>
      </trkpt>
      <trkpt lat="44.32645" lon="5.83265">
        <ele>584</ele>
        <time>2019-03-05T13:03:05Z</time>
      </trkpt>
      <trkpt lat="44.32649" lon="5.83268">
        <ele>584</ele>
        <time>2019-03-05T13:03:07Z</time>
      </trkpt>
      <trkpt lat="44.32653" lon="5.83271">
        <ele>584</ele>
        <time>2019-03-05T13:03:07Z</time>
      </trkpt>
      <trkpt lat="44.32658" lon="5.83274">
        <ele>584</ele>
        <time>2019-03-05T13:03:08Z</time>
      </trkpt>
      <trkpt lat="44.32662" lon="5.83277">
        <ele>584</ele>
        <time>2019-03-05T13:03:09Z</time>
      </trkpt>
      <trkpt lat="44.32666" lon="5.8328">
        <ele>584</ele>
        <time>2019-03-05T13:03:11Z</time>
      </trkpt>
      <trkpt lat="44.3267" lon="5.83283">
        <ele>584</ele>
        <time>2019-03-05T13:03:11Z</time>
      </trkpt>
      <trkpt lat="44.32674" lon="5.83286">
        <ele>584</ele>
        <time>2019-03-05T13:03:12Z</time>
      </trkpt>
      <trkpt lat="44.32679" lon="5.83289">
        <ele>584</ele>
        <time>2019-03-05T13:03:13Z</time>
      </trkpt>
      <trkpt lat="44.32682" lon="5.83292">
        <ele>584</ele>
        <time>2019-03-05T13:03:14Z</time>
      </trkpt>
      <trkpt lat="44.32687" lon="5.83295">
        <ele>584</ele>
        <time>2019-03-05T13:03:15Z</time>
      </trkpt>
      <trkpt lat="44.32691" lon="5.83299">
        <ele>584</ele>
        <time>2019-03-05T13:03:17Z</time>
      </trkpt>
      <trkpt lat="44.32695" lon="5.83302">
        <ele>584</ele>
        <time>2019-03-05T13:03:17Z</time>
      </trkpt>
      <trkpt lat="44.327" lon="5.83306">
        <ele>584</ele>
        <time>2019-03-05T13:03:18Z</time>
      </trkpt>
      <trkpt lat="44.32704" lon="5.83309">
        <ele>584</ele>
        <time>2019-03-05T13:03:20Z</time>
      </trkpt>
      <trkpt lat="44.32709" lon="5.83313">
        <ele>584</ele>
        <time>2019-03-05T13:03:20Z</time>
      </trkpt>
      <trkpt lat="44.32714" lon="5.83316">
        <ele>584</ele>
        <time>2019-03-05T13:03:22Z</time>
      </trkpt>
      <trkpt lat="44.32718" lon="5.8332">
        <ele>584</ele>
        <time>2019-03-05T13:03:22Z</time>
      </trkpt>
      <trkpt lat="44.32723" lon="5.83323">
        <ele>584</ele>
        <time>2019-03-05T13:03:23Z</time>
      </trkpt>
      <trkpt lat="44.32727" lon="5.83326">
        <ele>584</ele>
        <time>2019-03-05T13:03:24Z</time>
      </trkpt>
      <trkpt lat="44.32732" lon="5.83329">
        <ele>584</ele>
        <time>2019-03-05T13:03:25Z</time>
      </trkpt>
      <trkpt lat="44.32737" lon="5.83333">
        <ele>584</ele>
        <time>2019-03-05T13:03:27Z</time>
      </trkpt>
      <trkpt lat="44.32742" lon="5.83336">
        <ele>584</ele>
        <time>2019-03-05T13:03:27Z</time>
      </trkpt>
      <trkpt lat="44.32746" lon="5.83339">
        <ele>584</ele>
        <time>2019-03-05T13:03:28Z</time>
      </trkpt>
      <trkpt lat="44.3275" lon="5.83342">
        <ele>584</ele>
        <time>2019-03-05T13:03:29Z</time>
      </trkpt>
      <trkpt lat="44.32755" lon="5.83345">
        <ele>584</ele>
        <time>2019-03-05T13:03:30Z</time>
      </trkpt>
      <trkpt lat="44.32759" lon="5.83348">
        <ele>584</ele>
        <time>2019-03-05T13:03:32Z</time>
      </trkpt>
      <trkpt lat="44.32764" lon="5.83351">
        <ele>584</ele>
        <time>2019-03-05T13:03:32Z</time>
      </trkpt>
      <trkpt lat="44.32768" lon="5.83354">
        <ele>584</ele>
        <time>2019-03-05T13:03:33Z</time>
      </trkpt>
      <trkpt lat="44.32772" lon="5.83357">
        <ele>584</ele>
        <time>2019-03-05T13:03:35Z</time>
      </trkpt>
      <trkpt lat="44.32777" lon="5.8336">
        <ele>584</ele>
        <time>2019-03-05T13:03:35Z</time>
      </trkpt>
      <trkpt lat="44.32781" lon="5.83363">
        <ele>584</ele>
        <time>2019-03-05T13:03:36Z</time>
      </trkpt>
      <trkpt lat="44.32785" lon="5.83366">
        <ele>584</ele>
        <time>2019-03-05T13:03:37Z</time>
      </trkpt>
      <trkpt lat="44.32789" lon="5.83369">
        <ele>584</ele>
        <time>2019-03-05T13:03:38Z</time>
      </trkpt>
      <trkpt lat="44.32794" lon="5.83372">
        <ele>584</ele>
        <time>2019-03-05T13:03:39Z</time>
      </trkpt>
      <trkpt lat="44.32798" lon="5.83375">
        <ele>584</ele>
        <time>2019-03-05T13:03:41Z</time>
      </trkpt>
      <trkpt lat="44.32802" lon="5.83378">
        <ele>584</ele>
        <time>2019-03-05T13:03:41Z</time>
      </trkpt>
      <trkpt lat="44.32806" lon="5.83381">
        <ele>584</ele>
        <time>2019-03-05T13:03:42Z</time>
      </trkpt>
      <trkpt lat="44.32811" lon="5.83383">
        <ele>584</ele>
        <time>2019-03-05T13:03:43Z</time>
      </trkpt>
      <trkpt lat="44.32815" lon="5.83385">
        <ele>585</ele>
        <time>2019-03-05T13:03:44Z</time>
      </trkpt>
      <trkpt lat="44.3282" lon="5.83387">
        <ele>585</ele>
        <time>2019-03-05T13:03:45Z</time>
      </trkpt>
      <trkpt lat="44.32824" lon="5.83389">
        <ele>585</ele>
        <time>2019-03-05T13:03:47Z</time>
      </trkpt>
      <trkpt lat="44.32829" lon="5.8339">
        <ele>586</ele>
        <time>2019-03-05T13:03:47Z</time>
      </trkpt>
      <trkpt lat="44.32832" lon="5.83391">
        <ele>586</ele>
        <time>2019-03-05T13:03:48Z</time>
      </trkpt>
      <trkpt lat="44.32836" lon="5.83392">
        <ele>586</ele>
        <time>2019-03-05T13:03:49Z</time>
      </trkpt>
      <trkpt lat="44.3284" lon="5.83393">
        <ele>586</ele>
        <time>2019-03-05T13:03:50Z</time>
      </trkpt>
      <trkpt lat="44.32844" lon="5.83393">
        <ele>586</ele>
        <time>2019-03-05T13:03:52Z</time>
      </trkpt>
      <trkpt lat="44.32848" lon="5.83394">
        <ele>586</ele>
        <time>2019-03-05T13:03:52Z</time>
      </trkpt>
      <trkpt lat="44.32852" lon="5.83394">
        <ele>586</ele>
        <time>2019-03-05T13:03:53Z</time>
      </trkpt>
      <trkpt lat="44.32857" lon="5.83394">
        <ele>586</ele>
        <time>2019-03-05T13:03:54Z</time>
      </trkpt>
      <trkpt lat="44.32861" lon="5.83395">
        <ele>586</ele>
        <time>2019-03-05T13:03:55Z</time>
      </trkpt>
      <trkpt lat="44.32865" lon="5.83395">
        <ele>586</ele>
        <time>2019-03-05T13:03:56Z</time>
      </trkpt>
      <trkpt lat="44.3287" lon="5.83396">
        <ele>586</ele>
        <time>2019-03-05T13:03:57Z</time>
      </trkpt>
      <trkpt lat="44.32874" lon="5.83396">
        <ele>586</ele>
        <time>2019-03-05T13:03:58Z</time>
      </trkpt>
      <trkpt lat="44.32878" lon="5.83396">
        <ele>586</ele>
        <time>2019-03-05T13:03:59Z</time>
      </trkpt>
      <trkpt lat="44.32882" lon="5.83396">
        <ele>586</ele>
        <time>2019-03-05T13:04:00Z</time>
      </trkpt>
      <trkpt lat="44.32887" lon="5.83396">
        <ele>586</ele>
        <time>2019-03-05T13:04:01Z</time>
      </trkpt>
      <trkpt lat="44.32891" lon="5.83397">
        <ele>586</ele>
        <time>2019-03-05T13:04:02Z</time>
      </trkpt>
      <trkpt lat="44.32895" lon="5.83397">
        <ele>586</ele>
        <time>2019-03-05T13:04:03Z</time>
      </trkpt>
      <trkpt lat="44.32899" lon="5.83397">
        <ele>586</ele>
        <time>2019-03-05T13:04:04Z</time>
      </trkpt>
      <trkpt lat="44.32903" lon="5.83397">
        <ele>586</ele>
        <time>2019-03-05T13:04:05Z</time>
      </trkpt>
      <trkpt lat="44.32907" lon="5.83397">
        <ele>586</ele>
        <time>2019-03-05T13:04:06Z</time>
      </trkpt>
      <trkpt lat="44.32911" lon="5.83397">
        <ele>586</ele>
        <time>2019-03-05T13:04:07Z</time>
      </trkpt>
      <trkpt lat="44.32915" lon="5.83398">
        <ele>586</ele>
        <time>2019-03-05T13:04:08Z</time>
      </trkpt>
      <trkpt lat="44.32919" lon="5.83398">
        <ele>586</ele>
        <time>2019-03-05T13:04:09Z</time>
      </trkpt>
      <trkpt lat="44.32923" lon="5.83398">
        <ele>586</ele>
        <time>2019-03-05T13:04:10Z</time>
      </trkpt>
      <trkpt lat="44.32927" lon="5.83398">
        <ele>587</ele>
        <time>2019-03-05T13:04:12Z</time>
      </trkpt>
      <trkpt lat="44.32931" lon="5.83398">
        <ele>587</ele>
        <time>2019-03-05T13:04:12Z</time>
      </trkpt>
      <trkpt lat="44.32935" lon="5.83398">
        <ele>587</ele>
        <time>2019-03-05T13:04:13Z</time>
      </trkpt>
      <trkpt lat="44.32939" lon="5.83399">
        <ele>587</ele>
        <time>2019-03-05T13:04:14Z</time>
      </trkpt>
      <trkpt lat="44.32943" lon="5.83399">
        <ele>587</ele>
        <time>2019-03-05T13:04:15Z</time>
      </trkpt>
      <trkpt lat="44.32947" lon="5.83399">
        <ele>588</ele>
        <time>2019-03-05T13:04:17Z</time>
      </trkpt>
      <trkpt lat="44.32951" lon="5.834">
        <ele>588</ele>
        <time>2019-03-05T13:04:17Z</time>
      </trkpt>
      <trkpt lat="44.32955" lon="5.834">
        <ele>588</ele>
        <time>2019-03-05T13:04:18Z</time>
      </trkpt>
      <trkpt lat="44.32959" lon="5.834">
        <ele>588</ele>
        <time>2019-03-05T13:04:20Z</time>
      </trkpt>
      <trkpt lat="44.32963" lon="5.834">
        <ele>589</ele>
        <time>2019-03-05T13:04:20Z</time>
      </trkpt>
      <trkpt lat="44.32968" lon="5.834">
        <ele>589</ele>
        <time>2019-03-05T13:04:21Z</time>
      </trkpt>
      <trkpt lat="44.32972" lon="5.834">
        <ele>589</ele>
        <time>2019-03-05T13:04:22Z</time>
      </trkpt>
      <trkpt lat="44.32977" lon="5.83401">
        <ele>589</ele>
        <time>2019-03-05T13:04:23Z</time>
      </trkpt>
      <trkpt lat="44.32981" lon="5.83401">
        <ele>589</ele>
        <time>2019-03-05T13:04:24Z</time>
      </trkpt>
      <trkpt lat="44.32986" lon="5.83401">
        <ele>589</ele>
        <time>2019-03-05T13:04:25Z</time>
      </trkpt>
      <trkpt lat="44.3299" lon="5.83401">
        <ele>590</ele>
        <time>2019-03-05T13:04:26Z</time>
      </trkpt>
      <trkpt lat="44.32994" lon="5.83401">
        <ele>590</ele>
        <time>2019-03-05T13:04:27Z</time>
      </trkpt>
      <trkpt lat="44.32999" lon="5.83401">
        <ele>590</ele>
        <time>2019-03-05T13:04:28Z</time>
      </trkpt>
      <trkpt lat="44.33003" lon="5.83401">
        <ele>590</ele>
        <time>2019-03-05T13:04:29Z</time>
      </trkpt>
      <trkpt lat="44.33007" lon="5.83401">
        <ele>590</ele>
        <time>2019-03-05T13:04:30Z</time>
      </trkpt>
      <trkpt lat="44.33012" lon="5.83402">
        <ele>590</ele>
        <time>2019-03-05T13:04:31Z</time>
      </trkpt>
      <trkpt lat="44.33017" lon="5.83402">
        <ele>590</ele>
        <time>2019-03-05T13:04:32Z</time>
      </trkpt>
      <trkpt lat="44.33021" lon="5.83402">
        <ele>590</ele>
        <time>2019-03-05T13:04:33Z</time>
      </trkpt>
      <trkpt lat="44.33026" lon="5.83402">
        <ele>590</ele>
        <time>2019-03-05T13:04:34Z</time>
      </trkpt>
      <trkpt lat="44.3303" lon="5.83403">
        <ele>591</ele>
        <time>2019-03-05T13:04:35Z</time>
      </trkpt>
      <trkpt lat="44.33035" lon="5.83403">
        <ele>591</ele>
        <time>2019-03-05T13:04:36Z</time>
      </trkpt>
      <trkpt lat="44.3304" lon="5.83403">
        <ele>591</ele>
        <time>2019-03-05T13:04:37Z</time>
      </trkpt>
      <trkpt lat="44.33045" lon="5.83403">
        <ele>591</ele>
        <time>2019-03-05T13:04:38Z</time>
      </trkpt>
      <trkpt lat="44.3305" lon="5.83404">
        <ele>591</ele>
        <time>2019-03-05T13:04:39Z</time>
      </trkpt>
      <trkpt lat="44.33055" lon="5.83404">
        <ele>591</ele>
        <time>2019-03-05T13:04:40Z</time>
      </trkpt>
      <trkpt lat="44.3306" lon="5.83404">
        <ele>591</ele>
        <time>2019-03-05T13:04:42Z</time>
      </trkpt>
      <trkpt lat="44.33065" lon="5.83404">
        <ele>591</ele>
        <time>2019-03-05T13:04:42Z</time>
      </trkpt>
      <trkpt lat="44.3307" lon="5.83405">
        <ele>591</ele>
        <time>2019-03-05T13:04:43Z</time>
      </trkpt>
      <trkpt lat="44.33075" lon="5.83405">
        <ele>591</ele>
        <time>2019-03-05T13:04:44Z</time>
      </trkpt>
      <trkpt lat="44.3308" lon="5.83405">
        <ele>591</ele>
        <time>2019-03-05T13:04:45Z</time>
      </trkpt>
      <trkpt lat="44.33085" lon="5.83405">
        <ele>591</ele>
        <time>2019-03-05T13:04:46Z</time>
      </trkpt>
      <trkpt lat="44.3309" lon="5.83405">
        <ele>591</ele>
        <time>2019-03-05T13:04:47Z</time>
      </trkpt>
      <trkpt lat="44.33095" lon="5.83405">
        <ele>591</ele>
        <time>2019-03-05T13:04:48Z</time>
      </trkpt>
      <trkpt lat="44.331" lon="5.83404">
        <ele>591</ele>
        <time>2019-03-05T13:04:49Z</time>
      </trkpt>
      <trkpt lat="44.33105" lon="5.83404">
        <ele>591</ele>
        <time>2019-03-05T13:04:50Z</time>
      </trkpt>
      <trkpt lat="44.3311" lon="5.83403">
        <ele>591</ele>
        <time>2019-03-05T13:04:51Z</time>
      </trkpt>
      <trkpt lat="44.33115" lon="5.83403">
        <ele>591</ele>
        <time>2019-03-05T13:04:52Z</time>
      </trkpt>
      <trkpt lat="44.3312" lon="5.83402">
        <ele>591</ele>
        <time>2019-03-05T13:04:53Z</time>
      </trkpt>
      <trkpt lat="44.33126" lon="5.83402">
        <ele>591</ele>
        <time>2019-03-05T13:04:54Z</time>
      </trkpt>
      <trkpt lat="44.33131" lon="5.83401">
        <ele>591</ele>
        <time>2019-03-05T13:04:55Z</time>
      </trkpt>
      <trkpt lat="44.33136" lon="5.834">
        <ele>591</ele>
        <time>2019-03-05T13:04:56Z</time>
      </trkpt>
      <trkpt lat="44.33141" lon="5.83399">
        <ele>591</ele>
        <time>2019-03-05T13:04:57Z</time>
      </trkpt>
      <trkpt lat="44.33146" lon="5.83398">
        <ele>591</ele>
        <time>2019-03-05T13:04:58Z</time>
      </trkpt>
      <trkpt lat="44.33151" lon="5.83398">
        <ele>591</ele>
        <time>2019-03-05T13:04:59Z</time>
      </trkpt>
      <trkpt lat="44.33156" lon="5.83397">
        <ele>591</ele>
        <time>2019-03-05T13:05:00Z</time>
      </trkpt>
      <trkpt lat="44.33161" lon="5.83396">
        <ele>591</ele>
        <time>2019-03-05T13:05:01Z</time>
      </trkpt>
      <trkpt lat="44.33166" lon="5.83396">
        <ele>591</ele>
        <time>2019-03-05T13:05:02Z</time>
      </trkpt>
      <trkpt lat="44.33171" lon="5.83395">
        <ele>591</ele>
        <time>2019-03-05T13:05:03Z</time>
      </trkpt>
      <trkpt lat="44.33176" lon="5.83395">
        <ele>591</ele>
        <time>2019-03-05T13:05:04Z</time>
      </trkpt>
      <trkpt lat="44.33181" lon="5.83394">
        <ele>591</ele>
        <time>2019-03-05T13:05:05Z</time>
      </trkpt>
      <trkpt lat="44.33186" lon="5.83393">
        <ele>591</ele>
        <time>2019-03-05T13:05:06Z</time>
      </trkpt>
      <trkpt lat="44.33191" lon="5.83393">
        <ele>591</ele>
        <time>2019-03-05T13:05:07Z</time>
      </trkpt>
      <trkpt lat="44.33195" lon="5.83392">
        <ele>591</ele>
        <time>2019-03-05T13:05:08Z</time>
      </trkpt>
      <trkpt lat="44.332" lon="5.83391">
        <ele>591</ele>
        <time>2019-03-05T13:05:09Z</time>
      </trkpt>
      <trkpt lat="44.33205" lon="5.8339">
        <ele>591</ele>
        <time>2019-03-05T13:05:10Z</time>
      </trkpt>
      <trkpt lat="44.3321" lon="5.83389">
        <ele>591</ele>
        <time>2019-03-05T13:05:11Z</time>
      </trkpt>
      <trkpt lat="44.33215" lon="5.83388">
        <ele>591</ele>
        <time>2019-03-05T13:05:12Z</time>
      </trkpt>
      <trkpt lat="44.3322" lon="5.83387">
        <ele>591</ele>
        <time>2019-03-05T13:05:13Z</time>
      </trkpt>
      <trkpt lat="44.33224" lon="5.83386">
        <ele>591</ele>
        <time>2019-03-05T13:05:14Z</time>
      </trkpt>
      <trkpt lat="44.33229" lon="5.83385">
        <ele>591</ele>
        <time>2019-03-05T13:05:15Z</time>
      </trkpt>
      <trkpt lat="44.33234" lon="5.83384">
        <ele>592</ele>
        <time>2019-03-05T13:05:16Z</time>
      </trkpt>
      <trkpt lat="44.33239" lon="5.83383">
        <ele>592</ele>
        <time>2019-03-05T13:05:17Z</time>
      </trkpt>
      <trkpt lat="44.33244" lon="5.83382">
        <ele>592</ele>
        <time>2019-03-05T13:05:18Z</time>
      </trkpt>
      <trkpt lat="44.33248" lon="5.83382">
        <ele>592</ele>
        <time>2019-03-05T13:05:20Z</time>
      </trkpt>
      <trkpt lat="44.33253" lon="5.83381">
        <ele>593</ele>
        <time>2019-03-05T13:05:20Z</time>
      </trkpt>
      <trkpt lat="44.33258" lon="5.8338">
        <ele>593</ele>
        <time>2019-03-05T13:05:21Z</time>
      </trkpt>
      <trkpt lat="44.33262" lon="5.83379">
        <ele>593</ele>
        <time>2019-03-05T13:05:22Z</time>
      </trkpt>
      <trkpt lat="44.33267" lon="5.83379">
        <ele>593</ele>
        <time>2019-03-05T13:05:23Z</time>
      </trkpt>
      <trkpt lat="44.33272" lon="5.83378">
        <ele>593</ele>
        <time>2019-03-05T13:05:24Z</time>
      </trkpt>
      <trkpt lat="44.33276" lon="5.83377">
        <ele>593</ele>
        <time>2019-03-05T13:05:25Z</time>
      </trkpt>
      <trkpt lat="44.33281" lon="5.83376">
        <ele>593</ele>
        <time>2019-03-05T13:05:26Z</time>
      </trkpt>
      <trkpt lat="44.33285" lon="5.83375">
        <ele>594</ele>
        <time>2019-03-05T13:05:27Z</time>
      </trkpt>
      <trkpt lat="44.3329" lon="5.83374">
        <ele>594</ele>
        <time>2019-03-05T13:05:28Z</time>
      </trkpt>
      <trkpt lat="44.33294" lon="5.83374">
        <ele>594</ele>
        <time>2019-03-05T13:05:29Z</time>
      </trkpt>
      <trkpt lat="44.33299" lon="5.83373">
        <ele>594</ele>
        <time>2019-03-05T13:05:30Z</time>
      </trkpt>
      <trkpt lat="44.33304" lon="5.83373">
        <ele>594</ele>
        <time>2019-03-05T13:05:31Z</time>
      </trkpt>
      <trkpt lat="44.33308" lon="5.83372">
        <ele>594</ele>
        <time>2019-03-05T13:05:32Z</time>
      </trkpt>
      <trkpt lat="44.33313" lon="5.83371">
        <ele>594</ele>
        <time>2019-03-05T13:05:33Z</time>
      </trkpt>
      <trkpt lat="44.33318" lon="5.8337">
        <ele>594</ele>
        <time>2019-03-05T13:05:34Z</time>
      </trkpt>
      <trkpt lat="44.33323" lon="5.8337">
        <ele>594</ele>
        <time>2019-03-05T13:05:35Z</time>
      </trkpt>
      <trkpt lat="44.33328" lon="5.83369">
        <ele>594</ele>
        <time>2019-03-05T13:05:36Z</time>
      </trkpt>
      <trkpt lat="44.33332" lon="5.83368">
        <ele>595</ele>
        <time>2019-03-05T13:05:37Z</time>
      </trkpt>
      <trkpt lat="44.33337" lon="5.83368">
        <ele>595</ele>
        <time>2019-03-05T13:05:38Z</time>
      </trkpt>
      <trkpt lat="44.33342" lon="5.83367">
        <ele>595</ele>
        <time>2019-03-05T13:05:39Z</time>
      </trkpt>
      <trkpt lat="44.33347" lon="5.83367">
        <ele>595</ele>
        <time>2019-03-05T13:05:40Z</time>
      </trkpt>
      <trkpt lat="44.33351" lon="5.83366">
        <ele>595</ele>
        <time>2019-03-05T13:05:41Z</time>
      </trkpt>
      <trkpt lat="44.33356" lon="5.83365">
        <ele>595</ele>
        <time>2019-03-05T13:05:42Z</time>
      </trkpt>
      <trkpt lat="44.3336" lon="5.83365">
        <ele>595</ele>
        <time>2019-03-05T13:05:43Z</time>
      </trkpt>
      <trkpt lat="44.33365" lon="5.83364">
        <ele>595</ele>
        <time>2019-03-05T13:05:44Z</time>
      </trkpt>
      <trkpt lat="44.33369" lon="5.83363">
        <ele>595</ele>
        <time>2019-03-05T13:05:45Z</time>
      </trkpt>
      <trkpt lat="44.33374" lon="5.83363">
        <ele>595</ele>
        <time>2019-03-05T13:05:46Z</time>
      </trkpt>
      <trkpt lat="44.33379" lon="5.83362">
        <ele>595</ele>
        <time>2019-03-05T13:05:47Z</time>
      </trkpt>
      <trkpt lat="44.33383" lon="5.83361">
        <ele>595</ele>
        <time>2019-03-05T13:05:48Z</time>
      </trkpt>
      <trkpt lat="44.33388" lon="5.8336">
        <ele>595</ele>
        <time>2019-03-05T13:05:49Z</time>
      </trkpt>
      <trkpt lat="44.33393" lon="5.83359">
        <ele>595</ele>
        <time>2019-03-05T13:05:50Z</time>
      </trkpt>
      <trkpt lat="44.33397" lon="5.83358">
        <ele>595</ele>
        <time>2019-03-05T13:05:51Z</time>
      </trkpt>
      <trkpt lat="44.33402" lon="5.83358">
        <ele>595</ele>
        <time>2019-03-05T13:05:52Z</time>
      </trkpt>
      <trkpt lat="44.33407" lon="5.83357">
        <ele>596</ele>
        <time>2019-03-05T13:05:53Z</time>
      </trkpt>
      <trkpt lat="44.33411" lon="5.83357">
        <ele>596</ele>
        <time>2019-03-05T13:05:54Z</time>
      </trkpt>
      <trkpt lat="44.33416" lon="5.83356">
        <ele>596</ele>
        <time>2019-03-05T13:05:55Z</time>
      </trkpt>
      <trkpt lat="44.33421" lon="5.83355">
        <ele>596</ele>
        <time>2019-03-05T13:05:56Z</time>
      </trkpt>
      <trkpt lat="44.33426" lon="5.83355">
        <ele>596</ele>
        <time>2019-03-05T13:05:57Z</time>
      </trkpt>
      <trkpt lat="44.3343" lon="5.83354">
        <ele>596</ele>
        <time>2019-03-05T13:05:58Z</time>
      </trkpt>
      <trkpt lat="44.33435" lon="5.83354">
        <ele>596</ele>
        <time>2019-03-05T13:05:59Z</time>
      </trkpt>
      <trkpt lat="44.3344" lon="5.83353">
        <ele>596</ele>
        <time>2019-03-05T13:06:00Z</time>
      </trkpt>
      <trkpt lat="44.33444" lon="5.83353">
        <ele>596</ele>
        <time>2019-03-05T13:06:01Z</time>
      </trkpt>
      <trkpt lat="44.33449" lon="5.83352">
        <ele>596</ele>
        <time>2019-03-05T13:06:02Z</time>
      </trkpt>
      <trkpt lat="44.33453" lon="5.83352">
        <ele>596</ele>
        <time>2019-03-05T13:06:03Z</time>
      </trkpt>
      <trkpt lat="44.33458" lon="5.83351">
        <ele>596</ele>
        <time>2019-03-05T13:06:04Z</time>
      </trkpt>
      <trkpt lat="44.33463" lon="5.83351">
        <ele>596</ele>
        <time>2019-03-05T13:06:05Z</time>
      </trkpt>
      <trkpt lat="44.33467" lon="5.83351">
        <ele>596</ele>
        <time>2019-03-05T13:06:06Z</time>
      </trkpt>
      <trkpt lat="44.33472" lon="5.83351">
        <ele>596</ele>
        <time>2019-03-05T13:06:07Z</time>
      </trkpt>
      <trkpt lat="44.33477" lon="5.83351">
        <ele>596</ele>
        <time>2019-03-05T13:06:08Z</time>
      </trkpt>
      <trkpt lat="44.33481" lon="5.83351">
        <ele>597</ele>
        <time>2019-03-05T13:06:09Z</time>
      </trkpt>
      <trkpt lat="44.33485" lon="5.83351">
        <ele>597</ele>
        <time>2019-03-05T13:06:10Z</time>
      </trkpt>
      <trkpt lat="44.3349" lon="5.83351">
        <ele>597</ele>
        <time>2019-03-05T13:06:11Z</time>
      </trkpt>
      <trkpt lat="44.33495" lon="5.83351">
        <ele>597</ele>
        <time>2019-03-05T13:06:12Z</time>
      </trkpt>
      <trkpt lat="44.33499" lon="5.83352">
        <ele>597</ele>
        <time>2019-03-05T13:06:13Z</time>
      </trkpt>
      <trkpt lat="44.33503" lon="5.83352">
        <ele>597</ele>
        <time>2019-03-05T13:06:14Z</time>
      </trkpt>
      <trkpt lat="44.33508" lon="5.83352">
        <ele>597</ele>
        <time>2019-03-05T13:06:15Z</time>
      </trkpt>
      <trkpt lat="44.33512" lon="5.83352">
        <ele>597</ele>
        <time>2019-03-05T13:06:16Z</time>
      </trkpt>
      <trkpt lat="44.33517" lon="5.83353">
        <ele>598</ele>
        <time>2019-03-05T13:06:17Z</time>
      </trkpt>
      <trkpt lat="44.33521" lon="5.83353">
        <ele>598</ele>
        <time>2019-03-05T13:06:18Z</time>
      </trkpt>
      <trkpt lat="44.33525" lon="5.83353">
        <ele>598</ele>
        <time>2019-03-05T13:06:20Z</time>
      </trkpt>
      <trkpt lat="44.3353" lon="5.83354">
        <ele>598</ele>
        <time>2019-03-05T13:06:20Z</time>
      </trkpt>
      <trkpt lat="44.33534" lon="5.83355">
        <ele>598</ele>
        <time>2019-03-05T13:06:21Z</time>
      </trkpt>
      <trkpt lat="44.33538" lon="5.83355">
        <ele>598</ele>
        <time>2019-03-05T13:06:22Z</time>
      </trkpt>
      <trkpt lat="44.33543" lon="5.83355">
        <ele>598</ele>
        <time>2019-03-05T13:06:23Z</time>
      </trkpt>
      <trkpt lat="44.33547" lon="5.83356">
        <ele>598</ele>
        <time>2019-03-05T13:06:24Z</time>
      </trkpt>
      <trkpt lat="44.33551" lon="5.83356">
        <ele>598</ele>
        <time>2019-03-05T13:06:25Z</time>
      </trkpt>
      <trkpt lat="44.33554" lon="5.83356">
        <ele>599</ele>
        <time>2019-03-05T13:06:26Z</time>
      </trkpt>
      <trkpt lat="44.33559" lon="5.83356">
        <ele>599</ele>
        <time>2019-03-05T13:06:27Z</time>
      </trkpt>
      <trkpt lat="44.33563" lon="5.83356">
        <ele>599</ele>
        <time>2019-03-05T13:06:28Z</time>
      </trkpt>
      <trkpt lat="44.33567" lon="5.83357">
        <ele>599</ele>
        <time>2019-03-05T13:06:29Z</time>
      </trkpt>
      <trkpt lat="44.33571" lon="5.83357">
        <ele>600</ele>
        <time>2019-03-05T13:06:30Z</time>
      </trkpt>
      <trkpt lat="44.33575" lon="5.83358">
        <ele>600</ele>
        <time>2019-03-05T13:06:31Z</time>
      </trkpt>
      <trkpt lat="44.3358" lon="5.83358">
        <ele>600</ele>
        <time>2019-03-05T13:06:32Z</time>
      </trkpt>
      <trkpt lat="44.33584" lon="5.83358">
        <ele>600</ele>
        <time>2019-03-05T13:06:33Z</time>
      </trkpt>
      <trkpt lat="44.33588" lon="5.83359">
        <ele>600</ele>
        <time>2019-03-05T13:06:34Z</time>
      </trkpt>
      <trkpt lat="44.33592" lon="5.8336">
        <ele>600</ele>
        <time>2019-03-05T13:06:35Z</time>
      </trkpt>
      <trkpt lat="44.33596" lon="5.8336">
        <ele>600</ele>
        <time>2019-03-05T13:06:36Z</time>
      </trkpt>
      <trkpt lat="44.336" lon="5.83361">
        <ele>600</ele>
        <time>2019-03-05T13:06:37Z</time>
      </trkpt>
      <trkpt lat="44.33604" lon="5.83362">
        <ele>600</ele>
        <time>2019-03-05T13:06:38Z</time>
      </trkpt>
      <trkpt lat="44.33608" lon="5.83363">
        <ele>600</ele>
        <time>2019-03-05T13:06:39Z</time>
      </trkpt>
      <trkpt lat="44.33612" lon="5.83364">
        <ele>600</ele>
        <time>2019-03-05T13:06:40Z</time>
      </trkpt>
      <trkpt lat="44.33617" lon="5.83365">
        <ele>600</ele>
        <time>2019-03-05T13:06:41Z</time>
      </trkpt>
      <trkpt lat="44.33622" lon="5.83365">
        <ele>600</ele>
        <time>2019-03-05T13:06:42Z</time>
      </trkpt>
      <trkpt lat="44.33626" lon="5.83366">
        <ele>600</ele>
        <time>2019-03-05T13:06:43Z</time>
      </trkpt>
      <trkpt lat="44.33631" lon="5.83367">
        <ele>600</ele>
        <time>2019-03-05T13:06:44Z</time>
      </trkpt>
      <trkpt lat="44.33635" lon="5.83367">
        <ele>600</ele>
        <time>2019-03-05T13:06:45Z</time>
      </trkpt>
      <trkpt lat="44.3364" lon="5.83367">
        <ele>600</ele>
        <time>2019-03-05T13:06:46Z</time>
      </trkpt>
      <trkpt lat="44.33644" lon="5.83368">
        <ele>600</ele>
        <time>2019-03-05T13:06:47Z</time>
      </trkpt>
      <trkpt lat="44.33649" lon="5.83368">
        <ele>600</ele>
        <time>2019-03-05T13:06:48Z</time>
      </trkpt>
      <trkpt lat="44.33653" lon="5.83369">
        <ele>600</ele>
        <time>2019-03-05T13:06:49Z</time>
      </trkpt>
      <trkpt lat="44.33657" lon="5.83369">
        <ele>600</ele>
        <time>2019-03-05T13:06:50Z</time>
      </trkpt>
      <trkpt lat="44.33662" lon="5.8337">
        <ele>600</ele>
        <time>2019-03-05T13:06:51Z</time>
      </trkpt>
      <trkpt lat="44.33666" lon="5.83371">
        <ele>600</ele>
        <time>2019-03-05T13:06:52Z</time>
      </trkpt>
      <trkpt lat="44.3367" lon="5.83372">
        <ele>600</ele>
        <time>2019-03-05T13:06:53Z</time>
      </trkpt>
      <trkpt lat="44.33675" lon="5.83372">
        <ele>600</ele>
        <time>2019-03-05T13:06:54Z</time>
      </trkpt>
      <trkpt lat="44.3368" lon="5.83372">
        <ele>600</ele>
        <time>2019-03-05T13:06:55Z</time>
      </trkpt>
      <trkpt lat="44.33684" lon="5.83373">
        <ele>600</ele>
        <time>2019-03-05T13:06:56Z</time>
      </trkpt>
      <trkpt lat="44.33688" lon="5.83373">
        <ele>600</ele>
        <time>2019-03-05T13:06:57Z</time>
      </trkpt>
      <trkpt lat="44.33693" lon="5.83374">
        <ele>600</ele>
        <time>2019-03-05T13:06:58Z</time>
      </trkpt>
      <trkpt lat="44.33698" lon="5.83375">
        <ele>600</ele>
        <time>2019-03-05T13:06:59Z</time>
      </trkpt>
      <trkpt lat="44.33702" lon="5.83375">
        <ele>600</ele>
        <time>2019-03-05T13:07:00Z</time>
      </trkpt>
      <trkpt lat="44.33707" lon="5.83376">
        <ele>600</ele>
        <time>2019-03-05T13:07:01Z</time>
      </trkpt>
      <trkpt lat="44.33711" lon="5.83376">
        <ele>600</ele>
        <time>2019-03-05T13:07:02Z</time>
      </trkpt>
      <trkpt lat="44.33716" lon="5.83376">
        <ele>600</ele>
        <time>2019-03-05T13:07:03Z</time>
      </trkpt>
      <trkpt lat="44.3372" lon="5.83376">
        <ele>600</ele>
        <time>2019-03-05T13:07:04Z</time>
      </trkpt>
      <trkpt lat="44.33725" lon="5.83377">
        <ele>600</ele>
        <time>2019-03-05T13:07:05Z</time>
      </trkpt>
      <trkpt lat="44.33729" lon="5.83377">
        <ele>600</ele>
        <time>2019-03-05T13:07:06Z</time>
      </trkpt>
      <trkpt lat="44.33733" lon="5.83378">
        <ele>600</ele>
        <time>2019-03-05T13:07:07Z</time>
      </trkpt>
      <trkpt lat="44.33738" lon="5.83379">
        <ele>600</ele>
        <time>2019-03-05T13:07:08Z</time>
      </trkpt>
      <trkpt lat="44.33742" lon="5.83379">
        <ele>600</ele>
        <time>2019-03-05T13:07:09Z</time>
      </trkpt>
      <trkpt lat="44.33747" lon="5.8338">
        <ele>600</ele>
        <time>2019-03-05T13:07:10Z</time>
      </trkpt>
      <trkpt lat="44.33751" lon="5.8338">
        <ele>600</ele>
        <time>2019-03-05T13:07:11Z</time>
      </trkpt>
      <trkpt lat="44.33756" lon="5.83381">
        <ele>600</ele>
        <time>2019-03-05T13:07:12Z</time>
      </trkpt>
      <trkpt lat="44.33761" lon="5.83382">
        <ele>600</ele>
        <time>2019-03-05T13:07:13Z</time>
      </trkpt>
      <trkpt lat="44.33765" lon="5.83382">
        <ele>600</ele>
        <time>2019-03-05T13:07:14Z</time>
      </trkpt>
      <trkpt lat="44.3377" lon="5.83383">
        <ele>600</ele>
        <time>2019-03-05T13:07:15Z</time>
      </trkpt>
      <trkpt lat="44.33775" lon="5.83383">
        <ele>600</ele>
        <time>2019-03-05T13:07:16Z</time>
      </trkpt>
      <trkpt lat="44.33779" lon="5.83384">
        <ele>600</ele>
        <time>2019-03-05T13:07:17Z</time>
      </trkpt>
      <trkpt lat="44.33784" lon="5.83385">
        <ele>600</ele>
        <time>2019-03-05T13:07:18Z</time>
      </trkpt>
      <trkpt lat="44.33789" lon="5.83386">
        <ele>600</ele>
        <time>2019-03-05T13:07:20Z</time>
      </trkpt>
      <trkpt lat="44.33793" lon="5.83386">
        <ele>601</ele>
        <time>2019-03-05T13:07:20Z</time>
      </trkpt>
      <trkpt lat="44.33797" lon="5.83387">
        <ele>601</ele>
        <time>2019-03-05T13:07:21Z</time>
      </trkpt>
      <trkpt lat="44.33802" lon="5.83388">
        <ele>601</ele>
        <time>2019-03-05T13:07:22Z</time>
      </trkpt>
      <trkpt lat="44.33806" lon="5.83389">
        <ele>601</ele>
        <time>2019-03-05T13:07:23Z</time>
      </trkpt>
      <trkpt lat="44.33811" lon="5.8339">
        <ele>601</ele>
        <time>2019-03-05T13:07:24Z</time>
      </trkpt>
      <trkpt lat="44.33815" lon="5.83391">
        <ele>601</ele>
        <time>2019-03-05T13:07:25Z</time>
      </trkpt>
      <trkpt lat="44.3382" lon="5.83392">
        <ele>601</ele>
        <time>2019-03-05T13:07:26Z</time>
      </trkpt>
      <trkpt lat="44.33824" lon="5.83393">
        <ele>601</ele>
        <time>2019-03-05T13:07:27Z</time>
      </trkpt>
      <trkpt lat="44.33828" lon="5.83394">
        <ele>601</ele>
        <time>2019-03-05T13:07:28Z</time>
      </trkpt>
      <trkpt lat="44.33833" lon="5.83395">
        <ele>601</ele>
        <time>2019-03-05T13:07:29Z</time>
      </trkpt>
      <trkpt lat="44.33837" lon="5.83396">
        <ele>601</ele>
        <time>2019-03-05T13:07:30Z</time>
      </trkpt>
      <trkpt lat="44.33841" lon="5.83397">
        <ele>601</ele>
        <time>2019-03-05T13:07:31Z</time>
      </trkpt>
      <trkpt lat="44.33846" lon="5.83397">
        <ele>601</ele>
        <time>2019-03-05T13:07:32Z</time>
      </trkpt>
      <trkpt lat="44.3385" lon="5.83398">
        <ele>601</ele>
        <time>2019-03-05T13:07:33Z</time>
      </trkpt>
      <trkpt lat="44.33855" lon="5.83399">
        <ele>601</ele>
        <time>2019-03-05T13:07:34Z</time>
      </trkpt>
      <trkpt lat="44.3386" lon="5.834">
        <ele>601</ele>
        <time>2019-03-05T13:07:35Z</time>
      </trkpt>
      <trkpt lat="44.33864" lon="5.83401">
        <ele>601</ele>
        <time>2019-03-05T13:07:36Z</time>
      </trkpt>
      <trkpt lat="44.33869" lon="5.83402">
        <ele>601</ele>
        <time>2019-03-05T13:07:37Z</time>
      </trkpt>
      <trkpt lat="44.33873" lon="5.83403">
        <ele>601</ele>
        <time>2019-03-05T13:07:38Z</time>
      </trkpt>
      <trkpt lat="44.33878" lon="5.83404">
        <ele>601</ele>
        <time>2019-03-05T13:07:39Z</time>
      </trkpt>
      <trkpt lat="44.33883" lon="5.83405">
        <ele>601</ele>
        <time>2019-03-05T13:07:40Z</time>
      </trkpt>
      <trkpt lat="44.33887" lon="5.83406">
        <ele>601</ele>
        <time>2019-03-05T13:07:41Z</time>
      </trkpt>
      <trkpt lat="44.33892" lon="5.83407">
        <ele>601</ele>
        <time>2019-03-05T13:07:42Z</time>
      </trkpt>
      <trkpt lat="44.33896" lon="5.83408">
        <ele>602</ele>
        <time>2019-03-05T13:07:43Z</time>
      </trkpt>
      <trkpt lat="44.33901" lon="5.83409">
        <ele>602</ele>
        <time>2019-03-05T13:07:44Z</time>
      </trkpt>
      <trkpt lat="44.33905" lon="5.8341">
        <ele>602</ele>
        <time>2019-03-05T13:07:45Z</time>
      </trkpt>
      <trkpt lat="44.3391" lon="5.83411">
        <ele>602</ele>
        <time>2019-03-05T13:07:46Z</time>
      </trkpt>
      <trkpt lat="44.33914" lon="5.83412">
        <ele>602</ele>
        <time>2019-03-05T13:07:47Z</time>
      </trkpt>
      <trkpt lat="44.33919" lon="5.83413">
        <ele>602</ele>
        <time>2019-03-05T13:07:48Z</time>
      </trkpt>
      <trkpt lat="44.33923" lon="5.83413">
        <ele>602</ele>
        <time>2019-03-05T13:07:49Z</time>
      </trkpt>
      <trkpt lat="44.33928" lon="5.83414">
        <ele>602</ele>
        <time>2019-03-05T13:07:50Z</time>
      </trkpt>
      <trkpt lat="44.33932" lon="5.83415">
        <ele>602</ele>
        <time>2019-03-05T13:07:51Z</time>
      </trkpt>
      <trkpt lat="44.33936" lon="5.83416">
        <ele>602</ele>
        <time>2019-03-05T13:07:52Z</time>
      </trkpt>
      <trkpt lat="44.33941" lon="5.83418">
        <ele>602</ele>
        <time>2019-03-05T13:07:53Z</time>
      </trkpt>
      <trkpt lat="44.33945" lon="5.8342">
        <ele>602</ele>
        <time>2019-03-05T13:07:54Z</time>
      </trkpt>
      <trkpt lat="44.33949" lon="5.83421">
        <ele>602</ele>
        <time>2019-03-05T13:07:55Z</time>
      </trkpt>
      <trkpt lat="44.33953" lon="5.83424">
        <ele>602</ele>
        <time>2019-03-05T13:07:56Z</time>
      </trkpt>
      <trkpt lat="44.33958" lon="5.83427">
        <ele>602</ele>
        <time>2019-03-05T13:07:57Z</time>
      </trkpt>
      <trkpt lat="44.33962" lon="5.8343">
        <ele>602</ele>
        <time>2019-03-05T13:07:58Z</time>
      </trkpt>
      <trkpt lat="44.33966" lon="5.83433">
        <ele>602</ele>
        <time>2019-03-05T13:07:59Z</time>
      </trkpt>
      <trkpt lat="44.3397" lon="5.83437">
        <ele>602</ele>
        <time>2019-03-05T13:08:00Z</time>
      </trkpt>
      <trkpt lat="44.33974" lon="5.8344">
        <ele>602</ele>
        <time>2019-03-05T13:08:01Z</time>
      </trkpt>
      <trkpt lat="44.33978" lon="5.83444">
        <ele>603</ele>
        <time>2019-03-05T13:08:02Z</time>
      </trkpt>
      <trkpt lat="44.33982" lon="5.83448">
        <ele>603</ele>
        <time>2019-03-05T13:08:03Z</time>
      </trkpt>
      <trkpt lat="44.33986" lon="5.83451">
        <ele>603</ele>
        <time>2019-03-05T13:08:04Z</time>
      </trkpt>
      <trkpt lat="44.33989" lon="5.83455">
        <ele>603</ele>
        <time>2019-03-05T13:08:05Z</time>
      </trkpt>
      <trkpt lat="44.33994" lon="5.83459">
        <ele>603</ele>
        <time>2019-03-05T13:08:06Z</time>
      </trkpt>
      <trkpt lat="44.33997" lon="5.83463">
        <ele>603</ele>
        <time>2019-03-05T13:08:07Z</time>
      </trkpt>
      <trkpt lat="44.34001" lon="5.83467">
        <ele>603</ele>
        <time>2019-03-05T13:08:08Z</time>
      </trkpt>
      <trkpt lat="44.34005" lon="5.8347">
        <ele>604</ele>
        <time>2019-03-05T13:08:09Z</time>
      </trkpt>
      <trkpt lat="44.34009" lon="5.83474">
        <ele>604</ele>
        <time>2019-03-05T13:08:10Z</time>
      </trkpt>
      <trkpt lat="44.34013" lon="5.83477">
        <ele>604</ele>
        <time>2019-03-05T13:08:11Z</time>
      </trkpt>
      <trkpt lat="44.34016" lon="5.83481">
        <ele>604</ele>
        <time>2019-03-05T13:08:12Z</time>
      </trkpt>
      <trkpt lat="44.34021" lon="5.83485">
        <ele>604</ele>
        <time>2019-03-05T13:08:13Z</time>
      </trkpt>
      <trkpt lat="44.34024" lon="5.83489">
        <ele>604</ele>
        <time>2019-03-05T13:08:14Z</time>
      </trkpt>
      <trkpt lat="44.34028" lon="5.83493">
        <ele>604</ele>
        <time>2019-03-05T13:08:15Z</time>
      </trkpt>
      <trkpt lat="44.34032" lon="5.83496">
        <ele>605</ele>
        <time>2019-03-05T13:08:16Z</time>
      </trkpt>
      <trkpt lat="44.34035" lon="5.835">
        <ele>605</ele>
        <time>2019-03-05T13:08:17Z</time>
      </trkpt>
      <trkpt lat="44.34039" lon="5.83504">
        <ele>605</ele>
        <time>2019-03-05T13:08:18Z</time>
      </trkpt>
      <trkpt lat="44.34042" lon="5.83507">
        <ele>605</ele>
        <time>2019-03-05T13:08:20Z</time>
      </trkpt>
      <trkpt lat="44.34046" lon="5.83511">
        <ele>605</ele>
        <time>2019-03-05T13:08:20Z</time>
      </trkpt>
      <trkpt lat="44.3405" lon="5.83514">
        <ele>606</ele>
        <time>2019-03-05T13:08:21Z</time>
      </trkpt>
      <trkpt lat="44.34053" lon="5.83518">
        <ele>606</ele>
        <time>2019-03-05T13:08:22Z</time>
      </trkpt>
      <trkpt lat="44.34057" lon="5.83521">
        <ele>606</ele>
        <time>2019-03-05T13:08:23Z</time>
      </trkpt>
      <trkpt lat="44.34061" lon="5.83525">
        <ele>606</ele>
        <time>2019-03-05T13:08:24Z</time>
      </trkpt>
      <trkpt lat="44.34064" lon="5.83529">
        <ele>607</ele>
        <time>2019-03-05T13:08:25Z</time>
      </trkpt>
      <trkpt lat="44.34068" lon="5.83533">
        <ele>607</ele>
        <time>2019-03-05T13:08:26Z</time>
      </trkpt>
      <trkpt lat="44.34071" lon="5.83536">
        <ele>607</ele>
        <time>2019-03-05T13:08:27Z</time>
      </trkpt>
      <trkpt lat="44.34075" lon="5.8354">
        <ele>607</ele>
        <time>2019-03-05T13:08:28Z</time>
      </trkpt>
      <trkpt lat="44.34079" lon="5.83543">
        <ele>608</ele>
        <time>2019-03-05T13:08:29Z</time>
      </trkpt>
      <trkpt lat="44.34082" lon="5.83547">
        <ele>608</ele>
        <time>2019-03-05T13:08:30Z</time>
      </trkpt>
      <trkpt lat="44.34086" lon="5.8355">
        <ele>608</ele>
        <time>2019-03-05T13:08:31Z</time>
      </trkpt>
      <trkpt lat="44.34089" lon="5.83554">
        <ele>608</ele>
        <time>2019-03-05T13:08:32Z</time>
      </trkpt>
      <trkpt lat="44.34093" lon="5.83558">
        <ele>609</ele>
        <time>2019-03-05T13:08:33Z</time>
      </trkpt>
      <trkpt lat="44.34097" lon="5.83562">
        <ele>609</ele>
        <time>2019-03-05T13:08:34Z</time>
      </trkpt>
      <trkpt lat="44.34101" lon="5.83566">
        <ele>609</ele>
        <time>2019-03-05T13:08:35Z</time>
      </trkpt>
      <trkpt lat="44.34105" lon="5.83569">
        <ele>609</ele>
        <time>2019-03-05T13:08:36Z</time>
      </trkpt>
      <trkpt lat="44.34108" lon="5.83573">
        <ele>609</ele>
        <time>2019-03-05T13:08:37Z</time>
      </trkpt>
      <trkpt lat="44.34113" lon="5.83577">
        <ele>609</ele>
        <time>2019-03-05T13:08:38Z</time>
      </trkpt>
      <trkpt lat="44.34116" lon="5.83581">
        <ele>609</ele>
        <time>2019-03-05T13:08:39Z</time>
      </trkpt>
      <trkpt lat="44.34121" lon="5.83585">
        <ele>609</ele>
        <time>2019-03-05T13:08:40Z</time>
      </trkpt>
      <trkpt lat="44.34125" lon="5.83589">
        <ele>609</ele>
        <time>2019-03-05T13:08:41Z</time>
      </trkpt>
      <trkpt lat="44.34129" lon="5.83593">
        <ele>609</ele>
        <time>2019-03-05T13:08:42Z</time>
      </trkpt>
      <trkpt lat="44.34134" lon="5.83598">
        <ele>609</ele>
        <time>2019-03-05T13:08:43Z</time>
      </trkpt>
      <trkpt lat="44.34138" lon="5.83602">
        <ele>609</ele>
        <time>2019-03-05T13:08:44Z</time>
      </trkpt>
      <trkpt lat="44.34143" lon="5.83606">
        <ele>609</ele>
        <time>2019-03-05T13:08:45Z</time>
      </trkpt>
      <trkpt lat="44.34147" lon="5.83611">
        <ele>609</ele>
        <time>2019-03-05T13:08:46Z</time>
      </trkpt>
      <trkpt lat="44.34152" lon="5.83616">
        <ele>609</ele>
        <time>2019-03-05T13:08:47Z</time>
      </trkpt>
      <trkpt lat="44.34157" lon="5.83621">
        <ele>609</ele>
        <time>2019-03-05T13:08:48Z</time>
      </trkpt>
      <trkpt lat="44.34162" lon="5.83626">
        <ele>609</ele>
        <time>2019-03-05T13:08:49Z</time>
      </trkpt>
      <trkpt lat="44.34167" lon="5.83631">
        <ele>609</ele>
        <time>2019-03-05T13:08:50Z</time>
      </trkpt>
      <trkpt lat="44.34172" lon="5.83636">
        <ele>609</ele>
        <time>2019-03-05T13:08:51Z</time>
      </trkpt>
      <trkpt lat="44.34177" lon="5.83641">
        <ele>609</ele>
        <time>2019-03-05T13:08:52Z</time>
      </trkpt>
      <trkpt lat="44.34182" lon="5.83646">
        <ele>609</ele>
        <time>2019-03-05T13:08:53Z</time>
      </trkpt>
      <trkpt lat="44.34187" lon="5.83651">
        <ele>609</ele>
        <time>2019-03-05T13:08:54Z</time>
      </trkpt>
      <trkpt lat="44.34192" lon="5.83657">
        <ele>609</ele>
        <time>2019-03-05T13:08:55Z</time>
      </trkpt>
      <trkpt lat="44.34196" lon="5.83662">
        <ele>609</ele>
        <time>2019-03-05T13:08:56Z</time>
      </trkpt>
      <trkpt lat="44.34201" lon="5.83668">
        <ele>609</ele>
        <time>2019-03-05T13:08:57Z</time>
      </trkpt>
      <trkpt lat="44.34206" lon="5.83673">
        <ele>609</ele>
        <time>2019-03-05T13:08:58Z</time>
      </trkpt>
      <trkpt lat="44.3421" lon="5.83679">
        <ele>609</ele>
        <time>2019-03-05T13:08:59Z</time>
      </trkpt>
      <trkpt lat="44.34215" lon="5.83685">
        <ele>609</ele>
        <time>2019-03-05T13:09:00Z</time>
      </trkpt>
      <trkpt lat="44.34219" lon="5.8369">
        <ele>609</ele>
        <time>2019-03-05T13:09:01Z</time>
      </trkpt>
      <trkpt lat="44.34224" lon="5.83696">
        <ele>609</ele>
        <time>2019-03-05T13:09:02Z</time>
      </trkpt>
      <trkpt lat="44.34228" lon="5.83701">
        <ele>609</ele>
        <time>2019-03-05T13:09:03Z</time>
      </trkpt>
      <trkpt lat="44.34232" lon="5.83707">
        <ele>609</ele>
        <time>2019-03-05T13:09:04Z</time>
      </trkpt>
      <trkpt lat="44.34237" lon="5.83712">
        <ele>609</ele>
        <time>2019-03-05T13:09:05Z</time>
      </trkpt>
      <trkpt lat="44.34241" lon="5.83718">
        <ele>609</ele>
        <time>2019-03-05T13:09:06Z</time>
      </trkpt>
      <trkpt lat="44.34245" lon="5.83723">
        <ele>609</ele>
        <time>2019-03-05T13:09:07Z</time>
      </trkpt>
      <trkpt lat="44.34249" lon="5.83728">
        <ele>609</ele>
        <time>2019-03-05T13:09:08Z</time>
      </trkpt>
      <trkpt lat="44.34254" lon="5.83734">
        <ele>609</ele>
        <time>2019-03-05T13:09:09Z</time>
      </trkpt>
      <trkpt lat="44.34258" lon="5.83739">
        <ele>610</ele>
        <time>2019-03-05T13:09:10Z</time>
      </trkpt>
      <trkpt lat="44.34262" lon="5.83744">
        <ele>610</ele>
        <time>2019-03-05T13:09:11Z</time>
      </trkpt>
      <trkpt lat="44.34266" lon="5.83749">
        <ele>610</ele>
        <time>2019-03-05T13:09:12Z</time>
      </trkpt>
      <trkpt lat="44.3427" lon="5.83754">
        <ele>610</ele>
        <time>2019-03-05T13:09:13Z</time>
      </trkpt>
      <trkpt lat="44.34274" lon="5.83759">
        <ele>610</ele>
        <time>2019-03-05T13:09:14Z</time>
      </trkpt>
      <trkpt lat="44.34277" lon="5.83764">
        <ele>610</ele>
        <time>2019-03-05T13:09:15Z</time>
      </trkpt>
      <trkpt lat="44.34281" lon="5.8377">
        <ele>610</ele>
        <time>2019-03-05T13:09:17Z</time>
      </trkpt>
      <trkpt lat="44.34285" lon="5.83775">
        <ele>610</ele>
        <time>2019-03-05T13:09:17Z</time>
      </trkpt>
      <trkpt lat="44.34289" lon="5.8378">
        <ele>610</ele>
        <time>2019-03-05T13:09:18Z</time>
      </trkpt>
      <trkpt lat="44.34293" lon="5.83785">
        <ele>610</ele>
        <time>2019-03-05T13:09:20Z</time>
      </trkpt>
      <trkpt lat="44.34297" lon="5.8379">
        <ele>610</ele>
        <time>2019-03-05T13:09:20Z</time>
      </trkpt>
      <trkpt lat="44.34301" lon="5.83795">
        <ele>610</ele>
        <time>2019-03-05T13:09:21Z</time>
      </trkpt>
      <trkpt lat="44.34305" lon="5.83801">
        <ele>610</ele>
        <time>2019-03-05T13:09:22Z</time>
      </trkpt>
      <trkpt lat="44.34309" lon="5.83806">
        <ele>610</ele>
        <time>2019-03-05T13:09:23Z</time>
      </trkpt>
      <trkpt lat="44.34314" lon="5.83811">
        <ele>610</ele>
        <time>2019-03-05T13:09:24Z</time>
      </trkpt>
      <trkpt lat="44.34318" lon="5.83817">
        <ele>610</ele>
        <time>2019-03-05T13:09:25Z</time>
      </trkpt>
      <trkpt lat="44.34322" lon="5.83822">
        <ele>611</ele>
        <time>2019-03-05T13:09:26Z</time>
      </trkpt>
      <trkpt lat="44.34326" lon="5.83827">
        <ele>611</ele>
        <time>2019-03-05T13:09:27Z</time>
      </trkpt>
      <trkpt lat="44.3433" lon="5.83833">
        <ele>611</ele>
        <time>2019-03-05T13:09:28Z</time>
      </trkpt>
      <trkpt lat="44.34335" lon="5.83838">
        <ele>611</ele>
        <time>2019-03-05T13:09:29Z</time>
      </trkpt>
      <trkpt lat="44.34339" lon="5.83843">
        <ele>612</ele>
        <time>2019-03-05T13:09:30Z</time>
      </trkpt>
      <trkpt lat="44.34343" lon="5.83848">
        <ele>612</ele>
        <time>2019-03-05T13:09:31Z</time>
      </trkpt>
      <trkpt lat="44.34348" lon="5.83853">
        <ele>612</ele>
        <time>2019-03-05T13:09:32Z</time>
      </trkpt>
      <trkpt lat="44.34352" lon="5.83858">
        <ele>612</ele>
        <time>2019-03-05T13:09:33Z</time>
      </trkpt>
      <trkpt lat="44.34356" lon="5.83863">
        <ele>613</ele>
        <time>2019-03-05T13:09:34Z</time>
      </trkpt>
      <trkpt lat="44.3436" lon="5.83868">
        <ele>613</ele>
        <time>2019-03-05T13:09:35Z</time>
      </trkpt>
      <trkpt lat="44.34364" lon="5.83874">
        <ele>613</ele>
        <time>2019-03-05T13:09:36Z</time>
      </trkpt>
      <trkpt lat="44.34367" lon="5.83879">
        <ele>613</ele>
        <time>2019-03-05T13:09:37Z</time>
      </trkpt>
      <trkpt lat="44.34372" lon="5.83884">
        <ele>613</ele>
        <time>2019-03-05T13:09:38Z</time>
      </trkpt>
      <trkpt lat="44.34375" lon="5.83889">
        <ele>614</ele>
        <time>2019-03-05T13:09:39Z</time>
      </trkpt>
      <trkpt lat="44.34379" lon="5.83894">
        <ele>614</ele>
        <time>2019-03-05T13:09:40Z</time>
      </trkpt>
      <trkpt lat="44.34383" lon="5.83899">
        <ele>614</ele>
        <time>2019-03-05T13:09:41Z</time>
      </trkpt>
      <trkpt lat="44.34387" lon="5.83904">
        <ele>614</ele>
        <time>2019-03-05T13:09:42Z</time>
      </trkpt>
      <trkpt lat="44.34391" lon="5.83909">
        <ele>614</ele>
        <time>2019-03-05T13:09:43Z</time>
      </trkpt>
      <trkpt lat="44.34396" lon="5.83914">
        <ele>614</ele>
        <time>2019-03-05T13:09:44Z</time>
      </trkpt>
      <trkpt lat="44.34399" lon="5.83919">
        <ele>614</ele>
        <time>2019-03-05T13:09:45Z</time>
      </trkpt>
      <trkpt lat="44.34403" lon="5.83924">
        <ele>614</ele>
        <time>2019-03-05T13:09:46Z</time>
      </trkpt>
      <trkpt lat="44.34407" lon="5.8393">
        <ele>615</ele>
        <time>2019-03-05T13:09:47Z</time>
      </trkpt>
      <trkpt lat="44.34411" lon="5.83935">
        <ele>615</ele>
        <time>2019-03-05T13:09:48Z</time>
      </trkpt>
      <trkpt lat="44.34415" lon="5.8394">
        <ele>615</ele>
        <time>2019-03-05T13:09:49Z</time>
      </trkpt>
      <trkpt lat="44.34419" lon="5.83945">
        <ele>615</ele>
        <time>2019-03-05T13:09:50Z</time>
      </trkpt>
      <trkpt lat="44.34423" lon="5.8395">
        <ele>615</ele>
        <time>2019-03-05T13:09:51Z</time>
      </trkpt>
      <trkpt lat="44.34426" lon="5.83955">
        <ele>615</ele>
        <time>2019-03-05T13:09:52Z</time>
      </trkpt>
      <trkpt lat="44.3443" lon="5.83961">
        <ele>615</ele>
        <time>2019-03-05T13:09:53Z</time>
      </trkpt>
      <trkpt lat="44.34434" lon="5.83966">
        <ele>615</ele>
        <time>2019-03-05T13:09:54Z</time>
      </trkpt>
      <trkpt lat="44.34438" lon="5.83972">
        <ele>615</ele>
        <time>2019-03-05T13:09:55Z</time>
      </trkpt>
      <trkpt lat="44.34443" lon="5.83977">
        <ele>615</ele>
        <time>2019-03-05T13:09:56Z</time>
      </trkpt>
      <trkpt lat="44.34447" lon="5.83983">
        <ele>615</ele>
        <time>2019-03-05T13:09:57Z</time>
      </trkpt>
      <trkpt lat="44.34451" lon="5.83988">
        <ele>615</ele>
        <time>2019-03-05T13:09:58Z</time>
      </trkpt>
      <trkpt lat="44.34455" lon="5.83993">
        <ele>615</ele>
        <time>2019-03-05T13:09:59Z</time>
      </trkpt>
      <trkpt lat="44.3446" lon="5.83998">
        <ele>615</ele>
        <time>2019-03-05T13:10:00Z</time>
      </trkpt>
      <trkpt lat="44.34464" lon="5.84004">
        <ele>615</ele>
        <time>2019-03-05T13:10:01Z</time>
      </trkpt>
      <trkpt lat="44.34468" lon="5.84009">
        <ele>615</ele>
        <time>2019-03-05T13:10:02Z</time>
      </trkpt>
      <trkpt lat="44.34473" lon="5.84015">
        <ele>615</ele>
        <time>2019-03-05T13:10:03Z</time>
      </trkpt>
      <trkpt lat="44.34477" lon="5.8402">
        <ele>616</ele>
        <time>2019-03-05T13:10:04Z</time>
      </trkpt>
      <trkpt lat="44.34481" lon="5.84026">
        <ele>616</ele>
        <time>2019-03-05T13:10:05Z</time>
      </trkpt>
      <trkpt lat="44.34486" lon="5.84031">
        <ele>616</ele>
        <time>2019-03-05T13:10:06Z</time>
      </trkpt>
      <trkpt lat="44.3449" lon="5.84037">
        <ele>616</ele>
        <time>2019-03-05T13:10:07Z</time>
      </trkpt>
      <trkpt lat="44.34494" lon="5.84043">
        <ele>616</ele>
        <time>2019-03-05T13:10:08Z</time>
      </trkpt>
      <trkpt lat="44.34499" lon="5.84048">
        <ele>616</ele>
        <time>2019-03-05T13:10:09Z</time>
      </trkpt>
      <trkpt lat="44.34503" lon="5.84054">
        <ele>617</ele>
        <time>2019-03-05T13:10:10Z</time>
      </trkpt>
      <trkpt lat="44.34508" lon="5.84059">
        <ele>617</ele>
        <time>2019-03-05T13:10:11Z</time>
      </trkpt>
      <trkpt lat="44.34512" lon="5.84065">
        <ele>617</ele>
        <time>2019-03-05T13:10:12Z</time>
      </trkpt>
      <trkpt lat="44.34516" lon="5.8407">
        <ele>618</ele>
        <time>2019-03-05T13:10:13Z</time>
      </trkpt>
      <trkpt lat="44.34521" lon="5.84076">
        <ele>618</ele>
        <time>2019-03-05T13:10:14Z</time>
      </trkpt>
      <trkpt lat="44.34525" lon="5.84082">
        <ele>618</ele>
        <time>2019-03-05T13:10:15Z</time>
      </trkpt>
      <trkpt lat="44.34529" lon="5.84087">
        <ele>618</ele>
        <time>2019-03-05T13:10:16Z</time>
      </trkpt>
      <trkpt lat="44.34534" lon="5.84093">
        <ele>618</ele>
        <time>2019-03-05T13:10:17Z</time>
      </trkpt>
      <trkpt lat="44.34539" lon="5.84098">
        <ele>618</ele>
        <time>2019-03-05T13:10:18Z</time>
      </trkpt>
      <trkpt lat="44.34543" lon="5.84104">
        <ele>618</ele>
        <time>2019-03-05T13:10:20Z</time>
      </trkpt>
      <trkpt lat="44.34547" lon="5.8411">
        <ele>618</ele>
        <time>2019-03-05T13:10:20Z</time>
      </trkpt>
      <trkpt lat="44.34552" lon="5.84116">
        <ele>618</ele>
        <time>2019-03-05T13:10:21Z</time>
      </trkpt>
      <trkpt lat="44.34556" lon="5.84122">
        <ele>619</ele>
        <time>2019-03-05T13:10:22Z</time>
      </trkpt>
      <trkpt lat="44.3456" lon="5.84128">
        <ele>619</ele>
        <time>2019-03-05T13:10:23Z</time>
      </trkpt>
      <trkpt lat="44.34565" lon="5.84133">
        <ele>619</ele>
        <time>2019-03-05T13:10:24Z</time>
      </trkpt>
      <trkpt lat="44.34569" lon="5.84139">
        <ele>620</ele>
        <time>2019-03-05T13:10:25Z</time>
      </trkpt>
      <trkpt lat="44.34573" lon="5.84145">
        <ele>620</ele>
        <time>2019-03-05T13:10:26Z</time>
      </trkpt>
      <trkpt lat="44.34578" lon="5.84151">
        <ele>620</ele>
        <time>2019-03-05T13:10:27Z</time>
      </trkpt>
      <trkpt lat="44.34582" lon="5.84157">
        <ele>620</ele>
        <time>2019-03-05T13:10:28Z</time>
      </trkpt>
      <trkpt lat="44.34586" lon="5.84163">
        <ele>620</ele>
        <time>2019-03-05T13:10:29Z</time>
      </trkpt>
      <trkpt lat="44.3459" lon="5.84168">
        <ele>620</ele>
        <time>2019-03-05T13:10:30Z</time>
      </trkpt>
      <trkpt lat="44.34594" lon="5.84174">
        <ele>620</ele>
        <time>2019-03-05T13:10:31Z</time>
      </trkpt>
      <trkpt lat="44.34597" lon="5.84181">
        <ele>620</ele>
        <time>2019-03-05T13:10:32Z</time>
      </trkpt>
      <trkpt lat="44.34601" lon="5.84187">
        <ele>620</ele>
        <time>2019-03-05T13:10:33Z</time>
      </trkpt>
      <trkpt lat="44.34604" lon="5.84194">
        <ele>620</ele>
        <time>2019-03-05T13:10:34Z</time>
      </trkpt>
      <trkpt lat="44.34607" lon="5.84201">
        <ele>620</ele>
        <time>2019-03-05T13:10:35Z</time>
      </trkpt>
      <trkpt lat="44.34609" lon="5.84208">
        <ele>620</ele>
        <time>2019-03-05T13:10:36Z</time>
      </trkpt>
      <trkpt lat="44.34611" lon="5.84215">
        <ele>620</ele>
        <time>2019-03-05T13:10:37Z</time>
      </trkpt>
      <trkpt lat="44.34613" lon="5.84222">
        <ele>620</ele>
        <time>2019-03-05T13:10:38Z</time>
      </trkpt>
      <trkpt lat="44.34616" lon="5.84229">
        <ele>620</ele>
        <time>2019-03-05T13:10:39Z</time>
      </trkpt>
      <trkpt lat="44.34618" lon="5.84235">
        <ele>620</ele>
        <time>2019-03-05T13:10:40Z</time>
      </trkpt>
      <trkpt lat="44.3462" lon="5.84242">
        <ele>620</ele>
        <time>2019-03-05T13:10:41Z</time>
      </trkpt>
      <trkpt lat="44.34621" lon="5.8425">
        <ele>620</ele>
        <time>2019-03-05T13:10:42Z</time>
      </trkpt>
      <trkpt lat="44.34623" lon="5.84257">
        <ele>620</ele>
        <time>2019-03-05T13:10:43Z</time>
      </trkpt>
      <trkpt lat="44.34624" lon="5.84264">
        <ele>620</ele>
        <time>2019-03-05T13:10:44Z</time>
      </trkpt>
      <trkpt lat="44.34626" lon="5.84271">
        <ele>620</ele>
        <time>2019-03-05T13:10:45Z</time>
      </trkpt>
      <trkpt lat="44.34628" lon="5.84279">
        <ele>620</ele>
        <time>2019-03-05T13:10:46Z</time>
      </trkpt>
      <trkpt lat="44.34629" lon="5.84286">
        <ele>620</ele>
        <time>2019-03-05T13:10:47Z</time>
      </trkpt>
      <trkpt lat="44.3463" lon="5.84293">
        <ele>620</ele>
        <time>2019-03-05T13:10:48Z</time>
      </trkpt>
      <trkpt lat="44.34631" lon="5.84301">
        <ele>620</ele>
        <time>2019-03-05T13:10:49Z</time>
      </trkpt>
      <trkpt lat="44.34633" lon="5.84308">
        <ele>620</ele>
        <time>2019-03-05T13:10:50Z</time>
      </trkpt>
      <trkpt lat="44.34634" lon="5.84315">
        <ele>620</ele>
        <time>2019-03-05T13:10:51Z</time>
      </trkpt>
      <trkpt lat="44.34636" lon="5.84322">
        <ele>620</ele>
        <time>2019-03-05T13:10:52Z</time>
      </trkpt>
      <trkpt lat="44.34637" lon="5.84329">
        <ele>620</ele>
        <time>2019-03-05T13:10:53Z</time>
      </trkpt>
      <trkpt lat="44.34639" lon="5.84336">
        <ele>620</ele>
        <time>2019-03-05T13:10:54Z</time>
      </trkpt>
      <trkpt lat="44.34641" lon="5.84342">
        <ele>620</ele>
        <time>2019-03-05T13:10:55Z</time>
      </trkpt>
      <trkpt lat="44.34642" lon="5.84349">
        <ele>620</ele>
        <time>2019-03-05T13:10:56Z</time>
      </trkpt>
      <trkpt lat="44.34644" lon="5.84355">
        <ele>620</ele>
        <time>2019-03-05T13:10:57Z</time>
      </trkpt>
      <trkpt lat="44.34647" lon="5.84361">
        <ele>620</ele>
        <time>2019-03-05T13:10:58Z</time>
      </trkpt>
      <trkpt lat="44.34649" lon="5.84368">
        <ele>620</ele>
        <time>2019-03-05T13:10:59Z</time>
      </trkpt>
      <trkpt lat="44.34651" lon="5.84374">
        <ele>620</ele>
        <time>2019-03-05T13:11:00Z</time>
      </trkpt>
      <trkpt lat="44.34654" lon="5.84379">
        <ele>620</ele>
        <time>2019-03-05T13:11:01Z</time>
      </trkpt>
      <trkpt lat="44.34657" lon="5.84385">
        <ele>620</ele>
        <time>2019-03-05T13:11:02Z</time>
      </trkpt>
      <trkpt lat="44.34659" lon="5.84391">
        <ele>620</ele>
        <time>2019-03-05T13:11:03Z</time>
      </trkpt>
      <trkpt lat="44.34662" lon="5.84397">
        <ele>620</ele>
        <time>2019-03-05T13:11:04Z</time>
      </trkpt>
      <trkpt lat="44.34665" lon="5.84403">
        <ele>620</ele>
        <time>2019-03-05T13:11:05Z</time>
      </trkpt>
      <trkpt lat="44.34668" lon="5.84409">
        <ele>620</ele>
        <time>2019-03-05T13:11:06Z</time>
      </trkpt>
      <trkpt lat="44.34671" lon="5.84415">
        <ele>620</ele>
        <time>2019-03-05T13:11:07Z</time>
      </trkpt>
      <trkpt lat="44.34674" lon="5.84421">
        <ele>620</ele>
        <time>2019-03-05T13:11:08Z</time>
      </trkpt>
      <trkpt lat="44.34678" lon="5.84426">
        <ele>620</ele>
        <time>2019-03-05T13:11:09Z</time>
      </trkpt>
      <trkpt lat="44.34681" lon="5.84431">
        <ele>620</ele>
        <time>2019-03-05T13:11:10Z</time>
      </trkpt>
      <trkpt lat="44.34685" lon="5.84436">
        <ele>620</ele>
        <time>2019-03-05T13:11:11Z</time>
      </trkpt>
      <trkpt lat="44.34689" lon="5.8444">
        <ele>620</ele>
        <time>2019-03-05T13:11:12Z</time>
      </trkpt>
      <trkpt lat="44.34693" lon="5.84445">
        <ele>620</ele>
        <time>2019-03-05T13:11:13Z</time>
      </trkpt>
      <trkpt lat="44.34697" lon="5.84449">
        <ele>620</ele>
        <time>2019-03-05T13:11:14Z</time>
      </trkpt>
      <trkpt lat="44.34701" lon="5.84454">
        <ele>621</ele>
        <time>2019-03-05T13:11:15Z</time>
      </trkpt>
      <trkpt lat="44.34705" lon="5.84459">
        <ele>621</ele>
        <time>2019-03-05T13:11:16Z</time>
      </trkpt>
      <trkpt lat="44.34708" lon="5.84464">
        <ele>621</ele>
        <time>2019-03-05T13:11:17Z</time>
      </trkpt>
      <trkpt lat="44.34713" lon="5.84468">
        <ele>621</ele>
        <time>2019-03-05T13:11:18Z</time>
      </trkpt>
      <trkpt lat="44.34716" lon="5.84473">
        <ele>621</ele>
        <time>2019-03-05T13:11:20Z</time>
      </trkpt>
      <trkpt lat="44.3472" lon="5.84477">
        <ele>621</ele>
        <time>2019-03-05T13:11:20Z</time>
      </trkpt>
      <trkpt lat="44.34724" lon="5.84482">
        <ele>621</ele>
        <time>2019-03-05T13:11:21Z</time>
      </trkpt>
      <trkpt lat="44.34728" lon="5.84487">
        <ele>621</ele>
        <time>2019-03-05T13:11:22Z</time>
      </trkpt>
      <trkpt lat="44.34733" lon="5.84491">
        <ele>621</ele>
        <time>2019-03-05T13:11:23Z</time>
      </trkpt>
      <trkpt lat="44.34737" lon="5.84496">
        <ele>621</ele>
        <time>2019-03-05T13:11:24Z</time>
      </trkpt>
      <trkpt lat="44.34741" lon="5.84501">
        <ele>621</ele>
        <time>2019-03-05T13:11:25Z</time>
      </trkpt>
      <trkpt lat="44.34745" lon="5.84505">
        <ele>621</ele>
        <time>2019-03-05T13:11:26Z</time>
      </trkpt>
      <trkpt lat="44.34749" lon="5.8451">
        <ele>621</ele>
        <time>2019-03-05T13:11:27Z</time>
      </trkpt>
      <trkpt lat="44.34753" lon="5.84514">
        <ele>621</ele>
        <time>2019-03-05T13:11:28Z</time>
      </trkpt>
      <trkpt lat="44.34757" lon="5.84519">
        <ele>621</ele>
        <time>2019-03-05T13:11:29Z</time>
      </trkpt>
      <trkpt lat="44.34761" lon="5.84524">
        <ele>621</ele>
        <time>2019-03-05T13:11:30Z</time>
      </trkpt>
      <trkpt lat="44.34765" lon="5.84528">
        <ele>621</ele>
        <time>2019-03-05T13:11:31Z</time>
      </trkpt>
      <trkpt lat="44.34769" lon="5.84533">
        <ele>621</ele>
        <time>2019-03-05T13:11:32Z</time>
      </trkpt>
      <trkpt lat="44.34773" lon="5.84538">
        <ele>621</ele>
        <time>2019-03-05T13:11:33Z</time>
      </trkpt>
      <trkpt lat="44.34777" lon="5.84542">
        <ele>621</ele>
        <time>2019-03-05T13:11:34Z</time>
      </trkpt>
      <trkpt lat="44.34781" lon="5.84547">
        <ele>621</ele>
        <time>2019-03-05T13:11:35Z</time>
      </trkpt>
      <trkpt lat="44.34785" lon="5.84552">
        <ele>621</ele>
        <time>2019-03-05T13:11:36Z</time>
      </trkpt>
      <trkpt lat="44.34789" lon="5.84556">
        <ele>621</ele>
        <time>2019-03-05T13:11:37Z</time>
      </trkpt>
      <trkpt lat="44.34793" lon="5.84561">
        <ele>621</ele>
        <time>2019-03-05T13:11:38Z</time>
      </trkpt>
      <trkpt lat="44.34797" lon="5.84566">
        <ele>621</ele>
        <time>2019-03-05T13:11:39Z</time>
      </trkpt>
      <trkpt lat="44.34801" lon="5.84571">
        <ele>621</ele>
        <time>2019-03-05T13:11:40Z</time>
      </trkpt>
      <trkpt lat="44.34805" lon="5.84575">
        <ele>621</ele>
        <time>2019-03-05T13:11:41Z</time>
      </trkpt>
      <trkpt lat="44.34808" lon="5.8458">
        <ele>621</ele>
        <time>2019-03-05T13:11:42Z</time>
      </trkpt>
      <trkpt lat="44.34813" lon="5.84585">
        <ele>621</ele>
        <time>2019-03-05T13:11:43Z</time>
      </trkpt>
      <trkpt lat="44.34817" lon="5.84589">
        <ele>621</ele>
        <time>2019-03-05T13:11:44Z</time>
      </trkpt>
      <trkpt lat="44.34821" lon="5.84594">
        <ele>621</ele>
        <time>2019-03-05T13:11:45Z</time>
      </trkpt>
      <trkpt lat="44.34825" lon="5.84599">
        <ele>621</ele>
        <time>2019-03-05T13:11:46Z</time>
      </trkpt>
      <trkpt lat="44.34829" lon="5.84604">
        <ele>622</ele>
        <time>2019-03-05T13:11:47Z</time>
      </trkpt>
      <trkpt lat="44.34833" lon="5.84609">
        <ele>622</ele>
        <time>2019-03-05T13:11:48Z</time>
      </trkpt>
      <trkpt lat="44.34836" lon="5.84614">
        <ele>622</ele>
        <time>2019-03-05T13:11:49Z</time>
      </trkpt>
      <trkpt lat="44.3484" lon="5.8462">
        <ele>622</ele>
        <time>2019-03-05T13:11:50Z</time>
      </trkpt>
      <trkpt lat="44.34843" lon="5.84625">
        <ele>622</ele>
        <time>2019-03-05T13:11:51Z</time>
      </trkpt>
      <trkpt lat="44.34847" lon="5.8463">
        <ele>622</ele>
        <time>2019-03-05T13:11:52Z</time>
      </trkpt>
      <trkpt lat="44.3485" lon="5.84636">
        <ele>623</ele>
        <time>2019-03-05T13:11:53Z</time>
      </trkpt>
      <trkpt lat="44.34853" lon="5.84642">
        <ele>623</ele>
        <time>2019-03-05T13:11:54Z</time>
      </trkpt>
      <trkpt lat="44.34856" lon="5.84647">
        <ele>623</ele>
        <time>2019-03-05T13:11:55Z</time>
      </trkpt>
      <trkpt lat="44.34859" lon="5.84653">
        <ele>623</ele>
        <time>2019-03-05T13:11:56Z</time>
      </trkpt>
      <trkpt lat="44.34863" lon="5.84658">
        <ele>623</ele>
        <time>2019-03-05T13:11:57Z</time>
      </trkpt>
      <trkpt lat="44.34866" lon="5.84663">
        <ele>623</ele>
        <time>2019-03-05T13:11:58Z</time>
      </trkpt>
      <trkpt lat="44.34869" lon="5.84669">
        <ele>623</ele>
        <time>2019-03-05T13:11:59Z</time>
      </trkpt>
      <trkpt lat="44.34872" lon="5.84675">
        <ele>623</ele>
        <time>2019-03-05T13:12:00Z</time>
      </trkpt>
      <trkpt lat="44.34874" lon="5.8468">
        <ele>623</ele>
        <time>2019-03-05T13:12:01Z</time>
      </trkpt>
      <trkpt lat="44.34877" lon="5.84686">
        <ele>623</ele>
        <time>2019-03-05T13:12:02Z</time>
      </trkpt>
      <trkpt lat="44.3488" lon="5.84691">
        <ele>623</ele>
        <time>2019-03-05T13:12:03Z</time>
      </trkpt>
      <trkpt lat="44.34884" lon="5.84696">
        <ele>623</ele>
        <time>2019-03-05T13:12:04Z</time>
      </trkpt>
      <trkpt lat="44.34887" lon="5.84702">
        <ele>623</ele>
        <time>2019-03-05T13:12:05Z</time>
      </trkpt>
      <trkpt lat="44.34891" lon="5.84707">
        <ele>623</ele>
        <time>2019-03-05T13:12:06Z</time>
      </trkpt>
      <trkpt lat="44.34895" lon="5.84712">
        <ele>623</ele>
        <time>2019-03-05T13:12:07Z</time>
      </trkpt>
      <trkpt lat="44.34899" lon="5.84717">
        <ele>623</ele>
        <time>2019-03-05T13:12:08Z</time>
      </trkpt>
      <trkpt lat="44.34903" lon="5.84722">
        <ele>624</ele>
        <time>2019-03-05T13:12:09Z</time>
      </trkpt>
      <trkpt lat="44.34907" lon="5.84726">
        <ele>624</ele>
        <time>2019-03-05T13:12:10Z</time>
      </trkpt>
      <trkpt lat="44.34911" lon="5.84731">
        <ele>624</ele>
        <time>2019-03-05T13:12:11Z</time>
      </trkpt>
      <trkpt lat="44.34916" lon="5.84735">
        <ele>625</ele>
        <time>2019-03-05T13:12:12Z</time>
      </trkpt>
      <trkpt lat="44.3492" lon="5.8474">
        <ele>625</ele>
        <time>2019-03-05T13:12:13Z</time>
      </trkpt>
      <trkpt lat="44.34924" lon="5.84744">
        <ele>625</ele>
        <time>2019-03-05T13:12:14Z</time>
      </trkpt>
      <trkpt lat="44.34928" lon="5.84748">
        <ele>626</ele>
        <time>2019-03-05T13:12:15Z</time>
      </trkpt>
      <trkpt lat="44.34932" lon="5.84752">
        <ele>626</ele>
        <time>2019-03-05T13:12:16Z</time>
      </trkpt>
      <trkpt lat="44.34937" lon="5.84756">
        <ele>626</ele>
        <time>2019-03-05T13:12:17Z</time>
      </trkpt>
      <trkpt lat="44.34941" lon="5.8476">
        <ele>626</ele>
        <time>2019-03-05T13:12:18Z</time>
      </trkpt>
      <trkpt lat="44.34946" lon="5.84764">
        <ele>626</ele>
        <time>2019-03-05T13:12:20Z</time>
      </trkpt>
      <trkpt lat="44.3495" lon="5.84768">
        <ele>626</ele>
        <time>2019-03-05T13:12:20Z</time>
      </trkpt>
      <trkpt lat="44.34954" lon="5.84772">
        <ele>627</ele>
        <time>2019-03-05T13:12:21Z</time>
      </trkpt>
      <trkpt lat="44.34959" lon="5.84776">
        <ele>627</ele>
        <time>2019-03-05T13:12:22Z</time>
      </trkpt>
      <trkpt lat="44.34963" lon="5.8478">
        <ele>628</ele>
        <time>2019-03-05T13:12:23Z</time>
      </trkpt>
      <trkpt lat="44.34968" lon="5.84783">
        <ele>628</ele>
        <time>2019-03-05T13:12:24Z</time>
      </trkpt>
      <trkpt lat="44.34972" lon="5.84787">
        <ele>628</ele>
        <time>2019-03-05T13:12:25Z</time>
      </trkpt>
      <trkpt lat="44.34977" lon="5.84791">
        <ele>629</ele>
        <time>2019-03-05T13:12:26Z</time>
      </trkpt>
      <trkpt lat="44.34981" lon="5.84795">
        <ele>629</ele>
        <time>2019-03-05T13:12:27Z</time>
      </trkpt>
      <trkpt lat="44.34986" lon="5.84799">
        <ele>629</ele>
        <time>2019-03-05T13:12:28Z</time>
      </trkpt>
      <trkpt lat="44.3499" lon="5.84803">
        <ele>629</ele>
        <time>2019-03-05T13:12:29Z</time>
      </trkpt>
      <trkpt lat="44.34994" lon="5.84807">
        <ele>630</ele>
        <time>2019-03-05T13:12:30Z</time>
      </trkpt>
      <trkpt lat="44.34998" lon="5.8481">
        <ele>630</ele>
        <time>2019-03-05T13:12:31Z</time>
      </trkpt>
      <trkpt lat="44.35003" lon="5.84815">
        <ele>630</ele>
        <time>2019-03-05T13:12:32Z</time>
      </trkpt>
      <trkpt lat="44.35007" lon="5.84819">
        <ele>630</ele>
        <time>2019-03-05T13:12:33Z</time>
      </trkpt>
      <trkpt lat="44.35012" lon="5.84823">
        <ele>630</ele>
        <time>2019-03-05T13:12:34Z</time>
      </trkpt>
      <trkpt lat="44.35016" lon="5.84827">
        <ele>630</ele>
        <time>2019-03-05T13:12:35Z</time>
      </trkpt>
      <trkpt lat="44.3502" lon="5.84831">
        <ele>630</ele>
        <time>2019-03-05T13:12:36Z</time>
      </trkpt>
      <trkpt lat="44.35025" lon="5.84836">
        <ele>630</ele>
        <time>2019-03-05T13:12:37Z</time>
      </trkpt>
      <trkpt lat="44.35029" lon="5.8484">
        <ele>630</ele>
        <time>2019-03-05T13:12:38Z</time>
      </trkpt>
      <trkpt lat="44.35033" lon="5.84845">
        <ele>630</ele>
        <time>2019-03-05T13:12:39Z</time>
      </trkpt>
      <trkpt lat="44.35037" lon="5.84849">
        <ele>630</ele>
        <time>2019-03-05T13:12:40Z</time>
      </trkpt>
      <trkpt lat="44.35041" lon="5.84854">
        <ele>631</ele>
        <time>2019-03-05T13:12:41Z</time>
      </trkpt>
      <trkpt lat="44.35044" lon="5.84859">
        <ele>631</ele>
        <time>2019-03-05T13:12:42Z</time>
      </trkpt>
      <trkpt lat="44.35048" lon="5.84863">
        <ele>631</ele>
        <time>2019-03-05T13:12:43Z</time>
      </trkpt>
      <trkpt lat="44.35051" lon="5.84868">
        <ele>631</ele>
        <time>2019-03-05T13:12:44Z</time>
      </trkpt>
      <trkpt lat="44.35055" lon="5.84873">
        <ele>631</ele>
        <time>2019-03-05T13:12:45Z</time>
      </trkpt>
      <trkpt lat="44.35058" lon="5.84878">
        <ele>631</ele>
        <time>2019-03-05T13:12:46Z</time>
      </trkpt>
      <trkpt lat="44.35061" lon="5.84883">
        <ele>631</ele>
        <time>2019-03-05T13:12:47Z</time>
      </trkpt>
      <trkpt lat="44.35064" lon="5.84889">
        <ele>631</ele>
        <time>2019-03-05T13:12:48Z</time>
      </trkpt>
      <trkpt lat="44.35068" lon="5.84894">
        <ele>631</ele>
        <time>2019-03-05T13:12:49Z</time>
      </trkpt>
      <trkpt lat="44.35071" lon="5.849">
        <ele>631</ele>
        <time>2019-03-05T13:12:50Z</time>
      </trkpt>
      <trkpt lat="44.35074" lon="5.84905">
        <ele>631</ele>
        <time>2019-03-05T13:12:51Z</time>
      </trkpt>
      <trkpt lat="44.35077" lon="5.84911">
        <ele>632</ele>
        <time>2019-03-05T13:12:52Z</time>
      </trkpt>
      <trkpt lat="44.3508" lon="5.84916">
        <ele>632</ele>
        <time>2019-03-05T13:12:53Z</time>
      </trkpt>
      <trkpt lat="44.35083" lon="5.84922">
        <ele>632</ele>
        <time>2019-03-05T13:12:54Z</time>
      </trkpt>
      <trkpt lat="44.35085" lon="5.84928">
        <ele>632</ele>
        <time>2019-03-05T13:12:55Z</time>
      </trkpt>
      <trkpt lat="44.35088" lon="5.84933">
        <ele>632</ele>
        <time>2019-03-05T13:12:56Z</time>
      </trkpt>
      <trkpt lat="44.35091" lon="5.84939">
        <ele>632</ele>
        <time>2019-03-05T13:12:57Z</time>
      </trkpt>
      <trkpt lat="44.35094" lon="5.84945">
        <ele>632</ele>
        <time>2019-03-05T13:12:58Z</time>
      </trkpt>
      <trkpt lat="44.35096" lon="5.84951">
        <ele>632</ele>
        <time>2019-03-05T13:12:59Z</time>
      </trkpt>
      <trkpt lat="44.35099" lon="5.84957">
        <ele>632</ele>
        <time>2019-03-05T13:13:00Z</time>
      </trkpt>
      <trkpt lat="44.35102" lon="5.84963">
        <ele>632</ele>
        <time>2019-03-05T13:13:01Z</time>
      </trkpt>
      <trkpt lat="44.35105" lon="5.84969">
        <ele>632</ele>
        <time>2019-03-05T13:13:02Z</time>
      </trkpt>
      <trkpt lat="44.35107" lon="5.84975">
        <ele>633</ele>
        <time>2019-03-05T13:13:03Z</time>
      </trkpt>
      <trkpt lat="44.3511" lon="5.84981">
        <ele>633</ele>
        <time>2019-03-05T13:13:04Z</time>
      </trkpt>
      <trkpt lat="44.35112" lon="5.84988">
        <ele>633</ele>
        <time>2019-03-05T13:13:05Z</time>
      </trkpt>
      <trkpt lat="44.35115" lon="5.84994">
        <ele>633</ele>
        <time>2019-03-05T13:13:06Z</time>
      </trkpt>
      <trkpt lat="44.35118" lon="5.85">
        <ele>633</ele>
        <time>2019-03-05T13:13:07Z</time>
      </trkpt>
      <trkpt lat="44.3512" lon="5.85007">
        <ele>633</ele>
        <time>2019-03-05T13:13:08Z</time>
      </trkpt>
      <trkpt lat="44.35123" lon="5.85013">
        <ele>633</ele>
        <time>2019-03-05T13:13:09Z</time>
      </trkpt>
      <trkpt lat="44.35125" lon="5.85019">
        <ele>633</ele>
        <time>2019-03-05T13:13:10Z</time>
      </trkpt>
      <trkpt lat="44.35128" lon="5.85026">
        <ele>633</ele>
        <time>2019-03-05T13:13:11Z</time>
      </trkpt>
      <trkpt lat="44.35131" lon="5.85032">
        <ele>633</ele>
        <time>2019-03-05T13:13:12Z</time>
      </trkpt>
      <trkpt lat="44.35133" lon="5.85038">
        <ele>633</ele>
        <time>2019-03-05T13:13:13Z</time>
      </trkpt>
      <trkpt lat="44.35136" lon="5.85044">
        <ele>633</ele>
        <time>2019-03-05T13:13:14Z</time>
      </trkpt>
      <trkpt lat="44.35139" lon="5.8505">
        <ele>633</ele>
        <time>2019-03-05T13:13:15Z</time>
      </trkpt>
      <trkpt lat="44.35143" lon="5.85056">
        <ele>633</ele>
        <time>2019-03-05T13:13:16Z</time>
      </trkpt>
      <trkpt lat="44.35146" lon="5.85061">
        <ele>633</ele>
        <time>2019-03-05T13:13:17Z</time>
      </trkpt>
      <trkpt lat="44.3515" lon="5.85067">
        <ele>634</ele>
        <time>2019-03-05T13:13:18Z</time>
      </trkpt>
      <trkpt lat="44.35154" lon="5.85072">
        <ele>634</ele>
        <time>2019-03-05T13:13:20Z</time>
      </trkpt>
      <trkpt lat="44.35159" lon="5.85076">
        <ele>634</ele>
        <time>2019-03-05T13:13:20Z</time>
      </trkpt>
      <trkpt lat="44.35163" lon="5.85081">
        <ele>634</ele>
        <time>2019-03-05T13:13:21Z</time>
      </trkpt>
      <trkpt lat="44.35168" lon="5.85086">
        <ele>634</ele>
        <time>2019-03-05T13:13:22Z</time>
      </trkpt>
      <trkpt lat="44.35172" lon="5.8509">
        <ele>635</ele>
        <time>2019-03-05T13:13:23Z</time>
      </trkpt>
      <trkpt lat="44.35177" lon="5.85095">
        <ele>635</ele>
        <time>2019-03-05T13:13:24Z</time>
      </trkpt>
      <trkpt lat="44.35181" lon="5.851">
        <ele>635</ele>
        <time>2019-03-05T13:13:25Z</time>
      </trkpt>
      <trkpt lat="44.35186" lon="5.85104">
        <ele>635</ele>
        <time>2019-03-05T13:13:26Z</time>
      </trkpt>
      <trkpt lat="44.3519" lon="5.85109">
        <ele>636</ele>
        <time>2019-03-05T13:13:27Z</time>
      </trkpt>
      <trkpt lat="44.35194" lon="5.85114">
        <ele>636</ele>
        <time>2019-03-05T13:13:28Z</time>
      </trkpt>
      <trkpt lat="44.35199" lon="5.85119">
        <ele>636</ele>
        <time>2019-03-05T13:13:29Z</time>
      </trkpt>
      <trkpt lat="44.35203" lon="5.85124">
        <ele>636</ele>
        <time>2019-03-05T13:13:30Z</time>
      </trkpt>
      <trkpt lat="44.35207" lon="5.85129">
        <ele>636</ele>
        <time>2019-03-05T13:13:31Z</time>
      </trkpt>
      <trkpt lat="44.3521" lon="5.85135">
        <ele>636</ele>
        <time>2019-03-05T13:13:32Z</time>
      </trkpt>
      <trkpt lat="44.35215" lon="5.8514">
        <ele>636</ele>
        <time>2019-03-05T13:13:33Z</time>
      </trkpt>
      <trkpt lat="44.35218" lon="5.85146">
        <ele>636</ele>
        <time>2019-03-05T13:13:34Z</time>
      </trkpt>
      <trkpt lat="44.35222" lon="5.85151">
        <ele>636</ele>
        <time>2019-03-05T13:13:35Z</time>
      </trkpt>
      <trkpt lat="44.35225" lon="5.85158">
        <ele>636</ele>
        <time>2019-03-05T13:13:36Z</time>
      </trkpt>
      <trkpt lat="44.35228" lon="5.85164">
        <ele>636</ele>
        <time>2019-03-05T13:13:37Z</time>
      </trkpt>
      <trkpt lat="44.35231" lon="5.8517">
        <ele>636</ele>
        <time>2019-03-05T13:13:38Z</time>
      </trkpt>
      <trkpt lat="44.35233" lon="5.85177">
        <ele>636</ele>
        <time>2019-03-05T13:13:39Z</time>
      </trkpt>
      <trkpt lat="44.35235" lon="5.85183">
        <ele>636</ele>
        <time>2019-03-05T13:13:40Z</time>
      </trkpt>
      <trkpt lat="44.35237" lon="5.8519">
        <ele>636</ele>
        <time>2019-03-05T13:13:41Z</time>
      </trkpt>
      <trkpt lat="44.35239" lon="5.85197">
        <ele>636</ele>
        <time>2019-03-05T13:13:42Z</time>
      </trkpt>
      <trkpt lat="44.35241" lon="5.85204">
        <ele>636</ele>
        <time>2019-03-05T13:13:43Z</time>
      </trkpt>
      <trkpt lat="44.35243" lon="5.85211">
        <ele>636</ele>
        <time>2019-03-05T13:13:44Z</time>
      </trkpt>
      <trkpt lat="44.35245" lon="5.85217">
        <ele>636</ele>
        <time>2019-03-05T13:13:45Z</time>
      </trkpt>
      <trkpt lat="44.35247" lon="5.85224">
        <ele>636</ele>
        <time>2019-03-05T13:13:46Z</time>
      </trkpt>
      <trkpt lat="44.35249" lon="5.85231">
        <ele>636</ele>
        <time>2019-03-05T13:13:47Z</time>
      </trkpt>
      <trkpt lat="44.35252" lon="5.85238">
        <ele>636</ele>
        <time>2019-03-05T13:13:48Z</time>
      </trkpt>
      <trkpt lat="44.35254" lon="5.85245">
        <ele>636</ele>
        <time>2019-03-05T13:13:49Z</time>
      </trkpt>
      <trkpt lat="44.35256" lon="5.85252">
        <ele>637</ele>
        <time>2019-03-05T13:13:50Z</time>
      </trkpt>
      <trkpt lat="44.35258" lon="5.85258">
        <ele>637</ele>
        <time>2019-03-05T13:13:51Z</time>
      </trkpt>
      <trkpt lat="44.3526" lon="5.85265">
        <ele>637</ele>
        <time>2019-03-05T13:13:52Z</time>
      </trkpt>
      <trkpt lat="44.35262" lon="5.85272">
        <ele>637</ele>
        <time>2019-03-05T13:13:53Z</time>
      </trkpt>
      <trkpt lat="44.35264" lon="5.85279">
        <ele>637</ele>
        <time>2019-03-05T13:13:54Z</time>
      </trkpt>
      <trkpt lat="44.35266" lon="5.85285">
        <ele>637</ele>
        <time>2019-03-05T13:13:55Z</time>
      </trkpt>
      <trkpt lat="44.35268" lon="5.85292">
        <ele>637</ele>
        <time>2019-03-05T13:13:56Z</time>
      </trkpt>
      <trkpt lat="44.35271" lon="5.85299">
        <ele>637</ele>
        <time>2019-03-05T13:13:57Z</time>
      </trkpt>
      <trkpt lat="44.35273" lon="5.85305">
        <ele>637</ele>
        <time>2019-03-05T13:13:58Z</time>
      </trkpt>
      <trkpt lat="44.35275" lon="5.85312">
        <ele>637</ele>
        <time>2019-03-05T13:13:59Z</time>
      </trkpt>
      <trkpt lat="44.35277" lon="5.85319">
        <ele>637</ele>
        <time>2019-03-05T13:14:00Z</time>
      </trkpt>
      <trkpt lat="44.35279" lon="5.85325">
        <ele>638</ele>
        <time>2019-03-05T13:14:01Z</time>
      </trkpt>
      <trkpt lat="44.35282" lon="5.85332">
        <ele>638</ele>
        <time>2019-03-05T13:14:02Z</time>
      </trkpt>
      <trkpt lat="44.35284" lon="5.85338">
        <ele>638</ele>
        <time>2019-03-05T13:14:03Z</time>
      </trkpt>
      <trkpt lat="44.35286" lon="5.85345">
        <ele>638</ele>
        <time>2019-03-05T13:14:04Z</time>
      </trkpt>
      <trkpt lat="44.35288" lon="5.85352">
        <ele>638</ele>
        <time>2019-03-05T13:14:05Z</time>
      </trkpt>
      <trkpt lat="44.3529" lon="5.85359">
        <ele>638</ele>
        <time>2019-03-05T13:14:06Z</time>
      </trkpt>
      <trkpt lat="44.35292" lon="5.85366">
        <ele>638</ele>
        <time>2019-03-05T13:14:07Z</time>
      </trkpt>
      <trkpt lat="44.35295" lon="5.85372">
        <ele>638</ele>
        <time>2019-03-05T13:14:08Z</time>
      </trkpt>
      <trkpt lat="44.35297" lon="5.85379">
        <ele>638</ele>
        <time>2019-03-05T13:14:09Z</time>
      </trkpt>
      <trkpt lat="44.35299" lon="5.85386">
        <ele>638</ele>
        <time>2019-03-05T13:14:10Z</time>
      </trkpt>
      <trkpt lat="44.35301" lon="5.85392">
        <ele>638</ele>
        <time>2019-03-05T13:14:11Z</time>
      </trkpt>
      <trkpt lat="44.35303" lon="5.85399">
        <ele>639</ele>
        <time>2019-03-05T13:14:12Z</time>
      </trkpt>
      <trkpt lat="44.35306" lon="5.85406">
        <ele>639</ele>
        <time>2019-03-05T13:14:13Z</time>
      </trkpt>
      <trkpt lat="44.35308" lon="5.85412">
        <ele>640</ele>
        <time>2019-03-05T13:14:14Z</time>
      </trkpt>
      <trkpt lat="44.35311" lon="5.85419">
        <ele>640</ele>
        <time>2019-03-05T13:14:15Z</time>
      </trkpt>
      <trkpt lat="44.35314" lon="5.85425">
        <ele>641</ele>
        <time>2019-03-05T13:14:16Z</time>
      </trkpt>
      <trkpt lat="44.35316" lon="5.85431">
        <ele>641</ele>
        <time>2019-03-05T13:14:17Z</time>
      </trkpt>
      <trkpt lat="44.3532" lon="5.85437">
        <ele>641</ele>
        <time>2019-03-05T13:14:18Z</time>
      </trkpt>
      <trkpt lat="44.35323" lon="5.85443">
        <ele>641</ele>
        <time>2019-03-05T13:14:20Z</time>
      </trkpt>
      <trkpt lat="44.35327" lon="5.85448">
        <ele>642</ele>
        <time>2019-03-05T13:14:20Z</time>
      </trkpt>
      <trkpt lat="44.35331" lon="5.85454">
        <ele>642</ele>
        <time>2019-03-05T13:14:21Z</time>
      </trkpt>
      <trkpt lat="44.35334" lon="5.85459">
        <ele>642</ele>
        <time>2019-03-05T13:14:22Z</time>
      </trkpt>
      <trkpt lat="44.35338" lon="5.85464">
        <ele>642</ele>
        <time>2019-03-05T13:14:23Z</time>
      </trkpt>
      <trkpt lat="44.35342" lon="5.85469">
        <ele>642</ele>
        <time>2019-03-05T13:14:24Z</time>
      </trkpt>
      <trkpt lat="44.35347" lon="5.85473">
        <ele>642</ele>
        <time>2019-03-05T13:14:25Z</time>
      </trkpt>
      <trkpt lat="44.35351" lon="5.85478">
        <ele>642</ele>
        <time>2019-03-05T13:14:26Z</time>
      </trkpt>
      <trkpt lat="44.35355" lon="5.85483">
        <ele>642</ele>
        <time>2019-03-05T13:14:27Z</time>
      </trkpt>
      <trkpt lat="44.3536" lon="5.85488">
        <ele>642</ele>
        <time>2019-03-05T13:14:28Z</time>
      </trkpt>
      <trkpt lat="44.35364" lon="5.85493">
        <ele>642</ele>
        <time>2019-03-05T13:14:29Z</time>
      </trkpt>
      <trkpt lat="44.35368" lon="5.85498">
        <ele>642</ele>
        <time>2019-03-05T13:14:30Z</time>
      </trkpt>
      <trkpt lat="44.35372" lon="5.85502">
        <ele>642</ele>
        <time>2019-03-05T13:14:31Z</time>
      </trkpt>
      <trkpt lat="44.35376" lon="5.85507">
        <ele>642</ele>
        <time>2019-03-05T13:14:32Z</time>
      </trkpt>
      <trkpt lat="44.35381" lon="5.85512">
        <ele>642</ele>
        <time>2019-03-05T13:14:33Z</time>
      </trkpt>
      <trkpt lat="44.35385" lon="5.85516">
        <ele>642</ele>
        <time>2019-03-05T13:14:34Z</time>
      </trkpt>
      <trkpt lat="44.35389" lon="5.85521">
        <ele>642</ele>
        <time>2019-03-05T13:14:35Z</time>
      </trkpt>
      <trkpt lat="44.35393" lon="5.85526">
        <ele>642</ele>
        <time>2019-03-05T13:14:36Z</time>
      </trkpt>
      <trkpt lat="44.35397" lon="5.8553">
        <ele>642</ele>
        <time>2019-03-05T13:14:37Z</time>
      </trkpt>
      <trkpt lat="44.35401" lon="5.85534">
        <ele>642</ele>
        <time>2019-03-05T13:14:38Z</time>
      </trkpt>
      <trkpt lat="44.35405" lon="5.85539">
        <ele>642</ele>
        <time>2019-03-05T13:14:39Z</time>
      </trkpt>
      <trkpt lat="44.35409" lon="5.85543">
        <ele>642</ele>
        <time>2019-03-05T13:14:40Z</time>
      </trkpt>
      <trkpt lat="44.35413" lon="5.85548">
        <ele>642</ele>
        <time>2019-03-05T13:14:41Z</time>
      </trkpt>
      <trkpt lat="44.35418" lon="5.85552">
        <ele>642</ele>
        <time>2019-03-05T13:14:42Z</time>
      </trkpt>
      <trkpt lat="44.35422" lon="5.85557">
        <ele>642</ele>
        <time>2019-03-05T13:14:43Z</time>
      </trkpt>
      <trkpt lat="44.35426" lon="5.85561">
        <ele>642</ele>
        <time>2019-03-05T13:14:44Z</time>
      </trkpt>
      <trkpt lat="44.3543" lon="5.85566">
        <ele>642</ele>
        <time>2019-03-05T13:14:45Z</time>
      </trkpt>
      <trkpt lat="44.35434" lon="5.8557">
        <ele>643</ele>
        <time>2019-03-05T13:14:46Z</time>
      </trkpt>
      <trkpt lat="44.35438" lon="5.85574">
        <ele>643</ele>
        <time>2019-03-05T13:14:47Z</time>
      </trkpt>
      <trkpt lat="44.35442" lon="5.85579">
        <ele>643</ele>
        <time>2019-03-05T13:14:48Z</time>
      </trkpt>
      <trkpt lat="44.35446" lon="5.85583">
        <ele>643</ele>
        <time>2019-03-05T13:14:49Z</time>
      </trkpt>
      <trkpt lat="44.3545" lon="5.85587">
        <ele>644</ele>
        <time>2019-03-05T13:14:50Z</time>
      </trkpt>
      <trkpt lat="44.35453" lon="5.85591">
        <ele>644</ele>
        <time>2019-03-05T13:14:51Z</time>
      </trkpt>
      <trkpt lat="44.35457" lon="5.85595">
        <ele>644</ele>
        <time>2019-03-05T13:14:52Z</time>
      </trkpt>
      <trkpt lat="44.35461" lon="5.856">
        <ele>644</ele>
        <time>2019-03-05T13:14:53Z</time>
      </trkpt>
      <trkpt lat="44.35465" lon="5.85604">
        <ele>644</ele>
        <time>2019-03-05T13:14:54Z</time>
      </trkpt>
      <trkpt lat="44.35469" lon="5.85608">
        <ele>645</ele>
        <time>2019-03-05T13:14:55Z</time>
      </trkpt>
      <trkpt lat="44.35472" lon="5.85612">
        <ele>645</ele>
        <time>2019-03-05T13:14:56Z</time>
      </trkpt>
      <trkpt lat="44.35476" lon="5.85617">
        <ele>645</ele>
        <time>2019-03-05T13:14:57Z</time>
      </trkpt>
      <trkpt lat="44.3548" lon="5.85621">
        <ele>645</ele>
        <time>2019-03-05T13:14:58Z</time>
      </trkpt>
      <trkpt lat="44.35484" lon="5.85625">
        <ele>645</ele>
        <time>2019-03-05T13:14:59Z</time>
      </trkpt>
      <trkpt lat="44.35488" lon="5.85629">
        <ele>646</ele>
        <time>2019-03-05T13:15:00Z</time>
      </trkpt>
      <trkpt lat="44.35492" lon="5.85634">
        <ele>646</ele>
        <time>2019-03-05T13:15:01Z</time>
      </trkpt>
      <trkpt lat="44.35496" lon="5.85638">
        <ele>646</ele>
        <time>2019-03-05T13:15:02Z</time>
      </trkpt>
      <trkpt lat="44.355" lon="5.85642">
        <ele>646</ele>
        <time>2019-03-05T13:15:03Z</time>
      </trkpt>
      <trkpt lat="44.35503" lon="5.85646">
        <ele>646</ele>
        <time>2019-03-05T13:15:04Z</time>
      </trkpt>
      <trkpt lat="44.35507" lon="5.85651">
        <ele>646</ele>
        <time>2019-03-05T13:15:05Z</time>
      </trkpt>
      <trkpt lat="44.35511" lon="5.85655">
        <ele>646</ele>
        <time>2019-03-05T13:15:06Z</time>
      </trkpt>
      <trkpt lat="44.35515" lon="5.85659">
        <ele>646</ele>
        <time>2019-03-05T13:15:07Z</time>
      </trkpt>
      <trkpt lat="44.35519" lon="5.85664">
        <ele>646</ele>
        <time>2019-03-05T13:15:08Z</time>
      </trkpt>
      <trkpt lat="44.35523" lon="5.85668">
        <ele>647</ele>
        <time>2019-03-05T13:15:09Z</time>
      </trkpt>
      <trkpt lat="44.35527" lon="5.85672">
        <ele>647</ele>
        <time>2019-03-05T13:15:10Z</time>
      </trkpt>
      <trkpt lat="44.3553" lon="5.85677">
        <ele>647</ele>
        <time>2019-03-05T13:15:11Z</time>
      </trkpt>
      <trkpt lat="44.35535" lon="5.85681">
        <ele>647</ele>
        <time>2019-03-05T13:15:12Z</time>
      </trkpt>
      <trkpt lat="44.35538" lon="5.85685">
        <ele>647</ele>
        <time>2019-03-05T13:15:13Z</time>
      </trkpt>
      <trkpt lat="44.35542" lon="5.8569">
        <ele>647</ele>
        <time>2019-03-05T13:15:14Z</time>
      </trkpt>
      <trkpt lat="44.35546" lon="5.85694">
        <ele>647</ele>
        <time>2019-03-05T13:15:15Z</time>
      </trkpt>
      <trkpt lat="44.3555" lon="5.85698">
        <ele>647</ele>
        <time>2019-03-05T13:15:16Z</time>
      </trkpt>
      <trkpt lat="44.35554" lon="5.85703">
        <ele>648</ele>
        <time>2019-03-05T13:15:17Z</time>
      </trkpt>
      <trkpt lat="44.35558" lon="5.85707">
        <ele>648</ele>
        <time>2019-03-05T13:15:18Z</time>
      </trkpt>
      <trkpt lat="44.35562" lon="5.85711">
        <ele>648</ele>
        <time>2019-03-05T13:15:20Z</time>
      </trkpt>
      <trkpt lat="44.35566" lon="5.85715">
        <ele>648</ele>
        <time>2019-03-05T13:15:20Z</time>
      </trkpt>
      <trkpt lat="44.3557" lon="5.8572">
        <ele>648</ele>
        <time>2019-03-05T13:15:21Z</time>
      </trkpt>
      <trkpt lat="44.35574" lon="5.85724">
        <ele>648</ele>
        <time>2019-03-05T13:15:22Z</time>
      </trkpt>
      <trkpt lat="44.35578" lon="5.85729">
        <ele>648</ele>
        <time>2019-03-05T13:15:23Z</time>
      </trkpt>
      <trkpt lat="44.35581" lon="5.85733">
        <ele>648</ele>
        <time>2019-03-05T13:15:24Z</time>
      </trkpt>
      <trkpt lat="44.35585" lon="5.85737">
        <ele>648</ele>
        <time>2019-03-05T13:15:25Z</time>
      </trkpt>
      <trkpt lat="44.35589" lon="5.85742">
        <ele>649</ele>
        <time>2019-03-05T13:15:26Z</time>
      </trkpt>
      <trkpt lat="44.35593" lon="5.85746">
        <ele>649</ele>
        <time>2019-03-05T13:15:27Z</time>
      </trkpt>
      <trkpt lat="44.35596" lon="5.8575">
        <ele>649</ele>
        <time>2019-03-05T13:15:28Z</time>
      </trkpt>
      <trkpt lat="44.356" lon="5.85755">
        <ele>649</ele>
        <time>2019-03-05T13:15:29Z</time>
      </trkpt>
      <trkpt lat="44.35604" lon="5.85759">
        <ele>650</ele>
        <time>2019-03-05T13:15:30Z</time>
      </trkpt>
      <trkpt lat="44.35608" lon="5.85764">
        <ele>650</ele>
        <time>2019-03-05T13:15:31Z</time>
      </trkpt>
      <trkpt lat="44.35611" lon="5.85768">
        <ele>650</ele>
        <time>2019-03-05T13:15:32Z</time>
      </trkpt>
      <trkpt lat="44.35615" lon="5.85773">
        <ele>650</ele>
        <time>2019-03-05T13:15:33Z</time>
      </trkpt>
      <trkpt lat="44.35618" lon="5.85778">
        <ele>651</ele>
        <time>2019-03-05T13:15:34Z</time>
      </trkpt>
      <trkpt lat="44.35622" lon="5.85782">
        <ele>651</ele>
        <time>2019-03-05T13:15:35Z</time>
      </trkpt>
      <trkpt lat="44.35625" lon="5.85787">
        <ele>651</ele>
        <time>2019-03-05T13:15:36Z</time>
      </trkpt>
      <trkpt lat="44.35628" lon="5.85792">
        <ele>651</ele>
        <time>2019-03-05T13:15:37Z</time>
      </trkpt>
      <trkpt lat="44.35631" lon="5.85797">
        <ele>652</ele>
        <time>2019-03-05T13:15:38Z</time>
      </trkpt>
      <trkpt lat="44.35634" lon="5.85803">
        <ele>652</ele>
        <time>2019-03-05T13:15:39Z</time>
      </trkpt>
      <trkpt lat="44.35638" lon="5.85808">
        <ele>652</ele>
        <time>2019-03-05T13:15:40Z</time>
      </trkpt>
      <trkpt lat="44.35641" lon="5.85813">
        <ele>652</ele>
        <time>2019-03-05T13:15:41Z</time>
      </trkpt>
      <trkpt lat="44.35644" lon="5.85818">
        <ele>652</ele>
        <time>2019-03-05T13:15:42Z</time>
      </trkpt>
      <trkpt lat="44.35648" lon="5.85824">
        <ele>652</ele>
        <time>2019-03-05T13:15:43Z</time>
      </trkpt>
      <trkpt lat="44.35651" lon="5.85829">
        <ele>653</ele>
        <time>2019-03-05T13:15:44Z</time>
      </trkpt>
      <trkpt lat="44.35654" lon="5.85834">
        <ele>653</ele>
        <time>2019-03-05T13:15:45Z</time>
      </trkpt>
      <trkpt lat="44.35657" lon="5.8584">
        <ele>653</ele>
        <time>2019-03-05T13:15:46Z</time>
      </trkpt>
      <trkpt lat="44.35661" lon="5.85845">
        <ele>653</ele>
        <time>2019-03-05T13:15:47Z</time>
      </trkpt>
      <trkpt lat="44.35664" lon="5.8585">
        <ele>654</ele>
        <time>2019-03-05T13:15:48Z</time>
      </trkpt>
      <trkpt lat="44.35667" lon="5.85856">
        <ele>654</ele>
        <time>2019-03-05T13:15:49Z</time>
      </trkpt>
      <trkpt lat="44.3567" lon="5.85862">
        <ele>654</ele>
        <time>2019-03-05T13:15:50Z</time>
      </trkpt>
      <trkpt lat="44.35674" lon="5.85867">
        <ele>654</ele>
        <time>2019-03-05T13:15:51Z</time>
      </trkpt>
      <trkpt lat="44.35677" lon="5.85872">
        <ele>655</ele>
        <time>2019-03-05T13:15:52Z</time>
      </trkpt>
      <trkpt lat="44.3568" lon="5.85878">
        <ele>655</ele>
        <time>2019-03-05T13:15:53Z</time>
      </trkpt>
      <trkpt lat="44.35683" lon="5.85883">
        <ele>655</ele>
        <time>2019-03-05T13:15:54Z</time>
      </trkpt>
      <trkpt lat="44.35687" lon="5.85888">
        <ele>655</ele>
        <time>2019-03-05T13:15:55Z</time>
      </trkpt>
      <trkpt lat="44.3569" lon="5.85893">
        <ele>655</ele>
        <time>2019-03-05T13:15:56Z</time>
      </trkpt>
      <trkpt lat="44.35693" lon="5.85899">
        <ele>656</ele>
        <time>2019-03-05T13:15:57Z</time>
      </trkpt>
      <trkpt lat="44.35696" lon="5.85904">
        <ele>656</ele>
        <time>2019-03-05T13:15:58Z</time>
      </trkpt>
      <trkpt lat="44.357" lon="5.85909">
        <ele>656</ele>
        <time>2019-03-05T13:15:59Z</time>
      </trkpt>
      <trkpt lat="44.35703" lon="5.85915">
        <ele>656</ele>
        <time>2019-03-05T13:16:00Z</time>
      </trkpt>
      <trkpt lat="44.35706" lon="5.8592">
        <ele>656</ele>
        <time>2019-03-05T13:16:01Z</time>
      </trkpt>
      <trkpt lat="44.3571" lon="5.85925">
        <ele>657</ele>
        <time>2019-03-05T13:16:02Z</time>
      </trkpt>
      <trkpt lat="44.35713" lon="5.85931">
        <ele>657</ele>
        <time>2019-03-05T13:16:03Z</time>
      </trkpt>
      <trkpt lat="44.35716" lon="5.85936">
        <ele>657</ele>
        <time>2019-03-05T13:16:04Z</time>
      </trkpt>
      <trkpt lat="44.3572" lon="5.85942">
        <ele>657</ele>
        <time>2019-03-05T13:16:05Z</time>
      </trkpt>
      <trkpt lat="44.35723" lon="5.85947">
        <ele>657</ele>
        <time>2019-03-05T13:16:06Z</time>
      </trkpt>
      <trkpt lat="44.35726" lon="5.85953">
        <ele>658</ele>
        <time>2019-03-05T13:16:07Z</time>
      </trkpt>
      <trkpt lat="44.35729" lon="5.85958">
        <ele>658</ele>
        <time>2019-03-05T13:16:08Z</time>
      </trkpt>
      <trkpt lat="44.35733" lon="5.85964">
        <ele>658</ele>
        <time>2019-03-05T13:16:09Z</time>
      </trkpt>
      <trkpt lat="44.35736" lon="5.85969">
        <ele>658</ele>
        <time>2019-03-05T13:16:10Z</time>
      </trkpt>
      <trkpt lat="44.3574" lon="5.85975">
        <ele>658</ele>
        <time>2019-03-05T13:16:11Z</time>
      </trkpt>
      <trkpt lat="44.35743" lon="5.8598">
        <ele>659</ele>
        <time>2019-03-05T13:16:12Z</time>
      </trkpt>
      <trkpt lat="44.35746" lon="5.85986">
        <ele>659</ele>
        <time>2019-03-05T13:16:13Z</time>
      </trkpt>
      <trkpt lat="44.3575" lon="5.85991">
        <ele>659</ele>
        <time>2019-03-05T13:16:14Z</time>
      </trkpt>
      <trkpt lat="44.35754" lon="5.85997">
        <ele>659</ele>
        <time>2019-03-05T13:16:15Z</time>
      </trkpt>
      <trkpt lat="44.35757" lon="5.86002">
        <ele>659</ele>
        <time>2019-03-05T13:16:16Z</time>
      </trkpt>
      <trkpt lat="44.3576" lon="5.86008">
        <ele>659</ele>
        <time>2019-03-05T13:16:17Z</time>
      </trkpt>
      <trkpt lat="44.35764" lon="5.86014">
        <ele>659</ele>
        <time>2019-03-05T13:16:18Z</time>
      </trkpt>
      <trkpt lat="44.35767" lon="5.8602">
        <ele>659</ele>
        <time>2019-03-05T13:16:20Z</time>
      </trkpt>
      <trkpt lat="44.3577" lon="5.86026">
        <ele>659</ele>
        <time>2019-03-05T13:16:20Z</time>
      </trkpt>
      <trkpt lat="44.35774" lon="5.86033">
        <ele>659</ele>
        <time>2019-03-05T13:16:21Z</time>
      </trkpt>
      <trkpt lat="44.35777" lon="5.86039">
        <ele>659</ele>
        <time>2019-03-05T13:16:22Z</time>
      </trkpt>
      <trkpt lat="44.3578" lon="5.86046">
        <ele>659</ele>
        <time>2019-03-05T13:16:23Z</time>
      </trkpt>
      <trkpt lat="44.35783" lon="5.86053">
        <ele>660</ele>
        <time>2019-03-05T13:16:24Z</time>
      </trkpt>
      <trkpt lat="44.35785" lon="5.8606">
        <ele>660</ele>
        <time>2019-03-05T13:16:25Z</time>
      </trkpt>
      <trkpt lat="44.35787" lon="5.86067">
        <ele>660</ele>
        <time>2019-03-05T13:16:26Z</time>
      </trkpt>
      <trkpt lat="44.35789" lon="5.86074">
        <ele>660</ele>
        <time>2019-03-05T13:16:27Z</time>
      </trkpt>
      <trkpt lat="44.35791" lon="5.86082">
        <ele>660</ele>
        <time>2019-03-05T13:16:28Z</time>
      </trkpt>
      <trkpt lat="44.35792" lon="5.86089">
        <ele>660</ele>
        <time>2019-03-05T13:16:29Z</time>
      </trkpt>
      <trkpt lat="44.35794" lon="5.86096">
        <ele>660</ele>
        <time>2019-03-05T13:16:30Z</time>
      </trkpt>
      <trkpt lat="44.35795" lon="5.86104">
        <ele>660</ele>
        <time>2019-03-05T13:16:31Z</time>
      </trkpt>
      <trkpt lat="44.35796" lon="5.86111">
        <ele>660</ele>
        <time>2019-03-05T13:16:32Z</time>
      </trkpt>
      <trkpt lat="44.35798" lon="5.86119">
        <ele>661</ele>
        <time>2019-03-05T13:16:33Z</time>
      </trkpt>
      <trkpt lat="44.35799" lon="5.86126">
        <ele>661</ele>
        <time>2019-03-05T13:16:34Z</time>
      </trkpt>
      <trkpt lat="44.35801" lon="5.86133">
        <ele>661</ele>
        <time>2019-03-05T13:16:35Z</time>
      </trkpt>
      <trkpt lat="44.35802" lon="5.86141">
        <ele>661</ele>
        <time>2019-03-05T13:16:36Z</time>
      </trkpt>
      <trkpt lat="44.35804" lon="5.86149">
        <ele>661</ele>
        <time>2019-03-05T13:16:37Z</time>
      </trkpt>
      <trkpt lat="44.35805" lon="5.86156">
        <ele>661</ele>
        <time>2019-03-05T13:16:38Z</time>
      </trkpt>
      <trkpt lat="44.35807" lon="5.86163">
        <ele>661</ele>
        <time>2019-03-05T13:16:39Z</time>
      </trkpt>
      <trkpt lat="44.35808" lon="5.86171">
        <ele>661</ele>
        <time>2019-03-05T13:16:40Z</time>
      </trkpt>
      <trkpt lat="44.3581" lon="5.86178">
        <ele>661</ele>
        <time>2019-03-05T13:16:41Z</time>
      </trkpt>
      <trkpt lat="44.35812" lon="5.86185">
        <ele>661</ele>
        <time>2019-03-05T13:16:42Z</time>
      </trkpt>
      <trkpt lat="44.35813" lon="5.86193">
        <ele>661</ele>
        <time>2019-03-05T13:16:43Z</time>
      </trkpt>
      <trkpt lat="44.35815" lon="5.862">
        <ele>661</ele>
        <time>2019-03-05T13:16:44Z</time>
      </trkpt>
      <trkpt lat="44.35817" lon="5.86207">
        <ele>661</ele>
        <time>2019-03-05T13:16:45Z</time>
      </trkpt>
      <trkpt lat="44.35819" lon="5.86214">
        <ele>661</ele>
        <time>2019-03-05T13:16:46Z</time>
      </trkpt>
      <trkpt lat="44.35821" lon="5.86221">
        <ele>661</ele>
        <time>2019-03-05T13:16:47Z</time>
      </trkpt>
      <trkpt lat="44.35824" lon="5.86228">
        <ele>661</ele>
        <time>2019-03-05T13:16:48Z</time>
      </trkpt>
      <trkpt lat="44.35826" lon="5.86235">
        <ele>661</ele>
        <time>2019-03-05T13:16:49Z</time>
      </trkpt>
      <trkpt lat="44.35829" lon="5.86242">
        <ele>662</ele>
        <time>2019-03-05T13:16:50Z</time>
      </trkpt>
      <trkpt lat="44.35832" lon="5.86249">
        <ele>662</ele>
        <time>2019-03-05T13:16:51Z</time>
      </trkpt>
      <trkpt lat="44.35835" lon="5.86256">
        <ele>662</ele>
        <time>2019-03-05T13:16:52Z</time>
      </trkpt>
      <trkpt lat="44.35838" lon="5.86263">
        <ele>662</ele>
        <time>2019-03-05T13:16:53Z</time>
      </trkpt>
      <trkpt lat="44.35841" lon="5.8627">
        <ele>662</ele>
        <time>2019-03-05T13:16:54Z</time>
      </trkpt>
      <trkpt lat="44.35844" lon="5.86276">
        <ele>662</ele>
        <time>2019-03-05T13:16:55Z</time>
      </trkpt>
      <trkpt lat="44.35847" lon="5.86283">
        <ele>662</ele>
        <time>2019-03-05T13:16:56Z</time>
      </trkpt>
      <trkpt lat="44.35851" lon="5.86289">
        <ele>662</ele>
        <time>2019-03-05T13:16:57Z</time>
      </trkpt>
      <trkpt lat="44.35854" lon="5.86296">
        <ele>662</ele>
        <time>2019-03-05T13:16:58Z</time>
      </trkpt>
      <trkpt lat="44.35857" lon="5.86302">
        <ele>662</ele>
        <time>2019-03-05T13:16:59Z</time>
      </trkpt>
      <trkpt lat="44.3586" lon="5.86309">
        <ele>662</ele>
        <time>2019-03-05T13:17:00Z</time>
      </trkpt>
      <trkpt lat="44.35863" lon="5.86316">
        <ele>662</ele>
        <time>2019-03-05T13:17:01Z</time>
      </trkpt>
      <trkpt lat="44.35866" lon="5.86323">
        <ele>662</ele>
        <time>2019-03-05T13:17:02Z</time>
      </trkpt>
      <trkpt lat="44.35868" lon="5.86331">
        <ele>662</ele>
        <time>2019-03-05T13:17:03Z</time>
      </trkpt>
      <trkpt lat="44.35871" lon="5.86338">
        <ele>662</ele>
        <time>2019-03-05T13:17:04Z</time>
      </trkpt>
      <trkpt lat="44.35873" lon="5.86345">
        <ele>662</ele>
        <time>2019-03-05T13:17:05Z</time>
      </trkpt>
      <trkpt lat="44.35875" lon="5.86352">
        <ele>662</ele>
        <time>2019-03-05T13:17:06Z</time>
      </trkpt>
      <trkpt lat="44.35877" lon="5.8636">
        <ele>662</ele>
        <time>2019-03-05T13:17:07Z</time>
      </trkpt>
      <trkpt lat="44.35879" lon="5.86368">
        <ele>662</ele>
        <time>2019-03-05T13:17:08Z</time>
      </trkpt>
      <trkpt lat="44.35881" lon="5.86376">
        <ele>662</ele>
        <time>2019-03-05T13:17:09Z</time>
      </trkpt>
      <trkpt lat="44.35883" lon="5.86384">
        <ele>662</ele>
        <time>2019-03-05T13:17:10Z</time>
      </trkpt>
      <trkpt lat="44.35884" lon="5.86392">
        <ele>662</ele>
        <time>2019-03-05T13:17:11Z</time>
      </trkpt>
      <trkpt lat="44.35886" lon="5.864">
        <ele>662</ele>
        <time>2019-03-05T13:17:12Z</time>
      </trkpt>
      <trkpt lat="44.35888" lon="5.86409">
        <ele>662</ele>
        <time>2019-03-05T13:17:13Z</time>
      </trkpt>
      <trkpt lat="44.35889" lon="5.86417">
        <ele>662</ele>
        <time>2019-03-05T13:17:14Z</time>
      </trkpt>
      <trkpt lat="44.35891" lon="5.86425">
        <ele>662</ele>
        <time>2019-03-05T13:17:15Z</time>
      </trkpt>
      <trkpt lat="44.35893" lon="5.86434">
        <ele>662</ele>
        <time>2019-03-05T13:17:16Z</time>
      </trkpt>
      <trkpt lat="44.35895" lon="5.86442">
        <ele>662</ele>
        <time>2019-03-05T13:17:17Z</time>
      </trkpt>
      <trkpt lat="44.35897" lon="5.86451">
        <ele>662</ele>
        <time>2019-03-05T13:17:18Z</time>
      </trkpt>
      <trkpt lat="44.35898" lon="5.86459">
        <ele>662</ele>
        <time>2019-03-05T13:17:20Z</time>
      </trkpt>
      <trkpt lat="44.359" lon="5.86468">
        <ele>662</ele>
        <time>2019-03-05T13:17:20Z</time>
      </trkpt>
      <trkpt lat="44.35902" lon="5.86477">
        <ele>662</ele>
        <time>2019-03-05T13:17:21Z</time>
      </trkpt>
      <trkpt lat="44.35904" lon="5.86485">
        <ele>662</ele>
        <time>2019-03-05T13:17:22Z</time>
      </trkpt>
      <trkpt lat="44.35906" lon="5.86494">
        <ele>662</ele>
        <time>2019-03-05T13:17:23Z</time>
      </trkpt>
      <trkpt lat="44.35908" lon="5.86503">
        <ele>662</ele>
        <time>2019-03-05T13:17:24Z</time>
      </trkpt>
      <trkpt lat="44.35909" lon="5.86512">
        <ele>662</ele>
        <time>2019-03-05T13:17:25Z</time>
      </trkpt>
      <trkpt lat="44.35911" lon="5.86521">
        <ele>662</ele>
        <time>2019-03-05T13:17:26Z</time>
      </trkpt>
      <trkpt lat="44.35913" lon="5.8653">
        <ele>662</ele>
        <time>2019-03-05T13:17:27Z</time>
      </trkpt>
      <trkpt lat="44.35915" lon="5.86539">
        <ele>662</ele>
        <time>2019-03-05T13:17:28Z</time>
      </trkpt>
      <trkpt lat="44.35917" lon="5.86548">
        <ele>662</ele>
        <time>2019-03-05T13:17:29Z</time>
      </trkpt>
      <trkpt lat="44.35919" lon="5.86557">
        <ele>662</ele>
        <time>2019-03-05T13:17:30Z</time>
      </trkpt>
      <trkpt lat="44.35921" lon="5.86566">
        <ele>662</ele>
        <time>2019-03-05T13:17:31Z</time>
      </trkpt>
      <trkpt lat="44.35923" lon="5.86576">
        <ele>662</ele>
        <time>2019-03-05T13:17:32Z</time>
      </trkpt>
      <trkpt lat="44.35925" lon="5.86585">
        <ele>662</ele>
        <time>2019-03-05T13:17:33Z</time>
      </trkpt>
      <trkpt lat="44.35927" lon="5.86594">
        <ele>662</ele>
        <time>2019-03-05T13:17:34Z</time>
      </trkpt>
      <trkpt lat="44.35929" lon="5.86603">
        <ele>662</ele>
        <time>2019-03-05T13:17:35Z</time>
      </trkpt>
      <trkpt lat="44.35931" lon="5.86613">
        <ele>662</ele>
        <time>2019-03-05T13:17:36Z</time>
      </trkpt>
      <trkpt lat="44.35933" lon="5.86622">
        <ele>662</ele>
        <time>2019-03-05T13:17:37Z</time>
      </trkpt>
      <trkpt lat="44.35935" lon="5.86632">
        <ele>662</ele>
        <time>2019-03-05T13:17:38Z</time>
      </trkpt>
      <trkpt lat="44.35938" lon="5.86641">
        <ele>662</ele>
        <time>2019-03-05T13:17:39Z</time>
      </trkpt>
      <trkpt lat="44.3594" lon="5.86651">
        <ele>662</ele>
        <time>2019-03-05T13:17:40Z</time>
      </trkpt>
      <trkpt lat="44.35942" lon="5.8666">
        <ele>662</ele>
        <time>2019-03-05T13:17:41Z</time>
      </trkpt>
      <trkpt lat="44.35944" lon="5.8667">
        <ele>662</ele>
        <time>2019-03-05T13:17:42Z</time>
      </trkpt>
      <trkpt lat="44.35947" lon="5.86679">
        <ele>662</ele>
        <time>2019-03-05T13:17:43Z</time>
      </trkpt>
      <trkpt lat="44.3595" lon="5.86689">
        <ele>662</ele>
        <time>2019-03-05T13:17:44Z</time>
      </trkpt>
      <trkpt lat="44.35954" lon="5.86698">
        <ele>662</ele>
        <time>2019-03-05T13:17:45Z</time>
      </trkpt>
      <trkpt lat="44.35957" lon="5.86707">
        <ele>662</ele>
        <time>2019-03-05T13:17:46Z</time>
      </trkpt>
      <trkpt lat="44.35961" lon="5.86716">
        <ele>662</ele>
        <time>2019-03-05T13:17:47Z</time>
      </trkpt>
      <trkpt lat="44.35965" lon="5.86725">
        <ele>662</ele>
        <time>2019-03-05T13:17:48Z</time>
      </trkpt>
      <trkpt lat="44.35969" lon="5.86734">
        <ele>662</ele>
        <time>2019-03-05T13:17:49Z</time>
      </trkpt>
      <trkpt lat="44.35973" lon="5.86743">
        <ele>662</ele>
        <time>2019-03-05T13:17:50Z</time>
      </trkpt>
      <trkpt lat="44.35978" lon="5.86753">
        <ele>662</ele>
        <time>2019-03-05T13:17:51Z</time>
      </trkpt>
      <trkpt lat="44.35983" lon="5.86762">
        <ele>662</ele>
        <time>2019-03-05T13:17:52Z</time>
      </trkpt>
      <trkpt lat="44.35987" lon="5.86771">
        <ele>662</ele>
        <time>2019-03-05T13:17:53Z</time>
      </trkpt>
      <trkpt lat="44.35992" lon="5.86781">
        <ele>662</ele>
        <time>2019-03-05T13:17:54Z</time>
      </trkpt>
      <trkpt lat="44.35997" lon="5.8679">
        <ele>662</ele>
        <time>2019-03-05T13:17:55Z</time>
      </trkpt>
      <trkpt lat="44.36002" lon="5.868">
        <ele>662</ele>
        <time>2019-03-05T13:17:56Z</time>
      </trkpt>
      <trkpt lat="44.36007" lon="5.8681">
        <ele>662</ele>
        <time>2019-03-05T13:17:57Z</time>
      </trkpt>
      <trkpt lat="44.36011" lon="5.86821">
        <ele>662</ele>
        <time>2019-03-05T13:17:58Z</time>
      </trkpt>
      <trkpt lat="44.36016" lon="5.86831">
        <ele>662</ele>
        <time>2019-03-05T13:17:59Z</time>
      </trkpt>
      <trkpt lat="44.36021" lon="5.86841">
        <ele>662</ele>
        <time>2019-03-05T13:18:00Z</time>
      </trkpt>
      <trkpt lat="44.36026" lon="5.86852">
        <ele>662</ele>
        <time>2019-03-05T13:18:01Z</time>
      </trkpt>
      <trkpt lat="44.36031" lon="5.86863">
        <ele>661</ele>
        <time>2019-03-05T13:18:02Z</time>
      </trkpt>
      <trkpt lat="44.36037" lon="5.86873">
        <ele>661</ele>
        <time>2019-03-05T13:18:03Z</time>
      </trkpt>
      <trkpt lat="44.36042" lon="5.86885">
        <ele>661</ele>
        <time>2019-03-05T13:18:04Z</time>
      </trkpt>
      <trkpt lat="44.36048" lon="5.86896">
        <ele>660</ele>
        <time>2019-03-05T13:18:05Z</time>
      </trkpt>
      <trkpt lat="44.36053" lon="5.86908">
        <ele>660</ele>
        <time>2019-03-05T13:18:06Z</time>
      </trkpt>
      <trkpt lat="44.36058" lon="5.86919">
        <ele>660</ele>
        <time>2019-03-05T13:18:07Z</time>
      </trkpt>
      <trkpt lat="44.36064" lon="5.86931">
        <ele>659</ele>
        <time>2019-03-05T13:18:08Z</time>
      </trkpt>
      <trkpt lat="44.3607" lon="5.86943">
        <ele>659</ele>
        <time>2019-03-05T13:18:09Z</time>
      </trkpt>
      <trkpt lat="44.36076" lon="5.86956">
        <ele>659</ele>
        <time>2019-03-05T13:18:10Z</time>
      </trkpt>
      <trkpt lat="44.36082" lon="5.86968">
        <ele>658</ele>
        <time>2019-03-05T13:18:11Z</time>
      </trkpt>
      <trkpt lat="44.36087" lon="5.86981">
        <ele>658</ele>
        <time>2019-03-05T13:18:12Z</time>
      </trkpt>
      <trkpt lat="44.36093" lon="5.86995">
        <ele>657</ele>
        <time>2019-03-05T13:18:13Z</time>
      </trkpt>
      <trkpt lat="44.36098" lon="5.8701">
        <ele>656</ele>
        <time>2019-03-05T13:18:14Z</time>
      </trkpt>
      <trkpt lat="44.36103" lon="5.87025">
        <ele>655</ele>
        <time>2019-03-05T13:18:15Z</time>
      </trkpt>
      <trkpt lat="44.36107" lon="5.8704">
        <ele>655</ele>
        <time>2019-03-05T13:18:16Z</time>
      </trkpt>
      <trkpt lat="44.36111" lon="5.87056">
        <ele>654</ele>
        <time>2019-03-05T13:18:17Z</time>
      </trkpt>
      <trkpt lat="44.36114" lon="5.87073">
        <ele>653</ele>
        <time>2019-03-05T13:18:18Z</time>
      </trkpt>
      <trkpt lat="44.36117" lon="5.8709">
        <ele>652</ele>
        <time>2019-03-05T13:18:19Z</time>
      </trkpt>
      <trkpt lat="44.3612" lon="5.87107">
        <ele>651</ele>
        <time>2019-03-05T13:18:20Z</time>
      </trkpt>
      <trkpt lat="44.36122" lon="5.87123">
        <ele>651</ele>
        <time>2019-03-05T13:18:21Z</time>
      </trkpt>
      <trkpt lat="44.36125" lon="5.87139">
        <ele>650</ele>
        <time>2019-03-05T13:18:22Z</time>
      </trkpt>
      <trkpt lat="44.36127" lon="5.87156">
        <ele>650</ele>
        <time>2019-03-05T13:18:23Z</time>
      </trkpt>
      <trkpt lat="44.3613" lon="5.87172">
        <ele>650</ele>
        <time>2019-03-05T13:18:24Z</time>
      </trkpt>
      <trkpt lat="44.36133" lon="5.87189">
        <ele>649</ele>
        <time>2019-03-05T13:18:25Z</time>
      </trkpt>
      <trkpt lat="44.36136" lon="5.87206">
        <ele>649</ele>
        <time>2019-03-05T13:18:26Z</time>
      </trkpt>
      <trkpt lat="44.36139" lon="5.87223">
        <ele>649</ele>
        <time>2019-03-05T13:18:27Z</time>
      </trkpt>
      <trkpt lat="44.36143" lon="5.87239">
        <ele>648</ele>
        <time>2019-03-05T13:18:28Z</time>
      </trkpt>
      <trkpt lat="44.36147" lon="5.87255">
        <ele>647</ele>
        <time>2019-03-05T13:18:29Z</time>
      </trkpt>
      <trkpt lat="44.36153" lon="5.8727">
        <ele>647</ele>
        <time>2019-03-05T13:18:30Z</time>
      </trkpt>
      <trkpt lat="44.3616" lon="5.87284">
        <ele>646</ele>
        <time>2019-03-05T13:18:31Z</time>
      </trkpt>
      <trkpt lat="44.36168" lon="5.87298">
        <ele>645</ele>
        <time>2019-03-05T13:18:32Z</time>
      </trkpt>
      <trkpt lat="44.36176" lon="5.87312">
        <ele>644</ele>
        <time>2019-03-05T13:18:33Z</time>
      </trkpt>
      <trkpt lat="44.36184" lon="5.87325">
        <ele>643</ele>
        <time>2019-03-05T13:18:34Z</time>
      </trkpt>
      <trkpt lat="44.36192" lon="5.87339">
        <ele>642</ele>
        <time>2019-03-05T13:18:35Z</time>
      </trkpt>
      <trkpt lat="44.362" lon="5.87354">
        <ele>641</ele>
        <time>2019-03-05T13:18:36Z</time>
      </trkpt>
      <trkpt lat="44.36206" lon="5.87369">
        <ele>640</ele>
        <time>2019-03-05T13:18:37Z</time>
      </trkpt>
      <trkpt lat="44.3621" lon="5.87386">
        <ele>639</ele>
        <time>2019-03-05T13:18:38Z</time>
      </trkpt>
      <trkpt lat="44.3621" lon="5.87403">
        <ele>638</ele>
        <time>2019-03-05T13:18:39Z</time>
      </trkpt>
      <trkpt lat="44.36207" lon="5.87418">
        <ele>637</ele>
        <time>2019-03-05T13:18:40Z</time>
      </trkpt>
      <trkpt lat="44.36202" lon="5.87433">
        <ele>637</ele>
        <time>2019-03-05T13:18:41Z</time>
      </trkpt>
      <trkpt lat="44.36198" lon="5.87448">
        <ele>636</ele>
        <time>2019-03-05T13:18:42Z</time>
      </trkpt>
      <trkpt lat="44.36195" lon="5.87464">
        <ele>636</ele>
        <time>2019-03-05T13:18:43Z</time>
      </trkpt>
      <trkpt lat="44.36194" lon="5.87479">
        <ele>635</ele>
        <time>2019-03-05T13:18:44Z</time>
      </trkpt>
      <trkpt lat="44.36194" lon="5.87495">
        <ele>635</ele>
        <time>2019-03-05T13:18:45Z</time>
      </trkpt>
      <trkpt lat="44.36195" lon="5.87511">
        <ele>634</ele>
        <time>2019-03-05T13:18:46Z</time>
      </trkpt>
      <trkpt lat="44.36196" lon="5.87527">
        <ele>634</ele>
        <time>2019-03-05T13:18:47Z</time>
      </trkpt>
      <trkpt lat="44.36197" lon="5.87543">
        <ele>633</ele>
        <time>2019-03-05T13:18:48Z</time>
      </trkpt>
      <trkpt lat="44.36199" lon="5.8756">
        <ele>633</ele>
        <time>2019-03-05T13:18:49Z</time>
      </trkpt>
      <trkpt lat="44.36201" lon="5.87576">
        <ele>633</ele>
        <time>2019-03-05T13:18:50Z</time>
      </trkpt>
      <trkpt lat="44.36204" lon="5.87592">
        <ele>632</ele>
        <time>2019-03-05T13:18:51Z</time>
      </trkpt>
      <trkpt lat="44.36208" lon="5.87607">
        <ele>631</ele>
        <time>2019-03-05T13:18:52Z</time>
      </trkpt>
      <trkpt lat="44.36212" lon="5.87623">
        <ele>630</ele>
        <time>2019-03-05T13:18:53Z</time>
      </trkpt>
      <trkpt lat="44.36215" lon="5.87639">
        <ele>629</ele>
        <time>2019-03-05T13:18:54Z</time>
      </trkpt>
      <trkpt lat="44.36218" lon="5.87655">
        <ele>628</ele>
        <time>2019-03-05T13:18:55Z</time>
      </trkpt>
      <trkpt lat="44.36219" lon="5.87671">
        <ele>627</ele>
        <time>2019-03-05T13:18:56Z</time>
      </trkpt>
      <trkpt lat="44.36219" lon="5.87688">
        <ele>627</ele>
        <time>2019-03-05T13:18:57Z</time>
      </trkpt>
      <trkpt lat="44.36219" lon="5.87705">
        <ele>626</ele>
        <time>2019-03-05T13:18:58Z</time>
      </trkpt>
      <trkpt lat="44.36219" lon="5.87721">
        <ele>625</ele>
        <time>2019-03-05T13:18:59Z</time>
      </trkpt>
      <trkpt lat="44.3622" lon="5.87738">
        <ele>625</ele>
        <time>2019-03-05T13:19:00Z</time>
      </trkpt>
      <trkpt lat="44.36221" lon="5.87753">
        <ele>624</ele>
        <time>2019-03-05T13:19:01Z</time>
      </trkpt>
      <trkpt lat="44.36224" lon="5.87769">
        <ele>623</ele>
        <time>2019-03-05T13:19:02Z</time>
      </trkpt>
      <trkpt lat="44.36227" lon="5.87784">
        <ele>623</ele>
        <time>2019-03-05T13:19:03Z</time>
      </trkpt>
      <trkpt lat="44.3623" lon="5.87799">
        <ele>623</ele>
        <time>2019-03-05T13:19:04Z</time>
      </trkpt>
      <trkpt lat="44.36234" lon="5.87813">
        <ele>622</ele>
        <time>2019-03-05T13:19:05Z</time>
      </trkpt>
      <trkpt lat="44.36239" lon="5.87827">
        <ele>621</ele>
        <time>2019-03-05T13:19:06Z</time>
      </trkpt>
      <trkpt lat="44.36242" lon="5.87841">
        <ele>621</ele>
        <time>2019-03-05T13:19:07Z</time>
      </trkpt>
      <trkpt lat="44.36245" lon="5.87855">
        <ele>620</ele>
        <time>2019-03-05T13:19:08Z</time>
      </trkpt>
      <trkpt lat="44.36247" lon="5.87869">
        <ele>620</ele>
        <time>2019-03-05T13:19:09Z</time>
      </trkpt>
      <trkpt lat="44.36248" lon="5.87884">
        <ele>620</ele>
        <time>2019-03-05T13:19:10Z</time>
      </trkpt>
      <trkpt lat="44.36249" lon="5.87897">
        <ele>620</ele>
        <time>2019-03-05T13:19:11Z</time>
      </trkpt>
      <trkpt lat="44.36248" lon="5.8791">
        <ele>620</ele>
        <time>2019-03-05T13:19:12Z</time>
      </trkpt>
      <trkpt lat="44.36248" lon="5.87923">
        <ele>620</ele>
        <time>2019-03-05T13:19:13Z</time>
      </trkpt>
      <trkpt lat="44.36247" lon="5.87935">
        <ele>620</ele>
        <time>2019-03-05T13:19:14Z</time>
      </trkpt>
      <trkpt lat="44.36246" lon="5.87947">
        <ele>620</ele>
        <time>2019-03-05T13:19:15Z</time>
      </trkpt>
      <trkpt lat="44.36245" lon="5.87959">
        <ele>620</ele>
        <time>2019-03-05T13:19:16Z</time>
      </trkpt>
      <trkpt lat="44.36245" lon="5.87972">
        <ele>620</ele>
        <time>2019-03-05T13:19:17Z</time>
      </trkpt>
      <trkpt lat="44.36247" lon="5.87985">
        <ele>620</ele>
        <time>2019-03-05T13:19:18Z</time>
      </trkpt>
      <trkpt lat="44.3625" lon="5.87998">
        <ele>620</ele>
        <time>2019-03-05T13:19:20Z</time>
      </trkpt>
      <trkpt lat="44.36253" lon="5.88011">
        <ele>619</ele>
        <time>2019-03-05T13:19:20Z</time>
      </trkpt>
      <trkpt lat="44.36257" lon="5.88024">
        <ele>619</ele>
        <time>2019-03-05T13:19:22Z</time>
      </trkpt>
      <trkpt lat="44.36261" lon="5.88037">
        <ele>619</ele>
        <time>2019-03-05T13:19:22Z</time>
      </trkpt>
      <trkpt lat="44.36266" lon="5.88049">
        <ele>619</ele>
        <time>2019-03-05T13:19:23Z</time>
      </trkpt>
      <trkpt lat="44.3627" lon="5.88063">
        <ele>619</ele>
        <time>2019-03-05T13:19:24Z</time>
      </trkpt>
      <trkpt lat="44.36274" lon="5.88076">
        <ele>619</ele>
        <time>2019-03-05T13:19:25Z</time>
      </trkpt>
      <trkpt lat="44.36279" lon="5.88089">
        <ele>619</ele>
        <time>2019-03-05T13:19:26Z</time>
      </trkpt>
      <trkpt lat="44.36283" lon="5.88102">
        <ele>619</ele>
        <time>2019-03-05T13:19:27Z</time>
      </trkpt>
      <trkpt lat="44.36287" lon="5.88114">
        <ele>618</ele>
        <time>2019-03-05T13:19:28Z</time>
      </trkpt>
      <trkpt lat="44.36292" lon="5.88127">
        <ele>618</ele>
        <time>2019-03-05T13:19:29Z</time>
      </trkpt>
      <trkpt lat="44.36294" lon="5.88138">
        <ele>617</ele>
        <time>2019-03-05T13:19:30Z</time>
      </trkpt>
      <trkpt lat="44.36298" lon="5.88149">
        <ele>617</ele>
        <time>2019-03-05T13:19:31Z</time>
      </trkpt>
      <trkpt lat="44.363" lon="5.8816">
        <ele>617</ele>
        <time>2019-03-05T13:19:32Z</time>
      </trkpt>
      <trkpt lat="44.36302" lon="5.88171">
        <ele>617</ele>
        <time>2019-03-05T13:19:33Z</time>
      </trkpt>
      <trkpt lat="44.36305" lon="5.88182">
        <ele>617</ele>
        <time>2019-03-05T13:19:34Z</time>
      </trkpt>
      <trkpt lat="44.36308" lon="5.88193">
        <ele>617</ele>
        <time>2019-03-05T13:19:35Z</time>
      </trkpt>
      <trkpt lat="44.3631" lon="5.88204">
        <ele>617</ele>
        <time>2019-03-05T13:19:36Z</time>
      </trkpt>
      <trkpt lat="44.36313" lon="5.88215">
        <ele>617</ele>
        <time>2019-03-05T13:19:37Z</time>
      </trkpt>
      <trkpt lat="44.36316" lon="5.88227">
        <ele>616</ele>
        <time>2019-03-05T13:19:38Z</time>
      </trkpt>
      <trkpt lat="44.36318" lon="5.88238">
        <ele>615</ele>
        <time>2019-03-05T13:19:39Z</time>
      </trkpt>
      <trkpt lat="44.3632" lon="5.8825">
        <ele>615</ele>
        <time>2019-03-05T13:19:40Z</time>
      </trkpt>
      <trkpt lat="44.36322" lon="5.88261">
        <ele>614</ele>
        <time>2019-03-05T13:19:41Z</time>
      </trkpt>
      <trkpt lat="44.36324" lon="5.88272">
        <ele>613</ele>
        <time>2019-03-05T13:19:42Z</time>
      </trkpt>
      <trkpt lat="44.36326" lon="5.88283">
        <ele>612</ele>
        <time>2019-03-05T13:19:43Z</time>
      </trkpt>
      <trkpt lat="44.36328" lon="5.88295">
        <ele>611</ele>
        <time>2019-03-05T13:19:44Z</time>
      </trkpt>
      <trkpt lat="44.36331" lon="5.88307">
        <ele>610</ele>
        <time>2019-03-05T13:19:45Z</time>
      </trkpt>
      <trkpt lat="44.36334" lon="5.88319">
        <ele>609</ele>
        <time>2019-03-05T13:19:46Z</time>
      </trkpt>
      <trkpt lat="44.36338" lon="5.88331">
        <ele>609</ele>
        <time>2019-03-05T13:19:47Z</time>
      </trkpt>
      <trkpt lat="44.36343" lon="5.88343">
        <ele>608</ele>
        <time>2019-03-05T13:19:48Z</time>
      </trkpt>
      <trkpt lat="44.36348" lon="5.88356">
        <ele>608</ele>
        <time>2019-03-05T13:19:49Z</time>
      </trkpt>
      <trkpt lat="44.36353" lon="5.88368">
        <ele>608</ele>
        <time>2019-03-05T13:19:50Z</time>
      </trkpt>
      <trkpt lat="44.36357" lon="5.8838">
        <ele>607</ele>
        <time>2019-03-05T13:19:51Z</time>
      </trkpt>
      <trkpt lat="44.36362" lon="5.88392">
        <ele>607</ele>
        <time>2019-03-05T13:19:52Z</time>
      </trkpt>
      <trkpt lat="44.36366" lon="5.88405">
        <ele>607</ele>
        <time>2019-03-05T13:19:53Z</time>
      </trkpt>
      <trkpt lat="44.36369" lon="5.88416">
        <ele>607</ele>
        <time>2019-03-05T13:19:54Z</time>
      </trkpt>
      <trkpt lat="44.36372" lon="5.88427">
        <ele>607</ele>
        <time>2019-03-05T13:19:55Z</time>
      </trkpt>
      <trkpt lat="44.36374" lon="5.88439">
        <ele>606</ele>
        <time>2019-03-05T13:19:56Z</time>
      </trkpt>
      <trkpt lat="44.36376" lon="5.8845">
        <ele>606</ele>
        <time>2019-03-05T13:19:57Z</time>
      </trkpt>
      <trkpt lat="44.36377" lon="5.88462">
        <ele>606</ele>
        <time>2019-03-05T13:19:58Z</time>
      </trkpt>
      <trkpt lat="44.36377" lon="5.88473">
        <ele>606</ele>
        <time>2019-03-05T13:19:59Z</time>
      </trkpt>
      <trkpt lat="44.36377" lon="5.88483">
        <ele>606</ele>
        <time>2019-03-05T13:20:00Z</time>
      </trkpt>
      <trkpt lat="44.36377" lon="5.88493">
        <ele>606</ele>
        <time>2019-03-05T13:20:01Z</time>
      </trkpt>
      <trkpt lat="44.36377" lon="5.88503">
        <ele>606</ele>
        <time>2019-03-05T13:20:02Z</time>
      </trkpt>
      <trkpt lat="44.36377" lon="5.88513">
        <ele>606</ele>
        <time>2019-03-05T13:20:03Z</time>
      </trkpt>
      <trkpt lat="44.36376" lon="5.88521">
        <ele>606</ele>
        <time>2019-03-05T13:20:04Z</time>
      </trkpt>
      <trkpt lat="44.36376" lon="5.8853">
        <ele>606</ele>
        <time>2019-03-05T13:20:05Z</time>
      </trkpt>
      <trkpt lat="44.36376" lon="5.88539">
        <ele>606</ele>
        <time>2019-03-05T13:20:06Z</time>
      </trkpt>
      <trkpt lat="44.36376" lon="5.88548">
        <ele>606</ele>
        <time>2019-03-05T13:20:07Z</time>
      </trkpt>
      <trkpt lat="44.36375" lon="5.88557">
        <ele>606</ele>
        <time>2019-03-05T13:20:08Z</time>
      </trkpt>
      <trkpt lat="44.36375" lon="5.88566">
        <ele>606</ele>
        <time>2019-03-05T13:20:09Z</time>
      </trkpt>
      <trkpt lat="44.36375" lon="5.88576">
        <ele>606</ele>
        <time>2019-03-05T13:20:10Z</time>
      </trkpt>
      <trkpt lat="44.36374" lon="5.88585">
        <ele>606</ele>
        <time>2019-03-05T13:20:11Z</time>
      </trkpt>
      <trkpt lat="44.36374" lon="5.88595">
        <ele>606</ele>
        <time>2019-03-05T13:20:12Z</time>
      </trkpt>
      <trkpt lat="44.36374" lon="5.88604">
        <ele>606</ele>
        <time>2019-03-05T13:20:13Z</time>
      </trkpt>
      <trkpt lat="44.36374" lon="5.88614">
        <ele>606</ele>
        <time>2019-03-05T13:20:14Z</time>
      </trkpt>
      <trkpt lat="44.36374" lon="5.88624">
        <ele>606</ele>
        <time>2019-03-05T13:20:15Z</time>
      </trkpt>
      <trkpt lat="44.36372" lon="5.88634">
        <ele>606</ele>
        <time>2019-03-05T13:20:16Z</time>
      </trkpt>
      <trkpt lat="44.3637" lon="5.88644">
        <ele>606</ele>
        <time>2019-03-05T13:20:17Z</time>
      </trkpt>
      <trkpt lat="44.36368" lon="5.88654">
        <ele>606</ele>
        <time>2019-03-05T13:20:18Z</time>
      </trkpt>
      <trkpt lat="44.36365" lon="5.88664">
        <ele>606</ele>
        <time>2019-03-05T13:20:20Z</time>
      </trkpt>
      <trkpt lat="44.36361" lon="5.88673">
        <ele>606</ele>
        <time>2019-03-05T13:20:20Z</time>
      </trkpt>
      <trkpt lat="44.36357" lon="5.88682">
        <ele>607</ele>
        <time>2019-03-05T13:20:21Z</time>
      </trkpt>
      <trkpt lat="44.36354" lon="5.88691">
        <ele>607</ele>
        <time>2019-03-05T13:20:22Z</time>
      </trkpt>
      <trkpt lat="44.3635" lon="5.88698">
        <ele>608</ele>
        <time>2019-03-05T13:20:23Z</time>
      </trkpt>
      <trkpt lat="44.36347" lon="5.88706">
        <ele>608</ele>
        <time>2019-03-05T13:20:24Z</time>
      </trkpt>
      <trkpt lat="44.36344" lon="5.88714">
        <ele>608</ele>
        <time>2019-03-05T13:20:25Z</time>
      </trkpt>
      <trkpt lat="44.36342" lon="5.88722">
        <ele>608</ele>
        <time>2019-03-05T13:20:26Z</time>
      </trkpt>
      <trkpt lat="44.3634" lon="5.8873">
        <ele>608</ele>
        <time>2019-03-05T13:20:27Z</time>
      </trkpt>
      <trkpt lat="44.36339" lon="5.88738">
        <ele>608</ele>
        <time>2019-03-05T13:20:28Z</time>
      </trkpt>
      <trkpt lat="44.36338" lon="5.88747">
        <ele>608</ele>
        <time>2019-03-05T13:20:29Z</time>
      </trkpt>
      <trkpt lat="44.36338" lon="5.88755">
        <ele>608</ele>
        <time>2019-03-05T13:20:30Z</time>
      </trkpt>
      <trkpt lat="44.36339" lon="5.88764">
        <ele>608</ele>
        <time>2019-03-05T13:20:31Z</time>
      </trkpt>
      <trkpt lat="44.3634" lon="5.88773">
        <ele>608</ele>
        <time>2019-03-05T13:20:32Z</time>
      </trkpt>
      <trkpt lat="44.36342" lon="5.88783">
        <ele>608</ele>
        <time>2019-03-05T13:20:33Z</time>
      </trkpt>
      <trkpt lat="44.36345" lon="5.88792">
        <ele>608</ele>
        <time>2019-03-05T13:20:34Z</time>
      </trkpt>
      <trkpt lat="44.36348" lon="5.88802">
        <ele>608</ele>
        <time>2019-03-05T13:20:35Z</time>
      </trkpt>
      <trkpt lat="44.36351" lon="5.88812">
        <ele>608</ele>
        <time>2019-03-05T13:20:36Z</time>
      </trkpt>
      <trkpt lat="44.36356" lon="5.88822">
        <ele>608</ele>
        <time>2019-03-05T13:20:37Z</time>
      </trkpt>
      <trkpt lat="44.3636" lon="5.88832">
        <ele>608</ele>
        <time>2019-03-05T13:20:38Z</time>
      </trkpt>
      <trkpt lat="44.36364" lon="5.88842">
        <ele>608</ele>
        <time>2019-03-05T13:20:39Z</time>
      </trkpt>
      <trkpt lat="44.36368" lon="5.88853">
        <ele>608</ele>
        <time>2019-03-05T13:20:40Z</time>
      </trkpt>
      <trkpt lat="44.36372" lon="5.88863">
        <ele>608</ele>
        <time>2019-03-05T13:20:41Z</time>
      </trkpt>
      <trkpt lat="44.36377" lon="5.88873">
        <ele>608</ele>
        <time>2019-03-05T13:20:42Z</time>
      </trkpt>
      <trkpt lat="44.36381" lon="5.88883">
        <ele>608</ele>
        <time>2019-03-05T13:20:43Z</time>
      </trkpt>
      <trkpt lat="44.36385" lon="5.88893">
        <ele>608</ele>
        <time>2019-03-05T13:20:44Z</time>
      </trkpt>
      <trkpt lat="44.36389" lon="5.88903">
        <ele>608</ele>
        <time>2019-03-05T13:20:45Z</time>
      </trkpt>
      <trkpt lat="44.36393" lon="5.88913">
        <ele>608</ele>
        <time>2019-03-05T13:20:46Z</time>
      </trkpt>
      <trkpt lat="44.36397" lon="5.88923">
        <ele>608</ele>
        <time>2019-03-05T13:20:47Z</time>
      </trkpt>
      <trkpt lat="44.36401" lon="5.88934">
        <ele>608</ele>
        <time>2019-03-05T13:20:48Z</time>
      </trkpt>
      <trkpt lat="44.36405" lon="5.88945">
        <ele>608</ele>
        <time>2019-03-05T13:20:49Z</time>
      </trkpt>
      <trkpt lat="44.36409" lon="5.88956">
        <ele>607</ele>
        <time>2019-03-05T13:20:50Z</time>
      </trkpt>
      <trkpt lat="44.36413" lon="5.88967">
        <ele>607</ele>
        <time>2019-03-05T13:20:51Z</time>
      </trkpt>
      <trkpt lat="44.36416" lon="5.88977">
        <ele>607</ele>
        <time>2019-03-05T13:20:52Z</time>
      </trkpt>
      <trkpt lat="44.3642" lon="5.88986">
        <ele>607</ele>
        <time>2019-03-05T13:20:53Z</time>
      </trkpt>
      <trkpt lat="44.36424" lon="5.88995">
        <ele>607</ele>
        <time>2019-03-05T13:20:54Z</time>
      </trkpt>
      <trkpt lat="44.36427" lon="5.89004">
        <ele>607</ele>
        <time>2019-03-05T13:20:55Z</time>
      </trkpt>
      <trkpt lat="44.3643" lon="5.89012">
        <ele>607</ele>
        <time>2019-03-05T13:20:56Z</time>
      </trkpt>
      <trkpt lat="44.36433" lon="5.8902">
        <ele>607</ele>
        <time>2019-03-05T13:20:57Z</time>
      </trkpt>
      <trkpt lat="44.36435" lon="5.89028">
        <ele>607</ele>
        <time>2019-03-05T13:20:58Z</time>
      </trkpt>
      <trkpt lat="44.36438" lon="5.89036">
        <ele>607</ele>
        <time>2019-03-05T13:20:59Z</time>
      </trkpt>
      <trkpt lat="44.36442" lon="5.89044">
        <ele>607</ele>
        <time>2019-03-05T13:21:00Z</time>
      </trkpt>
      <trkpt lat="44.36445" lon="5.89052">
        <ele>607</ele>
        <time>2019-03-05T13:21:01Z</time>
      </trkpt>
      <trkpt lat="44.36448" lon="5.89061">
        <ele>607</ele>
        <time>2019-03-05T13:21:02Z</time>
      </trkpt>
      <trkpt lat="44.36451" lon="5.8907">
        <ele>607</ele>
        <time>2019-03-05T13:21:03Z</time>
      </trkpt>
      <trkpt lat="44.36455" lon="5.89079">
        <ele>607</ele>
        <time>2019-03-05T13:21:04Z</time>
      </trkpt>
      <trkpt lat="44.36459" lon="5.89088">
        <ele>607</ele>
        <time>2019-03-05T13:21:05Z</time>
      </trkpt>
      <trkpt lat="44.36462" lon="5.89098">
        <ele>607</ele>
        <time>2019-03-05T13:21:06Z</time>
      </trkpt>
      <trkpt lat="44.36467" lon="5.89108">
        <ele>607</ele>
        <time>2019-03-05T13:21:07Z</time>
      </trkpt>
      <trkpt lat="44.36471" lon="5.89118">
        <ele>607</ele>
        <time>2019-03-05T13:21:08Z</time>
      </trkpt>
      <trkpt lat="44.36475" lon="5.89129">
        <ele>607</ele>
        <time>2019-03-05T13:21:09Z</time>
      </trkpt>
      <trkpt lat="44.36478" lon="5.89139">
        <ele>606</ele>
        <time>2019-03-05T13:21:10Z</time>
      </trkpt>
      <trkpt lat="44.36482" lon="5.89149">
        <ele>606</ele>
        <time>2019-03-05T13:21:11Z</time>
      </trkpt>
      <trkpt lat="44.36486" lon="5.89159">
        <ele>605</ele>
        <time>2019-03-05T13:21:12Z</time>
      </trkpt>
      <trkpt lat="44.3649" lon="5.89169">
        <ele>605</ele>
        <time>2019-03-05T13:21:13Z</time>
      </trkpt>
      <trkpt lat="44.36494" lon="5.89179">
        <ele>604</ele>
        <time>2019-03-05T13:21:14Z</time>
      </trkpt>
      <trkpt lat="44.36498" lon="5.89189">
        <ele>604</ele>
        <time>2019-03-05T13:21:15Z</time>
      </trkpt>
      <trkpt lat="44.36503" lon="5.89199">
        <ele>604</ele>
        <time>2019-03-05T13:21:16Z</time>
      </trkpt>
      <trkpt lat="44.36507" lon="5.89209">
        <ele>603</ele>
        <time>2019-03-05T13:21:17Z</time>
      </trkpt>
      <trkpt lat="44.3651" lon="5.89219">
        <ele>603</ele>
        <time>2019-03-05T13:21:18Z</time>
      </trkpt>
      <trkpt lat="44.36514" lon="5.89229">
        <ele>603</ele>
        <time>2019-03-05T13:21:20Z</time>
      </trkpt>
      <trkpt lat="44.36518" lon="5.8924">
        <ele>603</ele>
        <time>2019-03-05T13:21:20Z</time>
      </trkpt>
      <trkpt lat="44.36523" lon="5.89251">
        <ele>602</ele>
        <time>2019-03-05T13:21:21Z</time>
      </trkpt>
      <trkpt lat="44.36527" lon="5.89262">
        <ele>602</ele>
        <time>2019-03-05T13:21:22Z</time>
      </trkpt>
      <trkpt lat="44.3653" lon="5.89274">
        <ele>601</ele>
        <time>2019-03-05T13:21:23Z</time>
      </trkpt>
      <trkpt lat="44.36535" lon="5.89286">
        <ele>601</ele>
        <time>2019-03-05T13:21:24Z</time>
      </trkpt>
      <trkpt lat="44.36538" lon="5.89297">
        <ele>601</ele>
        <time>2019-03-05T13:21:25Z</time>
      </trkpt>
      <trkpt lat="44.36541" lon="5.8931">
        <ele>600</ele>
        <time>2019-03-05T13:21:26Z</time>
      </trkpt>
      <trkpt lat="44.36544" lon="5.89322">
        <ele>600</ele>
        <time>2019-03-05T13:21:27Z</time>
      </trkpt>
      <trkpt lat="44.36546" lon="5.89335">
        <ele>600</ele>
        <time>2019-03-05T13:21:28Z</time>
      </trkpt>
      <trkpt lat="44.36549" lon="5.89349">
        <ele>600</ele>
        <time>2019-03-05T13:21:29Z</time>
      </trkpt>
      <trkpt lat="44.3655" lon="5.89361">
        <ele>600</ele>
        <time>2019-03-05T13:21:30Z</time>
      </trkpt>
      <trkpt lat="44.36551" lon="5.89373">
        <ele>600</ele>
        <time>2019-03-05T13:21:31Z</time>
      </trkpt>
      <trkpt lat="44.36552" lon="5.89385">
        <ele>600</ele>
        <time>2019-03-05T13:21:32Z</time>
      </trkpt>
      <trkpt lat="44.36553" lon="5.89397">
        <ele>600</ele>
        <time>2019-03-05T13:21:33Z</time>
      </trkpt>
      <trkpt lat="44.36554" lon="5.89407">
        <ele>599</ele>
        <time>2019-03-05T13:21:34Z</time>
      </trkpt>
      <trkpt lat="44.36557" lon="5.89418">
        <ele>599</ele>
        <time>2019-03-05T13:21:35Z</time>
      </trkpt>
      <trkpt lat="44.3656" lon="5.89428">
        <ele>599</ele>
        <time>2019-03-05T13:21:36Z</time>
      </trkpt>
      <trkpt lat="44.36563" lon="5.89437">
        <ele>599</ele>
        <time>2019-03-05T13:21:37Z</time>
      </trkpt>
      <trkpt lat="44.36567" lon="5.89446">
        <ele>599</ele>
        <time>2019-03-05T13:21:38Z</time>
      </trkpt>
      <trkpt lat="44.36571" lon="5.89455">
        <ele>599</ele>
        <time>2019-03-05T13:21:39Z</time>
      </trkpt>
      <trkpt lat="44.36575" lon="5.89464">
        <ele>599</ele>
        <time>2019-03-05T13:21:40Z</time>
      </trkpt>
      <trkpt lat="44.36581" lon="5.89472">
        <ele>599</ele>
        <time>2019-03-05T13:21:41Z</time>
      </trkpt>
      <trkpt lat="44.36585" lon="5.8948">
        <ele>599</ele>
        <time>2019-03-05T13:21:42Z</time>
      </trkpt>
      <trkpt lat="44.3659" lon="5.89488">
        <ele>599</ele>
        <time>2019-03-05T13:21:43Z</time>
      </trkpt>
      <trkpt lat="44.36595" lon="5.89495">
        <ele>599</ele>
        <time>2019-03-05T13:21:44Z</time>
      </trkpt>
      <trkpt lat="44.366" lon="5.89503">
        <ele>599</ele>
        <time>2019-03-05T13:21:45Z</time>
      </trkpt>
      <trkpt lat="44.36605" lon="5.8951">
        <ele>599</ele>
        <time>2019-03-05T13:21:46Z</time>
      </trkpt>
      <trkpt lat="44.3661" lon="5.89518">
        <ele>599</ele>
        <time>2019-03-05T13:21:47Z</time>
      </trkpt>
      <trkpt lat="44.36615" lon="5.89526">
        <ele>599</ele>
        <time>2019-03-05T13:21:48Z</time>
      </trkpt>
      <trkpt lat="44.36621" lon="5.89534">
        <ele>599</ele>
        <time>2019-03-05T13:21:49Z</time>
      </trkpt>
      <trkpt lat="44.36626" lon="5.89543">
        <ele>599</ele>
        <time>2019-03-05T13:21:50Z</time>
      </trkpt>
      <trkpt lat="44.36632" lon="5.89551">
        <ele>599</ele>
        <time>2019-03-05T13:21:51Z</time>
      </trkpt>
      <trkpt lat="44.36637" lon="5.8956">
        <ele>599</ele>
        <time>2019-03-05T13:21:52Z</time>
      </trkpt>
      <trkpt lat="44.36643" lon="5.89568">
        <ele>599</ele>
        <time>2019-03-05T13:21:53Z</time>
      </trkpt>
      <trkpt lat="44.36648" lon="5.89576">
        <ele>599</ele>
        <time>2019-03-05T13:21:54Z</time>
      </trkpt>
      <trkpt lat="44.36654" lon="5.89584">
        <ele>599</ele>
        <time>2019-03-05T13:21:55Z</time>
      </trkpt>
      <trkpt lat="44.36659" lon="5.89592">
        <ele>599</ele>
        <time>2019-03-05T13:21:56Z</time>
      </trkpt>
      <trkpt lat="44.36664" lon="5.896">
        <ele>599</ele>
        <time>2019-03-05T13:21:57Z</time>
      </trkpt>
      <trkpt lat="44.36669" lon="5.89607">
        <ele>599</ele>
        <time>2019-03-05T13:21:58Z</time>
      </trkpt>
      <trkpt lat="44.36673" lon="5.89614">
        <ele>599</ele>
        <time>2019-03-05T13:21:59Z</time>
      </trkpt>
      <trkpt lat="44.36678" lon="5.89621">
        <ele>599</ele>
        <time>2019-03-05T13:22:00Z</time>
      </trkpt>
      <trkpt lat="44.36683" lon="5.89628">
        <ele>599</ele>
        <time>2019-03-05T13:22:01Z</time>
      </trkpt>
      <trkpt lat="44.36686" lon="5.89635">
        <ele>599</ele>
        <time>2019-03-05T13:22:02Z</time>
      </trkpt>
      <trkpt lat="44.36691" lon="5.89642">
        <ele>599</ele>
        <time>2019-03-05T13:22:03Z</time>
      </trkpt>
      <trkpt lat="44.36695" lon="5.89648">
        <ele>599</ele>
        <time>2019-03-05T13:22:04Z</time>
      </trkpt>
      <trkpt lat="44.36699" lon="5.89655">
        <ele>599</ele>
        <time>2019-03-05T13:22:05Z</time>
      </trkpt>
      <trkpt lat="44.36703" lon="5.89662">
        <ele>599</ele>
        <time>2019-03-05T13:22:06Z</time>
      </trkpt>
      <trkpt lat="44.36708" lon="5.89668">
        <ele>599</ele>
        <time>2019-03-05T13:22:07Z</time>
      </trkpt>
      <trkpt lat="44.36712" lon="5.89675">
        <ele>599</ele>
        <time>2019-03-05T13:22:08Z</time>
      </trkpt>
      <trkpt lat="44.36716" lon="5.89682">
        <ele>599</ele>
        <time>2019-03-05T13:22:09Z</time>
      </trkpt>
      <trkpt lat="44.3672" lon="5.89688">
        <ele>599</ele>
        <time>2019-03-05T13:22:10Z</time>
      </trkpt>
      <trkpt lat="44.36724" lon="5.89695">
        <ele>599</ele>
        <time>2019-03-05T13:22:11Z</time>
      </trkpt>
      <trkpt lat="44.36728" lon="5.89702">
        <ele>599</ele>
        <time>2019-03-05T13:22:12Z</time>
      </trkpt>
      <trkpt lat="44.36732" lon="5.89708">
        <ele>599</ele>
        <time>2019-03-05T13:22:13Z</time>
      </trkpt>
      <trkpt lat="44.36737" lon="5.89715">
        <ele>599</ele>
        <time>2019-03-05T13:22:14Z</time>
      </trkpt>
      <trkpt lat="44.36741" lon="5.89721">
        <ele>599</ele>
        <time>2019-03-05T13:22:15Z</time>
      </trkpt>
      <trkpt lat="44.36745" lon="5.89728">
        <ele>599</ele>
        <time>2019-03-05T13:22:16Z</time>
      </trkpt>
      <trkpt lat="44.3675" lon="5.89735">
        <ele>599</ele>
        <time>2019-03-05T13:22:17Z</time>
      </trkpt>
      <trkpt lat="44.36753" lon="5.89742">
        <ele>599</ele>
        <time>2019-03-05T13:22:18Z</time>
      </trkpt>
      <trkpt lat="44.36757" lon="5.89748">
        <ele>599</ele>
        <time>2019-03-05T13:22:20Z</time>
      </trkpt>
      <trkpt lat="44.36761" lon="5.89755">
        <ele>599</ele>
        <time>2019-03-05T13:22:20Z</time>
      </trkpt>
      <trkpt lat="44.36765" lon="5.89761">
        <ele>599</ele>
        <time>2019-03-05T13:22:21Z</time>
      </trkpt>
      <trkpt lat="44.36769" lon="5.89768">
        <ele>599</ele>
        <time>2019-03-05T13:22:22Z</time>
      </trkpt>
      <trkpt lat="44.36773" lon="5.89775">
        <ele>599</ele>
        <time>2019-03-05T13:22:23Z</time>
      </trkpt>
      <trkpt lat="44.36776" lon="5.89782">
        <ele>599</ele>
        <time>2019-03-05T13:22:24Z</time>
      </trkpt>
      <trkpt lat="44.36779" lon="5.89789">
        <ele>599</ele>
        <time>2019-03-05T13:22:25Z</time>
      </trkpt>
      <trkpt lat="44.36783" lon="5.89796">
        <ele>599</ele>
        <time>2019-03-05T13:22:26Z</time>
      </trkpt>
      <trkpt lat="44.36786" lon="5.89804">
        <ele>599</ele>
        <time>2019-03-05T13:22:27Z</time>
      </trkpt>
      <trkpt lat="44.3679" lon="5.89813">
        <ele>599</ele>
        <time>2019-03-05T13:22:28Z</time>
      </trkpt>
      <trkpt lat="44.36793" lon="5.89821">
        <ele>599</ele>
        <time>2019-03-05T13:22:29Z</time>
      </trkpt>
      <trkpt lat="44.36797" lon="5.8983">
        <ele>599</ele>
        <time>2019-03-05T13:22:30Z</time>
      </trkpt>
      <trkpt lat="44.368" lon="5.89839">
        <ele>599</ele>
        <time>2019-03-05T13:22:31Z</time>
      </trkpt>
      <trkpt lat="44.36805" lon="5.89848">
        <ele>599</ele>
        <time>2019-03-05T13:22:32Z</time>
      </trkpt>
      <trkpt lat="44.36809" lon="5.89857">
        <ele>599</ele>
        <time>2019-03-05T13:22:33Z</time>
      </trkpt>
      <trkpt lat="44.36814" lon="5.89865">
        <ele>599</ele>
        <time>2019-03-05T13:22:34Z</time>
      </trkpt>
      <trkpt lat="44.36821" lon="5.89874">
        <ele>599</ele>
        <time>2019-03-05T13:22:35Z</time>
      </trkpt>
      <trkpt lat="44.36827" lon="5.89882">
        <ele>599</ele>
        <time>2019-03-05T13:22:36Z</time>
      </trkpt>
      <trkpt lat="44.36834" lon="5.8989">
        <ele>599</ele>
        <time>2019-03-05T13:22:37Z</time>
      </trkpt>
      <trkpt lat="44.3684" lon="5.89898">
        <ele>599</ele>
        <time>2019-03-05T13:22:38Z</time>
      </trkpt>
      <trkpt lat="44.36847" lon="5.89906">
        <ele>599</ele>
        <time>2019-03-05T13:22:39Z</time>
      </trkpt>
      <trkpt lat="44.36854" lon="5.89912">
        <ele>599</ele>
        <time>2019-03-05T13:22:40Z</time>
      </trkpt>
      <trkpt lat="44.36862" lon="5.89918">
        <ele>599</ele>
        <time>2019-03-05T13:22:41Z</time>
      </trkpt>
      <trkpt lat="44.36869" lon="5.89924">
        <ele>599</ele>
        <time>2019-03-05T13:22:42Z</time>
      </trkpt>
      <trkpt lat="44.36876" lon="5.89929">
        <ele>599</ele>
        <time>2019-03-05T13:22:43Z</time>
      </trkpt>
      <trkpt lat="44.36882" lon="5.89933">
        <ele>599</ele>
        <time>2019-03-05T13:22:44Z</time>
      </trkpt>
      <trkpt lat="44.36888" lon="5.89937">
        <ele>599</ele>
        <time>2019-03-05T13:22:45Z</time>
      </trkpt>
      <trkpt lat="44.36894" lon="5.89941">
        <ele>599</ele>
        <time>2019-03-05T13:22:46Z</time>
      </trkpt>
      <trkpt lat="44.369" lon="5.89945">
        <ele>599</ele>
        <time>2019-03-05T13:22:47Z</time>
      </trkpt>
      <trkpt lat="44.36905" lon="5.89948">
        <ele>599</ele>
        <time>2019-03-05T13:22:48Z</time>
      </trkpt>
      <trkpt lat="44.3691" lon="5.89952">
        <ele>599</ele>
        <time>2019-03-05T13:22:49Z</time>
      </trkpt>
      <trkpt lat="44.36915" lon="5.89955">
        <ele>599</ele>
        <time>2019-03-05T13:22:50Z</time>
      </trkpt>
      <trkpt lat="44.3692" lon="5.89958">
        <ele>599</ele>
        <time>2019-03-05T13:22:51Z</time>
      </trkpt>
      <trkpt lat="44.36925" lon="5.8996">
        <ele>599</ele>
        <time>2019-03-05T13:22:52Z</time>
      </trkpt>
      <trkpt lat="44.3693" lon="5.89963">
        <ele>599</ele>
        <time>2019-03-05T13:22:53Z</time>
      </trkpt>
      <trkpt lat="44.36934" lon="5.89966">
        <ele>599</ele>
        <time>2019-03-05T13:22:54Z</time>
      </trkpt>
      <trkpt lat="44.36939" lon="5.89968">
        <ele>599</ele>
        <time>2019-03-05T13:22:55Z</time>
      </trkpt>
      <trkpt lat="44.36943" lon="5.89971">
        <ele>599</ele>
        <time>2019-03-05T13:22:56Z</time>
      </trkpt>
      <trkpt lat="44.36948" lon="5.89974">
        <ele>599</ele>
        <time>2019-03-05T13:22:57Z</time>
      </trkpt>
      <trkpt lat="44.36953" lon="5.89977">
        <ele>599</ele>
        <time>2019-03-05T13:22:58Z</time>
      </trkpt>
      <trkpt lat="44.36957" lon="5.8998">
        <ele>599</ele>
        <time>2019-03-05T13:22:59Z</time>
      </trkpt>
      <trkpt lat="44.36961" lon="5.89982">
        <ele>599</ele>
        <time>2019-03-05T13:23:00Z</time>
      </trkpt>
      <trkpt lat="44.36967" lon="5.89984">
        <ele>599</ele>
        <time>2019-03-05T13:23:01Z</time>
      </trkpt>
      <trkpt lat="44.36972" lon="5.89986">
        <ele>599</ele>
        <time>2019-03-05T13:23:02Z</time>
      </trkpt>
      <trkpt lat="44.36975" lon="5.89989">
        <ele>599</ele>
        <time>2019-03-05T13:23:03Z</time>
      </trkpt>
      <trkpt lat="44.3698" lon="5.89991">
        <ele>599</ele>
        <time>2019-03-05T13:23:04Z</time>
      </trkpt>
      <trkpt lat="44.36983" lon="5.89993">
        <ele>599</ele>
        <time>2019-03-05T13:23:05Z</time>
      </trkpt>
      <trkpt lat="44.36987" lon="5.89995">
        <ele>599</ele>
        <time>2019-03-05T13:23:06Z</time>
      </trkpt>
      <trkpt lat="44.36991" lon="5.89997">
        <ele>599</ele>
        <time>2019-03-05T13:23:07Z</time>
      </trkpt>
      <trkpt lat="44.36995" lon="5.89999">
        <ele>599</ele>
        <time>2019-03-05T13:23:08Z</time>
      </trkpt>
      <trkpt lat="44.36998" lon="5.9">
        <ele>599</ele>
        <time>2019-03-05T13:23:09Z</time>
      </trkpt>
      <trkpt lat="44.37002" lon="5.90002">
        <ele>599</ele>
        <time>2019-03-05T13:23:10Z</time>
      </trkpt>
      <trkpt lat="44.37006" lon="5.90003">
        <ele>599</ele>
        <time>2019-03-05T13:23:11Z</time>
      </trkpt>
      <trkpt lat="44.37009" lon="5.90005">
        <ele>599</ele>
        <time>2019-03-05T13:23:12Z</time>
      </trkpt>
      <trkpt lat="44.37012" lon="5.90007">
        <ele>599</ele>
        <time>2019-03-05T13:23:13Z</time>
      </trkpt>
      <trkpt lat="44.37016" lon="5.90008">
        <ele>599</ele>
        <time>2019-03-05T13:23:14Z</time>
      </trkpt>
      <trkpt lat="44.3702" lon="5.9001">
        <ele>599</ele>
        <time>2019-03-05T13:23:15Z</time>
      </trkpt>
      <trkpt lat="44.37025" lon="5.90011">
        <ele>599</ele>
        <time>2019-03-05T13:23:16Z</time>
      </trkpt>
      <trkpt lat="44.37029" lon="5.90012">
        <ele>599</ele>
        <time>2019-03-05T13:23:17Z</time>
      </trkpt>
      <trkpt lat="44.37033" lon="5.90013">
        <ele>599</ele>
        <time>2019-03-05T13:23:18Z</time>
      </trkpt>
      <trkpt lat="44.37038" lon="5.90014">
        <ele>599</ele>
        <time>2019-03-05T13:23:20Z</time>
      </trkpt>
      <trkpt lat="44.37042" lon="5.90015">
        <ele>599</ele>
        <time>2019-03-05T13:23:20Z</time>
      </trkpt>
      <trkpt lat="44.37047" lon="5.90015">
        <ele>599</ele>
        <time>2019-03-05T13:23:21Z</time>
      </trkpt>
      <trkpt lat="44.37053" lon="5.90015">
        <ele>599</ele>
        <time>2019-03-05T13:23:22Z</time>
      </trkpt>
      <trkpt lat="44.37058" lon="5.90014">
        <ele>599</ele>
        <time>2019-03-05T13:23:23Z</time>
      </trkpt>
      <trkpt lat="44.37064" lon="5.90012">
        <ele>599</ele>
        <time>2019-03-05T13:23:24Z</time>
      </trkpt>
      <trkpt lat="44.3707" lon="5.9001">
        <ele>599</ele>
        <time>2019-03-05T13:23:25Z</time>
      </trkpt>
      <trkpt lat="44.37076" lon="5.90006">
        <ele>599</ele>
        <time>2019-03-05T13:23:26Z</time>
      </trkpt>
      <trkpt lat="44.37083" lon="5.90002">
        <ele>599</ele>
        <time>2019-03-05T13:23:27Z</time>
      </trkpt>
      <trkpt lat="44.37089" lon="5.89996">
        <ele>599</ele>
        <time>2019-03-05T13:23:28Z</time>
      </trkpt>
      <trkpt lat="44.37095" lon="5.89989">
        <ele>599</ele>
        <time>2019-03-05T13:23:29Z</time>
      </trkpt>
      <trkpt lat="44.37101" lon="5.89982">
        <ele>599</ele>
        <time>2019-03-05T13:23:30Z</time>
      </trkpt>
      <trkpt lat="44.37108" lon="5.89975">
        <ele>599</ele>
        <time>2019-03-05T13:23:31Z</time>
      </trkpt>
      <trkpt lat="44.37114" lon="5.89967">
        <ele>599</ele>
        <time>2019-03-05T13:23:32Z</time>
      </trkpt>
      <trkpt lat="44.37121" lon="5.89961">
        <ele>599</ele>
        <time>2019-03-05T13:23:33Z</time>
      </trkpt>
      <trkpt lat="44.37128" lon="5.89956">
        <ele>599</ele>
        <time>2019-03-05T13:23:34Z</time>
      </trkpt>
      <trkpt lat="44.37136" lon="5.89952">
        <ele>599</ele>
        <time>2019-03-05T13:23:35Z</time>
      </trkpt>
      <trkpt lat="44.37144" lon="5.8995">
        <ele>599</ele>
        <time>2019-03-05T13:23:36Z</time>
      </trkpt>
      <trkpt lat="44.37152" lon="5.8995">
        <ele>599</ele>
        <time>2019-03-05T13:23:37Z</time>
      </trkpt>
      <trkpt lat="44.3716" lon="5.89952">
        <ele>599</ele>
        <time>2019-03-05T13:23:38Z</time>
      </trkpt>
      <trkpt lat="44.37167" lon="5.89956">
        <ele>599</ele>
        <time>2019-03-05T13:23:39Z</time>
      </trkpt>
      <trkpt lat="44.37174" lon="5.8996">
        <ele>599</ele>
        <time>2019-03-05T13:23:40Z</time>
      </trkpt>
      <trkpt lat="44.37181" lon="5.89966">
        <ele>599</ele>
        <time>2019-03-05T13:23:41Z</time>
      </trkpt>
      <trkpt lat="44.37187" lon="5.89973">
        <ele>599</ele>
        <time>2019-03-05T13:23:42Z</time>
      </trkpt>
      <trkpt lat="44.37192" lon="5.8998">
        <ele>599</ele>
        <time>2019-03-05T13:23:43Z</time>
      </trkpt>
      <trkpt lat="44.37197" lon="5.89987">
        <ele>599</ele>
        <time>2019-03-05T13:23:44Z</time>
      </trkpt>
      <trkpt lat="44.37203" lon="5.89994">
        <ele>599</ele>
        <time>2019-03-05T13:23:45Z</time>
      </trkpt>
      <trkpt lat="44.37208" lon="5.90001">
        <ele>599</ele>
        <time>2019-03-05T13:23:46Z</time>
      </trkpt>
      <trkpt lat="44.37214" lon="5.90008">
        <ele>599</ele>
        <time>2019-03-05T13:23:47Z</time>
      </trkpt>
      <trkpt lat="44.37219" lon="5.90015">
        <ele>599</ele>
        <time>2019-03-05T13:23:48Z</time>
      </trkpt>
      <trkpt lat="44.37223" lon="5.90021">
        <ele>599</ele>
        <time>2019-03-05T13:23:49Z</time>
      </trkpt>
      <trkpt lat="44.37228" lon="5.90028">
        <ele>599</ele>
        <time>2019-03-05T13:23:50Z</time>
      </trkpt>
      <trkpt lat="44.37232" lon="5.90034">
        <ele>599</ele>
        <time>2019-03-05T13:23:51Z</time>
      </trkpt>
      <trkpt lat="44.37236" lon="5.90041">
        <ele>599</ele>
        <time>2019-03-05T13:23:52Z</time>
      </trkpt>
      <trkpt lat="44.3724" lon="5.90048">
        <ele>599</ele>
        <time>2019-03-05T13:23:53Z</time>
      </trkpt>
      <trkpt lat="44.37244" lon="5.90054">
        <ele>599</ele>
        <time>2019-03-05T13:23:54Z</time>
      </trkpt>
      <trkpt lat="44.37247" lon="5.9006">
        <ele>599</ele>
        <time>2019-03-05T13:23:55Z</time>
      </trkpt>
      <trkpt lat="44.37251" lon="5.90065">
        <ele>599</ele>
        <time>2019-03-05T13:23:56Z</time>
      </trkpt>
      <trkpt lat="44.37255" lon="5.9007">
        <ele>599</ele>
        <time>2019-03-05T13:23:57Z</time>
      </trkpt>
      <trkpt lat="44.37259" lon="5.90076">
        <ele>599</ele>
        <time>2019-03-05T13:23:58Z</time>
      </trkpt>
      <trkpt lat="44.37263" lon="5.90081">
        <ele>599</ele>
        <time>2019-03-05T13:23:59Z</time>
      </trkpt>
      <trkpt lat="44.37267" lon="5.90086">
        <ele>599</ele>
        <time>2019-03-05T13:24:00Z</time>
      </trkpt>
      <trkpt lat="44.37271" lon="5.90092">
        <ele>599</ele>
        <time>2019-03-05T13:24:01Z</time>
      </trkpt>
      <trkpt lat="44.37275" lon="5.90098">
        <ele>599</ele>
        <time>2019-03-05T13:24:02Z</time>
      </trkpt>
      <trkpt lat="44.37279" lon="5.90103">
        <ele>599</ele>
        <time>2019-03-05T13:24:03Z</time>
      </trkpt>
      <trkpt lat="44.37283" lon="5.90108">
        <ele>599</ele>
        <time>2019-03-05T13:24:04Z</time>
      </trkpt>
      <trkpt lat="44.37286" lon="5.90113">
        <ele>599</ele>
        <time>2019-03-05T13:24:05Z</time>
      </trkpt>
      <trkpt lat="44.37291" lon="5.90118">
        <ele>599</ele>
        <time>2019-03-05T13:24:06Z</time>
      </trkpt>
      <trkpt lat="44.37294" lon="5.90123">
        <ele>599</ele>
        <time>2019-03-05T13:24:07Z</time>
      </trkpt>
      <trkpt lat="44.37299" lon="5.90128">
        <ele>599</ele>
        <time>2019-03-05T13:24:08Z</time>
      </trkpt>
      <trkpt lat="44.37302" lon="5.90133">
        <ele>600</ele>
        <time>2019-03-05T13:24:09Z</time>
      </trkpt>
      <trkpt lat="44.37307" lon="5.90139">
        <ele>600</ele>
        <time>2019-03-05T13:24:10Z</time>
      </trkpt>
      <trkpt lat="44.37311" lon="5.90144">
        <ele>600</ele>
        <time>2019-03-05T13:24:11Z</time>
      </trkpt>
      <trkpt lat="44.37316" lon="5.90149">
        <ele>601</ele>
        <time>2019-03-05T13:24:12Z</time>
      </trkpt>
      <trkpt lat="44.37321" lon="5.90155">
        <ele>601</ele>
        <time>2019-03-05T13:24:13Z</time>
      </trkpt>
      <trkpt lat="44.37326" lon="5.90161">
        <ele>602</ele>
        <time>2019-03-05T13:24:14Z</time>
      </trkpt>
      <trkpt lat="44.37331" lon="5.90167">
        <ele>602</ele>
        <time>2019-03-05T13:24:15Z</time>
      </trkpt>
      <trkpt lat="44.37335" lon="5.90172">
        <ele>603</ele>
        <time>2019-03-05T13:24:16Z</time>
      </trkpt>
      <trkpt lat="44.3734" lon="5.90178">
        <ele>603</ele>
        <time>2019-03-05T13:24:17Z</time>
      </trkpt>
      <trkpt lat="44.37345" lon="5.90184">
        <ele>603</ele>
        <time>2019-03-05T13:24:18Z</time>
      </trkpt>
      <trkpt lat="44.37349" lon="5.90189">
        <ele>603</ele>
        <time>2019-03-05T13:24:20Z</time>
      </trkpt>
      <trkpt lat="44.37353" lon="5.90195">
        <ele>604</ele>
        <time>2019-03-05T13:24:20Z</time>
      </trkpt>
      <trkpt lat="44.37357" lon="5.90201">
        <ele>604</ele>
        <time>2019-03-05T13:24:21Z</time>
      </trkpt>
      <trkpt lat="44.37362" lon="5.90206">
        <ele>604</ele>
        <time>2019-03-05T13:24:22Z</time>
      </trkpt>
      <trkpt lat="44.37366" lon="5.90211">
        <ele>604</ele>
        <time>2019-03-05T13:24:23Z</time>
      </trkpt>
      <trkpt lat="44.3737" lon="5.90217">
        <ele>605</ele>
        <time>2019-03-05T13:24:24Z</time>
      </trkpt>
      <trkpt lat="44.37374" lon="5.90222">
        <ele>605</ele>
        <time>2019-03-05T13:24:25Z</time>
      </trkpt>
      <trkpt lat="44.37379" lon="5.90227">
        <ele>605</ele>
        <time>2019-03-05T13:24:26Z</time>
      </trkpt>
      <trkpt lat="44.37383" lon="5.90233">
        <ele>605</ele>
        <time>2019-03-05T13:24:27Z</time>
      </trkpt>
      <trkpt lat="44.37387" lon="5.90238">
        <ele>606</ele>
        <time>2019-03-05T13:24:28Z</time>
      </trkpt>
      <trkpt lat="44.37391" lon="5.90243">
        <ele>606</ele>
        <time>2019-03-05T13:24:29Z</time>
      </trkpt>
      <trkpt lat="44.37396" lon="5.90248">
        <ele>606</ele>
        <time>2019-03-05T13:24:30Z</time>
      </trkpt>
      <trkpt lat="44.374" lon="5.90253">
        <ele>606</ele>
        <time>2019-03-05T13:24:31Z</time>
      </trkpt>
      <trkpt lat="44.37405" lon="5.90258">
        <ele>607</ele>
        <time>2019-03-05T13:24:32Z</time>
      </trkpt>
      <trkpt lat="44.37409" lon="5.90263">
        <ele>607</ele>
        <time>2019-03-05T13:24:33Z</time>
      </trkpt>
      <trkpt lat="44.37413" lon="5.90268">
        <ele>607</ele>
        <time>2019-03-05T13:24:34Z</time>
      </trkpt>
      <trkpt lat="44.37417" lon="5.90273">
        <ele>608</ele>
        <time>2019-03-05T13:24:35Z</time>
      </trkpt>
      <trkpt lat="44.37421" lon="5.90278">
        <ele>608</ele>
        <time>2019-03-05T13:24:36Z</time>
      </trkpt>
      <trkpt lat="44.37425" lon="5.90283">
        <ele>608</ele>
        <time>2019-03-05T13:24:37Z</time>
      </trkpt>
      <trkpt lat="44.37429" lon="5.90288">
        <ele>608</ele>
        <time>2019-03-05T13:24:38Z</time>
      </trkpt>
      <trkpt lat="44.37433" lon="5.90293">
        <ele>608</ele>
        <time>2019-03-05T13:24:39Z</time>
      </trkpt>
      <trkpt lat="44.37437" lon="5.90298">
        <ele>609</ele>
        <time>2019-03-05T13:24:40Z</time>
      </trkpt>
      <trkpt lat="44.37441" lon="5.90304">
        <ele>609</ele>
        <time>2019-03-05T13:24:41Z</time>
      </trkpt>
      <trkpt lat="44.37445" lon="5.90309">
        <ele>609</ele>
        <time>2019-03-05T13:24:42Z</time>
      </trkpt>
      <trkpt lat="44.37449" lon="5.90314">
        <ele>609</ele>
        <time>2019-03-05T13:24:43Z</time>
      </trkpt>
      <trkpt lat="44.37452" lon="5.90319">
        <ele>609</ele>
        <time>2019-03-05T13:24:44Z</time>
      </trkpt>
      <trkpt lat="44.37456" lon="5.90323">
        <ele>609</ele>
        <time>2019-03-05T13:24:45Z</time>
      </trkpt>
      <trkpt lat="44.3746" lon="5.90329">
        <ele>609</ele>
        <time>2019-03-05T13:24:46Z</time>
      </trkpt>
      <trkpt lat="44.37463" lon="5.90334">
        <ele>610</ele>
        <time>2019-03-05T13:24:47Z</time>
      </trkpt>
      <trkpt lat="44.37468" lon="5.90339">
        <ele>610</ele>
        <time>2019-03-05T13:24:48Z</time>
      </trkpt>
      <trkpt lat="44.37472" lon="5.90345">
        <ele>610</ele>
        <time>2019-03-05T13:24:49Z</time>
      </trkpt>
      <trkpt lat="44.37476" lon="5.9035">
        <ele>610</ele>
        <time>2019-03-05T13:24:50Z</time>
      </trkpt>
      <trkpt lat="44.37481" lon="5.90356">
        <ele>611</ele>
        <time>2019-03-05T13:24:51Z</time>
      </trkpt>
      <trkpt lat="44.37485" lon="5.90362">
        <ele>611</ele>
        <time>2019-03-05T13:24:52Z</time>
      </trkpt>
      <trkpt lat="44.3749" lon="5.90367">
        <ele>611</ele>
        <time>2019-03-05T13:24:53Z</time>
      </trkpt>
      <trkpt lat="44.37494" lon="5.90373">
        <ele>611</ele>
        <time>2019-03-05T13:24:54Z</time>
      </trkpt>
      <trkpt lat="44.37499" lon="5.90379">
        <ele>611</ele>
        <time>2019-03-05T13:24:55Z</time>
      </trkpt>
      <trkpt lat="44.37503" lon="5.90384">
        <ele>611</ele>
        <time>2019-03-05T13:24:56Z</time>
      </trkpt>
      <trkpt lat="44.37508" lon="5.9039">
        <ele>611</ele>
        <time>2019-03-05T13:24:57Z</time>
      </trkpt>
      <trkpt lat="44.37512" lon="5.90396">
        <ele>611</ele>
        <time>2019-03-05T13:24:58Z</time>
      </trkpt>
      <trkpt lat="44.37516" lon="5.90402">
        <ele>611</ele>
        <time>2019-03-05T13:24:59Z</time>
      </trkpt>
      <trkpt lat="44.37521" lon="5.90407">
        <ele>611</ele>
        <time>2019-03-05T13:25:00Z</time>
      </trkpt>
      <trkpt lat="44.37526" lon="5.90413">
        <ele>611</ele>
        <time>2019-03-05T13:25:01Z</time>
      </trkpt>
      <trkpt lat="44.3753" lon="5.90418">
        <ele>611</ele>
        <time>2019-03-05T13:25:02Z</time>
      </trkpt>
      <trkpt lat="44.37534" lon="5.90424">
        <ele>611</ele>
        <time>2019-03-05T13:25:03Z</time>
      </trkpt>
      <trkpt lat="44.37539" lon="5.90429">
        <ele>611</ele>
        <time>2019-03-05T13:25:04Z</time>
      </trkpt>
      <trkpt lat="44.37543" lon="5.90435">
        <ele>611</ele>
        <time>2019-03-05T13:25:05Z</time>
      </trkpt>
      <trkpt lat="44.37548" lon="5.9044">
        <ele>611</ele>
        <time>2019-03-05T13:25:06Z</time>
      </trkpt>
      <trkpt lat="44.37553" lon="5.90445">
        <ele>611</ele>
        <time>2019-03-05T13:25:07Z</time>
      </trkpt>
      <trkpt lat="44.37558" lon="5.9045">
        <ele>611</ele>
        <time>2019-03-05T13:25:08Z</time>
      </trkpt>
      <trkpt lat="44.37564" lon="5.90454">
        <ele>611</ele>
        <time>2019-03-05T13:25:09Z</time>
      </trkpt>
      <trkpt lat="44.3757" lon="5.90459">
        <ele>611</ele>
        <time>2019-03-05T13:25:10Z</time>
      </trkpt>
      <trkpt lat="44.37575" lon="5.90464">
        <ele>611</ele>
        <time>2019-03-05T13:25:11Z</time>
      </trkpt>
      <trkpt lat="44.37581" lon="5.90468">
        <ele>611</ele>
        <time>2019-03-05T13:25:12Z</time>
      </trkpt>
      <trkpt lat="44.37587" lon="5.90472">
        <ele>611</ele>
        <time>2019-03-05T13:25:13Z</time>
      </trkpt>
      <trkpt lat="44.37593" lon="5.90476">
        <ele>611</ele>
        <time>2019-03-05T13:25:14Z</time>
      </trkpt>
      <trkpt lat="44.376" lon="5.9048">
        <ele>611</ele>
        <time>2019-03-05T13:25:15Z</time>
      </trkpt>
      <trkpt lat="44.37606" lon="5.90485">
        <ele>611</ele>
        <time>2019-03-05T13:25:16Z</time>
      </trkpt>
      <trkpt lat="44.37613" lon="5.90489">
        <ele>611</ele>
        <time>2019-03-05T13:25:17Z</time>
      </trkpt>
      <trkpt lat="44.37619" lon="5.90493">
        <ele>611</ele>
        <time>2019-03-05T13:25:18Z</time>
      </trkpt>
      <trkpt lat="44.37625" lon="5.90497">
        <ele>611</ele>
        <time>2019-03-05T13:25:20Z</time>
      </trkpt>
      <trkpt lat="44.37631" lon="5.90501">
        <ele>611</ele>
        <time>2019-03-05T13:25:20Z</time>
      </trkpt>
      <trkpt lat="44.37637" lon="5.90505">
        <ele>611</ele>
        <time>2019-03-05T13:25:21Z</time>
      </trkpt>
      <trkpt lat="44.37644" lon="5.90509">
        <ele>611</ele>
        <time>2019-03-05T13:25:22Z</time>
      </trkpt>
      <trkpt lat="44.3765" lon="5.90513">
        <ele>611</ele>
        <time>2019-03-05T13:25:23Z</time>
      </trkpt>
      <trkpt lat="44.37656" lon="5.90517">
        <ele>611</ele>
        <time>2019-03-05T13:25:24Z</time>
      </trkpt>
      <trkpt lat="44.37662" lon="5.90521">
        <ele>611</ele>
        <time>2019-03-05T13:25:25Z</time>
      </trkpt>
      <trkpt lat="44.37668" lon="5.90525">
        <ele>611</ele>
        <time>2019-03-05T13:25:26Z</time>
      </trkpt>
      <trkpt lat="44.37674" lon="5.9053">
        <ele>611</ele>
        <time>2019-03-05T13:25:27Z</time>
      </trkpt>
      <trkpt lat="44.3768" lon="5.90534">
        <ele>611</ele>
        <time>2019-03-05T13:25:28Z</time>
      </trkpt>
      <trkpt lat="44.37685" lon="5.90539">
        <ele>611</ele>
        <time>2019-03-05T13:25:29Z</time>
      </trkpt>
      <trkpt lat="44.37691" lon="5.90544">
        <ele>611</ele>
        <time>2019-03-05T13:25:30Z</time>
      </trkpt>
      <trkpt lat="44.37696" lon="5.9055">
        <ele>611</ele>
        <time>2019-03-05T13:25:31Z</time>
      </trkpt>
      <trkpt lat="44.37701" lon="5.90555">
        <ele>611</ele>
        <time>2019-03-05T13:25:32Z</time>
      </trkpt>
      <trkpt lat="44.37706" lon="5.90561">
        <ele>611</ele>
        <time>2019-03-05T13:25:33Z</time>
      </trkpt>
      <trkpt lat="44.37712" lon="5.90568">
        <ele>611</ele>
        <time>2019-03-05T13:25:34Z</time>
      </trkpt>
      <trkpt lat="44.37717" lon="5.90574">
        <ele>611</ele>
        <time>2019-03-05T13:25:35Z</time>
      </trkpt>
      <trkpt lat="44.37722" lon="5.90581">
        <ele>611</ele>
        <time>2019-03-05T13:25:36Z</time>
      </trkpt>
      <trkpt lat="44.37726" lon="5.90588">
        <ele>611</ele>
        <time>2019-03-05T13:25:37Z</time>
      </trkpt>
      <trkpt lat="44.37731" lon="5.90595">
        <ele>611</ele>
        <time>2019-03-05T13:25:38Z</time>
      </trkpt>
      <trkpt lat="44.37735" lon="5.90603">
        <ele>611</ele>
        <time>2019-03-05T13:25:39Z</time>
      </trkpt>
      <trkpt lat="44.37739" lon="5.9061">
        <ele>611</ele>
        <time>2019-03-05T13:25:40Z</time>
      </trkpt>
      <trkpt lat="44.37744" lon="5.90617">
        <ele>611</ele>
        <time>2019-03-05T13:25:41Z</time>
      </trkpt>
      <trkpt lat="44.37749" lon="5.90624">
        <ele>611</ele>
        <time>2019-03-05T13:25:42Z</time>
      </trkpt>
      <trkpt lat="44.37755" lon="5.90631">
        <ele>611</ele>
        <time>2019-03-05T13:25:43Z</time>
      </trkpt>
      <trkpt lat="44.3776" lon="5.90638">
        <ele>611</ele>
        <time>2019-03-05T13:25:44Z</time>
      </trkpt>
      <trkpt lat="44.37766" lon="5.90644">
        <ele>611</ele>
        <time>2019-03-05T13:25:45Z</time>
      </trkpt>
      <trkpt lat="44.37772" lon="5.90651">
        <ele>611</ele>
        <time>2019-03-05T13:25:46Z</time>
      </trkpt>
      <trkpt lat="44.37778" lon="5.90657">
        <ele>611</ele>
        <time>2019-03-05T13:25:47Z</time>
      </trkpt>
      <trkpt lat="44.37785" lon="5.90663">
        <ele>611</ele>
        <time>2019-03-05T13:25:48Z</time>
      </trkpt>
      <trkpt lat="44.37791" lon="5.90669">
        <ele>611</ele>
        <time>2019-03-05T13:25:49Z</time>
      </trkpt>
      <trkpt lat="44.37798" lon="5.90675">
        <ele>611</ele>
        <time>2019-03-05T13:25:50Z</time>
      </trkpt>
      <trkpt lat="44.37804" lon="5.90681">
        <ele>611</ele>
        <time>2019-03-05T13:25:51Z</time>
      </trkpt>
      <trkpt lat="44.3781" lon="5.90686">
        <ele>611</ele>
        <time>2019-03-05T13:25:52Z</time>
      </trkpt>
      <trkpt lat="44.37816" lon="5.90692">
        <ele>611</ele>
        <time>2019-03-05T13:25:53Z</time>
      </trkpt>
      <trkpt lat="44.37822" lon="5.90698">
        <ele>611</ele>
        <time>2019-03-05T13:25:54Z</time>
      </trkpt>
      <trkpt lat="44.37828" lon="5.90704">
        <ele>611</ele>
        <time>2019-03-05T13:25:55Z</time>
      </trkpt>
      <trkpt lat="44.37834" lon="5.90709">
        <ele>611</ele>
        <time>2019-03-05T13:25:56Z</time>
      </trkpt>
      <trkpt lat="44.3784" lon="5.90715">
        <ele>611</ele>
        <time>2019-03-05T13:25:57Z</time>
      </trkpt>
      <trkpt lat="44.37846" lon="5.9072">
        <ele>611</ele>
        <time>2019-03-05T13:25:58Z</time>
      </trkpt>
      <trkpt lat="44.37851" lon="5.90726">
        <ele>611</ele>
        <time>2019-03-05T13:25:59Z</time>
      </trkpt>
      <trkpt lat="44.37857" lon="5.90731">
        <ele>611</ele>
        <time>2019-03-05T13:26:00Z</time>
      </trkpt>
      <trkpt lat="44.37863" lon="5.90736">
        <ele>611</ele>
        <time>2019-03-05T13:26:01Z</time>
      </trkpt>
      <trkpt lat="44.37869" lon="5.90742">
        <ele>611</ele>
        <time>2019-03-05T13:26:02Z</time>
      </trkpt>
      <trkpt lat="44.37875" lon="5.90748">
        <ele>611</ele>
        <time>2019-03-05T13:26:03Z</time>
      </trkpt>
      <trkpt lat="44.37881" lon="5.90753">
        <ele>611</ele>
        <time>2019-03-05T13:26:04Z</time>
      </trkpt>
      <trkpt lat="44.37887" lon="5.90759">
        <ele>611</ele>
        <time>2019-03-05T13:26:05Z</time>
      </trkpt>
      <trkpt lat="44.37893" lon="5.90764">
        <ele>611</ele>
        <time>2019-03-05T13:26:06Z</time>
      </trkpt>
      <trkpt lat="44.37899" lon="5.90769">
        <ele>611</ele>
        <time>2019-03-05T13:26:07Z</time>
      </trkpt>
      <trkpt lat="44.37904" lon="5.90775">
        <ele>611</ele>
        <time>2019-03-05T13:26:08Z</time>
      </trkpt>
      <trkpt lat="44.3791" lon="5.90781">
        <ele>611</ele>
        <time>2019-03-05T13:26:09Z</time>
      </trkpt>
      <trkpt lat="44.37915" lon="5.90787">
        <ele>611</ele>
        <time>2019-03-05T13:26:10Z</time>
      </trkpt>
      <trkpt lat="44.3792" lon="5.90794">
        <ele>611</ele>
        <time>2019-03-05T13:26:11Z</time>
      </trkpt>
      <trkpt lat="44.37925" lon="5.90801">
        <ele>611</ele>
        <time>2019-03-05T13:26:12Z</time>
      </trkpt>
      <trkpt lat="44.3793" lon="5.90809">
        <ele>611</ele>
        <time>2019-03-05T13:26:13Z</time>
      </trkpt>
      <trkpt lat="44.37935" lon="5.90816">
        <ele>611</ele>
        <time>2019-03-05T13:26:14Z</time>
      </trkpt>
      <trkpt lat="44.37939" lon="5.90825">
        <ele>611</ele>
        <time>2019-03-05T13:26:15Z</time>
      </trkpt>
      <trkpt lat="44.37944" lon="5.90834">
        <ele>611</ele>
        <time>2019-03-05T13:26:16Z</time>
      </trkpt>
      <trkpt lat="44.37947" lon="5.90842">
        <ele>611</ele>
        <time>2019-03-05T13:26:17Z</time>
      </trkpt>
      <trkpt lat="44.37951" lon="5.90851">
        <ele>611</ele>
        <time>2019-03-05T13:26:18Z</time>
      </trkpt>
      <trkpt lat="44.37955" lon="5.90861">
        <ele>611</ele>
        <time>2019-03-05T13:26:19Z</time>
      </trkpt>
      <trkpt lat="44.37959" lon="5.9087">
        <ele>611</ele>
        <time>2019-03-05T13:26:20Z</time>
      </trkpt>
      <trkpt lat="44.37962" lon="5.90879">
        <ele>611</ele>
        <time>2019-03-05T13:26:21Z</time>
      </trkpt>
      <trkpt lat="44.37966" lon="5.90888">
        <ele>610</ele>
        <time>2019-03-05T13:26:22Z</time>
      </trkpt>
      <trkpt lat="44.3797" lon="5.90897">
        <ele>610</ele>
        <time>2019-03-05T13:26:23Z</time>
      </trkpt>
      <trkpt lat="44.37975" lon="5.90906">
        <ele>610</ele>
        <time>2019-03-05T13:26:24Z</time>
      </trkpt>
      <trkpt lat="44.37979" lon="5.90915">
        <ele>610</ele>
        <time>2019-03-05T13:26:25Z</time>
      </trkpt>
      <trkpt lat="44.37983" lon="5.90924">
        <ele>610</ele>
        <time>2019-03-05T13:26:26Z</time>
      </trkpt>
      <trkpt lat="44.37987" lon="5.90932">
        <ele>610</ele>
        <time>2019-03-05T13:26:27Z</time>
      </trkpt>
      <trkpt lat="44.37991" lon="5.90941">
        <ele>610</ele>
        <time>2019-03-05T13:26:28Z</time>
      </trkpt>
      <trkpt lat="44.37995" lon="5.9095">
        <ele>610</ele>
        <time>2019-03-05T13:26:29Z</time>
      </trkpt>
      <trkpt lat="44.37999" lon="5.90958">
        <ele>610</ele>
        <time>2019-03-05T13:26:30Z</time>
      </trkpt>
      <trkpt lat="44.38003" lon="5.90967">
        <ele>610</ele>
        <time>2019-03-05T13:26:31Z</time>
      </trkpt>
      <trkpt lat="44.38007" lon="5.90976">
        <ele>610</ele>
        <time>2019-03-05T13:26:32Z</time>
      </trkpt>
      <trkpt lat="44.38011" lon="5.90985">
        <ele>610</ele>
        <time>2019-03-05T13:26:33Z</time>
      </trkpt>
      <trkpt lat="44.38015" lon="5.90993">
        <ele>610</ele>
        <time>2019-03-05T13:26:34Z</time>
      </trkpt>
      <trkpt lat="44.38018" lon="5.91002">
        <ele>610</ele>
        <time>2019-03-05T13:26:35Z</time>
      </trkpt>
      <trkpt lat="44.38022" lon="5.91011">
        <ele>610</ele>
        <time>2019-03-05T13:26:36Z</time>
      </trkpt>
      <trkpt lat="44.38025" lon="5.91019">
        <ele>610</ele>
        <time>2019-03-05T13:26:37Z</time>
      </trkpt>
      <trkpt lat="44.38029" lon="5.91028">
        <ele>610</ele>
        <time>2019-03-05T13:26:38Z</time>
      </trkpt>
      <trkpt lat="44.38032" lon="5.91037">
        <ele>610</ele>
        <time>2019-03-05T13:26:39Z</time>
      </trkpt>
      <trkpt lat="44.38036" lon="5.91045">
        <ele>610</ele>
        <time>2019-03-05T13:26:40Z</time>
      </trkpt>
      <trkpt lat="44.38039" lon="5.91053">
        <ele>610</ele>
        <time>2019-03-05T13:26:41Z</time>
      </trkpt>
      <trkpt lat="44.38042" lon="5.91061">
        <ele>610</ele>
        <time>2019-03-05T13:26:42Z</time>
      </trkpt>
      <trkpt lat="44.38046" lon="5.9107">
        <ele>610</ele>
        <time>2019-03-05T13:26:43Z</time>
      </trkpt>
      <trkpt lat="44.38049" lon="5.91078">
        <ele>610</ele>
        <time>2019-03-05T13:26:44Z</time>
      </trkpt>
      <trkpt lat="44.38052" lon="5.91086">
        <ele>610</ele>
        <time>2019-03-05T13:26:45Z</time>
      </trkpt>
      <trkpt lat="44.38056" lon="5.91094">
        <ele>610</ele>
        <time>2019-03-05T13:26:46Z</time>
      </trkpt>
      <trkpt lat="44.38059" lon="5.91102">
        <ele>610</ele>
        <time>2019-03-05T13:26:47Z</time>
      </trkpt>
      <trkpt lat="44.38062" lon="5.91111">
        <ele>610</ele>
        <time>2019-03-05T13:26:48Z</time>
      </trkpt>
      <trkpt lat="44.38066" lon="5.91119">
        <ele>610</ele>
        <time>2019-03-05T13:26:49Z</time>
      </trkpt>
      <trkpt lat="44.38069" lon="5.91128">
        <ele>609</ele>
        <time>2019-03-05T13:26:50Z</time>
      </trkpt>
      <trkpt lat="44.38073" lon="5.91137">
        <ele>609</ele>
        <time>2019-03-05T13:26:51Z</time>
      </trkpt>
      <trkpt lat="44.38076" lon="5.91146">
        <ele>609</ele>
        <time>2019-03-05T13:26:52Z</time>
      </trkpt>
      <trkpt lat="44.3808" lon="5.91155">
        <ele>609</ele>
        <time>2019-03-05T13:26:53Z</time>
      </trkpt>
      <trkpt lat="44.38084" lon="5.91164">
        <ele>609</ele>
        <time>2019-03-05T13:26:54Z</time>
      </trkpt>
      <trkpt lat="44.38088" lon="5.91174">
        <ele>609</ele>
        <time>2019-03-05T13:26:55Z</time>
      </trkpt>
      <trkpt lat="44.38092" lon="5.91183">
        <ele>609</ele>
        <time>2019-03-05T13:26:56Z</time>
      </trkpt>
      <trkpt lat="44.38096" lon="5.91193">
        <ele>609</ele>
        <time>2019-03-05T13:26:57Z</time>
      </trkpt>
      <trkpt lat="44.38099" lon="5.91202">
        <ele>609</ele>
        <time>2019-03-05T13:26:58Z</time>
      </trkpt>
      <trkpt lat="44.38103" lon="5.91211">
        <ele>609</ele>
        <time>2019-03-05T13:26:59Z</time>
      </trkpt>
      <trkpt lat="44.38107" lon="5.9122">
        <ele>608</ele>
        <time>2019-03-05T13:27:00Z</time>
      </trkpt>
      <trkpt lat="44.3811" lon="5.91229">
        <ele>608</ele>
        <time>2019-03-05T13:27:01Z</time>
      </trkpt>
      <trkpt lat="44.38114" lon="5.91239">
        <ele>608</ele>
        <time>2019-03-05T13:27:02Z</time>
      </trkpt>
      <trkpt lat="44.38117" lon="5.91248">
        <ele>608</ele>
        <time>2019-03-05T13:27:03Z</time>
      </trkpt>
      <trkpt lat="44.38121" lon="5.91257">
        <ele>608</ele>
        <time>2019-03-05T13:27:04Z</time>
      </trkpt>
      <trkpt lat="44.38124" lon="5.91266">
        <ele>608</ele>
        <time>2019-03-05T13:27:05Z</time>
      </trkpt>
      <trkpt lat="44.38128" lon="5.91275">
        <ele>608</ele>
        <time>2019-03-05T13:27:06Z</time>
      </trkpt>
      <trkpt lat="44.38131" lon="5.91284">
        <ele>608</ele>
        <time>2019-03-05T13:27:07Z</time>
      </trkpt>
      <trkpt lat="44.38135" lon="5.91293">
        <ele>608</ele>
        <time>2019-03-05T13:27:08Z</time>
      </trkpt>
      <trkpt lat="44.38139" lon="5.91302">
        <ele>608</ele>
        <time>2019-03-05T13:27:09Z</time>
      </trkpt>
      <trkpt lat="44.38142" lon="5.91311">
        <ele>608</ele>
        <time>2019-03-05T13:27:10Z</time>
      </trkpt>
      <trkpt lat="44.38146" lon="5.9132">
        <ele>608</ele>
        <time>2019-03-05T13:27:11Z</time>
      </trkpt>
      <trkpt lat="44.3815" lon="5.91329">
        <ele>608</ele>
        <time>2019-03-05T13:27:12Z</time>
      </trkpt>
      <trkpt lat="44.38154" lon="5.91338">
        <ele>608</ele>
        <time>2019-03-05T13:27:13Z</time>
      </trkpt>
      <trkpt lat="44.38158" lon="5.91347">
        <ele>608</ele>
        <time>2019-03-05T13:27:14Z</time>
      </trkpt>
      <trkpt lat="44.38161" lon="5.91356">
        <ele>608</ele>
        <time>2019-03-05T13:27:15Z</time>
      </trkpt>
      <trkpt lat="44.38165" lon="5.91364">
        <ele>608</ele>
        <time>2019-03-05T13:27:16Z</time>
      </trkpt>
      <trkpt lat="44.38169" lon="5.91373">
        <ele>608</ele>
        <time>2019-03-05T13:27:17Z</time>
      </trkpt>
      <trkpt lat="44.38174" lon="5.91382">
        <ele>608</ele>
        <time>2019-03-05T13:27:18Z</time>
      </trkpt>
      <trkpt lat="44.38178" lon="5.91391">
        <ele>608</ele>
        <time>2019-03-05T13:27:19Z</time>
      </trkpt>
      <trkpt lat="44.38182" lon="5.91399">
        <ele>608</ele>
        <time>2019-03-05T13:27:20Z</time>
      </trkpt>
      <trkpt lat="44.38187" lon="5.91408">
        <ele>608</ele>
        <time>2019-03-05T13:27:21Z</time>
      </trkpt>
      <trkpt lat="44.38192" lon="5.91416">
        <ele>608</ele>
        <time>2019-03-05T13:27:22Z</time>
      </trkpt>
      <trkpt lat="44.38197" lon="5.91425">
        <ele>608</ele>
        <time>2019-03-05T13:27:23Z</time>
      </trkpt>
      <trkpt lat="44.38201" lon="5.91433">
        <ele>608</ele>
        <time>2019-03-05T13:27:24Z</time>
      </trkpt>
      <trkpt lat="44.38206" lon="5.91442">
        <ele>608</ele>
        <time>2019-03-05T13:27:25Z</time>
      </trkpt>
      <trkpt lat="44.38211" lon="5.91451">
        <ele>608</ele>
        <time>2019-03-05T13:27:26Z</time>
      </trkpt>
      <trkpt lat="44.38215" lon="5.9146">
        <ele>608</ele>
        <time>2019-03-05T13:27:27Z</time>
      </trkpt>
      <trkpt lat="44.3822" lon="5.91468">
        <ele>608</ele>
        <time>2019-03-05T13:27:28Z</time>
      </trkpt>
      <trkpt lat="44.38225" lon="5.91477">
        <ele>608</ele>
        <time>2019-03-05T13:27:29Z</time>
      </trkpt>
      <trkpt lat="44.3823" lon="5.91486">
        <ele>608</ele>
        <time>2019-03-05T13:27:30Z</time>
      </trkpt>
      <trkpt lat="44.38234" lon="5.91495">
        <ele>608</ele>
        <time>2019-03-05T13:27:31Z</time>
      </trkpt>
      <trkpt lat="44.38239" lon="5.91504">
        <ele>608</ele>
        <time>2019-03-05T13:27:32Z</time>
      </trkpt>
      <trkpt lat="44.38244" lon="5.91513">
        <ele>608</ele>
        <time>2019-03-05T13:27:33Z</time>
      </trkpt>
      <trkpt lat="44.38249" lon="5.91522">
        <ele>608</ele>
        <time>2019-03-05T13:27:34Z</time>
      </trkpt>
      <trkpt lat="44.38253" lon="5.91531">
        <ele>608</ele>
        <time>2019-03-05T13:27:35Z</time>
      </trkpt>
      <trkpt lat="44.38258" lon="5.91539">
        <ele>608</ele>
        <time>2019-03-05T13:27:36Z</time>
      </trkpt>
      <trkpt lat="44.38262" lon="5.91548">
        <ele>608</ele>
        <time>2019-03-05T13:27:37Z</time>
      </trkpt>
      <trkpt lat="44.38267" lon="5.91557">
        <ele>608</ele>
        <time>2019-03-05T13:27:38Z</time>
      </trkpt>
      <trkpt lat="44.38271" lon="5.91565">
        <ele>608</ele>
        <time>2019-03-05T13:27:39Z</time>
      </trkpt>
      <trkpt lat="44.38276" lon="5.91573">
        <ele>608</ele>
        <time>2019-03-05T13:27:40Z</time>
      </trkpt>
      <trkpt lat="44.38281" lon="5.91582">
        <ele>608</ele>
        <time>2019-03-05T13:27:41Z</time>
      </trkpt>
      <trkpt lat="44.38285" lon="5.9159">
        <ele>608</ele>
        <time>2019-03-05T13:27:42Z</time>
      </trkpt>
      <trkpt lat="44.3829" lon="5.91599">
        <ele>608</ele>
        <time>2019-03-05T13:27:43Z</time>
      </trkpt>
      <trkpt lat="44.38295" lon="5.91607">
        <ele>608</ele>
        <time>2019-03-05T13:27:44Z</time>
      </trkpt>
      <trkpt lat="44.383" lon="5.91615">
        <ele>608</ele>
        <time>2019-03-05T13:27:45Z</time>
      </trkpt>
      <trkpt lat="44.38304" lon="5.91624">
        <ele>608</ele>
        <time>2019-03-05T13:27:46Z</time>
      </trkpt>
      <trkpt lat="44.38309" lon="5.91633">
        <ele>608</ele>
        <time>2019-03-05T13:27:47Z</time>
      </trkpt>
      <trkpt lat="44.38313" lon="5.91641">
        <ele>608</ele>
        <time>2019-03-05T13:27:48Z</time>
      </trkpt>
      <trkpt lat="44.38318" lon="5.9165">
        <ele>608</ele>
        <time>2019-03-05T13:27:49Z</time>
      </trkpt>
      <trkpt lat="44.38322" lon="5.91658">
        <ele>608</ele>
        <time>2019-03-05T13:27:50Z</time>
      </trkpt>
      <trkpt lat="44.38326" lon="5.91667">
        <ele>608</ele>
        <time>2019-03-05T13:27:51Z</time>
      </trkpt>
      <trkpt lat="44.38331" lon="5.91675">
        <ele>608</ele>
        <time>2019-03-05T13:27:52Z</time>
      </trkpt>
      <trkpt lat="44.38335" lon="5.91684">
        <ele>608</ele>
        <time>2019-03-05T13:27:53Z</time>
      </trkpt>
      <trkpt lat="44.3834" lon="5.91693">
        <ele>608</ele>
        <time>2019-03-05T13:27:54Z</time>
      </trkpt>
      <trkpt lat="44.38345" lon="5.91702">
        <ele>608</ele>
        <time>2019-03-05T13:27:55Z</time>
      </trkpt>
      <trkpt lat="44.3835" lon="5.9171">
        <ele>608</ele>
        <time>2019-03-05T13:27:56Z</time>
      </trkpt>
      <trkpt lat="44.38354" lon="5.91719">
        <ele>608</ele>
        <time>2019-03-05T13:27:57Z</time>
      </trkpt>
      <trkpt lat="44.38359" lon="5.91727">
        <ele>608</ele>
        <time>2019-03-05T13:27:58Z</time>
      </trkpt>
      <trkpt lat="44.38364" lon="5.91736">
        <ele>608</ele>
        <time>2019-03-05T13:27:59Z</time>
      </trkpt>
      <trkpt lat="44.38368" lon="5.91745">
        <ele>608</ele>
        <time>2019-03-05T13:28:00Z</time>
      </trkpt>
      <trkpt lat="44.38373" lon="5.91754">
        <ele>608</ele>
        <time>2019-03-05T13:28:01Z</time>
      </trkpt>
      <trkpt lat="44.38378" lon="5.91762">
        <ele>608</ele>
        <time>2019-03-05T13:28:02Z</time>
      </trkpt>
      <trkpt lat="44.38382" lon="5.91771">
        <ele>608</ele>
        <time>2019-03-05T13:28:03Z</time>
      </trkpt>
      <trkpt lat="44.38387" lon="5.9178">
        <ele>608</ele>
        <time>2019-03-05T13:28:04Z</time>
      </trkpt>
      <trkpt lat="44.38392" lon="5.91788">
        <ele>608</ele>
        <time>2019-03-05T13:28:05Z</time>
      </trkpt>
      <trkpt lat="44.38396" lon="5.91797">
        <ele>608</ele>
        <time>2019-03-05T13:28:06Z</time>
      </trkpt>
      <trkpt lat="44.38401" lon="5.91806">
        <ele>608</ele>
        <time>2019-03-05T13:28:07Z</time>
      </trkpt>
      <trkpt lat="44.38406" lon="5.91815">
        <ele>608</ele>
        <time>2019-03-05T13:28:08Z</time>
      </trkpt>
      <trkpt lat="44.3841" lon="5.91823">
        <ele>608</ele>
        <time>2019-03-05T13:28:09Z</time>
      </trkpt>
      <trkpt lat="44.38415" lon="5.91832">
        <ele>608</ele>
        <time>2019-03-05T13:28:10Z</time>
      </trkpt>
      <trkpt lat="44.3842" lon="5.91841">
        <ele>608</ele>
        <time>2019-03-05T13:28:11Z</time>
      </trkpt>
      <trkpt lat="44.38425" lon="5.9185">
        <ele>608</ele>
        <time>2019-03-05T13:28:12Z</time>
      </trkpt>
      <trkpt lat="44.3843" lon="5.91859">
        <ele>608</ele>
        <time>2019-03-05T13:28:13Z</time>
      </trkpt>
      <trkpt lat="44.38435" lon="5.91868">
        <ele>608</ele>
        <time>2019-03-05T13:28:14Z</time>
      </trkpt>
      <trkpt lat="44.3844" lon="5.91878">
        <ele>607</ele>
        <time>2019-03-05T13:28:15Z</time>
      </trkpt>
      <trkpt lat="44.38445" lon="5.91887">
        <ele>607</ele>
        <time>2019-03-05T13:28:16Z</time>
      </trkpt>
      <trkpt lat="44.3845" lon="5.91897">
        <ele>607</ele>
        <time>2019-03-05T13:28:17Z</time>
      </trkpt>
      <trkpt lat="44.38455" lon="5.91906">
        <ele>607</ele>
        <time>2019-03-05T13:28:18Z</time>
      </trkpt>
      <trkpt lat="44.3846" lon="5.91916">
        <ele>607</ele>
        <time>2019-03-05T13:28:19Z</time>
      </trkpt>
      <trkpt lat="44.38465" lon="5.91925">
        <ele>606</ele>
        <time>2019-03-05T13:28:20Z</time>
      </trkpt>
      <trkpt lat="44.3847" lon="5.91934">
        <ele>606</ele>
        <time>2019-03-05T13:28:21Z</time>
      </trkpt>
      <trkpt lat="44.38475" lon="5.91943">
        <ele>606</ele>
        <time>2019-03-05T13:28:22Z</time>
      </trkpt>
      <trkpt lat="44.3848" lon="5.91952">
        <ele>605</ele>
        <time>2019-03-05T13:28:23Z</time>
      </trkpt>
      <trkpt lat="44.38485" lon="5.91961">
        <ele>605</ele>
        <time>2019-03-05T13:28:24Z</time>
      </trkpt>
      <trkpt lat="44.3849" lon="5.9197">
        <ele>605</ele>
        <time>2019-03-05T13:28:25Z</time>
      </trkpt>
      <trkpt lat="44.38494" lon="5.91979">
        <ele>605</ele>
        <time>2019-03-05T13:28:26Z</time>
      </trkpt>
      <trkpt lat="44.38499" lon="5.91988">
        <ele>604</ele>
        <time>2019-03-05T13:28:27Z</time>
      </trkpt>
      <trkpt lat="44.38505" lon="5.91997">
        <ele>604</ele>
        <time>2019-03-05T13:28:28Z</time>
      </trkpt>
      <trkpt lat="44.3851" lon="5.92007">
        <ele>604</ele>
        <time>2019-03-05T13:28:29Z</time>
      </trkpt>
      <trkpt lat="44.38515" lon="5.92017">
        <ele>603</ele>
        <time>2019-03-05T13:28:30Z</time>
      </trkpt>
      <trkpt lat="44.38521" lon="5.92026">
        <ele>603</ele>
        <time>2019-03-05T13:28:31Z</time>
      </trkpt>
      <trkpt lat="44.38526" lon="5.92036">
        <ele>602</ele>
        <time>2019-03-05T13:28:32Z</time>
      </trkpt>
      <trkpt lat="44.38531" lon="5.92046">
        <ele>602</ele>
        <time>2019-03-05T13:28:33Z</time>
      </trkpt>
      <trkpt lat="44.38536" lon="5.92056">
        <ele>602</ele>
        <time>2019-03-05T13:28:34Z</time>
      </trkpt>
      <trkpt lat="44.38541" lon="5.92066">
        <ele>602</ele>
        <time>2019-03-05T13:28:35Z</time>
      </trkpt>
      <trkpt lat="44.38547" lon="5.92075">
        <ele>602</ele>
        <time>2019-03-05T13:28:36Z</time>
      </trkpt>
      <trkpt lat="44.38552" lon="5.92085">
        <ele>602</ele>
        <time>2019-03-05T13:28:37Z</time>
      </trkpt>
      <trkpt lat="44.38557" lon="5.92095">
        <ele>601</ele>
        <time>2019-03-05T13:28:38Z</time>
      </trkpt>
      <trkpt lat="44.38562" lon="5.92104">
        <ele>601</ele>
        <time>2019-03-05T13:28:39Z</time>
      </trkpt>
      <trkpt lat="44.38566" lon="5.92114">
        <ele>601</ele>
        <time>2019-03-05T13:28:40Z</time>
      </trkpt>
      <trkpt lat="44.3857" lon="5.92125">
        <ele>601</ele>
        <time>2019-03-05T13:28:41Z</time>
      </trkpt>
      <trkpt lat="44.38573" lon="5.92135">
        <ele>601</ele>
        <time>2019-03-05T13:28:42Z</time>
      </trkpt>
      <trkpt lat="44.38577" lon="5.92146">
        <ele>601</ele>
        <time>2019-03-05T13:28:43Z</time>
      </trkpt>
      <trkpt lat="44.38579" lon="5.92156">
        <ele>601</ele>
        <time>2019-03-05T13:28:44Z</time>
      </trkpt>
      <trkpt lat="44.38582" lon="5.92167">
        <ele>601</ele>
        <time>2019-03-05T13:28:45Z</time>
      </trkpt>
      <trkpt lat="44.38585" lon="5.92177">
        <ele>601</ele>
        <time>2019-03-05T13:28:46Z</time>
      </trkpt>
      <trkpt lat="44.38588" lon="5.92187">
        <ele>601</ele>
        <time>2019-03-05T13:28:47Z</time>
      </trkpt>
      <trkpt lat="44.38591" lon="5.92197">
        <ele>601</ele>
        <time>2019-03-05T13:28:48Z</time>
      </trkpt>
      <trkpt lat="44.38594" lon="5.92207">
        <ele>601</ele>
        <time>2019-03-05T13:28:49Z</time>
      </trkpt>
      <trkpt lat="44.38597" lon="5.92216">
        <ele>601</ele>
        <time>2019-03-05T13:28:50Z</time>
      </trkpt>
      <trkpt lat="44.386" lon="5.92226">
        <ele>601</ele>
        <time>2019-03-05T13:28:51Z</time>
      </trkpt>
      <trkpt lat="44.38603" lon="5.92235">
        <ele>601</ele>
        <time>2019-03-05T13:28:52Z</time>
      </trkpt>
      <trkpt lat="44.38606" lon="5.92243">
        <ele>601</ele>
        <time>2019-03-05T13:28:53Z</time>
      </trkpt>
      <trkpt lat="44.38608" lon="5.92252">
        <ele>601</ele>
        <time>2019-03-05T13:28:54Z</time>
      </trkpt>
      <trkpt lat="44.38611" lon="5.9226">
        <ele>601</ele>
        <time>2019-03-05T13:28:55Z</time>
      </trkpt>
      <trkpt lat="44.38614" lon="5.92268">
        <ele>601</ele>
        <time>2019-03-05T13:28:56Z</time>
      </trkpt>
      <trkpt lat="44.38616" lon="5.92276">
        <ele>601</ele>
        <time>2019-03-05T13:28:57Z</time>
      </trkpt>
      <trkpt lat="44.38619" lon="5.92283">
        <ele>601</ele>
        <time>2019-03-05T13:28:58Z</time>
      </trkpt>
      <trkpt lat="44.38622" lon="5.92291">
        <ele>601</ele>
        <time>2019-03-05T13:28:59Z</time>
      </trkpt>
      <trkpt lat="44.38625" lon="5.92298">
        <ele>601</ele>
        <time>2019-03-05T13:29:00Z</time>
      </trkpt>
      <trkpt lat="44.38628" lon="5.92306">
        <ele>601</ele>
        <time>2019-03-05T13:29:01Z</time>
      </trkpt>
      <trkpt lat="44.38631" lon="5.92313">
        <ele>601</ele>
        <time>2019-03-05T13:29:02Z</time>
      </trkpt>
      <trkpt lat="44.38634" lon="5.92321">
        <ele>601</ele>
        <time>2019-03-05T13:29:03Z</time>
      </trkpt>
      <trkpt lat="44.38637" lon="5.92329">
        <ele>601</ele>
        <time>2019-03-05T13:29:04Z</time>
      </trkpt>
      <trkpt lat="44.3864" lon="5.92337">
        <ele>601</ele>
        <time>2019-03-05T13:29:05Z</time>
      </trkpt>
      <trkpt lat="44.38643" lon="5.92345">
        <ele>601</ele>
        <time>2019-03-05T13:29:06Z</time>
      </trkpt>
      <trkpt lat="44.38645" lon="5.92352">
        <ele>601</ele>
        <time>2019-03-05T13:29:07Z</time>
      </trkpt>
      <trkpt lat="44.38648" lon="5.92361">
        <ele>601</ele>
        <time>2019-03-05T13:29:08Z</time>
      </trkpt>
      <trkpt lat="44.3865" lon="5.92369">
        <ele>601</ele>
        <time>2019-03-05T13:29:09Z</time>
      </trkpt>
      <trkpt lat="44.38652" lon="5.92378">
        <ele>601</ele>
        <time>2019-03-05T13:29:10Z</time>
      </trkpt>
      <trkpt lat="44.38654" lon="5.92387">
        <ele>601</ele>
        <time>2019-03-05T13:29:11Z</time>
      </trkpt>
      <trkpt lat="44.38655" lon="5.92396">
        <ele>601</ele>
        <time>2019-03-05T13:29:12Z</time>
      </trkpt>
      <trkpt lat="44.38657" lon="5.92405">
        <ele>601</ele>
        <time>2019-03-05T13:29:13Z</time>
      </trkpt>
      <trkpt lat="44.38658" lon="5.92415">
        <ele>601</ele>
        <time>2019-03-05T13:29:14Z</time>
      </trkpt>
      <trkpt lat="44.38659" lon="5.92424">
        <ele>601</ele>
        <time>2019-03-05T13:29:15Z</time>
      </trkpt>
      <trkpt lat="44.38659" lon="5.92434">
        <ele>601</ele>
        <time>2019-03-05T13:29:16Z</time>
      </trkpt>
      <trkpt lat="44.3866" lon="5.92443">
        <ele>601</ele>
        <time>2019-03-05T13:29:17Z</time>
      </trkpt>
      <trkpt lat="44.3866" lon="5.92453">
        <ele>601</ele>
        <time>2019-03-05T13:29:18Z</time>
      </trkpt>
      <trkpt lat="44.38661" lon="5.92463">
        <ele>601</ele>
        <time>2019-03-05T13:29:20Z</time>
      </trkpt>
      <trkpt lat="44.38661" lon="5.92473">
        <ele>601</ele>
        <time>2019-03-05T13:29:20Z</time>
      </trkpt>
      <trkpt lat="44.38662" lon="5.92483">
        <ele>601</ele>
        <time>2019-03-05T13:29:21Z</time>
      </trkpt>
      <trkpt lat="44.38662" lon="5.92493">
        <ele>601</ele>
        <time>2019-03-05T13:29:22Z</time>
      </trkpt>
      <trkpt lat="44.38662" lon="5.92503">
        <ele>601</ele>
        <time>2019-03-05T13:29:23Z</time>
      </trkpt>
      <trkpt lat="44.38662" lon="5.92513">
        <ele>601</ele>
        <time>2019-03-05T13:29:24Z</time>
      </trkpt>
      <trkpt lat="44.38663" lon="5.92523">
        <ele>601</ele>
        <time>2019-03-05T13:29:25Z</time>
      </trkpt>
      <trkpt lat="44.38663" lon="5.92533">
        <ele>601</ele>
        <time>2019-03-05T13:29:26Z</time>
      </trkpt>
      <trkpt lat="44.38665" lon="5.92544">
        <ele>601</ele>
        <time>2019-03-05T13:29:27Z</time>
      </trkpt>
      <trkpt lat="44.38666" lon="5.92554">
        <ele>601</ele>
        <time>2019-03-05T13:29:28Z</time>
      </trkpt>
      <trkpt lat="44.38668" lon="5.92564">
        <ele>601</ele>
        <time>2019-03-05T13:29:29Z</time>
      </trkpt>
      <trkpt lat="44.3867" lon="5.92575">
        <ele>601</ele>
        <time>2019-03-05T13:29:30Z</time>
      </trkpt>
      <trkpt lat="44.38672" lon="5.92586">
        <ele>601</ele>
        <time>2019-03-05T13:29:31Z</time>
      </trkpt>
      <trkpt lat="44.38675" lon="5.92597">
        <ele>601</ele>
        <time>2019-03-05T13:29:32Z</time>
      </trkpt>
      <trkpt lat="44.38677" lon="5.92608">
        <ele>601</ele>
        <time>2019-03-05T13:29:33Z</time>
      </trkpt>
      <trkpt lat="44.3868" lon="5.9262">
        <ele>601</ele>
        <time>2019-03-05T13:29:34Z</time>
      </trkpt>
      <trkpt lat="44.38683" lon="5.92632">
        <ele>601</ele>
        <time>2019-03-05T13:29:35Z</time>
      </trkpt>
      <trkpt lat="44.38686" lon="5.92644">
        <ele>601</ele>
        <time>2019-03-05T13:29:36Z</time>
      </trkpt>
      <trkpt lat="44.38689" lon="5.92657">
        <ele>601</ele>
        <time>2019-03-05T13:29:37Z</time>
      </trkpt>
      <trkpt lat="44.38692" lon="5.9267">
        <ele>601</ele>
        <time>2019-03-05T13:29:38Z</time>
      </trkpt>
      <trkpt lat="44.38695" lon="5.92683">
        <ele>601</ele>
        <time>2019-03-05T13:29:39Z</time>
      </trkpt>
      <trkpt lat="44.38697" lon="5.92696">
        <ele>600</ele>
        <time>2019-03-05T13:29:40Z</time>
      </trkpt>
      <trkpt lat="44.38698" lon="5.92709">
        <ele>600</ele>
        <time>2019-03-05T13:29:41Z</time>
      </trkpt>
      <trkpt lat="44.38698" lon="5.92723">
        <ele>600</ele>
        <time>2019-03-05T13:29:42Z</time>
      </trkpt>
      <trkpt lat="44.38697" lon="5.92737">
        <ele>599</ele>
        <time>2019-03-05T13:29:43Z</time>
      </trkpt>
      <trkpt lat="44.38696" lon="5.92751">
        <ele>599</ele>
        <time>2019-03-05T13:29:44Z</time>
      </trkpt>
      <trkpt lat="44.38693" lon="5.92765">
        <ele>598</ele>
        <time>2019-03-05T13:29:45Z</time>
      </trkpt>
      <trkpt lat="44.38691" lon="5.92778">
        <ele>598</ele>
        <time>2019-03-05T13:29:46Z</time>
      </trkpt>
      <trkpt lat="44.38688" lon="5.92791">
        <ele>598</ele>
        <time>2019-03-05T13:29:47Z</time>
      </trkpt>
      <trkpt lat="44.38686" lon="5.92803">
        <ele>597</ele>
        <time>2019-03-05T13:29:48Z</time>
      </trkpt>
      <trkpt lat="44.38684" lon="5.92815">
        <ele>597</ele>
        <time>2019-03-05T13:29:49Z</time>
      </trkpt>
      <trkpt lat="44.38683" lon="5.92827">
        <ele>597</ele>
        <time>2019-03-05T13:29:50Z</time>
      </trkpt>
      <trkpt lat="44.38683" lon="5.92839">
        <ele>597</ele>
        <time>2019-03-05T13:29:51Z</time>
      </trkpt>
      <trkpt lat="44.38683" lon="5.92851">
        <ele>597</ele>
        <time>2019-03-05T13:29:52Z</time>
      </trkpt>
      <trkpt lat="44.38684" lon="5.92863">
        <ele>597</ele>
        <time>2019-03-05T13:29:53Z</time>
      </trkpt>
      <trkpt lat="44.38684" lon="5.92875">
        <ele>597</ele>
        <time>2019-03-05T13:29:54Z</time>
      </trkpt>
      <trkpt lat="44.38683" lon="5.92887">
        <ele>597</ele>
        <time>2019-03-05T13:29:55Z</time>
      </trkpt>
      <trkpt lat="44.38683" lon="5.92899">
        <ele>597</ele>
        <time>2019-03-05T13:29:56Z</time>
      </trkpt>
      <trkpt lat="44.38681" lon="5.92911">
        <ele>597</ele>
        <time>2019-03-05T13:29:57Z</time>
      </trkpt>
      <trkpt lat="44.38679" lon="5.92923">
        <ele>597</ele>
        <time>2019-03-05T13:29:58Z</time>
      </trkpt>
      <trkpt lat="44.38676" lon="5.92934">
        <ele>597</ele>
        <time>2019-03-05T13:29:59Z</time>
      </trkpt>
      <trkpt lat="44.38673" lon="5.92945">
        <ele>596</ele>
        <time>2019-03-05T13:30:00Z</time>
      </trkpt>
      <trkpt lat="44.3867" lon="5.92957">
        <ele>596</ele>
        <time>2019-03-05T13:30:01Z</time>
      </trkpt>
      <trkpt lat="44.38668" lon="5.92968">
        <ele>596</ele>
        <time>2019-03-05T13:30:02Z</time>
      </trkpt>
      <trkpt lat="44.38665" lon="5.9298">
        <ele>596</ele>
        <time>2019-03-05T13:30:03Z</time>
      </trkpt>
      <trkpt lat="44.38664" lon="5.92992">
        <ele>595</ele>
        <time>2019-03-05T13:30:04Z</time>
      </trkpt>
      <trkpt lat="44.38664" lon="5.93004">
        <ele>595</ele>
        <time>2019-03-05T13:30:05Z</time>
      </trkpt>
      <trkpt lat="44.38664" lon="5.93017">
        <ele>595</ele>
        <time>2019-03-05T13:30:06Z</time>
      </trkpt>
      <trkpt lat="44.38665" lon="5.93028">
        <ele>595</ele>
        <time>2019-03-05T13:30:07Z</time>
      </trkpt>
      <trkpt lat="44.38667" lon="5.93041">
        <ele>595</ele>
        <time>2019-03-05T13:30:08Z</time>
      </trkpt>
      <trkpt lat="44.38669" lon="5.93052">
        <ele>595</ele>
        <time>2019-03-05T13:30:09Z</time>
      </trkpt>
      <trkpt lat="44.38672" lon="5.93064">
        <ele>595</ele>
        <time>2019-03-05T13:30:10Z</time>
      </trkpt>
      <trkpt lat="44.38674" lon="5.93076">
        <ele>595</ele>
        <time>2019-03-05T13:30:11Z</time>
      </trkpt>
      <trkpt lat="44.38676" lon="5.93088">
        <ele>595</ele>
        <time>2019-03-05T13:30:12Z</time>
      </trkpt>
      <trkpt lat="44.38678" lon="5.93099">
        <ele>595</ele>
        <time>2019-03-05T13:30:13Z</time>
      </trkpt>
      <trkpt lat="44.3868" lon="5.93111">
        <ele>595</ele>
        <time>2019-03-05T13:30:14Z</time>
      </trkpt>
      <trkpt lat="44.38682" lon="5.93122">
        <ele>595</ele>
        <time>2019-03-05T13:30:15Z</time>
      </trkpt>
      <trkpt lat="44.38684" lon="5.93132">
        <ele>594</ele>
        <time>2019-03-05T13:30:16Z</time>
      </trkpt>
      <trkpt lat="44.38686" lon="5.93144">
        <ele>594</ele>
        <time>2019-03-05T13:30:17Z</time>
      </trkpt>
      <trkpt lat="44.38689" lon="5.93154">
        <ele>594</ele>
        <time>2019-03-05T13:30:18Z</time>
      </trkpt>
      <trkpt lat="44.38691" lon="5.93165">
        <ele>594</ele>
        <time>2019-03-05T13:30:19Z</time>
      </trkpt>
      <trkpt lat="44.38693" lon="5.93176">
        <ele>593</ele>
        <time>2019-03-05T13:30:20Z</time>
      </trkpt>
      <trkpt lat="44.38696" lon="5.93187">
        <ele>593</ele>
        <time>2019-03-05T13:30:21Z</time>
      </trkpt>
      <trkpt lat="44.38699" lon="5.93198">
        <ele>593</ele>
        <time>2019-03-05T13:30:22Z</time>
      </trkpt>
      <trkpt lat="44.38702" lon="5.93209">
        <ele>593</ele>
        <time>2019-03-05T13:30:23Z</time>
      </trkpt>
      <trkpt lat="44.38705" lon="5.9322">
        <ele>593</ele>
        <time>2019-03-05T13:30:24Z</time>
      </trkpt>
      <trkpt lat="44.38708" lon="5.93231">
        <ele>592</ele>
        <time>2019-03-05T13:30:25Z</time>
      </trkpt>
      <trkpt lat="44.38711" lon="5.93242">
        <ele>592</ele>
        <time>2019-03-05T13:30:26Z</time>
      </trkpt>
      <trkpt lat="44.38714" lon="5.93253">
        <ele>592</ele>
        <time>2019-03-05T13:30:27Z</time>
      </trkpt>
      <trkpt lat="44.38717" lon="5.93264">
        <ele>592</ele>
        <time>2019-03-05T13:30:28Z</time>
      </trkpt>
      <trkpt lat="44.38719" lon="5.93275">
        <ele>591</ele>
        <time>2019-03-05T13:30:29Z</time>
      </trkpt>
      <trkpt lat="44.38721" lon="5.93287">
        <ele>591</ele>
        <time>2019-03-05T13:30:30Z</time>
      </trkpt>
      <trkpt lat="44.38723" lon="5.93298">
        <ele>591</ele>
        <time>2019-03-05T13:30:31Z</time>
      </trkpt>
      <trkpt lat="44.38724" lon="5.93311">
        <ele>590</ele>
        <time>2019-03-05T13:30:32Z</time>
      </trkpt>
      <trkpt lat="44.38724" lon="5.93323">
        <ele>590</ele>
        <time>2019-03-05T13:30:33Z</time>
      </trkpt>
      <trkpt lat="44.38725" lon="5.93335">
        <ele>590</ele>
        <time>2019-03-05T13:30:34Z</time>
      </trkpt>
      <trkpt lat="44.38724" lon="5.93348">
        <ele>590</ele>
        <time>2019-03-05T13:30:35Z</time>
      </trkpt>
      <trkpt lat="44.38724" lon="5.9336">
        <ele>589</ele>
        <time>2019-03-05T13:30:36Z</time>
      </trkpt>
      <trkpt lat="44.38723" lon="5.93372">
        <ele>589</ele>
        <time>2019-03-05T13:30:37Z</time>
      </trkpt>
      <trkpt lat="44.38722" lon="5.93384">
        <ele>589</ele>
        <time>2019-03-05T13:30:38Z</time>
      </trkpt>
      <trkpt lat="44.38721" lon="5.93395">
        <ele>589</ele>
        <time>2019-03-05T13:30:39Z</time>
      </trkpt>
      <trkpt lat="44.38721" lon="5.93406">
        <ele>588</ele>
        <time>2019-03-05T13:30:40Z</time>
      </trkpt>
      <trkpt lat="44.3872" lon="5.93417">
        <ele>588</ele>
        <time>2019-03-05T13:30:41Z</time>
      </trkpt>
      <trkpt lat="44.38719" lon="5.93427">
        <ele>588</ele>
        <time>2019-03-05T13:30:42Z</time>
      </trkpt>
      <trkpt lat="44.38718" lon="5.93437">
        <ele>587</ele>
        <time>2019-03-05T13:30:43Z</time>
      </trkpt>
      <trkpt lat="44.38717" lon="5.93447">
        <ele>586</ele>
        <time>2019-03-05T13:30:44Z</time>
      </trkpt>
      <trkpt lat="44.38716" lon="5.93457">
        <ele>586</ele>
        <time>2019-03-05T13:30:45Z</time>
      </trkpt>
      <trkpt lat="44.38715" lon="5.93467">
        <ele>585</ele>
        <time>2019-03-05T13:30:46Z</time>
      </trkpt>
      <trkpt lat="44.38714" lon="5.93476">
        <ele>584</ele>
        <time>2019-03-05T13:30:47Z</time>
      </trkpt>
      <trkpt lat="44.38714" lon="5.93486">
        <ele>583</ele>
        <time>2019-03-05T13:30:48Z</time>
      </trkpt>
      <trkpt lat="44.38713" lon="5.93495">
        <ele>583</ele>
        <time>2019-03-05T13:30:49Z</time>
      </trkpt>
      <trkpt lat="44.38713" lon="5.93505">
        <ele>583</ele>
        <time>2019-03-05T13:30:50Z</time>
      </trkpt>
      <trkpt lat="44.38712" lon="5.93514">
        <ele>582</ele>
        <time>2019-03-05T13:30:51Z</time>
      </trkpt>
      <trkpt lat="44.38712" lon="5.93524">
        <ele>582</ele>
        <time>2019-03-05T13:30:52Z</time>
      </trkpt>
      <trkpt lat="44.38712" lon="5.93534">
        <ele>582</ele>
        <time>2019-03-05T13:30:53Z</time>
      </trkpt>
      <trkpt lat="44.38711" lon="5.93543">
        <ele>582</ele>
        <time>2019-03-05T13:30:54Z</time>
      </trkpt>
      <trkpt lat="44.38711" lon="5.93553">
        <ele>581</ele>
        <time>2019-03-05T13:30:55Z</time>
      </trkpt>
      <trkpt lat="44.38711" lon="5.93562">
        <ele>581</ele>
        <time>2019-03-05T13:30:56Z</time>
      </trkpt>
      <trkpt lat="44.3871" lon="5.9357">
        <ele>581</ele>
        <time>2019-03-05T13:30:57Z</time>
      </trkpt>
      <trkpt lat="44.38711" lon="5.93578">
        <ele>581</ele>
        <time>2019-03-05T13:30:58Z</time>
      </trkpt>
      <trkpt lat="44.38711" lon="5.93586">
        <ele>581</ele>
        <time>2019-03-05T13:30:59Z</time>
      </trkpt>
      <trkpt lat="44.38712" lon="5.93593">
        <ele>581</ele>
        <time>2019-03-05T13:31:00Z</time>
      </trkpt>
      <trkpt lat="44.38714" lon="5.936">
        <ele>581</ele>
        <time>2019-03-05T13:31:01Z</time>
      </trkpt>
      <trkpt lat="44.38718" lon="5.93604">
        <ele>581</ele>
        <time>2019-03-05T13:31:02Z</time>
      </trkpt>
      <trkpt lat="44.38722" lon="5.93609">
        <ele>581</ele>
        <time>2019-03-05T13:31:03Z</time>
      </trkpt>
      <trkpt lat="44.38727" lon="5.93613">
        <ele>581</ele>
        <time>2019-03-05T13:31:04Z</time>
      </trkpt>
      <trkpt lat="44.38732" lon="5.93617">
        <ele>581</ele>
        <time>2019-03-05T13:31:05Z</time>
      </trkpt>
      <trkpt lat="44.38737" lon="5.93621">
        <ele>581</ele>
        <time>2019-03-05T13:31:06Z</time>
      </trkpt>
      <trkpt lat="44.38742" lon="5.93626">
        <ele>581</ele>
        <time>2019-03-05T13:31:07Z</time>
      </trkpt>
      <trkpt lat="44.38748" lon="5.9363">
        <ele>581</ele>
        <time>2019-03-05T13:31:08Z</time>
      </trkpt>
      <trkpt lat="44.38754" lon="5.93635">
        <ele>581</ele>
        <time>2019-03-05T13:31:09Z</time>
      </trkpt>
      <trkpt lat="44.3876" lon="5.9364">
        <ele>581</ele>
        <time>2019-03-05T13:31:10Z</time>
      </trkpt>
      <trkpt lat="44.38766" lon="5.93645">
        <ele>581</ele>
        <time>2019-03-05T13:31:11Z</time>
      </trkpt>
      <trkpt lat="44.38772" lon="5.9365">
        <ele>581</ele>
        <time>2019-03-05T13:31:12Z</time>
      </trkpt>
      <trkpt lat="44.38778" lon="5.93655">
        <ele>581</ele>
        <time>2019-03-05T13:31:13Z</time>
      </trkpt>
      <trkpt lat="44.38783" lon="5.9366">
        <ele>581</ele>
        <time>2019-03-05T13:31:14Z</time>
      </trkpt>
      <trkpt lat="44.3879" lon="5.93666">
        <ele>581</ele>
        <time>2019-03-05T13:31:15Z</time>
      </trkpt>
      <trkpt lat="44.38797" lon="5.93671">
        <ele>581</ele>
        <time>2019-03-05T13:31:16Z</time>
      </trkpt>
      <trkpt lat="44.38803" lon="5.93676">
        <ele>581</ele>
        <time>2019-03-05T13:31:17Z</time>
      </trkpt>
      <trkpt lat="44.38809" lon="5.93682">
        <ele>581</ele>
        <time>2019-03-05T13:31:18Z</time>
      </trkpt>
      <trkpt lat="44.38815" lon="5.93688">
        <ele>581</ele>
        <time>2019-03-05T13:31:19Z</time>
      </trkpt>
      <trkpt lat="44.38821" lon="5.93693">
        <ele>581</ele>
        <time>2019-03-05T13:31:20Z</time>
      </trkpt>
      <trkpt lat="44.38828" lon="5.93699">
        <ele>581</ele>
        <time>2019-03-05T13:31:21Z</time>
      </trkpt>
      <trkpt lat="44.38834" lon="5.93704">
        <ele>581</ele>
        <time>2019-03-05T13:31:22Z</time>
      </trkpt>
      <trkpt lat="44.3884" lon="5.93709">
        <ele>581</ele>
        <time>2019-03-05T13:31:23Z</time>
      </trkpt>
      <trkpt lat="44.38846" lon="5.93714">
        <ele>581</ele>
        <time>2019-03-05T13:31:24Z</time>
      </trkpt>
      <trkpt lat="44.38852" lon="5.93718">
        <ele>580</ele>
        <time>2019-03-05T13:31:25Z</time>
      </trkpt>
      <trkpt lat="44.38858" lon="5.93723">
        <ele>580</ele>
        <time>2019-03-05T13:31:26Z</time>
      </trkpt>
      <trkpt lat="44.38864" lon="5.93728">
        <ele>580</ele>
        <time>2019-03-05T13:31:27Z</time>
      </trkpt>
      <trkpt lat="44.3887" lon="5.93733">
        <ele>580</ele>
        <time>2019-03-05T13:31:28Z</time>
      </trkpt>
      <trkpt lat="44.38876" lon="5.93737">
        <ele>580</ele>
        <time>2019-03-05T13:31:29Z</time>
      </trkpt>
      <trkpt lat="44.38882" lon="5.93742">
        <ele>580</ele>
        <time>2019-03-05T13:31:30Z</time>
      </trkpt>
      <trkpt lat="44.38887" lon="5.93747">
        <ele>580</ele>
        <time>2019-03-05T13:31:31Z</time>
      </trkpt>
      <trkpt lat="44.38893" lon="5.93751">
        <ele>579</ele>
        <time>2019-03-05T13:31:32Z</time>
      </trkpt>
      <trkpt lat="44.38899" lon="5.93756">
        <ele>579</ele>
        <time>2019-03-05T13:31:33Z</time>
      </trkpt>
      <trkpt lat="44.38905" lon="5.93761">
        <ele>579</ele>
        <time>2019-03-05T13:31:34Z</time>
      </trkpt>
      <trkpt lat="44.38911" lon="5.93765">
        <ele>579</ele>
        <time>2019-03-05T13:31:35Z</time>
      </trkpt>
      <trkpt lat="44.38916" lon="5.9377">
        <ele>579</ele>
        <time>2019-03-05T13:31:36Z</time>
      </trkpt>
      <trkpt lat="44.38922" lon="5.93774">
        <ele>579</ele>
        <time>2019-03-05T13:31:37Z</time>
      </trkpt>
      <trkpt lat="44.38928" lon="5.93779">
        <ele>579</ele>
        <time>2019-03-05T13:31:38Z</time>
      </trkpt>
      <trkpt lat="44.38933" lon="5.93783">
        <ele>579</ele>
        <time>2019-03-05T13:31:39Z</time>
      </trkpt>
      <trkpt lat="44.38939" lon="5.93788">
        <ele>579</ele>
        <time>2019-03-05T13:31:40Z</time>
      </trkpt>
      <trkpt lat="44.38944" lon="5.93792">
        <ele>579</ele>
        <time>2019-03-05T13:31:41Z</time>
      </trkpt>
      <trkpt lat="44.3895" lon="5.93797">
        <ele>579</ele>
        <time>2019-03-05T13:31:42Z</time>
      </trkpt>
      <trkpt lat="44.38955" lon="5.93801">
        <ele>579</ele>
        <time>2019-03-05T13:31:43Z</time>
      </trkpt>
      <trkpt lat="44.38961" lon="5.93806">
        <ele>579</ele>
        <time>2019-03-05T13:31:44Z</time>
      </trkpt>
      <trkpt lat="44.38966" lon="5.93811">
        <ele>579</ele>
        <time>2019-03-05T13:31:45Z</time>
      </trkpt>
      <trkpt lat="44.38971" lon="5.93815">
        <ele>579</ele>
        <time>2019-03-05T13:31:46Z</time>
      </trkpt>
      <trkpt lat="44.38977" lon="5.93819">
        <ele>579</ele>
        <time>2019-03-05T13:31:47Z</time>
      </trkpt>
      <trkpt lat="44.38982" lon="5.93824">
        <ele>579</ele>
        <time>2019-03-05T13:31:48Z</time>
      </trkpt>
      <trkpt lat="44.38988" lon="5.93828">
        <ele>579</ele>
        <time>2019-03-05T13:31:49Z</time>
      </trkpt>
      <trkpt lat="44.38993" lon="5.93833">
        <ele>579</ele>
        <time>2019-03-05T13:31:50Z</time>
      </trkpt>
      <trkpt lat="44.38999" lon="5.93838">
        <ele>579</ele>
        <time>2019-03-05T13:31:51Z</time>
      </trkpt>
      <trkpt lat="44.39005" lon="5.93843">
        <ele>579</ele>
        <time>2019-03-05T13:31:52Z</time>
      </trkpt>
      <trkpt lat="44.3901" lon="5.93847">
        <ele>579</ele>
        <time>2019-03-05T13:31:53Z</time>
      </trkpt>
      <trkpt lat="44.39016" lon="5.93852">
        <ele>579</ele>
        <time>2019-03-05T13:31:54Z</time>
      </trkpt>
      <trkpt lat="44.39022" lon="5.93857">
        <ele>579</ele>
        <time>2019-03-05T13:31:55Z</time>
      </trkpt>
      <trkpt lat="44.39027" lon="5.93861">
        <ele>579</ele>
        <time>2019-03-05T13:31:56Z</time>
      </trkpt>
      <trkpt lat="44.39033" lon="5.93866">
        <ele>579</ele>
        <time>2019-03-05T13:31:57Z</time>
      </trkpt>
      <trkpt lat="44.39039" lon="5.93871">
        <ele>579</ele>
        <time>2019-03-05T13:31:58Z</time>
      </trkpt>
      <trkpt lat="44.39045" lon="5.93876">
        <ele>579</ele>
        <time>2019-03-05T13:31:59Z</time>
      </trkpt>
      <trkpt lat="44.3905" lon="5.93881">
        <ele>578</ele>
        <time>2019-03-05T13:32:00Z</time>
      </trkpt>
      <trkpt lat="44.39056" lon="5.93885">
        <ele>578</ele>
        <time>2019-03-05T13:32:01Z</time>
      </trkpt>
      <trkpt lat="44.39061" lon="5.9389">
        <ele>578</ele>
        <time>2019-03-05T13:32:02Z</time>
      </trkpt>
      <trkpt lat="44.39067" lon="5.93894">
        <ele>578</ele>
        <time>2019-03-05T13:32:03Z</time>
      </trkpt>
      <trkpt lat="44.39072" lon="5.93899">
        <ele>578</ele>
        <time>2019-03-05T13:32:04Z</time>
      </trkpt>
      <trkpt lat="44.39078" lon="5.93904">
        <ele>578</ele>
        <time>2019-03-05T13:32:05Z</time>
      </trkpt>
      <trkpt lat="44.39083" lon="5.93909">
        <ele>578</ele>
        <time>2019-03-05T13:32:06Z</time>
      </trkpt>
      <trkpt lat="44.39089" lon="5.93914">
        <ele>578</ele>
        <time>2019-03-05T13:32:07Z</time>
      </trkpt>
      <trkpt lat="44.39094" lon="5.93919">
        <ele>578</ele>
        <time>2019-03-05T13:32:08Z</time>
      </trkpt>
      <trkpt lat="44.391" lon="5.93924">
        <ele>578</ele>
        <time>2019-03-05T13:32:09Z</time>
      </trkpt>
      <trkpt lat="44.39106" lon="5.93928">
        <ele>578</ele>
        <time>2019-03-05T13:32:10Z</time>
      </trkpt>
      <trkpt lat="44.39111" lon="5.93933">
        <ele>578</ele>
        <time>2019-03-05T13:32:11Z</time>
      </trkpt>
      <trkpt lat="44.39117" lon="5.93938">
        <ele>578</ele>
        <time>2019-03-05T13:32:12Z</time>
      </trkpt>
      <trkpt lat="44.39123" lon="5.93943">
        <ele>578</ele>
        <time>2019-03-05T13:32:13Z</time>
      </trkpt>
      <trkpt lat="44.39129" lon="5.93948">
        <ele>578</ele>
        <time>2019-03-05T13:32:14Z</time>
      </trkpt>
      <trkpt lat="44.39135" lon="5.93953">
        <ele>578</ele>
        <time>2019-03-05T13:32:15Z</time>
      </trkpt>
      <trkpt lat="44.39141" lon="5.93958">
        <ele>578</ele>
        <time>2019-03-05T13:32:16Z</time>
      </trkpt>
      <trkpt lat="44.39147" lon="5.93963">
        <ele>578</ele>
        <time>2019-03-05T13:32:17Z</time>
      </trkpt>
      <trkpt lat="44.39153" lon="5.93967">
        <ele>578</ele>
        <time>2019-03-05T13:32:18Z</time>
      </trkpt>
      <trkpt lat="44.39158" lon="5.93972">
        <ele>578</ele>
        <time>2019-03-05T13:32:19Z</time>
      </trkpt>
      <trkpt lat="44.39164" lon="5.93977">
        <ele>578</ele>
        <time>2019-03-05T13:32:20Z</time>
      </trkpt>
      <trkpt lat="44.3917" lon="5.93982">
        <ele>578</ele>
        <time>2019-03-05T13:32:21Z</time>
      </trkpt>
      <trkpt lat="44.39176" lon="5.93987">
        <ele>578</ele>
        <time>2019-03-05T13:32:22Z</time>
      </trkpt>
      <trkpt lat="44.39181" lon="5.93992">
        <ele>578</ele>
        <time>2019-03-05T13:32:23Z</time>
      </trkpt>
      <trkpt lat="44.39187" lon="5.93997">
        <ele>578</ele>
        <time>2019-03-05T13:32:24Z</time>
      </trkpt>
      <trkpt lat="44.39193" lon="5.94002">
        <ele>578</ele>
        <time>2019-03-05T13:32:25Z</time>
      </trkpt>
      <trkpt lat="44.39198" lon="5.94007">
        <ele>578</ele>
        <time>2019-03-05T13:32:26Z</time>
      </trkpt>
      <trkpt lat="44.39204" lon="5.94012">
        <ele>578</ele>
        <time>2019-03-05T13:32:27Z</time>
      </trkpt>
      <trkpt lat="44.3921" lon="5.94017">
        <ele>578</ele>
        <time>2019-03-05T13:32:28Z</time>
      </trkpt>
      <trkpt lat="44.39216" lon="5.94022">
        <ele>578</ele>
        <time>2019-03-05T13:32:29Z</time>
      </trkpt>
      <trkpt lat="44.39222" lon="5.94027">
        <ele>578</ele>
        <time>2019-03-05T13:32:30Z</time>
      </trkpt>
      <trkpt lat="44.39228" lon="5.94031">
        <ele>578</ele>
        <time>2019-03-05T13:32:31Z</time>
      </trkpt>
      <trkpt lat="44.39234" lon="5.94036">
        <ele>578</ele>
        <time>2019-03-05T13:32:32Z</time>
      </trkpt>
      <trkpt lat="44.3924" lon="5.9404">
        <ele>578</ele>
        <time>2019-03-05T13:32:33Z</time>
      </trkpt>
      <trkpt lat="44.39245" lon="5.94045">
        <ele>578</ele>
        <time>2019-03-05T13:32:34Z</time>
      </trkpt>
      <trkpt lat="44.39251" lon="5.9405">
        <ele>578</ele>
        <time>2019-03-05T13:32:35Z</time>
      </trkpt>
      <trkpt lat="44.39256" lon="5.94054">
        <ele>578</ele>
        <time>2019-03-05T13:32:36Z</time>
      </trkpt>
      <trkpt lat="44.39261" lon="5.94059">
        <ele>578</ele>
        <time>2019-03-05T13:32:37Z</time>
      </trkpt>
      <trkpt lat="44.39267" lon="5.94063">
        <ele>578</ele>
        <time>2019-03-05T13:32:38Z</time>
      </trkpt>
      <trkpt lat="44.39273" lon="5.94067">
        <ele>578</ele>
        <time>2019-03-05T13:32:39Z</time>
      </trkpt>
      <trkpt lat="44.39278" lon="5.94072">
        <ele>577</ele>
        <time>2019-03-05T13:32:40Z</time>
      </trkpt>
      <trkpt lat="44.39284" lon="5.94077">
        <ele>577</ele>
        <time>2019-03-05T13:32:41Z</time>
      </trkpt>
      <trkpt lat="44.3929" lon="5.94082">
        <ele>577</ele>
        <time>2019-03-05T13:32:42Z</time>
      </trkpt>
      <trkpt lat="44.39295" lon="5.94087">
        <ele>577</ele>
        <time>2019-03-05T13:32:43Z</time>
      </trkpt>
      <trkpt lat="44.39301" lon="5.94091">
        <ele>577</ele>
        <time>2019-03-05T13:32:44Z</time>
      </trkpt>
      <trkpt lat="44.39306" lon="5.94095">
        <ele>577</ele>
        <time>2019-03-05T13:32:45Z</time>
      </trkpt>
      <trkpt lat="44.39312" lon="5.94099">
        <ele>577</ele>
        <time>2019-03-05T13:32:46Z</time>
      </trkpt>
      <trkpt lat="44.39317" lon="5.94104">
        <ele>577</ele>
        <time>2019-03-05T13:32:47Z</time>
      </trkpt>
      <trkpt lat="44.39322" lon="5.94108">
        <ele>577</ele>
        <time>2019-03-05T13:32:48Z</time>
      </trkpt>
      <trkpt lat="44.39327" lon="5.94113">
        <ele>577</ele>
        <time>2019-03-05T13:32:49Z</time>
      </trkpt>
      <trkpt lat="44.39333" lon="5.94117">
        <ele>577</ele>
        <time>2019-03-05T13:32:50Z</time>
      </trkpt>
      <trkpt lat="44.39338" lon="5.94122">
        <ele>577</ele>
        <time>2019-03-05T13:32:51Z</time>
      </trkpt>
      <trkpt lat="44.39344" lon="5.94126">
        <ele>577</ele>
        <time>2019-03-05T13:32:52Z</time>
      </trkpt>
      <trkpt lat="44.39349" lon="5.9413">
        <ele>577</ele>
        <time>2019-03-05T13:32:53Z</time>
      </trkpt>
      <trkpt lat="44.39355" lon="5.94134">
        <ele>577</ele>
        <time>2019-03-05T13:32:54Z</time>
      </trkpt>
      <trkpt lat="44.39361" lon="5.94138">
        <ele>577</ele>
        <time>2019-03-05T13:32:55Z</time>
      </trkpt>
      <trkpt lat="44.39366" lon="5.94142">
        <ele>577</ele>
        <time>2019-03-05T13:32:56Z</time>
      </trkpt>
      <trkpt lat="44.39371" lon="5.94146">
        <ele>577</ele>
        <time>2019-03-05T13:32:57Z</time>
      </trkpt>
      <trkpt lat="44.39377" lon="5.94151">
        <ele>577</ele>
        <time>2019-03-05T13:32:58Z</time>
      </trkpt>
      <trkpt lat="44.39381" lon="5.94155">
        <ele>577</ele>
        <time>2019-03-05T13:32:59Z</time>
      </trkpt>
      <trkpt lat="44.39386" lon="5.94159">
        <ele>577</ele>
        <time>2019-03-05T13:33:00Z</time>
      </trkpt>
      <trkpt lat="44.39391" lon="5.94163">
        <ele>577</ele>
        <time>2019-03-05T13:33:01Z</time>
      </trkpt>
      <trkpt lat="44.39396" lon="5.94168">
        <ele>577</ele>
        <time>2019-03-05T13:33:02Z</time>
      </trkpt>
      <trkpt lat="44.394" lon="5.94172">
        <ele>577</ele>
        <time>2019-03-05T13:33:03Z</time>
      </trkpt>
      <trkpt lat="44.39406" lon="5.94177">
        <ele>577</ele>
        <time>2019-03-05T13:33:04Z</time>
      </trkpt>
      <trkpt lat="44.39411" lon="5.94182">
        <ele>577</ele>
        <time>2019-03-05T13:33:05Z</time>
      </trkpt>
      <trkpt lat="44.39416" lon="5.94187">
        <ele>577</ele>
        <time>2019-03-05T13:33:06Z</time>
      </trkpt>
      <trkpt lat="44.39422" lon="5.94192">
        <ele>577</ele>
        <time>2019-03-05T13:33:07Z</time>
      </trkpt>
      <trkpt lat="44.39427" lon="5.94198">
        <ele>577</ele>
        <time>2019-03-05T13:33:08Z</time>
      </trkpt>
      <trkpt lat="44.39433" lon="5.94203">
        <ele>577</ele>
        <time>2019-03-05T13:33:09Z</time>
      </trkpt>
      <trkpt lat="44.39439" lon="5.94208">
        <ele>577</ele>
        <time>2019-03-05T13:33:10Z</time>
      </trkpt>
      <trkpt lat="44.39444" lon="5.94213">
        <ele>577</ele>
        <time>2019-03-05T13:33:11Z</time>
      </trkpt>
      <trkpt lat="44.3945" lon="5.94218">
        <ele>577</ele>
        <time>2019-03-05T13:33:12Z</time>
      </trkpt>
      <trkpt lat="44.39456" lon="5.94223">
        <ele>577</ele>
        <time>2019-03-05T13:33:13Z</time>
      </trkpt>
      <trkpt lat="44.39462" lon="5.94229">
        <ele>577</ele>
        <time>2019-03-05T13:33:14Z</time>
      </trkpt>
      <trkpt lat="44.39468" lon="5.94234">
        <ele>577</ele>
        <time>2019-03-05T13:33:15Z</time>
      </trkpt>
      <trkpt lat="44.39473" lon="5.94238">
        <ele>577</ele>
        <time>2019-03-05T13:33:16Z</time>
      </trkpt>
      <trkpt lat="44.39479" lon="5.94243">
        <ele>577</ele>
        <time>2019-03-05T13:33:17Z</time>
      </trkpt>
      <trkpt lat="44.39485" lon="5.94248">
        <ele>577</ele>
        <time>2019-03-05T13:33:18Z</time>
      </trkpt>
      <trkpt lat="44.39491" lon="5.94253">
        <ele>577</ele>
        <time>2019-03-05T13:33:19Z</time>
      </trkpt>
      <trkpt lat="44.39496" lon="5.94258">
        <ele>577</ele>
        <time>2019-03-05T13:33:20Z</time>
      </trkpt>
      <trkpt lat="44.39502" lon="5.94263">
        <ele>577</ele>
        <time>2019-03-05T13:33:21Z</time>
      </trkpt>
      <trkpt lat="44.39508" lon="5.94267">
        <ele>577</ele>
        <time>2019-03-05T13:33:22Z</time>
      </trkpt>
      <trkpt lat="44.39513" lon="5.94272">
        <ele>577</ele>
        <time>2019-03-05T13:33:23Z</time>
      </trkpt>
      <trkpt lat="44.39519" lon="5.94277">
        <ele>577</ele>
        <time>2019-03-05T13:33:24Z</time>
      </trkpt>
      <trkpt lat="44.39525" lon="5.94281">
        <ele>577</ele>
        <time>2019-03-05T13:33:25Z</time>
      </trkpt>
      <trkpt lat="44.39531" lon="5.94286">
        <ele>577</ele>
        <time>2019-03-05T13:33:26Z</time>
      </trkpt>
      <trkpt lat="44.39536" lon="5.9429">
        <ele>577</ele>
        <time>2019-03-05T13:33:27Z</time>
      </trkpt>
      <trkpt lat="44.39542" lon="5.94295">
        <ele>577</ele>
        <time>2019-03-05T13:33:28Z</time>
      </trkpt>
      <trkpt lat="44.39548" lon="5.94299">
        <ele>577</ele>
        <time>2019-03-05T13:33:29Z</time>
      </trkpt>
      <trkpt lat="44.39554" lon="5.94303">
        <ele>577</ele>
        <time>2019-03-05T13:33:30Z</time>
      </trkpt>
      <trkpt lat="44.39559" lon="5.94308">
        <ele>577</ele>
        <time>2019-03-05T13:33:31Z</time>
      </trkpt>
      <trkpt lat="44.39565" lon="5.94313">
        <ele>577</ele>
        <time>2019-03-05T13:33:32Z</time>
      </trkpt>
      <trkpt lat="44.3957" lon="5.94318">
        <ele>577</ele>
        <time>2019-03-05T13:33:33Z</time>
      </trkpt>
      <trkpt lat="44.39576" lon="5.94323">
        <ele>577</ele>
        <time>2019-03-05T13:33:34Z</time>
      </trkpt>
      <trkpt lat="44.39581" lon="5.94328">
        <ele>577</ele>
        <time>2019-03-05T13:33:35Z</time>
      </trkpt>
      <trkpt lat="44.39587" lon="5.94333">
        <ele>577</ele>
        <time>2019-03-05T13:33:36Z</time>
      </trkpt>
      <trkpt lat="44.39592" lon="5.94337">
        <ele>577</ele>
        <time>2019-03-05T13:33:37Z</time>
      </trkpt>
      <trkpt lat="44.39598" lon="5.94342">
        <ele>577</ele>
        <time>2019-03-05T13:33:38Z</time>
      </trkpt>
      <trkpt lat="44.39604" lon="5.94346">
        <ele>577</ele>
        <time>2019-03-05T13:33:39Z</time>
      </trkpt>
      <trkpt lat="44.39609" lon="5.9435">
        <ele>577</ele>
        <time>2019-03-05T13:33:40Z</time>
      </trkpt>
      <trkpt lat="44.39614" lon="5.94355">
        <ele>577</ele>
        <time>2019-03-05T13:33:41Z</time>
      </trkpt>
      <trkpt lat="44.3962" lon="5.94359">
        <ele>577</ele>
        <time>2019-03-05T13:33:42Z</time>
      </trkpt>
      <trkpt lat="44.39626" lon="5.94363">
        <ele>577</ele>
        <time>2019-03-05T13:33:43Z</time>
      </trkpt>
      <trkpt lat="44.39631" lon="5.94367">
        <ele>577</ele>
        <time>2019-03-05T13:33:44Z</time>
      </trkpt>
      <trkpt lat="44.39637" lon="5.94371">
        <ele>577</ele>
        <time>2019-03-05T13:33:45Z</time>
      </trkpt>
      <trkpt lat="44.39642" lon="5.94374">
        <ele>577</ele>
        <time>2019-03-05T13:33:46Z</time>
      </trkpt>
      <trkpt lat="44.39648" lon="5.94377">
        <ele>577</ele>
        <time>2019-03-05T13:33:47Z</time>
      </trkpt>
      <trkpt lat="44.39653" lon="5.94381">
        <ele>577</ele>
        <time>2019-03-05T13:33:48Z</time>
      </trkpt>
      <trkpt lat="44.39658" lon="5.94383">
        <ele>577</ele>
        <time>2019-03-05T13:33:49Z</time>
      </trkpt>
      <trkpt lat="44.39663" lon="5.94387">
        <ele>577</ele>
        <time>2019-03-05T13:33:50Z</time>
      </trkpt>
      <trkpt lat="44.39668" lon="5.9439">
        <ele>577</ele>
        <time>2019-03-05T13:33:51Z</time>
      </trkpt>
      <trkpt lat="44.39673" lon="5.94393">
        <ele>577</ele>
        <time>2019-03-05T13:33:52Z</time>
      </trkpt>
      <trkpt lat="44.39677" lon="5.94396">
        <ele>577</ele>
        <time>2019-03-05T13:33:53Z</time>
      </trkpt>
      <trkpt lat="44.39681" lon="5.94398">
        <ele>577</ele>
        <time>2019-03-05T13:33:54Z</time>
      </trkpt>
      <trkpt lat="44.39686" lon="5.94401">
        <ele>577</ele>
        <time>2019-03-05T13:33:55Z</time>
      </trkpt>
      <trkpt lat="44.39691" lon="5.94404">
        <ele>577</ele>
        <time>2019-03-05T13:33:56Z</time>
      </trkpt>
      <trkpt lat="44.39695" lon="5.94407">
        <ele>577</ele>
        <time>2019-03-05T13:33:57Z</time>
      </trkpt>
      <trkpt lat="44.397" lon="5.94409">
        <ele>577</ele>
        <time>2019-03-05T13:33:58Z</time>
      </trkpt>
      <trkpt lat="44.39705" lon="5.94412">
        <ele>577</ele>
        <time>2019-03-05T13:33:59Z</time>
      </trkpt>
      <trkpt lat="44.39709" lon="5.94415">
        <ele>577</ele>
        <time>2019-03-05T13:34:00Z</time>
      </trkpt>
      <trkpt lat="44.39714" lon="5.94418">
        <ele>577</ele>
        <time>2019-03-05T13:34:01Z</time>
      </trkpt>
      <trkpt lat="44.39718" lon="5.94421">
        <ele>577</ele>
        <time>2019-03-05T13:34:02Z</time>
      </trkpt>
      <trkpt lat="44.39723" lon="5.94424">
        <ele>578</ele>
        <time>2019-03-05T13:34:03Z</time>
      </trkpt>
      <trkpt lat="44.39727" lon="5.94427">
        <ele>578</ele>
        <time>2019-03-05T13:34:04Z</time>
      </trkpt>
      <trkpt lat="44.39732" lon="5.94429">
        <ele>578</ele>
        <time>2019-03-05T13:34:05Z</time>
      </trkpt>
      <trkpt lat="44.39737" lon="5.94432">
        <ele>579</ele>
        <time>2019-03-05T13:34:06Z</time>
      </trkpt>
      <trkpt lat="44.39742" lon="5.94435">
        <ele>579</ele>
        <time>2019-03-05T13:34:07Z</time>
      </trkpt>
      <trkpt lat="44.39746" lon="5.94437">
        <ele>579</ele>
        <time>2019-03-05T13:34:08Z</time>
      </trkpt>
      <trkpt lat="44.39751" lon="5.9444">
        <ele>580</ele>
        <time>2019-03-05T13:34:09Z</time>
      </trkpt>
      <trkpt lat="44.39755" lon="5.94443">
        <ele>580</ele>
        <time>2019-03-05T13:34:10Z</time>
      </trkpt>
      <trkpt lat="44.39759" lon="5.94446">
        <ele>581</ele>
        <time>2019-03-05T13:34:11Z</time>
      </trkpt>
      <trkpt lat="44.39763" lon="5.94449">
        <ele>581</ele>
        <time>2019-03-05T13:34:12Z</time>
      </trkpt>
      <trkpt lat="44.39768" lon="5.94452">
        <ele>581</ele>
        <time>2019-03-05T13:34:13Z</time>
      </trkpt>
      <trkpt lat="44.39772" lon="5.94454">
        <ele>582</ele>
        <time>2019-03-05T13:34:14Z</time>
      </trkpt>
      <trkpt lat="44.39777" lon="5.94457">
        <ele>582</ele>
        <time>2019-03-05T13:34:15Z</time>
      </trkpt>
      <trkpt lat="44.39781" lon="5.9446">
        <ele>583</ele>
        <time>2019-03-05T13:34:16Z</time>
      </trkpt>
      <trkpt lat="44.39785" lon="5.94464">
        <ele>583</ele>
        <time>2019-03-05T13:34:17Z</time>
      </trkpt>
      <trkpt lat="44.3979" lon="5.94467">
        <ele>583</ele>
        <time>2019-03-05T13:34:18Z</time>
      </trkpt>
      <trkpt lat="44.39793" lon="5.9447">
        <ele>583</ele>
        <time>2019-03-05T13:34:19Z</time>
      </trkpt>
      <trkpt lat="44.39797" lon="5.94473">
        <ele>583</ele>
        <time>2019-03-05T13:34:20Z</time>
      </trkpt>
      <trkpt lat="44.39801" lon="5.94476">
        <ele>584</ele>
        <time>2019-03-05T13:34:21Z</time>
      </trkpt>
      <trkpt lat="44.39805" lon="5.94479">
        <ele>584</ele>
        <time>2019-03-05T13:34:22Z</time>
      </trkpt>
      <trkpt lat="44.39809" lon="5.94483">
        <ele>584</ele>
        <time>2019-03-05T13:34:23Z</time>
      </trkpt>
      <trkpt lat="44.39812" lon="5.94486">
        <ele>584</ele>
        <time>2019-03-05T13:34:24Z</time>
      </trkpt>
      <trkpt lat="44.39816" lon="5.94488">
        <ele>584</ele>
        <time>2019-03-05T13:34:25Z</time>
      </trkpt>
      <trkpt lat="44.3982" lon="5.94491">
        <ele>584</ele>
        <time>2019-03-05T13:34:26Z</time>
      </trkpt>
      <trkpt lat="44.39823" lon="5.94495">
        <ele>584</ele>
        <time>2019-03-05T13:34:27Z</time>
      </trkpt>
      <trkpt lat="44.39826" lon="5.94498">
        <ele>584</ele>
        <time>2019-03-05T13:34:28Z</time>
      </trkpt>
      <trkpt lat="44.3983" lon="5.94501">
        <ele>585</ele>
        <time>2019-03-05T13:34:29Z</time>
      </trkpt>
      <trkpt lat="44.39834" lon="5.94504">
        <ele>585</ele>
        <time>2019-03-05T13:34:30Z</time>
      </trkpt>
      <trkpt lat="44.39837" lon="5.94507">
        <ele>586</ele>
        <time>2019-03-05T13:34:31Z</time>
      </trkpt>
      <trkpt lat="44.39841" lon="5.9451">
        <ele>586</ele>
        <time>2019-03-05T13:34:32Z</time>
      </trkpt>
      <trkpt lat="44.39844" lon="5.94513">
        <ele>586</ele>
        <time>2019-03-05T13:34:33Z</time>
      </trkpt>
      <trkpt lat="44.39848" lon="5.94517">
        <ele>587</ele>
        <time>2019-03-05T13:34:34Z</time>
      </trkpt>
      <trkpt lat="44.39851" lon="5.94521">
        <ele>587</ele>
        <time>2019-03-05T13:34:35Z</time>
      </trkpt>
      <trkpt lat="44.39854" lon="5.94524">
        <ele>587</ele>
        <time>2019-03-05T13:34:36Z</time>
      </trkpt>
      <trkpt lat="44.39858" lon="5.94527">
        <ele>587</ele>
        <time>2019-03-05T13:34:37Z</time>
      </trkpt>
      <trkpt lat="44.39861" lon="5.94531">
        <ele>588</ele>
        <time>2019-03-05T13:34:38Z</time>
      </trkpt>
      <trkpt lat="44.39864" lon="5.94534">
        <ele>588</ele>
        <time>2019-03-05T13:34:39Z</time>
      </trkpt>
      <trkpt lat="44.39867" lon="5.94538">
        <ele>588</ele>
        <time>2019-03-05T13:34:40Z</time>
      </trkpt>
      <trkpt lat="44.3987" lon="5.94542">
        <ele>589</ele>
        <time>2019-03-05T13:34:41Z</time>
      </trkpt>
      <trkpt lat="44.39874" lon="5.94545">
        <ele>589</ele>
        <time>2019-03-05T13:34:42Z</time>
      </trkpt>
      <trkpt lat="44.39877" lon="5.94548">
        <ele>589</ele>
        <time>2019-03-05T13:34:43Z</time>
      </trkpt>
      <trkpt lat="44.39881" lon="5.94551">
        <ele>590</ele>
        <time>2019-03-05T13:34:44Z</time>
      </trkpt>
      <trkpt lat="44.39884" lon="5.94553">
        <ele>590</ele>
        <time>2019-03-05T13:34:45Z</time>
      </trkpt>
      <trkpt lat="44.39888" lon="5.94556">
        <ele>590</ele>
        <time>2019-03-05T13:34:46Z</time>
      </trkpt>
      <trkpt lat="44.39891" lon="5.94558">
        <ele>590</ele>
        <time>2019-03-05T13:34:47Z</time>
      </trkpt>
      <trkpt lat="44.39895" lon="5.94561">
        <ele>590</ele>
        <time>2019-03-05T13:34:48Z</time>
      </trkpt>
      <trkpt lat="44.39899" lon="5.94564">
        <ele>590</ele>
        <time>2019-03-05T13:34:49Z</time>
      </trkpt>
      <trkpt lat="44.39902" lon="5.94567">
        <ele>590</ele>
        <time>2019-03-05T13:34:50Z</time>
      </trkpt>
      <trkpt lat="44.39905" lon="5.9457">
        <ele>590</ele>
        <time>2019-03-05T13:34:51Z</time>
      </trkpt>
      <trkpt lat="44.39909" lon="5.94572">
        <ele>590</ele>
        <time>2019-03-05T13:34:52Z</time>
      </trkpt>
      <trkpt lat="44.39912" lon="5.94574">
        <ele>590</ele>
        <time>2019-03-05T13:34:53Z</time>
      </trkpt>
      <trkpt lat="44.39915" lon="5.94576">
        <ele>590</ele>
        <time>2019-03-05T13:34:54Z</time>
      </trkpt>
      <trkpt lat="44.39919" lon="5.94578">
        <ele>590</ele>
        <time>2019-03-05T13:34:55Z</time>
      </trkpt>
      <trkpt lat="44.39922" lon="5.94579">
        <ele>591</ele>
        <time>2019-03-05T13:34:56Z</time>
      </trkpt>
      <trkpt lat="44.39926" lon="5.94581">
        <ele>591</ele>
        <time>2019-03-05T13:34:57Z</time>
      </trkpt>
      <trkpt lat="44.39929" lon="5.94583">
        <ele>591</ele>
        <time>2019-03-05T13:34:58Z</time>
      </trkpt>
      <trkpt lat="44.39933" lon="5.94584">
        <ele>591</ele>
        <time>2019-03-05T13:34:59Z</time>
      </trkpt>
      <trkpt lat="44.39936" lon="5.94585">
        <ele>591</ele>
        <time>2019-03-05T13:35:00Z</time>
      </trkpt>
      <trkpt lat="44.39939" lon="5.94587">
        <ele>591</ele>
        <time>2019-03-05T13:35:01Z</time>
      </trkpt>
      <trkpt lat="44.39943" lon="5.94588">
        <ele>591</ele>
        <time>2019-03-05T13:35:02Z</time>
      </trkpt>
      <trkpt lat="44.39946" lon="5.9459">
        <ele>591</ele>
        <time>2019-03-05T13:35:03Z</time>
      </trkpt>
      <trkpt lat="44.39949" lon="5.94592">
        <ele>591</ele>
        <time>2019-03-05T13:35:04Z</time>
      </trkpt>
      <trkpt lat="44.39952" lon="5.94594">
        <ele>591</ele>
        <time>2019-03-05T13:35:05Z</time>
      </trkpt>
      <trkpt lat="44.39956" lon="5.94596">
        <ele>592</ele>
        <time>2019-03-05T13:35:06Z</time>
      </trkpt>
      <trkpt lat="44.39959" lon="5.94598">
        <ele>592</ele>
        <time>2019-03-05T13:35:07Z</time>
      </trkpt>
      <trkpt lat="44.39963" lon="5.946">
        <ele>592</ele>
        <time>2019-03-05T13:35:08Z</time>
      </trkpt>
      <trkpt lat="44.39967" lon="5.94602">
        <ele>592</ele>
        <time>2019-03-05T13:35:09Z</time>
      </trkpt>
      <trkpt lat="44.3997" lon="5.94604">
        <ele>593</ele>
        <time>2019-03-05T13:35:10Z</time>
      </trkpt>
      <trkpt lat="44.39975" lon="5.94605">
        <ele>593</ele>
        <time>2019-03-05T13:35:11Z</time>
      </trkpt>
      <trkpt lat="44.39978" lon="5.94607">
        <ele>593</ele>
        <time>2019-03-05T13:35:12Z</time>
      </trkpt>
      <trkpt lat="44.39983" lon="5.94609">
        <ele>593</ele>
        <time>2019-03-05T13:35:13Z</time>
      </trkpt>
      <trkpt lat="44.39987" lon="5.94611">
        <ele>593</ele>
        <time>2019-03-05T13:35:14Z</time>
      </trkpt>
      <trkpt lat="44.39991" lon="5.94612">
        <ele>593</ele>
        <time>2019-03-05T13:35:15Z</time>
      </trkpt>
      <trkpt lat="44.39996" lon="5.94613">
        <ele>594</ele>
        <time>2019-03-05T13:35:16Z</time>
      </trkpt>
      <trkpt lat="44.4" lon="5.94615">
        <ele>594</ele>
        <time>2019-03-05T13:35:17Z</time>
      </trkpt>
      <trkpt lat="44.40004" lon="5.94617">
        <ele>594</ele>
        <time>2019-03-05T13:35:18Z</time>
      </trkpt>
      <trkpt lat="44.40008" lon="5.9462">
        <ele>594</ele>
        <time>2019-03-05T13:35:19Z</time>
      </trkpt>
      <trkpt lat="44.40012" lon="5.94622">
        <ele>594</ele>
        <time>2019-03-05T13:35:20Z</time>
      </trkpt>
      <trkpt lat="44.40017" lon="5.94624">
        <ele>594</ele>
        <time>2019-03-05T13:35:21Z</time>
      </trkpt>
      <trkpt lat="44.40021" lon="5.94625">
        <ele>594</ele>
        <time>2019-03-05T13:35:22Z</time>
      </trkpt>
      <trkpt lat="44.40025" lon="5.94627">
        <ele>594</ele>
        <time>2019-03-05T13:35:23Z</time>
      </trkpt>
      <trkpt lat="44.4003" lon="5.94629">
        <ele>594</ele>
        <time>2019-03-05T13:35:24Z</time>
      </trkpt>
      <trkpt lat="44.40034" lon="5.94631">
        <ele>594</ele>
        <time>2019-03-05T13:35:25Z</time>
      </trkpt>
      <trkpt lat="44.40039" lon="5.94633">
        <ele>594</ele>
        <time>2019-03-05T13:35:26Z</time>
      </trkpt>
      <trkpt lat="44.40043" lon="5.94635">
        <ele>594</ele>
        <time>2019-03-05T13:35:27Z</time>
      </trkpt>
      <trkpt lat="44.40048" lon="5.94638">
        <ele>594</ele>
        <time>2019-03-05T13:35:28Z</time>
      </trkpt>
      <trkpt lat="44.40053" lon="5.9464">
        <ele>594</ele>
        <time>2019-03-05T13:35:29Z</time>
      </trkpt>
      <trkpt lat="44.40058" lon="5.94642">
        <ele>594</ele>
        <time>2019-03-05T13:35:30Z</time>
      </trkpt>
      <trkpt lat="44.40063" lon="5.94644">
        <ele>594</ele>
        <time>2019-03-05T13:35:31Z</time>
      </trkpt>
      <trkpt lat="44.40068" lon="5.94646">
        <ele>594</ele>
        <time>2019-03-05T13:35:32Z</time>
      </trkpt>
      <trkpt lat="44.40073" lon="5.94649">
        <ele>594</ele>
        <time>2019-03-05T13:35:33Z</time>
      </trkpt>
      <trkpt lat="44.40079" lon="5.94652">
        <ele>594</ele>
        <time>2019-03-05T13:35:34Z</time>
      </trkpt>
      <trkpt lat="44.40084" lon="5.94655">
        <ele>594</ele>
        <time>2019-03-05T13:35:35Z</time>
      </trkpt>
      <trkpt lat="44.40089" lon="5.94657">
        <ele>594</ele>
        <time>2019-03-05T13:35:36Z</time>
      </trkpt>
      <trkpt lat="44.40094" lon="5.94661">
        <ele>594</ele>
        <time>2019-03-05T13:35:37Z</time>
      </trkpt>
      <trkpt lat="44.40099" lon="5.94664">
        <ele>594</ele>
        <time>2019-03-05T13:35:38Z</time>
      </trkpt>
      <trkpt lat="44.40104" lon="5.94668">
        <ele>594</ele>
        <time>2019-03-05T13:35:39Z</time>
      </trkpt>
      <trkpt lat="44.40109" lon="5.94671">
        <ele>594</ele>
        <time>2019-03-05T13:35:40Z</time>
      </trkpt>
      <trkpt lat="44.40114" lon="5.94675">
        <ele>594</ele>
        <time>2019-03-05T13:35:41Z</time>
      </trkpt>
      <trkpt lat="44.40119" lon="5.94678">
        <ele>594</ele>
        <time>2019-03-05T13:35:42Z</time>
      </trkpt>
      <trkpt lat="44.40124" lon="5.94682">
        <ele>594</ele>
        <time>2019-03-05T13:35:43Z</time>
      </trkpt>
      <trkpt lat="44.40129" lon="5.94686">
        <ele>594</ele>
        <time>2019-03-05T13:35:44Z</time>
      </trkpt>
      <trkpt lat="44.40134" lon="5.9469">
        <ele>594</ele>
        <time>2019-03-05T13:35:45Z</time>
      </trkpt>
      <trkpt lat="44.40139" lon="5.94693">
        <ele>594</ele>
        <time>2019-03-05T13:35:46Z</time>
      </trkpt>
      <trkpt lat="44.40144" lon="5.94697">
        <ele>594</ele>
        <time>2019-03-05T13:35:47Z</time>
      </trkpt>
      <trkpt lat="44.40149" lon="5.94701">
        <ele>594</ele>
        <time>2019-03-05T13:35:48Z</time>
      </trkpt>
      <trkpt lat="44.40155" lon="5.94705">
        <ele>594</ele>
        <time>2019-03-05T13:35:49Z</time>
      </trkpt>
      <trkpt lat="44.4016" lon="5.94709">
        <ele>594</ele>
        <time>2019-03-05T13:35:50Z</time>
      </trkpt>
      <trkpt lat="44.40164" lon="5.94713">
        <ele>594</ele>
        <time>2019-03-05T13:35:51Z</time>
      </trkpt>
      <trkpt lat="44.40169" lon="5.94717">
        <ele>594</ele>
        <time>2019-03-05T13:35:52Z</time>
      </trkpt>
      <trkpt lat="44.40174" lon="5.94721">
        <ele>594</ele>
        <time>2019-03-05T13:35:53Z</time>
      </trkpt>
      <trkpt lat="44.40179" lon="5.94725">
        <ele>594</ele>
        <time>2019-03-05T13:35:54Z</time>
      </trkpt>
      <trkpt lat="44.40183" lon="5.94729">
        <ele>594</ele>
        <time>2019-03-05T13:35:55Z</time>
      </trkpt>
      <trkpt lat="44.40188" lon="5.94733">
        <ele>594</ele>
        <time>2019-03-05T13:35:56Z</time>
      </trkpt>
      <trkpt lat="44.40192" lon="5.94737">
        <ele>595</ele>
        <time>2019-03-05T13:35:57Z</time>
      </trkpt>
      <trkpt lat="44.40197" lon="5.94741">
        <ele>595</ele>
        <time>2019-03-05T13:35:58Z</time>
      </trkpt>
      <trkpt lat="44.40201" lon="5.94746">
        <ele>595</ele>
        <time>2019-03-05T13:35:59Z</time>
      </trkpt>
      <trkpt lat="44.40205" lon="5.94751">
        <ele>595</ele>
        <time>2019-03-05T13:36:00Z</time>
      </trkpt>
      <trkpt lat="44.4021" lon="5.94755">
        <ele>595</ele>
        <time>2019-03-05T13:36:01Z</time>
      </trkpt>
      <trkpt lat="44.40213" lon="5.9476">
        <ele>595</ele>
        <time>2019-03-05T13:36:02Z</time>
      </trkpt>
      <trkpt lat="44.40218" lon="5.94765">
        <ele>596</ele>
        <time>2019-03-05T13:36:03Z</time>
      </trkpt>
      <trkpt lat="44.40221" lon="5.9477">
        <ele>596</ele>
        <time>2019-03-05T13:36:04Z</time>
      </trkpt>
      <trkpt lat="44.40226" lon="5.94775">
        <ele>596</ele>
        <time>2019-03-05T13:36:05Z</time>
      </trkpt>
      <trkpt lat="44.40229" lon="5.9478">
        <ele>596</ele>
        <time>2019-03-05T13:36:06Z</time>
      </trkpt>
      <trkpt lat="44.40233" lon="5.94785">
        <ele>596</ele>
        <time>2019-03-05T13:36:07Z</time>
      </trkpt>
      <trkpt lat="44.40237" lon="5.94791">
        <ele>596</ele>
        <time>2019-03-05T13:36:08Z</time>
      </trkpt>
      <trkpt lat="44.4024" lon="5.94796">
        <ele>596</ele>
        <time>2019-03-05T13:36:09Z</time>
      </trkpt>
      <trkpt lat="44.40244" lon="5.94801">
        <ele>596</ele>
        <time>2019-03-05T13:36:10Z</time>
      </trkpt>
      <trkpt lat="44.40248" lon="5.94805">
        <ele>596</ele>
        <time>2019-03-05T13:36:11Z</time>
      </trkpt>
      <trkpt lat="44.40251" lon="5.9481">
        <ele>596</ele>
        <time>2019-03-05T13:36:12Z</time>
      </trkpt>
      <trkpt lat="44.40255" lon="5.94815">
        <ele>596</ele>
        <time>2019-03-05T13:36:13Z</time>
      </trkpt>
      <trkpt lat="44.40258" lon="5.94821">
        <ele>596</ele>
        <time>2019-03-05T13:36:14Z</time>
      </trkpt>
      <trkpt lat="44.40261" lon="5.94826">
        <ele>596</ele>
        <time>2019-03-05T13:36:15Z</time>
      </trkpt>
      <trkpt lat="44.40265" lon="5.94832">
        <ele>596</ele>
        <time>2019-03-05T13:36:16Z</time>
      </trkpt>
      <trkpt lat="44.40268" lon="5.94837">
        <ele>596</ele>
        <time>2019-03-05T13:36:17Z</time>
      </trkpt>
      <trkpt lat="44.40271" lon="5.94842">
        <ele>596</ele>
        <time>2019-03-05T13:36:18Z</time>
      </trkpt>
      <trkpt lat="44.40275" lon="5.94848">
        <ele>596</ele>
        <time>2019-03-05T13:36:19Z</time>
      </trkpt>
      <trkpt lat="44.40278" lon="5.94854">
        <ele>596</ele>
        <time>2019-03-05T13:36:20Z</time>
      </trkpt>
      <trkpt lat="44.40281" lon="5.94859">
        <ele>596</ele>
        <time>2019-03-05T13:36:21Z</time>
      </trkpt>
      <trkpt lat="44.40283" lon="5.94865">
        <ele>596</ele>
        <time>2019-03-05T13:36:22Z</time>
      </trkpt>
      <trkpt lat="44.40286" lon="5.94871">
        <ele>595</ele>
        <time>2019-03-05T13:36:23Z</time>
      </trkpt>
      <trkpt lat="44.40289" lon="5.94876">
        <ele>594</ele>
        <time>2019-03-05T13:36:24Z</time>
      </trkpt>
      <trkpt lat="44.40292" lon="5.94883">
        <ele>594</ele>
        <time>2019-03-05T13:36:25Z</time>
      </trkpt>
      <trkpt lat="44.40295" lon="5.94889">
        <ele>593</ele>
        <time>2019-03-05T13:36:26Z</time>
      </trkpt>
      <trkpt lat="44.40298" lon="5.94896">
        <ele>593</ele>
        <time>2019-03-05T13:36:27Z</time>
      </trkpt>
      <trkpt lat="44.40301" lon="5.94903">
        <ele>593</ele>
        <time>2019-03-05T13:36:28Z</time>
      </trkpt>
      <trkpt lat="44.40305" lon="5.94909">
        <ele>593</ele>
        <time>2019-03-05T13:36:29Z</time>
      </trkpt>
      <trkpt lat="44.40308" lon="5.94916">
        <ele>593</ele>
        <time>2019-03-05T13:36:30Z</time>
      </trkpt>
      <trkpt lat="44.40312" lon="5.94923">
        <ele>593</ele>
        <time>2019-03-05T13:36:31Z</time>
      </trkpt>
      <trkpt lat="44.40315" lon="5.94931">
        <ele>593</ele>
        <time>2019-03-05T13:36:32Z</time>
      </trkpt>
      <trkpt lat="44.40319" lon="5.94938">
        <ele>593</ele>
        <time>2019-03-05T13:36:33Z</time>
      </trkpt>
      <trkpt lat="44.40322" lon="5.94944">
        <ele>593</ele>
        <time>2019-03-05T13:36:34Z</time>
      </trkpt>
      <trkpt lat="44.40325" lon="5.94951">
        <ele>593</ele>
        <time>2019-03-05T13:36:35Z</time>
      </trkpt>
      <trkpt lat="44.40329" lon="5.94958">
        <ele>593</ele>
        <time>2019-03-05T13:36:36Z</time>
      </trkpt>
      <trkpt lat="44.40332" lon="5.94965">
        <ele>593</ele>
        <time>2019-03-05T13:36:37Z</time>
      </trkpt>
      <trkpt lat="44.40335" lon="5.94973">
        <ele>592</ele>
        <time>2019-03-05T13:36:38Z</time>
      </trkpt>
      <trkpt lat="44.40339" lon="5.94981">
        <ele>592</ele>
        <time>2019-03-05T13:36:39Z</time>
      </trkpt>
      <trkpt lat="44.40342" lon="5.94989">
        <ele>592</ele>
        <time>2019-03-05T13:36:40Z</time>
      </trkpt>
      <trkpt lat="44.40346" lon="5.94997">
        <ele>592</ele>
        <time>2019-03-05T13:36:41Z</time>
      </trkpt>
      <trkpt lat="44.4035" lon="5.95005">
        <ele>592</ele>
        <time>2019-03-05T13:36:42Z</time>
      </trkpt>
      <trkpt lat="44.40353" lon="5.95014">
        <ele>592</ele>
        <time>2019-03-05T13:36:43Z</time>
      </trkpt>
      <trkpt lat="44.40357" lon="5.95022">
        <ele>592</ele>
        <time>2019-03-05T13:36:44Z</time>
      </trkpt>
      <trkpt lat="44.40361" lon="5.95031">
        <ele>592</ele>
        <time>2019-03-05T13:36:45Z</time>
      </trkpt>
      <trkpt lat="44.40365" lon="5.9504">
        <ele>592</ele>
        <time>2019-03-05T13:36:46Z</time>
      </trkpt>
      <trkpt lat="44.40369" lon="5.95049">
        <ele>592</ele>
        <time>2019-03-05T13:36:47Z</time>
      </trkpt>
      <trkpt lat="44.40373" lon="5.95058">
        <ele>592</ele>
        <time>2019-03-05T13:36:48Z</time>
      </trkpt>
      <trkpt lat="44.40377" lon="5.95067">
        <ele>592</ele>
        <time>2019-03-05T13:36:49Z</time>
      </trkpt>
      <trkpt lat="44.4038" lon="5.95077">
        <ele>591</ele>
        <time>2019-03-05T13:36:50Z</time>
      </trkpt>
      <trkpt lat="44.40384" lon="5.95086">
        <ele>591</ele>
        <time>2019-03-05T13:36:51Z</time>
      </trkpt>
      <trkpt lat="44.40388" lon="5.95095">
        <ele>591</ele>
        <time>2019-03-05T13:36:52Z</time>
      </trkpt>
      <trkpt lat="44.40392" lon="5.95105">
        <ele>591</ele>
        <time>2019-03-05T13:36:53Z</time>
      </trkpt>
      <trkpt lat="44.40396" lon="5.95114">
        <ele>591</ele>
        <time>2019-03-05T13:36:54Z</time>
      </trkpt>
      <trkpt lat="44.404" lon="5.95123">
        <ele>591</ele>
        <time>2019-03-05T13:36:55Z</time>
      </trkpt>
      <trkpt lat="44.40403" lon="5.95133">
        <ele>591</ele>
        <time>2019-03-05T13:36:56Z</time>
      </trkpt>
      <trkpt lat="44.40407" lon="5.95142">
        <ele>591</ele>
        <time>2019-03-05T13:36:57Z</time>
      </trkpt>
      <trkpt lat="44.40411" lon="5.95152">
        <ele>591</ele>
        <time>2019-03-05T13:36:58Z</time>
      </trkpt>
      <trkpt lat="44.40416" lon="5.95161">
        <ele>591</ele>
        <time>2019-03-05T13:36:59Z</time>
      </trkpt>
      <trkpt lat="44.40421" lon="5.95171">
        <ele>591</ele>
        <time>2019-03-05T13:37:00Z</time>
      </trkpt>
      <trkpt lat="44.40425" lon="5.95181">
        <ele>590</ele>
        <time>2019-03-05T13:37:01Z</time>
      </trkpt>
      <trkpt lat="44.4043" lon="5.9519">
        <ele>590</ele>
        <time>2019-03-05T13:37:02Z</time>
      </trkpt>
      <trkpt lat="44.40435" lon="5.952">
        <ele>590</ele>
        <time>2019-03-05T13:37:03Z</time>
      </trkpt>
      <trkpt lat="44.4044" lon="5.9521">
        <ele>590</ele>
        <time>2019-03-05T13:37:04Z</time>
      </trkpt>
      <trkpt lat="44.40445" lon="5.95219">
        <ele>590</ele>
        <time>2019-03-05T13:37:05Z</time>
      </trkpt>
      <trkpt lat="44.40449" lon="5.9523">
        <ele>589</ele>
        <time>2019-03-05T13:37:06Z</time>
      </trkpt>
      <trkpt lat="44.40455" lon="5.95239">
        <ele>589</ele>
        <time>2019-03-05T13:37:07Z</time>
      </trkpt>
      <trkpt lat="44.4046" lon="5.95249">
        <ele>589</ele>
        <time>2019-03-05T13:37:08Z</time>
      </trkpt>
      <trkpt lat="44.40465" lon="5.95259">
        <ele>588</ele>
        <time>2019-03-05T13:37:09Z</time>
      </trkpt>
      <trkpt lat="44.4047" lon="5.95268">
        <ele>588</ele>
        <time>2019-03-05T13:37:10Z</time>
      </trkpt>
      <trkpt lat="44.40475" lon="5.95278">
        <ele>587</ele>
        <time>2019-03-05T13:37:11Z</time>
      </trkpt>
      <trkpt lat="44.4048" lon="5.95288">
        <ele>586</ele>
        <time>2019-03-05T13:37:12Z</time>
      </trkpt>
      <trkpt lat="44.40485" lon="5.95298">
        <ele>585</ele>
        <time>2019-03-05T13:37:13Z</time>
      </trkpt>
      <trkpt lat="44.40489" lon="5.95309">
        <ele>585</ele>
        <time>2019-03-05T13:37:14Z</time>
      </trkpt>
      <trkpt lat="44.40494" lon="5.95319">
        <ele>584</ele>
        <time>2019-03-05T13:37:15Z</time>
      </trkpt>
      <trkpt lat="44.40499" lon="5.95329">
        <ele>584</ele>
        <time>2019-03-05T13:37:16Z</time>
      </trkpt>
      <trkpt lat="44.40504" lon="5.95339">
        <ele>583</ele>
        <time>2019-03-05T13:37:17Z</time>
      </trkpt>
      <trkpt lat="44.40509" lon="5.95349">
        <ele>583</ele>
        <time>2019-03-05T13:37:18Z</time>
      </trkpt>
      <trkpt lat="44.40514" lon="5.95359">
        <ele>582</ele>
        <time>2019-03-05T13:37:19Z</time>
      </trkpt>
      <trkpt lat="44.40519" lon="5.95369">
        <ele>582</ele>
        <time>2019-03-05T13:37:21Z</time>
      </trkpt>
      <trkpt lat="44.40525" lon="5.95378">
        <ele>581</ele>
        <time>2019-03-05T13:37:21Z</time>
      </trkpt>
      <trkpt lat="44.40532" lon="5.95387">
        <ele>581</ele>
        <time>2019-03-05T13:37:22Z</time>
      </trkpt>
      <trkpt lat="44.40538" lon="5.95396">
        <ele>581</ele>
        <time>2019-03-05T13:37:23Z</time>
      </trkpt>
      <trkpt lat="44.40545" lon="5.95404">
        <ele>580</ele>
        <time>2019-03-05T13:37:24Z</time>
      </trkpt>
      <trkpt lat="44.40553" lon="5.95411">
        <ele>580</ele>
        <time>2019-03-05T13:37:25Z</time>
      </trkpt>
      <trkpt lat="44.4056" lon="5.95418">
        <ele>580</ele>
        <time>2019-03-05T13:37:26Z</time>
      </trkpt>
      <trkpt lat="44.40567" lon="5.95425">
        <ele>580</ele>
        <time>2019-03-05T13:37:27Z</time>
      </trkpt>
      <trkpt lat="44.40574" lon="5.95432">
        <ele>580</ele>
        <time>2019-03-05T13:37:28Z</time>
      </trkpt>
      <trkpt lat="44.40581" lon="5.95438">
        <ele>580</ele>
        <time>2019-03-05T13:37:29Z</time>
      </trkpt>
      <trkpt lat="44.40588" lon="5.95444">
        <ele>580</ele>
        <time>2019-03-05T13:37:30Z</time>
      </trkpt>
      <trkpt lat="44.40595" lon="5.9545">
        <ele>580</ele>
        <time>2019-03-05T13:37:31Z</time>
      </trkpt>
      <trkpt lat="44.40602" lon="5.95456">
        <ele>580</ele>
        <time>2019-03-05T13:37:32Z</time>
      </trkpt>
      <trkpt lat="44.40609" lon="5.95461">
        <ele>580</ele>
        <time>2019-03-05T13:37:33Z</time>
      </trkpt>
      <trkpt lat="44.40615" lon="5.95466">
        <ele>580</ele>
        <time>2019-03-05T13:37:34Z</time>
      </trkpt>
      <trkpt lat="44.40622" lon="5.95471">
        <ele>580</ele>
        <time>2019-03-05T13:37:35Z</time>
      </trkpt>
      <trkpt lat="44.40628" lon="5.95474">
        <ele>580</ele>
        <time>2019-03-05T13:37:36Z</time>
      </trkpt>
      <trkpt lat="44.40633" lon="5.95477">
        <ele>580</ele>
        <time>2019-03-05T13:37:37Z</time>
      </trkpt>
      <trkpt lat="44.40638" lon="5.9548">
        <ele>580</ele>
        <time>2019-03-05T13:37:38Z</time>
      </trkpt>
      <trkpt lat="44.40643" lon="5.95482">
        <ele>580</ele>
        <time>2019-03-05T13:37:39Z</time>
      </trkpt>
      <trkpt lat="44.40647" lon="5.95485">
        <ele>579</ele>
        <time>2019-03-05T13:37:40Z</time>
      </trkpt>
      <trkpt lat="44.40651" lon="5.95488">
        <ele>579</ele>
        <time>2019-03-05T13:37:41Z</time>
      </trkpt>
      <trkpt lat="44.40655" lon="5.9549">
        <ele>579</ele>
        <time>2019-03-05T13:37:42Z</time>
      </trkpt>
      <trkpt lat="44.40659" lon="5.95493">
        <ele>579</ele>
        <time>2019-03-05T13:37:43Z</time>
      </trkpt>
      <trkpt lat="44.40663" lon="5.95495">
        <ele>579</ele>
        <time>2019-03-05T13:37:44Z</time>
      </trkpt>
      <trkpt lat="44.40667" lon="5.95498">
        <ele>579</ele>
        <time>2019-03-05T13:37:45Z</time>
      </trkpt>
      <trkpt lat="44.4067" lon="5.95501">
        <ele>579</ele>
        <time>2019-03-05T13:37:46Z</time>
      </trkpt>
      <trkpt lat="44.40675" lon="5.95505">
        <ele>579</ele>
        <time>2019-03-05T13:37:47Z</time>
      </trkpt>
      <trkpt lat="44.40679" lon="5.95508">
        <ele>579</ele>
        <time>2019-03-05T13:37:48Z</time>
      </trkpt>
      <trkpt lat="44.40684" lon="5.95512">
        <ele>579</ele>
        <time>2019-03-05T13:37:49Z</time>
      </trkpt>
      <trkpt lat="44.40689" lon="5.95515">
        <ele>579</ele>
        <time>2019-03-05T13:37:50Z</time>
      </trkpt>
      <trkpt lat="44.40694" lon="5.95518">
        <ele>579</ele>
        <time>2019-03-05T13:37:51Z</time>
      </trkpt>
      <trkpt lat="44.40699" lon="5.95522">
        <ele>579</ele>
        <time>2019-03-05T13:37:52Z</time>
      </trkpt>
      <trkpt lat="44.40704" lon="5.95526">
        <ele>579</ele>
        <time>2019-03-05T13:37:53Z</time>
      </trkpt>
      <trkpt lat="44.40709" lon="5.9553">
        <ele>579</ele>
        <time>2019-03-05T13:37:54Z</time>
      </trkpt>
      <trkpt lat="44.40714" lon="5.95534">
        <ele>579</ele>
        <time>2019-03-05T13:37:55Z</time>
      </trkpt>
      <trkpt lat="44.40718" lon="5.95538">
        <ele>579</ele>
        <time>2019-03-05T13:37:56Z</time>
      </trkpt>
      <trkpt lat="44.40724" lon="5.95541">
        <ele>579</ele>
        <time>2019-03-05T13:37:57Z</time>
      </trkpt>
      <trkpt lat="44.40728" lon="5.95546">
        <ele>579</ele>
        <time>2019-03-05T13:37:58Z</time>
      </trkpt>
      <trkpt lat="44.40733" lon="5.9555">
        <ele>579</ele>
        <time>2019-03-05T13:37:59Z</time>
      </trkpt>
      <trkpt lat="44.40738" lon="5.95553">
        <ele>579</ele>
        <time>2019-03-05T13:38:00Z</time>
      </trkpt>
      <trkpt lat="44.40743" lon="5.95557">
        <ele>579</ele>
        <time>2019-03-05T13:38:01Z</time>
      </trkpt>
      <trkpt lat="44.40748" lon="5.95562">
        <ele>579</ele>
        <time>2019-03-05T13:38:02Z</time>
      </trkpt>
      <trkpt lat="44.40752" lon="5.95566">
        <ele>579</ele>
        <time>2019-03-05T13:38:03Z</time>
      </trkpt>
      <trkpt lat="44.40757" lon="5.9557">
        <ele>579</ele>
        <time>2019-03-05T13:38:04Z</time>
      </trkpt>
      <trkpt lat="44.40762" lon="5.95574">
        <ele>579</ele>
        <time>2019-03-05T13:38:05Z</time>
      </trkpt>
      <trkpt lat="44.40766" lon="5.95578">
        <ele>579</ele>
        <time>2019-03-05T13:38:06Z</time>
      </trkpt>
      <trkpt lat="44.40771" lon="5.95583">
        <ele>579</ele>
        <time>2019-03-05T13:38:07Z</time>
      </trkpt>
      <trkpt lat="44.40776" lon="5.95587">
        <ele>579</ele>
        <time>2019-03-05T13:38:08Z</time>
      </trkpt>
      <trkpt lat="44.4078" lon="5.95592">
        <ele>579</ele>
        <time>2019-03-05T13:38:09Z</time>
      </trkpt>
      <trkpt lat="44.40785" lon="5.95598">
        <ele>579</ele>
        <time>2019-03-05T13:38:10Z</time>
      </trkpt>
      <trkpt lat="44.4079" lon="5.95603">
        <ele>579</ele>
        <time>2019-03-05T13:38:11Z</time>
      </trkpt>
      <trkpt lat="44.40796" lon="5.9561">
        <ele>579</ele>
        <time>2019-03-05T13:38:12Z</time>
      </trkpt>
      <trkpt lat="44.40802" lon="5.95617">
        <ele>578</ele>
        <time>2019-03-05T13:38:13Z</time>
      </trkpt>
      <trkpt lat="44.40808" lon="5.95624">
        <ele>578</ele>
        <time>2019-03-05T13:38:14Z</time>
      </trkpt>
      <trkpt lat="44.40815" lon="5.95632">
        <ele>577</ele>
        <time>2019-03-05T13:38:15Z</time>
      </trkpt>
      <trkpt lat="44.40821" lon="5.95641">
        <ele>577</ele>
        <time>2019-03-05T13:38:16Z</time>
      </trkpt>
      <trkpt lat="44.40828" lon="5.95649">
        <ele>576</ele>
        <time>2019-03-05T13:38:17Z</time>
      </trkpt>
      <trkpt lat="44.40835" lon="5.95657">
        <ele>576</ele>
        <time>2019-03-05T13:38:18Z</time>
      </trkpt>
      <trkpt lat="44.40842" lon="5.95666">
        <ele>576</ele>
        <time>2019-03-05T13:38:19Z</time>
      </trkpt>
      <trkpt lat="44.40849" lon="5.95674">
        <ele>576</ele>
        <time>2019-03-05T13:38:20Z</time>
      </trkpt>
      <trkpt lat="44.40855" lon="5.95682">
        <ele>576</ele>
        <time>2019-03-05T13:38:21Z</time>
      </trkpt>
      <trkpt lat="44.40861" lon="5.9569">
        <ele>576</ele>
        <time>2019-03-05T13:38:22Z</time>
      </trkpt>
      <trkpt lat="44.40867" lon="5.95698">
        <ele>576</ele>
        <time>2019-03-05T13:38:23Z</time>
      </trkpt>
      <trkpt lat="44.40873" lon="5.95705">
        <ele>576</ele>
        <time>2019-03-05T13:38:24Z</time>
      </trkpt>
      <trkpt lat="44.40879" lon="5.95712">
        <ele>576</ele>
        <time>2019-03-05T13:38:25Z</time>
      </trkpt>
      <trkpt lat="44.40884" lon="5.95719">
        <ele>576</ele>
        <time>2019-03-05T13:38:26Z</time>
      </trkpt>
      <trkpt lat="44.40889" lon="5.95726">
        <ele>576</ele>
        <time>2019-03-05T13:38:27Z</time>
      </trkpt>
      <trkpt lat="44.40895" lon="5.95732">
        <ele>576</ele>
        <time>2019-03-05T13:38:28Z</time>
      </trkpt>
      <trkpt lat="44.409" lon="5.95739">
        <ele>576</ele>
        <time>2019-03-05T13:38:29Z</time>
      </trkpt>
      <trkpt lat="44.40905" lon="5.95745">
        <ele>576</ele>
        <time>2019-03-05T13:38:30Z</time>
      </trkpt>
      <trkpt lat="44.4091" lon="5.95751">
        <ele>576</ele>
        <time>2019-03-05T13:38:31Z</time>
      </trkpt>
      <trkpt lat="44.40915" lon="5.95758">
        <ele>576</ele>
        <time>2019-03-05T13:38:32Z</time>
      </trkpt>
      <trkpt lat="44.4092" lon="5.95764">
        <ele>576</ele>
        <time>2019-03-05T13:38:33Z</time>
      </trkpt>
      <trkpt lat="44.40924" lon="5.9577">
        <ele>576</ele>
        <time>2019-03-05T13:38:34Z</time>
      </trkpt>
      <trkpt lat="44.40929" lon="5.95776">
        <ele>576</ele>
        <time>2019-03-05T13:38:35Z</time>
      </trkpt>
      <trkpt lat="44.40934" lon="5.95782">
        <ele>576</ele>
        <time>2019-03-05T13:38:36Z</time>
      </trkpt>
      <trkpt lat="44.40938" lon="5.95788">
        <ele>576</ele>
        <time>2019-03-05T13:38:37Z</time>
      </trkpt>
      <trkpt lat="44.40943" lon="5.95794">
        <ele>576</ele>
        <time>2019-03-05T13:38:38Z</time>
      </trkpt>
      <trkpt lat="44.40947" lon="5.958">
        <ele>576</ele>
        <time>2019-03-05T13:38:39Z</time>
      </trkpt>
      <trkpt lat="44.40952" lon="5.95806">
        <ele>576</ele>
        <time>2019-03-05T13:38:40Z</time>
      </trkpt>
      <trkpt lat="44.40956" lon="5.95812">
        <ele>576</ele>
        <time>2019-03-05T13:38:41Z</time>
      </trkpt>
      <trkpt lat="44.40961" lon="5.95818">
        <ele>576</ele>
        <time>2019-03-05T13:38:42Z</time>
      </trkpt>
      <trkpt lat="44.40966" lon="5.95823">
        <ele>576</ele>
        <time>2019-03-05T13:38:43Z</time>
      </trkpt>
      <trkpt lat="44.4097" lon="5.95829">
        <ele>576</ele>
        <time>2019-03-05T13:38:44Z</time>
      </trkpt>
      <trkpt lat="44.40975" lon="5.95835">
        <ele>576</ele>
        <time>2019-03-05T13:38:45Z</time>
      </trkpt>
      <trkpt lat="44.40979" lon="5.95841">
        <ele>576</ele>
        <time>2019-03-05T13:38:46Z</time>
      </trkpt>
      <trkpt lat="44.40984" lon="5.95847">
        <ele>576</ele>
        <time>2019-03-05T13:38:47Z</time>
      </trkpt>
      <trkpt lat="44.40989" lon="5.95852">
        <ele>576</ele>
        <time>2019-03-05T13:38:48Z</time>
      </trkpt>
      <trkpt lat="44.40993" lon="5.95858">
        <ele>576</ele>
        <time>2019-03-05T13:38:49Z</time>
      </trkpt>
      <trkpt lat="44.40997" lon="5.95863">
        <ele>576</ele>
        <time>2019-03-05T13:38:50Z</time>
      </trkpt>
      <trkpt lat="44.41002" lon="5.95869">
        <ele>576</ele>
        <time>2019-03-05T13:38:51Z</time>
      </trkpt>
      <trkpt lat="44.41006" lon="5.95874">
        <ele>576</ele>
        <time>2019-03-05T13:38:52Z</time>
      </trkpt>
      <trkpt lat="44.4101" lon="5.9588">
        <ele>576</ele>
        <time>2019-03-05T13:38:53Z</time>
      </trkpt>
      <trkpt lat="44.41014" lon="5.95885">
        <ele>576</ele>
        <time>2019-03-05T13:38:54Z</time>
      </trkpt>
      <trkpt lat="44.41019" lon="5.9589">
        <ele>576</ele>
        <time>2019-03-05T13:38:55Z</time>
      </trkpt>
      <trkpt lat="44.41023" lon="5.95896">
        <ele>576</ele>
        <time>2019-03-05T13:38:56Z</time>
      </trkpt>
      <trkpt lat="44.41027" lon="5.95901">
        <ele>576</ele>
        <time>2019-03-05T13:38:57Z</time>
      </trkpt>
      <trkpt lat="44.41032" lon="5.95906">
        <ele>576</ele>
        <time>2019-03-05T13:38:58Z</time>
      </trkpt>
      <trkpt lat="44.41036" lon="5.95912">
        <ele>576</ele>
        <time>2019-03-05T13:38:59Z</time>
      </trkpt>
      <trkpt lat="44.41041" lon="5.95917">
        <ele>576</ele>
        <time>2019-03-05T13:39:00Z</time>
      </trkpt>
      <trkpt lat="44.41045" lon="5.95922">
        <ele>576</ele>
        <time>2019-03-05T13:39:01Z</time>
      </trkpt>
      <trkpt lat="44.4105" lon="5.95927">
        <ele>576</ele>
        <time>2019-03-05T13:39:02Z</time>
      </trkpt>
      <trkpt lat="44.41054" lon="5.95932">
        <ele>576</ele>
        <time>2019-03-05T13:39:03Z</time>
      </trkpt>
      <trkpt lat="44.41059" lon="5.95938">
        <ele>576</ele>
        <time>2019-03-05T13:39:04Z</time>
      </trkpt>
      <trkpt lat="44.41063" lon="5.95943">
        <ele>576</ele>
        <time>2019-03-05T13:39:05Z</time>
      </trkpt>
      <trkpt lat="44.41068" lon="5.95948">
        <ele>576</ele>
        <time>2019-03-05T13:39:06Z</time>
      </trkpt>
      <trkpt lat="44.41072" lon="5.95953">
        <ele>576</ele>
        <time>2019-03-05T13:39:07Z</time>
      </trkpt>
      <trkpt lat="44.41077" lon="5.95959">
        <ele>576</ele>
        <time>2019-03-05T13:39:08Z</time>
      </trkpt>
      <trkpt lat="44.41081" lon="5.95964">
        <ele>576</ele>
        <time>2019-03-05T13:39:09Z</time>
      </trkpt>
      <trkpt lat="44.41085" lon="5.95969">
        <ele>576</ele>
        <time>2019-03-05T13:39:10Z</time>
      </trkpt>
      <trkpt lat="44.4109" lon="5.95975">
        <ele>576</ele>
        <time>2019-03-05T13:39:11Z</time>
      </trkpt>
      <trkpt lat="44.41094" lon="5.9598">
        <ele>576</ele>
        <time>2019-03-05T13:39:12Z</time>
      </trkpt>
      <trkpt lat="44.41098" lon="5.95985">
        <ele>576</ele>
        <time>2019-03-05T13:39:13Z</time>
      </trkpt>
      <trkpt lat="44.41103" lon="5.9599">
        <ele>576</ele>
        <time>2019-03-05T13:39:14Z</time>
      </trkpt>
      <trkpt lat="44.41107" lon="5.95996">
        <ele>576</ele>
        <time>2019-03-05T13:39:15Z</time>
      </trkpt>
      <trkpt lat="44.41111" lon="5.96001">
        <ele>576</ele>
        <time>2019-03-05T13:39:16Z</time>
      </trkpt>
      <trkpt lat="44.41116" lon="5.96006">
        <ele>576</ele>
        <time>2019-03-05T13:39:17Z</time>
      </trkpt>
      <trkpt lat="44.4112" lon="5.96012">
        <ele>576</ele>
        <time>2019-03-05T13:39:18Z</time>
      </trkpt>
      <trkpt lat="44.41124" lon="5.96017">
        <ele>576</ele>
        <time>2019-03-05T13:39:19Z</time>
      </trkpt>
      <trkpt lat="44.41128" lon="5.96023">
        <ele>576</ele>
        <time>2019-03-05T13:39:20Z</time>
      </trkpt>
      <trkpt lat="44.41132" lon="5.96029">
        <ele>576</ele>
        <time>2019-03-05T13:39:21Z</time>
      </trkpt>
      <trkpt lat="44.41136" lon="5.96034">
        <ele>576</ele>
        <time>2019-03-05T13:39:22Z</time>
      </trkpt>
      <trkpt lat="44.4114" lon="5.9604">
        <ele>576</ele>
        <time>2019-03-05T13:39:23Z</time>
      </trkpt>
      <trkpt lat="44.41144" lon="5.96045">
        <ele>576</ele>
        <time>2019-03-05T13:39:24Z</time>
      </trkpt>
      <trkpt lat="44.41148" lon="5.96052">
        <ele>576</ele>
        <time>2019-03-05T13:39:25Z</time>
      </trkpt>
      <trkpt lat="44.41151" lon="5.96057">
        <ele>576</ele>
        <time>2019-03-05T13:39:26Z</time>
      </trkpt>
      <trkpt lat="44.41155" lon="5.96063">
        <ele>576</ele>
        <time>2019-03-05T13:39:27Z</time>
      </trkpt>
      <trkpt lat="44.41158" lon="5.96069">
        <ele>576</ele>
        <time>2019-03-05T13:39:28Z</time>
      </trkpt>
      <trkpt lat="44.41161" lon="5.96076">
        <ele>576</ele>
        <time>2019-03-05T13:39:29Z</time>
      </trkpt>
      <trkpt lat="44.41165" lon="5.96082">
        <ele>576</ele>
        <time>2019-03-05T13:39:30Z</time>
      </trkpt>
      <trkpt lat="44.41168" lon="5.96088">
        <ele>576</ele>
        <time>2019-03-05T13:39:31Z</time>
      </trkpt>
      <trkpt lat="44.41171" lon="5.96095">
        <ele>576</ele>
        <time>2019-03-05T13:39:32Z</time>
      </trkpt>
      <trkpt lat="44.41174" lon="5.96102">
        <ele>576</ele>
        <time>2019-03-05T13:39:33Z</time>
      </trkpt>
      <trkpt lat="44.41177" lon="5.96108">
        <ele>576</ele>
        <time>2019-03-05T13:39:34Z</time>
      </trkpt>
      <trkpt lat="44.4118" lon="5.96115">
        <ele>576</ele>
        <time>2019-03-05T13:39:35Z</time>
      </trkpt>
      <trkpt lat="44.41183" lon="5.96123">
        <ele>576</ele>
        <time>2019-03-05T13:39:36Z</time>
      </trkpt>
      <trkpt lat="44.41186" lon="5.9613">
        <ele>576</ele>
        <time>2019-03-05T13:39:37Z</time>
      </trkpt>
      <trkpt lat="44.41189" lon="5.96138">
        <ele>576</ele>
        <time>2019-03-05T13:39:38Z</time>
      </trkpt>
      <trkpt lat="44.41192" lon="5.96145">
        <ele>576</ele>
        <time>2019-03-05T13:39:39Z</time>
      </trkpt>
      <trkpt lat="44.41195" lon="5.96152">
        <ele>576</ele>
        <time>2019-03-05T13:39:40Z</time>
      </trkpt>
      <trkpt lat="44.41198" lon="5.9616">
        <ele>576</ele>
        <time>2019-03-05T13:39:41Z</time>
      </trkpt>
      <trkpt lat="44.41201" lon="5.96168">
        <ele>576</ele>
        <time>2019-03-05T13:39:42Z</time>
      </trkpt>
      <trkpt lat="44.41204" lon="5.96175">
        <ele>576</ele>
        <time>2019-03-05T13:39:43Z</time>
      </trkpt>
      <trkpt lat="44.41207" lon="5.96183">
        <ele>576</ele>
        <time>2019-03-05T13:39:44Z</time>
      </trkpt>
      <trkpt lat="44.41211" lon="5.96191">
        <ele>576</ele>
        <time>2019-03-05T13:39:45Z</time>
      </trkpt>
      <trkpt lat="44.41213" lon="5.96198">
        <ele>576</ele>
        <time>2019-03-05T13:39:46Z</time>
      </trkpt>
      <trkpt lat="44.41216" lon="5.96206">
        <ele>576</ele>
        <time>2019-03-05T13:39:47Z</time>
      </trkpt>
      <trkpt lat="44.41219" lon="5.96214">
        <ele>576</ele>
        <time>2019-03-05T13:39:48Z</time>
      </trkpt>
      <trkpt lat="44.41222" lon="5.96221">
        <ele>576</ele>
        <time>2019-03-05T13:39:49Z</time>
      </trkpt>
      <trkpt lat="44.41225" lon="5.96229">
        <ele>576</ele>
        <time>2019-03-05T13:39:50Z</time>
      </trkpt>
      <trkpt lat="44.41228" lon="5.96237">
        <ele>576</ele>
        <time>2019-03-05T13:39:51Z</time>
      </trkpt>
      <trkpt lat="44.41232" lon="5.96245">
        <ele>576</ele>
        <time>2019-03-05T13:39:52Z</time>
      </trkpt>
      <trkpt lat="44.41235" lon="5.96253">
        <ele>576</ele>
        <time>2019-03-05T13:39:53Z</time>
      </trkpt>
      <trkpt lat="44.41238" lon="5.9626">
        <ele>576</ele>
        <time>2019-03-05T13:39:54Z</time>
      </trkpt>
      <trkpt lat="44.41242" lon="5.96266">
        <ele>576</ele>
        <time>2019-03-05T13:39:55Z</time>
      </trkpt>
      <trkpt lat="44.41246" lon="5.9627">
        <ele>576</ele>
        <time>2019-03-05T13:39:56Z</time>
      </trkpt>
      <trkpt lat="44.41251" lon="5.96269">
        <ele>576</ele>
        <time>2019-03-05T13:39:57Z</time>
      </trkpt>
      <trkpt lat="44.41256" lon="5.96266">
        <ele>576</ele>
        <time>2019-03-05T13:39:58Z</time>
      </trkpt>
      <trkpt lat="44.41258" lon="5.96261">
        <ele>576</ele>
        <time>2019-03-05T13:39:59Z</time>
      </trkpt>
      <trkpt lat="44.4126" lon="5.96254">
        <ele>576</ele>
        <time>2019-03-05T13:40:00Z</time>
      </trkpt>
      <trkpt lat="44.41261" lon="5.96248">
        <ele>576</ele>
        <time>2019-03-05T13:40:01Z</time>
      </trkpt>
      <trkpt lat="44.41261" lon="5.96241">
        <ele>576</ele>
        <time>2019-03-05T13:40:02Z</time>
      </trkpt>
      <trkpt lat="44.41262" lon="5.96234">
        <ele>576</ele>
        <time>2019-03-05T13:40:03Z</time>
      </trkpt>
      <trkpt lat="44.41263" lon="5.96228">
        <ele>576</ele>
        <time>2019-03-05T13:40:04Z</time>
      </trkpt>
      <trkpt lat="44.41264" lon="5.96221">
        <ele>576</ele>
        <time>2019-03-05T13:40:05Z</time>
      </trkpt>
      <trkpt lat="44.41265" lon="5.96215">
        <ele>576</ele>
        <time>2019-03-05T13:40:06Z</time>
      </trkpt>
      <trkpt lat="44.41267" lon="5.96209">
        <ele>576</ele>
        <time>2019-03-05T13:40:07Z</time>
      </trkpt>
      <trkpt lat="44.41268" lon="5.96203">
        <ele>576</ele>
        <time>2019-03-05T13:40:08Z</time>
      </trkpt>
      <trkpt lat="44.41269" lon="5.96197">
        <ele>576</ele>
        <time>2019-03-05T13:40:09Z</time>
      </trkpt>
      <trkpt lat="44.4127" lon="5.96191">
        <ele>576</ele>
        <time>2019-03-05T13:40:10Z</time>
      </trkpt>
      <trkpt lat="44.41271" lon="5.96184">
        <ele>576</ele>
        <time>2019-03-05T13:40:11Z</time>
      </trkpt>
      <trkpt lat="44.41272" lon="5.96178">
        <ele>576</ele>
        <time>2019-03-05T13:40:12Z</time>
      </trkpt>
      <trkpt lat="44.41273" lon="5.96172">
        <ele>576</ele>
        <time>2019-03-05T13:40:13Z</time>
      </trkpt>
      <trkpt lat="44.41274" lon="5.96166">
        <ele>576</ele>
        <time>2019-03-05T13:40:14Z</time>
      </trkpt>
      <trkpt lat="44.41275" lon="5.9616">
        <ele>576</ele>
        <time>2019-03-05T13:40:15Z</time>
      </trkpt>
      <trkpt lat="44.41276" lon="5.96154">
        <ele>576</ele>
        <time>2019-03-05T13:40:16Z</time>
      </trkpt>
      <trkpt lat="44.41277" lon="5.96148">
        <ele>576</ele>
        <time>2019-03-05T13:40:17Z</time>
      </trkpt>
      <trkpt lat="44.41278" lon="5.96143">
        <ele>576</ele>
        <time>2019-03-05T13:40:18Z</time>
      </trkpt>
      <trkpt lat="44.4128" lon="5.96138">
        <ele>576</ele>
        <time>2019-03-05T13:40:19Z</time>
      </trkpt>
      <trkpt lat="44.41282" lon="5.96134">
        <ele>576</ele>
        <time>2019-03-05T13:40:20Z</time>
      </trkpt>
      <trkpt lat="44.41283" lon="5.9613">
        <ele>577</ele>
        <time>2019-03-05T13:40:21Z</time>
      </trkpt>
      <trkpt lat="44.41285" lon="5.96126">
        <ele>577</ele>
        <time>2019-03-05T13:40:22Z</time>
      </trkpt>
      <trkpt lat="44.41286" lon="5.96121">
        <ele>577</ele>
        <time>2019-03-05T13:40:23Z</time>
      </trkpt>
      <trkpt lat="44.41286" lon="5.96115">
        <ele>577</ele>
        <time>2019-03-05T13:40:24Z</time>
      </trkpt>
      <trkpt lat="44.41286" lon="5.96109">
        <ele>578</ele>
        <time>2019-03-05T13:40:25Z</time>
      </trkpt>
      <trkpt lat="44.41286" lon="5.96103">
        <ele>578</ele>
        <time>2019-03-05T13:40:26Z</time>
      </trkpt>
      <trkpt lat="44.41285" lon="5.96096">
        <ele>578</ele>
        <time>2019-03-05T13:40:27Z</time>
      </trkpt>
      <trkpt lat="44.41284" lon="5.9609">
        <ele>578</ele>
        <time>2019-03-05T13:40:28Z</time>
      </trkpt>
      <trkpt lat="44.41284" lon="5.96083">
        <ele>578</ele>
        <time>2019-03-05T13:40:29Z</time>
      </trkpt>
      <trkpt lat="44.41283" lon="5.96076">
        <ele>578</ele>
        <time>2019-03-05T13:40:30Z</time>
      </trkpt>
      <trkpt lat="44.41283" lon="5.96069">
        <ele>578</ele>
        <time>2019-03-05T13:40:31Z</time>
      </trkpt>
      <trkpt lat="44.41282" lon="5.96063">
        <ele>578</ele>
        <time>2019-03-05T13:40:32Z</time>
      </trkpt>
      <trkpt lat="44.41281" lon="5.96055">
        <ele>578</ele>
        <time>2019-03-05T13:40:33Z</time>
      </trkpt>
      <trkpt lat="44.4128" lon="5.96047">
        <ele>578</ele>
        <time>2019-03-05T13:40:34Z</time>
      </trkpt>
      <trkpt lat="44.4128" lon="5.9604">
        <ele>578</ele>
        <time>2019-03-05T13:40:35Z</time>
      </trkpt>
      <trkpt lat="44.41279" lon="5.96032">
        <ele>578</ele>
        <time>2019-03-05T13:40:36Z</time>
      </trkpt>
      <trkpt lat="44.41278" lon="5.96025">
        <ele>579</ele>
        <time>2019-03-05T13:40:37Z</time>
      </trkpt>
      <trkpt lat="44.41278" lon="5.96018">
        <ele>579</ele>
        <time>2019-03-05T13:40:38Z</time>
      </trkpt>
      <trkpt lat="44.41278" lon="5.9601">
        <ele>579</ele>
        <time>2019-03-05T13:40:39Z</time>
      </trkpt>
      <trkpt lat="44.41279" lon="5.96003">
        <ele>580</ele>
        <time>2019-03-05T13:40:40Z</time>
      </trkpt>
      <trkpt lat="44.41279" lon="5.95997">
        <ele>580</ele>
        <time>2019-03-05T13:40:41Z</time>
      </trkpt>
      <trkpt lat="44.41279" lon="5.9599">
        <ele>580</ele>
        <time>2019-03-05T13:40:42Z</time>
      </trkpt>
      <trkpt lat="44.41279" lon="5.95983">
        <ele>580</ele>
        <time>2019-03-05T13:40:43Z</time>
      </trkpt>
      <trkpt lat="44.41278" lon="5.95976">
        <ele>580</ele>
        <time>2019-03-05T13:40:44Z</time>
      </trkpt>
      <trkpt lat="44.41278" lon="5.95969">
        <ele>581</ele>
        <time>2019-03-05T13:40:45Z</time>
      </trkpt>
      <trkpt lat="44.41278" lon="5.95962">
        <ele>581</ele>
        <time>2019-03-05T13:40:46Z</time>
      </trkpt>
      <trkpt lat="44.41278" lon="5.95956">
        <ele>582</ele>
        <time>2019-03-05T13:40:47Z</time>
      </trkpt>
      <trkpt lat="44.41278" lon="5.95948">
        <ele>582</ele>
        <time>2019-03-05T13:40:48Z</time>
      </trkpt>
      <trkpt lat="44.41278" lon="5.95941">
        <ele>582</ele>
        <time>2019-03-05T13:40:49Z</time>
      </trkpt>
      <trkpt lat="44.41277" lon="5.95934">
        <ele>583</ele>
        <time>2019-03-05T13:40:50Z</time>
      </trkpt>
      <trkpt lat="44.41277" lon="5.95927">
        <ele>583</ele>
        <time>2019-03-05T13:40:51Z</time>
      </trkpt>
      <trkpt lat="44.41277" lon="5.9592">
        <ele>583</ele>
        <time>2019-03-05T13:40:52Z</time>
      </trkpt>
      <trkpt lat="44.41277" lon="5.95913">
        <ele>584</ele>
        <time>2019-03-05T13:40:53Z</time>
      </trkpt>
      <trkpt lat="44.41277" lon="5.95905">
        <ele>584</ele>
        <time>2019-03-05T13:40:54Z</time>
      </trkpt>
      <trkpt lat="44.41277" lon="5.95898">
        <ele>585</ele>
        <time>2019-03-05T13:40:55Z</time>
      </trkpt>
      <trkpt lat="44.41277" lon="5.95892">
        <ele>585</ele>
        <time>2019-03-05T13:40:56Z</time>
      </trkpt>
      <trkpt lat="44.41277" lon="5.95885">
        <ele>586</ele>
        <time>2019-03-05T13:40:57Z</time>
      </trkpt>
      <trkpt lat="44.41277" lon="5.95878">
        <ele>586</ele>
        <time>2019-03-05T13:40:58Z</time>
      </trkpt>
      <trkpt lat="44.41277" lon="5.95872">
        <ele>586</ele>
        <time>2019-03-05T13:40:59Z</time>
      </trkpt>
      <trkpt lat="44.41277" lon="5.95865">
        <ele>587</ele>
        <time>2019-03-05T13:41:00Z</time>
      </trkpt>
      <trkpt lat="44.41276" lon="5.95858">
        <ele>587</ele>
        <time>2019-03-05T13:41:01Z</time>
      </trkpt>
      <trkpt lat="44.41276" lon="5.95851">
        <ele>587</ele>
        <time>2019-03-05T13:41:02Z</time>
      </trkpt>
      <trkpt lat="44.41276" lon="5.95844">
        <ele>588</ele>
        <time>2019-03-05T13:41:03Z</time>
      </trkpt>
      <trkpt lat="44.41276" lon="5.95837">
        <ele>588</ele>
        <time>2019-03-05T13:41:04Z</time>
      </trkpt>
      <trkpt lat="44.41276" lon="5.9583">
        <ele>589</ele>
        <time>2019-03-05T13:41:05Z</time>
      </trkpt>
      <trkpt lat="44.41275" lon="5.95824">
        <ele>590</ele>
        <time>2019-03-05T13:41:06Z</time>
      </trkpt>
      <trkpt lat="44.41276" lon="5.95818">
        <ele>590</ele>
        <time>2019-03-05T13:41:07Z</time>
      </trkpt>
      <trkpt lat="44.41276" lon="5.95812">
        <ele>591</ele>
        <time>2019-03-05T13:41:08Z</time>
      </trkpt>
      <trkpt lat="44.41276" lon="5.95806">
        <ele>592</ele>
        <time>2019-03-05T13:41:09Z</time>
      </trkpt>
      <trkpt lat="44.41275" lon="5.958">
        <ele>592</ele>
        <time>2019-03-05T13:41:10Z</time>
      </trkpt>
      <trkpt lat="44.41276" lon="5.95793">
        <ele>593</ele>
        <time>2019-03-05T13:41:11Z</time>
      </trkpt>
      <trkpt lat="44.41276" lon="5.95787">
        <ele>594</ele>
        <time>2019-03-05T13:41:12Z</time>
      </trkpt>
      <trkpt lat="44.41276" lon="5.9578">
        <ele>595</ele>
        <time>2019-03-05T13:41:13Z</time>
      </trkpt>
      <trkpt lat="44.41276" lon="5.95774">
        <ele>596</ele>
        <time>2019-03-05T13:41:14Z</time>
      </trkpt>
      <trkpt lat="44.41276" lon="5.95767">
        <ele>597</ele>
        <time>2019-03-05T13:41:15Z</time>
      </trkpt>
      <trkpt lat="44.41277" lon="5.95761">
        <ele>598</ele>
        <time>2019-03-05T13:41:16Z</time>
      </trkpt>
      <trkpt lat="44.41277" lon="5.95756">
        <ele>598</ele>
        <time>2019-03-05T13:41:17Z</time>
      </trkpt>
      <trkpt lat="44.41278" lon="5.9575">
        <ele>599</ele>
        <time>2019-03-05T13:41:18Z</time>
      </trkpt>
      <trkpt lat="44.41278" lon="5.95745">
        <ele>599</ele>
        <time>2019-03-05T13:41:19Z</time>
      </trkpt>
      <trkpt lat="44.41278" lon="5.9574">
        <ele>600</ele>
        <time>2019-03-05T13:41:20Z</time>
      </trkpt>
      <trkpt lat="44.41279" lon="5.95734">
        <ele>600</ele>
        <time>2019-03-05T13:41:21Z</time>
      </trkpt>
      <trkpt lat="44.41279" lon="5.95729">
        <ele>600</ele>
        <time>2019-03-05T13:41:22Z</time>
      </trkpt>
      <trkpt lat="44.4128" lon="5.95725">
        <ele>600</ele>
        <time>2019-03-05T13:41:23Z</time>
      </trkpt>
      <trkpt lat="44.4128" lon="5.9572">
        <ele>600</ele>
        <time>2019-03-05T13:41:24Z</time>
      </trkpt>
      <trkpt lat="44.4128" lon="5.95715">
        <ele>600</ele>
        <time>2019-03-05T13:41:25Z</time>
      </trkpt>
      <trkpt lat="44.41281" lon="5.9571">
        <ele>600</ele>
        <time>2019-03-05T13:41:26Z</time>
      </trkpt>
      <trkpt lat="44.41281" lon="5.95705">
        <ele>600</ele>
        <time>2019-03-05T13:41:27Z</time>
      </trkpt>
      <trkpt lat="44.41281" lon="5.957">
        <ele>600</ele>
        <time>2019-03-05T13:41:28Z</time>
      </trkpt>
      <trkpt lat="44.41282" lon="5.95694">
        <ele>600</ele>
        <time>2019-03-05T13:41:29Z</time>
      </trkpt>
      <trkpt lat="44.41282" lon="5.95689">
        <ele>600</ele>
        <time>2019-03-05T13:41:30Z</time>
      </trkpt>
      <trkpt lat="44.41282" lon="5.95684">
        <ele>600</ele>
        <time>2019-03-05T13:41:31Z</time>
      </trkpt>
      <trkpt lat="44.41283" lon="5.95679">
        <ele>600</ele>
        <time>2019-03-05T13:41:32Z</time>
      </trkpt>
      <trkpt lat="44.41283" lon="5.95674">
        <ele>600</ele>
        <time>2019-03-05T13:41:33Z</time>
      </trkpt>
      <trkpt lat="44.41284" lon="5.95669">
        <ele>600</ele>
        <time>2019-03-05T13:41:34Z</time>
      </trkpt>
      <trkpt lat="44.41284" lon="5.95664">
        <ele>600</ele>
        <time>2019-03-05T13:41:35Z</time>
      </trkpt>
      <trkpt lat="44.41285" lon="5.95658">
        <ele>600</ele>
        <time>2019-03-05T13:41:36Z</time>
      </trkpt>
      <trkpt lat="44.41286" lon="5.95654">
        <ele>600</ele>
        <time>2019-03-05T13:41:37Z</time>
      </trkpt>
      <trkpt lat="44.41287" lon="5.9565">
        <ele>600</ele>
        <time>2019-03-05T13:41:38Z</time>
      </trkpt>
      <trkpt lat="44.41287" lon="5.95645">
        <ele>600</ele>
        <time>2019-03-05T13:41:39Z</time>
      </trkpt>
      <trkpt lat="44.41288" lon="5.9564">
        <ele>600</ele>
        <time>2019-03-05T13:41:40Z</time>
      </trkpt>
      <trkpt lat="44.41288" lon="5.95634">
        <ele>600</ele>
        <time>2019-03-05T13:41:41Z</time>
      </trkpt>
      <trkpt lat="44.41288" lon="5.95629">
        <ele>600</ele>
        <time>2019-03-05T13:41:42Z</time>
      </trkpt>
      <trkpt lat="44.41289" lon="5.95625">
        <ele>601</ele>
        <time>2019-03-05T13:41:43Z</time>
      </trkpt>
      <trkpt lat="44.41289" lon="5.9562">
        <ele>601</ele>
        <time>2019-03-05T13:41:44Z</time>
      </trkpt>
      <trkpt lat="44.4129" lon="5.95616">
        <ele>601</ele>
        <time>2019-03-05T13:41:45Z</time>
      </trkpt>
      <trkpt lat="44.41289" lon="5.9561">
        <ele>601</ele>
        <time>2019-03-05T13:41:46Z</time>
      </trkpt>
      <trkpt lat="44.41289" lon="5.95604">
        <ele>601</ele>
        <time>2019-03-05T13:41:47Z</time>
      </trkpt>
      <trkpt lat="44.41289" lon="5.95598">
        <ele>601</ele>
        <time>2019-03-05T13:41:48Z</time>
      </trkpt>
      <trkpt lat="44.41289" lon="5.95592">
        <ele>601</ele>
        <time>2019-03-05T13:41:49Z</time>
      </trkpt>
      <trkpt lat="44.41288" lon="5.95586">
        <ele>601</ele>
        <time>2019-03-05T13:41:50Z</time>
      </trkpt>
      <trkpt lat="44.41287" lon="5.95581">
        <ele>601</ele>
        <time>2019-03-05T13:41:51Z</time>
      </trkpt>
      <trkpt lat="44.41285" lon="5.95577">
        <ele>601</ele>
        <time>2019-03-05T13:41:52Z</time>
      </trkpt>
      <trkpt lat="44.41284" lon="5.95572">
        <ele>601</ele>
        <time>2019-03-05T13:41:53Z</time>
      </trkpt>
      <trkpt lat="44.41283" lon="5.95568">
        <ele>601</ele>
        <time>2019-03-05T13:41:54Z</time>
      </trkpt>
      <trkpt lat="44.41283" lon="5.95564">
        <ele>601</ele>
        <time>2019-03-05T13:41:55Z</time>
      </trkpt>
      <trkpt lat="44.41283" lon="5.9556">
        <ele>601</ele>
        <time>2019-03-05T13:41:56Z</time>
      </trkpt>
      <trkpt lat="44.41282" lon="5.95556">
        <ele>601</ele>
        <time>2019-03-05T13:41:57Z</time>
      </trkpt>
      <trkpt lat="44.41282" lon="5.95552">
        <ele>601</ele>
        <time>2019-03-05T13:41:58Z</time>
      </trkpt>
      <trkpt lat="44.41282" lon="5.95548">
        <ele>601</ele>
        <time>2019-03-05T13:41:59Z</time>
      </trkpt>
      <trkpt lat="44.41282" lon="5.95544">
        <ele>601</ele>
        <time>2019-03-05T13:42:00Z</time>
      </trkpt>
      <trkpt lat="44.41283" lon="5.9554">
        <ele>601</ele>
        <time>2019-03-05T13:42:01Z</time>
      </trkpt>
      <trkpt lat="44.41283" lon="5.95536">
        <ele>601</ele>
        <time>2019-03-05T13:42:02Z</time>
      </trkpt>
      <trkpt lat="44.41283" lon="5.95533">
        <ele>601</ele>
        <time>2019-03-05T13:42:03Z</time>
      </trkpt>
      <trkpt lat="44.41284" lon="5.9553">
        <ele>601</ele>
        <time>2019-03-05T13:42:04Z</time>
      </trkpt>
      <trkpt lat="44.41285" lon="5.95528">
        <ele>601</ele>
        <time>2019-03-05T13:42:05Z</time>
      </trkpt>
      <trkpt lat="44.41288" lon="5.95528">
        <ele>601</ele>
        <time>2019-03-05T13:42:06Z</time>
      </trkpt>
      <trkpt lat="44.4129" lon="5.95528">
        <ele>601</ele>
        <time>2019-03-05T13:42:07Z</time>
      </trkpt>
      <trkpt lat="44.41292" lon="5.95528">
        <ele>601</ele>
        <time>2019-03-05T13:42:08Z</time>
      </trkpt>
      <trkpt lat="44.41295" lon="5.95529">
        <ele>601</ele>
        <time>2019-03-05T13:42:09Z</time>
      </trkpt>
      <trkpt lat="44.41299" lon="5.9553">
        <ele>601</ele>
        <time>2019-03-05T13:42:10Z</time>
      </trkpt>
      <trkpt lat="44.41304" lon="5.9553">
        <ele>601</ele>
        <time>2019-03-05T13:42:11Z</time>
      </trkpt>
      <trkpt lat="44.41309" lon="5.95532">
        <ele>601</ele>
        <time>2019-03-05T13:42:12Z</time>
      </trkpt>
      <trkpt lat="44.41314" lon="5.95533">
        <ele>601</ele>
        <time>2019-03-05T13:42:13Z</time>
      </trkpt>
      <trkpt lat="44.4132" lon="5.95535">
        <ele>601</ele>
        <time>2019-03-05T13:42:14Z</time>
      </trkpt>
      <trkpt lat="44.41327" lon="5.95537">
        <ele>601</ele>
        <time>2019-03-05T13:42:15Z</time>
      </trkpt>
      <trkpt lat="44.41333" lon="5.95538">
        <ele>601</ele>
        <time>2019-03-05T13:42:16Z</time>
      </trkpt>
      <trkpt lat="44.4134" lon="5.9554">
        <ele>601</ele>
        <time>2019-03-05T13:42:17Z</time>
      </trkpt>
      <trkpt lat="44.41346" lon="5.95541">
        <ele>601</ele>
        <time>2019-03-05T13:42:18Z</time>
      </trkpt>
      <trkpt lat="44.41353" lon="5.95542">
        <ele>601</ele>
        <time>2019-03-05T13:42:19Z</time>
      </trkpt>
      <trkpt lat="44.41359" lon="5.95544">
        <ele>601</ele>
        <time>2019-03-05T13:42:20Z</time>
      </trkpt>
      <trkpt lat="44.41365" lon="5.95545">
        <ele>601</ele>
        <time>2019-03-05T13:42:21Z</time>
      </trkpt>
      <trkpt lat="44.41372" lon="5.95545">
        <ele>601</ele>
        <time>2019-03-05T13:42:22Z</time>
      </trkpt>
      <trkpt lat="44.41377" lon="5.95547">
        <ele>601</ele>
        <time>2019-03-05T13:42:23Z</time>
      </trkpt>
      <trkpt lat="44.41383" lon="5.95551">
        <ele>601</ele>
        <time>2019-03-05T13:42:24Z</time>
      </trkpt>
      <trkpt lat="44.41388" lon="5.95556">
        <ele>601</ele>
        <time>2019-03-05T13:42:25Z</time>
      </trkpt>
      <trkpt lat="44.41391" lon="5.95562">
        <ele>601</ele>
        <time>2019-03-05T13:42:26Z</time>
      </trkpt>
      <trkpt lat="44.41393" lon="5.95568">
        <ele>601</ele>
        <time>2019-03-05T13:42:27Z</time>
      </trkpt>
      <trkpt lat="44.41395" lon="5.95575">
        <ele>600</ele>
        <time>2019-03-05T13:42:28Z</time>
      </trkpt>
      <trkpt lat="44.41397" lon="5.95581">
        <ele>600</ele>
        <time>2019-03-05T13:42:29Z</time>
      </trkpt>
      <trkpt lat="44.414" lon="5.95587">
        <ele>600</ele>
        <time>2019-03-05T13:42:30Z</time>
      </trkpt>
      <trkpt lat="44.41403" lon="5.95594">
        <ele>600</ele>
        <time>2019-03-05T13:42:31Z</time>
      </trkpt>
      <trkpt lat="44.41405" lon="5.956">
        <ele>600</ele>
        <time>2019-03-05T13:42:32Z</time>
      </trkpt>
      <trkpt lat="44.41408" lon="5.95605">
        <ele>600</ele>
        <time>2019-03-05T13:42:33Z</time>
      </trkpt>
      <trkpt lat="44.41411" lon="5.9561">
        <ele>600</ele>
        <time>2019-03-05T13:42:34Z</time>
      </trkpt>
      <trkpt lat="44.41415" lon="5.95615">
        <ele>600</ele>
        <time>2019-03-05T13:42:35Z</time>
      </trkpt>
      <trkpt lat="44.41418" lon="5.95619">
        <ele>600</ele>
        <time>2019-03-05T13:42:36Z</time>
      </trkpt>
      <trkpt lat="44.41422" lon="5.95624">
        <ele>600</ele>
        <time>2019-03-05T13:42:37Z</time>
      </trkpt>
      <trkpt lat="44.41426" lon="5.95628">
        <ele>600</ele>
        <time>2019-03-05T13:42:38Z</time>
      </trkpt>
      <trkpt lat="44.4143" lon="5.95633">
        <ele>600</ele>
        <time>2019-03-05T13:42:39Z</time>
      </trkpt>
      <trkpt lat="44.41434" lon="5.95638">
        <ele>600</ele>
        <time>2019-03-05T13:42:40Z</time>
      </trkpt>
      <trkpt lat="44.41438" lon="5.95642">
        <ele>600</ele>
        <time>2019-03-05T13:42:41Z</time>
      </trkpt>
      <trkpt lat="44.41442" lon="5.95647">
        <ele>600</ele>
        <time>2019-03-05T13:42:42Z</time>
      </trkpt>
      <trkpt lat="44.41446" lon="5.9565">
        <ele>600</ele>
        <time>2019-03-05T13:42:43Z</time>
      </trkpt>
      <trkpt lat="44.4145" lon="5.95654">
        <ele>600</ele>
        <time>2019-03-05T13:42:44Z</time>
      </trkpt>
      <trkpt lat="44.41454" lon="5.95656">
        <ele>600</ele>
        <time>2019-03-05T13:42:45Z</time>
      </trkpt>
      <trkpt lat="44.41458" lon="5.95657">
        <ele>600</ele>
        <time>2019-03-05T13:42:46Z</time>
      </trkpt>
      <trkpt lat="44.41462" lon="5.95658">
        <ele>600</ele>
        <time>2019-03-05T13:42:47Z</time>
      </trkpt>
      <trkpt lat="44.41466" lon="5.95659">
        <ele>600</ele>
        <time>2019-03-05T13:42:48Z</time>
      </trkpt>
      <trkpt lat="44.4147" lon="5.95659">
        <ele>600</ele>
        <time>2019-03-05T13:42:49Z</time>
      </trkpt>
      <trkpt lat="44.41474" lon="5.95659">
        <ele>600</ele>
        <time>2019-03-05T13:42:50Z</time>
      </trkpt>
      <trkpt lat="44.41478" lon="5.95659">
        <ele>600</ele>
        <time>2019-03-05T13:42:51Z</time>
      </trkpt>
      <trkpt lat="44.41482" lon="5.95658">
        <ele>600</ele>
        <time>2019-03-05T13:42:52Z</time>
      </trkpt>
      <trkpt lat="44.41486" lon="5.95657">
        <ele>600</ele>
        <time>2019-03-05T13:42:53Z</time>
      </trkpt>
      <trkpt lat="44.4149" lon="5.95657">
        <ele>600</ele>
        <time>2019-03-05T13:42:54Z</time>
      </trkpt>
      <trkpt lat="44.41494" lon="5.95657">
        <ele>600</ele>
        <time>2019-03-05T13:42:55Z</time>
      </trkpt>
      <trkpt lat="44.41497" lon="5.95656">
        <ele>601</ele>
        <time>2019-03-05T13:42:56Z</time>
      </trkpt>
      <trkpt lat="44.41501" lon="5.95656">
        <ele>601</ele>
        <time>2019-03-05T13:42:57Z</time>
      </trkpt>
      <trkpt lat="44.41505" lon="5.95655">
        <ele>602</ele>
        <time>2019-03-05T13:42:58Z</time>
      </trkpt>
      <trkpt lat="44.41508" lon="5.95655">
        <ele>602</ele>
        <time>2019-03-05T13:42:59Z</time>
      </trkpt>
      <trkpt lat="44.41512" lon="5.95655">
        <ele>603</ele>
        <time>2019-03-05T13:43:00Z</time>
      </trkpt>
      <trkpt lat="44.41515" lon="5.95655">
        <ele>603</ele>
        <time>2019-03-05T13:43:01Z</time>
      </trkpt>
      <trkpt lat="44.41519" lon="5.95655">
        <ele>604</ele>
        <time>2019-03-05T13:43:02Z</time>
      </trkpt>
      <trkpt lat="44.41523" lon="5.95655">
        <ele>604</ele>
        <time>2019-03-05T13:43:03Z</time>
      </trkpt>
      <trkpt lat="44.41526" lon="5.95655">
        <ele>605</ele>
        <time>2019-03-05T13:43:04Z</time>
      </trkpt>
      <trkpt lat="44.4153" lon="5.95655">
        <ele>605</ele>
        <time>2019-03-05T13:43:05Z</time>
      </trkpt>
      <trkpt lat="44.41533" lon="5.95655">
        <ele>606</ele>
        <time>2019-03-05T13:43:06Z</time>
      </trkpt>
      <trkpt lat="44.41537" lon="5.95655">
        <ele>606</ele>
        <time>2019-03-05T13:43:07Z</time>
      </trkpt>
      <trkpt lat="44.41541" lon="5.95655">
        <ele>607</ele>
        <time>2019-03-05T13:43:08Z</time>
      </trkpt>
      <trkpt lat="44.41544" lon="5.95654">
        <ele>607</ele>
        <time>2019-03-05T13:43:09Z</time>
      </trkpt>
      <trkpt lat="44.41547" lon="5.95654">
        <ele>607</ele>
        <time>2019-03-05T13:43:10Z</time>
      </trkpt>
      <trkpt lat="44.41551" lon="5.95654">
        <ele>608</ele>
        <time>2019-03-05T13:43:11Z</time>
      </trkpt>
      <trkpt lat="44.41554" lon="5.95653">
        <ele>609</ele>
        <time>2019-03-05T13:43:12Z</time>
      </trkpt>
      <trkpt lat="44.41557" lon="5.95652">
        <ele>610</ele>
        <time>2019-03-05T13:43:13Z</time>
      </trkpt>
      <trkpt lat="44.4156" lon="5.95651">
        <ele>611</ele>
        <time>2019-03-05T13:43:14Z</time>
      </trkpt>
      <trkpt lat="44.41563" lon="5.9565">
        <ele>612</ele>
        <time>2019-03-05T13:43:15Z</time>
      </trkpt>
      <trkpt lat="44.41566" lon="5.95649">
        <ele>613</ele>
        <time>2019-03-05T13:43:16Z</time>
      </trkpt>
      <trkpt lat="44.4157" lon="5.95649">
        <ele>614</ele>
        <time>2019-03-05T13:43:17Z</time>
      </trkpt>
      <trkpt lat="44.41573" lon="5.95648">
        <ele>615</ele>
        <time>2019-03-05T13:43:18Z</time>
      </trkpt>
      <trkpt lat="44.41576" lon="5.95648">
        <ele>616</ele>
        <time>2019-03-05T13:43:19Z</time>
      </trkpt>
      <trkpt lat="44.41579" lon="5.95649">
        <ele>617</ele>
        <time>2019-03-05T13:43:20Z</time>
      </trkpt>
      <trkpt lat="44.41583" lon="5.9565">
        <ele>618</ele>
        <time>2019-03-05T13:43:21Z</time>
      </trkpt>
      <trkpt lat="44.41586" lon="5.95651">
        <ele>619</ele>
        <time>2019-03-05T13:43:22Z</time>
      </trkpt>
      <trkpt lat="44.41589" lon="5.95651">
        <ele>619</ele>
        <time>2019-03-05T13:43:23Z</time>
      </trkpt>
      <trkpt lat="44.41593" lon="5.95653">
        <ele>619</ele>
        <time>2019-03-05T13:43:24Z</time>
      </trkpt>
      <trkpt lat="44.41596" lon="5.95655">
        <ele>620</ele>
        <time>2019-03-05T13:43:25Z</time>
      </trkpt>
      <trkpt lat="44.416" lon="5.95656">
        <ele>620</ele>
        <time>2019-03-05T13:43:26Z</time>
      </trkpt>
      <trkpt lat="44.41604" lon="5.95658">
        <ele>620</ele>
        <time>2019-03-05T13:43:27Z</time>
      </trkpt>
      <trkpt lat="44.41608" lon="5.9566">
        <ele>620</ele>
        <time>2019-03-05T13:43:28Z</time>
      </trkpt>
      <trkpt lat="44.41611" lon="5.95661">
        <ele>620</ele>
        <time>2019-03-05T13:43:29Z</time>
      </trkpt>
      <trkpt lat="44.41615" lon="5.95662">
        <ele>620</ele>
        <time>2019-03-05T13:43:30Z</time>
      </trkpt>
      <trkpt lat="44.41619" lon="5.95662">
        <ele>620</ele>
        <time>2019-03-05T13:43:31Z</time>
      </trkpt>
      <trkpt lat="44.41623" lon="5.95662">
        <ele>620</ele>
        <time>2019-03-05T13:43:32Z</time>
      </trkpt>
      <trkpt lat="44.41627" lon="5.95662">
        <ele>620</ele>
        <time>2019-03-05T13:43:33Z</time>
      </trkpt>
      <trkpt lat="44.4163" lon="5.95661">
        <ele>620</ele>
        <time>2019-03-05T13:43:34Z</time>
      </trkpt>
      <trkpt lat="44.41634" lon="5.95661">
        <ele>620</ele>
        <time>2019-03-05T13:43:35Z</time>
      </trkpt>
      <trkpt lat="44.41637" lon="5.9566">
        <ele>620</ele>
        <time>2019-03-05T13:43:36Z</time>
      </trkpt>
      <trkpt lat="44.4164" lon="5.95659">
        <ele>620</ele>
        <time>2019-03-05T13:43:37Z</time>
      </trkpt>
      <trkpt lat="44.41642" lon="5.95658">
        <ele>620</ele>
        <time>2019-03-05T13:43:38Z</time>
      </trkpt>
      <trkpt lat="44.41645" lon="5.95657">
        <ele>620</ele>
        <time>2019-03-05T13:43:39Z</time>
      </trkpt>
      <trkpt lat="44.41648" lon="5.95656">
        <ele>620</ele>
        <time>2019-03-05T13:43:40Z</time>
      </trkpt>
      <trkpt lat="44.41652" lon="5.95655">
        <ele>620</ele>
        <time>2019-03-05T13:43:41Z</time>
      </trkpt>
      <trkpt lat="44.41656" lon="5.95655">
        <ele>621</ele>
        <time>2019-03-05T13:43:42Z</time>
      </trkpt>
      <trkpt lat="44.4166" lon="5.95656">
        <ele>621</ele>
        <time>2019-03-05T13:43:43Z</time>
      </trkpt>
      <trkpt lat="44.41664" lon="5.95658">
        <ele>621</ele>
        <time>2019-03-05T13:43:44Z</time>
      </trkpt>
      <trkpt lat="44.41668" lon="5.9566">
        <ele>621</ele>
        <time>2019-03-05T13:43:45Z</time>
      </trkpt>
      <trkpt lat="44.41671" lon="5.95663">
        <ele>621</ele>
        <time>2019-03-05T13:43:46Z</time>
      </trkpt>
      <trkpt lat="44.41675" lon="5.95668">
        <ele>621</ele>
        <time>2019-03-05T13:43:47Z</time>
      </trkpt>
      <trkpt lat="44.41678" lon="5.95672">
        <ele>621</ele>
        <time>2019-03-05T13:43:48Z</time>
      </trkpt>
      <trkpt lat="44.41681" lon="5.95676">
        <ele>621</ele>
        <time>2019-03-05T13:43:49Z</time>
      </trkpt>
      <trkpt lat="44.41685" lon="5.95679">
        <ele>621</ele>
        <time>2019-03-05T13:43:50Z</time>
      </trkpt>
      <trkpt lat="44.41688" lon="5.95682">
        <ele>620</ele>
        <time>2019-03-05T13:43:51Z</time>
      </trkpt>
      <trkpt lat="44.41692" lon="5.95685">
        <ele>619</ele>
        <time>2019-03-05T13:43:52Z</time>
      </trkpt>
      <trkpt lat="44.41697" lon="5.95687">
        <ele>618</ele>
        <time>2019-03-05T13:43:53Z</time>
      </trkpt>
      <trkpt lat="44.41701" lon="5.95688">
        <ele>617</ele>
        <time>2019-03-05T13:43:54Z</time>
      </trkpt>
      <trkpt lat="44.41705" lon="5.95689">
        <ele>616</ele>
        <time>2019-03-05T13:43:55Z</time>
      </trkpt>
      <trkpt lat="44.4171" lon="5.9569">
        <ele>615</ele>
        <time>2019-03-05T13:43:56Z</time>
      </trkpt>
      <trkpt lat="44.41714" lon="5.9569">
        <ele>615</ele>
        <time>2019-03-05T13:43:57Z</time>
      </trkpt>
      <trkpt lat="44.41719" lon="5.9569">
        <ele>614</ele>
        <time>2019-03-05T13:43:58Z</time>
      </trkpt>
      <trkpt lat="44.41723" lon="5.95689">
        <ele>614</ele>
        <time>2019-03-05T13:43:59Z</time>
      </trkpt>
      <trkpt lat="44.41727" lon="5.95688">
        <ele>614</ele>
        <time>2019-03-05T13:44:00Z</time>
      </trkpt>
      <trkpt lat="44.41731" lon="5.95686">
        <ele>614</ele>
        <time>2019-03-05T13:44:01Z</time>
      </trkpt>
      <trkpt lat="44.41736" lon="5.95685">
        <ele>614</ele>
        <time>2019-03-05T13:44:02Z</time>
      </trkpt>
      <trkpt lat="44.4174" lon="5.95687">
        <ele>614</ele>
        <time>2019-03-05T13:44:03Z</time>
      </trkpt>
      <trkpt lat="44.41745" lon="5.9569">
        <ele>614</ele>
        <time>2019-03-05T13:44:04Z</time>
      </trkpt>
      <trkpt lat="44.41749" lon="5.95694">
        <ele>614</ele>
        <time>2019-03-05T13:44:05Z</time>
      </trkpt>
      <trkpt lat="44.41753" lon="5.95698">
        <ele>614</ele>
        <time>2019-03-05T13:44:06Z</time>
      </trkpt>
      <trkpt lat="44.41756" lon="5.95704">
        <ele>614</ele>
        <time>2019-03-05T13:44:07Z</time>
      </trkpt>
      <trkpt lat="44.41759" lon="5.95709">
        <ele>614</ele>
        <time>2019-03-05T13:44:08Z</time>
      </trkpt>
      <trkpt lat="44.41763" lon="5.95713">
        <ele>613</ele>
        <time>2019-03-05T13:44:09Z</time>
      </trkpt>
      <trkpt lat="44.41766" lon="5.95717">
        <ele>612</ele>
        <time>2019-03-05T13:44:10Z</time>
      </trkpt>
      <trkpt lat="44.41769" lon="5.95722">
        <ele>611</ele>
        <time>2019-03-05T13:44:11Z</time>
      </trkpt>
      <trkpt lat="44.41773" lon="5.95726">
        <ele>611</ele>
        <time>2019-03-05T13:44:12Z</time>
      </trkpt>
      <trkpt lat="44.41778" lon="5.95728">
        <ele>611</ele>
        <time>2019-03-05T13:44:13Z</time>
      </trkpt>
      <trkpt lat="44.41783" lon="5.95728">
        <ele>611</ele>
        <time>2019-03-05T13:44:14Z</time>
      </trkpt>
      <trkpt lat="44.41787" lon="5.95728">
        <ele>611</ele>
        <time>2019-03-05T13:44:15Z</time>
      </trkpt>
      <trkpt lat="44.4179" lon="5.95729">
        <ele>611</ele>
        <time>2019-03-05T13:44:16Z</time>
      </trkpt>
      <trkpt lat="44.41795" lon="5.95728">
        <ele>611</ele>
        <time>2019-03-05T13:44:17Z</time>
      </trkpt>
      <trkpt lat="44.41798" lon="5.95728">
        <ele>611</ele>
        <time>2019-03-05T13:44:18Z</time>
      </trkpt>
      <trkpt lat="44.41803" lon="5.95727">
        <ele>611</ele>
        <time>2019-03-05T13:44:19Z</time>
      </trkpt>
      <trkpt lat="44.41808" lon="5.95728">
        <ele>612</ele>
        <time>2019-03-05T13:44:20Z</time>
      </trkpt>
      <trkpt lat="44.41813" lon="5.95729">
        <ele>613</ele>
        <time>2019-03-05T13:44:21Z</time>
      </trkpt>
      <trkpt lat="44.41818" lon="5.9573">
        <ele>614</ele>
        <time>2019-03-05T13:44:22Z</time>
      </trkpt>
      <trkpt lat="44.41823" lon="5.95733">
        <ele>615</ele>
        <time>2019-03-05T13:44:23Z</time>
      </trkpt>
      <trkpt lat="44.41828" lon="5.95737">
        <ele>615</ele>
        <time>2019-03-05T13:44:24Z</time>
      </trkpt>
      <trkpt lat="44.41832" lon="5.95742">
        <ele>615</ele>
        <time>2019-03-05T13:44:25Z</time>
      </trkpt>
      <trkpt lat="44.41836" lon="5.95746">
        <ele>615</ele>
        <time>2019-03-05T13:44:26Z</time>
      </trkpt>
      <trkpt lat="44.4184" lon="5.9575">
        <ele>615</ele>
        <time>2019-03-05T13:44:27Z</time>
      </trkpt>
      <trkpt lat="44.41845" lon="5.95754">
        <ele>615</ele>
        <time>2019-03-05T13:44:28Z</time>
      </trkpt>
      <trkpt lat="44.41849" lon="5.95757">
        <ele>615</ele>
        <time>2019-03-05T13:44:29Z</time>
      </trkpt>
      <trkpt lat="44.41854" lon="5.95759">
        <ele>615</ele>
        <time>2019-03-05T13:44:30Z</time>
      </trkpt>
      <trkpt lat="44.41859" lon="5.95762">
        <ele>615</ele>
        <time>2019-03-05T13:44:31Z</time>
      </trkpt>
      <trkpt lat="44.41864" lon="5.95764">
        <ele>615</ele>
        <time>2019-03-05T13:44:32Z</time>
      </trkpt>
      <trkpt lat="44.41869" lon="5.95767">
        <ele>615</ele>
        <time>2019-03-05T13:44:33Z</time>
      </trkpt>
      <trkpt lat="44.41873" lon="5.9577">
        <ele>615</ele>
        <time>2019-03-05T13:44:34Z</time>
      </trkpt>
      <trkpt lat="44.41878" lon="5.95773">
        <ele>615</ele>
        <time>2019-03-05T13:44:35Z</time>
      </trkpt>
      <trkpt lat="44.41882" lon="5.95775">
        <ele>615</ele>
        <time>2019-03-05T13:44:36Z</time>
      </trkpt>
      <trkpt lat="44.41887" lon="5.95778">
        <ele>615</ele>
        <time>2019-03-05T13:44:37Z</time>
      </trkpt>
      <trkpt lat="44.41891" lon="5.95781">
        <ele>615</ele>
        <time>2019-03-05T13:44:38Z</time>
      </trkpt>
      <trkpt lat="44.41896" lon="5.95783">
        <ele>615</ele>
        <time>2019-03-05T13:44:39Z</time>
      </trkpt>
      <trkpt lat="44.41901" lon="5.95786">
        <ele>615</ele>
        <time>2019-03-05T13:44:40Z</time>
      </trkpt>
      <trkpt lat="44.41905" lon="5.95789">
        <ele>615</ele>
        <time>2019-03-05T13:44:41Z</time>
      </trkpt>
      <trkpt lat="44.41909" lon="5.95794">
        <ele>615</ele>
        <time>2019-03-05T13:44:42Z</time>
      </trkpt>
      <trkpt lat="44.41914" lon="5.95799">
        <ele>615</ele>
        <time>2019-03-05T13:44:43Z</time>
      </trkpt>
      <trkpt lat="44.41917" lon="5.95804">
        <ele>615</ele>
        <time>2019-03-05T13:44:44Z</time>
      </trkpt>
      <trkpt lat="44.41921" lon="5.95809">
        <ele>615</ele>
        <time>2019-03-05T13:44:45Z</time>
      </trkpt>
      <trkpt lat="44.41925" lon="5.95813">
        <ele>615</ele>
        <time>2019-03-05T13:44:46Z</time>
      </trkpt>
      <trkpt lat="44.41928" lon="5.95818">
        <ele>615</ele>
        <time>2019-03-05T13:44:47Z</time>
      </trkpt>
      <trkpt lat="44.41932" lon="5.95824">
        <ele>615</ele>
        <time>2019-03-05T13:44:48Z</time>
      </trkpt>
      <trkpt lat="44.41935" lon="5.95829">
        <ele>615</ele>
        <time>2019-03-05T13:44:49Z</time>
      </trkpt>
      <trkpt lat="44.41938" lon="5.95834">
        <ele>615</ele>
        <time>2019-03-05T13:44:50Z</time>
      </trkpt>
      <trkpt lat="44.41942" lon="5.95838">
        <ele>615</ele>
        <time>2019-03-05T13:44:51Z</time>
      </trkpt>
      <trkpt lat="44.41945" lon="5.95843">
        <ele>615</ele>
        <time>2019-03-05T13:44:52Z</time>
      </trkpt>
      <trkpt lat="44.41948" lon="5.95847">
        <ele>615</ele>
        <time>2019-03-05T13:44:53Z</time>
      </trkpt>
      <trkpt lat="44.41951" lon="5.95852">
        <ele>615</ele>
        <time>2019-03-05T13:44:54Z</time>
      </trkpt>
      <trkpt lat="44.41954" lon="5.95855">
        <ele>615</ele>
        <time>2019-03-05T13:44:55Z</time>
      </trkpt>
      <trkpt lat="44.41958" lon="5.95858">
        <ele>615</ele>
        <time>2019-03-05T13:44:56Z</time>
      </trkpt>
      <trkpt lat="44.41962" lon="5.9586">
        <ele>615</ele>
        <time>2019-03-05T13:44:57Z</time>
      </trkpt>
      <trkpt lat="44.41966" lon="5.95864">
        <ele>615</ele>
        <time>2019-03-05T13:44:58Z</time>
      </trkpt>
      <trkpt lat="44.41972" lon="5.95867">
        <ele>615</ele>
        <time>2019-03-05T13:44:59Z</time>
      </trkpt>
      <trkpt lat="44.41977" lon="5.9587">
        <ele>615</ele>
        <time>2019-03-05T13:45:00Z</time>
      </trkpt>
      <trkpt lat="44.41982" lon="5.95874">
        <ele>614</ele>
        <time>2019-03-05T13:45:01Z</time>
      </trkpt>
      <trkpt lat="44.41986" lon="5.95879">
        <ele>613</ele>
        <time>2019-03-05T13:45:02Z</time>
      </trkpt>
      <trkpt lat="44.41991" lon="5.95886">
        <ele>612</ele>
        <time>2019-03-05T13:45:03Z</time>
      </trkpt>
      <trkpt lat="44.41994" lon="5.95893">
        <ele>612</ele>
        <time>2019-03-05T13:45:04Z</time>
      </trkpt>
      <trkpt lat="44.41998" lon="5.95901">
        <ele>612</ele>
        <time>2019-03-05T13:45:05Z</time>
      </trkpt>
      <trkpt lat="44.42002" lon="5.95908">
        <ele>611</ele>
        <time>2019-03-05T13:45:06Z</time>
      </trkpt>
      <trkpt lat="44.42007" lon="5.95916">
        <ele>611</ele>
        <time>2019-03-05T13:45:07Z</time>
      </trkpt>
      <trkpt lat="44.42011" lon="5.95925">
        <ele>610</ele>
        <time>2019-03-05T13:45:08Z</time>
      </trkpt>
      <trkpt lat="44.42015" lon="5.95935">
        <ele>609</ele>
        <time>2019-03-05T13:45:09Z</time>
      </trkpt>
      <trkpt lat="44.42018" lon="5.95944">
        <ele>609</ele>
        <time>2019-03-05T13:45:10Z</time>
      </trkpt>
      <trkpt lat="44.42022" lon="5.95953">
        <ele>609</ele>
        <time>2019-03-05T13:45:11Z</time>
      </trkpt>
      <trkpt lat="44.42026" lon="5.9596">
        <ele>609</ele>
        <time>2019-03-05T13:45:12Z</time>
      </trkpt>
      <trkpt lat="44.42031" lon="5.95966">
        <ele>609</ele>
        <time>2019-03-05T13:45:13Z</time>
      </trkpt>
      <trkpt lat="44.42037" lon="5.95969">
        <ele>608</ele>
        <time>2019-03-05T13:45:14Z</time>
      </trkpt>
      <trkpt lat="44.42044" lon="5.95969">
        <ele>608</ele>
        <time>2019-03-05T13:45:15Z</time>
      </trkpt>
      <trkpt lat="44.42051" lon="5.95967">
        <ele>607</ele>
        <time>2019-03-05T13:45:16Z</time>
      </trkpt>
      <trkpt lat="44.42057" lon="5.95965">
        <ele>607</ele>
        <time>2019-03-05T13:45:17Z</time>
      </trkpt>
      <trkpt lat="44.42065" lon="5.95965">
        <ele>607</ele>
        <time>2019-03-05T13:45:18Z</time>
      </trkpt>
      <trkpt lat="44.42073" lon="5.95967">
        <ele>607</ele>
        <time>2019-03-05T13:45:19Z</time>
      </trkpt>
      <trkpt lat="44.42079" lon="5.95971">
        <ele>607</ele>
        <time>2019-03-05T13:45:20Z</time>
      </trkpt>
      <trkpt lat="44.42085" lon="5.95976">
        <ele>607</ele>
        <time>2019-03-05T13:45:21Z</time>
      </trkpt>
      <trkpt lat="44.4209" lon="5.95981">
        <ele>606</ele>
        <time>2019-03-05T13:45:22Z</time>
      </trkpt>
      <trkpt lat="44.42094" lon="5.95988">
        <ele>605</ele>
        <time>2019-03-05T13:45:23Z</time>
      </trkpt>
      <trkpt lat="44.42095" lon="5.95997">
        <ele>605</ele>
        <time>2019-03-05T13:45:24Z</time>
      </trkpt>
      <trkpt lat="44.42095" lon="5.96005">
        <ele>605</ele>
        <time>2019-03-05T13:45:25Z</time>
      </trkpt>
      <trkpt lat="44.42092" lon="5.96013">
        <ele>604</ele>
        <time>2019-03-05T13:45:26Z</time>
      </trkpt>
      <trkpt lat="44.42089" lon="5.96021">
        <ele>604</ele>
        <time>2019-03-05T13:45:27Z</time>
      </trkpt>
      <trkpt lat="44.42087" lon="5.96028">
        <ele>604</ele>
        <time>2019-03-05T13:45:28Z</time>
      </trkpt>
      <trkpt lat="44.42086" lon="5.96036">
        <ele>603</ele>
        <time>2019-03-05T13:45:29Z</time>
      </trkpt>
      <trkpt lat="44.42083" lon="5.96044">
        <ele>602</ele>
        <time>2019-03-05T13:45:30Z</time>
      </trkpt>
      <trkpt lat="44.4208" lon="5.96051">
        <ele>602</ele>
        <time>2019-03-05T13:45:31Z</time>
      </trkpt>
      <trkpt lat="44.42076" lon="5.96057">
        <ele>601</ele>
        <time>2019-03-05T13:45:32Z</time>
      </trkpt>
      <trkpt lat="44.42071" lon="5.96062">
        <ele>601</ele>
        <time>2019-03-05T13:45:33Z</time>
      </trkpt>
      <trkpt lat="44.42066" lon="5.96067">
        <ele>600</ele>
        <time>2019-03-05T13:45:34Z</time>
      </trkpt>
      <trkpt lat="44.42061" lon="5.96073">
        <ele>600</ele>
        <time>2019-03-05T13:45:35Z</time>
      </trkpt>
      <trkpt lat="44.42057" lon="5.9608">
        <ele>600</ele>
        <time>2019-03-05T13:45:36Z</time>
      </trkpt>
      <trkpt lat="44.42054" lon="5.96087">
        <ele>600</ele>
        <time>2019-03-05T13:45:37Z</time>
      </trkpt>
      <trkpt lat="44.4205" lon="5.96094">
        <ele>600</ele>
        <time>2019-03-05T13:45:38Z</time>
      </trkpt>
      <trkpt lat="44.42046" lon="5.961">
        <ele>600</ele>
        <time>2019-03-05T13:45:39Z</time>
      </trkpt>
      <trkpt lat="44.42043" lon="5.96107">
        <ele>600</ele>
        <time>2019-03-05T13:45:40Z</time>
      </trkpt>
      <trkpt lat="44.42038" lon="5.96113">
        <ele>600</ele>
        <time>2019-03-05T13:45:41Z</time>
      </trkpt>
      <trkpt lat="44.42035" lon="5.96119">
        <ele>600</ele>
        <time>2019-03-05T13:45:42Z</time>
      </trkpt>
      <trkpt lat="44.4203" lon="5.96125">
        <ele>600</ele>
        <time>2019-03-05T13:45:43Z</time>
      </trkpt>
      <trkpt lat="44.42026" lon="5.96131">
        <ele>600</ele>
        <time>2019-03-05T13:45:44Z</time>
      </trkpt>
      <trkpt lat="44.42022" lon="5.96138">
        <ele>600</ele>
        <time>2019-03-05T13:45:45Z</time>
      </trkpt>
      <trkpt lat="44.42018" lon="5.96145">
        <ele>600</ele>
        <time>2019-03-05T13:45:46Z</time>
      </trkpt>
      <trkpt lat="44.42014" lon="5.96152">
        <ele>600</ele>
        <time>2019-03-05T13:45:47Z</time>
      </trkpt>
      <trkpt lat="44.4201" lon="5.9616">
        <ele>600</ele>
        <time>2019-03-05T13:45:48Z</time>
      </trkpt>
      <trkpt lat="44.42005" lon="5.96167">
        <ele>600</ele>
        <time>2019-03-05T13:45:49Z</time>
      </trkpt>
      <trkpt lat="44.42001" lon="5.96174">
        <ele>599</ele>
        <time>2019-03-05T13:45:50Z</time>
      </trkpt>
      <trkpt lat="44.41997" lon="5.96182">
        <ele>599</ele>
        <time>2019-03-05T13:45:51Z</time>
      </trkpt>
      <trkpt lat="44.41993" lon="5.9619">
        <ele>599</ele>
        <time>2019-03-05T13:45:52Z</time>
      </trkpt>
      <trkpt lat="44.41989" lon="5.96199">
        <ele>599</ele>
        <time>2019-03-05T13:45:53Z</time>
      </trkpt>
      <trkpt lat="44.41985" lon="5.96208">
        <ele>599</ele>
        <time>2019-03-05T13:45:54Z</time>
      </trkpt>
      <trkpt lat="44.41982" lon="5.96217">
        <ele>598</ele>
        <time>2019-03-05T13:45:55Z</time>
      </trkpt>
      <trkpt lat="44.41978" lon="5.96227">
        <ele>598</ele>
        <time>2019-03-05T13:45:56Z</time>
      </trkpt>
      <trkpt lat="44.41973" lon="5.96236">
        <ele>598</ele>
        <time>2019-03-05T13:45:57Z</time>
      </trkpt>
      <trkpt lat="44.41969" lon="5.96246">
        <ele>598</ele>
        <time>2019-03-05T13:45:58Z</time>
      </trkpt>
      <trkpt lat="44.41964" lon="5.96254">
        <ele>597</ele>
        <time>2019-03-05T13:45:59Z</time>
      </trkpt>
      <trkpt lat="44.41958" lon="5.96263">
        <ele>597</ele>
        <time>2019-03-05T13:46:00Z</time>
      </trkpt>
      <trkpt lat="44.41951" lon="5.96271">
        <ele>596</ele>
        <time>2019-03-05T13:46:01Z</time>
      </trkpt>
      <trkpt lat="44.41946" lon="5.96279">
        <ele>596</ele>
        <time>2019-03-05T13:46:02Z</time>
      </trkpt>
      <trkpt lat="44.41939" lon="5.96288">
        <ele>596</ele>
        <time>2019-03-05T13:46:03Z</time>
      </trkpt>
      <trkpt lat="44.41933" lon="5.96297">
        <ele>595</ele>
        <time>2019-03-05T13:46:04Z</time>
      </trkpt>
      <trkpt lat="44.41927" lon="5.96305">
        <ele>595</ele>
        <time>2019-03-05T13:46:05Z</time>
      </trkpt>
      <trkpt lat="44.41921" lon="5.96314">
        <ele>595</ele>
        <time>2019-03-05T13:46:06Z</time>
      </trkpt>
      <trkpt lat="44.41915" lon="5.96324">
        <ele>595</ele>
        <time>2019-03-05T13:46:07Z</time>
      </trkpt>
      <trkpt lat="44.41909" lon="5.96334">
        <ele>594</ele>
        <time>2019-03-05T13:46:08Z</time>
      </trkpt>
      <trkpt lat="44.41903" lon="5.96344">
        <ele>594</ele>
        <time>2019-03-05T13:46:09Z</time>
      </trkpt>
      <trkpt lat="44.41898" lon="5.96353">
        <ele>594</ele>
        <time>2019-03-05T13:46:10Z</time>
      </trkpt>
      <trkpt lat="44.41892" lon="5.96363">
        <ele>593</ele>
        <time>2019-03-05T13:46:11Z</time>
      </trkpt>
      <trkpt lat="44.41887" lon="5.96373">
        <ele>593</ele>
        <time>2019-03-05T13:46:12Z</time>
      </trkpt>
      <trkpt lat="44.41882" lon="5.96383">
        <ele>592</ele>
        <time>2019-03-05T13:46:13Z</time>
      </trkpt>
      <trkpt lat="44.41878" lon="5.96393">
        <ele>591</ele>
        <time>2019-03-05T13:46:14Z</time>
      </trkpt>
      <trkpt lat="44.41873" lon="5.96404">
        <ele>591</ele>
        <time>2019-03-05T13:46:15Z</time>
      </trkpt>
      <trkpt lat="44.41869" lon="5.96414">
        <ele>591</ele>
        <time>2019-03-05T13:46:16Z</time>
      </trkpt>
      <trkpt lat="44.41866" lon="5.96424">
        <ele>591</ele>
        <time>2019-03-05T13:46:17Z</time>
      </trkpt>
      <trkpt lat="44.41862" lon="5.96433">
        <ele>590</ele>
        <time>2019-03-05T13:46:18Z</time>
      </trkpt>
      <trkpt lat="44.41859" lon="5.96442">
        <ele>590</ele>
        <time>2019-03-05T13:46:19Z</time>
      </trkpt>
      <trkpt lat="44.41855" lon="5.9645">
        <ele>590</ele>
        <time>2019-03-05T13:46:20Z</time>
      </trkpt>
      <trkpt lat="44.41852" lon="5.96457">
        <ele>590</ele>
        <time>2019-03-05T13:46:21Z</time>
      </trkpt>
      <trkpt lat="44.41848" lon="5.96464">
        <ele>590</ele>
        <time>2019-03-05T13:46:22Z</time>
      </trkpt>
      <trkpt lat="44.41845" lon="5.9647">
        <ele>590</ele>
        <time>2019-03-05T13:46:23Z</time>
      </trkpt>
      <trkpt lat="44.41842" lon="5.96477">
        <ele>590</ele>
        <time>2019-03-05T13:46:24Z</time>
      </trkpt>
      <trkpt lat="44.41839" lon="5.96483">
        <ele>590</ele>
        <time>2019-03-05T13:46:25Z</time>
      </trkpt>
      <trkpt lat="44.41835" lon="5.9649">
        <ele>590</ele>
        <time>2019-03-05T13:46:26Z</time>
      </trkpt>
      <trkpt lat="44.41832" lon="5.96497">
        <ele>590</ele>
        <time>2019-03-05T13:46:27Z</time>
      </trkpt>
      <trkpt lat="44.41827" lon="5.96504">
        <ele>590</ele>
        <time>2019-03-05T13:46:28Z</time>
      </trkpt>
      <trkpt lat="44.41823" lon="5.96512">
        <ele>590</ele>
        <time>2019-03-05T13:46:29Z</time>
      </trkpt>
      <trkpt lat="44.41818" lon="5.96519">
        <ele>590</ele>
        <time>2019-03-05T13:46:30Z</time>
      </trkpt>
      <trkpt lat="44.41814" lon="5.96526">
        <ele>590</ele>
        <time>2019-03-05T13:46:31Z</time>
      </trkpt>
      <trkpt lat="44.4181" lon="5.96532">
        <ele>590</ele>
        <time>2019-03-05T13:46:32Z</time>
      </trkpt>
      <trkpt lat="44.41807" lon="5.96537">
        <ele>590</ele>
        <time>2019-03-05T13:46:33Z</time>
      </trkpt>
      <trkpt lat="44.41805" lon="5.96542">
        <ele>589</ele>
        <time>2019-03-05T13:46:34Z</time>
      </trkpt>
      <trkpt lat="44.41802" lon="5.96546">
        <ele>589</ele>
        <time>2019-03-05T13:46:35Z</time>
      </trkpt>
      <trkpt lat="44.418" lon="5.96551">
        <ele>589</ele>
        <time>2019-03-05T13:46:36Z</time>
      </trkpt>
      <trkpt lat="44.41798" lon="5.96555">
        <ele>588</ele>
        <time>2019-03-05T13:46:37Z</time>
      </trkpt>
      <trkpt lat="44.41796" lon="5.96559">
        <ele>588</ele>
        <time>2019-03-05T13:46:38Z</time>
      </trkpt>
      <trkpt lat="44.41793" lon="5.96563">
        <ele>588</ele>
        <time>2019-03-05T13:46:39Z</time>
      </trkpt>
      <trkpt lat="44.4179" lon="5.96569">
        <ele>587</ele>
        <time>2019-03-05T13:46:40Z</time>
      </trkpt>
      <trkpt lat="44.41788" lon="5.96575">
        <ele>586</ele>
        <time>2019-03-05T13:46:41Z</time>
      </trkpt>
      <trkpt lat="44.41786" lon="5.96583">
        <ele>586</ele>
        <time>2019-03-05T13:46:42Z</time>
      </trkpt>
      <trkpt lat="44.41784" lon="5.9659">
        <ele>585</ele>
        <time>2019-03-05T13:46:43Z</time>
      </trkpt>
      <trkpt lat="44.41781" lon="5.96597">
        <ele>585</ele>
        <time>2019-03-05T13:46:44Z</time>
      </trkpt>
      <trkpt lat="44.41778" lon="5.96603">
        <ele>585</ele>
        <time>2019-03-05T13:46:45Z</time>
      </trkpt>
      <trkpt lat="44.41774" lon="5.96609">
        <ele>585</ele>
        <time>2019-03-05T13:46:46Z</time>
      </trkpt>
      <trkpt lat="44.41771" lon="5.96616">
        <ele>585</ele>
        <time>2019-03-05T13:46:47Z</time>
      </trkpt>
      <trkpt lat="44.41768" lon="5.96623">
        <ele>585</ele>
        <time>2019-03-05T13:46:48Z</time>
      </trkpt>
      <trkpt lat="44.41764" lon="5.96631">
        <ele>584</ele>
        <time>2019-03-05T13:46:49Z</time>
      </trkpt>
      <trkpt lat="44.41761" lon="5.96638">
        <ele>584</ele>
        <time>2019-03-05T13:46:50Z</time>
      </trkpt>
      <trkpt lat="44.41758" lon="5.96646">
        <ele>584</ele>
        <time>2019-03-05T13:46:51Z</time>
      </trkpt>
      <trkpt lat="44.41755" lon="5.96653">
        <ele>583</ele>
        <time>2019-03-05T13:46:52Z</time>
      </trkpt>
      <trkpt lat="44.41752" lon="5.96661">
        <ele>583</ele>
        <time>2019-03-05T13:46:53Z</time>
      </trkpt>
      <trkpt lat="44.41748" lon="5.96669">
        <ele>583</ele>
        <time>2019-03-05T13:46:54Z</time>
      </trkpt>
      <trkpt lat="44.41744" lon="5.96678">
        <ele>582</ele>
        <time>2019-03-05T13:46:55Z</time>
      </trkpt>
      <trkpt lat="44.4174" lon="5.96686">
        <ele>582</ele>
        <time>2019-03-05T13:46:56Z</time>
      </trkpt>
      <trkpt lat="44.41736" lon="5.96695">
        <ele>581</ele>
        <time>2019-03-05T13:46:57Z</time>
      </trkpt>
      <trkpt lat="44.41732" lon="5.96704">
        <ele>581</ele>
        <time>2019-03-05T13:46:58Z</time>
      </trkpt>
      <trkpt lat="44.41727" lon="5.96714">
        <ele>580</ele>
        <time>2019-03-05T13:46:59Z</time>
      </trkpt>
      <trkpt lat="44.41723" lon="5.96723">
        <ele>580</ele>
        <time>2019-03-05T13:47:00Z</time>
      </trkpt>
      <trkpt lat="44.41719" lon="5.96732">
        <ele>579</ele>
        <time>2019-03-05T13:47:01Z</time>
      </trkpt>
      <trkpt lat="44.41714" lon="5.96741">
        <ele>579</ele>
        <time>2019-03-05T13:47:02Z</time>
      </trkpt>
      <trkpt lat="44.4171" lon="5.96749">
        <ele>579</ele>
        <time>2019-03-05T13:47:03Z</time>
      </trkpt>
      <trkpt lat="44.41706" lon="5.96758">
        <ele>579</ele>
        <time>2019-03-05T13:47:04Z</time>
      </trkpt>
      <trkpt lat="44.41701" lon="5.96766">
        <ele>579</ele>
        <time>2019-03-05T13:47:05Z</time>
      </trkpt>
      <trkpt lat="44.41697" lon="5.96774">
        <ele>579</ele>
        <time>2019-03-05T13:47:06Z</time>
      </trkpt>
      <trkpt lat="44.41693" lon="5.96782">
        <ele>579</ele>
        <time>2019-03-05T13:47:07Z</time>
      </trkpt>
      <trkpt lat="44.41688" lon="5.9679">
        <ele>579</ele>
        <time>2019-03-05T13:47:08Z</time>
      </trkpt>
      <trkpt lat="44.41684" lon="5.96797">
        <ele>579</ele>
        <time>2019-03-05T13:47:09Z</time>
      </trkpt>
      <trkpt lat="44.41681" lon="5.96805">
        <ele>579</ele>
        <time>2019-03-05T13:47:10Z</time>
      </trkpt>
      <trkpt lat="44.41678" lon="5.96812">
        <ele>579</ele>
        <time>2019-03-05T13:47:11Z</time>
      </trkpt>
      <trkpt lat="44.41676" lon="5.96821">
        <ele>579</ele>
        <time>2019-03-05T13:47:12Z</time>
      </trkpt>
      <trkpt lat="44.41677" lon="5.96829">
        <ele>579</ele>
        <time>2019-03-05T13:47:13Z</time>
      </trkpt>
      <trkpt lat="44.4168" lon="5.96836">
        <ele>579</ele>
        <time>2019-03-05T13:47:14Z</time>
      </trkpt>
      <trkpt lat="44.41685" lon="5.96844">
        <ele>579</ele>
        <time>2019-03-05T13:47:15Z</time>
      </trkpt>
      <trkpt lat="44.4169" lon="5.96851">
        <ele>579</ele>
        <time>2019-03-05T13:47:16Z</time>
      </trkpt>
      <trkpt lat="44.41695" lon="5.96858">
        <ele>578</ele>
        <time>2019-03-05T13:47:17Z</time>
      </trkpt>
      <trkpt lat="44.417" lon="5.96866">
        <ele>578</ele>
        <time>2019-03-05T13:47:18Z</time>
      </trkpt>
      <trkpt lat="44.41706" lon="5.96874">
        <ele>578</ele>
        <time>2019-03-05T13:47:19Z</time>
      </trkpt>
      <trkpt lat="44.41711" lon="5.96882">
        <ele>578</ele>
        <time>2019-03-05T13:47:20Z</time>
      </trkpt>
      <trkpt lat="44.41717" lon="5.9689">
        <ele>578</ele>
        <time>2019-03-05T13:47:21Z</time>
      </trkpt>
      <trkpt lat="44.41722" lon="5.96899">
        <ele>578</ele>
        <time>2019-03-05T13:47:22Z</time>
      </trkpt>
      <trkpt lat="44.41727" lon="5.96907">
        <ele>578</ele>
        <time>2019-03-05T13:47:23Z</time>
      </trkpt>
      <trkpt lat="44.41732" lon="5.96915">
        <ele>578</ele>
        <time>2019-03-05T13:47:24Z</time>
      </trkpt>
      <trkpt lat="44.41737" lon="5.96923">
        <ele>578</ele>
        <time>2019-03-05T13:47:25Z</time>
      </trkpt>
      <trkpt lat="44.41742" lon="5.96931">
        <ele>578</ele>
        <time>2019-03-05T13:47:26Z</time>
      </trkpt>
      <trkpt lat="44.41747" lon="5.96939">
        <ele>578</ele>
        <time>2019-03-05T13:47:27Z</time>
      </trkpt>
      <trkpt lat="44.41751" lon="5.96946">
        <ele>578</ele>
        <time>2019-03-05T13:47:28Z</time>
      </trkpt>
      <trkpt lat="44.41755" lon="5.96954">
        <ele>578</ele>
        <time>2019-03-05T13:47:29Z</time>
      </trkpt>
      <trkpt lat="44.41759" lon="5.96962">
        <ele>578</ele>
        <time>2019-03-05T13:47:30Z</time>
      </trkpt>
      <trkpt lat="44.41763" lon="5.9697">
        <ele>578</ele>
        <time>2019-03-05T13:47:31Z</time>
      </trkpt>
      <trkpt lat="44.41767" lon="5.96977">
        <ele>578</ele>
        <time>2019-03-05T13:47:32Z</time>
      </trkpt>
      <trkpt lat="44.41771" lon="5.96985">
        <ele>578</ele>
        <time>2019-03-05T13:47:33Z</time>
      </trkpt>
      <trkpt lat="44.41775" lon="5.96992">
        <ele>578</ele>
        <time>2019-03-05T13:47:34Z</time>
      </trkpt>
      <trkpt lat="44.41779" lon="5.97">
        <ele>578</ele>
        <time>2019-03-05T13:47:35Z</time>
      </trkpt>
      <trkpt lat="44.41783" lon="5.97008">
        <ele>578</ele>
        <time>2019-03-05T13:47:36Z</time>
      </trkpt>
      <trkpt lat="44.41786" lon="5.97015">
        <ele>578</ele>
        <time>2019-03-05T13:47:37Z</time>
      </trkpt>
      <trkpt lat="44.4179" lon="5.97023">
        <ele>578</ele>
        <time>2019-03-05T13:47:38Z</time>
      </trkpt>
      <trkpt lat="44.41794" lon="5.9703">
        <ele>578</ele>
        <time>2019-03-05T13:47:39Z</time>
      </trkpt>
      <trkpt lat="44.41797" lon="5.97038">
        <ele>578</ele>
        <time>2019-03-05T13:47:40Z</time>
      </trkpt>
      <trkpt lat="44.418" lon="5.97046">
        <ele>578</ele>
        <time>2019-03-05T13:47:41Z</time>
      </trkpt>
      <trkpt lat="44.41803" lon="5.97053">
        <ele>578</ele>
        <time>2019-03-05T13:47:42Z</time>
      </trkpt>
      <trkpt lat="44.41807" lon="5.97061">
        <ele>578</ele>
        <time>2019-03-05T13:47:43Z</time>
      </trkpt>
      <trkpt lat="44.4181" lon="5.97068">
        <ele>578</ele>
        <time>2019-03-05T13:47:44Z</time>
      </trkpt>
      <trkpt lat="44.41813" lon="5.97075">
        <ele>578</ele>
        <time>2019-03-05T13:47:45Z</time>
      </trkpt>
      <trkpt lat="44.41816" lon="5.97082">
        <ele>578</ele>
        <time>2019-03-05T13:47:46Z</time>
      </trkpt>
      <trkpt lat="44.41819" lon="5.97088">
        <ele>578</ele>
        <time>2019-03-05T13:47:47Z</time>
      </trkpt>
      <trkpt lat="44.41822" lon="5.97094">
        <ele>578</ele>
        <time>2019-03-05T13:47:48Z</time>
      </trkpt>
      <trkpt lat="44.41825" lon="5.97099">
        <ele>578</ele>
        <time>2019-03-05T13:47:49Z</time>
      </trkpt>
      <trkpt lat="44.41827" lon="5.97105">
        <ele>578</ele>
        <time>2019-03-05T13:47:50Z</time>
      </trkpt>
      <trkpt lat="44.41829" lon="5.9711">
        <ele>578</ele>
        <time>2019-03-05T13:47:51Z</time>
      </trkpt>
      <trkpt lat="44.41831" lon="5.97116">
        <ele>578</ele>
        <time>2019-03-05T13:47:52Z</time>
      </trkpt>
      <trkpt lat="44.41833" lon="5.97121">
        <ele>578</ele>
        <time>2019-03-05T13:47:53Z</time>
      </trkpt>
      <trkpt lat="44.41835" lon="5.97126">
        <ele>578</ele>
        <time>2019-03-05T13:47:54Z</time>
      </trkpt>
      <trkpt lat="44.41838" lon="5.97132">
        <ele>578</ele>
        <time>2019-03-05T13:47:55Z</time>
      </trkpt>
      <trkpt lat="44.4184" lon="5.97137">
        <ele>578</ele>
        <time>2019-03-05T13:47:56Z</time>
      </trkpt>
      <trkpt lat="44.41842" lon="5.97143">
        <ele>578</ele>
        <time>2019-03-05T13:47:57Z</time>
      </trkpt>
      <trkpt lat="44.41844" lon="5.97149">
        <ele>578</ele>
        <time>2019-03-05T13:47:58Z</time>
      </trkpt>
      <trkpt lat="44.41846" lon="5.97156">
        <ele>578</ele>
        <time>2019-03-05T13:47:59Z</time>
      </trkpt>
      <trkpt lat="44.41848" lon="5.97162">
        <ele>578</ele>
        <time>2019-03-05T13:48:00Z</time>
      </trkpt>
      <trkpt lat="44.4185" lon="5.97169">
        <ele>578</ele>
        <time>2019-03-05T13:48:01Z</time>
      </trkpt>
      <trkpt lat="44.41852" lon="5.97176">
        <ele>578</ele>
        <time>2019-03-05T13:48:02Z</time>
      </trkpt>
      <trkpt lat="44.41854" lon="5.97183">
        <ele>578</ele>
        <time>2019-03-05T13:48:03Z</time>
      </trkpt>
      <trkpt lat="44.41856" lon="5.9719">
        <ele>578</ele>
        <time>2019-03-05T13:48:04Z</time>
      </trkpt>
      <trkpt lat="44.41858" lon="5.97197">
        <ele>578</ele>
        <time>2019-03-05T13:48:05Z</time>
      </trkpt>
      <trkpt lat="44.4186" lon="5.97204">
        <ele>578</ele>
        <time>2019-03-05T13:48:06Z</time>
      </trkpt>
      <trkpt lat="44.41862" lon="5.97211">
        <ele>578</ele>
        <time>2019-03-05T13:48:07Z</time>
      </trkpt>
      <trkpt lat="44.41864" lon="5.97219">
        <ele>578</ele>
        <time>2019-03-05T13:48:08Z</time>
      </trkpt>
      <trkpt lat="44.41866" lon="5.97226">
        <ele>578</ele>
        <time>2019-03-05T13:48:09Z</time>
      </trkpt>
      <trkpt lat="44.41868" lon="5.97234">
        <ele>578</ele>
        <time>2019-03-05T13:48:10Z</time>
      </trkpt>
      <trkpt lat="44.4187" lon="5.97242">
        <ele>578</ele>
        <time>2019-03-05T13:48:11Z</time>
      </trkpt>
      <trkpt lat="44.41872" lon="5.9725">
        <ele>578</ele>
        <time>2019-03-05T13:48:12Z</time>
      </trkpt>
      <trkpt lat="44.41873" lon="5.97258">
        <ele>578</ele>
        <time>2019-03-05T13:48:13Z</time>
      </trkpt>
      <trkpt lat="44.41875" lon="5.97266">
        <ele>578</ele>
        <time>2019-03-05T13:48:14Z</time>
      </trkpt>
      <trkpt lat="44.41877" lon="5.97274">
        <ele>578</ele>
        <time>2019-03-05T13:48:15Z</time>
      </trkpt>
      <trkpt lat="44.41879" lon="5.97282">
        <ele>578</ele>
        <time>2019-03-05T13:48:16Z</time>
      </trkpt>
      <trkpt lat="44.41881" lon="5.9729">
        <ele>578</ele>
        <time>2019-03-05T13:48:17Z</time>
      </trkpt>
      <trkpt lat="44.41882" lon="5.97299">
        <ele>578</ele>
        <time>2019-03-05T13:48:18Z</time>
      </trkpt>
      <trkpt lat="44.41884" lon="5.97307">
        <ele>578</ele>
        <time>2019-03-05T13:48:19Z</time>
      </trkpt>
      <trkpt lat="44.41885" lon="5.97315">
        <ele>578</ele>
        <time>2019-03-05T13:48:20Z</time>
      </trkpt>
      <trkpt lat="44.41887" lon="5.97324">
        <ele>578</ele>
        <time>2019-03-05T13:48:21Z</time>
      </trkpt>
      <trkpt lat="44.41888" lon="5.97331">
        <ele>578</ele>
        <time>2019-03-05T13:48:22Z</time>
      </trkpt>
      <trkpt lat="44.4189" lon="5.9734">
        <ele>578</ele>
        <time>2019-03-05T13:48:23Z</time>
      </trkpt>
      <trkpt lat="44.4189" lon="5.97348">
        <ele>578</ele>
        <time>2019-03-05T13:48:24Z</time>
      </trkpt>
      <trkpt lat="44.41891" lon="5.97356">
        <ele>578</ele>
        <time>2019-03-05T13:48:25Z</time>
      </trkpt>
      <trkpt lat="44.41892" lon="5.97364">
        <ele>578</ele>
        <time>2019-03-05T13:48:26Z</time>
      </trkpt>
      <trkpt lat="44.41893" lon="5.97372">
        <ele>578</ele>
        <time>2019-03-05T13:48:27Z</time>
      </trkpt>
      <trkpt lat="44.41893" lon="5.9738">
        <ele>578</ele>
        <time>2019-03-05T13:48:28Z</time>
      </trkpt>
      <trkpt lat="44.41894" lon="5.97389">
        <ele>578</ele>
        <time>2019-03-05T13:48:29Z</time>
      </trkpt>
      <trkpt lat="44.41894" lon="5.97397">
        <ele>578</ele>
        <time>2019-03-05T13:48:30Z</time>
      </trkpt>
      <trkpt lat="44.41895" lon="5.97404">
        <ele>578</ele>
        <time>2019-03-05T13:48:31Z</time>
      </trkpt>
      <trkpt lat="44.41895" lon="5.97412">
        <ele>578</ele>
        <time>2019-03-05T13:48:32Z</time>
      </trkpt>
      <trkpt lat="44.41896" lon="5.97421">
        <ele>578</ele>
        <time>2019-03-05T13:48:33Z</time>
      </trkpt>
      <trkpt lat="44.41896" lon="5.97428">
        <ele>578</ele>
        <time>2019-03-05T13:48:34Z</time>
      </trkpt>
      <trkpt lat="44.41897" lon="5.97436">
        <ele>578</ele>
        <time>2019-03-05T13:48:35Z</time>
      </trkpt>
      <trkpt lat="44.41897" lon="5.97443">
        <ele>578</ele>
        <time>2019-03-05T13:48:36Z</time>
      </trkpt>
      <trkpt lat="44.41897" lon="5.97451">
        <ele>579</ele>
        <time>2019-03-05T13:48:37Z</time>
      </trkpt>
      <trkpt lat="44.41898" lon="5.97458">
        <ele>579</ele>
        <time>2019-03-05T13:48:38Z</time>
      </trkpt>
      <trkpt lat="44.41898" lon="5.97466">
        <ele>579</ele>
        <time>2019-03-05T13:48:39Z</time>
      </trkpt>
      <trkpt lat="44.41898" lon="5.97474">
        <ele>579</ele>
        <time>2019-03-05T13:48:40Z</time>
      </trkpt>
      <trkpt lat="44.41899" lon="5.97482">
        <ele>579</ele>
        <time>2019-03-05T13:48:41Z</time>
      </trkpt>
      <trkpt lat="44.41899" lon="5.9749">
        <ele>579</ele>
        <time>2019-03-05T13:48:42Z</time>
      </trkpt>
      <trkpt lat="44.41899" lon="5.97499">
        <ele>579</ele>
        <time>2019-03-05T13:48:43Z</time>
      </trkpt>
      <trkpt lat="44.419" lon="5.97507">
        <ele>579</ele>
        <time>2019-03-05T13:48:44Z</time>
      </trkpt>
      <trkpt lat="44.41901" lon="5.97516">
        <ele>579</ele>
        <time>2019-03-05T13:48:45Z</time>
      </trkpt>
      <trkpt lat="44.41901" lon="5.97524">
        <ele>579</ele>
        <time>2019-03-05T13:48:46Z</time>
      </trkpt>
      <trkpt lat="44.41902" lon="5.97533">
        <ele>579</ele>
        <time>2019-03-05T13:48:47Z</time>
      </trkpt>
      <trkpt lat="44.41903" lon="5.97542">
        <ele>579</ele>
        <time>2019-03-05T13:48:48Z</time>
      </trkpt>
      <trkpt lat="44.41903" lon="5.9755">
        <ele>579</ele>
        <time>2019-03-05T13:48:49Z</time>
      </trkpt>
      <trkpt lat="44.41904" lon="5.97558">
        <ele>579</ele>
        <time>2019-03-05T13:48:50Z</time>
      </trkpt>
      <trkpt lat="44.41904" lon="5.97566">
        <ele>579</ele>
        <time>2019-03-05T13:48:51Z</time>
      </trkpt>
      <trkpt lat="44.41905" lon="5.97575">
        <ele>579</ele>
        <time>2019-03-05T13:48:52Z</time>
      </trkpt>
      <trkpt lat="44.41905" lon="5.97583">
        <ele>579</ele>
        <time>2019-03-05T13:48:53Z</time>
      </trkpt>
      <trkpt lat="44.41906" lon="5.97591">
        <ele>579</ele>
        <time>2019-03-05T13:48:54Z</time>
      </trkpt>
      <trkpt lat="44.41906" lon="5.97599">
        <ele>579</ele>
        <time>2019-03-05T13:48:55Z</time>
      </trkpt>
      <trkpt lat="44.41906" lon="5.97607">
        <ele>579</ele>
        <time>2019-03-05T13:48:56Z</time>
      </trkpt>
      <trkpt lat="44.41906" lon="5.97615">
        <ele>579</ele>
        <time>2019-03-05T13:48:57Z</time>
      </trkpt>
      <trkpt lat="44.41907" lon="5.97624">
        <ele>579</ele>
        <time>2019-03-05T13:48:58Z</time>
      </trkpt>
      <trkpt lat="44.41908" lon="5.97632">
        <ele>579</ele>
        <time>2019-03-05T13:48:59Z</time>
      </trkpt>
      <trkpt lat="44.41908" lon="5.9764">
        <ele>579</ele>
        <time>2019-03-05T13:49:00Z</time>
      </trkpt>
      <trkpt lat="44.41909" lon="5.97649">
        <ele>579</ele>
        <time>2019-03-05T13:49:01Z</time>
      </trkpt>
      <trkpt lat="44.41909" lon="5.97657">
        <ele>579</ele>
        <time>2019-03-05T13:49:02Z</time>
      </trkpt>
      <trkpt lat="44.41909" lon="5.97665">
        <ele>579</ele>
        <time>2019-03-05T13:49:03Z</time>
      </trkpt>
      <trkpt lat="44.4191" lon="5.97674">
        <ele>579</ele>
        <time>2019-03-05T13:49:04Z</time>
      </trkpt>
      <trkpt lat="44.4191" lon="5.97682">
        <ele>579</ele>
        <time>2019-03-05T13:49:05Z</time>
      </trkpt>
      <trkpt lat="44.41911" lon="5.9769">
        <ele>579</ele>
        <time>2019-03-05T13:49:06Z</time>
      </trkpt>
      <trkpt lat="44.41911" lon="5.97698">
        <ele>579</ele>
        <time>2019-03-05T13:49:07Z</time>
      </trkpt>
      <trkpt lat="44.41911" lon="5.97706">
        <ele>579</ele>
        <time>2019-03-05T13:49:08Z</time>
      </trkpt>
      <trkpt lat="44.41912" lon="5.97714">
        <ele>579</ele>
        <time>2019-03-05T13:49:09Z</time>
      </trkpt>
      <trkpt lat="44.41912" lon="5.97722">
        <ele>579</ele>
        <time>2019-03-05T13:49:10Z</time>
      </trkpt>
      <trkpt lat="44.41913" lon="5.9773">
        <ele>579</ele>
        <time>2019-03-05T13:49:11Z</time>
      </trkpt>
      <trkpt lat="44.41913" lon="5.97739">
        <ele>579</ele>
        <time>2019-03-05T13:49:12Z</time>
      </trkpt>
      <trkpt lat="44.41914" lon="5.97747">
        <ele>579</ele>
        <time>2019-03-05T13:49:13Z</time>
      </trkpt>
      <trkpt lat="44.41914" lon="5.97755">
        <ele>579</ele>
        <time>2019-03-05T13:49:14Z</time>
      </trkpt>
      <trkpt lat="44.41914" lon="5.97763">
        <ele>579</ele>
        <time>2019-03-05T13:49:15Z</time>
      </trkpt>
      <trkpt lat="44.41915" lon="5.97771">
        <ele>579</ele>
        <time>2019-03-05T13:49:16Z</time>
      </trkpt>
      <trkpt lat="44.41915" lon="5.9778">
        <ele>579</ele>
        <time>2019-03-05T13:49:17Z</time>
      </trkpt>
      <trkpt lat="44.41916" lon="5.97788">
        <ele>579</ele>
        <time>2019-03-05T13:49:18Z</time>
      </trkpt>
      <trkpt lat="44.41916" lon="5.97796">
        <ele>579</ele>
        <time>2019-03-05T13:49:19Z</time>
      </trkpt>
      <trkpt lat="44.41916" lon="5.97805">
        <ele>579</ele>
        <time>2019-03-05T13:49:20Z</time>
      </trkpt>
      <trkpt lat="44.41917" lon="5.97813">
        <ele>579</ele>
        <time>2019-03-05T13:49:21Z</time>
      </trkpt>
      <trkpt lat="44.41917" lon="5.97822">
        <ele>579</ele>
        <time>2019-03-05T13:49:22Z</time>
      </trkpt>
      <trkpt lat="44.41917" lon="5.9783">
        <ele>579</ele>
        <time>2019-03-05T13:49:23Z</time>
      </trkpt>
      <trkpt lat="44.41918" lon="5.97838">
        <ele>579</ele>
        <time>2019-03-05T13:49:24Z</time>
      </trkpt>
      <trkpt lat="44.41918" lon="5.97847">
        <ele>579</ele>
        <time>2019-03-05T13:49:25Z</time>
      </trkpt>
      <trkpt lat="44.41918" lon="5.97856">
        <ele>579</ele>
        <time>2019-03-05T13:49:26Z</time>
      </trkpt>
      <trkpt lat="44.41919" lon="5.97864">
        <ele>579</ele>
        <time>2019-03-05T13:49:27Z</time>
      </trkpt>
      <trkpt lat="44.41919" lon="5.97872">
        <ele>579</ele>
        <time>2019-03-05T13:49:28Z</time>
      </trkpt>
      <trkpt lat="44.41919" lon="5.97881">
        <ele>579</ele>
        <time>2019-03-05T13:49:29Z</time>
      </trkpt>
      <trkpt lat="44.4192" lon="5.9789">
        <ele>579</ele>
        <time>2019-03-05T13:49:30Z</time>
      </trkpt>
      <trkpt lat="44.4192" lon="5.97898">
        <ele>579</ele>
        <time>2019-03-05T13:49:31Z</time>
      </trkpt>
      <trkpt lat="44.4192" lon="5.97906">
        <ele>579</ele>
        <time>2019-03-05T13:49:32Z</time>
      </trkpt>
      <trkpt lat="44.41921" lon="5.97915">
        <ele>579</ele>
        <time>2019-03-05T13:49:33Z</time>
      </trkpt>
      <trkpt lat="44.41921" lon="5.97923">
        <ele>579</ele>
        <time>2019-03-05T13:49:34Z</time>
      </trkpt>
      <trkpt lat="44.41921" lon="5.97931">
        <ele>579</ele>
        <time>2019-03-05T13:49:35Z</time>
      </trkpt>
      <trkpt lat="44.41922" lon="5.97939">
        <ele>579</ele>
        <time>2019-03-05T13:49:36Z</time>
      </trkpt>
      <trkpt lat="44.41922" lon="5.97948">
        <ele>579</ele>
        <time>2019-03-05T13:49:37Z</time>
      </trkpt>
      <trkpt lat="44.41922" lon="5.97955">
        <ele>579</ele>
        <time>2019-03-05T13:49:38Z</time>
      </trkpt>
      <trkpt lat="44.41922" lon="5.97963">
        <ele>579</ele>
        <time>2019-03-05T13:49:39Z</time>
      </trkpt>
      <trkpt lat="44.41922" lon="5.97971">
        <ele>579</ele>
        <time>2019-03-05T13:49:40Z</time>
      </trkpt>
      <trkpt lat="44.41922" lon="5.97978">
        <ele>579</ele>
        <time>2019-03-05T13:49:41Z</time>
      </trkpt>
      <trkpt lat="44.41923" lon="5.97987">
        <ele>579</ele>
        <time>2019-03-05T13:49:42Z</time>
      </trkpt>
      <trkpt lat="44.41923" lon="5.97995">
        <ele>579</ele>
        <time>2019-03-05T13:49:43Z</time>
      </trkpt>
      <trkpt lat="44.41923" lon="5.98002">
        <ele>579</ele>
        <time>2019-03-05T13:49:44Z</time>
      </trkpt>
      <trkpt lat="44.41923" lon="5.9801">
        <ele>579</ele>
        <time>2019-03-05T13:49:45Z</time>
      </trkpt>
      <trkpt lat="44.41924" lon="5.98019">
        <ele>579</ele>
        <time>2019-03-05T13:49:46Z</time>
      </trkpt>
      <trkpt lat="44.41924" lon="5.98027">
        <ele>579</ele>
        <time>2019-03-05T13:49:47Z</time>
      </trkpt>
      <trkpt lat="44.41924" lon="5.98035">
        <ele>579</ele>
        <time>2019-03-05T13:49:48Z</time>
      </trkpt>
      <trkpt lat="44.41924" lon="5.98043">
        <ele>579</ele>
        <time>2019-03-05T13:49:49Z</time>
      </trkpt>
      <trkpt lat="44.41925" lon="5.98051">
        <ele>579</ele>
        <time>2019-03-05T13:49:50Z</time>
      </trkpt>
      <trkpt lat="44.41925" lon="5.98059">
        <ele>579</ele>
        <time>2019-03-05T13:49:51Z</time>
      </trkpt>
      <trkpt lat="44.41925" lon="5.98068">
        <ele>579</ele>
        <time>2019-03-05T13:49:52Z</time>
      </trkpt>
      <trkpt lat="44.41925" lon="5.98076">
        <ele>579</ele>
        <time>2019-03-05T13:49:53Z</time>
      </trkpt>
      <trkpt lat="44.41926" lon="5.98084">
        <ele>579</ele>
        <time>2019-03-05T13:49:54Z</time>
      </trkpt>
      <trkpt lat="44.41926" lon="5.98092">
        <ele>579</ele>
        <time>2019-03-05T13:49:55Z</time>
      </trkpt>
      <trkpt lat="44.41926" lon="5.981">
        <ele>579</ele>
        <time>2019-03-05T13:49:56Z</time>
      </trkpt>
      <trkpt lat="44.41927" lon="5.98107">
        <ele>579</ele>
        <time>2019-03-05T13:49:57Z</time>
      </trkpt>
      <trkpt lat="44.41927" lon="5.98115">
        <ele>579</ele>
        <time>2019-03-05T13:49:58Z</time>
      </trkpt>
      <trkpt lat="44.41927" lon="5.98123">
        <ele>579</ele>
        <time>2019-03-05T13:49:59Z</time>
      </trkpt>
      <trkpt lat="44.41927" lon="5.98131">
        <ele>579</ele>
        <time>2019-03-05T13:50:00Z</time>
      </trkpt>
      <trkpt lat="44.41928" lon="5.98139">
        <ele>579</ele>
        <time>2019-03-05T13:50:01Z</time>
      </trkpt>
      <trkpt lat="44.41928" lon="5.98147">
        <ele>579</ele>
        <time>2019-03-05T13:50:02Z</time>
      </trkpt>
      <trkpt lat="44.41929" lon="5.98156">
        <ele>579</ele>
        <time>2019-03-05T13:50:03Z</time>
      </trkpt>
      <trkpt lat="44.4193" lon="5.98165">
        <ele>579</ele>
        <time>2019-03-05T13:50:04Z</time>
      </trkpt>
      <trkpt lat="44.4193" lon="5.98174">
        <ele>579</ele>
        <time>2019-03-05T13:50:05Z</time>
      </trkpt>
      <trkpt lat="44.41931" lon="5.98183">
        <ele>579</ele>
        <time>2019-03-05T13:50:06Z</time>
      </trkpt>
      <trkpt lat="44.41932" lon="5.98192">
        <ele>579</ele>
        <time>2019-03-05T13:50:07Z</time>
      </trkpt>
      <trkpt lat="44.41933" lon="5.98202">
        <ele>579</ele>
        <time>2019-03-05T13:50:08Z</time>
      </trkpt>
      <trkpt lat="44.41934" lon="5.98211">
        <ele>579</ele>
        <time>2019-03-05T13:50:09Z</time>
      </trkpt>
      <trkpt lat="44.41934" lon="5.9822">
        <ele>579</ele>
        <time>2019-03-05T13:50:10Z</time>
      </trkpt>
      <trkpt lat="44.41935" lon="5.98229">
        <ele>579</ele>
        <time>2019-03-05T13:50:11Z</time>
      </trkpt>
      <trkpt lat="44.41935" lon="5.98239">
        <ele>579</ele>
        <time>2019-03-05T13:50:12Z</time>
      </trkpt>
      <trkpt lat="44.41935" lon="5.98248">
        <ele>579</ele>
        <time>2019-03-05T13:50:13Z</time>
      </trkpt>
      <trkpt lat="44.41935" lon="5.98257">
        <ele>579</ele>
        <time>2019-03-05T13:50:14Z</time>
      </trkpt>
      <trkpt lat="44.41935" lon="5.98266">
        <ele>579</ele>
        <time>2019-03-05T13:50:15Z</time>
      </trkpt>
      <trkpt lat="44.41935" lon="5.98275">
        <ele>579</ele>
        <time>2019-03-05T13:50:16Z</time>
      </trkpt>
      <trkpt lat="44.41936" lon="5.98284">
        <ele>579</ele>
        <time>2019-03-05T13:50:17Z</time>
      </trkpt>
      <trkpt lat="44.41936" lon="5.98293">
        <ele>579</ele>
        <time>2019-03-05T13:50:18Z</time>
      </trkpt>
      <trkpt lat="44.41936" lon="5.98303">
        <ele>579</ele>
        <time>2019-03-05T13:50:19Z</time>
      </trkpt>
      <trkpt lat="44.41937" lon="5.98312">
        <ele>579</ele>
        <time>2019-03-05T13:50:20Z</time>
      </trkpt>
      <trkpt lat="44.41937" lon="5.98321">
        <ele>579</ele>
        <time>2019-03-05T13:50:21Z</time>
      </trkpt>
      <trkpt lat="44.41938" lon="5.9833">
        <ele>579</ele>
        <time>2019-03-05T13:50:22Z</time>
      </trkpt>
      <trkpt lat="44.41938" lon="5.98339">
        <ele>579</ele>
        <time>2019-03-05T13:50:23Z</time>
      </trkpt>
      <trkpt lat="44.41938" lon="5.98348">
        <ele>579</ele>
        <time>2019-03-05T13:50:24Z</time>
      </trkpt>
      <trkpt lat="44.41938" lon="5.98357">
        <ele>579</ele>
        <time>2019-03-05T13:50:25Z</time>
      </trkpt>
      <trkpt lat="44.41939" lon="5.98366">
        <ele>579</ele>
        <time>2019-03-05T13:50:26Z</time>
      </trkpt>
      <trkpt lat="44.41939" lon="5.98375">
        <ele>579</ele>
        <time>2019-03-05T13:50:27Z</time>
      </trkpt>
      <trkpt lat="44.4194" lon="5.98384">
        <ele>579</ele>
        <time>2019-03-05T13:50:28Z</time>
      </trkpt>
      <trkpt lat="44.4194" lon="5.98392">
        <ele>579</ele>
        <time>2019-03-05T13:50:29Z</time>
      </trkpt>
      <trkpt lat="44.4194" lon="5.98401">
        <ele>579</ele>
        <time>2019-03-05T13:50:30Z</time>
      </trkpt>
      <trkpt lat="44.41941" lon="5.9841">
        <ele>579</ele>
        <time>2019-03-05T13:50:31Z</time>
      </trkpt>
      <trkpt lat="44.41941" lon="5.98419">
        <ele>579</ele>
        <time>2019-03-05T13:50:32Z</time>
      </trkpt>
      <trkpt lat="44.41941" lon="5.98428">
        <ele>579</ele>
        <time>2019-03-05T13:50:33Z</time>
      </trkpt>
      <trkpt lat="44.41942" lon="5.98437">
        <ele>579</ele>
        <time>2019-03-05T13:50:34Z</time>
      </trkpt>
      <trkpt lat="44.41942" lon="5.98446">
        <ele>579</ele>
        <time>2019-03-05T13:50:35Z</time>
      </trkpt>
      <trkpt lat="44.41942" lon="5.98455">
        <ele>579</ele>
        <time>2019-03-05T13:50:36Z</time>
      </trkpt>
      <trkpt lat="44.41943" lon="5.98464">
        <ele>579</ele>
        <time>2019-03-05T13:50:37Z</time>
      </trkpt>
      <trkpt lat="44.41943" lon="5.98473">
        <ele>579</ele>
        <time>2019-03-05T13:50:38Z</time>
      </trkpt>
      <trkpt lat="44.41944" lon="5.98481">
        <ele>579</ele>
        <time>2019-03-05T13:50:39Z</time>
      </trkpt>
      <trkpt lat="44.41944" lon="5.9849">
        <ele>579</ele>
        <time>2019-03-05T13:50:40Z</time>
      </trkpt>
      <trkpt lat="44.41945" lon="5.98498">
        <ele>579</ele>
        <time>2019-03-05T13:50:41Z</time>
      </trkpt>
      <trkpt lat="44.41945" lon="5.98507">
        <ele>579</ele>
        <time>2019-03-05T13:50:42Z</time>
      </trkpt>
      <trkpt lat="44.41945" lon="5.98516">
        <ele>579</ele>
        <time>2019-03-05T13:50:43Z</time>
      </trkpt>
      <trkpt lat="44.41946" lon="5.98524">
        <ele>579</ele>
        <time>2019-03-05T13:50:44Z</time>
      </trkpt>
      <trkpt lat="44.41946" lon="5.98532">
        <ele>579</ele>
        <time>2019-03-05T13:50:45Z</time>
      </trkpt>
      <trkpt lat="44.41947" lon="5.98541">
        <ele>579</ele>
        <time>2019-03-05T13:50:46Z</time>
      </trkpt>
      <trkpt lat="44.41947" lon="5.9855">
        <ele>579</ele>
        <time>2019-03-05T13:50:47Z</time>
      </trkpt>
      <trkpt lat="44.41948" lon="5.98558">
        <ele>579</ele>
        <time>2019-03-05T13:50:48Z</time>
      </trkpt>
      <trkpt lat="44.41948" lon="5.98567">
        <ele>579</ele>
        <time>2019-03-05T13:50:49Z</time>
      </trkpt>
      <trkpt lat="44.41948" lon="5.98575">
        <ele>579</ele>
        <time>2019-03-05T13:50:50Z</time>
      </trkpt>
      <trkpt lat="44.41949" lon="5.98584">
        <ele>579</ele>
        <time>2019-03-05T13:50:51Z</time>
      </trkpt>
      <trkpt lat="44.41949" lon="5.98593">
        <ele>579</ele>
        <time>2019-03-05T13:50:52Z</time>
      </trkpt>
      <trkpt lat="44.41949" lon="5.98601">
        <ele>579</ele>
        <time>2019-03-05T13:50:53Z</time>
      </trkpt>
      <trkpt lat="44.41949" lon="5.9861">
        <ele>579</ele>
        <time>2019-03-05T13:50:54Z</time>
      </trkpt>
      <trkpt lat="44.4195" lon="5.98619">
        <ele>579</ele>
        <time>2019-03-05T13:50:55Z</time>
      </trkpt>
      <trkpt lat="44.4195" lon="5.98628">
        <ele>579</ele>
        <time>2019-03-05T13:50:56Z</time>
      </trkpt>
      <trkpt lat="44.41951" lon="5.98635">
        <ele>579</ele>
        <time>2019-03-05T13:50:57Z</time>
      </trkpt>
      <trkpt lat="44.41951" lon="5.98644">
        <ele>579</ele>
        <time>2019-03-05T13:50:58Z</time>
      </trkpt>
      <trkpt lat="44.41951" lon="5.98653">
        <ele>579</ele>
        <time>2019-03-05T13:50:59Z</time>
      </trkpt>
      <trkpt lat="44.41951" lon="5.98661">
        <ele>579</ele>
        <time>2019-03-05T13:51:00Z</time>
      </trkpt>
      <trkpt lat="44.41951" lon="5.9867">
        <ele>579</ele>
        <time>2019-03-05T13:51:01Z</time>
      </trkpt>
      <trkpt lat="44.41952" lon="5.98678">
        <ele>579</ele>
        <time>2019-03-05T13:51:02Z</time>
      </trkpt>
      <trkpt lat="44.41952" lon="5.98687">
        <ele>579</ele>
        <time>2019-03-05T13:51:03Z</time>
      </trkpt>
      <trkpt lat="44.41952" lon="5.98695">
        <ele>579</ele>
        <time>2019-03-05T13:51:04Z</time>
      </trkpt>
      <trkpt lat="44.41952" lon="5.98703">
        <ele>579</ele>
        <time>2019-03-05T13:51:05Z</time>
      </trkpt>
      <trkpt lat="44.41951" lon="5.98711">
        <ele>579</ele>
        <time>2019-03-05T13:51:06Z</time>
      </trkpt>
      <trkpt lat="44.41951" lon="5.9872">
        <ele>579</ele>
        <time>2019-03-05T13:51:07Z</time>
      </trkpt>
      <trkpt lat="44.41951" lon="5.98728">
        <ele>579</ele>
        <time>2019-03-05T13:51:08Z</time>
      </trkpt>
      <trkpt lat="44.4195" lon="5.98737">
        <ele>579</ele>
        <time>2019-03-05T13:51:09Z</time>
      </trkpt>
      <trkpt lat="44.41949" lon="5.98745">
        <ele>579</ele>
        <time>2019-03-05T13:51:10Z</time>
      </trkpt>
      <trkpt lat="44.41948" lon="5.98754">
        <ele>579</ele>
        <time>2019-03-05T13:51:11Z</time>
      </trkpt>
      <trkpt lat="44.41947" lon="5.98762">
        <ele>579</ele>
        <time>2019-03-05T13:51:12Z</time>
      </trkpt>
      <trkpt lat="44.41946" lon="5.98771">
        <ele>579</ele>
        <time>2019-03-05T13:51:13Z</time>
      </trkpt>
      <trkpt lat="44.41945" lon="5.98779">
        <ele>579</ele>
        <time>2019-03-05T13:51:14Z</time>
      </trkpt>
      <trkpt lat="44.41943" lon="5.98787">
        <ele>579</ele>
        <time>2019-03-05T13:51:15Z</time>
      </trkpt>
      <trkpt lat="44.41941" lon="5.98795">
        <ele>579</ele>
        <time>2019-03-05T13:51:16Z</time>
      </trkpt>
      <trkpt lat="44.41939" lon="5.98803">
        <ele>579</ele>
        <time>2019-03-05T13:51:17Z</time>
      </trkpt>
      <trkpt lat="44.41937" lon="5.98811">
        <ele>579</ele>
        <time>2019-03-05T13:51:18Z</time>
      </trkpt>
      <trkpt lat="44.41935" lon="5.98819">
        <ele>579</ele>
        <time>2019-03-05T13:51:19Z</time>
      </trkpt>
      <trkpt lat="44.41933" lon="5.98827">
        <ele>579</ele>
        <time>2019-03-05T13:51:20Z</time>
      </trkpt>
      <trkpt lat="44.41931" lon="5.98835">
        <ele>579</ele>
        <time>2019-03-05T13:51:21Z</time>
      </trkpt>
      <trkpt lat="44.41928" lon="5.98842">
        <ele>579</ele>
        <time>2019-03-05T13:51:22Z</time>
      </trkpt>
      <trkpt lat="44.41925" lon="5.9885">
        <ele>579</ele>
        <time>2019-03-05T13:51:23Z</time>
      </trkpt>
      <trkpt lat="44.41922" lon="5.98857">
        <ele>579</ele>
        <time>2019-03-05T13:51:24Z</time>
      </trkpt>
      <trkpt lat="44.41919" lon="5.98864">
        <ele>579</ele>
        <time>2019-03-05T13:51:25Z</time>
      </trkpt>
      <trkpt lat="44.41916" lon="5.98871">
        <ele>579</ele>
        <time>2019-03-05T13:51:26Z</time>
      </trkpt>
      <trkpt lat="44.41913" lon="5.98878">
        <ele>579</ele>
        <time>2019-03-05T13:51:27Z</time>
      </trkpt>
      <trkpt lat="44.4191" lon="5.98885">
        <ele>579</ele>
        <time>2019-03-05T13:51:28Z</time>
      </trkpt>
      <trkpt lat="44.41907" lon="5.98891">
        <ele>579</ele>
        <time>2019-03-05T13:51:29Z</time>
      </trkpt>
      <trkpt lat="44.41904" lon="5.98899">
        <ele>579</ele>
        <time>2019-03-05T13:51:30Z</time>
      </trkpt>
      <trkpt lat="44.41902" lon="5.98906">
        <ele>579</ele>
        <time>2019-03-05T13:51:31Z</time>
      </trkpt>
      <trkpt lat="44.41901" lon="5.98915">
        <ele>579</ele>
        <time>2019-03-05T13:51:32Z</time>
      </trkpt>
      <trkpt lat="44.41902" lon="5.98923">
        <ele>579</ele>
        <time>2019-03-05T13:51:33Z</time>
      </trkpt>
      <trkpt lat="44.41903" lon="5.98932">
        <ele>579</ele>
        <time>2019-03-05T13:51:34Z</time>
      </trkpt>
      <trkpt lat="44.41905" lon="5.9894">
        <ele>579</ele>
        <time>2019-03-05T13:51:35Z</time>
      </trkpt>
      <trkpt lat="44.41908" lon="5.98949">
        <ele>579</ele>
        <time>2019-03-05T13:51:36Z</time>
      </trkpt>
      <trkpt lat="44.4191" lon="5.98957">
        <ele>579</ele>
        <time>2019-03-05T13:51:37Z</time>
      </trkpt>
      <trkpt lat="44.41913" lon="5.98966">
        <ele>579</ele>
        <time>2019-03-05T13:51:38Z</time>
      </trkpt>
      <trkpt lat="44.41916" lon="5.98974">
        <ele>579</ele>
        <time>2019-03-05T13:51:39Z</time>
      </trkpt>
      <trkpt lat="44.41918" lon="5.98983">
        <ele>579</ele>
        <time>2019-03-05T13:51:40Z</time>
      </trkpt>
      <trkpt lat="44.41921" lon="5.98991">
        <ele>579</ele>
        <time>2019-03-05T13:51:41Z</time>
      </trkpt>
      <trkpt lat="44.41924" lon="5.99001">
        <ele>579</ele>
        <time>2019-03-05T13:51:42Z</time>
      </trkpt>
      <trkpt lat="44.41927" lon="5.9901">
        <ele>579</ele>
        <time>2019-03-05T13:51:43Z</time>
      </trkpt>
      <trkpt lat="44.4193" lon="5.99019">
        <ele>579</ele>
        <time>2019-03-05T13:51:44Z</time>
      </trkpt>
      <trkpt lat="44.41933" lon="5.99028">
        <ele>579</ele>
        <time>2019-03-05T13:51:45Z</time>
      </trkpt>
      <trkpt lat="44.41936" lon="5.99037">
        <ele>579</ele>
        <time>2019-03-05T13:51:46Z</time>
      </trkpt>
      <trkpt lat="44.41939" lon="5.99047">
        <ele>579</ele>
        <time>2019-03-05T13:51:47Z</time>
      </trkpt>
      <trkpt lat="44.41942" lon="5.99056">
        <ele>579</ele>
        <time>2019-03-05T13:51:48Z</time>
      </trkpt>
      <trkpt lat="44.41945" lon="5.99065">
        <ele>579</ele>
        <time>2019-03-05T13:51:49Z</time>
      </trkpt>
      <trkpt lat="44.41948" lon="5.99074">
        <ele>579</ele>
        <time>2019-03-05T13:51:50Z</time>
      </trkpt>
      <trkpt lat="44.41951" lon="5.99083">
        <ele>579</ele>
        <time>2019-03-05T13:51:51Z</time>
      </trkpt>
      <trkpt lat="44.41954" lon="5.99091">
        <ele>579</ele>
        <time>2019-03-05T13:51:52Z</time>
      </trkpt>
      <trkpt lat="44.41957" lon="5.991">
        <ele>579</ele>
        <time>2019-03-05T13:51:53Z</time>
      </trkpt>
      <trkpt lat="44.4196" lon="5.99109">
        <ele>579</ele>
        <time>2019-03-05T13:51:54Z</time>
      </trkpt>
      <trkpt lat="44.41963" lon="5.99118">
        <ele>579</ele>
        <time>2019-03-05T13:51:55Z</time>
      </trkpt>
      <trkpt lat="44.41965" lon="5.99126">
        <ele>579</ele>
        <time>2019-03-05T13:51:56Z</time>
      </trkpt>
      <trkpt lat="44.41968" lon="5.99134">
        <ele>579</ele>
        <time>2019-03-05T13:51:57Z</time>
      </trkpt>
      <trkpt lat="44.41971" lon="5.99143">
        <ele>579</ele>
        <time>2019-03-05T13:51:58Z</time>
      </trkpt>
      <trkpt lat="44.41973" lon="5.99151">
        <ele>579</ele>
        <time>2019-03-05T13:51:59Z</time>
      </trkpt>
      <trkpt lat="44.41976" lon="5.99159">
        <ele>579</ele>
        <time>2019-03-05T13:52:00Z</time>
      </trkpt>
      <trkpt lat="44.41978" lon="5.99167">
        <ele>579</ele>
        <time>2019-03-05T13:52:01Z</time>
      </trkpt>
      <trkpt lat="44.41981" lon="5.99175">
        <ele>579</ele>
        <time>2019-03-05T13:52:02Z</time>
      </trkpt>
      <trkpt lat="44.41984" lon="5.99184">
        <ele>579</ele>
        <time>2019-03-05T13:52:03Z</time>
      </trkpt>
      <trkpt lat="44.41987" lon="5.99192">
        <ele>579</ele>
        <time>2019-03-05T13:52:04Z</time>
      </trkpt>
      <trkpt lat="44.4199" lon="5.992">
        <ele>579</ele>
        <time>2019-03-05T13:52:05Z</time>
      </trkpt>
      <trkpt lat="44.41992" lon="5.99208">
        <ele>579</ele>
        <time>2019-03-05T13:52:06Z</time>
      </trkpt>
      <trkpt lat="44.41994" lon="5.99216">
        <ele>579</ele>
        <time>2019-03-05T13:52:07Z</time>
      </trkpt>
      <trkpt lat="44.41996" lon="5.99224">
        <ele>579</ele>
        <time>2019-03-05T13:52:08Z</time>
      </trkpt>
      <trkpt lat="44.41999" lon="5.99232">
        <ele>579</ele>
        <time>2019-03-05T13:52:09Z</time>
      </trkpt>
      <trkpt lat="44.42001" lon="5.99239">
        <ele>579</ele>
        <time>2019-03-05T13:52:10Z</time>
      </trkpt>
      <trkpt lat="44.42003" lon="5.99246">
        <ele>579</ele>
        <time>2019-03-05T13:52:11Z</time>
      </trkpt>
      <trkpt lat="44.42005" lon="5.99253">
        <ele>579</ele>
        <time>2019-03-05T13:52:12Z</time>
      </trkpt>
      <trkpt lat="44.42008" lon="5.9926">
        <ele>579</ele>
        <time>2019-03-05T13:52:13Z</time>
      </trkpt>
      <trkpt lat="44.4201" lon="5.99267">
        <ele>579</ele>
        <time>2019-03-05T13:52:14Z</time>
      </trkpt>
      <trkpt lat="44.42012" lon="5.99274">
        <ele>579</ele>
        <time>2019-03-05T13:52:15Z</time>
      </trkpt>
      <trkpt lat="44.42015" lon="5.99281">
        <ele>579</ele>
        <time>2019-03-05T13:52:16Z</time>
      </trkpt>
      <trkpt lat="44.42017" lon="5.99287">
        <ele>579</ele>
        <time>2019-03-05T13:52:17Z</time>
      </trkpt>
      <trkpt lat="44.42019" lon="5.99294">
        <ele>579</ele>
        <time>2019-03-05T13:52:18Z</time>
      </trkpt>
      <trkpt lat="44.42021" lon="5.993">
        <ele>579</ele>
        <time>2019-03-05T13:52:19Z</time>
      </trkpt>
      <trkpt lat="44.42023" lon="5.99306">
        <ele>579</ele>
        <time>2019-03-05T13:52:20Z</time>
      </trkpt>
      <trkpt lat="44.42025" lon="5.99312">
        <ele>579</ele>
        <time>2019-03-05T13:52:21Z</time>
      </trkpt>
      <trkpt lat="44.42027" lon="5.99319">
        <ele>579</ele>
        <time>2019-03-05T13:52:22Z</time>
      </trkpt>
      <trkpt lat="44.42029" lon="5.99325">
        <ele>579</ele>
        <time>2019-03-05T13:52:23Z</time>
      </trkpt>
      <trkpt lat="44.42031" lon="5.99331">
        <ele>579</ele>
        <time>2019-03-05T13:52:24Z</time>
      </trkpt>
      <trkpt lat="44.42033" lon="5.99336">
        <ele>580</ele>
        <time>2019-03-05T13:52:25Z</time>
      </trkpt>
      <trkpt lat="44.42035" lon="5.99342">
        <ele>580</ele>
        <time>2019-03-05T13:52:26Z</time>
      </trkpt>
      <trkpt lat="44.42037" lon="5.99347">
        <ele>580</ele>
        <time>2019-03-05T13:52:27Z</time>
      </trkpt>
      <trkpt lat="44.42039" lon="5.99353">
        <ele>580</ele>
        <time>2019-03-05T13:52:28Z</time>
      </trkpt>
      <trkpt lat="44.42041" lon="5.99358">
        <ele>581</ele>
        <time>2019-03-05T13:52:29Z</time>
      </trkpt>
      <trkpt lat="44.42043" lon="5.99364">
        <ele>581</ele>
        <time>2019-03-05T13:52:30Z</time>
      </trkpt>
      <trkpt lat="44.42045" lon="5.99368">
        <ele>581</ele>
        <time>2019-03-05T13:52:31Z</time>
      </trkpt>
      <trkpt lat="44.42047" lon="5.99373">
        <ele>581</ele>
        <time>2019-03-05T13:52:32Z</time>
      </trkpt>
      <trkpt lat="44.42049" lon="5.99376">
        <ele>582</ele>
        <time>2019-03-05T13:52:33Z</time>
      </trkpt>
      <trkpt lat="44.4205" lon="5.99379">
        <ele>582</ele>
        <time>2019-03-05T13:52:34Z</time>
      </trkpt>
      <trkpt lat="44.42052" lon="5.99383">
        <ele>582</ele>
        <time>2019-03-05T13:52:35Z</time>
      </trkpt>
      <trkpt lat="44.42053" lon="5.99387">
        <ele>582</ele>
        <time>2019-03-05T13:52:36Z</time>
      </trkpt>
      <trkpt lat="44.42054" lon="5.99392">
        <ele>582</ele>
        <time>2019-03-05T13:52:37Z</time>
      </trkpt>
      <trkpt lat="44.42055" lon="5.99397">
        <ele>582</ele>
        <time>2019-03-05T13:52:38Z</time>
      </trkpt>
      <trkpt lat="44.42055" lon="5.99403">
        <ele>582</ele>
        <time>2019-03-05T13:52:39Z</time>
      </trkpt>
      <trkpt lat="44.42055" lon="5.9941">
        <ele>582</ele>
        <time>2019-03-05T13:52:40Z</time>
      </trkpt>
      <trkpt lat="44.42055" lon="5.99418">
        <ele>582</ele>
        <time>2019-03-05T13:52:41Z</time>
      </trkpt>
      <trkpt lat="44.42056" lon="5.99427">
        <ele>582</ele>
        <time>2019-03-05T13:52:42Z</time>
      </trkpt>
      <trkpt lat="44.42059" lon="5.99435">
        <ele>582</ele>
        <time>2019-03-05T13:52:43Z</time>
      </trkpt>
      <trkpt lat="44.42062" lon="5.99443">
        <ele>582</ele>
        <time>2019-03-05T13:52:44Z</time>
      </trkpt>
      <trkpt lat="44.42065" lon="5.99451">
        <ele>582</ele>
        <time>2019-03-05T13:52:45Z</time>
      </trkpt>
      <trkpt lat="44.42069" lon="5.99459">
        <ele>582</ele>
        <time>2019-03-05T13:52:46Z</time>
      </trkpt>
      <trkpt lat="44.42073" lon="5.99467">
        <ele>582</ele>
        <time>2019-03-05T13:52:47Z</time>
      </trkpt>
      <trkpt lat="44.42076" lon="5.99475">
        <ele>582</ele>
        <time>2019-03-05T13:52:48Z</time>
      </trkpt>
      <trkpt lat="44.4208" lon="5.99484">
        <ele>582</ele>
        <time>2019-03-05T13:52:49Z</time>
      </trkpt>
      <trkpt lat="44.42083" lon="5.99493">
        <ele>582</ele>
        <time>2019-03-05T13:52:50Z</time>
      </trkpt>
      <trkpt lat="44.42086" lon="5.99501">
        <ele>582</ele>
        <time>2019-03-05T13:52:51Z</time>
      </trkpt>
      <trkpt lat="44.42089" lon="5.9951">
        <ele>582</ele>
        <time>2019-03-05T13:52:52Z</time>
      </trkpt>
      <trkpt lat="44.42092" lon="5.99519">
        <ele>582</ele>
        <time>2019-03-05T13:52:53Z</time>
      </trkpt>
      <trkpt lat="44.42095" lon="5.99528">
        <ele>582</ele>
        <time>2019-03-05T13:52:54Z</time>
      </trkpt>
      <trkpt lat="44.42098" lon="5.99537">
        <ele>582</ele>
        <time>2019-03-05T13:52:55Z</time>
      </trkpt>
      <trkpt lat="44.42101" lon="5.99546">
        <ele>582</ele>
        <time>2019-03-05T13:52:56Z</time>
      </trkpt>
      <trkpt lat="44.42104" lon="5.99555">
        <ele>582</ele>
        <time>2019-03-05T13:52:57Z</time>
      </trkpt>
      <trkpt lat="44.42107" lon="5.99564">
        <ele>582</ele>
        <time>2019-03-05T13:52:58Z</time>
      </trkpt>
      <trkpt lat="44.4211" lon="5.99573">
        <ele>582</ele>
        <time>2019-03-05T13:52:59Z</time>
      </trkpt>
      <trkpt lat="44.42113" lon="5.99582">
        <ele>582</ele>
        <time>2019-03-05T13:53:00Z</time>
      </trkpt>
      <trkpt lat="44.42116" lon="5.9959">
        <ele>582</ele>
        <time>2019-03-05T13:53:01Z</time>
      </trkpt>
      <trkpt lat="44.42119" lon="5.99599">
        <ele>582</ele>
        <time>2019-03-05T13:53:02Z</time>
      </trkpt>
      <trkpt lat="44.42122" lon="5.99608">
        <ele>582</ele>
        <time>2019-03-05T13:53:03Z</time>
      </trkpt>
      <trkpt lat="44.42125" lon="5.99617">
        <ele>582</ele>
        <time>2019-03-05T13:53:04Z</time>
      </trkpt>
      <trkpt lat="44.42128" lon="5.99626">
        <ele>582</ele>
        <time>2019-03-05T13:53:05Z</time>
      </trkpt>
      <trkpt lat="44.42131" lon="5.99635">
        <ele>582</ele>
        <time>2019-03-05T13:53:06Z</time>
      </trkpt>
      <trkpt lat="44.42134" lon="5.99644">
        <ele>582</ele>
        <time>2019-03-05T13:53:07Z</time>
      </trkpt>
      <trkpt lat="44.42136" lon="5.99652">
        <ele>582</ele>
        <time>2019-03-05T13:53:08Z</time>
      </trkpt>
      <trkpt lat="44.42139" lon="5.99661">
        <ele>582</ele>
        <time>2019-03-05T13:53:09Z</time>
      </trkpt>
      <trkpt lat="44.42142" lon="5.99669">
        <ele>582</ele>
        <time>2019-03-05T13:53:10Z</time>
      </trkpt>
      <trkpt lat="44.42145" lon="5.99677">
        <ele>582</ele>
        <time>2019-03-05T13:53:11Z</time>
      </trkpt>
      <trkpt lat="44.42148" lon="5.99685">
        <ele>582</ele>
        <time>2019-03-05T13:53:12Z</time>
      </trkpt>
      <trkpt lat="44.42151" lon="5.99694">
        <ele>582</ele>
        <time>2019-03-05T13:53:13Z</time>
      </trkpt>
      <trkpt lat="44.42153" lon="5.99701">
        <ele>582</ele>
        <time>2019-03-05T13:53:14Z</time>
      </trkpt>
      <trkpt lat="44.42156" lon="5.9971">
        <ele>582</ele>
        <time>2019-03-05T13:53:15Z</time>
      </trkpt>
      <trkpt lat="44.42158" lon="5.99717">
        <ele>582</ele>
        <time>2019-03-05T13:53:16Z</time>
      </trkpt>
      <trkpt lat="44.4216" lon="5.99725">
        <ele>582</ele>
        <time>2019-03-05T13:53:17Z</time>
      </trkpt>
      <trkpt lat="44.42162" lon="5.99733">
        <ele>582</ele>
        <time>2019-03-05T13:53:18Z</time>
      </trkpt>
      <trkpt lat="44.42165" lon="5.9974">
        <ele>582</ele>
        <time>2019-03-05T13:53:19Z</time>
      </trkpt>
      <trkpt lat="44.42167" lon="5.99748">
        <ele>582</ele>
        <time>2019-03-05T13:53:20Z</time>
      </trkpt>
      <trkpt lat="44.4217" lon="5.99755">
        <ele>582</ele>
        <time>2019-03-05T13:53:21Z</time>
      </trkpt>
      <trkpt lat="44.42172" lon="5.99763">
        <ele>582</ele>
        <time>2019-03-05T13:53:22Z</time>
      </trkpt>
      <trkpt lat="44.42175" lon="5.9977">
        <ele>582</ele>
        <time>2019-03-05T13:53:23Z</time>
      </trkpt>
      <trkpt lat="44.42178" lon="5.99778">
        <ele>582</ele>
        <time>2019-03-05T13:53:24Z</time>
      </trkpt>
      <trkpt lat="44.4218" lon="5.99786">
        <ele>582</ele>
        <time>2019-03-05T13:53:25Z</time>
      </trkpt>
      <trkpt lat="44.42183" lon="5.99794">
        <ele>582</ele>
        <time>2019-03-05T13:53:26Z</time>
      </trkpt>
      <trkpt lat="44.42185" lon="5.99802">
        <ele>582</ele>
        <time>2019-03-05T13:53:27Z</time>
      </trkpt>
      <trkpt lat="44.42188" lon="5.99811">
        <ele>582</ele>
        <time>2019-03-05T13:53:28Z</time>
      </trkpt>
      <trkpt lat="44.42191" lon="5.99819">
        <ele>582</ele>
        <time>2019-03-05T13:53:29Z</time>
      </trkpt>
      <trkpt lat="44.42194" lon="5.99828">
        <ele>582</ele>
        <time>2019-03-05T13:53:30Z</time>
      </trkpt>
      <trkpt lat="44.42197" lon="5.99836">
        <ele>582</ele>
        <time>2019-03-05T13:53:31Z</time>
      </trkpt>
      <trkpt lat="44.42199" lon="5.99845">
        <ele>582</ele>
        <time>2019-03-05T13:53:32Z</time>
      </trkpt>
      <trkpt lat="44.42202" lon="5.99854">
        <ele>582</ele>
        <time>2019-03-05T13:53:33Z</time>
      </trkpt>
      <trkpt lat="44.42205" lon="5.99862">
        <ele>582</ele>
        <time>2019-03-05T13:53:34Z</time>
      </trkpt>
      <trkpt lat="44.42208" lon="5.9987">
        <ele>582</ele>
        <time>2019-03-05T13:53:35Z</time>
      </trkpt>
      <trkpt lat="44.42211" lon="5.99879">
        <ele>582</ele>
        <time>2019-03-05T13:53:36Z</time>
      </trkpt>
      <trkpt lat="44.42214" lon="5.99887">
        <ele>582</ele>
        <time>2019-03-05T13:53:37Z</time>
      </trkpt>
      <trkpt lat="44.42216" lon="5.99896">
        <ele>582</ele>
        <time>2019-03-05T13:53:38Z</time>
      </trkpt>
      <trkpt lat="44.42219" lon="5.99904">
        <ele>582</ele>
        <time>2019-03-05T13:53:39Z</time>
      </trkpt>
      <trkpt lat="44.42222" lon="5.99913">
        <ele>582</ele>
        <time>2019-03-05T13:53:40Z</time>
      </trkpt>
      <trkpt lat="44.42225" lon="5.99921">
        <ele>582</ele>
        <time>2019-03-05T13:53:41Z</time>
      </trkpt>
      <trkpt lat="44.42228" lon="5.9993">
        <ele>582</ele>
        <time>2019-03-05T13:53:42Z</time>
      </trkpt>
      <trkpt lat="44.42231" lon="5.99938">
        <ele>582</ele>
        <time>2019-03-05T13:53:43Z</time>
      </trkpt>
      <trkpt lat="44.42233" lon="5.99947">
        <ele>582</ele>
        <time>2019-03-05T13:53:44Z</time>
      </trkpt>
      <trkpt lat="44.42236" lon="5.99955">
        <ele>582</ele>
        <time>2019-03-05T13:53:45Z</time>
      </trkpt>
      <trkpt lat="44.42238" lon="5.99964">
        <ele>582</ele>
        <time>2019-03-05T13:53:46Z</time>
      </trkpt>
      <trkpt lat="44.42241" lon="5.99971">
        <ele>582</ele>
        <time>2019-03-05T13:53:47Z</time>
      </trkpt>
      <trkpt lat="44.42243" lon="5.99979">
        <ele>582</ele>
        <time>2019-03-05T13:53:48Z</time>
      </trkpt>
      <trkpt lat="44.42246" lon="5.99987">
        <ele>582</ele>
        <time>2019-03-05T13:53:49Z</time>
      </trkpt>
      <trkpt lat="44.42248" lon="5.99996">
        <ele>582</ele>
        <time>2019-03-05T13:53:50Z</time>
      </trkpt>
      <trkpt lat="44.42251" lon="6.00004">
        <ele>582</ele>
        <time>2019-03-05T13:53:51Z</time>
      </trkpt>
      <trkpt lat="44.42253" lon="6.00012">
        <ele>582</ele>
        <time>2019-03-05T13:53:52Z</time>
      </trkpt>
      <trkpt lat="44.42256" lon="6.0002">
        <ele>582</ele>
        <time>2019-03-05T13:53:53Z</time>
      </trkpt>
      <trkpt lat="44.42258" lon="6.00027">
        <ele>582</ele>
        <time>2019-03-05T13:53:54Z</time>
      </trkpt>
      <trkpt lat="44.42261" lon="6.00035">
        <ele>582</ele>
        <time>2019-03-05T13:53:55Z</time>
      </trkpt>
      <trkpt lat="44.42263" lon="6.00042">
        <ele>582</ele>
        <time>2019-03-05T13:53:56Z</time>
      </trkpt>
      <trkpt lat="44.42265" lon="6.0005">
        <ele>582</ele>
        <time>2019-03-05T13:53:57Z</time>
      </trkpt>
      <trkpt lat="44.42268" lon="6.00058">
        <ele>582</ele>
        <time>2019-03-05T13:53:58Z</time>
      </trkpt>
      <trkpt lat="44.42271" lon="6.00066">
        <ele>582</ele>
        <time>2019-03-05T13:53:59Z</time>
      </trkpt>
      <trkpt lat="44.42274" lon="6.00073">
        <ele>582</ele>
        <time>2019-03-05T13:54:00Z</time>
      </trkpt>
      <trkpt lat="44.42276" lon="6.00081">
        <ele>582</ele>
        <time>2019-03-05T13:54:01Z</time>
      </trkpt>
      <trkpt lat="44.42279" lon="6.00089">
        <ele>582</ele>
        <time>2019-03-05T13:54:02Z</time>
      </trkpt>
      <trkpt lat="44.42282" lon="6.00097">
        <ele>582</ele>
        <time>2019-03-05T13:54:03Z</time>
      </trkpt>
      <trkpt lat="44.42285" lon="6.00104">
        <ele>582</ele>
        <time>2019-03-05T13:54:04Z</time>
      </trkpt>
      <trkpt lat="44.42287" lon="6.00112">
        <ele>582</ele>
        <time>2019-03-05T13:54:05Z</time>
      </trkpt>
      <trkpt lat="44.4229" lon="6.0012">
        <ele>582</ele>
        <time>2019-03-05T13:54:06Z</time>
      </trkpt>
      <trkpt lat="44.42293" lon="6.00128">
        <ele>582</ele>
        <time>2019-03-05T13:54:07Z</time>
      </trkpt>
      <trkpt lat="44.42295" lon="6.00135">
        <ele>582</ele>
        <time>2019-03-05T13:54:08Z</time>
      </trkpt>
      <trkpt lat="44.42298" lon="6.00143">
        <ele>582</ele>
        <time>2019-03-05T13:54:09Z</time>
      </trkpt>
      <trkpt lat="44.423" lon="6.0015">
        <ele>582</ele>
        <time>2019-03-05T13:54:10Z</time>
      </trkpt>
      <trkpt lat="44.42303" lon="6.00158">
        <ele>582</ele>
        <time>2019-03-05T13:54:11Z</time>
      </trkpt>
      <trkpt lat="44.42305" lon="6.00165">
        <ele>582</ele>
        <time>2019-03-05T13:54:12Z</time>
      </trkpt>
      <trkpt lat="44.42308" lon="6.00173">
        <ele>582</ele>
        <time>2019-03-05T13:54:13Z</time>
      </trkpt>
      <trkpt lat="44.4231" lon="6.0018">
        <ele>582</ele>
        <time>2019-03-05T13:54:14Z</time>
      </trkpt>
      <trkpt lat="44.42312" lon="6.00188">
        <ele>582</ele>
        <time>2019-03-05T13:54:15Z</time>
      </trkpt>
      <trkpt lat="44.42315" lon="6.00195">
        <ele>582</ele>
        <time>2019-03-05T13:54:16Z</time>
      </trkpt>
      <trkpt lat="44.42317" lon="6.00203">
        <ele>582</ele>
        <time>2019-03-05T13:54:17Z</time>
      </trkpt>
      <trkpt lat="44.4232" lon="6.0021">
        <ele>582</ele>
        <time>2019-03-05T13:54:18Z</time>
      </trkpt>
      <trkpt lat="44.42322" lon="6.00218">
        <ele>582</ele>
        <time>2019-03-05T13:54:19Z</time>
      </trkpt>
      <trkpt lat="44.42324" lon="6.00225">
        <ele>582</ele>
        <time>2019-03-05T13:54:20Z</time>
      </trkpt>
      <trkpt lat="44.42327" lon="6.00232">
        <ele>582</ele>
        <time>2019-03-05T13:54:21Z</time>
      </trkpt>
      <trkpt lat="44.42329" lon="6.0024">
        <ele>582</ele>
        <time>2019-03-05T13:54:22Z</time>
      </trkpt>
      <trkpt lat="44.42332" lon="6.00247">
        <ele>582</ele>
        <time>2019-03-05T13:54:23Z</time>
      </trkpt>
      <trkpt lat="44.42334" lon="6.00254">
        <ele>582</ele>
        <time>2019-03-05T13:54:24Z</time>
      </trkpt>
      <trkpt lat="44.42336" lon="6.00262">
        <ele>582</ele>
        <time>2019-03-05T13:54:25Z</time>
      </trkpt>
      <trkpt lat="44.42339" lon="6.00269">
        <ele>582</ele>
        <time>2019-03-05T13:54:26Z</time>
      </trkpt>
      <trkpt lat="44.42341" lon="6.00276">
        <ele>582</ele>
        <time>2019-03-05T13:54:27Z</time>
      </trkpt>
      <trkpt lat="44.42343" lon="6.00283">
        <ele>582</ele>
        <time>2019-03-05T13:54:28Z</time>
      </trkpt>
      <trkpt lat="44.42346" lon="6.0029">
        <ele>582</ele>
        <time>2019-03-05T13:54:29Z</time>
      </trkpt>
      <trkpt lat="44.42348" lon="6.00297">
        <ele>582</ele>
        <time>2019-03-05T13:54:30Z</time>
      </trkpt>
      <trkpt lat="44.4235" lon="6.00304">
        <ele>582</ele>
        <time>2019-03-05T13:54:31Z</time>
      </trkpt>
      <trkpt lat="44.42353" lon="6.00311">
        <ele>582</ele>
        <time>2019-03-05T13:54:32Z</time>
      </trkpt>
      <trkpt lat="44.42355" lon="6.00318">
        <ele>582</ele>
        <time>2019-03-05T13:54:33Z</time>
      </trkpt>
      <trkpt lat="44.42357" lon="6.00325">
        <ele>582</ele>
        <time>2019-03-05T13:54:34Z</time>
      </trkpt>
      <trkpt lat="44.42359" lon="6.00332">
        <ele>582</ele>
        <time>2019-03-05T13:54:35Z</time>
      </trkpt>
      <trkpt lat="44.42361" lon="6.00339">
        <ele>582</ele>
        <time>2019-03-05T13:54:36Z</time>
      </trkpt>
      <trkpt lat="44.42363" lon="6.00346">
        <ele>582</ele>
        <time>2019-03-05T13:54:37Z</time>
      </trkpt>
      <trkpt lat="44.42366" lon="6.00353">
        <ele>582</ele>
        <time>2019-03-05T13:54:38Z</time>
      </trkpt>
      <trkpt lat="44.42368" lon="6.0036">
        <ele>582</ele>
        <time>2019-03-05T13:54:39Z</time>
      </trkpt>
      <trkpt lat="44.4237" lon="6.00367">
        <ele>582</ele>
        <time>2019-03-05T13:54:40Z</time>
      </trkpt>
      <trkpt lat="44.42372" lon="6.00374">
        <ele>582</ele>
        <time>2019-03-05T13:54:41Z</time>
      </trkpt>
      <trkpt lat="44.42374" lon="6.00381">
        <ele>582</ele>
        <time>2019-03-05T13:54:42Z</time>
      </trkpt>
      <trkpt lat="44.42377" lon="6.00387">
        <ele>582</ele>
        <time>2019-03-05T13:54:43Z</time>
      </trkpt>
      <trkpt lat="44.42379" lon="6.00394">
        <ele>582</ele>
        <time>2019-03-05T13:54:44Z</time>
      </trkpt>
      <trkpt lat="44.42381" lon="6.00401">
        <ele>582</ele>
        <time>2019-03-05T13:54:45Z</time>
      </trkpt>
      <trkpt lat="44.42383" lon="6.00408">
        <ele>583</ele>
        <time>2019-03-05T13:54:46Z</time>
      </trkpt>
      <trkpt lat="44.42385" lon="6.00414">
        <ele>583</ele>
        <time>2019-03-05T13:54:47Z</time>
      </trkpt>
      <trkpt lat="44.42388" lon="6.00421">
        <ele>583</ele>
        <time>2019-03-05T13:54:48Z</time>
      </trkpt>
      <trkpt lat="44.4239" lon="6.00428">
        <ele>583</ele>
        <time>2019-03-05T13:54:49Z</time>
      </trkpt>
      <trkpt lat="44.42392" lon="6.00435">
        <ele>583</ele>
        <time>2019-03-05T13:54:50Z</time>
      </trkpt>
      <trkpt lat="44.42395" lon="6.00442">
        <ele>583</ele>
        <time>2019-03-05T13:54:51Z</time>
      </trkpt>
      <trkpt lat="44.42397" lon="6.00449">
        <ele>583</ele>
        <time>2019-03-05T13:54:52Z</time>
      </trkpt>
      <trkpt lat="44.42399" lon="6.00455">
        <ele>584</ele>
        <time>2019-03-05T13:54:53Z</time>
      </trkpt>
      <trkpt lat="44.42401" lon="6.00462">
        <ele>584</ele>
        <time>2019-03-05T13:54:54Z</time>
      </trkpt>
      <trkpt lat="44.42403" lon="6.00468">
        <ele>584</ele>
        <time>2019-03-05T13:54:55Z</time>
      </trkpt>
      <trkpt lat="44.42405" lon="6.00475">
        <ele>584</ele>
        <time>2019-03-05T13:54:56Z</time>
      </trkpt>
      <trkpt lat="44.42407" lon="6.00482">
        <ele>584</ele>
        <time>2019-03-05T13:54:57Z</time>
      </trkpt>
      <trkpt lat="44.42409" lon="6.00488">
        <ele>584</ele>
        <time>2019-03-05T13:54:58Z</time>
      </trkpt>
      <trkpt lat="44.42411" lon="6.00494">
        <ele>584</ele>
        <time>2019-03-05T13:54:59Z</time>
      </trkpt>
      <trkpt lat="44.42413" lon="6.00501">
        <ele>584</ele>
        <time>2019-03-05T13:55:00Z</time>
      </trkpt>
      <trkpt lat="44.42415" lon="6.00507">
        <ele>584</ele>
        <time>2019-03-05T13:55:01Z</time>
      </trkpt>
      <trkpt lat="44.42417" lon="6.00513">
        <ele>584</ele>
        <time>2019-03-05T13:55:02Z</time>
      </trkpt>
      <trkpt lat="44.42419" lon="6.0052">
        <ele>584</ele>
        <time>2019-03-05T13:55:03Z</time>
      </trkpt>
      <trkpt lat="44.42421" lon="6.00526">
        <ele>584</ele>
        <time>2019-03-05T13:55:04Z</time>
      </trkpt>
      <trkpt lat="44.42424" lon="6.00532">
        <ele>584</ele>
        <time>2019-03-05T13:55:05Z</time>
      </trkpt>
      <trkpt lat="44.42426" lon="6.00539">
        <ele>584</ele>
        <time>2019-03-05T13:55:06Z</time>
      </trkpt>
      <trkpt lat="44.42428" lon="6.00546">
        <ele>584</ele>
        <time>2019-03-05T13:55:07Z</time>
      </trkpt>
      <trkpt lat="44.4243" lon="6.00553">
        <ele>584</ele>
        <time>2019-03-05T13:55:08Z</time>
      </trkpt>
      <trkpt lat="44.42433" lon="6.0056">
        <ele>584</ele>
        <time>2019-03-05T13:55:09Z</time>
      </trkpt>
      <trkpt lat="44.42435" lon="6.00567">
        <ele>584</ele>
        <time>2019-03-05T13:55:10Z</time>
      </trkpt>
      <trkpt lat="44.42438" lon="6.00575">
        <ele>584</ele>
        <time>2019-03-05T13:55:11Z</time>
      </trkpt>
      <trkpt lat="44.4244" lon="6.00583">
        <ele>584</ele>
        <time>2019-03-05T13:55:12Z</time>
      </trkpt>
      <trkpt lat="44.42443" lon="6.00591">
        <ele>584</ele>
        <time>2019-03-05T13:55:13Z</time>
      </trkpt>
      <trkpt lat="44.42445" lon="6.00598">
        <ele>584</ele>
        <time>2019-03-05T13:55:14Z</time>
      </trkpt>
      <trkpt lat="44.42448" lon="6.00606">
        <ele>584</ele>
        <time>2019-03-05T13:55:15Z</time>
      </trkpt>
      <trkpt lat="44.42449" lon="6.00614">
        <ele>584</ele>
        <time>2019-03-05T13:55:16Z</time>
      </trkpt>
      <trkpt lat="44.4245" lon="6.00622">
        <ele>584</ele>
        <time>2019-03-05T13:55:17Z</time>
      </trkpt>
      <trkpt lat="44.4245" lon="6.00631">
        <ele>584</ele>
        <time>2019-03-05T13:55:18Z</time>
      </trkpt>
      <trkpt lat="44.42451" lon="6.00639">
        <ele>584</ele>
        <time>2019-03-05T13:55:19Z</time>
      </trkpt>
      <trkpt lat="44.42453" lon="6.00648">
        <ele>584</ele>
        <time>2019-03-05T13:55:20Z</time>
      </trkpt>
      <trkpt lat="44.42454" lon="6.00657">
        <ele>584</ele>
        <time>2019-03-05T13:55:21Z</time>
      </trkpt>
      <trkpt lat="44.42457" lon="6.00665">
        <ele>584</ele>
        <time>2019-03-05T13:55:22Z</time>
      </trkpt>
      <trkpt lat="44.4246" lon="6.00673">
        <ele>584</ele>
        <time>2019-03-05T13:55:23Z</time>
      </trkpt>
      <trkpt lat="44.42464" lon="6.0068">
        <ele>584</ele>
        <time>2019-03-05T13:55:24Z</time>
      </trkpt>
      <trkpt lat="44.42467" lon="6.00687">
        <ele>584</ele>
        <time>2019-03-05T13:55:25Z</time>
      </trkpt>
      <trkpt lat="44.42471" lon="6.00693">
        <ele>584</ele>
        <time>2019-03-05T13:55:26Z</time>
      </trkpt>
      <trkpt lat="44.42475" lon="6.00698">
        <ele>584</ele>
        <time>2019-03-05T13:55:27Z</time>
      </trkpt>
      <trkpt lat="44.42479" lon="6.00704">
        <ele>584</ele>
        <time>2019-03-05T13:55:28Z</time>
      </trkpt>
      <trkpt lat="44.42482" lon="6.0071">
        <ele>584</ele>
        <time>2019-03-05T13:55:29Z</time>
      </trkpt>
      <trkpt lat="44.42484" lon="6.00717">
        <ele>584</ele>
        <time>2019-03-05T13:55:30Z</time>
      </trkpt>
      <trkpt lat="44.42483" lon="6.00725">
        <ele>584</ele>
        <time>2019-03-05T13:55:31Z</time>
      </trkpt>
      <trkpt lat="44.42484" lon="6.00733">
        <ele>584</ele>
        <time>2019-03-05T13:55:32Z</time>
      </trkpt>
      <trkpt lat="44.42484" lon="6.00741">
        <ele>584</ele>
        <time>2019-03-05T13:55:33Z</time>
      </trkpt>
      <trkpt lat="44.42484" lon="6.00749">
        <ele>584</ele>
        <time>2019-03-05T13:55:34Z</time>
      </trkpt>
      <trkpt lat="44.42484" lon="6.00758">
        <ele>584</ele>
        <time>2019-03-05T13:55:35Z</time>
      </trkpt>
      <trkpt lat="44.42484" lon="6.00768">
        <ele>584</ele>
        <time>2019-03-05T13:55:36Z</time>
      </trkpt>
      <trkpt lat="44.42485" lon="6.00778">
        <ele>584</ele>
        <time>2019-03-05T13:55:37Z</time>
      </trkpt>
      <trkpt lat="44.42486" lon="6.00787">
        <ele>584</ele>
        <time>2019-03-05T13:55:38Z</time>
      </trkpt>
      <trkpt lat="44.42489" lon="6.00797">
        <ele>584</ele>
        <time>2019-03-05T13:55:39Z</time>
      </trkpt>
      <trkpt lat="44.42494" lon="6.00806">
        <ele>584</ele>
        <time>2019-03-05T13:55:40Z</time>
      </trkpt>
      <trkpt lat="44.425" lon="6.00814">
        <ele>584</ele>
        <time>2019-03-05T13:55:41Z</time>
      </trkpt>
      <trkpt lat="44.42505" lon="6.00822">
        <ele>584</ele>
        <time>2019-03-05T13:55:42Z</time>
      </trkpt>
      <trkpt lat="44.42511" lon="6.0083">
        <ele>584</ele>
        <time>2019-03-05T13:55:43Z</time>
      </trkpt>
      <trkpt lat="44.42516" lon="6.00838">
        <ele>584</ele>
        <time>2019-03-05T13:55:44Z</time>
      </trkpt>
      <trkpt lat="44.42522" lon="6.00846">
        <ele>583</ele>
        <time>2019-03-05T13:55:45Z</time>
      </trkpt>
      <trkpt lat="44.42528" lon="6.00855">
        <ele>583</ele>
        <time>2019-03-05T13:55:46Z</time>
      </trkpt>
      <trkpt lat="44.42535" lon="6.00864">
        <ele>583</ele>
        <time>2019-03-05T13:55:47Z</time>
      </trkpt>
      <trkpt lat="44.42541" lon="6.00873">
        <ele>582</ele>
        <time>2019-03-05T13:55:48Z</time>
      </trkpt>
      <trkpt lat="44.42547" lon="6.00882">
        <ele>582</ele>
        <time>2019-03-05T13:55:49Z</time>
      </trkpt>
      <trkpt lat="44.42554" lon="6.0089">
        <ele>582</ele>
        <time>2019-03-05T13:55:50Z</time>
      </trkpt>
      <trkpt lat="44.42561" lon="6.00898">
        <ele>581</ele>
        <time>2019-03-05T13:55:51Z</time>
      </trkpt>
      <trkpt lat="44.42567" lon="6.00905">
        <ele>581</ele>
        <time>2019-03-05T13:55:52Z</time>
      </trkpt>
      <trkpt lat="44.42572" lon="6.00912">
        <ele>581</ele>
        <time>2019-03-05T13:55:53Z</time>
      </trkpt>
      <trkpt lat="44.42578" lon="6.00919">
        <ele>580</ele>
        <time>2019-03-05T13:55:54Z</time>
      </trkpt>
      <trkpt lat="44.42584" lon="6.00927">
        <ele>580</ele>
        <time>2019-03-05T13:55:55Z</time>
      </trkpt>
      <trkpt lat="44.42589" lon="6.00934">
        <ele>580</ele>
        <time>2019-03-05T13:55:56Z</time>
      </trkpt>
      <trkpt lat="44.42595" lon="6.00942">
        <ele>579</ele>
        <time>2019-03-05T13:55:57Z</time>
      </trkpt>
      <trkpt lat="44.426" lon="6.00949">
        <ele>579</ele>
        <time>2019-03-05T13:55:58Z</time>
      </trkpt>
      <trkpt lat="44.42605" lon="6.00957">
        <ele>579</ele>
        <time>2019-03-05T13:55:59Z</time>
      </trkpt>
      <trkpt lat="44.42611" lon="6.00965">
        <ele>579</ele>
        <time>2019-03-05T13:56:00Z</time>
      </trkpt>
      <trkpt lat="44.42616" lon="6.00972">
        <ele>579</ele>
        <time>2019-03-05T13:56:01Z</time>
      </trkpt>
      <trkpt lat="44.42621" lon="6.00978">
        <ele>579</ele>
        <time>2019-03-05T13:56:02Z</time>
      </trkpt>
      <trkpt lat="44.42626" lon="6.00985">
        <ele>579</ele>
        <time>2019-03-05T13:56:03Z</time>
      </trkpt>
      <trkpt lat="44.42631" lon="6.00991">
        <ele>579</ele>
        <time>2019-03-05T13:56:04Z</time>
      </trkpt>
      <trkpt lat="44.42636" lon="6.00996">
        <ele>578</ele>
        <time>2019-03-05T13:56:05Z</time>
      </trkpt>
      <trkpt lat="44.42641" lon="6.01001">
        <ele>578</ele>
        <time>2019-03-05T13:56:06Z</time>
      </trkpt>
      <trkpt lat="44.42644" lon="6.01006">
        <ele>578</ele>
        <time>2019-03-05T13:56:07Z</time>
      </trkpt>
      <trkpt lat="44.42648" lon="6.01011">
        <ele>578</ele>
        <time>2019-03-05T13:56:08Z</time>
      </trkpt>
      <trkpt lat="44.42651" lon="6.01016">
        <ele>577</ele>
        <time>2019-03-05T13:56:09Z</time>
      </trkpt>
      <trkpt lat="44.42653" lon="6.01022">
        <ele>577</ele>
        <time>2019-03-05T13:56:10Z</time>
      </trkpt>
      <trkpt lat="44.42652" lon="6.01028">
        <ele>577</ele>
        <time>2019-03-05T13:56:11Z</time>
      </trkpt>
      <trkpt lat="44.42648" lon="6.01033">
        <ele>577</ele>
        <time>2019-03-05T13:56:12Z</time>
      </trkpt>
      <trkpt lat="44.42643" lon="6.01038">
        <ele>576</ele>
        <time>2019-03-05T13:56:13Z</time>
      </trkpt>
      <trkpt lat="44.42639" lon="6.01044">
        <ele>576</ele>
        <time>2019-03-05T13:56:14Z</time>
      </trkpt>
      <trkpt lat="44.42634" lon="6.01051">
        <ele>575</ele>
        <time>2019-03-05T13:56:15Z</time>
      </trkpt>
      <trkpt lat="44.42629" lon="6.01058">
        <ele>575</ele>
        <time>2019-03-05T13:56:16Z</time>
      </trkpt>
      <trkpt lat="44.42624" lon="6.01064">
        <ele>575</ele>
        <time>2019-03-05T13:56:17Z</time>
      </trkpt>
      <trkpt lat="44.42619" lon="6.01072">
        <ele>574</ele>
        <time>2019-03-05T13:56:18Z</time>
      </trkpt>
      <trkpt lat="44.42613" lon="6.01079">
        <ele>574</ele>
        <time>2019-03-05T13:56:19Z</time>
      </trkpt>
      <trkpt lat="44.42608" lon="6.01086">
        <ele>573</ele>
        <time>2019-03-05T13:56:20Z</time>
      </trkpt>
      <trkpt lat="44.42603" lon="6.01094">
        <ele>573</ele>
        <time>2019-03-05T13:56:21Z</time>
      </trkpt>
      <trkpt lat="44.42598" lon="6.01101">
        <ele>573</ele>
        <time>2019-03-05T13:56:22Z</time>
      </trkpt>
      <trkpt lat="44.42593" lon="6.01108">
        <ele>572</ele>
        <time>2019-03-05T13:56:23Z</time>
      </trkpt>
      <trkpt lat="44.42588" lon="6.01115">
        <ele>572</ele>
        <time>2019-03-05T13:56:24Z</time>
      </trkpt>
      <trkpt lat="44.42583" lon="6.01121">
        <ele>572</ele>
        <time>2019-03-05T13:56:25Z</time>
      </trkpt>
      <trkpt lat="44.42579" lon="6.01127">
        <ele>572</ele>
        <time>2019-03-05T13:56:26Z</time>
      </trkpt>
      <trkpt lat="44.42575" lon="6.01133">
        <ele>572</ele>
        <time>2019-03-05T13:56:27Z</time>
      </trkpt>
      <trkpt lat="44.42572" lon="6.01138">
        <ele>572</ele>
        <time>2019-03-05T13:56:28Z</time>
      </trkpt>
      <trkpt lat="44.42568" lon="6.01143">
        <ele>572</ele>
        <time>2019-03-05T13:56:29Z</time>
      </trkpt>
      <trkpt lat="44.42564" lon="6.01148">
        <ele>572</ele>
        <time>2019-03-05T13:56:30Z</time>
      </trkpt>
      <trkpt lat="44.42561" lon="6.01152">
        <ele>572</ele>
        <time>2019-03-05T13:56:31Z</time>
      </trkpt>
      <trkpt lat="44.42558" lon="6.01157">
        <ele>572</ele>
        <time>2019-03-05T13:56:32Z</time>
      </trkpt>
      <trkpt lat="44.42555" lon="6.01162">
        <ele>572</ele>
        <time>2019-03-05T13:56:33Z</time>
      </trkpt>
      <trkpt lat="44.42552" lon="6.01166">
        <ele>572</ele>
        <time>2019-03-05T13:56:34Z</time>
      </trkpt>
      <trkpt lat="44.4255" lon="6.01171">
        <ele>572</ele>
        <time>2019-03-05T13:56:35Z</time>
      </trkpt>
      <trkpt lat="44.42547" lon="6.01175">
        <ele>572</ele>
        <time>2019-03-05T13:56:36Z</time>
      </trkpt>
      <trkpt lat="44.42544" lon="6.0118">
        <ele>572</ele>
        <time>2019-03-05T13:56:37Z</time>
      </trkpt>
      <trkpt lat="44.42541" lon="6.01184">
        <ele>572</ele>
        <time>2019-03-05T13:56:38Z</time>
      </trkpt>
      <trkpt lat="44.42538" lon="6.01188">
        <ele>572</ele>
        <time>2019-03-05T13:56:39Z</time>
      </trkpt>
      <trkpt lat="44.42535" lon="6.01193">
        <ele>572</ele>
        <time>2019-03-05T13:56:40Z</time>
      </trkpt>
      <trkpt lat="44.42532" lon="6.01198">
        <ele>572</ele>
        <time>2019-03-05T13:56:41Z</time>
      </trkpt>
      <trkpt lat="44.42528" lon="6.01202">
        <ele>572</ele>
        <time>2019-03-05T13:56:42Z</time>
      </trkpt>
      <trkpt lat="44.42525" lon="6.01207">
        <ele>572</ele>
        <time>2019-03-05T13:56:43Z</time>
      </trkpt>
      <trkpt lat="44.42522" lon="6.01213">
        <ele>572</ele>
        <time>2019-03-05T13:56:44Z</time>
      </trkpt>
      <trkpt lat="44.42518" lon="6.01219">
        <ele>572</ele>
        <time>2019-03-05T13:56:45Z</time>
      </trkpt>
      <trkpt lat="44.42514" lon="6.01225">
        <ele>572</ele>
        <time>2019-03-05T13:56:46Z</time>
      </trkpt>
      <trkpt lat="44.4251" lon="6.01231">
        <ele>572</ele>
        <time>2019-03-05T13:56:47Z</time>
      </trkpt>
      <trkpt lat="44.42506" lon="6.01238">
        <ele>572</ele>
        <time>2019-03-05T13:56:48Z</time>
      </trkpt>
      <trkpt lat="44.42501" lon="6.01245">
        <ele>572</ele>
        <time>2019-03-05T13:56:49Z</time>
      </trkpt>
      <trkpt lat="44.42496" lon="6.01253">
        <ele>572</ele>
        <time>2019-03-05T13:56:50Z</time>
      </trkpt>
      <trkpt lat="44.4249" lon="6.01261">
        <ele>572</ele>
        <time>2019-03-05T13:56:51Z</time>
      </trkpt>
      <trkpt lat="44.42485" lon="6.01269">
        <ele>571</ele>
        <time>2019-03-05T13:56:52Z</time>
      </trkpt>
      <trkpt lat="44.42479" lon="6.01279">
        <ele>571</ele>
        <time>2019-03-05T13:56:53Z</time>
      </trkpt>
      <trkpt lat="44.42473" lon="6.01288">
        <ele>570</ele>
        <time>2019-03-05T13:56:54Z</time>
      </trkpt>
      <trkpt lat="44.42467" lon="6.01297">
        <ele>569</ele>
        <time>2019-03-05T13:56:55Z</time>
      </trkpt>
      <trkpt lat="44.42461" lon="6.01306">
        <ele>569</ele>
        <time>2019-03-05T13:56:56Z</time>
      </trkpt>
      <trkpt lat="44.42455" lon="6.01315">
        <ele>569</ele>
        <time>2019-03-05T13:56:57Z</time>
      </trkpt>
      <trkpt lat="44.4245" lon="6.01325">
        <ele>569</ele>
        <time>2019-03-05T13:56:58Z</time>
      </trkpt>
      <trkpt lat="44.42444" lon="6.01333">
        <ele>568</ele>
        <time>2019-03-05T13:56:59Z</time>
      </trkpt>
      <trkpt lat="44.42439" lon="6.01341">
        <ele>568</ele>
        <time>2019-03-05T13:57:00Z</time>
      </trkpt>
      <trkpt lat="44.42433" lon="6.01349">
        <ele>568</ele>
        <time>2019-03-05T13:57:01Z</time>
      </trkpt>
      <trkpt lat="44.42428" lon="6.01357">
        <ele>568</ele>
        <time>2019-03-05T13:57:02Z</time>
      </trkpt>
      <trkpt lat="44.42423" lon="6.01365">
        <ele>568</ele>
        <time>2019-03-05T13:57:03Z</time>
      </trkpt>
      <trkpt lat="44.42418" lon="6.01373">
        <ele>568</ele>
        <time>2019-03-05T13:57:04Z</time>
      </trkpt>
      <trkpt lat="44.42413" lon="6.0138">
        <ele>568</ele>
        <time>2019-03-05T13:57:05Z</time>
      </trkpt>
      <trkpt lat="44.42409" lon="6.01387">
        <ele>568</ele>
        <time>2019-03-05T13:57:06Z</time>
      </trkpt>
      <trkpt lat="44.42404" lon="6.01395">
        <ele>568</ele>
        <time>2019-03-05T13:57:07Z</time>
      </trkpt>
      <trkpt lat="44.424" lon="6.01402">
        <ele>568</ele>
        <time>2019-03-05T13:57:08Z</time>
      </trkpt>
      <trkpt lat="44.42395" lon="6.01408">
        <ele>568</ele>
        <time>2019-03-05T13:57:09Z</time>
      </trkpt>
      <trkpt lat="44.4239" lon="6.01415">
        <ele>568</ele>
        <time>2019-03-05T13:57:10Z</time>
      </trkpt>
      <trkpt lat="44.42386" lon="6.01422">
        <ele>568</ele>
        <time>2019-03-05T13:57:11Z</time>
      </trkpt>
      <trkpt lat="44.42381" lon="6.01429">
        <ele>568</ele>
        <time>2019-03-05T13:57:12Z</time>
      </trkpt>
      <trkpt lat="44.42376" lon="6.01435">
        <ele>568</ele>
        <time>2019-03-05T13:57:13Z</time>
      </trkpt>
      <trkpt lat="44.42372" lon="6.01442">
        <ele>568</ele>
        <time>2019-03-05T13:57:14Z</time>
      </trkpt>
      <trkpt lat="44.42367" lon="6.01449">
        <ele>568</ele>
        <time>2019-03-05T13:57:15Z</time>
      </trkpt>
      <trkpt lat="44.42363" lon="6.01456">
        <ele>568</ele>
        <time>2019-03-05T13:57:16Z</time>
      </trkpt>
      <trkpt lat="44.42358" lon="6.01463">
        <ele>568</ele>
        <time>2019-03-05T13:57:17Z</time>
      </trkpt>
      <trkpt lat="44.42354" lon="6.01469">
        <ele>568</ele>
        <time>2019-03-05T13:57:18Z</time>
      </trkpt>
      <trkpt lat="44.4235" lon="6.01476">
        <ele>568</ele>
        <time>2019-03-05T13:57:19Z</time>
      </trkpt>
      <trkpt lat="44.42345" lon="6.01483">
        <ele>568</ele>
        <time>2019-03-05T13:57:20Z</time>
      </trkpt>
      <trkpt lat="44.42341" lon="6.01489">
        <ele>568</ele>
        <time>2019-03-05T13:57:21Z</time>
      </trkpt>
      <trkpt lat="44.42337" lon="6.01496">
        <ele>567</ele>
        <time>2019-03-05T13:57:22Z</time>
      </trkpt>
      <trkpt lat="44.42332" lon="6.01503">
        <ele>567</ele>
        <time>2019-03-05T13:57:23Z</time>
      </trkpt>
      <trkpt lat="44.42328" lon="6.0151">
        <ele>567</ele>
        <time>2019-03-05T13:57:24Z</time>
      </trkpt>
      <trkpt lat="44.42324" lon="6.01516">
        <ele>567</ele>
        <time>2019-03-05T13:57:25Z</time>
      </trkpt>
      <trkpt lat="44.4232" lon="6.01522">
        <ele>567</ele>
        <time>2019-03-05T13:57:26Z</time>
      </trkpt>
      <trkpt lat="44.42316" lon="6.01528">
        <ele>567</ele>
        <time>2019-03-05T13:57:27Z</time>
      </trkpt>
      <trkpt lat="44.42311" lon="6.01535">
        <ele>567</ele>
        <time>2019-03-05T13:57:28Z</time>
      </trkpt>
      <trkpt lat="44.42307" lon="6.01541">
        <ele>567</ele>
        <time>2019-03-05T13:57:29Z</time>
      </trkpt>
      <trkpt lat="44.42303" lon="6.01547">
        <ele>567</ele>
        <time>2019-03-05T13:57:30Z</time>
      </trkpt>
      <trkpt lat="44.42299" lon="6.01553">
        <ele>567</ele>
        <time>2019-03-05T13:57:31Z</time>
      </trkpt>
      <trkpt lat="44.42295" lon="6.01559">
        <ele>567</ele>
        <time>2019-03-05T13:57:32Z</time>
      </trkpt>
      <trkpt lat="44.42291" lon="6.01566">
        <ele>567</ele>
        <time>2019-03-05T13:57:33Z</time>
      </trkpt>
      <trkpt lat="44.42287" lon="6.01572">
        <ele>567</ele>
        <time>2019-03-05T13:57:34Z</time>
      </trkpt>
      <trkpt lat="44.42284" lon="6.01579">
        <ele>567</ele>
        <time>2019-03-05T13:57:35Z</time>
      </trkpt>
      <trkpt lat="44.42279" lon="6.01585">
        <ele>567</ele>
        <time>2019-03-05T13:57:36Z</time>
      </trkpt>
      <trkpt lat="44.42275" lon="6.01591">
        <ele>567</ele>
        <time>2019-03-05T13:57:37Z</time>
      </trkpt>
      <trkpt lat="44.42271" lon="6.01596">
        <ele>567</ele>
        <time>2019-03-05T13:57:38Z</time>
      </trkpt>
      <trkpt lat="44.42268" lon="6.01602">
        <ele>567</ele>
        <time>2019-03-05T13:57:39Z</time>
      </trkpt>
      <trkpt lat="44.42264" lon="6.01608">
        <ele>567</ele>
        <time>2019-03-05T13:57:40Z</time>
      </trkpt>
      <trkpt lat="44.4226" lon="6.01613">
        <ele>567</ele>
        <time>2019-03-05T13:57:41Z</time>
      </trkpt>
      <trkpt lat="44.42256" lon="6.01618">
        <ele>567</ele>
        <time>2019-03-05T13:57:42Z</time>
      </trkpt>
      <trkpt lat="44.42252" lon="6.01624">
        <ele>567</ele>
        <time>2019-03-05T13:57:43Z</time>
      </trkpt>
      <trkpt lat="44.42248" lon="6.01628">
        <ele>567</ele>
        <time>2019-03-05T13:57:44Z</time>
      </trkpt>
      <trkpt lat="44.42243" lon="6.01632">
        <ele>567</ele>
        <time>2019-03-05T13:57:45Z</time>
      </trkpt>
      <trkpt lat="44.42239" lon="6.01637">
        <ele>567</ele>
        <time>2019-03-05T13:57:46Z</time>
      </trkpt>
      <trkpt lat="44.42235" lon="6.01641">
        <ele>567</ele>
        <time>2019-03-05T13:57:47Z</time>
      </trkpt>
      <trkpt lat="44.42232" lon="6.01647">
        <ele>567</ele>
        <time>2019-03-05T13:57:48Z</time>
      </trkpt>
      <trkpt lat="44.42229" lon="6.01653">
        <ele>567</ele>
        <time>2019-03-05T13:57:49Z</time>
      </trkpt>
      <trkpt lat="44.42228" lon="6.0166">
        <ele>567</ele>
        <time>2019-03-05T13:57:50Z</time>
      </trkpt>
      <trkpt lat="44.42228" lon="6.01668">
        <ele>567</ele>
        <time>2019-03-05T13:57:51Z</time>
      </trkpt>
      <trkpt lat="44.42229" lon="6.01677">
        <ele>567</ele>
        <time>2019-03-05T13:57:52Z</time>
      </trkpt>
      <trkpt lat="44.42231" lon="6.01685">
        <ele>567</ele>
        <time>2019-03-05T13:57:53Z</time>
      </trkpt>
      <trkpt lat="44.42233" lon="6.01693">
        <ele>567</ele>
        <time>2019-03-05T13:57:54Z</time>
      </trkpt>
      <trkpt lat="44.42234" lon="6.01701">
        <ele>567</ele>
        <time>2019-03-05T13:57:55Z</time>
      </trkpt>
      <trkpt lat="44.42236" lon="6.0171">
        <ele>567</ele>
        <time>2019-03-05T13:57:56Z</time>
      </trkpt>
      <trkpt lat="44.42236" lon="6.01719">
        <ele>567</ele>
        <time>2019-03-05T13:57:57Z</time>
      </trkpt>
      <trkpt lat="44.42237" lon="6.01728">
        <ele>567</ele>
        <time>2019-03-05T13:57:58Z</time>
      </trkpt>
      <trkpt lat="44.42237" lon="6.01737">
        <ele>567</ele>
        <time>2019-03-05T13:57:59Z</time>
      </trkpt>
      <trkpt lat="44.42238" lon="6.01745">
        <ele>567</ele>
        <time>2019-03-05T13:58:00Z</time>
      </trkpt>
      <trkpt lat="44.42239" lon="6.01753">
        <ele>567</ele>
        <time>2019-03-05T13:58:01Z</time>
      </trkpt>
      <trkpt lat="44.42239" lon="6.01761">
        <ele>567</ele>
        <time>2019-03-05T13:58:02Z</time>
      </trkpt>
      <trkpt lat="44.42239" lon="6.01768">
        <ele>567</ele>
        <time>2019-03-05T13:58:03Z</time>
      </trkpt>
      <trkpt lat="44.42239" lon="6.01775">
        <ele>567</ele>
        <time>2019-03-05T13:58:04Z</time>
      </trkpt>
      <trkpt lat="44.42238" lon="6.01782">
        <ele>567</ele>
        <time>2019-03-05T13:58:05Z</time>
      </trkpt>
      <trkpt lat="44.42237" lon="6.01789">
        <ele>567</ele>
        <time>2019-03-05T13:58:06Z</time>
      </trkpt>
      <trkpt lat="44.42237" lon="6.01796">
        <ele>567</ele>
        <time>2019-03-05T13:58:07Z</time>
      </trkpt>
      <trkpt lat="44.42236" lon="6.01802">
        <ele>568</ele>
        <time>2019-03-05T13:58:08Z</time>
      </trkpt>
      <trkpt lat="44.42234" lon="6.01808">
        <ele>568</ele>
        <time>2019-03-05T13:58:09Z</time>
      </trkpt>
      <trkpt lat="44.42232" lon="6.01813">
        <ele>569</ele>
        <time>2019-03-05T13:58:10Z</time>
      </trkpt>
      <trkpt lat="44.4223" lon="6.01819">
        <ele>569</ele>
        <time>2019-03-05T13:58:11Z</time>
      </trkpt>
      <trkpt lat="44.42227" lon="6.01824">
        <ele>569</ele>
        <time>2019-03-05T13:58:12Z</time>
      </trkpt>
      <trkpt lat="44.42225" lon="6.01829">
        <ele>570</ele>
        <time>2019-03-05T13:58:13Z</time>
      </trkpt>
      <trkpt lat="44.42222" lon="6.01834">
        <ele>570</ele>
        <time>2019-03-05T13:58:14Z</time>
      </trkpt>
      <trkpt lat="44.42219" lon="6.01839">
        <ele>571</ele>
        <time>2019-03-05T13:58:15Z</time>
      </trkpt>
      <trkpt lat="44.42216" lon="6.01843">
        <ele>571</ele>
        <time>2019-03-05T13:58:16Z</time>
      </trkpt>
      <trkpt lat="44.42213" lon="6.01847">
        <ele>572</ele>
        <time>2019-03-05T13:58:17Z</time>
      </trkpt>
      <trkpt lat="44.42209" lon="6.01851">
        <ele>572</ele>
        <time>2019-03-05T13:58:18Z</time>
      </trkpt>
      <trkpt lat="44.42206" lon="6.01855">
        <ele>573</ele>
        <time>2019-03-05T13:58:19Z</time>
      </trkpt>
      <trkpt lat="44.42203" lon="6.01859">
        <ele>573</ele>
        <time>2019-03-05T13:58:20Z</time>
      </trkpt>
      <trkpt lat="44.42199" lon="6.01862">
        <ele>573</ele>
        <time>2019-03-05T13:58:21Z</time>
      </trkpt>
      <trkpt lat="44.42196" lon="6.01866">
        <ele>574</ele>
        <time>2019-03-05T13:58:22Z</time>
      </trkpt>
      <trkpt lat="44.42193" lon="6.0187">
        <ele>574</ele>
        <time>2019-03-05T13:58:23Z</time>
      </trkpt>
      <trkpt lat="44.42189" lon="6.01874">
        <ele>574</ele>
        <time>2019-03-05T13:58:24Z</time>
      </trkpt>
      <trkpt lat="44.42186" lon="6.01878">
        <ele>574</ele>
        <time>2019-03-05T13:58:25Z</time>
      </trkpt>
      <trkpt lat="44.42182" lon="6.01883">
        <ele>574</ele>
        <time>2019-03-05T13:58:26Z</time>
      </trkpt>
      <trkpt lat="44.42178" lon="6.01888">
        <ele>574</ele>
        <time>2019-03-05T13:58:27Z</time>
      </trkpt>
      <trkpt lat="44.42175" lon="6.01892">
        <ele>574</ele>
        <time>2019-03-05T13:58:28Z</time>
      </trkpt>
      <trkpt lat="44.42171" lon="6.01897">
        <ele>575</ele>
        <time>2019-03-05T13:58:29Z</time>
      </trkpt>
      <trkpt lat="44.42167" lon="6.01902">
        <ele>575</ele>
        <time>2019-03-05T13:58:30Z</time>
      </trkpt>
      <trkpt lat="44.42163" lon="6.01907">
        <ele>575</ele>
        <time>2019-03-05T13:58:31Z</time>
      </trkpt>
      <trkpt lat="44.4216" lon="6.01912">
        <ele>575</ele>
        <time>2019-03-05T13:58:32Z</time>
      </trkpt>
      <trkpt lat="44.42155" lon="6.01917">
        <ele>575</ele>
        <time>2019-03-05T13:58:33Z</time>
      </trkpt>
      <trkpt lat="44.42151" lon="6.01922">
        <ele>575</ele>
        <time>2019-03-05T13:58:34Z</time>
      </trkpt>
      <trkpt lat="44.42147" lon="6.01927">
        <ele>575</ele>
        <time>2019-03-05T13:58:35Z</time>
      </trkpt>
      <trkpt lat="44.42143" lon="6.01932">
        <ele>575</ele>
        <time>2019-03-05T13:58:36Z</time>
      </trkpt>
      <trkpt lat="44.42139" lon="6.01937">
        <ele>575</ele>
        <time>2019-03-05T13:58:37Z</time>
      </trkpt>
      <trkpt lat="44.42135" lon="6.01942">
        <ele>575</ele>
        <time>2019-03-05T13:58:38Z</time>
      </trkpt>
      <trkpt lat="44.42131" lon="6.01947">
        <ele>575</ele>
        <time>2019-03-05T13:58:39Z</time>
      </trkpt>
      <trkpt lat="44.42127" lon="6.01952">
        <ele>575</ele>
        <time>2019-03-05T13:58:40Z</time>
      </trkpt>
      <trkpt lat="44.42123" lon="6.01957">
        <ele>575</ele>
        <time>2019-03-05T13:58:41Z</time>
      </trkpt>
      <trkpt lat="44.42119" lon="6.01962">
        <ele>575</ele>
        <time>2019-03-05T13:58:42Z</time>
      </trkpt>
      <trkpt lat="44.42115" lon="6.01967">
        <ele>575</ele>
        <time>2019-03-05T13:58:43Z</time>
      </trkpt>
      <trkpt lat="44.42112" lon="6.01972">
        <ele>575</ele>
        <time>2019-03-05T13:58:44Z</time>
      </trkpt>
      <trkpt lat="44.42107" lon="6.01977">
        <ele>575</ele>
        <time>2019-03-05T13:58:45Z</time>
      </trkpt>
      <trkpt lat="44.42103" lon="6.01982">
        <ele>575</ele>
        <time>2019-03-05T13:58:46Z</time>
      </trkpt>
      <trkpt lat="44.42099" lon="6.01987">
        <ele>575</ele>
        <time>2019-03-05T13:58:47Z</time>
      </trkpt>
      <trkpt lat="44.42095" lon="6.01993">
        <ele>575</ele>
        <time>2019-03-05T13:58:48Z</time>
      </trkpt>
      <trkpt lat="44.42091" lon="6.01998">
        <ele>575</ele>
        <time>2019-03-05T13:58:49Z</time>
      </trkpt>
      <trkpt lat="44.42087" lon="6.02003">
        <ele>575</ele>
        <time>2019-03-05T13:58:50Z</time>
      </trkpt>
      <trkpt lat="44.42083" lon="6.02008">
        <ele>575</ele>
        <time>2019-03-05T13:58:51Z</time>
      </trkpt>
      <trkpt lat="44.42079" lon="6.02013">
        <ele>575</ele>
        <time>2019-03-05T13:58:52Z</time>
      </trkpt>
      <trkpt lat="44.42075" lon="6.02018">
        <ele>575</ele>
        <time>2019-03-05T13:58:53Z</time>
      </trkpt>
      <trkpt lat="44.42071" lon="6.02023">
        <ele>575</ele>
        <time>2019-03-05T13:58:54Z</time>
      </trkpt>
      <trkpt lat="44.42067" lon="6.02028">
        <ele>575</ele>
        <time>2019-03-05T13:58:55Z</time>
      </trkpt>
      <trkpt lat="44.42063" lon="6.02033">
        <ele>575</ele>
        <time>2019-03-05T13:58:56Z</time>
      </trkpt>
      <trkpt lat="44.42059" lon="6.02038">
        <ele>575</ele>
        <time>2019-03-05T13:58:57Z</time>
      </trkpt>
      <trkpt lat="44.42054" lon="6.02043">
        <ele>575</ele>
        <time>2019-03-05T13:58:58Z</time>
      </trkpt>
      <trkpt lat="44.42051" lon="6.02048">
        <ele>575</ele>
        <time>2019-03-05T13:58:59Z</time>
      </trkpt>
      <trkpt lat="44.42046" lon="6.02053">
        <ele>575</ele>
        <time>2019-03-05T13:59:00Z</time>
      </trkpt>
      <trkpt lat="44.42042" lon="6.02058">
        <ele>575</ele>
        <time>2019-03-05T13:59:01Z</time>
      </trkpt>
      <trkpt lat="44.42038" lon="6.02063">
        <ele>575</ele>
        <time>2019-03-05T13:59:02Z</time>
      </trkpt>
      <trkpt lat="44.42034" lon="6.02068">
        <ele>575</ele>
        <time>2019-03-05T13:59:03Z</time>
      </trkpt>
      <trkpt lat="44.4203" lon="6.02073">
        <ele>575</ele>
        <time>2019-03-05T13:59:04Z</time>
      </trkpt>
      <trkpt lat="44.42025" lon="6.02079">
        <ele>575</ele>
        <time>2019-03-05T13:59:05Z</time>
      </trkpt>
      <trkpt lat="44.42021" lon="6.02084">
        <ele>575</ele>
        <time>2019-03-05T13:59:06Z</time>
      </trkpt>
      <trkpt lat="44.42017" lon="6.02089">
        <ele>575</ele>
        <time>2019-03-05T13:59:07Z</time>
      </trkpt>
      <trkpt lat="44.42013" lon="6.02095">
        <ele>575</ele>
        <time>2019-03-05T13:59:08Z</time>
      </trkpt>
      <trkpt lat="44.42009" lon="6.021">
        <ele>575</ele>
        <time>2019-03-05T13:59:09Z</time>
      </trkpt>
      <trkpt lat="44.42005" lon="6.02105">
        <ele>575</ele>
        <time>2019-03-05T13:59:10Z</time>
      </trkpt>
      <trkpt lat="44.42001" lon="6.02111">
        <ele>575</ele>
        <time>2019-03-05T13:59:11Z</time>
      </trkpt>
      <trkpt lat="44.41997" lon="6.02116">
        <ele>575</ele>
        <time>2019-03-05T13:59:12Z</time>
      </trkpt>
      <trkpt lat="44.41993" lon="6.02121">
        <ele>575</ele>
        <time>2019-03-05T13:59:13Z</time>
      </trkpt>
      <trkpt lat="44.41988" lon="6.02125">
        <ele>575</ele>
        <time>2019-03-05T13:59:14Z</time>
      </trkpt>
      <trkpt lat="44.41983" lon="6.02126">
        <ele>575</ele>
        <time>2019-03-05T13:59:15Z</time>
      </trkpt>
      <trkpt lat="44.41979" lon="6.02126">
        <ele>575</ele>
        <time>2019-03-05T13:59:16Z</time>
      </trkpt>
      <trkpt lat="44.41975" lon="6.02123">
        <ele>575</ele>
        <time>2019-03-05T13:59:17Z</time>
      </trkpt>
      <trkpt lat="44.41972" lon="6.02118">
        <ele>575</ele>
        <time>2019-03-05T13:59:18Z</time>
      </trkpt>
      <trkpt lat="44.41969" lon="6.02112">
        <ele>575</ele>
        <time>2019-03-05T13:59:19Z</time>
      </trkpt>
      <trkpt lat="44.41967" lon="6.02106">
        <ele>575</ele>
        <time>2019-03-05T13:59:20Z</time>
      </trkpt>
      <trkpt lat="44.41965" lon="6.021">
        <ele>575</ele>
        <time>2019-03-05T13:59:21Z</time>
      </trkpt>
      <trkpt lat="44.41962" lon="6.02093">
        <ele>575</ele>
        <time>2019-03-05T13:59:22Z</time>
      </trkpt>
      <trkpt lat="44.4196" lon="6.02086">
        <ele>575</ele>
        <time>2019-03-05T13:59:23Z</time>
      </trkpt>
      <trkpt lat="44.41958" lon="6.02078">
        <ele>575</ele>
        <time>2019-03-05T13:59:24Z</time>
      </trkpt>
      <trkpt lat="44.41955" lon="6.0207">
        <ele>575</ele>
        <time>2019-03-05T13:59:25Z</time>
      </trkpt>
      <trkpt lat="44.41953" lon="6.02062">
        <ele>575</ele>
        <time>2019-03-05T13:59:26Z</time>
      </trkpt>
      <trkpt lat="44.4195" lon="6.02054">
        <ele>575</ele>
        <time>2019-03-05T13:59:27Z</time>
      </trkpt>
      <trkpt lat="44.41948" lon="6.02046">
        <ele>575</ele>
        <time>2019-03-05T13:59:28Z</time>
      </trkpt>
      <trkpt lat="44.41945" lon="6.02038">
        <ele>575</ele>
        <time>2019-03-05T13:59:29Z</time>
      </trkpt>
      <trkpt lat="44.41942" lon="6.02029">
        <ele>576</ele>
        <time>2019-03-05T13:59:30Z</time>
      </trkpt>
      <trkpt lat="44.41939" lon="6.0202">
        <ele>577</ele>
        <time>2019-03-05T13:59:31Z</time>
      </trkpt>
      <trkpt lat="44.41936" lon="6.02012">
        <ele>578</ele>
        <time>2019-03-05T13:59:32Z</time>
      </trkpt>
      <trkpt lat="44.41933" lon="6.02005">
        <ele>579</ele>
        <time>2019-03-05T13:59:33Z</time>
      </trkpt>
      <trkpt lat="44.4193" lon="6.01997">
        <ele>580</ele>
        <time>2019-03-05T13:59:34Z</time>
      </trkpt>
      <trkpt lat="44.41926" lon="6.0199">
        <ele>580</ele>
        <time>2019-03-05T13:59:35Z</time>
      </trkpt>
      <trkpt lat="44.41922" lon="6.01984">
        <ele>580</ele>
        <time>2019-03-05T13:59:36Z</time>
      </trkpt>
      <trkpt lat="44.41918" lon="6.01978">
        <ele>580</ele>
        <time>2019-03-05T13:59:37Z</time>
      </trkpt>
      <trkpt lat="44.41914" lon="6.01973">
        <ele>581</ele>
        <time>2019-03-05T13:59:38Z</time>
      </trkpt>
      <trkpt lat="44.41909" lon="6.01968">
        <ele>581</ele>
        <time>2019-03-05T13:59:39Z</time>
      </trkpt>
      <trkpt lat="44.41905" lon="6.01964">
        <ele>582</ele>
        <time>2019-03-05T13:59:40Z</time>
      </trkpt>
      <trkpt lat="44.41901" lon="6.01961">
        <ele>582</ele>
        <time>2019-03-05T13:59:41Z</time>
      </trkpt>
      <trkpt lat="44.41896" lon="6.01957">
        <ele>582</ele>
        <time>2019-03-05T13:59:42Z</time>
      </trkpt>
      <trkpt lat="44.41891" lon="6.01954">
        <ele>582</ele>
        <time>2019-03-05T13:59:43Z</time>
      </trkpt>
      <trkpt lat="44.41887" lon="6.01951">
        <ele>583</ele>
        <time>2019-03-05T13:59:44Z</time>
      </trkpt>
      <trkpt lat="44.41882" lon="6.01947">
        <ele>583</ele>
        <time>2019-03-05T13:59:45Z</time>
      </trkpt>
      <trkpt lat="44.41878" lon="6.01943">
        <ele>583</ele>
        <time>2019-03-05T13:59:46Z</time>
      </trkpt>
      <trkpt lat="44.41873" lon="6.01939">
        <ele>583</ele>
        <time>2019-03-05T13:59:47Z</time>
      </trkpt>
      <trkpt lat="44.41868" lon="6.01935">
        <ele>583</ele>
        <time>2019-03-05T13:59:48Z</time>
      </trkpt>
      <trkpt lat="44.41863" lon="6.01931">
        <ele>583</ele>
        <time>2019-03-05T13:59:49Z</time>
      </trkpt>
      <trkpt lat="44.41858" lon="6.01926">
        <ele>583</ele>
        <time>2019-03-05T13:59:50Z</time>
      </trkpt>
      <trkpt lat="44.41853" lon="6.01922">
        <ele>583</ele>
        <time>2019-03-05T13:59:51Z</time>
      </trkpt>
      <trkpt lat="44.41848" lon="6.01918">
        <ele>583</ele>
        <time>2019-03-05T13:59:52Z</time>
      </trkpt>
      <trkpt lat="44.41842" lon="6.01914">
        <ele>583</ele>
        <time>2019-03-05T13:59:53Z</time>
      </trkpt>
      <trkpt lat="44.41836" lon="6.0191">
        <ele>583</ele>
        <time>2019-03-05T13:59:54Z</time>
      </trkpt>
      <trkpt lat="44.41831" lon="6.01906">
        <ele>583</ele>
        <time>2019-03-05T13:59:55Z</time>
      </trkpt>
      <trkpt lat="44.41825" lon="6.01902">
        <ele>583</ele>
        <time>2019-03-05T13:59:56Z</time>
      </trkpt>
      <trkpt lat="44.41819" lon="6.01898">
        <ele>583</ele>
        <time>2019-03-05T13:59:57Z</time>
      </trkpt>
      <trkpt lat="44.41814" lon="6.01893">
        <ele>583</ele>
        <time>2019-03-05T13:59:58Z</time>
      </trkpt>
      <trkpt lat="44.41808" lon="6.01888">
        <ele>583</ele>
        <time>2019-03-05T13:59:59Z</time>
      </trkpt>
      <trkpt lat="44.41803" lon="6.01883">
        <ele>583</ele>
        <time>2019-03-05T14:00:00Z</time>
      </trkpt>
      <trkpt lat="44.41797" lon="6.01878">
        <ele>583</ele>
        <time>2019-03-05T14:00:01Z</time>
      </trkpt>
      <trkpt lat="44.41792" lon="6.01872">
        <ele>583</ele>
        <time>2019-03-05T14:00:02Z</time>
      </trkpt>
      <trkpt lat="44.41787" lon="6.01866">
        <ele>583</ele>
        <time>2019-03-05T14:00:03Z</time>
      </trkpt>
      <trkpt lat="44.41783" lon="6.01859">
        <ele>583</ele>
        <time>2019-03-05T14:00:04Z</time>
      </trkpt>
      <trkpt lat="44.4178" lon="6.01852">
        <ele>583</ele>
        <time>2019-03-05T14:00:05Z</time>
      </trkpt>
      <trkpt lat="44.41777" lon="6.01845">
        <ele>583</ele>
        <time>2019-03-05T14:00:06Z</time>
      </trkpt>
      <trkpt lat="44.41774" lon="6.01838">
        <ele>583</ele>
        <time>2019-03-05T14:00:07Z</time>
      </trkpt>
      <trkpt lat="44.41771" lon="6.01832">
        <ele>583</ele>
        <time>2019-03-05T14:00:08Z</time>
      </trkpt>
      <trkpt lat="44.41769" lon="6.01826">
        <ele>583</ele>
        <time>2019-03-05T14:00:09Z</time>
      </trkpt>
      <trkpt lat="44.41767" lon="6.01819">
        <ele>583</ele>
        <time>2019-03-05T14:00:10Z</time>
      </trkpt>
      <trkpt lat="44.41764" lon="6.01812">
        <ele>583</ele>
        <time>2019-03-05T14:00:11Z</time>
      </trkpt>
      <trkpt lat="44.41762" lon="6.01805">
        <ele>583</ele>
        <time>2019-03-05T14:00:12Z</time>
      </trkpt>
      <trkpt lat="44.4176" lon="6.01799">
        <ele>583</ele>
        <time>2019-03-05T14:00:13Z</time>
      </trkpt>
      <trkpt lat="44.41758" lon="6.01793">
        <ele>584</ele>
        <time>2019-03-05T14:00:14Z</time>
      </trkpt>
      <trkpt lat="44.41756" lon="6.01787">
        <ele>585</ele>
        <time>2019-03-05T14:00:15Z</time>
      </trkpt>
      <trkpt lat="44.41754" lon="6.01781">
        <ele>586</ele>
        <time>2019-03-05T14:00:16Z</time>
      </trkpt>
      <trkpt lat="44.41752" lon="6.01776">
        <ele>587</ele>
        <time>2019-03-05T14:00:17Z</time>
      </trkpt>
      <trkpt lat="44.4175" lon="6.0177">
        <ele>588</ele>
        <time>2019-03-05T14:00:18Z</time>
      </trkpt>
      <trkpt lat="44.41748" lon="6.01763">
        <ele>589</ele>
        <time>2019-03-05T14:00:19Z</time>
      </trkpt>
      <trkpt lat="44.41747" lon="6.01756">
        <ele>589</ele>
        <time>2019-03-05T14:00:20Z</time>
      </trkpt>
      <trkpt lat="44.41745" lon="6.0175">
        <ele>590</ele>
        <time>2019-03-05T14:00:21Z</time>
      </trkpt>
      <trkpt lat="44.41743" lon="6.01744">
        <ele>590</ele>
        <time>2019-03-05T14:00:22Z</time>
      </trkpt>
      <trkpt lat="44.41741" lon="6.01738">
        <ele>590</ele>
        <time>2019-03-05T14:00:23Z</time>
      </trkpt>
      <trkpt lat="44.41739" lon="6.01731">
        <ele>590</ele>
        <time>2019-03-05T14:00:24Z</time>
      </trkpt>
      <trkpt lat="44.41737" lon="6.01725">
        <ele>590</ele>
        <time>2019-03-05T14:00:25Z</time>
      </trkpt>
      <trkpt lat="44.41735" lon="6.01719">
        <ele>590</ele>
        <time>2019-03-05T14:00:26Z</time>
      </trkpt>
      <trkpt lat="44.41732" lon="6.01712">
        <ele>590</ele>
        <time>2019-03-05T14:00:27Z</time>
      </trkpt>
      <trkpt lat="44.4173" lon="6.01706">
        <ele>590</ele>
        <time>2019-03-05T14:00:28Z</time>
      </trkpt>
      <trkpt lat="44.41729" lon="6.01699">
        <ele>590</ele>
        <time>2019-03-05T14:00:29Z</time>
      </trkpt>
      <trkpt lat="44.41727" lon="6.01693">
        <ele>590</ele>
        <time>2019-03-05T14:00:30Z</time>
      </trkpt>
      <trkpt lat="44.41725" lon="6.01687">
        <ele>590</ele>
        <time>2019-03-05T14:00:31Z</time>
      </trkpt>
      <trkpt lat="44.41723" lon="6.01682">
        <ele>590</ele>
        <time>2019-03-05T14:00:32Z</time>
      </trkpt>
      <trkpt lat="44.41721" lon="6.01676">
        <ele>590</ele>
        <time>2019-03-05T14:00:33Z</time>
      </trkpt>
      <trkpt lat="44.41719" lon="6.01671">
        <ele>590</ele>
        <time>2019-03-05T14:00:34Z</time>
      </trkpt>
      <trkpt lat="44.41717" lon="6.01665">
        <ele>590</ele>
        <time>2019-03-05T14:00:35Z</time>
      </trkpt>
      <trkpt lat="44.41715" lon="6.01659">
        <ele>590</ele>
        <time>2019-03-05T14:00:36Z</time>
      </trkpt>
      <trkpt lat="44.41713" lon="6.01652">
        <ele>590</ele>
        <time>2019-03-05T14:00:37Z</time>
      </trkpt>
      <trkpt lat="44.41711" lon="6.01647">
        <ele>590</ele>
        <time>2019-03-05T14:00:38Z</time>
      </trkpt>
      <trkpt lat="44.4171" lon="6.0164">
        <ele>590</ele>
        <time>2019-03-05T14:00:39Z</time>
      </trkpt>
      <trkpt lat="44.41708" lon="6.01635">
        <ele>590</ele>
        <time>2019-03-05T14:00:40Z</time>
      </trkpt>
      <trkpt lat="44.41706" lon="6.01629">
        <ele>590</ele>
        <time>2019-03-05T14:00:41Z</time>
      </trkpt>
      <trkpt lat="44.41703" lon="6.01624">
        <ele>590</ele>
        <time>2019-03-05T14:00:42Z</time>
      </trkpt>
      <trkpt lat="44.41702" lon="6.01618">
        <ele>590</ele>
        <time>2019-03-05T14:00:43Z</time>
      </trkpt>
      <trkpt lat="44.417" lon="6.01613">
        <ele>590</ele>
        <time>2019-03-05T14:00:44Z</time>
      </trkpt>
      <trkpt lat="44.41699" lon="6.01608">
        <ele>590</ele>
        <time>2019-03-05T14:00:45Z</time>
      </trkpt>
      <trkpt lat="44.41697" lon="6.01602">
        <ele>590</ele>
        <time>2019-03-05T14:00:46Z</time>
      </trkpt>
      <trkpt lat="44.41696" lon="6.01597">
        <ele>590</ele>
        <time>2019-03-05T14:00:47Z</time>
      </trkpt>
      <trkpt lat="44.41695" lon="6.01592">
        <ele>590</ele>
        <time>2019-03-05T14:00:48Z</time>
      </trkpt>
      <trkpt lat="44.41693" lon="6.01587">
        <ele>590</ele>
        <time>2019-03-05T14:00:49Z</time>
      </trkpt>
      <trkpt lat="44.41692" lon="6.01581">
        <ele>590</ele>
        <time>2019-03-05T14:00:50Z</time>
      </trkpt>
      <trkpt lat="44.4169" lon="6.01576">
        <ele>590</ele>
        <time>2019-03-05T14:00:51Z</time>
      </trkpt>
      <trkpt lat="44.41689" lon="6.01571">
        <ele>590</ele>
        <time>2019-03-05T14:00:52Z</time>
      </trkpt>
      <trkpt lat="44.41687" lon="6.01565">
        <ele>590</ele>
        <time>2019-03-05T14:00:53Z</time>
      </trkpt>
      <trkpt lat="44.41686" lon="6.0156">
        <ele>590</ele>
        <time>2019-03-05T14:00:54Z</time>
      </trkpt>
      <trkpt lat="44.41684" lon="6.01555">
        <ele>590</ele>
        <time>2019-03-05T14:00:55Z</time>
      </trkpt>
      <trkpt lat="44.41682" lon="6.0155">
        <ele>590</ele>
        <time>2019-03-05T14:00:56Z</time>
      </trkpt>
      <trkpt lat="44.41679" lon="6.01545">
        <ele>590</ele>
        <time>2019-03-05T14:00:57Z</time>
      </trkpt>
      <trkpt lat="44.41678" lon="6.0154">
        <ele>590</ele>
        <time>2019-03-05T14:00:58Z</time>
      </trkpt>
      <trkpt lat="44.41677" lon="6.01535">
        <ele>590</ele>
        <time>2019-03-05T14:00:59Z</time>
      </trkpt>
      <trkpt lat="44.41677" lon="6.01529">
        <ele>590</ele>
        <time>2019-03-05T14:01:00Z</time>
      </trkpt>
      <trkpt lat="44.41677" lon="6.01524">
        <ele>590</ele>
        <time>2019-03-05T14:01:01Z</time>
      </trkpt>
      <trkpt lat="44.41676" lon="6.01519">
        <ele>590</ele>
        <time>2019-03-05T14:01:02Z</time>
      </trkpt>
      <trkpt lat="44.41675" lon="6.01513">
        <ele>590</ele>
        <time>2019-03-05T14:01:03Z</time>
      </trkpt>
      <trkpt lat="44.41674" lon="6.01508">
        <ele>590</ele>
        <time>2019-03-05T14:01:04Z</time>
      </trkpt>
      <trkpt lat="44.41673" lon="6.01502">
        <ele>590</ele>
        <time>2019-03-05T14:01:05Z</time>
      </trkpt>
      <trkpt lat="44.41672" lon="6.01496">
        <ele>590</ele>
        <time>2019-03-05T14:01:06Z</time>
      </trkpt>
      <trkpt lat="44.41671" lon="6.0149">
        <ele>590</ele>
        <time>2019-03-05T14:01:07Z</time>
      </trkpt>
      <trkpt lat="44.41671" lon="6.01484">
        <ele>590</ele>
        <time>2019-03-05T14:01:08Z</time>
      </trkpt>
      <trkpt lat="44.4167" lon="6.01479">
        <ele>590</ele>
        <time>2019-03-05T14:01:09Z</time>
      </trkpt>
      <trkpt lat="44.4167" lon="6.01473">
        <ele>590</ele>
        <time>2019-03-05T14:01:10Z</time>
      </trkpt>
      <trkpt lat="44.41669" lon="6.01468">
        <ele>590</ele>
        <time>2019-03-05T14:01:11Z</time>
      </trkpt>
      <trkpt lat="44.41668" lon="6.01462">
        <ele>590</ele>
        <time>2019-03-05T14:01:12Z</time>
      </trkpt>
      <trkpt lat="44.41667" lon="6.01457">
        <ele>590</ele>
        <time>2019-03-05T14:01:13Z</time>
      </trkpt>
      <trkpt lat="44.41666" lon="6.01452">
        <ele>590</ele>
        <time>2019-03-05T14:01:14Z</time>
      </trkpt>
      <trkpt lat="44.41665" lon="6.01446">
        <ele>590</ele>
        <time>2019-03-05T14:01:15Z</time>
      </trkpt>
      <trkpt lat="44.41662" lon="6.01441">
        <ele>590</ele>
        <time>2019-03-05T14:01:16Z</time>
      </trkpt>
      <trkpt lat="44.41659" lon="6.01436">
        <ele>590</ele>
        <time>2019-03-05T14:01:17Z</time>
      </trkpt>
      <trkpt lat="44.41657" lon="6.0143">
        <ele>590</ele>
        <time>2019-03-05T14:01:18Z</time>
      </trkpt>
      <trkpt lat="44.41654" lon="6.01425">
        <ele>590</ele>
        <time>2019-03-05T14:01:19Z</time>
      </trkpt>
      <trkpt lat="44.41652" lon="6.01419">
        <ele>590</ele>
        <time>2019-03-05T14:01:20Z</time>
      </trkpt>
      <trkpt lat="44.41649" lon="6.01414">
        <ele>590</ele>
        <time>2019-03-05T14:01:21Z</time>
      </trkpt>
      <trkpt lat="44.41647" lon="6.01409">
        <ele>590</ele>
        <time>2019-03-05T14:01:22Z</time>
      </trkpt>
      <trkpt lat="44.41644" lon="6.01404">
        <ele>590</ele>
        <time>2019-03-05T14:01:23Z</time>
      </trkpt>
      <trkpt lat="44.41642" lon="6.01398">
        <ele>590</ele>
        <time>2019-03-05T14:01:24Z</time>
      </trkpt>
      <trkpt lat="44.41639" lon="6.01393">
        <ele>590</ele>
        <time>2019-03-05T14:01:25Z</time>
      </trkpt>
      <trkpt lat="44.41637" lon="6.01387">
        <ele>590</ele>
        <time>2019-03-05T14:01:26Z</time>
      </trkpt>
      <trkpt lat="44.41634" lon="6.01382">
        <ele>590</ele>
        <time>2019-03-05T14:01:27Z</time>
      </trkpt>
      <trkpt lat="44.41631" lon="6.01376">
        <ele>590</ele>
        <time>2019-03-05T14:01:28Z</time>
      </trkpt>
      <trkpt lat="44.41629" lon="6.01371">
        <ele>590</ele>
        <time>2019-03-05T14:01:29Z</time>
      </trkpt>
      <trkpt lat="44.41627" lon="6.01366">
        <ele>590</ele>
        <time>2019-03-05T14:01:30Z</time>
      </trkpt>
      <trkpt lat="44.41624" lon="6.0136">
        <ele>590</ele>
        <time>2019-03-05T14:01:31Z</time>
      </trkpt>
      <trkpt lat="44.41622" lon="6.01355">
        <ele>590</ele>
        <time>2019-03-05T14:01:32Z</time>
      </trkpt>
      <trkpt lat="44.41619" lon="6.0135">
        <ele>590</ele>
        <time>2019-03-05T14:01:33Z</time>
      </trkpt>
      <trkpt lat="44.41617" lon="6.01345">
        <ele>590</ele>
        <time>2019-03-05T14:01:34Z</time>
      </trkpt>
      <trkpt lat="44.41614" lon="6.01339">
        <ele>590</ele>
        <time>2019-03-05T14:01:35Z</time>
      </trkpt>
      <trkpt lat="44.41612" lon="6.01334">
        <ele>590</ele>
        <time>2019-03-05T14:01:36Z</time>
      </trkpt>
      <trkpt lat="44.41609" lon="6.0133">
        <ele>590</ele>
        <time>2019-03-05T14:01:37Z</time>
      </trkpt>
      <trkpt lat="44.41607" lon="6.01325">
        <ele>590</ele>
        <time>2019-03-05T14:01:38Z</time>
      </trkpt>
      <trkpt lat="44.41604" lon="6.01319">
        <ele>590</ele>
        <time>2019-03-05T14:01:39Z</time>
      </trkpt>
      <trkpt lat="44.41602" lon="6.01314">
        <ele>590</ele>
        <time>2019-03-05T14:01:40Z</time>
      </trkpt>
      <trkpt lat="44.41599" lon="6.01309">
        <ele>590</ele>
        <time>2019-03-05T14:01:41Z</time>
      </trkpt>
      <trkpt lat="44.41596" lon="6.01304">
        <ele>590</ele>
        <time>2019-03-05T14:01:42Z</time>
      </trkpt>
      <trkpt lat="44.41594" lon="6.01299">
        <ele>590</ele>
        <time>2019-03-05T14:01:43Z</time>
      </trkpt>
      <trkpt lat="44.41591" lon="6.01294">
        <ele>590</ele>
        <time>2019-03-05T14:01:44Z</time>
      </trkpt>
      <trkpt lat="44.41587" lon="6.01289">
        <ele>590</ele>
        <time>2019-03-05T14:01:45Z</time>
      </trkpt>
      <trkpt lat="44.41584" lon="6.01285">
        <ele>590</ele>
        <time>2019-03-05T14:01:46Z</time>
      </trkpt>
      <trkpt lat="44.41581" lon="6.01279">
        <ele>590</ele>
        <time>2019-03-05T14:01:47Z</time>
      </trkpt>
      <trkpt lat="44.41578" lon="6.01275">
        <ele>590</ele>
        <time>2019-03-05T14:01:48Z</time>
      </trkpt>
      <trkpt lat="44.41574" lon="6.0127">
        <ele>590</ele>
        <time>2019-03-05T14:01:49Z</time>
      </trkpt>
      <trkpt lat="44.4157" lon="6.01266">
        <ele>590</ele>
        <time>2019-03-05T14:01:50Z</time>
      </trkpt>
      <trkpt lat="44.41566" lon="6.01261">
        <ele>590</ele>
        <time>2019-03-05T14:01:51Z</time>
      </trkpt>
      <trkpt lat="44.41563" lon="6.01257">
        <ele>590</ele>
        <time>2019-03-05T14:01:52Z</time>
      </trkpt>
      <trkpt lat="44.41559" lon="6.01252">
        <ele>590</ele>
        <time>2019-03-05T14:01:53Z</time>
      </trkpt>
      <trkpt lat="44.41555" lon="6.01248">
        <ele>590</ele>
        <time>2019-03-05T14:01:54Z</time>
      </trkpt>
      <trkpt lat="44.41551" lon="6.01243">
        <ele>590</ele>
        <time>2019-03-05T14:01:55Z</time>
      </trkpt>
      <trkpt lat="44.41546" lon="6.01238">
        <ele>590</ele>
        <time>2019-03-05T14:01:56Z</time>
      </trkpt>
      <trkpt lat="44.41542" lon="6.01233">
        <ele>590</ele>
        <time>2019-03-05T14:01:57Z</time>
      </trkpt>
      <trkpt lat="44.41537" lon="6.01229">
        <ele>590</ele>
        <time>2019-03-05T14:01:58Z</time>
      </trkpt>
      <trkpt lat="44.41533" lon="6.01224">
        <ele>590</ele>
        <time>2019-03-05T14:01:59Z</time>
      </trkpt>
      <trkpt lat="44.41528" lon="6.0122">
        <ele>590</ele>
        <time>2019-03-05T14:02:00Z</time>
      </trkpt>
      <trkpt lat="44.41523" lon="6.01215">
        <ele>590</ele>
        <time>2019-03-05T14:02:01Z</time>
      </trkpt>
      <trkpt lat="44.41519" lon="6.01211">
        <ele>590</ele>
        <time>2019-03-05T14:02:02Z</time>
      </trkpt>
      <trkpt lat="44.41514" lon="6.01207">
        <ele>590</ele>
        <time>2019-03-05T14:02:03Z</time>
      </trkpt>
      <trkpt lat="44.41509" lon="6.01203">
        <ele>590</ele>
        <time>2019-03-05T14:02:04Z</time>
      </trkpt>
      <trkpt lat="44.41504" lon="6.01199">
        <ele>590</ele>
        <time>2019-03-05T14:02:05Z</time>
      </trkpt>
      <trkpt lat="44.41499" lon="6.01196">
        <ele>590</ele>
        <time>2019-03-05T14:02:06Z</time>
      </trkpt>
      <trkpt lat="44.41494" lon="6.01192">
        <ele>590</ele>
        <time>2019-03-05T14:02:07Z</time>
      </trkpt>
      <trkpt lat="44.41489" lon="6.01187">
        <ele>590</ele>
        <time>2019-03-05T14:02:08Z</time>
      </trkpt>
      <trkpt lat="44.41484" lon="6.01183">
        <ele>590</ele>
        <time>2019-03-05T14:02:09Z</time>
      </trkpt>
      <trkpt lat="44.41479" lon="6.01178">
        <ele>590</ele>
        <time>2019-03-05T14:02:10Z</time>
      </trkpt>
      <trkpt lat="44.41474" lon="6.01174">
        <ele>590</ele>
        <time>2019-03-05T14:02:11Z</time>
      </trkpt>
      <trkpt lat="44.41469" lon="6.01169">
        <ele>590</ele>
        <time>2019-03-05T14:02:12Z</time>
      </trkpt>
      <trkpt lat="44.41465" lon="6.01164">
        <ele>590</ele>
        <time>2019-03-05T14:02:13Z</time>
      </trkpt>
      <trkpt lat="44.41459" lon="6.0116">
        <ele>590</ele>
        <time>2019-03-05T14:02:14Z</time>
      </trkpt>
      <trkpt lat="44.41454" lon="6.01155">
        <ele>590</ele>
        <time>2019-03-05T14:02:15Z</time>
      </trkpt>
      <trkpt lat="44.41449" lon="6.01151">
        <ele>590</ele>
        <time>2019-03-05T14:02:16Z</time>
      </trkpt>
      <trkpt lat="44.41444" lon="6.01146">
        <ele>590</ele>
        <time>2019-03-05T14:02:17Z</time>
      </trkpt>
      <trkpt lat="44.41439" lon="6.01141">
        <ele>590</ele>
        <time>2019-03-05T14:02:18Z</time>
      </trkpt>
      <trkpt lat="44.41434" lon="6.01136">
        <ele>590</ele>
        <time>2019-03-05T14:02:19Z</time>
      </trkpt>
      <trkpt lat="44.41429" lon="6.01132">
        <ele>590</ele>
        <time>2019-03-05T14:02:20Z</time>
      </trkpt>
      <trkpt lat="44.41424" lon="6.01126">
        <ele>590</ele>
        <time>2019-03-05T14:02:21Z</time>
      </trkpt>
      <trkpt lat="44.41419" lon="6.01121">
        <ele>590</ele>
        <time>2019-03-05T14:02:22Z</time>
      </trkpt>
      <trkpt lat="44.41413" lon="6.01116">
        <ele>590</ele>
        <time>2019-03-05T14:02:23Z</time>
      </trkpt>
      <trkpt lat="44.41408" lon="6.01111">
        <ele>590</ele>
        <time>2019-03-05T14:02:24Z</time>
      </trkpt>
      <trkpt lat="44.41403" lon="6.01106">
        <ele>590</ele>
        <time>2019-03-05T14:02:25Z</time>
      </trkpt>
      <trkpt lat="44.41397" lon="6.01101">
        <ele>590</ele>
        <time>2019-03-05T14:02:26Z</time>
      </trkpt>
      <trkpt lat="44.41392" lon="6.01095">
        <ele>590</ele>
        <time>2019-03-05T14:02:27Z</time>
      </trkpt>
      <trkpt lat="44.41386" lon="6.01089">
        <ele>590</ele>
        <time>2019-03-05T14:02:28Z</time>
      </trkpt>
      <trkpt lat="44.41381" lon="6.01083">
        <ele>590</ele>
        <time>2019-03-05T14:02:29Z</time>
      </trkpt>
      <trkpt lat="44.41375" lon="6.01076">
        <ele>590</ele>
        <time>2019-03-05T14:02:30Z</time>
      </trkpt>
      <trkpt lat="44.4137" lon="6.01069">
        <ele>590</ele>
        <time>2019-03-05T14:02:31Z</time>
      </trkpt>
      <trkpt lat="44.41365" lon="6.01061">
        <ele>590</ele>
        <time>2019-03-05T14:02:32Z</time>
      </trkpt>
      <trkpt lat="44.41361" lon="6.01054">
        <ele>590</ele>
        <time>2019-03-05T14:02:33Z</time>
      </trkpt>
      <trkpt lat="44.41357" lon="6.01046">
        <ele>589</ele>
        <time>2019-03-05T14:02:34Z</time>
      </trkpt>
      <trkpt lat="44.41352" lon="6.01038">
        <ele>589</ele>
        <time>2019-03-05T14:02:35Z</time>
      </trkpt>
      <trkpt lat="44.41348" lon="6.0103">
        <ele>588</ele>
        <time>2019-03-05T14:02:36Z</time>
      </trkpt>
      <trkpt lat="44.41344" lon="6.01021">
        <ele>588</ele>
        <time>2019-03-05T14:02:37Z</time>
      </trkpt>
      <trkpt lat="44.4134" lon="6.01011">
        <ele>587</ele>
        <time>2019-03-05T14:02:38Z</time>
      </trkpt>
      <trkpt lat="44.41336" lon="6.01002">
        <ele>587</ele>
        <time>2019-03-05T14:02:39Z</time>
      </trkpt>
      <trkpt lat="44.41331" lon="6.00992">
        <ele>586</ele>
        <time>2019-03-05T14:02:40Z</time>
      </trkpt>
      <trkpt lat="44.41326" lon="6.00983">
        <ele>586</ele>
        <time>2019-03-05T14:02:41Z</time>
      </trkpt>
      <trkpt lat="44.41322" lon="6.00974">
        <ele>585</ele>
        <time>2019-03-05T14:02:42Z</time>
      </trkpt>
      <trkpt lat="44.41317" lon="6.00965">
        <ele>585</ele>
        <time>2019-03-05T14:02:43Z</time>
      </trkpt>
      <trkpt lat="44.41313" lon="6.00956">
        <ele>584</ele>
        <time>2019-03-05T14:02:44Z</time>
      </trkpt>
      <trkpt lat="44.41309" lon="6.00947">
        <ele>584</ele>
        <time>2019-03-05T14:02:45Z</time>
      </trkpt>
      <trkpt lat="44.41305" lon="6.00938">
        <ele>584</ele>
        <time>2019-03-05T14:02:46Z</time>
      </trkpt>
      <trkpt lat="44.41301" lon="6.00928">
        <ele>583</ele>
        <time>2019-03-05T14:02:47Z</time>
      </trkpt>
      <trkpt lat="44.41298" lon="6.00918">
        <ele>583</ele>
        <time>2019-03-05T14:02:48Z</time>
      </trkpt>
      <trkpt lat="44.41294" lon="6.00908">
        <ele>583</ele>
        <time>2019-03-05T14:02:49Z</time>
      </trkpt>
      <trkpt lat="44.41291" lon="6.00899">
        <ele>582</ele>
        <time>2019-03-05T14:02:50Z</time>
      </trkpt>
      <trkpt lat="44.41288" lon="6.00888">
        <ele>582</ele>
        <time>2019-03-05T14:02:51Z</time>
      </trkpt>
      <trkpt lat="44.41285" lon="6.00879">
        <ele>582</ele>
        <time>2019-03-05T14:02:52Z</time>
      </trkpt>
      <trkpt lat="44.41283" lon="6.00869">
        <ele>582</ele>
        <time>2019-03-05T14:02:53Z</time>
      </trkpt>
      <trkpt lat="44.41281" lon="6.0086">
        <ele>582</ele>
        <time>2019-03-05T14:02:54Z</time>
      </trkpt>
      <trkpt lat="44.41278" lon="6.00851">
        <ele>582</ele>
        <time>2019-03-05T14:02:55Z</time>
      </trkpt>
      <trkpt lat="44.41276" lon="6.00843">
        <ele>582</ele>
        <time>2019-03-05T14:02:56Z</time>
      </trkpt>
      <trkpt lat="44.41274" lon="6.00835">
        <ele>582</ele>
        <time>2019-03-05T14:02:57Z</time>
      </trkpt>
      <trkpt lat="44.41272" lon="6.00827">
        <ele>582</ele>
        <time>2019-03-05T14:02:58Z</time>
      </trkpt>
      <trkpt lat="44.4127" lon="6.0082">
        <ele>582</ele>
        <time>2019-03-05T14:02:59Z</time>
      </trkpt>
      <trkpt lat="44.41268" lon="6.00814">
        <ele>582</ele>
        <time>2019-03-05T14:03:00Z</time>
      </trkpt>
      <trkpt lat="44.41266" lon="6.00807">
        <ele>582</ele>
        <time>2019-03-05T14:03:01Z</time>
      </trkpt>
      <trkpt lat="44.41264" lon="6.00801">
        <ele>582</ele>
        <time>2019-03-05T14:03:02Z</time>
      </trkpt>
      <trkpt lat="44.41263" lon="6.00795">
        <ele>582</ele>
        <time>2019-03-05T14:03:03Z</time>
      </trkpt>
      <trkpt lat="44.41261" lon="6.00788">
        <ele>582</ele>
        <time>2019-03-05T14:03:04Z</time>
      </trkpt>
      <trkpt lat="44.41259" lon="6.00782">
        <ele>582</ele>
        <time>2019-03-05T14:03:05Z</time>
      </trkpt>
      <trkpt lat="44.41257" lon="6.00775">
        <ele>582</ele>
        <time>2019-03-05T14:03:06Z</time>
      </trkpt>
      <trkpt lat="44.41256" lon="6.00769">
        <ele>582</ele>
        <time>2019-03-05T14:03:07Z</time>
      </trkpt>
      <trkpt lat="44.41254" lon="6.00763">
        <ele>582</ele>
        <time>2019-03-05T14:03:08Z</time>
      </trkpt>
      <trkpt lat="44.41252" lon="6.00756">
        <ele>582</ele>
        <time>2019-03-05T14:03:09Z</time>
      </trkpt>
      <trkpt lat="44.4125" lon="6.0075">
        <ele>582</ele>
        <time>2019-03-05T14:03:10Z</time>
      </trkpt>
      <trkpt lat="44.41248" lon="6.00743">
        <ele>582</ele>
        <time>2019-03-05T14:03:11Z</time>
      </trkpt>
      <trkpt lat="44.41246" lon="6.00737">
        <ele>582</ele>
        <time>2019-03-05T14:03:12Z</time>
      </trkpt>
      <trkpt lat="44.41244" lon="6.0073">
        <ele>582</ele>
        <time>2019-03-05T14:03:13Z</time>
      </trkpt>
      <trkpt lat="44.41242" lon="6.00724">
        <ele>582</ele>
        <time>2019-03-05T14:03:14Z</time>
      </trkpt>
      <trkpt lat="44.4124" lon="6.00717">
        <ele>582</ele>
        <time>2019-03-05T14:03:15Z</time>
      </trkpt>
      <trkpt lat="44.41238" lon="6.0071">
        <ele>582</ele>
        <time>2019-03-05T14:03:16Z</time>
      </trkpt>
      <trkpt lat="44.41236" lon="6.00704">
        <ele>582</ele>
        <time>2019-03-05T14:03:17Z</time>
      </trkpt>
      <trkpt lat="44.41235" lon="6.00697">
        <ele>582</ele>
        <time>2019-03-05T14:03:18Z</time>
      </trkpt>
      <trkpt lat="44.41232" lon="6.0069">
        <ele>582</ele>
        <time>2019-03-05T14:03:19Z</time>
      </trkpt>
      <trkpt lat="44.4123" lon="6.00682">
        <ele>582</ele>
        <time>2019-03-05T14:03:20Z</time>
      </trkpt>
      <trkpt lat="44.41228" lon="6.00675">
        <ele>582</ele>
        <time>2019-03-05T14:03:21Z</time>
      </trkpt>
      <trkpt lat="44.41227" lon="6.00668">
        <ele>582</ele>
        <time>2019-03-05T14:03:22Z</time>
      </trkpt>
      <trkpt lat="44.41225" lon="6.00661">
        <ele>582</ele>
        <time>2019-03-05T14:03:23Z</time>
      </trkpt>
      <trkpt lat="44.41223" lon="6.00653">
        <ele>582</ele>
        <time>2019-03-05T14:03:24Z</time>
      </trkpt>
      <trkpt lat="44.41221" lon="6.00646">
        <ele>582</ele>
        <time>2019-03-05T14:03:25Z</time>
      </trkpt>
      <trkpt lat="44.4122" lon="6.00638">
        <ele>582</ele>
        <time>2019-03-05T14:03:26Z</time>
      </trkpt>
      <trkpt lat="44.41218" lon="6.00631">
        <ele>582</ele>
        <time>2019-03-05T14:03:27Z</time>
      </trkpt>
      <trkpt lat="44.41216" lon="6.00624">
        <ele>582</ele>
        <time>2019-03-05T14:03:28Z</time>
      </trkpt>
      <trkpt lat="44.41214" lon="6.00616">
        <ele>582</ele>
        <time>2019-03-05T14:03:29Z</time>
      </trkpt>
      <trkpt lat="44.41212" lon="6.00609">
        <ele>582</ele>
        <time>2019-03-05T14:03:30Z</time>
      </trkpt>
      <trkpt lat="44.4121" lon="6.00602">
        <ele>582</ele>
        <time>2019-03-05T14:03:31Z</time>
      </trkpt>
      <trkpt lat="44.41208" lon="6.00595">
        <ele>582</ele>
        <time>2019-03-05T14:03:32Z</time>
      </trkpt>
      <trkpt lat="44.41206" lon="6.00588">
        <ele>582</ele>
        <time>2019-03-05T14:03:33Z</time>
      </trkpt>
      <trkpt lat="44.41204" lon="6.00582">
        <ele>582</ele>
        <time>2019-03-05T14:03:34Z</time>
      </trkpt>
      <trkpt lat="44.41202" lon="6.00575">
        <ele>582</ele>
        <time>2019-03-05T14:03:35Z</time>
      </trkpt>
      <trkpt lat="44.41201" lon="6.00568">
        <ele>582</ele>
        <time>2019-03-05T14:03:36Z</time>
      </trkpt>
      <trkpt lat="44.41199" lon="6.00561">
        <ele>582</ele>
        <time>2019-03-05T14:03:37Z</time>
      </trkpt>
      <trkpt lat="44.41198" lon="6.00555">
        <ele>582</ele>
        <time>2019-03-05T14:03:38Z</time>
      </trkpt>
      <trkpt lat="44.41197" lon="6.00548">
        <ele>582</ele>
        <time>2019-03-05T14:03:39Z</time>
      </trkpt>
      <trkpt lat="44.41195" lon="6.00541">
        <ele>582</ele>
        <time>2019-03-05T14:03:40Z</time>
      </trkpt>
      <trkpt lat="44.41193" lon="6.00535">
        <ele>582</ele>
        <time>2019-03-05T14:03:41Z</time>
      </trkpt>
      <trkpt lat="44.41191" lon="6.00527">
        <ele>582</ele>
        <time>2019-03-05T14:03:42Z</time>
      </trkpt>
      <trkpt lat="44.41189" lon="6.00521">
        <ele>582</ele>
        <time>2019-03-05T14:03:43Z</time>
      </trkpt>
      <trkpt lat="44.41188" lon="6.00515">
        <ele>582</ele>
        <time>2019-03-05T14:03:44Z</time>
      </trkpt>
      <trkpt lat="44.41186" lon="6.00508">
        <ele>582</ele>
        <time>2019-03-05T14:03:45Z</time>
      </trkpt>
      <trkpt lat="44.41184" lon="6.00502">
        <ele>582</ele>
        <time>2019-03-05T14:03:46Z</time>
      </trkpt>
      <trkpt lat="44.41182" lon="6.00496">
        <ele>582</ele>
        <time>2019-03-05T14:03:47Z</time>
      </trkpt>
      <trkpt lat="44.41181" lon="6.0049">
        <ele>582</ele>
        <time>2019-03-05T14:03:48Z</time>
      </trkpt>
      <trkpt lat="44.4118" lon="6.00484">
        <ele>582</ele>
        <time>2019-03-05T14:03:49Z</time>
      </trkpt>
      <trkpt lat="44.41178" lon="6.00478">
        <ele>582</ele>
        <time>2019-03-05T14:03:50Z</time>
      </trkpt>
      <trkpt lat="44.41176" lon="6.00472">
        <ele>582</ele>
        <time>2019-03-05T14:03:51Z</time>
      </trkpt>
      <trkpt lat="44.41174" lon="6.00466">
        <ele>582</ele>
        <time>2019-03-05T14:03:52Z</time>
      </trkpt>
      <trkpt lat="44.41173" lon="6.0046">
        <ele>582</ele>
        <time>2019-03-05T14:03:53Z</time>
      </trkpt>
      <trkpt lat="44.41171" lon="6.00453">
        <ele>582</ele>
        <time>2019-03-05T14:03:54Z</time>
      </trkpt>
      <trkpt lat="44.41168" lon="6.00446">
        <ele>582</ele>
        <time>2019-03-05T14:03:55Z</time>
      </trkpt>
      <trkpt lat="44.41167" lon="6.0044">
        <ele>582</ele>
        <time>2019-03-05T14:03:56Z</time>
      </trkpt>
      <trkpt lat="44.41165" lon="6.00433">
        <ele>582</ele>
        <time>2019-03-05T14:03:57Z</time>
      </trkpt>
      <trkpt lat="44.41163" lon="6.00427">
        <ele>582</ele>
        <time>2019-03-05T14:03:58Z</time>
      </trkpt>
      <trkpt lat="44.41161" lon="6.0042">
        <ele>583</ele>
        <time>2019-03-05T14:03:59Z</time>
      </trkpt>
      <trkpt lat="44.4116" lon="6.00414">
        <ele>583</ele>
        <time>2019-03-05T14:04:00Z</time>
      </trkpt>
      <trkpt lat="44.41157" lon="6.00406">
        <ele>583</ele>
        <time>2019-03-05T14:04:01Z</time>
      </trkpt>
      <trkpt lat="44.41155" lon="6.00399">
        <ele>583</ele>
        <time>2019-03-05T14:04:02Z</time>
      </trkpt>
      <trkpt lat="44.41154" lon="6.00392">
        <ele>583</ele>
        <time>2019-03-05T14:04:03Z</time>
      </trkpt>
      <trkpt lat="44.41152" lon="6.00385">
        <ele>583</ele>
        <time>2019-03-05T14:04:04Z</time>
      </trkpt>
      <trkpt lat="44.4115" lon="6.00379">
        <ele>583</ele>
        <time>2019-03-05T14:04:05Z</time>
      </trkpt>
      <trkpt lat="44.41148" lon="6.00372">
        <ele>583</ele>
        <time>2019-03-05T14:04:06Z</time>
      </trkpt>
      <trkpt lat="44.41146" lon="6.00365">
        <ele>583</ele>
        <time>2019-03-05T14:04:07Z</time>
      </trkpt>
      <trkpt lat="44.41145" lon="6.00358">
        <ele>583</ele>
        <time>2019-03-05T14:04:08Z</time>
      </trkpt>
      <trkpt lat="44.41143" lon="6.00351">
        <ele>583</ele>
        <time>2019-03-05T14:04:09Z</time>
      </trkpt>
      <trkpt lat="44.4114" lon="6.00344">
        <ele>583</ele>
        <time>2019-03-05T14:04:10Z</time>
      </trkpt>
      <trkpt lat="44.41138" lon="6.00337">
        <ele>583</ele>
        <time>2019-03-05T14:04:11Z</time>
      </trkpt>
      <trkpt lat="44.41136" lon="6.0033">
        <ele>583</ele>
        <time>2019-03-05T14:04:12Z</time>
      </trkpt>
      <trkpt lat="44.41135" lon="6.00322">
        <ele>583</ele>
        <time>2019-03-05T14:04:13Z</time>
      </trkpt>
      <trkpt lat="44.41132" lon="6.00315">
        <ele>583</ele>
        <time>2019-03-05T14:04:14Z</time>
      </trkpt>
      <trkpt lat="44.41131" lon="6.00307">
        <ele>583</ele>
        <time>2019-03-05T14:04:15Z</time>
      </trkpt>
      <trkpt lat="44.41129" lon="6.00299">
        <ele>583</ele>
        <time>2019-03-05T14:04:16Z</time>
      </trkpt>
      <trkpt lat="44.41127" lon="6.00291">
        <ele>583</ele>
        <time>2019-03-05T14:04:17Z</time>
      </trkpt>
      <trkpt lat="44.41125" lon="6.00284">
        <ele>583</ele>
        <time>2019-03-05T14:04:18Z</time>
      </trkpt>
      <trkpt lat="44.41123" lon="6.00276">
        <ele>583</ele>
        <time>2019-03-05T14:04:19Z</time>
      </trkpt>
      <trkpt lat="44.41121" lon="6.00269">
        <ele>583</ele>
        <time>2019-03-05T14:04:20Z</time>
      </trkpt>
      <trkpt lat="44.41119" lon="6.00261">
        <ele>583</ele>
        <time>2019-03-05T14:04:21Z</time>
      </trkpt>
      <trkpt lat="44.41117" lon="6.00253">
        <ele>583</ele>
        <time>2019-03-05T14:04:22Z</time>
      </trkpt>
      <trkpt lat="44.41115" lon="6.00245">
        <ele>583</ele>
        <time>2019-03-05T14:04:23Z</time>
      </trkpt>
      <trkpt lat="44.41113" lon="6.00237">
        <ele>583</ele>
        <time>2019-03-05T14:04:24Z</time>
      </trkpt>
      <trkpt lat="44.41111" lon="6.00229">
        <ele>583</ele>
        <time>2019-03-05T14:04:25Z</time>
      </trkpt>
      <trkpt lat="44.41109" lon="6.00221">
        <ele>583</ele>
        <time>2019-03-05T14:04:26Z</time>
      </trkpt>
      <trkpt lat="44.41106" lon="6.00213">
        <ele>583</ele>
        <time>2019-03-05T14:04:27Z</time>
      </trkpt>
      <trkpt lat="44.41104" lon="6.00205">
        <ele>583</ele>
        <time>2019-03-05T14:04:28Z</time>
      </trkpt>
      <trkpt lat="44.41101" lon="6.00195">
        <ele>583</ele>
        <time>2019-03-05T14:04:29Z</time>
      </trkpt>
      <trkpt lat="44.411" lon="6.00188">
        <ele>583</ele>
        <time>2019-03-05T14:04:30Z</time>
      </trkpt>
      <trkpt lat="44.41098" lon="6.00181">
        <ele>583</ele>
        <time>2019-03-05T14:04:31Z</time>
      </trkpt>
      <trkpt lat="44.41096" lon="6.00174">
        <ele>583</ele>
        <time>2019-03-05T14:04:32Z</time>
      </trkpt>
      <trkpt lat="44.41094" lon="6.00166">
        <ele>583</ele>
        <time>2019-03-05T14:04:33Z</time>
      </trkpt>
      <trkpt lat="44.41092" lon="6.00159">
        <ele>583</ele>
        <time>2019-03-05T14:04:34Z</time>
      </trkpt>
      <trkpt lat="44.4109" lon="6.00151">
        <ele>583</ele>
        <time>2019-03-05T14:04:35Z</time>
      </trkpt>
      <trkpt lat="44.41088" lon="6.00143">
        <ele>583</ele>
        <time>2019-03-05T14:04:36Z</time>
      </trkpt>
      <trkpt lat="44.41086" lon="6.00135">
        <ele>583</ele>
        <time>2019-03-05T14:04:37Z</time>
      </trkpt>
      <trkpt lat="44.41083" lon="6.00127">
        <ele>583</ele>
        <time>2019-03-05T14:04:38Z</time>
      </trkpt>
      <trkpt lat="44.41081" lon="6.00119">
        <ele>583</ele>
        <time>2019-03-05T14:04:39Z</time>
      </trkpt>
      <trkpt lat="44.41079" lon="6.0011">
        <ele>583</ele>
        <time>2019-03-05T14:04:40Z</time>
      </trkpt>
      <trkpt lat="44.41077" lon="6.00102">
        <ele>583</ele>
        <time>2019-03-05T14:04:41Z</time>
      </trkpt>
      <trkpt lat="44.41074" lon="6.00092">
        <ele>583</ele>
        <time>2019-03-05T14:04:42Z</time>
      </trkpt>
      <trkpt lat="44.41072" lon="6.00083">
        <ele>583</ele>
        <time>2019-03-05T14:04:43Z</time>
      </trkpt>
      <trkpt lat="44.4107" lon="6.00074">
        <ele>582</ele>
        <time>2019-03-05T14:04:44Z</time>
      </trkpt>
      <trkpt lat="44.41068" lon="6.00065">
        <ele>582</ele>
        <time>2019-03-05T14:04:45Z</time>
      </trkpt>
      <trkpt lat="44.41066" lon="6.00056">
        <ele>582</ele>
        <time>2019-03-05T14:04:46Z</time>
      </trkpt>
      <trkpt lat="44.41064" lon="6.00047">
        <ele>581</ele>
        <time>2019-03-05T14:04:47Z</time>
      </trkpt>
      <trkpt lat="44.41061" lon="6.00038">
        <ele>581</ele>
        <time>2019-03-05T14:04:48Z</time>
      </trkpt>
      <trkpt lat="44.41059" lon="6.00029">
        <ele>580</ele>
        <time>2019-03-05T14:04:49Z</time>
      </trkpt>
      <trkpt lat="44.41058" lon="6.0002">
        <ele>580</ele>
        <time>2019-03-05T14:04:50Z</time>
      </trkpt>
      <trkpt lat="44.41056" lon="6.00011">
        <ele>579</ele>
        <time>2019-03-05T14:04:51Z</time>
      </trkpt>
      <trkpt lat="44.41055" lon="6.00002">
        <ele>579</ele>
        <time>2019-03-05T14:04:52Z</time>
      </trkpt>
      <trkpt lat="44.41053" lon="5.99993">
        <ele>579</ele>
        <time>2019-03-05T14:04:53Z</time>
      </trkpt>
      <trkpt lat="44.41052" lon="5.99983">
        <ele>578</ele>
        <time>2019-03-05T14:04:54Z</time>
      </trkpt>
      <trkpt lat="44.41051" lon="5.99973">
        <ele>578</ele>
        <time>2019-03-05T14:04:55Z</time>
      </trkpt>
      <trkpt lat="44.41049" lon="5.99963">
        <ele>577</ele>
        <time>2019-03-05T14:04:56Z</time>
      </trkpt>
      <trkpt lat="44.41048" lon="5.99953">
        <ele>577</ele>
        <time>2019-03-05T14:04:57Z</time>
      </trkpt>
      <trkpt lat="44.41047" lon="5.99943">
        <ele>577</ele>
        <time>2019-03-05T14:04:58Z</time>
      </trkpt>
      <trkpt lat="44.41045" lon="5.99933">
        <ele>576</ele>
        <time>2019-03-05T14:04:59Z</time>
      </trkpt>
      <trkpt lat="44.41044" lon="5.99923">
        <ele>576</ele>
        <time>2019-03-05T14:05:00Z</time>
      </trkpt>
      <trkpt lat="44.41042" lon="5.99913">
        <ele>576</ele>
        <time>2019-03-05T14:05:01Z</time>
      </trkpt>
      <trkpt lat="44.41041" lon="5.99902">
        <ele>576</ele>
        <time>2019-03-05T14:05:02Z</time>
      </trkpt>
      <trkpt lat="44.4104" lon="5.99892">
        <ele>576</ele>
        <time>2019-03-05T14:05:03Z</time>
      </trkpt>
      <trkpt lat="44.41038" lon="5.99882">
        <ele>575</ele>
        <time>2019-03-05T14:05:04Z</time>
      </trkpt>
      <trkpt lat="44.41037" lon="5.99872">
        <ele>575</ele>
        <time>2019-03-05T14:05:05Z</time>
      </trkpt>
      <trkpt lat="44.41036" lon="5.99862">
        <ele>575</ele>
        <time>2019-03-05T14:05:06Z</time>
      </trkpt>
      <trkpt lat="44.41035" lon="5.99852">
        <ele>575</ele>
        <time>2019-03-05T14:05:07Z</time>
      </trkpt>
      <trkpt lat="44.41034" lon="5.99842">
        <ele>574</ele>
        <time>2019-03-05T14:05:08Z</time>
      </trkpt>
      <trkpt lat="44.41033" lon="5.99832">
        <ele>574</ele>
        <time>2019-03-05T14:05:09Z</time>
      </trkpt>
      <trkpt lat="44.41032" lon="5.99822">
        <ele>574</ele>
        <time>2019-03-05T14:05:10Z</time>
      </trkpt>
      <trkpt lat="44.41031" lon="5.99812">
        <ele>573</ele>
        <time>2019-03-05T14:05:11Z</time>
      </trkpt>
      <trkpt lat="44.4103" lon="5.99802">
        <ele>573</ele>
        <time>2019-03-05T14:05:12Z</time>
      </trkpt>
      <trkpt lat="44.41028" lon="5.99792">
        <ele>573</ele>
        <time>2019-03-05T14:05:13Z</time>
      </trkpt>
      <trkpt lat="44.41027" lon="5.99781">
        <ele>573</ele>
        <time>2019-03-05T14:05:14Z</time>
      </trkpt>
      <trkpt lat="44.41026" lon="5.99772">
        <ele>573</ele>
        <time>2019-03-05T14:05:15Z</time>
      </trkpt>
      <trkpt lat="44.41025" lon="5.99762">
        <ele>573</ele>
        <time>2019-03-05T14:05:16Z</time>
      </trkpt>
      <trkpt lat="44.41024" lon="5.99752">
        <ele>573</ele>
        <time>2019-03-05T14:05:17Z</time>
      </trkpt>
      <trkpt lat="44.41022" lon="5.99743">
        <ele>573</ele>
        <time>2019-03-05T14:05:18Z</time>
      </trkpt>
      <trkpt lat="44.41021" lon="5.99733">
        <ele>573</ele>
        <time>2019-03-05T14:05:19Z</time>
      </trkpt>
      <trkpt lat="44.4102" lon="5.99724">
        <ele>573</ele>
        <time>2019-03-05T14:05:20Z</time>
      </trkpt>
      <trkpt lat="44.41018" lon="5.99716">
        <ele>573</ele>
        <time>2019-03-05T14:05:21Z</time>
      </trkpt>
      <trkpt lat="44.41017" lon="5.99707">
        <ele>573</ele>
        <time>2019-03-05T14:05:22Z</time>
      </trkpt>
      <trkpt lat="44.41016" lon="5.99699">
        <ele>573</ele>
        <time>2019-03-05T14:05:23Z</time>
      </trkpt>
      <trkpt lat="44.41016" lon="5.99691">
        <ele>573</ele>
        <time>2019-03-05T14:05:24Z</time>
      </trkpt>
      <trkpt lat="44.41015" lon="5.99684">
        <ele>573</ele>
        <time>2019-03-05T14:05:25Z</time>
      </trkpt>
      <trkpt lat="44.41014" lon="5.99676">
        <ele>573</ele>
        <time>2019-03-05T14:05:26Z</time>
      </trkpt>
      <trkpt lat="44.41013" lon="5.99669">
        <ele>573</ele>
        <time>2019-03-05T14:05:27Z</time>
      </trkpt>
      <trkpt lat="44.41013" lon="5.99662">
        <ele>573</ele>
        <time>2019-03-05T14:05:28Z</time>
      </trkpt>
      <trkpt lat="44.41012" lon="5.99656">
        <ele>573</ele>
        <time>2019-03-05T14:05:29Z</time>
      </trkpt>
      <trkpt lat="44.41011" lon="5.99649">
        <ele>573</ele>
        <time>2019-03-05T14:05:30Z</time>
      </trkpt>
      <trkpt lat="44.41011" lon="5.99642">
        <ele>573</ele>
        <time>2019-03-05T14:05:31Z</time>
      </trkpt>
      <trkpt lat="44.4101" lon="5.99635">
        <ele>573</ele>
        <time>2019-03-05T14:05:32Z</time>
      </trkpt>
      <trkpt lat="44.4101" lon="5.99628">
        <ele>573</ele>
        <time>2019-03-05T14:05:33Z</time>
      </trkpt>
      <trkpt lat="44.4101" lon="5.99621">
        <ele>573</ele>
        <time>2019-03-05T14:05:34Z</time>
      </trkpt>
      <trkpt lat="44.41009" lon="5.99614">
        <ele>574</ele>
        <time>2019-03-05T14:05:35Z</time>
      </trkpt>
      <trkpt lat="44.41009" lon="5.99607">
        <ele>574</ele>
        <time>2019-03-05T14:05:36Z</time>
      </trkpt>
      <trkpt lat="44.41009" lon="5.996">
        <ele>574</ele>
        <time>2019-03-05T14:05:37Z</time>
      </trkpt>
      <trkpt lat="44.41009" lon="5.99592">
        <ele>574</ele>
        <time>2019-03-05T14:05:38Z</time>
      </trkpt>
      <trkpt lat="44.41009" lon="5.99585">
        <ele>574</ele>
        <time>2019-03-05T14:05:39Z</time>
      </trkpt>
      <trkpt lat="44.41009" lon="5.99577">
        <ele>575</ele>
        <time>2019-03-05T14:05:40Z</time>
      </trkpt>
      <trkpt lat="44.4101" lon="5.9957">
        <ele>575</ele>
        <time>2019-03-05T14:05:41Z</time>
      </trkpt>
      <trkpt lat="44.4101" lon="5.99563">
        <ele>575</ele>
        <time>2019-03-05T14:05:42Z</time>
      </trkpt>
      <trkpt lat="44.41011" lon="5.99555">
        <ele>575</ele>
        <time>2019-03-05T14:05:43Z</time>
      </trkpt>
      <trkpt lat="44.41011" lon="5.99547">
        <ele>575</ele>
        <time>2019-03-05T14:05:44Z</time>
      </trkpt>
      <trkpt lat="44.41012" lon="5.99539">
        <ele>575</ele>
        <time>2019-03-05T14:05:45Z</time>
      </trkpt>
      <trkpt lat="44.41013" lon="5.99532">
        <ele>575</ele>
        <time>2019-03-05T14:05:46Z</time>
      </trkpt>
      <trkpt lat="44.41013" lon="5.99524">
        <ele>575</ele>
        <time>2019-03-05T14:05:47Z</time>
      </trkpt>
      <trkpt lat="44.41014" lon="5.99516">
        <ele>575</ele>
        <time>2019-03-05T14:05:48Z</time>
      </trkpt>
      <trkpt lat="44.41014" lon="5.99509">
        <ele>575</ele>
        <time>2019-03-05T14:05:49Z</time>
      </trkpt>
      <trkpt lat="44.41015" lon="5.99502">
        <ele>575</ele>
        <time>2019-03-05T14:05:50Z</time>
      </trkpt>
      <trkpt lat="44.41015" lon="5.99494">
        <ele>575</ele>
        <time>2019-03-05T14:05:51Z</time>
      </trkpt>
      <trkpt lat="44.41016" lon="5.99487">
        <ele>575</ele>
        <time>2019-03-05T14:05:52Z</time>
      </trkpt>
      <trkpt lat="44.41016" lon="5.9948">
        <ele>576</ele>
        <time>2019-03-05T14:05:53Z</time>
      </trkpt>
      <trkpt lat="44.41017" lon="5.99473">
        <ele>576</ele>
        <time>2019-03-05T14:05:54Z</time>
      </trkpt>
      <trkpt lat="44.41017" lon="5.99466">
        <ele>576</ele>
        <time>2019-03-05T14:05:55Z</time>
      </trkpt>
      <trkpt lat="44.41017" lon="5.99459">
        <ele>576</ele>
        <time>2019-03-05T14:05:56Z</time>
      </trkpt>
      <trkpt lat="44.41017" lon="5.99453">
        <ele>576</ele>
        <time>2019-03-05T14:05:57Z</time>
      </trkpt>
      <trkpt lat="44.41018" lon="5.99447">
        <ele>576</ele>
        <time>2019-03-05T14:05:58Z</time>
      </trkpt>
      <trkpt lat="44.41018" lon="5.99441">
        <ele>577</ele>
        <time>2019-03-05T14:05:59Z</time>
      </trkpt>
      <trkpt lat="44.41017" lon="5.99435">
        <ele>577</ele>
        <time>2019-03-05T14:06:00Z</time>
      </trkpt>
      <trkpt lat="44.41017" lon="5.99429">
        <ele>577</ele>
        <time>2019-03-05T14:06:01Z</time>
      </trkpt>
      <trkpt lat="44.41017" lon="5.99422">
        <ele>578</ele>
        <time>2019-03-05T14:06:02Z</time>
      </trkpt>
      <trkpt lat="44.41016" lon="5.99416">
        <ele>578</ele>
        <time>2019-03-05T14:06:03Z</time>
      </trkpt>
      <trkpt lat="44.41016" lon="5.9941">
        <ele>578</ele>
        <time>2019-03-05T14:06:04Z</time>
      </trkpt>
      <trkpt lat="44.41015" lon="5.99403">
        <ele>579</ele>
        <time>2019-03-05T14:06:05Z</time>
      </trkpt>
      <trkpt lat="44.41015" lon="5.99398">
        <ele>579</ele>
        <time>2019-03-05T14:06:06Z</time>
      </trkpt>
      <trkpt lat="44.41014" lon="5.99392">
        <ele>579</ele>
        <time>2019-03-05T14:06:07Z</time>
      </trkpt>
      <trkpt lat="44.41013" lon="5.99386">
        <ele>579</ele>
        <time>2019-03-05T14:06:08Z</time>
      </trkpt>
      <trkpt lat="44.41012" lon="5.9938">
        <ele>579</ele>
        <time>2019-03-05T14:06:09Z</time>
      </trkpt>
      <trkpt lat="44.41011" lon="5.99374">
        <ele>579</ele>
        <time>2019-03-05T14:06:10Z</time>
      </trkpt>
      <trkpt lat="44.41009" lon="5.99368">
        <ele>579</ele>
        <time>2019-03-05T14:06:11Z</time>
      </trkpt>
      <trkpt lat="44.41008" lon="5.99363">
        <ele>579</ele>
        <time>2019-03-05T14:06:12Z</time>
      </trkpt>
      <trkpt lat="44.41006" lon="5.99358">
        <ele>579</ele>
        <time>2019-03-05T14:06:13Z</time>
      </trkpt>
      <trkpt lat="44.41004" lon="5.99353">
        <ele>579</ele>
        <time>2019-03-05T14:06:14Z</time>
      </trkpt>
      <trkpt lat="44.41002" lon="5.99348">
        <ele>579</ele>
        <time>2019-03-05T14:06:15Z</time>
      </trkpt>
      <trkpt lat="44.41" lon="5.99343">
        <ele>579</ele>
        <time>2019-03-05T14:06:16Z</time>
      </trkpt>
      <trkpt lat="44.40998" lon="5.99339">
        <ele>579</ele>
        <time>2019-03-05T14:06:17Z</time>
      </trkpt>
      <trkpt lat="44.40995" lon="5.99334">
        <ele>579</ele>
        <time>2019-03-05T14:06:18Z</time>
      </trkpt>
      <trkpt lat="44.40993" lon="5.99329">
        <ele>579</ele>
        <time>2019-03-05T14:06:19Z</time>
      </trkpt>
      <trkpt lat="44.40991" lon="5.99324">
        <ele>579</ele>
        <time>2019-03-05T14:06:20Z</time>
      </trkpt>
      <trkpt lat="44.40988" lon="5.99319">
        <ele>579</ele>
        <time>2019-03-05T14:06:21Z</time>
      </trkpt>
      <trkpt lat="44.40986" lon="5.99315">
        <ele>580</ele>
        <time>2019-03-05T14:06:22Z</time>
      </trkpt>
      <trkpt lat="44.40984" lon="5.9931">
        <ele>580</ele>
        <time>2019-03-05T14:06:23Z</time>
      </trkpt>
      <trkpt lat="44.40981" lon="5.99305">
        <ele>580</ele>
        <time>2019-03-05T14:06:24Z</time>
      </trkpt>
      <trkpt lat="44.40979" lon="5.993">
        <ele>580</ele>
        <time>2019-03-05T14:06:25Z</time>
      </trkpt>
      <trkpt lat="44.40976" lon="5.99295">
        <ele>580</ele>
        <time>2019-03-05T14:06:26Z</time>
      </trkpt>
      <trkpt lat="44.40974" lon="5.99291">
        <ele>580</ele>
        <time>2019-03-05T14:06:27Z</time>
      </trkpt>
      <trkpt lat="44.40971" lon="5.99286">
        <ele>580</ele>
        <time>2019-03-05T14:06:28Z</time>
      </trkpt>
      <trkpt lat="44.40969" lon="5.99281">
        <ele>580</ele>
        <time>2019-03-05T14:06:29Z</time>
      </trkpt>
      <trkpt lat="44.40966" lon="5.99276">
        <ele>580</ele>
        <time>2019-03-05T14:06:30Z</time>
      </trkpt>
      <trkpt lat="44.40964" lon="5.99271">
        <ele>580</ele>
        <time>2019-03-05T14:06:31Z</time>
      </trkpt>
      <trkpt lat="44.40962" lon="5.99266">
        <ele>580</ele>
        <time>2019-03-05T14:06:32Z</time>
      </trkpt>
      <trkpt lat="44.40959" lon="5.99261">
        <ele>580</ele>
        <time>2019-03-05T14:06:33Z</time>
      </trkpt>
      <trkpt lat="44.40957" lon="5.99257">
        <ele>580</ele>
        <time>2019-03-05T14:06:34Z</time>
      </trkpt>
      <trkpt lat="44.40955" lon="5.99252">
        <ele>580</ele>
        <time>2019-03-05T14:06:35Z</time>
      </trkpt>
      <trkpt lat="44.40953" lon="5.99248">
        <ele>580</ele>
        <time>2019-03-05T14:06:36Z</time>
      </trkpt>
      <trkpt lat="44.4095" lon="5.99244">
        <ele>581</ele>
        <time>2019-03-05T14:06:37Z</time>
      </trkpt>
      <trkpt lat="44.40948" lon="5.9924">
        <ele>581</ele>
        <time>2019-03-05T14:06:38Z</time>
      </trkpt>
      <trkpt lat="44.40945" lon="5.99236">
        <ele>581</ele>
        <time>2019-03-05T14:06:39Z</time>
      </trkpt>
      <trkpt lat="44.40943" lon="5.99232">
        <ele>581</ele>
        <time>2019-03-05T14:06:40Z</time>
      </trkpt>
      <trkpt lat="44.40941" lon="5.99228">
        <ele>581</ele>
        <time>2019-03-05T14:06:41Z</time>
      </trkpt>
      <trkpt lat="44.40939" lon="5.99223">
        <ele>581</ele>
        <time>2019-03-05T14:06:42Z</time>
      </trkpt>
      <trkpt lat="44.40937" lon="5.99219">
        <ele>581</ele>
        <time>2019-03-05T14:06:43Z</time>
      </trkpt>
      <trkpt lat="44.40934" lon="5.99215">
        <ele>581</ele>
        <time>2019-03-05T14:06:44Z</time>
      </trkpt>
      <trkpt lat="44.40932" lon="5.9921">
        <ele>581</ele>
        <time>2019-03-05T14:06:45Z</time>
      </trkpt>
      <trkpt lat="44.40929" lon="5.99206">
        <ele>581</ele>
        <time>2019-03-05T14:06:46Z</time>
      </trkpt>
      <trkpt lat="44.40927" lon="5.99201">
        <ele>582</ele>
        <time>2019-03-05T14:06:47Z</time>
      </trkpt>
      <trkpt lat="44.40925" lon="5.99197">
        <ele>582</ele>
        <time>2019-03-05T14:06:48Z</time>
      </trkpt>
      <trkpt lat="44.40923" lon="5.99192">
        <ele>582</ele>
        <time>2019-03-05T14:06:49Z</time>
      </trkpt>
      <trkpt lat="44.40921" lon="5.99188">
        <ele>582</ele>
        <time>2019-03-05T14:06:50Z</time>
      </trkpt>
      <trkpt lat="44.40918" lon="5.99184">
        <ele>582</ele>
        <time>2019-03-05T14:06:51Z</time>
      </trkpt>
      <trkpt lat="44.40916" lon="5.99179">
        <ele>582</ele>
        <time>2019-03-05T14:06:52Z</time>
      </trkpt>
      <trkpt lat="44.40913" lon="5.99175">
        <ele>582</ele>
        <time>2019-03-05T14:06:53Z</time>
      </trkpt>
      <trkpt lat="44.4091" lon="5.9917">
        <ele>583</ele>
        <time>2019-03-05T14:06:54Z</time>
      </trkpt>
      <trkpt lat="44.40908" lon="5.99165">
        <ele>583</ele>
        <time>2019-03-05T14:06:55Z</time>
      </trkpt>
      <trkpt lat="44.40905" lon="5.99161">
        <ele>583</ele>
        <time>2019-03-05T14:06:56Z</time>
      </trkpt>
      <trkpt lat="44.40902" lon="5.99156">
        <ele>583</ele>
        <time>2019-03-05T14:06:57Z</time>
      </trkpt>
      <trkpt lat="44.409" lon="5.99151">
        <ele>583</ele>
        <time>2019-03-05T14:06:58Z</time>
      </trkpt>
      <trkpt lat="44.40897" lon="5.99146">
        <ele>583</ele>
        <time>2019-03-05T14:06:59Z</time>
      </trkpt>
      <trkpt lat="44.40895" lon="5.99142">
        <ele>583</ele>
        <time>2019-03-05T14:07:00Z</time>
      </trkpt>
      <trkpt lat="44.40892" lon="5.99137">
        <ele>583</ele>
        <time>2019-03-05T14:07:01Z</time>
      </trkpt>
      <trkpt lat="44.40889" lon="5.99132">
        <ele>583</ele>
        <time>2019-03-05T14:07:02Z</time>
      </trkpt>
      <trkpt lat="44.40887" lon="5.99127">
        <ele>583</ele>
        <time>2019-03-05T14:07:03Z</time>
      </trkpt>
      <trkpt lat="44.40884" lon="5.99122">
        <ele>583</ele>
        <time>2019-03-05T14:07:04Z</time>
      </trkpt>
      <trkpt lat="44.40881" lon="5.99117">
        <ele>583</ele>
        <time>2019-03-05T14:07:05Z</time>
      </trkpt>
      <trkpt lat="44.40879" lon="5.99112">
        <ele>583</ele>
        <time>2019-03-05T14:07:06Z</time>
      </trkpt>
      <trkpt lat="44.40876" lon="5.99107">
        <ele>583</ele>
        <time>2019-03-05T14:07:07Z</time>
      </trkpt>
      <trkpt lat="44.40873" lon="5.99102">
        <ele>583</ele>
        <time>2019-03-05T14:07:08Z</time>
      </trkpt>
      <trkpt lat="44.4087" lon="5.99096">
        <ele>583</ele>
        <time>2019-03-05T14:07:09Z</time>
      </trkpt>
      <trkpt lat="44.40867" lon="5.99091">
        <ele>584</ele>
        <time>2019-03-05T14:07:10Z</time>
      </trkpt>
      <trkpt lat="44.40864" lon="5.99086">
        <ele>584</ele>
        <time>2019-03-05T14:07:11Z</time>
      </trkpt>
      <trkpt lat="44.40862" lon="5.99081">
        <ele>584</ele>
        <time>2019-03-05T14:07:12Z</time>
      </trkpt>
      <trkpt lat="44.40859" lon="5.99076">
        <ele>584</ele>
        <time>2019-03-05T14:07:13Z</time>
      </trkpt>
      <trkpt lat="44.40857" lon="5.99071">
        <ele>585</ele>
        <time>2019-03-05T14:07:14Z</time>
      </trkpt>
      <trkpt lat="44.40854" lon="5.99065">
        <ele>585</ele>
        <time>2019-03-05T14:07:15Z</time>
      </trkpt>
      <trkpt lat="44.40851" lon="5.9906">
        <ele>585</ele>
        <time>2019-03-05T14:07:16Z</time>
      </trkpt>
      <trkpt lat="44.40849" lon="5.99055">
        <ele>585</ele>
        <time>2019-03-05T14:07:17Z</time>
      </trkpt>
      <trkpt lat="44.40846" lon="5.99051">
        <ele>585</ele>
        <time>2019-03-05T14:07:18Z</time>
      </trkpt>
      <trkpt lat="44.40843" lon="5.99045">
        <ele>585</ele>
        <time>2019-03-05T14:07:19Z</time>
      </trkpt>
      <trkpt lat="44.40841" lon="5.9904">
        <ele>585</ele>
        <time>2019-03-05T14:07:20Z</time>
      </trkpt>
      <trkpt lat="44.40837" lon="5.99034">
        <ele>585</ele>
        <time>2019-03-05T14:07:21Z</time>
      </trkpt>
      <trkpt lat="44.40835" lon="5.99028">
        <ele>586</ele>
        <time>2019-03-05T14:07:22Z</time>
      </trkpt>
      <trkpt lat="44.40832" lon="5.99022">
        <ele>586</ele>
        <time>2019-03-05T14:07:23Z</time>
      </trkpt>
      <trkpt lat="44.40829" lon="5.99017">
        <ele>587</ele>
        <time>2019-03-05T14:07:24Z</time>
      </trkpt>
      <trkpt lat="44.40826" lon="5.99012">
        <ele>587</ele>
        <time>2019-03-05T14:07:25Z</time>
      </trkpt>
      <trkpt lat="44.40824" lon="5.99006">
        <ele>587</ele>
        <time>2019-03-05T14:07:26Z</time>
      </trkpt>
      <trkpt lat="44.40821" lon="5.99001">
        <ele>587</ele>
        <time>2019-03-05T14:07:27Z</time>
      </trkpt>
      <trkpt lat="44.40819" lon="5.98995">
        <ele>587</ele>
        <time>2019-03-05T14:07:28Z</time>
      </trkpt>
      <trkpt lat="44.40816" lon="5.98989">
        <ele>587</ele>
        <time>2019-03-05T14:07:29Z</time>
      </trkpt>
      <trkpt lat="44.40813" lon="5.98983">
        <ele>587</ele>
        <time>2019-03-05T14:07:30Z</time>
      </trkpt>
      <trkpt lat="44.4081" lon="5.98977">
        <ele>587</ele>
        <time>2019-03-05T14:07:31Z</time>
      </trkpt>
      <trkpt lat="44.40807" lon="5.98971">
        <ele>587</ele>
        <time>2019-03-05T14:07:32Z</time>
      </trkpt>
      <trkpt lat="44.40804" lon="5.98966">
        <ele>587</ele>
        <time>2019-03-05T14:07:33Z</time>
      </trkpt>
      <trkpt lat="44.40801" lon="5.9896">
        <ele>587</ele>
        <time>2019-03-05T14:07:34Z</time>
      </trkpt>
      <trkpt lat="44.40799" lon="5.98954">
        <ele>587</ele>
        <time>2019-03-05T14:07:35Z</time>
      </trkpt>
      <trkpt lat="44.40796" lon="5.98948">
        <ele>588</ele>
        <time>2019-03-05T14:07:36Z</time>
      </trkpt>
      <trkpt lat="44.40793" lon="5.98942">
        <ele>588</ele>
        <time>2019-03-05T14:07:37Z</time>
      </trkpt>
      <trkpt lat="44.40791" lon="5.98936">
        <ele>588</ele>
        <time>2019-03-05T14:07:38Z</time>
      </trkpt>
      <trkpt lat="44.40788" lon="5.9893">
        <ele>588</ele>
        <time>2019-03-05T14:07:39Z</time>
      </trkpt>
      <trkpt lat="44.40785" lon="5.98924">
        <ele>588</ele>
        <time>2019-03-05T14:07:40Z</time>
      </trkpt>
      <trkpt lat="44.40783" lon="5.98919">
        <ele>588</ele>
        <time>2019-03-05T14:07:41Z</time>
      </trkpt>
      <trkpt lat="44.4078" lon="5.98913">
        <ele>588</ele>
        <time>2019-03-05T14:07:42Z</time>
      </trkpt>
      <trkpt lat="44.40778" lon="5.98908">
        <ele>588</ele>
        <time>2019-03-05T14:07:43Z</time>
      </trkpt>
      <trkpt lat="44.40775" lon="5.98903">
        <ele>588</ele>
        <time>2019-03-05T14:07:44Z</time>
      </trkpt>
      <trkpt lat="44.40773" lon="5.98897">
        <ele>588</ele>
        <time>2019-03-05T14:07:45Z</time>
      </trkpt>
      <trkpt lat="44.40771" lon="5.98892">
        <ele>588</ele>
        <time>2019-03-05T14:07:46Z</time>
      </trkpt>
      <trkpt lat="44.40769" lon="5.98886">
        <ele>588</ele>
        <time>2019-03-05T14:07:47Z</time>
      </trkpt>
      <trkpt lat="44.40767" lon="5.9888">
        <ele>588</ele>
        <time>2019-03-05T14:07:48Z</time>
      </trkpt>
      <trkpt lat="44.40765" lon="5.98875">
        <ele>588</ele>
        <time>2019-03-05T14:07:49Z</time>
      </trkpt>
      <trkpt lat="44.40762" lon="5.98869">
        <ele>588</ele>
        <time>2019-03-05T14:07:50Z</time>
      </trkpt>
      <trkpt lat="44.40761" lon="5.98864">
        <ele>588</ele>
        <time>2019-03-05T14:07:51Z</time>
      </trkpt>
      <trkpt lat="44.40759" lon="5.98858">
        <ele>588</ele>
        <time>2019-03-05T14:07:52Z</time>
      </trkpt>
      <trkpt lat="44.40758" lon="5.98852">
        <ele>588</ele>
        <time>2019-03-05T14:07:53Z</time>
      </trkpt>
      <trkpt lat="44.40757" lon="5.98846">
        <ele>588</ele>
        <time>2019-03-05T14:07:54Z</time>
      </trkpt>
      <trkpt lat="44.40755" lon="5.9884">
        <ele>588</ele>
        <time>2019-03-05T14:07:55Z</time>
      </trkpt>
      <trkpt lat="44.40754" lon="5.98834">
        <ele>588</ele>
        <time>2019-03-05T14:07:56Z</time>
      </trkpt>
      <trkpt lat="44.40753" lon="5.98828">
        <ele>588</ele>
        <time>2019-03-05T14:07:57Z</time>
      </trkpt>
      <trkpt lat="44.40751" lon="5.98821">
        <ele>588</ele>
        <time>2019-03-05T14:07:58Z</time>
      </trkpt>
      <trkpt lat="44.4075" lon="5.98814">
        <ele>588</ele>
        <time>2019-03-05T14:07:59Z</time>
      </trkpt>
      <trkpt lat="44.40749" lon="5.98808">
        <ele>588</ele>
        <time>2019-03-05T14:08:00Z</time>
      </trkpt>
      <trkpt lat="44.40747" lon="5.98801">
        <ele>588</ele>
        <time>2019-03-05T14:08:01Z</time>
      </trkpt>
      <trkpt lat="44.40746" lon="5.98794">
        <ele>588</ele>
        <time>2019-03-05T14:08:02Z</time>
      </trkpt>
      <trkpt lat="44.40744" lon="5.98786">
        <ele>588</ele>
        <time>2019-03-05T14:08:03Z</time>
      </trkpt>
      <trkpt lat="44.40742" lon="5.98778">
        <ele>588</ele>
        <time>2019-03-05T14:08:04Z</time>
      </trkpt>
      <trkpt lat="44.40741" lon="5.98771">
        <ele>588</ele>
        <time>2019-03-05T14:08:05Z</time>
      </trkpt>
      <trkpt lat="44.4074" lon="5.98763">
        <ele>588</ele>
        <time>2019-03-05T14:08:06Z</time>
      </trkpt>
      <trkpt lat="44.40739" lon="5.98754">
        <ele>588</ele>
        <time>2019-03-05T14:08:07Z</time>
      </trkpt>
      <trkpt lat="44.40738" lon="5.98746">
        <ele>588</ele>
        <time>2019-03-05T14:08:08Z</time>
      </trkpt>
      <trkpt lat="44.40736" lon="5.98737">
        <ele>588</ele>
        <time>2019-03-05T14:08:09Z</time>
      </trkpt>
      <trkpt lat="44.40735" lon="5.98728">
        <ele>588</ele>
        <time>2019-03-05T14:08:10Z</time>
      </trkpt>
      <trkpt lat="44.40733" lon="5.9872">
        <ele>588</ele>
        <time>2019-03-05T14:08:11Z</time>
      </trkpt>
      <trkpt lat="44.40732" lon="5.98711">
        <ele>588</ele>
        <time>2019-03-05T14:08:12Z</time>
      </trkpt>
      <trkpt lat="44.40731" lon="5.98702">
        <ele>588</ele>
        <time>2019-03-05T14:08:13Z</time>
      </trkpt>
      <trkpt lat="44.40729" lon="5.98693">
        <ele>588</ele>
        <time>2019-03-05T14:08:14Z</time>
      </trkpt>
      <trkpt lat="44.40727" lon="5.98684">
        <ele>588</ele>
        <time>2019-03-05T14:08:15Z</time>
      </trkpt>
      <trkpt lat="44.40726" lon="5.98674">
        <ele>588</ele>
        <time>2019-03-05T14:08:16Z</time>
      </trkpt>
      <trkpt lat="44.40724" lon="5.98665">
        <ele>588</ele>
        <time>2019-03-05T14:08:17Z</time>
      </trkpt>
      <trkpt lat="44.40723" lon="5.98655">
        <ele>588</ele>
        <time>2019-03-05T14:08:18Z</time>
      </trkpt>
      <trkpt lat="44.40721" lon="5.98645">
        <ele>588</ele>
        <time>2019-03-05T14:08:19Z</time>
      </trkpt>
      <trkpt lat="44.4072" lon="5.98636">
        <ele>587</ele>
        <time>2019-03-05T14:08:20Z</time>
      </trkpt>
      <trkpt lat="44.40718" lon="5.98626">
        <ele>587</ele>
        <time>2019-03-05T14:08:21Z</time>
      </trkpt>
      <trkpt lat="44.40717" lon="5.98617">
        <ele>587</ele>
        <time>2019-03-05T14:08:22Z</time>
      </trkpt>
      <trkpt lat="44.40716" lon="5.98608">
        <ele>586</ele>
        <time>2019-03-05T14:08:23Z</time>
      </trkpt>
      <trkpt lat="44.40714" lon="5.98599">
        <ele>586</ele>
        <time>2019-03-05T14:08:24Z</time>
      </trkpt>
      <trkpt lat="44.40713" lon="5.9859">
        <ele>585</ele>
        <time>2019-03-05T14:08:25Z</time>
      </trkpt>
      <trkpt lat="44.40712" lon="5.98581">
        <ele>585</ele>
        <time>2019-03-05T14:08:26Z</time>
      </trkpt>
      <trkpt lat="44.4071" lon="5.98572">
        <ele>584</ele>
        <time>2019-03-05T14:08:27Z</time>
      </trkpt>
      <trkpt lat="44.40709" lon="5.98563">
        <ele>584</ele>
        <time>2019-03-05T14:08:28Z</time>
      </trkpt>
      <trkpt lat="44.40707" lon="5.98554">
        <ele>584</ele>
        <time>2019-03-05T14:08:29Z</time>
      </trkpt>
      <trkpt lat="44.40706" lon="5.98545">
        <ele>583</ele>
        <time>2019-03-05T14:08:30Z</time>
      </trkpt>
      <trkpt lat="44.40704" lon="5.98536">
        <ele>583</ele>
        <time>2019-03-05T14:08:31Z</time>
      </trkpt>
      <trkpt lat="44.40703" lon="5.98528">
        <ele>582</ele>
        <time>2019-03-05T14:08:32Z</time>
      </trkpt>
      <trkpt lat="44.40702" lon="5.9852">
        <ele>582</ele>
        <time>2019-03-05T14:08:33Z</time>
      </trkpt>
      <trkpt lat="44.40701" lon="5.98512">
        <ele>581</ele>
        <time>2019-03-05T14:08:34Z</time>
      </trkpt>
      <trkpt lat="44.407" lon="5.98504">
        <ele>581</ele>
        <time>2019-03-05T14:08:35Z</time>
      </trkpt>
      <trkpt lat="44.40698" lon="5.98496">
        <ele>580</ele>
        <time>2019-03-05T14:08:36Z</time>
      </trkpt>
      <trkpt lat="44.40696" lon="5.98487">
        <ele>580</ele>
        <time>2019-03-05T14:08:37Z</time>
      </trkpt>
      <trkpt lat="44.40694" lon="5.98478">
        <ele>579</ele>
        <time>2019-03-05T14:08:38Z</time>
      </trkpt>
      <trkpt lat="44.40692" lon="5.98469">
        <ele>579</ele>
        <time>2019-03-05T14:08:39Z</time>
      </trkpt>
      <trkpt lat="44.40689" lon="5.9846">
        <ele>579</ele>
        <time>2019-03-05T14:08:40Z</time>
      </trkpt>
      <trkpt lat="44.40686" lon="5.98451">
        <ele>579</ele>
        <time>2019-03-05T14:08:41Z</time>
      </trkpt>
      <trkpt lat="44.40684" lon="5.98442">
        <ele>579</ele>
        <time>2019-03-05T14:08:42Z</time>
      </trkpt>
      <trkpt lat="44.4068" lon="5.98432">
        <ele>578</ele>
        <time>2019-03-05T14:08:43Z</time>
      </trkpt>
      <trkpt lat="44.40676" lon="5.98422">
        <ele>578</ele>
        <time>2019-03-05T14:08:44Z</time>
      </trkpt>
      <trkpt lat="44.40673" lon="5.98411">
        <ele>578</ele>
        <time>2019-03-05T14:08:45Z</time>
      </trkpt>
      <trkpt lat="44.40668" lon="5.984">
        <ele>577</ele>
        <time>2019-03-05T14:08:46Z</time>
      </trkpt>
      <trkpt lat="44.40664" lon="5.98388">
        <ele>576</ele>
        <time>2019-03-05T14:08:47Z</time>
      </trkpt>
      <trkpt lat="44.40659" lon="5.98377">
        <ele>576</ele>
        <time>2019-03-05T14:08:48Z</time>
      </trkpt>
      <trkpt lat="44.40655" lon="5.98365">
        <ele>575</ele>
        <time>2019-03-05T14:08:49Z</time>
      </trkpt>
      <trkpt lat="44.40651" lon="5.98352">
        <ele>575</ele>
        <time>2019-03-05T14:08:50Z</time>
      </trkpt>
      <trkpt lat="44.40648" lon="5.98339">
        <ele>574</ele>
        <time>2019-03-05T14:08:51Z</time>
      </trkpt>
      <trkpt lat="44.40646" lon="5.98325">
        <ele>574</ele>
        <time>2019-03-05T14:08:52Z</time>
      </trkpt>
      <trkpt lat="44.40643" lon="5.98312">
        <ele>573</ele>
        <time>2019-03-05T14:08:53Z</time>
      </trkpt>
      <trkpt lat="44.40641" lon="5.98298">
        <ele>573</ele>
        <time>2019-03-05T14:08:54Z</time>
      </trkpt>
      <trkpt lat="44.40639" lon="5.98285">
        <ele>572</ele>
        <time>2019-03-05T14:08:55Z</time>
      </trkpt>
      <trkpt lat="44.40637" lon="5.98271">
        <ele>572</ele>
        <time>2019-03-05T14:08:56Z</time>
      </trkpt>
      <trkpt lat="44.40635" lon="5.98258">
        <ele>572</ele>
        <time>2019-03-05T14:08:57Z</time>
      </trkpt>
      <trkpt lat="44.40633" lon="5.98245">
        <ele>571</ele>
        <time>2019-03-05T14:08:58Z</time>
      </trkpt>
      <trkpt lat="44.40631" lon="5.98233">
        <ele>571</ele>
        <time>2019-03-05T14:08:59Z</time>
      </trkpt>
      <trkpt lat="44.40627" lon="5.9822">
        <ele>571</ele>
        <time>2019-03-05T14:09:00Z</time>
      </trkpt>
      <trkpt lat="44.40622" lon="5.98208">
        <ele>570</ele>
        <time>2019-03-05T14:09:01Z</time>
      </trkpt>
      <trkpt lat="44.40617" lon="5.98197">
        <ele>569</ele>
        <time>2019-03-05T14:09:02Z</time>
      </trkpt>
      <trkpt lat="44.40611" lon="5.98186">
        <ele>569</ele>
        <time>2019-03-05T14:09:03Z</time>
      </trkpt>
      <trkpt lat="44.40604" lon="5.98175">
        <ele>568</ele>
        <time>2019-03-05T14:09:04Z</time>
      </trkpt>
      <trkpt lat="44.40597" lon="5.98165">
        <ele>567</ele>
        <time>2019-03-05T14:09:05Z</time>
      </trkpt>
      <trkpt lat="44.4059" lon="5.98156">
        <ele>567</ele>
        <time>2019-03-05T14:09:06Z</time>
      </trkpt>
      <trkpt lat="44.40582" lon="5.98148">
        <ele>567</ele>
        <time>2019-03-05T14:09:07Z</time>
      </trkpt>
      <trkpt lat="44.40575" lon="5.9814">
        <ele>567</ele>
        <time>2019-03-05T14:09:08Z</time>
      </trkpt>
      <trkpt lat="44.40568" lon="5.98132">
        <ele>567</ele>
        <time>2019-03-05T14:09:09Z</time>
      </trkpt>
      <trkpt lat="44.40561" lon="5.98124">
        <ele>567</ele>
        <time>2019-03-05T14:09:10Z</time>
      </trkpt>
      <trkpt lat="44.40555" lon="5.98117">
        <ele>567</ele>
        <time>2019-03-05T14:09:11Z</time>
      </trkpt>
      <trkpt lat="44.40549" lon="5.98109">
        <ele>567</ele>
        <time>2019-03-05T14:09:12Z</time>
      </trkpt>
      <trkpt lat="44.40544" lon="5.98103">
        <ele>567</ele>
        <time>2019-03-05T14:09:13Z</time>
      </trkpt>
      <trkpt lat="44.40538" lon="5.98096">
        <ele>567</ele>
        <time>2019-03-05T14:09:14Z</time>
      </trkpt>
      <trkpt lat="44.40533" lon="5.98089">
        <ele>567</ele>
        <time>2019-03-05T14:09:15Z</time>
      </trkpt>
      <trkpt lat="44.40527" lon="5.98082">
        <ele>567</ele>
        <time>2019-03-05T14:09:16Z</time>
      </trkpt>
      <trkpt lat="44.40522" lon="5.98076">
        <ele>567</ele>
        <time>2019-03-05T14:09:17Z</time>
      </trkpt>
      <trkpt lat="44.40517" lon="5.98069">
        <ele>567</ele>
        <time>2019-03-05T14:09:18Z</time>
      </trkpt>
      <trkpt lat="44.40512" lon="5.98064">
        <ele>567</ele>
        <time>2019-03-05T14:09:19Z</time>
      </trkpt>
      <trkpt lat="44.40507" lon="5.98057">
        <ele>567</ele>
        <time>2019-03-05T14:09:20Z</time>
      </trkpt>
      <trkpt lat="44.40502" lon="5.98052">
        <ele>567</ele>
        <time>2019-03-05T14:09:21Z</time>
      </trkpt>
      <trkpt lat="44.40497" lon="5.98047">
        <ele>567</ele>
        <time>2019-03-05T14:09:22Z</time>
      </trkpt>
      <trkpt lat="44.40492" lon="5.98042">
        <ele>567</ele>
        <time>2019-03-05T14:09:23Z</time>
      </trkpt>
      <trkpt lat="44.40487" lon="5.98038">
        <ele>567</ele>
        <time>2019-03-05T14:09:24Z</time>
      </trkpt>
      <trkpt lat="44.40482" lon="5.98034">
        <ele>567</ele>
        <time>2019-03-05T14:09:25Z</time>
      </trkpt>
      <trkpt lat="44.40477" lon="5.98031">
        <ele>567</ele>
        <time>2019-03-05T14:09:26Z</time>
      </trkpt>
      <trkpt lat="44.40472" lon="5.98028">
        <ele>567</ele>
        <time>2019-03-05T14:09:27Z</time>
      </trkpt>
      <trkpt lat="44.40467" lon="5.98026">
        <ele>567</ele>
        <time>2019-03-05T14:09:28Z</time>
      </trkpt>
      <trkpt lat="44.40462" lon="5.98024">
        <ele>567</ele>
        <time>2019-03-05T14:09:29Z</time>
      </trkpt>
      <trkpt lat="44.40458" lon="5.98023">
        <ele>567</ele>
        <time>2019-03-05T14:09:30Z</time>
      </trkpt>
      <trkpt lat="44.40453" lon="5.98022">
        <ele>567</ele>
        <time>2019-03-05T14:09:31Z</time>
      </trkpt>
      <trkpt lat="44.40448" lon="5.98022">
        <ele>567</ele>
        <time>2019-03-05T14:09:32Z</time>
      </trkpt>
      <trkpt lat="44.40444" lon="5.98022">
        <ele>567</ele>
        <time>2019-03-05T14:09:33Z</time>
      </trkpt>
      <trkpt lat="44.40439" lon="5.98021">
        <ele>567</ele>
        <time>2019-03-05T14:09:34Z</time>
      </trkpt>
      <trkpt lat="44.40435" lon="5.98021">
        <ele>567</ele>
        <time>2019-03-05T14:09:35Z</time>
      </trkpt>
      <trkpt lat="44.4043" lon="5.98021">
        <ele>567</ele>
        <time>2019-03-05T14:09:36Z</time>
      </trkpt>
      <trkpt lat="44.40425" lon="5.9802">
        <ele>567</ele>
        <time>2019-03-05T14:09:37Z</time>
      </trkpt>
      <trkpt lat="44.40421" lon="5.98019">
        <ele>567</ele>
        <time>2019-03-05T14:09:38Z</time>
      </trkpt>
      <trkpt lat="44.40416" lon="5.98018">
        <ele>567</ele>
        <time>2019-03-05T14:09:39Z</time>
      </trkpt>
      <trkpt lat="44.40413" lon="5.98016">
        <ele>567</ele>
        <time>2019-03-05T14:09:40Z</time>
      </trkpt>
      <trkpt lat="44.40409" lon="5.98013">
        <ele>567</ele>
        <time>2019-03-05T14:09:41Z</time>
      </trkpt>
      <trkpt lat="44.40405" lon="5.9801">
        <ele>567</ele>
        <time>2019-03-05T14:09:42Z</time>
      </trkpt>
      <trkpt lat="44.40401" lon="5.98007">
        <ele>568</ele>
        <time>2019-03-05T14:09:43Z</time>
      </trkpt>
      <trkpt lat="44.40397" lon="5.98004">
        <ele>568</ele>
        <time>2019-03-05T14:09:44Z</time>
      </trkpt>
      <trkpt lat="44.40394" lon="5.98001">
        <ele>569</ele>
        <time>2019-03-05T14:09:45Z</time>
      </trkpt>
      <trkpt lat="44.40391" lon="5.97997">
        <ele>569</ele>
        <time>2019-03-05T14:09:46Z</time>
      </trkpt>
      <trkpt lat="44.40388" lon="5.97993">
        <ele>570</ele>
        <time>2019-03-05T14:09:47Z</time>
      </trkpt>
      <trkpt lat="44.40385" lon="5.97988">
        <ele>570</ele>
        <time>2019-03-05T14:09:48Z</time>
      </trkpt>
      <trkpt lat="44.40382" lon="5.97984">
        <ele>571</ele>
        <time>2019-03-05T14:09:49Z</time>
      </trkpt>
      <trkpt lat="44.40379" lon="5.97979">
        <ele>572</ele>
        <time>2019-03-05T14:09:50Z</time>
      </trkpt>
      <trkpt lat="44.40376" lon="5.97974">
        <ele>572</ele>
        <time>2019-03-05T14:09:51Z</time>
      </trkpt>
      <trkpt lat="44.40374" lon="5.97969">
        <ele>573</ele>
        <time>2019-03-05T14:09:52Z</time>
      </trkpt>
      <trkpt lat="44.40371" lon="5.97964">
        <ele>573</ele>
        <time>2019-03-05T14:09:53Z</time>
      </trkpt>
      <trkpt lat="44.40369" lon="5.97958">
        <ele>574</ele>
        <time>2019-03-05T14:09:54Z</time>
      </trkpt>
      <trkpt lat="44.40366" lon="5.97953">
        <ele>574</ele>
        <time>2019-03-05T14:09:55Z</time>
      </trkpt>
      <trkpt lat="44.40363" lon="5.97947">
        <ele>575</ele>
        <time>2019-03-05T14:09:56Z</time>
      </trkpt>
      <trkpt lat="44.4036" lon="5.97942">
        <ele>575</ele>
        <time>2019-03-05T14:09:57Z</time>
      </trkpt>
      <trkpt lat="44.40357" lon="5.97936">
        <ele>575</ele>
        <time>2019-03-05T14:09:58Z</time>
      </trkpt>
      <trkpt lat="44.40354" lon="5.97931">
        <ele>576</ele>
        <time>2019-03-05T14:09:59Z</time>
      </trkpt>
      <trkpt lat="44.40351" lon="5.97926">
        <ele>576</ele>
        <time>2019-03-05T14:10:00Z</time>
      </trkpt>
      <trkpt lat="44.40348" lon="5.9792">
        <ele>576</ele>
        <time>2019-03-05T14:10:01Z</time>
      </trkpt>
      <trkpt lat="44.40344" lon="5.97914">
        <ele>576</ele>
        <time>2019-03-05T14:10:02Z</time>
      </trkpt>
      <trkpt lat="44.4034" lon="5.97908">
        <ele>576</ele>
        <time>2019-03-05T14:10:03Z</time>
      </trkpt>
      <trkpt lat="44.40336" lon="5.97902">
        <ele>576</ele>
        <time>2019-03-05T14:10:04Z</time>
      </trkpt>
      <trkpt lat="44.40332" lon="5.97895">
        <ele>576</ele>
        <time>2019-03-05T14:10:05Z</time>
      </trkpt>
      <trkpt lat="44.40328" lon="5.97888">
        <ele>576</ele>
        <time>2019-03-05T14:10:06Z</time>
      </trkpt>
      <trkpt lat="44.40324" lon="5.97881">
        <ele>576</ele>
        <time>2019-03-05T14:10:07Z</time>
      </trkpt>
      <trkpt lat="44.4032" lon="5.97874">
        <ele>576</ele>
        <time>2019-03-05T14:10:08Z</time>
      </trkpt>
      <trkpt lat="44.40316" lon="5.97865">
        <ele>576</ele>
        <time>2019-03-05T14:10:09Z</time>
      </trkpt>
      <trkpt lat="44.40312" lon="5.97857">
        <ele>576</ele>
        <time>2019-03-05T14:10:10Z</time>
      </trkpt>
      <trkpt lat="44.40308" lon="5.97848">
        <ele>576</ele>
        <time>2019-03-05T14:10:11Z</time>
      </trkpt>
      <trkpt lat="44.40303" lon="5.97839">
        <ele>576</ele>
        <time>2019-03-05T14:10:12Z</time>
      </trkpt>
      <trkpt lat="44.40299" lon="5.97831">
        <ele>575</ele>
        <time>2019-03-05T14:10:13Z</time>
      </trkpt>
      <trkpt lat="44.40294" lon="5.97822">
        <ele>575</ele>
        <time>2019-03-05T14:10:14Z</time>
      </trkpt>
      <trkpt lat="44.4029" lon="5.97814">
        <ele>574</ele>
        <time>2019-03-05T14:10:15Z</time>
      </trkpt>
      <trkpt lat="44.40285" lon="5.97806">
        <ele>574</ele>
        <time>2019-03-05T14:10:16Z</time>
      </trkpt>
      <trkpt lat="44.40281" lon="5.97797">
        <ele>573</ele>
        <time>2019-03-05T14:10:17Z</time>
      </trkpt>
      <trkpt lat="44.40276" lon="5.97789">
        <ele>573</ele>
        <time>2019-03-05T14:10:18Z</time>
      </trkpt>
      <trkpt lat="44.40271" lon="5.97781">
        <ele>572</ele>
        <time>2019-03-05T14:10:19Z</time>
      </trkpt>
      <trkpt lat="44.40266" lon="5.97773">
        <ele>572</ele>
        <time>2019-03-05T14:10:20Z</time>
      </trkpt>
      <trkpt lat="44.40262" lon="5.97764">
        <ele>571</ele>
        <time>2019-03-05T14:10:21Z</time>
      </trkpt>
      <trkpt lat="44.40257" lon="5.97756">
        <ele>571</ele>
        <time>2019-03-05T14:10:22Z</time>
      </trkpt>
      <trkpt lat="44.40252" lon="5.97748">
        <ele>571</ele>
        <time>2019-03-05T14:10:23Z</time>
      </trkpt>
      <trkpt lat="44.40248" lon="5.9774">
        <ele>570</ele>
        <time>2019-03-05T14:10:24Z</time>
      </trkpt>
      <trkpt lat="44.40243" lon="5.97732">
        <ele>570</ele>
        <time>2019-03-05T14:10:25Z</time>
      </trkpt>
      <trkpt lat="44.40239" lon="5.97724">
        <ele>570</ele>
        <time>2019-03-05T14:10:26Z</time>
      </trkpt>
      <trkpt lat="44.40234" lon="5.97716">
        <ele>570</ele>
        <time>2019-03-05T14:10:27Z</time>
      </trkpt>
      <trkpt lat="44.40229" lon="5.97708">
        <ele>570</ele>
        <time>2019-03-05T14:10:28Z</time>
      </trkpt>
      <trkpt lat="44.40225" lon="5.97701">
        <ele>570</ele>
        <time>2019-03-05T14:10:29Z</time>
      </trkpt>
      <trkpt lat="44.4022" lon="5.97694">
        <ele>570</ele>
        <time>2019-03-05T14:10:30Z</time>
      </trkpt>
      <trkpt lat="44.40216" lon="5.97687">
        <ele>570</ele>
        <time>2019-03-05T14:10:31Z</time>
      </trkpt>
      <trkpt lat="44.40211" lon="5.9768">
        <ele>570</ele>
        <time>2019-03-05T14:10:32Z</time>
      </trkpt>
      <trkpt lat="44.40207" lon="5.97674">
        <ele>570</ele>
        <time>2019-03-05T14:10:33Z</time>
      </trkpt>
      <trkpt lat="44.40202" lon="5.97668">
        <ele>570</ele>
        <time>2019-03-05T14:10:34Z</time>
      </trkpt>
      <trkpt lat="44.40198" lon="5.97663">
        <ele>570</ele>
        <time>2019-03-05T14:10:35Z</time>
      </trkpt>
      <trkpt lat="44.40194" lon="5.97658">
        <ele>570</ele>
        <time>2019-03-05T14:10:36Z</time>
      </trkpt>
      <trkpt lat="44.4019" lon="5.97653">
        <ele>570</ele>
        <time>2019-03-05T14:10:37Z</time>
      </trkpt>
      <trkpt lat="44.40186" lon="5.97648">
        <ele>570</ele>
        <time>2019-03-05T14:10:38Z</time>
      </trkpt>
      <trkpt lat="44.40182" lon="5.97643">
        <ele>570</ele>
        <time>2019-03-05T14:10:39Z</time>
      </trkpt>
      <trkpt lat="44.40178" lon="5.97639">
        <ele>570</ele>
        <time>2019-03-05T14:10:40Z</time>
      </trkpt>
      <trkpt lat="44.40174" lon="5.97635">
        <ele>570</ele>
        <time>2019-03-05T14:10:41Z</time>
      </trkpt>
      <trkpt lat="44.4017" lon="5.97631">
        <ele>570</ele>
        <time>2019-03-05T14:10:42Z</time>
      </trkpt>
      <trkpt lat="44.40166" lon="5.97626">
        <ele>570</ele>
        <time>2019-03-05T14:10:43Z</time>
      </trkpt>
      <trkpt lat="44.40162" lon="5.97622">
        <ele>570</ele>
        <time>2019-03-05T14:10:44Z</time>
      </trkpt>
      <trkpt lat="44.40157" lon="5.97617">
        <ele>570</ele>
        <time>2019-03-05T14:10:45Z</time>
      </trkpt>
      <trkpt lat="44.40153" lon="5.97612">
        <ele>570</ele>
        <time>2019-03-05T14:10:46Z</time>
      </trkpt>
      <trkpt lat="44.40148" lon="5.97608">
        <ele>570</ele>
        <time>2019-03-05T14:10:47Z</time>
      </trkpt>
      <trkpt lat="44.40144" lon="5.97603">
        <ele>570</ele>
        <time>2019-03-05T14:10:48Z</time>
      </trkpt>
      <trkpt lat="44.40139" lon="5.97597">
        <ele>570</ele>
        <time>2019-03-05T14:10:49Z</time>
      </trkpt>
      <trkpt lat="44.40134" lon="5.97591">
        <ele>570</ele>
        <time>2019-03-05T14:10:50Z</time>
      </trkpt>
      <trkpt lat="44.40129" lon="5.97586">
        <ele>570</ele>
        <time>2019-03-05T14:10:51Z</time>
      </trkpt>
      <trkpt lat="44.40124" lon="5.9758">
        <ele>570</ele>
        <time>2019-03-05T14:10:52Z</time>
      </trkpt>
      <trkpt lat="44.40119" lon="5.97574">
        <ele>570</ele>
        <time>2019-03-05T14:10:53Z</time>
      </trkpt>
      <trkpt lat="44.40114" lon="5.97568">
        <ele>570</ele>
        <time>2019-03-05T14:10:54Z</time>
      </trkpt>
      <trkpt lat="44.40109" lon="5.97562">
        <ele>570</ele>
        <time>2019-03-05T14:10:55Z</time>
      </trkpt>
      <trkpt lat="44.40104" lon="5.97556">
        <ele>570</ele>
        <time>2019-03-05T14:10:56Z</time>
      </trkpt>
      <trkpt lat="44.40098" lon="5.9755">
        <ele>570</ele>
        <time>2019-03-05T14:10:57Z</time>
      </trkpt>
      <trkpt lat="44.40092" lon="5.97545">
        <ele>570</ele>
        <time>2019-03-05T14:10:58Z</time>
      </trkpt>
      <trkpt lat="44.40086" lon="5.9754">
        <ele>570</ele>
        <time>2019-03-05T14:10:59Z</time>
      </trkpt>
      <trkpt lat="44.4008" lon="5.97534">
        <ele>570</ele>
        <time>2019-03-05T14:11:00Z</time>
      </trkpt>
      <trkpt lat="44.40074" lon="5.97529">
        <ele>570</ele>
        <time>2019-03-05T14:11:01Z</time>
      </trkpt>
      <trkpt lat="44.40068" lon="5.97523">
        <ele>570</ele>
        <time>2019-03-05T14:11:02Z</time>
      </trkpt>
      <trkpt lat="44.40062" lon="5.97517">
        <ele>570</ele>
        <time>2019-03-05T14:11:03Z</time>
      </trkpt>
      <trkpt lat="44.40057" lon="5.97511">
        <ele>570</ele>
        <time>2019-03-05T14:11:04Z</time>
      </trkpt>
      <trkpt lat="44.40052" lon="5.97505">
        <ele>570</ele>
        <time>2019-03-05T14:11:05Z</time>
      </trkpt>
      <trkpt lat="44.40047" lon="5.97499">
        <ele>570</ele>
        <time>2019-03-05T14:11:06Z</time>
      </trkpt>
      <trkpt lat="44.40043" lon="5.97492">
        <ele>570</ele>
        <time>2019-03-05T14:11:07Z</time>
      </trkpt>
      <trkpt lat="44.40039" lon="5.97486">
        <ele>570</ele>
        <time>2019-03-05T14:11:08Z</time>
      </trkpt>
      <trkpt lat="44.40036" lon="5.97478">
        <ele>570</ele>
        <time>2019-03-05T14:11:09Z</time>
      </trkpt>
      <trkpt lat="44.40033" lon="5.97471">
        <ele>570</ele>
        <time>2019-03-05T14:11:10Z</time>
      </trkpt>
      <trkpt lat="44.40031" lon="5.97464">
        <ele>570</ele>
        <time>2019-03-05T14:11:11Z</time>
      </trkpt>
      <trkpt lat="44.40028" lon="5.97456">
        <ele>570</ele>
        <time>2019-03-05T14:11:12Z</time>
      </trkpt>
      <trkpt lat="44.40026" lon="5.97448">
        <ele>570</ele>
        <time>2019-03-05T14:11:13Z</time>
      </trkpt>
      <trkpt lat="44.40024" lon="5.97441">
        <ele>570</ele>
        <time>2019-03-05T14:11:14Z</time>
      </trkpt>
      <trkpt lat="44.40022" lon="5.97434">
        <ele>569</ele>
        <time>2019-03-05T14:11:15Z</time>
      </trkpt>
      <trkpt lat="44.4002" lon="5.97426">
        <ele>569</ele>
        <time>2019-03-05T14:11:16Z</time>
      </trkpt>
      <trkpt lat="44.40017" lon="5.97419">
        <ele>569</ele>
        <time>2019-03-05T14:11:17Z</time>
      </trkpt>
      <trkpt lat="44.40014" lon="5.97413">
        <ele>569</ele>
        <time>2019-03-05T14:11:18Z</time>
      </trkpt>
      <trkpt lat="44.40011" lon="5.97407">
        <ele>569</ele>
        <time>2019-03-05T14:11:19Z</time>
      </trkpt>
      <trkpt lat="44.40008" lon="5.97402">
        <ele>569</ele>
        <time>2019-03-05T14:11:20Z</time>
      </trkpt>
      <trkpt lat="44.40005" lon="5.97397">
        <ele>569</ele>
        <time>2019-03-05T14:11:21Z</time>
      </trkpt>
      <trkpt lat="44.40002" lon="5.97393">
        <ele>569</ele>
        <time>2019-03-05T14:11:22Z</time>
      </trkpt>
      <trkpt lat="44.39999" lon="5.97388">
        <ele>569</ele>
        <time>2019-03-05T14:11:23Z</time>
      </trkpt>
      <trkpt lat="44.39995" lon="5.97384">
        <ele>569</ele>
        <time>2019-03-05T14:11:24Z</time>
      </trkpt>
      <trkpt lat="44.39992" lon="5.9738">
        <ele>569</ele>
        <time>2019-03-05T14:11:25Z</time>
      </trkpt>
      <trkpt lat="44.39989" lon="5.97376">
        <ele>569</ele>
        <time>2019-03-05T14:11:26Z</time>
      </trkpt>
      <trkpt lat="44.39986" lon="5.97372">
        <ele>569</ele>
        <time>2019-03-05T14:11:27Z</time>
      </trkpt>
      <trkpt lat="44.39982" lon="5.97369">
        <ele>569</ele>
        <time>2019-03-05T14:11:28Z</time>
      </trkpt>
      <trkpt lat="44.39979" lon="5.97365">
        <ele>569</ele>
        <time>2019-03-05T14:11:29Z</time>
      </trkpt>
      <trkpt lat="44.39975" lon="5.97362">
        <ele>569</ele>
        <time>2019-03-05T14:11:30Z</time>
      </trkpt>
      <trkpt lat="44.39971" lon="5.97359">
        <ele>569</ele>
        <time>2019-03-05T14:11:31Z</time>
      </trkpt>
      <trkpt lat="44.39967" lon="5.97357">
        <ele>570</ele>
        <time>2019-03-05T14:11:32Z</time>
      </trkpt>
      <trkpt lat="44.39964" lon="5.97354">
        <ele>570</ele>
        <time>2019-03-05T14:11:33Z</time>
      </trkpt>
      <trkpt lat="44.3996" lon="5.97352">
        <ele>571</ele>
        <time>2019-03-05T14:11:34Z</time>
      </trkpt>
      <trkpt lat="44.39956" lon="5.9735">
        <ele>571</ele>
        <time>2019-03-05T14:11:35Z</time>
      </trkpt>
      <trkpt lat="44.39952" lon="5.97348">
        <ele>572</ele>
        <time>2019-03-05T14:11:36Z</time>
      </trkpt>
      <trkpt lat="44.39949" lon="5.97345">
        <ele>572</ele>
        <time>2019-03-05T14:11:37Z</time>
      </trkpt>
      <trkpt lat="44.39945" lon="5.97342">
        <ele>573</ele>
        <time>2019-03-05T14:11:38Z</time>
      </trkpt>
      <trkpt lat="44.39941" lon="5.97339">
        <ele>574</ele>
        <time>2019-03-05T14:11:39Z</time>
      </trkpt>
      <trkpt lat="44.39938" lon="5.97336">
        <ele>574</ele>
        <time>2019-03-05T14:11:40Z</time>
      </trkpt>
      <trkpt lat="44.39935" lon="5.97332">
        <ele>575</ele>
        <time>2019-03-05T14:11:41Z</time>
      </trkpt>
      <trkpt lat="44.39931" lon="5.97328">
        <ele>575</ele>
        <time>2019-03-05T14:11:42Z</time>
      </trkpt>
      <trkpt lat="44.39928" lon="5.97324">
        <ele>575</ele>
        <time>2019-03-05T14:11:43Z</time>
      </trkpt>
      <trkpt lat="44.39925" lon="5.9732">
        <ele>575</ele>
        <time>2019-03-05T14:11:44Z</time>
      </trkpt>
      <trkpt lat="44.39922" lon="5.97315">
        <ele>575</ele>
        <time>2019-03-05T14:11:45Z</time>
      </trkpt>
      <trkpt lat="44.39919" lon="5.9731">
        <ele>575</ele>
        <time>2019-03-05T14:11:46Z</time>
      </trkpt>
      <trkpt lat="44.39915" lon="5.97306">
        <ele>575</ele>
        <time>2019-03-05T14:11:47Z</time>
      </trkpt>
      <trkpt lat="44.39911" lon="5.97301">
        <ele>575</ele>
        <time>2019-03-05T14:11:48Z</time>
      </trkpt>
      <trkpt lat="44.39908" lon="5.97296">
        <ele>575</ele>
        <time>2019-03-05T14:11:49Z</time>
      </trkpt>
      <trkpt lat="44.39904" lon="5.97291">
        <ele>575</ele>
        <time>2019-03-05T14:11:50Z</time>
      </trkpt>
      <trkpt lat="44.39901" lon="5.97286">
        <ele>575</ele>
        <time>2019-03-05T14:11:51Z</time>
      </trkpt>
      <trkpt lat="44.39897" lon="5.97281">
        <ele>575</ele>
        <time>2019-03-05T14:11:52Z</time>
      </trkpt>
      <trkpt lat="44.39893" lon="5.97276">
        <ele>575</ele>
        <time>2019-03-05T14:11:53Z</time>
      </trkpt>
      <trkpt lat="44.3989" lon="5.97271">
        <ele>575</ele>
        <time>2019-03-05T14:11:54Z</time>
      </trkpt>
      <trkpt lat="44.39885" lon="5.97267">
        <ele>575</ele>
        <time>2019-03-05T14:11:55Z</time>
      </trkpt>
      <trkpt lat="44.39881" lon="5.97262">
        <ele>575</ele>
        <time>2019-03-05T14:11:56Z</time>
      </trkpt>
      <trkpt lat="44.39876" lon="5.97258">
        <ele>575</ele>
        <time>2019-03-05T14:11:57Z</time>
      </trkpt>
      <trkpt lat="44.39872" lon="5.97254">
        <ele>575</ele>
        <time>2019-03-05T14:11:58Z</time>
      </trkpt>
      <trkpt lat="44.39867" lon="5.9725">
        <ele>575</ele>
        <time>2019-03-05T14:11:59Z</time>
      </trkpt>
      <trkpt lat="44.39862" lon="5.97246">
        <ele>575</ele>
        <time>2019-03-05T14:12:00Z</time>
      </trkpt>
      <trkpt lat="44.39858" lon="5.97242">
        <ele>575</ele>
        <time>2019-03-05T14:12:01Z</time>
      </trkpt>
      <trkpt lat="44.39853" lon="5.97238">
        <ele>575</ele>
        <time>2019-03-05T14:12:02Z</time>
      </trkpt>
      <trkpt lat="44.39848" lon="5.97233">
        <ele>575</ele>
        <time>2019-03-05T14:12:03Z</time>
      </trkpt>
      <trkpt lat="44.39843" lon="5.97228">
        <ele>575</ele>
        <time>2019-03-05T14:12:04Z</time>
      </trkpt>
      <trkpt lat="44.39839" lon="5.97223">
        <ele>575</ele>
        <time>2019-03-05T14:12:05Z</time>
      </trkpt>
      <trkpt lat="44.39835" lon="5.97217">
        <ele>575</ele>
        <time>2019-03-05T14:12:06Z</time>
      </trkpt>
      <trkpt lat="44.39831" lon="5.97211">
        <ele>575</ele>
        <time>2019-03-05T14:12:07Z</time>
      </trkpt>
      <trkpt lat="44.39827" lon="5.97205">
        <ele>575</ele>
        <time>2019-03-05T14:12:08Z</time>
      </trkpt>
      <trkpt lat="44.39824" lon="5.97199">
        <ele>575</ele>
        <time>2019-03-05T14:12:09Z</time>
      </trkpt>
      <trkpt lat="44.3982" lon="5.97192">
        <ele>575</ele>
        <time>2019-03-05T14:12:10Z</time>
      </trkpt>
      <trkpt lat="44.39817" lon="5.97187">
        <ele>575</ele>
        <time>2019-03-05T14:12:11Z</time>
      </trkpt>
      <trkpt lat="44.39814" lon="5.97181">
        <ele>575</ele>
        <time>2019-03-05T14:12:12Z</time>
      </trkpt>
      <trkpt lat="44.39811" lon="5.97176">
        <ele>575</ele>
        <time>2019-03-05T14:12:13Z</time>
      </trkpt>
      <trkpt lat="44.39808" lon="5.9717">
        <ele>575</ele>
        <time>2019-03-05T14:12:14Z</time>
      </trkpt>
      <trkpt lat="44.39805" lon="5.97164">
        <ele>575</ele>
        <time>2019-03-05T14:12:15Z</time>
      </trkpt>
      <trkpt lat="44.39803" lon="5.97159">
        <ele>575</ele>
        <time>2019-03-05T14:12:16Z</time>
      </trkpt>
      <trkpt lat="44.39801" lon="5.97153">
        <ele>576</ele>
        <time>2019-03-05T14:12:17Z</time>
      </trkpt>
      <trkpt lat="44.39798" lon="5.97148">
        <ele>576</ele>
        <time>2019-03-05T14:12:18Z</time>
      </trkpt>
      <trkpt lat="44.39797" lon="5.97143">
        <ele>576</ele>
        <time>2019-03-05T14:12:19Z</time>
      </trkpt>
      <trkpt lat="44.39795" lon="5.97137">
        <ele>576</ele>
        <time>2019-03-05T14:12:20Z</time>
      </trkpt>
      <trkpt lat="44.39793" lon="5.97132">
        <ele>576</ele>
        <time>2019-03-05T14:12:21Z</time>
      </trkpt>
      <trkpt lat="44.3979" lon="5.97127">
        <ele>576</ele>
        <time>2019-03-05T14:12:22Z</time>
      </trkpt>
      <trkpt lat="44.39789" lon="5.97122">
        <ele>576</ele>
        <time>2019-03-05T14:12:23Z</time>
      </trkpt>
      <trkpt lat="44.39787" lon="5.97116">
        <ele>576</ele>
        <time>2019-03-05T14:12:24Z</time>
      </trkpt>
      <trkpt lat="44.39786" lon="5.97111">
        <ele>576</ele>
        <time>2019-03-05T14:12:25Z</time>
      </trkpt>
      <trkpt lat="44.39784" lon="5.97106">
        <ele>576</ele>
        <time>2019-03-05T14:12:26Z</time>
      </trkpt>
      <trkpt lat="44.39782" lon="5.971">
        <ele>576</ele>
        <time>2019-03-05T14:12:27Z</time>
      </trkpt>
      <trkpt lat="44.39781" lon="5.97095">
        <ele>576</ele>
        <time>2019-03-05T14:12:28Z</time>
      </trkpt>
      <trkpt lat="44.39779" lon="5.9709">
        <ele>576</ele>
        <time>2019-03-05T14:12:29Z</time>
      </trkpt>
      <trkpt lat="44.39778" lon="5.97084">
        <ele>576</ele>
        <time>2019-03-05T14:12:30Z</time>
      </trkpt>
      <trkpt lat="44.39776" lon="5.97079">
        <ele>576</ele>
        <time>2019-03-05T14:12:31Z</time>
      </trkpt>
      <trkpt lat="44.39774" lon="5.97073">
        <ele>576</ele>
        <time>2019-03-05T14:12:32Z</time>
      </trkpt>
      <trkpt lat="44.39772" lon="5.97068">
        <ele>576</ele>
        <time>2019-03-05T14:12:33Z</time>
      </trkpt>
      <trkpt lat="44.3977" lon="5.97062">
        <ele>576</ele>
        <time>2019-03-05T14:12:34Z</time>
      </trkpt>
      <trkpt lat="44.39767" lon="5.97057">
        <ele>576</ele>
        <time>2019-03-05T14:12:35Z</time>
      </trkpt>
      <trkpt lat="44.39765" lon="5.97051">
        <ele>576</ele>
        <time>2019-03-05T14:12:36Z</time>
      </trkpt>
      <trkpt lat="44.39763" lon="5.97046">
        <ele>576</ele>
        <time>2019-03-05T14:12:37Z</time>
      </trkpt>
      <trkpt lat="44.39761" lon="5.9704">
        <ele>576</ele>
        <time>2019-03-05T14:12:38Z</time>
      </trkpt>
      <trkpt lat="44.39759" lon="5.97035">
        <ele>577</ele>
        <time>2019-03-05T14:12:39Z</time>
      </trkpt>
      <trkpt lat="44.39757" lon="5.9703">
        <ele>577</ele>
        <time>2019-03-05T14:12:40Z</time>
      </trkpt>
      <trkpt lat="44.39755" lon="5.97024">
        <ele>577</ele>
        <time>2019-03-05T14:12:41Z</time>
      </trkpt>
      <trkpt lat="44.39753" lon="5.97019">
        <ele>577</ele>
        <time>2019-03-05T14:12:42Z</time>
      </trkpt>
      <trkpt lat="44.39751" lon="5.97014">
        <ele>577</ele>
        <time>2019-03-05T14:12:43Z</time>
      </trkpt>
      <trkpt lat="44.39749" lon="5.97009">
        <ele>577</ele>
        <time>2019-03-05T14:12:44Z</time>
      </trkpt>
      <trkpt lat="44.39748" lon="5.97004">
        <ele>577</ele>
        <time>2019-03-05T14:12:45Z</time>
      </trkpt>
      <trkpt lat="44.39745" lon="5.96998">
        <ele>577</ele>
        <time>2019-03-05T14:12:46Z</time>
      </trkpt>
      <trkpt lat="44.39743" lon="5.96993">
        <ele>577</ele>
        <time>2019-03-05T14:12:47Z</time>
      </trkpt>
      <trkpt lat="44.39741" lon="5.96988">
        <ele>577</ele>
        <time>2019-03-05T14:12:48Z</time>
      </trkpt>
      <trkpt lat="44.39739" lon="5.96983">
        <ele>577</ele>
        <time>2019-03-05T14:12:49Z</time>
      </trkpt>
      <trkpt lat="44.39736" lon="5.96978">
        <ele>577</ele>
        <time>2019-03-05T14:12:50Z</time>
      </trkpt>
      <trkpt lat="44.39734" lon="5.96972">
        <ele>577</ele>
        <time>2019-03-05T14:12:51Z</time>
      </trkpt>
      <trkpt lat="44.39731" lon="5.96967">
        <ele>578</ele>
        <time>2019-03-05T14:12:52Z</time>
      </trkpt>
      <trkpt lat="44.39729" lon="5.96962">
        <ele>578</ele>
        <time>2019-03-05T14:12:53Z</time>
      </trkpt>
      <trkpt lat="44.39726" lon="5.96957">
        <ele>578</ele>
        <time>2019-03-05T14:12:54Z</time>
      </trkpt>
      <trkpt lat="44.39724" lon="5.96952">
        <ele>578</ele>
        <time>2019-03-05T14:12:55Z</time>
      </trkpt>
      <trkpt lat="44.39721" lon="5.96948">
        <ele>579</ele>
        <time>2019-03-05T14:12:56Z</time>
      </trkpt>
      <trkpt lat="44.39719" lon="5.96943">
        <ele>579</ele>
        <time>2019-03-05T14:12:57Z</time>
      </trkpt>
      <trkpt lat="44.39716" lon="5.96939">
        <ele>579</ele>
        <time>2019-03-05T14:12:58Z</time>
      </trkpt>
      <trkpt lat="44.39714" lon="5.96934">
        <ele>580</ele>
        <time>2019-03-05T14:12:59Z</time>
      </trkpt>
      <trkpt lat="44.39711" lon="5.96929">
        <ele>580</ele>
        <time>2019-03-05T14:13:00Z</time>
      </trkpt>
      <trkpt lat="44.39709" lon="5.96924">
        <ele>580</ele>
        <time>2019-03-05T14:13:01Z</time>
      </trkpt>
      <trkpt lat="44.39706" lon="5.9692">
        <ele>580</ele>
        <time>2019-03-05T14:13:02Z</time>
      </trkpt>
      <trkpt lat="44.39703" lon="5.96915">
        <ele>580</ele>
        <time>2019-03-05T14:13:03Z</time>
      </trkpt>
      <trkpt lat="44.397" lon="5.96911">
        <ele>580</ele>
        <time>2019-03-05T14:13:04Z</time>
      </trkpt>
      <trkpt lat="44.39698" lon="5.96906">
        <ele>580</ele>
        <time>2019-03-05T14:13:05Z</time>
      </trkpt>
      <trkpt lat="44.39694" lon="5.969">
        <ele>580</ele>
        <time>2019-03-05T14:13:06Z</time>
      </trkpt>
      <trkpt lat="44.39691" lon="5.96895">
        <ele>580</ele>
        <time>2019-03-05T14:13:07Z</time>
      </trkpt>
      <trkpt lat="44.39687" lon="5.9689">
        <ele>580</ele>
        <time>2019-03-05T14:13:08Z</time>
      </trkpt>
      <trkpt lat="44.39684" lon="5.96884">
        <ele>580</ele>
        <time>2019-03-05T14:13:09Z</time>
      </trkpt>
      <trkpt lat="44.3968" lon="5.96879">
        <ele>580</ele>
        <time>2019-03-05T14:13:10Z</time>
      </trkpt>
      <trkpt lat="44.39677" lon="5.96875">
        <ele>580</ele>
        <time>2019-03-05T14:13:11Z</time>
      </trkpt>
      <trkpt lat="44.39673" lon="5.9687">
        <ele>580</ele>
        <time>2019-03-05T14:13:12Z</time>
      </trkpt>
      <trkpt lat="44.39669" lon="5.96864">
        <ele>580</ele>
        <time>2019-03-05T14:13:13Z</time>
      </trkpt>
      <trkpt lat="44.39665" lon="5.96859">
        <ele>580</ele>
        <time>2019-03-05T14:13:14Z</time>
      </trkpt>
      <trkpt lat="44.39661" lon="5.96854">
        <ele>580</ele>
        <time>2019-03-05T14:13:15Z</time>
      </trkpt>
      <trkpt lat="44.39657" lon="5.96848">
        <ele>580</ele>
        <time>2019-03-05T14:13:16Z</time>
      </trkpt>
      <trkpt lat="44.39653" lon="5.96843">
        <ele>580</ele>
        <time>2019-03-05T14:13:17Z</time>
      </trkpt>
      <trkpt lat="44.39649" lon="5.96837">
        <ele>580</ele>
        <time>2019-03-05T14:13:18Z</time>
      </trkpt>
      <trkpt lat="44.39644" lon="5.96832">
        <ele>580</ele>
        <time>2019-03-05T14:13:19Z</time>
      </trkpt>
      <trkpt lat="44.3964" lon="5.96826">
        <ele>580</ele>
        <time>2019-03-05T14:13:20Z</time>
      </trkpt>
      <trkpt lat="44.39635" lon="5.9682">
        <ele>580</ele>
        <time>2019-03-05T14:13:21Z</time>
      </trkpt>
      <trkpt lat="44.39631" lon="5.96816">
        <ele>580</ele>
        <time>2019-03-05T14:13:22Z</time>
      </trkpt>
      <trkpt lat="44.39626" lon="5.96811">
        <ele>580</ele>
        <time>2019-03-05T14:13:23Z</time>
      </trkpt>
      <trkpt lat="44.39622" lon="5.96806">
        <ele>580</ele>
        <time>2019-03-05T14:13:24Z</time>
      </trkpt>
      <trkpt lat="44.39617" lon="5.96801">
        <ele>580</ele>
        <time>2019-03-05T14:13:25Z</time>
      </trkpt>
      <trkpt lat="44.39612" lon="5.96797">
        <ele>580</ele>
        <time>2019-03-05T14:13:26Z</time>
      </trkpt>
      <trkpt lat="44.39607" lon="5.96792">
        <ele>580</ele>
        <time>2019-03-05T14:13:27Z</time>
      </trkpt>
      <trkpt lat="44.39602" lon="5.96788">
        <ele>580</ele>
        <time>2019-03-05T14:13:28Z</time>
      </trkpt>
      <trkpt lat="44.39597" lon="5.96783">
        <ele>580</ele>
        <time>2019-03-05T14:13:29Z</time>
      </trkpt>
      <trkpt lat="44.39593" lon="5.96779">
        <ele>580</ele>
        <time>2019-03-05T14:13:30Z</time>
      </trkpt>
      <trkpt lat="44.39588" lon="5.96775">
        <ele>580</ele>
        <time>2019-03-05T14:13:31Z</time>
      </trkpt>
      <trkpt lat="44.39583" lon="5.96771">
        <ele>580</ele>
        <time>2019-03-05T14:13:32Z</time>
      </trkpt>
      <trkpt lat="44.39578" lon="5.96768">
        <ele>580</ele>
        <time>2019-03-05T14:13:33Z</time>
      </trkpt>
      <trkpt lat="44.39573" lon="5.96765">
        <ele>580</ele>
        <time>2019-03-05T14:13:34Z</time>
      </trkpt>
      <trkpt lat="44.39568" lon="5.96763">
        <ele>580</ele>
        <time>2019-03-05T14:13:35Z</time>
      </trkpt>
      <trkpt lat="44.39562" lon="5.96761">
        <ele>580</ele>
        <time>2019-03-05T14:13:36Z</time>
      </trkpt>
      <trkpt lat="44.39557" lon="5.96761">
        <ele>580</ele>
        <time>2019-03-05T14:13:37Z</time>
      </trkpt>
      <trkpt lat="44.3955" lon="5.96761">
        <ele>580</ele>
        <time>2019-03-05T14:13:38Z</time>
      </trkpt>
      <trkpt lat="44.39544" lon="5.96763">
        <ele>580</ele>
        <time>2019-03-05T14:13:39Z</time>
      </trkpt>
      <trkpt lat="44.39538" lon="5.96764">
        <ele>580</ele>
        <time>2019-03-05T14:13:40Z</time>
      </trkpt>
      <trkpt lat="44.39532" lon="5.96766">
        <ele>580</ele>
        <time>2019-03-05T14:13:41Z</time>
      </trkpt>
      <trkpt lat="44.39527" lon="5.96768">
        <ele>580</ele>
        <time>2019-03-05T14:13:42Z</time>
      </trkpt>
      <trkpt lat="44.39521" lon="5.9677">
        <ele>580</ele>
        <time>2019-03-05T14:13:43Z</time>
      </trkpt>
      <trkpt lat="44.39515" lon="5.9677">
        <ele>580</ele>
        <time>2019-03-05T14:13:44Z</time>
      </trkpt>
      <trkpt lat="44.3951" lon="5.96768">
        <ele>580</ele>
        <time>2019-03-05T14:13:45Z</time>
      </trkpt>
      <trkpt lat="44.39504" lon="5.96765">
        <ele>580</ele>
        <time>2019-03-05T14:13:46Z</time>
      </trkpt>
      <trkpt lat="44.39499" lon="5.9676">
        <ele>580</ele>
        <time>2019-03-05T14:13:47Z</time>
      </trkpt>
      <trkpt lat="44.39495" lon="5.96754">
        <ele>580</ele>
        <time>2019-03-05T14:13:48Z</time>
      </trkpt>
      <trkpt lat="44.39491" lon="5.96746">
        <ele>579</ele>
        <time>2019-03-05T14:13:49Z</time>
      </trkpt>
      <trkpt lat="44.39488" lon="5.96739">
        <ele>579</ele>
        <time>2019-03-05T14:13:50Z</time>
      </trkpt>
      <trkpt lat="44.39484" lon="5.9673">
        <ele>579</ele>
        <time>2019-03-05T14:13:51Z</time>
      </trkpt>
      <trkpt lat="44.39481" lon="5.96722">
        <ele>578</ele>
        <time>2019-03-05T14:13:52Z</time>
      </trkpt>
      <trkpt lat="44.39478" lon="5.96713">
        <ele>578</ele>
        <time>2019-03-05T14:13:53Z</time>
      </trkpt>
      <trkpt lat="44.39474" lon="5.96704">
        <ele>578</ele>
        <time>2019-03-05T14:13:54Z</time>
      </trkpt>
      <trkpt lat="44.39471" lon="5.96695">
        <ele>577</ele>
        <time>2019-03-05T14:13:55Z</time>
      </trkpt>
      <trkpt lat="44.39467" lon="5.96685">
        <ele>577</ele>
        <time>2019-03-05T14:13:56Z</time>
      </trkpt>
      <trkpt lat="44.39463" lon="5.96676">
        <ele>576</ele>
        <time>2019-03-05T14:13:57Z</time>
      </trkpt>
      <trkpt lat="44.39459" lon="5.96666">
        <ele>576</ele>
        <time>2019-03-05T14:13:58Z</time>
      </trkpt>
      <trkpt lat="44.39455" lon="5.96657">
        <ele>575</ele>
        <time>2019-03-05T14:13:59Z</time>
      </trkpt>
      <trkpt lat="44.39451" lon="5.96647">
        <ele>575</ele>
        <time>2019-03-05T14:14:00Z</time>
      </trkpt>
      <trkpt lat="44.39447" lon="5.96637">
        <ele>574</ele>
        <time>2019-03-05T14:14:01Z</time>
      </trkpt>
      <trkpt lat="44.39442" lon="5.96627">
        <ele>574</ele>
        <time>2019-03-05T14:14:02Z</time>
      </trkpt>
      <trkpt lat="44.39438" lon="5.96617">
        <ele>573</ele>
        <time>2019-03-05T14:14:03Z</time>
      </trkpt>
      <trkpt lat="44.39434" lon="5.96606">
        <ele>573</ele>
        <time>2019-03-05T14:14:04Z</time>
      </trkpt>
      <trkpt lat="44.39429" lon="5.96595">
        <ele>572</ele>
        <time>2019-03-05T14:14:05Z</time>
      </trkpt>
      <trkpt lat="44.39424" lon="5.96584">
        <ele>572</ele>
        <time>2019-03-05T14:14:06Z</time>
      </trkpt>
      <trkpt lat="44.3942" lon="5.96572">
        <ele>571</ele>
        <time>2019-03-05T14:14:07Z</time>
      </trkpt>
      <trkpt lat="44.39415" lon="5.96561">
        <ele>571</ele>
        <time>2019-03-05T14:14:08Z</time>
      </trkpt>
      <trkpt lat="44.39411" lon="5.96549">
        <ele>570</ele>
        <time>2019-03-05T14:14:09Z</time>
      </trkpt>
      <trkpt lat="44.39406" lon="5.96538">
        <ele>569</ele>
        <time>2019-03-05T14:14:10Z</time>
      </trkpt>
      <trkpt lat="44.394" lon="5.96527">
        <ele>569</ele>
        <time>2019-03-05T14:14:11Z</time>
      </trkpt>
      <trkpt lat="44.39395" lon="5.96516">
        <ele>568</ele>
        <time>2019-03-05T14:14:12Z</time>
      </trkpt>
      <trkpt lat="44.3939" lon="5.96506">
        <ele>568</ele>
        <time>2019-03-05T14:14:13Z</time>
      </trkpt>
      <trkpt lat="44.39384" lon="5.96496">
        <ele>568</ele>
        <time>2019-03-05T14:14:14Z</time>
      </trkpt>
      <trkpt lat="44.39379" lon="5.96487">
        <ele>567</ele>
        <time>2019-03-05T14:14:15Z</time>
      </trkpt>
      <trkpt lat="44.39373" lon="5.96477">
        <ele>567</ele>
        <time>2019-03-05T14:14:16Z</time>
      </trkpt>
      <trkpt lat="44.39368" lon="5.96468">
        <ele>567</ele>
        <time>2019-03-05T14:14:17Z</time>
      </trkpt>
      <trkpt lat="44.39362" lon="5.96459">
        <ele>567</ele>
        <time>2019-03-05T14:14:18Z</time>
      </trkpt>
      <trkpt lat="44.39357" lon="5.96451">
        <ele>566</ele>
        <time>2019-03-05T14:14:19Z</time>
      </trkpt>
      <trkpt lat="44.39352" lon="5.96442">
        <ele>566</ele>
        <time>2019-03-05T14:14:20Z</time>
      </trkpt>
      <trkpt lat="44.39346" lon="5.96433">
        <ele>566</ele>
        <time>2019-03-05T14:14:21Z</time>
      </trkpt>
      <trkpt lat="44.39341" lon="5.96424">
        <ele>566</ele>
        <time>2019-03-05T14:14:22Z</time>
      </trkpt>
      <trkpt lat="44.39335" lon="5.96415">
        <ele>565</ele>
        <time>2019-03-05T14:14:23Z</time>
      </trkpt>
      <trkpt lat="44.39329" lon="5.96406">
        <ele>565</ele>
        <time>2019-03-05T14:14:24Z</time>
      </trkpt>
      <trkpt lat="44.39324" lon="5.96397">
        <ele>565</ele>
        <time>2019-03-05T14:14:25Z</time>
      </trkpt>
      <trkpt lat="44.39318" lon="5.96388">
        <ele>565</ele>
        <time>2019-03-05T14:14:26Z</time>
      </trkpt>
      <trkpt lat="44.39313" lon="5.9638">
        <ele>564</ele>
        <time>2019-03-05T14:14:27Z</time>
      </trkpt>
      <trkpt lat="44.39307" lon="5.96371">
        <ele>564</ele>
        <time>2019-03-05T14:14:28Z</time>
      </trkpt>
      <trkpt lat="44.39302" lon="5.96363">
        <ele>564</ele>
        <time>2019-03-05T14:14:29Z</time>
      </trkpt>
      <trkpt lat="44.39297" lon="5.96355">
        <ele>564</ele>
        <time>2019-03-05T14:14:30Z</time>
      </trkpt>
      <trkpt lat="44.39291" lon="5.96346">
        <ele>564</ele>
        <time>2019-03-05T14:14:31Z</time>
      </trkpt>
      <trkpt lat="44.39286" lon="5.96338">
        <ele>563</ele>
        <time>2019-03-05T14:14:32Z</time>
      </trkpt>
      <trkpt lat="44.39282" lon="5.96329">
        <ele>563</ele>
        <time>2019-03-05T14:14:33Z</time>
      </trkpt>
      <trkpt lat="44.39277" lon="5.9632">
        <ele>563</ele>
        <time>2019-03-05T14:14:34Z</time>
      </trkpt>
      <trkpt lat="44.39272" lon="5.96311">
        <ele>563</ele>
        <time>2019-03-05T14:14:35Z</time>
      </trkpt>
      <trkpt lat="44.39267" lon="5.96302">
        <ele>562</ele>
        <time>2019-03-05T14:14:36Z</time>
      </trkpt>
      <trkpt lat="44.39262" lon="5.96293">
        <ele>562</ele>
        <time>2019-03-05T14:14:37Z</time>
      </trkpt>
      <trkpt lat="44.39257" lon="5.96285">
        <ele>562</ele>
        <time>2019-03-05T14:14:38Z</time>
      </trkpt>
      <trkpt lat="44.39252" lon="5.96277">
        <ele>562</ele>
        <time>2019-03-05T14:14:39Z</time>
      </trkpt>
      <trkpt lat="44.39246" lon="5.9627">
        <ele>562</ele>
        <time>2019-03-05T14:14:40Z</time>
      </trkpt>
      <trkpt lat="44.39241" lon="5.96262">
        <ele>562</ele>
        <time>2019-03-05T14:14:41Z</time>
      </trkpt>
      <trkpt lat="44.39235" lon="5.96255">
        <ele>562</ele>
        <time>2019-03-05T14:14:42Z</time>
      </trkpt>
      <trkpt lat="44.39229" lon="5.96248">
        <ele>562</ele>
        <time>2019-03-05T14:14:43Z</time>
      </trkpt>
      <trkpt lat="44.39223" lon="5.96241">
        <ele>561</ele>
        <time>2019-03-05T14:14:44Z</time>
      </trkpt>
      <trkpt lat="44.39217" lon="5.96235">
        <ele>561</ele>
        <time>2019-03-05T14:14:45Z</time>
      </trkpt>
      <trkpt lat="44.39211" lon="5.96229">
        <ele>561</ele>
        <time>2019-03-05T14:14:46Z</time>
      </trkpt>
      <trkpt lat="44.39205" lon="5.96223">
        <ele>561</ele>
        <time>2019-03-05T14:14:47Z</time>
      </trkpt>
      <trkpt lat="44.39199" lon="5.96217">
        <ele>561</ele>
        <time>2019-03-05T14:14:48Z</time>
      </trkpt>
      <trkpt lat="44.39192" lon="5.9621">
        <ele>561</ele>
        <time>2019-03-05T14:14:49Z</time>
      </trkpt>
      <trkpt lat="44.39186" lon="5.96204">
        <ele>561</ele>
        <time>2019-03-05T14:14:50Z</time>
      </trkpt>
      <trkpt lat="44.3918" lon="5.96198">
        <ele>561</ele>
        <time>2019-03-05T14:14:51Z</time>
      </trkpt>
      <trkpt lat="44.39174" lon="5.96192">
        <ele>561</ele>
        <time>2019-03-05T14:14:52Z</time>
      </trkpt>
      <trkpt lat="44.39167" lon="5.96186">
        <ele>561</ele>
        <time>2019-03-05T14:14:53Z</time>
      </trkpt>
      <trkpt lat="44.39162" lon="5.96179">
        <ele>560</ele>
        <time>2019-03-05T14:14:54Z</time>
      </trkpt>
      <trkpt lat="44.39156" lon="5.96173">
        <ele>560</ele>
        <time>2019-03-05T14:14:55Z</time>
      </trkpt>
      <trkpt lat="44.39149" lon="5.96167">
        <ele>560</ele>
        <time>2019-03-05T14:14:56Z</time>
      </trkpt>
      <trkpt lat="44.39144" lon="5.96161">
        <ele>560</ele>
        <time>2019-03-05T14:14:57Z</time>
      </trkpt>
      <trkpt lat="44.39138" lon="5.96155">
        <ele>560</ele>
        <time>2019-03-05T14:14:58Z</time>
      </trkpt>
      <trkpt lat="44.39132" lon="5.9615">
        <ele>560</ele>
        <time>2019-03-05T14:14:59Z</time>
      </trkpt>
      <trkpt lat="44.39127" lon="5.96145">
        <ele>560</ele>
        <time>2019-03-05T14:15:00Z</time>
      </trkpt>
      <trkpt lat="44.39122" lon="5.9614">
        <ele>560</ele>
        <time>2019-03-05T14:15:01Z</time>
      </trkpt>
      <trkpt lat="44.39117" lon="5.96134">
        <ele>560</ele>
        <time>2019-03-05T14:15:02Z</time>
      </trkpt>
      <trkpt lat="44.39112" lon="5.96129">
        <ele>560</ele>
        <time>2019-03-05T14:15:03Z</time>
      </trkpt>
      <trkpt lat="44.39107" lon="5.96124">
        <ele>560</ele>
        <time>2019-03-05T14:15:04Z</time>
      </trkpt>
      <trkpt lat="44.39103" lon="5.96119">
        <ele>560</ele>
        <time>2019-03-05T14:15:05Z</time>
      </trkpt>
      <trkpt lat="44.39098" lon="5.96115">
        <ele>560</ele>
        <time>2019-03-05T14:15:06Z</time>
      </trkpt>
      <trkpt lat="44.39094" lon="5.9611">
        <ele>560</ele>
        <time>2019-03-05T14:15:07Z</time>
      </trkpt>
      <trkpt lat="44.39089" lon="5.96105">
        <ele>560</ele>
        <time>2019-03-05T14:15:08Z</time>
      </trkpt>
      <trkpt lat="44.39085" lon="5.96101">
        <ele>560</ele>
        <time>2019-03-05T14:15:09Z</time>
      </trkpt>
      <trkpt lat="44.39081" lon="5.96096">
        <ele>560</ele>
        <time>2019-03-05T14:15:10Z</time>
      </trkpt>
      <trkpt lat="44.39077" lon="5.96091">
        <ele>560</ele>
        <time>2019-03-05T14:15:11Z</time>
      </trkpt>
      <trkpt lat="44.39072" lon="5.96086">
        <ele>560</ele>
        <time>2019-03-05T14:15:12Z</time>
      </trkpt>
      <trkpt lat="44.39069" lon="5.9608">
        <ele>560</ele>
        <time>2019-03-05T14:15:13Z</time>
      </trkpt>
      <trkpt lat="44.39065" lon="5.96074">
        <ele>560</ele>
        <time>2019-03-05T14:15:14Z</time>
      </trkpt>
      <trkpt lat="44.39061" lon="5.96068">
        <ele>560</ele>
        <time>2019-03-05T14:15:15Z</time>
      </trkpt>
      <trkpt lat="44.39058" lon="5.96063">
        <ele>560</ele>
        <time>2019-03-05T14:15:16Z</time>
      </trkpt>
      <trkpt lat="44.39055" lon="5.96057">
        <ele>560</ele>
        <time>2019-03-05T14:15:17Z</time>
      </trkpt>
      <trkpt lat="44.39052" lon="5.96051">
        <ele>560</ele>
        <time>2019-03-05T14:15:18Z</time>
      </trkpt>
      <trkpt lat="44.39049" lon="5.96046">
        <ele>560</ele>
        <time>2019-03-05T14:15:19Z</time>
      </trkpt>
      <trkpt lat="44.39046" lon="5.96039">
        <ele>560</ele>
        <time>2019-03-05T14:15:20Z</time>
      </trkpt>
      <trkpt lat="44.39043" lon="5.96033">
        <ele>560</ele>
        <time>2019-03-05T14:15:21Z</time>
      </trkpt>
      <trkpt lat="44.3904" lon="5.96026">
        <ele>560</ele>
        <time>2019-03-05T14:15:22Z</time>
      </trkpt>
      <trkpt lat="44.39037" lon="5.9602">
        <ele>560</ele>
        <time>2019-03-05T14:15:23Z</time>
      </trkpt>
      <trkpt lat="44.39034" lon="5.96014">
        <ele>560</ele>
        <time>2019-03-05T14:15:24Z</time>
      </trkpt>
      <trkpt lat="44.39032" lon="5.96007">
        <ele>560</ele>
        <time>2019-03-05T14:15:25Z</time>
      </trkpt>
      <trkpt lat="44.39029" lon="5.96001">
        <ele>560</ele>
        <time>2019-03-05T14:15:26Z</time>
      </trkpt>
      <trkpt lat="44.39025" lon="5.95994">
        <ele>560</ele>
        <time>2019-03-05T14:15:27Z</time>
      </trkpt>
      <trkpt lat="44.39022" lon="5.95988">
        <ele>560</ele>
        <time>2019-03-05T14:15:28Z</time>
      </trkpt>
      <trkpt lat="44.39018" lon="5.95981">
        <ele>560</ele>
        <time>2019-03-05T14:15:29Z</time>
      </trkpt>
      <trkpt lat="44.39015" lon="5.95974">
        <ele>560</ele>
        <time>2019-03-05T14:15:30Z</time>
      </trkpt>
      <trkpt lat="44.39011" lon="5.95967">
        <ele>560</ele>
        <time>2019-03-05T14:15:31Z</time>
      </trkpt>
      <trkpt lat="44.39007" lon="5.95959">
        <ele>560</ele>
        <time>2019-03-05T14:15:32Z</time>
      </trkpt>
      <trkpt lat="44.39002" lon="5.95952">
        <ele>560</ele>
        <time>2019-03-05T14:15:33Z</time>
      </trkpt>
      <trkpt lat="44.38998" lon="5.95944">
        <ele>560</ele>
        <time>2019-03-05T14:15:34Z</time>
      </trkpt>
      <trkpt lat="44.38993" lon="5.95937">
        <ele>560</ele>
        <time>2019-03-05T14:15:35Z</time>
      </trkpt>
      <trkpt lat="44.38988" lon="5.9593">
        <ele>560</ele>
        <time>2019-03-05T14:15:36Z</time>
      </trkpt>
      <trkpt lat="44.38982" lon="5.95922">
        <ele>560</ele>
        <time>2019-03-05T14:15:37Z</time>
      </trkpt>
      <trkpt lat="44.38977" lon="5.95914">
        <ele>560</ele>
        <time>2019-03-05T14:15:38Z</time>
      </trkpt>
      <trkpt lat="44.38971" lon="5.95906">
        <ele>560</ele>
        <time>2019-03-05T14:15:39Z</time>
      </trkpt>
      <trkpt lat="44.38966" lon="5.95897">
        <ele>559</ele>
        <time>2019-03-05T14:15:40Z</time>
      </trkpt>
      <trkpt lat="44.3896" lon="5.95889">
        <ele>559</ele>
        <time>2019-03-05T14:15:41Z</time>
      </trkpt>
      <trkpt lat="44.38955" lon="5.9588">
        <ele>559</ele>
        <time>2019-03-05T14:15:42Z</time>
      </trkpt>
      <trkpt lat="44.3895" lon="5.95871">
        <ele>558</ele>
        <time>2019-03-05T14:15:43Z</time>
      </trkpt>
      <trkpt lat="44.38944" lon="5.95863">
        <ele>557</ele>
        <time>2019-03-05T14:15:44Z</time>
      </trkpt>
      <trkpt lat="44.38938" lon="5.95855">
        <ele>557</ele>
        <time>2019-03-05T14:15:45Z</time>
      </trkpt>
      <trkpt lat="44.38933" lon="5.95847">
        <ele>556</ele>
        <time>2019-03-05T14:15:46Z</time>
      </trkpt>
      <trkpt lat="44.38927" lon="5.95839">
        <ele>556</ele>
        <time>2019-03-05T14:15:47Z</time>
      </trkpt>
      <trkpt lat="44.38922" lon="5.95831">
        <ele>556</ele>
        <time>2019-03-05T14:15:48Z</time>
      </trkpt>
      <trkpt lat="44.38916" lon="5.95825">
        <ele>556</ele>
        <time>2019-03-05T14:15:49Z</time>
      </trkpt>
      <trkpt lat="44.38911" lon="5.95819">
        <ele>555</ele>
        <time>2019-03-05T14:15:50Z</time>
      </trkpt>
      <trkpt lat="44.38905" lon="5.95813">
        <ele>555</ele>
        <time>2019-03-05T14:15:51Z</time>
      </trkpt>
      <trkpt lat="44.38899" lon="5.95808">
        <ele>555</ele>
        <time>2019-03-05T14:15:52Z</time>
      </trkpt>
      <trkpt lat="44.38893" lon="5.95802">
        <ele>555</ele>
        <time>2019-03-05T14:15:53Z</time>
      </trkpt>
      <trkpt lat="44.38887" lon="5.95797">
        <ele>555</ele>
        <time>2019-03-05T14:15:54Z</time>
      </trkpt>
      <trkpt lat="44.38882" lon="5.95793">
        <ele>555</ele>
        <time>2019-03-05T14:15:55Z</time>
      </trkpt>
      <trkpt lat="44.38876" lon="5.95788">
        <ele>555</ele>
        <time>2019-03-05T14:15:56Z</time>
      </trkpt>
      <trkpt lat="44.38871" lon="5.95784">
        <ele>555</ele>
        <time>2019-03-05T14:15:57Z</time>
      </trkpt>
      <trkpt lat="44.38866" lon="5.95779">
        <ele>555</ele>
        <time>2019-03-05T14:15:58Z</time>
      </trkpt>
      <trkpt lat="44.38861" lon="5.95775">
        <ele>555</ele>
        <time>2019-03-05T14:15:59Z</time>
      </trkpt>
      <trkpt lat="44.38857" lon="5.95771">
        <ele>555</ele>
        <time>2019-03-05T14:16:00Z</time>
      </trkpt>
      <trkpt lat="44.38853" lon="5.95767">
        <ele>555</ele>
        <time>2019-03-05T14:16:01Z</time>
      </trkpt>
      <trkpt lat="44.38848" lon="5.95763">
        <ele>555</ele>
        <time>2019-03-05T14:16:02Z</time>
      </trkpt>
      <trkpt lat="44.38844" lon="5.95759">
        <ele>555</ele>
        <time>2019-03-05T14:16:03Z</time>
      </trkpt>
      <trkpt lat="44.38839" lon="5.95755">
        <ele>555</ele>
        <time>2019-03-05T14:16:04Z</time>
      </trkpt>
      <trkpt lat="44.38835" lon="5.95751">
        <ele>555</ele>
        <time>2019-03-05T14:16:05Z</time>
      </trkpt>
      <trkpt lat="44.38831" lon="5.95747">
        <ele>555</ele>
        <time>2019-03-05T14:16:06Z</time>
      </trkpt>
      <trkpt lat="44.38826" lon="5.95744">
        <ele>555</ele>
        <time>2019-03-05T14:16:07Z</time>
      </trkpt>
      <trkpt lat="44.38822" lon="5.9574">
        <ele>555</ele>
        <time>2019-03-05T14:16:08Z</time>
      </trkpt>
      <trkpt lat="44.38817" lon="5.95736">
        <ele>555</ele>
        <time>2019-03-05T14:16:09Z</time>
      </trkpt>
      <trkpt lat="44.38813" lon="5.95733">
        <ele>555</ele>
        <time>2019-03-05T14:16:10Z</time>
      </trkpt>
      <trkpt lat="44.38808" lon="5.95729">
        <ele>555</ele>
        <time>2019-03-05T14:16:11Z</time>
      </trkpt>
      <trkpt lat="44.38804" lon="5.95726">
        <ele>555</ele>
        <time>2019-03-05T14:16:12Z</time>
      </trkpt>
      <trkpt lat="44.38799" lon="5.95723">
        <ele>555</ele>
        <time>2019-03-05T14:16:13Z</time>
      </trkpt>
      <trkpt lat="44.38795" lon="5.9572">
        <ele>555</ele>
        <time>2019-03-05T14:16:14Z</time>
      </trkpt>
      <trkpt lat="44.3879" lon="5.95717">
        <ele>555</ele>
        <time>2019-03-05T14:16:15Z</time>
      </trkpt>
      <trkpt lat="44.38786" lon="5.95715">
        <ele>555</ele>
        <time>2019-03-05T14:16:16Z</time>
      </trkpt>
      <trkpt lat="44.38781" lon="5.95712">
        <ele>555</ele>
        <time>2019-03-05T14:16:17Z</time>
      </trkpt>
      <trkpt lat="44.38776" lon="5.95709">
        <ele>555</ele>
        <time>2019-03-05T14:16:18Z</time>
      </trkpt>
      <trkpt lat="44.38771" lon="5.95706">
        <ele>555</ele>
        <time>2019-03-05T14:16:19Z</time>
      </trkpt>
      <trkpt lat="44.38765" lon="5.95704">
        <ele>555</ele>
        <time>2019-03-05T14:16:20Z</time>
      </trkpt>
      <trkpt lat="44.3876" lon="5.95701">
        <ele>555</ele>
        <time>2019-03-05T14:16:21Z</time>
      </trkpt>
      <trkpt lat="44.38754" lon="5.95698">
        <ele>555</ele>
        <time>2019-03-05T14:16:22Z</time>
      </trkpt>
      <trkpt lat="44.38749" lon="5.95695">
        <ele>555</ele>
        <time>2019-03-05T14:16:23Z</time>
      </trkpt>
      <trkpt lat="44.38743" lon="5.95692">
        <ele>555</ele>
        <time>2019-03-05T14:16:24Z</time>
      </trkpt>
      <trkpt lat="44.38737" lon="5.95689">
        <ele>555</ele>
        <time>2019-03-05T14:16:25Z</time>
      </trkpt>
      <trkpt lat="44.38732" lon="5.95686">
        <ele>555</ele>
        <time>2019-03-05T14:16:26Z</time>
      </trkpt>
      <trkpt lat="44.38726" lon="5.95683">
        <ele>555</ele>
        <time>2019-03-05T14:16:27Z</time>
      </trkpt>
      <trkpt lat="44.38721" lon="5.9568">
        <ele>555</ele>
        <time>2019-03-05T14:16:28Z</time>
      </trkpt>
      <trkpt lat="44.38715" lon="5.95677">
        <ele>555</ele>
        <time>2019-03-05T14:16:29Z</time>
      </trkpt>
      <trkpt lat="44.3871" lon="5.95674">
        <ele>555</ele>
        <time>2019-03-05T14:16:30Z</time>
      </trkpt>
      <trkpt lat="44.38705" lon="5.9567">
        <ele>555</ele>
        <time>2019-03-05T14:16:31Z</time>
      </trkpt>
      <trkpt lat="44.387" lon="5.95666">
        <ele>555</ele>
        <time>2019-03-05T14:16:32Z</time>
      </trkpt>
      <trkpt lat="44.38695" lon="5.95662">
        <ele>555</ele>
        <time>2019-03-05T14:16:33Z</time>
      </trkpt>
      <trkpt lat="44.3869" lon="5.95658">
        <ele>555</ele>
        <time>2019-03-05T14:16:34Z</time>
      </trkpt>
      <trkpt lat="44.38685" lon="5.95653">
        <ele>555</ele>
        <time>2019-03-05T14:16:35Z</time>
      </trkpt>
      <trkpt lat="44.38681" lon="5.95649">
        <ele>555</ele>
        <time>2019-03-05T14:16:36Z</time>
      </trkpt>
      <trkpt lat="44.38676" lon="5.95644">
        <ele>555</ele>
        <time>2019-03-05T14:16:37Z</time>
      </trkpt>
      <trkpt lat="44.38672" lon="5.95639">
        <ele>555</ele>
        <time>2019-03-05T14:16:38Z</time>
      </trkpt>
      <trkpt lat="44.38668" lon="5.95634">
        <ele>555</ele>
        <time>2019-03-05T14:16:39Z</time>
      </trkpt>
      <trkpt lat="44.38664" lon="5.95629">
        <ele>554</ele>
        <time>2019-03-05T14:16:40Z</time>
      </trkpt>
      <trkpt lat="44.3866" lon="5.95624">
        <ele>554</ele>
        <time>2019-03-05T14:16:41Z</time>
      </trkpt>
      <trkpt lat="44.38656" lon="5.95619">
        <ele>554</ele>
        <time>2019-03-05T14:16:42Z</time>
      </trkpt>
      <trkpt lat="44.38652" lon="5.95615">
        <ele>554</ele>
        <time>2019-03-05T14:16:43Z</time>
      </trkpt>
      <trkpt lat="44.38649" lon="5.95611">
        <ele>554</ele>
        <time>2019-03-05T14:16:44Z</time>
      </trkpt>
      <trkpt lat="44.38645" lon="5.95606">
        <ele>554</ele>
        <time>2019-03-05T14:16:45Z</time>
      </trkpt>
      <trkpt lat="44.38642" lon="5.95602">
        <ele>554</ele>
        <time>2019-03-05T14:16:46Z</time>
      </trkpt>
      <trkpt lat="44.38639" lon="5.95597">
        <ele>554</ele>
        <time>2019-03-05T14:16:47Z</time>
      </trkpt>
      <trkpt lat="44.38635" lon="5.95593">
        <ele>554</ele>
        <time>2019-03-05T14:16:48Z</time>
      </trkpt>
      <trkpt lat="44.38632" lon="5.95589">
        <ele>554</ele>
        <time>2019-03-05T14:16:49Z</time>
      </trkpt>
      <trkpt lat="44.38629" lon="5.95586">
        <ele>554</ele>
        <time>2019-03-05T14:16:50Z</time>
      </trkpt>
      <trkpt lat="44.38626" lon="5.95582">
        <ele>554</ele>
        <time>2019-03-05T14:16:51Z</time>
      </trkpt>
      <trkpt lat="44.38623" lon="5.95578">
        <ele>554</ele>
        <time>2019-03-05T14:16:52Z</time>
      </trkpt>
      <trkpt lat="44.3862" lon="5.95575">
        <ele>554</ele>
        <time>2019-03-05T14:16:53Z</time>
      </trkpt>
      <trkpt lat="44.38617" lon="5.95571">
        <ele>554</ele>
        <time>2019-03-05T14:16:54Z</time>
      </trkpt>
      <trkpt lat="44.38615" lon="5.95568">
        <ele>554</ele>
        <time>2019-03-05T14:16:55Z</time>
      </trkpt>
      <trkpt lat="44.38612" lon="5.95565">
        <ele>554</ele>
        <time>2019-03-05T14:16:56Z</time>
      </trkpt>
      <trkpt lat="44.38609" lon="5.95561">
        <ele>554</ele>
        <time>2019-03-05T14:16:57Z</time>
      </trkpt>
      <trkpt lat="44.38606" lon="5.95558">
        <ele>554</ele>
        <time>2019-03-05T14:16:58Z</time>
      </trkpt>
      <trkpt lat="44.38602" lon="5.95555">
        <ele>554</ele>
        <time>2019-03-05T14:16:59Z</time>
      </trkpt>
      <trkpt lat="44.38599" lon="5.95552">
        <ele>554</ele>
        <time>2019-03-05T14:17:00Z</time>
      </trkpt>
      <trkpt lat="44.38596" lon="5.95549">
        <ele>554</ele>
        <time>2019-03-05T14:17:01Z</time>
      </trkpt>
      <trkpt lat="44.38593" lon="5.95548">
        <ele>554</ele>
        <time>2019-03-05T14:17:02Z</time>
      </trkpt>
      <trkpt lat="44.38589" lon="5.95547">
        <ele>554</ele>
        <time>2019-03-05T14:17:03Z</time>
      </trkpt>
      <trkpt lat="44.38585" lon="5.95547">
        <ele>554</ele>
        <time>2019-03-05T14:17:04Z</time>
      </trkpt>
      <trkpt lat="44.38581" lon="5.95547">
        <ele>554</ele>
        <time>2019-03-05T14:17:05Z</time>
      </trkpt>
      <trkpt lat="44.38577" lon="5.95547">
        <ele>554</ele>
        <time>2019-03-05T14:17:06Z</time>
      </trkpt>
      <trkpt lat="44.38573" lon="5.95548">
        <ele>554</ele>
        <time>2019-03-05T14:17:07Z</time>
      </trkpt>
      <trkpt lat="44.3857" lon="5.95549">
        <ele>554</ele>
        <time>2019-03-05T14:17:08Z</time>
      </trkpt>
      <trkpt lat="44.38566" lon="5.95551">
        <ele>554</ele>
        <time>2019-03-05T14:17:09Z</time>
      </trkpt>
      <trkpt lat="44.38563" lon="5.95553">
        <ele>554</ele>
        <time>2019-03-05T14:17:10Z</time>
      </trkpt>
      <trkpt lat="44.38559" lon="5.95555">
        <ele>554</ele>
        <time>2019-03-05T14:17:11Z</time>
      </trkpt>
      <trkpt lat="44.38556" lon="5.95558">
        <ele>554</ele>
        <time>2019-03-05T14:17:12Z</time>
      </trkpt>
      <trkpt lat="44.38552" lon="5.9556">
        <ele>554</ele>
        <time>2019-03-05T14:17:13Z</time>
      </trkpt>
      <trkpt lat="44.38549" lon="5.95563">
        <ele>554</ele>
        <time>2019-03-05T14:17:14Z</time>
      </trkpt>
      <trkpt lat="44.38546" lon="5.95565">
        <ele>554</ele>
        <time>2019-03-05T14:17:15Z</time>
      </trkpt>
      <trkpt lat="44.38543" lon="5.95567">
        <ele>554</ele>
        <time>2019-03-05T14:17:16Z</time>
      </trkpt>
      <trkpt lat="44.3854" lon="5.95568">
        <ele>555</ele>
        <time>2019-03-05T14:17:17Z</time>
      </trkpt>
      <trkpt lat="44.38537" lon="5.95569">
        <ele>555</ele>
        <time>2019-03-05T14:17:18Z</time>
      </trkpt>
      <trkpt lat="44.38533" lon="5.95569">
        <ele>555</ele>
        <time>2019-03-05T14:17:19Z</time>
      </trkpt>
      <trkpt lat="44.3853" lon="5.95568">
        <ele>555</ele>
        <time>2019-03-05T14:17:20Z</time>
      </trkpt>
      <trkpt lat="44.38526" lon="5.95566">
        <ele>556</ele>
        <time>2019-03-05T14:17:21Z</time>
      </trkpt>
      <trkpt lat="44.38522" lon="5.95563">
        <ele>556</ele>
        <time>2019-03-05T14:17:22Z</time>
      </trkpt>
      <trkpt lat="44.38519" lon="5.95559">
        <ele>556</ele>
        <time>2019-03-05T14:17:23Z</time>
      </trkpt>
      <trkpt lat="44.38516" lon="5.95553">
        <ele>556</ele>
        <time>2019-03-05T14:17:24Z</time>
      </trkpt>
      <trkpt lat="44.38513" lon="5.95548">
        <ele>556</ele>
        <time>2019-03-05T14:17:25Z</time>
      </trkpt>
      <trkpt lat="44.3851" lon="5.95544">
        <ele>556</ele>
        <time>2019-03-05T14:17:26Z</time>
      </trkpt>
      <trkpt lat="44.38506" lon="5.95541">
        <ele>557</ele>
        <time>2019-03-05T14:17:27Z</time>
      </trkpt>
      <trkpt lat="44.38503" lon="5.95539">
        <ele>558</ele>
        <time>2019-03-05T14:17:28Z</time>
      </trkpt>
      <trkpt lat="44.38499" lon="5.95537">
        <ele>558</ele>
        <time>2019-03-05T14:17:29Z</time>
      </trkpt>
      <trkpt lat="44.38495" lon="5.95537">
        <ele>559</ele>
        <time>2019-03-05T14:17:30Z</time>
      </trkpt>
      <trkpt lat="44.38491" lon="5.95538">
        <ele>559</ele>
        <time>2019-03-05T14:17:31Z</time>
      </trkpt>
      <trkpt lat="44.38488" lon="5.95539">
        <ele>560</ele>
        <time>2019-03-05T14:17:32Z</time>
      </trkpt>
      <trkpt lat="44.38485" lon="5.9554">
        <ele>560</ele>
        <time>2019-03-05T14:17:33Z</time>
      </trkpt>
      <trkpt lat="44.38482" lon="5.95541">
        <ele>561</ele>
        <time>2019-03-05T14:17:34Z</time>
      </trkpt>
      <trkpt lat="44.38479" lon="5.95543">
        <ele>561</ele>
        <time>2019-03-05T14:17:35Z</time>
      </trkpt>
      <trkpt lat="44.38475" lon="5.95544">
        <ele>561</ele>
        <time>2019-03-05T14:17:36Z</time>
      </trkpt>
      <trkpt lat="44.38472" lon="5.95545">
        <ele>562</ele>
        <time>2019-03-05T14:17:37Z</time>
      </trkpt>
      <trkpt lat="44.38469" lon="5.95546">
        <ele>562</ele>
        <time>2019-03-05T14:17:38Z</time>
      </trkpt>
      <trkpt lat="44.38466" lon="5.95547">
        <ele>562</ele>
        <time>2019-03-05T14:17:39Z</time>
      </trkpt>
      <trkpt lat="44.38464" lon="5.95548">
        <ele>562</ele>
        <time>2019-03-05T14:17:40Z</time>
      </trkpt>
      <trkpt lat="44.38461" lon="5.95549">
        <ele>563</ele>
        <time>2019-03-05T14:17:41Z</time>
      </trkpt>
      <trkpt lat="44.38457" lon="5.95549">
        <ele>563</ele>
        <time>2019-03-05T14:17:42Z</time>
      </trkpt>
      <trkpt lat="44.38454" lon="5.9555">
        <ele>563</ele>
        <time>2019-03-05T14:17:43Z</time>
      </trkpt>
      <trkpt lat="44.38452" lon="5.9555">
        <ele>564</ele>
        <time>2019-03-05T14:17:44Z</time>
      </trkpt>
      <trkpt lat="44.38449" lon="5.95549">
        <ele>564</ele>
        <time>2019-03-05T14:17:45Z</time>
      </trkpt>
      <trkpt lat="44.38446" lon="5.95548">
        <ele>565</ele>
        <time>2019-03-05T14:17:46Z</time>
      </trkpt>
      <trkpt lat="44.38444" lon="5.95547">
        <ele>565</ele>
        <time>2019-03-05T14:17:47Z</time>
      </trkpt>
      <trkpt lat="44.38441" lon="5.95546">
        <ele>565</ele>
        <time>2019-03-05T14:17:48Z</time>
      </trkpt>
      <trkpt lat="44.38438" lon="5.95546">
        <ele>566</ele>
        <time>2019-03-05T14:17:49Z</time>
      </trkpt>
      <trkpt lat="44.38436" lon="5.95545">
        <ele>566</ele>
        <time>2019-03-05T14:17:50Z</time>
      </trkpt>
      <trkpt lat="44.38434" lon="5.95544">
        <ele>567</ele>
        <time>2019-03-05T14:17:51Z</time>
      </trkpt>
      <trkpt lat="44.38432" lon="5.95542">
        <ele>568</ele>
        <time>2019-03-05T14:17:52Z</time>
      </trkpt>
      <trkpt lat="44.38429" lon="5.95541">
        <ele>569</ele>
        <time>2019-03-05T14:17:53Z</time>
      </trkpt>
      <trkpt lat="44.38427" lon="5.95541">
        <ele>569</ele>
        <time>2019-03-05T14:17:54Z</time>
      </trkpt>
      <trkpt lat="44.38425" lon="5.9554">
        <ele>570</ele>
        <time>2019-03-05T14:17:55Z</time>
      </trkpt>
      <trkpt lat="44.38423" lon="5.95538">
        <ele>571</ele>
        <time>2019-03-05T14:17:56Z</time>
      </trkpt>
      <trkpt lat="44.38422" lon="5.95537">
        <ele>571</ele>
        <time>2019-03-05T14:17:57Z</time>
      </trkpt>
      <trkpt lat="44.3842" lon="5.95536">
        <ele>571</ele>
        <time>2019-03-05T14:17:58Z</time>
      </trkpt>
      <trkpt lat="44.38419" lon="5.95535">
        <ele>571</ele>
        <time>2019-03-05T14:17:59Z</time>
      </trkpt>
      <trkpt lat="44.38417" lon="5.95534">
        <ele>571</ele>
        <time>2019-03-05T14:18:00Z</time>
      </trkpt>
      <trkpt lat="44.38415" lon="5.95532">
        <ele>571</ele>
        <time>2019-03-05T14:18:01Z</time>
      </trkpt>
      <trkpt lat="44.38413" lon="5.95531">
        <ele>572</ele>
        <time>2019-03-05T14:18:02Z</time>
      </trkpt>
      <trkpt lat="44.38411" lon="5.95529">
        <ele>572</ele>
        <time>2019-03-05T14:18:03Z</time>
      </trkpt>
      <trkpt lat="44.38409" lon="5.95528">
        <ele>572</ele>
        <time>2019-03-05T14:18:04Z</time>
      </trkpt>
      <trkpt lat="44.38407" lon="5.95526">
        <ele>572</ele>
        <time>2019-03-05T14:18:05Z</time>
      </trkpt>
      <trkpt lat="44.38405" lon="5.95525">
        <ele>572</ele>
        <time>2019-03-05T14:18:06Z</time>
      </trkpt>
      <trkpt lat="44.38402" lon="5.95524">
        <ele>573</ele>
        <time>2019-03-05T14:18:07Z</time>
      </trkpt>
      <trkpt lat="44.384" lon="5.95522">
        <ele>573</ele>
        <time>2019-03-05T14:18:08Z</time>
      </trkpt>
      <trkpt lat="44.38398" lon="5.95521">
        <ele>574</ele>
        <time>2019-03-05T14:18:09Z</time>
      </trkpt>
      <trkpt lat="44.38396" lon="5.95519">
        <ele>575</ele>
        <time>2019-03-05T14:18:10Z</time>
      </trkpt>
      <trkpt lat="44.38394" lon="5.95518">
        <ele>576</ele>
        <time>2019-03-05T14:18:11Z</time>
      </trkpt>
      <trkpt lat="44.38392" lon="5.95516">
        <ele>577</ele>
        <time>2019-03-05T14:18:12Z</time>
      </trkpt>
      <trkpt lat="44.3839" lon="5.95515">
        <ele>578</ele>
        <time>2019-03-05T14:18:13Z</time>
      </trkpt>
      <trkpt lat="44.38389" lon="5.95513">
        <ele>578</ele>
        <time>2019-03-05T14:18:14Z</time>
      </trkpt>
      <trkpt lat="44.38387" lon="5.95512">
        <ele>579</ele>
        <time>2019-03-05T14:18:15Z</time>
      </trkpt>
      <trkpt lat="44.38385" lon="5.95511">
        <ele>579</ele>
        <time>2019-03-05T14:18:16Z</time>
      </trkpt>
      <trkpt lat="44.38383" lon="5.95509">
        <ele>580</ele>
        <time>2019-03-05T14:18:17Z</time>
      </trkpt>
      <trkpt lat="44.38381" lon="5.95508">
        <ele>581</ele>
        <time>2019-03-05T14:18:18Z</time>
      </trkpt>
      <trkpt lat="44.38379" lon="5.95506">
        <ele>582</ele>
        <time>2019-03-05T14:18:19Z</time>
      </trkpt>
      <trkpt lat="44.38377" lon="5.95505">
        <ele>582</ele>
        <time>2019-03-05T14:18:20Z</time>
      </trkpt>
      <trkpt lat="44.38375" lon="5.95503">
        <ele>582</ele>
        <time>2019-03-05T14:18:21Z</time>
      </trkpt>
      <trkpt lat="44.38374" lon="5.95501">
        <ele>582</ele>
        <time>2019-03-05T14:18:22Z</time>
      </trkpt>
      <trkpt lat="44.38372" lon="5.955">
        <ele>582</ele>
        <time>2019-03-05T14:18:23Z</time>
      </trkpt>
      <trkpt lat="44.3837" lon="5.95498">
        <ele>582</ele>
        <time>2019-03-05T14:18:24Z</time>
      </trkpt>
      <trkpt lat="44.38368" lon="5.95497">
        <ele>582</ele>
        <time>2019-03-05T14:18:25Z</time>
      </trkpt>
      <trkpt lat="44.38366" lon="5.95496">
        <ele>582</ele>
        <time>2019-03-05T14:18:26Z</time>
      </trkpt>
      <trkpt lat="44.38364" lon="5.95494">
        <ele>582</ele>
        <time>2019-03-05T14:18:27Z</time>
      </trkpt>
      <trkpt lat="44.38362" lon="5.95493">
        <ele>582</ele>
        <time>2019-03-05T14:18:28Z</time>
      </trkpt>
      <trkpt lat="44.3836" lon="5.95492">
        <ele>583</ele>
        <time>2019-03-05T14:18:29Z</time>
      </trkpt>
      <trkpt lat="44.38358" lon="5.9549">
        <ele>583</ele>
        <time>2019-03-05T14:18:30Z</time>
      </trkpt>
      <trkpt lat="44.38356" lon="5.9549">
        <ele>583</ele>
        <time>2019-03-05T14:18:31Z</time>
      </trkpt>
      <trkpt lat="44.38354" lon="5.95489">
        <ele>583</ele>
        <time>2019-03-05T14:18:32Z</time>
      </trkpt>
      <trkpt lat="44.38352" lon="5.95488">
        <ele>583</ele>
        <time>2019-03-05T14:18:33Z</time>
      </trkpt>
      <trkpt lat="44.3835" lon="5.95488">
        <ele>583</ele>
        <time>2019-03-05T14:18:34Z</time>
      </trkpt>
      <trkpt lat="44.38348" lon="5.95487">
        <ele>583</ele>
        <time>2019-03-05T14:18:35Z</time>
      </trkpt>
      <trkpt lat="44.38346" lon="5.95488">
        <ele>583</ele>
        <time>2019-03-05T14:18:36Z</time>
      </trkpt>
      <trkpt lat="44.38344" lon="5.95488">
        <ele>583</ele>
        <time>2019-03-05T14:18:37Z</time>
      </trkpt>
      <trkpt lat="44.38342" lon="5.95488">
        <ele>583</ele>
        <time>2019-03-05T14:18:38Z</time>
      </trkpt>
      <trkpt lat="44.3834" lon="5.95489">
        <ele>583</ele>
        <time>2019-03-05T14:18:39Z</time>
      </trkpt>
      <trkpt lat="44.38338" lon="5.95489">
        <ele>583</ele>
        <time>2019-03-05T14:18:40Z</time>
      </trkpt>
      <trkpt lat="44.38336" lon="5.9549">
        <ele>583</ele>
        <time>2019-03-05T14:18:41Z</time>
      </trkpt>
      <trkpt lat="44.38335" lon="5.95491">
        <ele>583</ele>
        <time>2019-03-05T14:18:42Z</time>
      </trkpt>
      <trkpt lat="44.38333" lon="5.95492">
        <ele>583</ele>
        <time>2019-03-05T14:18:43Z</time>
      </trkpt>
      <trkpt lat="44.38332" lon="5.95493">
        <ele>583</ele>
        <time>2019-03-05T14:18:44Z</time>
      </trkpt>
      <trkpt lat="44.3833" lon="5.95494">
        <ele>583</ele>
        <time>2019-03-05T14:18:45Z</time>
      </trkpt>
      <trkpt lat="44.38328" lon="5.95494">
        <ele>583</ele>
        <time>2019-03-05T14:18:46Z</time>
      </trkpt>
      <trkpt lat="44.38327" lon="5.95495">
        <ele>583</ele>
        <time>2019-03-05T14:18:47Z</time>
      </trkpt>
      <trkpt lat="44.38325" lon="5.95495">
        <ele>583</ele>
        <time>2019-03-05T14:18:48Z</time>
      </trkpt>
      <trkpt lat="44.38323" lon="5.95496">
        <ele>583</ele>
        <time>2019-03-05T14:18:49Z</time>
      </trkpt>
      <trkpt lat="44.38321" lon="5.95497">
        <ele>583</ele>
        <time>2019-03-05T14:18:50Z</time>
      </trkpt>
      <trkpt lat="44.38319" lon="5.95499">
        <ele>583</ele>
        <time>2019-03-05T14:18:51Z</time>
      </trkpt>
      <trkpt lat="44.38317" lon="5.955">
        <ele>583</ele>
        <time>2019-03-05T14:18:52Z</time>
      </trkpt>
      <trkpt lat="44.38316" lon="5.95501">
        <ele>583</ele>
        <time>2019-03-05T14:18:53Z</time>
      </trkpt>
      <trkpt lat="44.38314" lon="5.95502">
        <ele>583</ele>
        <time>2019-03-05T14:18:54Z</time>
      </trkpt>
      <trkpt lat="44.38312" lon="5.95503">
        <ele>583</ele>
        <time>2019-03-05T14:18:55Z</time>
      </trkpt>
      <trkpt lat="44.3831" lon="5.95504">
        <ele>583</ele>
        <time>2019-03-05T14:18:56Z</time>
      </trkpt>
      <trkpt lat="44.38308" lon="5.95505">
        <ele>583</ele>
        <time>2019-03-05T14:18:57Z</time>
      </trkpt>
      <trkpt lat="44.38306" lon="5.95506">
        <ele>583</ele>
        <time>2019-03-05T14:18:58Z</time>
      </trkpt>
      <trkpt lat="44.38304" lon="5.95506">
        <ele>583</ele>
        <time>2019-03-05T14:18:59Z</time>
      </trkpt>
      <trkpt lat="44.38301" lon="5.95507">
        <ele>583</ele>
        <time>2019-03-05T14:19:00Z</time>
      </trkpt>
      <trkpt lat="44.38298" lon="5.95508">
        <ele>583</ele>
        <time>2019-03-05T14:19:01Z</time>
      </trkpt>
      <trkpt lat="44.38296" lon="5.95508">
        <ele>583</ele>
        <time>2019-03-05T14:19:02Z</time>
      </trkpt>
      <trkpt lat="44.38293" lon="5.95509">
        <ele>583</ele>
        <time>2019-03-05T14:19:03Z</time>
      </trkpt>
      <trkpt lat="44.3829" lon="5.95509">
        <ele>583</ele>
        <time>2019-03-05T14:19:04Z</time>
      </trkpt>
      <trkpt lat="44.38287" lon="5.95509">
        <ele>583</ele>
        <time>2019-03-05T14:19:05Z</time>
      </trkpt>
      <trkpt lat="44.38284" lon="5.95509">
        <ele>583</ele>
        <time>2019-03-05T14:19:06Z</time>
      </trkpt>
      <trkpt lat="44.38281" lon="5.95509">
        <ele>583</ele>
        <time>2019-03-05T14:19:07Z</time>
      </trkpt>
      <trkpt lat="44.38279" lon="5.95508">
        <ele>583</ele>
        <time>2019-03-05T14:19:08Z</time>
      </trkpt>
      <trkpt lat="44.38276" lon="5.95507">
        <ele>583</ele>
        <time>2019-03-05T14:19:09Z</time>
      </trkpt>
      <trkpt lat="44.38273" lon="5.95506">
        <ele>583</ele>
        <time>2019-03-05T14:19:10Z</time>
      </trkpt>
      <trkpt lat="44.38271" lon="5.95505">
        <ele>583</ele>
        <time>2019-03-05T14:19:11Z</time>
      </trkpt>
      <trkpt lat="44.38269" lon="5.95504">
        <ele>583</ele>
        <time>2019-03-05T14:19:12Z</time>
      </trkpt>
      <trkpt lat="44.38266" lon="5.95503">
        <ele>583</ele>
        <time>2019-03-05T14:19:13Z</time>
      </trkpt>
      <trkpt lat="44.38263" lon="5.95503">
        <ele>583</ele>
        <time>2019-03-05T14:19:14Z</time>
      </trkpt>
      <trkpt lat="44.38261" lon="5.95501">
        <ele>583</ele>
        <time>2019-03-05T14:19:15Z</time>
      </trkpt>
      <trkpt lat="44.38259" lon="5.95499">
        <ele>583</ele>
        <time>2019-03-05T14:19:16Z</time>
      </trkpt>
      <trkpt lat="44.38256" lon="5.95497">
        <ele>583</ele>
        <time>2019-03-05T14:19:17Z</time>
      </trkpt>
      <trkpt lat="44.38254" lon="5.95494">
        <ele>583</ele>
        <time>2019-03-05T14:19:18Z</time>
      </trkpt>
      <trkpt lat="44.38252" lon="5.95492">
        <ele>583</ele>
        <time>2019-03-05T14:19:19Z</time>
      </trkpt>
      <trkpt lat="44.3825" lon="5.95489">
        <ele>583</ele>
        <time>2019-03-05T14:19:20Z</time>
      </trkpt>
      <trkpt lat="44.38248" lon="5.95486">
        <ele>583</ele>
        <time>2019-03-05T14:19:21Z</time>
      </trkpt>
      <trkpt lat="44.38245" lon="5.95483">
        <ele>583</ele>
        <time>2019-03-05T14:19:22Z</time>
      </trkpt>
      <trkpt lat="44.38243" lon="5.95481">
        <ele>584</ele>
        <time>2019-03-05T14:19:23Z</time>
      </trkpt>
      <trkpt lat="44.38241" lon="5.95478">
        <ele>584</ele>
        <time>2019-03-05T14:19:24Z</time>
      </trkpt>
      <trkpt lat="44.38239" lon="5.95475">
        <ele>584</ele>
        <time>2019-03-05T14:19:25Z</time>
      </trkpt>
      <trkpt lat="44.38237" lon="5.95473">
        <ele>584</ele>
        <time>2019-03-05T14:19:26Z</time>
      </trkpt>
      <trkpt lat="44.38234" lon="5.9547">
        <ele>584</ele>
        <time>2019-03-05T14:19:27Z</time>
      </trkpt>
      <trkpt lat="44.38232" lon="5.95468">
        <ele>584</ele>
        <time>2019-03-05T14:19:28Z</time>
      </trkpt>
      <trkpt lat="44.3823" lon="5.95466">
        <ele>584</ele>
        <time>2019-03-05T14:19:29Z</time>
      </trkpt>
      <trkpt lat="44.38227" lon="5.95464">
        <ele>584</ele>
        <time>2019-03-05T14:19:30Z</time>
      </trkpt>
      <trkpt lat="44.38225" lon="5.95462">
        <ele>584</ele>
        <time>2019-03-05T14:19:31Z</time>
      </trkpt>
      <trkpt lat="44.38223" lon="5.95459">
        <ele>585</ele>
        <time>2019-03-05T14:19:32Z</time>
      </trkpt>
      <trkpt lat="44.38221" lon="5.95457">
        <ele>585</ele>
        <time>2019-03-05T14:19:33Z</time>
      </trkpt>
      <trkpt lat="44.38219" lon="5.95454">
        <ele>585</ele>
        <time>2019-03-05T14:19:34Z</time>
      </trkpt>
      <trkpt lat="44.38216" lon="5.95451">
        <ele>586</ele>
        <time>2019-03-05T14:19:35Z</time>
      </trkpt>
      <trkpt lat="44.38214" lon="5.95449">
        <ele>586</ele>
        <time>2019-03-05T14:19:36Z</time>
      </trkpt>
      <trkpt lat="44.38212" lon="5.95447">
        <ele>586</ele>
        <time>2019-03-05T14:19:37Z</time>
      </trkpt>
      <trkpt lat="44.3821" lon="5.95444">
        <ele>587</ele>
        <time>2019-03-05T14:19:38Z</time>
      </trkpt>
      <trkpt lat="44.38208" lon="5.95442">
        <ele>587</ele>
        <time>2019-03-05T14:19:39Z</time>
      </trkpt>
      <trkpt lat="44.38206" lon="5.95439">
        <ele>587</ele>
        <time>2019-03-05T14:19:40Z</time>
      </trkpt>
      <trkpt lat="44.38203" lon="5.95437">
        <ele>587</ele>
        <time>2019-03-05T14:19:41Z</time>
      </trkpt>
      <trkpt lat="44.38201" lon="5.95434">
        <ele>588</ele>
        <time>2019-03-05T14:19:42Z</time>
      </trkpt>
      <trkpt lat="44.38199" lon="5.95431">
        <ele>588</ele>
        <time>2019-03-05T14:19:43Z</time>
      </trkpt>
      <trkpt lat="44.38197" lon="5.95428">
        <ele>588</ele>
        <time>2019-03-05T14:19:44Z</time>
      </trkpt>
      <trkpt lat="44.38195" lon="5.95425">
        <ele>588</ele>
        <time>2019-03-05T14:19:45Z</time>
      </trkpt>
      <trkpt lat="44.38193" lon="5.95422">
        <ele>588</ele>
        <time>2019-03-05T14:19:46Z</time>
      </trkpt>
      <trkpt lat="44.3819" lon="5.95419">
        <ele>588</ele>
        <time>2019-03-05T14:19:47Z</time>
      </trkpt>
      <trkpt lat="44.38188" lon="5.95417">
        <ele>588</ele>
        <time>2019-03-05T14:19:48Z</time>
      </trkpt>
      <trkpt lat="44.38186" lon="5.95414">
        <ele>588</ele>
        <time>2019-03-05T14:19:49Z</time>
      </trkpt>
      <trkpt lat="44.38183" lon="5.95411">
        <ele>588</ele>
        <time>2019-03-05T14:19:50Z</time>
      </trkpt>
      <trkpt lat="44.38181" lon="5.95408">
        <ele>588</ele>
        <time>2019-03-05T14:19:51Z</time>
      </trkpt>
      <trkpt lat="44.38178" lon="5.95405">
        <ele>588</ele>
        <time>2019-03-05T14:19:52Z</time>
      </trkpt>
      <trkpt lat="44.38175" lon="5.95401">
        <ele>588</ele>
        <time>2019-03-05T14:19:53Z</time>
      </trkpt>
      <trkpt lat="44.38173" lon="5.95398">
        <ele>588</ele>
        <time>2019-03-05T14:19:54Z</time>
      </trkpt>
      <trkpt lat="44.38169" lon="5.95395">
        <ele>588</ele>
        <time>2019-03-05T14:19:55Z</time>
      </trkpt>
      <trkpt lat="44.38166" lon="5.95392">
        <ele>588</ele>
        <time>2019-03-05T14:19:56Z</time>
      </trkpt>
      <trkpt lat="44.38163" lon="5.95388">
        <ele>588</ele>
        <time>2019-03-05T14:19:57Z</time>
      </trkpt>
      <trkpt lat="44.3816" lon="5.95384">
        <ele>588</ele>
        <time>2019-03-05T14:19:58Z</time>
      </trkpt>
      <trkpt lat="44.38157" lon="5.9538">
        <ele>588</ele>
        <time>2019-03-05T14:19:59Z</time>
      </trkpt>
      <trkpt lat="44.38153" lon="5.95376">
        <ele>588</ele>
        <time>2019-03-05T14:20:00Z</time>
      </trkpt>
      <trkpt lat="44.3815" lon="5.95373">
        <ele>588</ele>
        <time>2019-03-05T14:20:01Z</time>
      </trkpt>
      <trkpt lat="44.38146" lon="5.9537">
        <ele>588</ele>
        <time>2019-03-05T14:20:02Z</time>
      </trkpt>
      <trkpt lat="44.38142" lon="5.95366">
        <ele>588</ele>
        <time>2019-03-05T14:20:03Z</time>
      </trkpt>
      <trkpt lat="44.38138" lon="5.95363">
        <ele>588</ele>
        <time>2019-03-05T14:20:04Z</time>
      </trkpt>
      <trkpt lat="44.38134" lon="5.9536">
        <ele>588</ele>
        <time>2019-03-05T14:20:05Z</time>
      </trkpt>
      <trkpt lat="44.38129" lon="5.95357">
        <ele>588</ele>
        <time>2019-03-05T14:20:06Z</time>
      </trkpt>
      <trkpt lat="44.38124" lon="5.95354">
        <ele>588</ele>
        <time>2019-03-05T14:20:07Z</time>
      </trkpt>
      <trkpt lat="44.38119" lon="5.95351">
        <ele>588</ele>
        <time>2019-03-05T14:20:08Z</time>
      </trkpt>
      <trkpt lat="44.38114" lon="5.95347">
        <ele>588</ele>
        <time>2019-03-05T14:20:09Z</time>
      </trkpt>
      <trkpt lat="44.38108" lon="5.95344">
        <ele>588</ele>
        <time>2019-03-05T14:20:10Z</time>
      </trkpt>
      <trkpt lat="44.38103" lon="5.95341">
        <ele>588</ele>
        <time>2019-03-05T14:20:11Z</time>
      </trkpt>
      <trkpt lat="44.38097" lon="5.95338">
        <ele>588</ele>
        <time>2019-03-05T14:20:12Z</time>
      </trkpt>
      <trkpt lat="44.38092" lon="5.95336">
        <ele>588</ele>
        <time>2019-03-05T14:20:13Z</time>
      </trkpt>
      <trkpt lat="44.38086" lon="5.95334">
        <ele>588</ele>
        <time>2019-03-05T14:20:14Z</time>
      </trkpt>
      <trkpt lat="44.38079" lon="5.95332">
        <ele>588</ele>
        <time>2019-03-05T14:20:15Z</time>
      </trkpt>
      <trkpt lat="44.38073" lon="5.95331">
        <ele>588</ele>
        <time>2019-03-05T14:20:16Z</time>
      </trkpt>
      <trkpt lat="44.38066" lon="5.95329">
        <ele>588</ele>
        <time>2019-03-05T14:20:17Z</time>
      </trkpt>
      <trkpt lat="44.38059" lon="5.95328">
        <ele>588</ele>
        <time>2019-03-05T14:20:18Z</time>
      </trkpt>
      <trkpt lat="44.38052" lon="5.95326">
        <ele>588</ele>
        <time>2019-03-05T14:20:19Z</time>
      </trkpt>
      <trkpt lat="44.38045" lon="5.95324">
        <ele>588</ele>
        <time>2019-03-05T14:20:20Z</time>
      </trkpt>
      <trkpt lat="44.38038" lon="5.95323">
        <ele>588</ele>
        <time>2019-03-05T14:20:21Z</time>
      </trkpt>
      <trkpt lat="44.3803" lon="5.95323">
        <ele>588</ele>
        <time>2019-03-05T14:20:22Z</time>
      </trkpt>
      <trkpt lat="44.38022" lon="5.95322">
        <ele>588</ele>
        <time>2019-03-05T14:20:23Z</time>
      </trkpt>
      <trkpt lat="44.38014" lon="5.95322">
        <ele>588</ele>
        <time>2019-03-05T14:20:24Z</time>
      </trkpt>
      <trkpt lat="44.38005" lon="5.95323">
        <ele>588</ele>
        <time>2019-03-05T14:20:25Z</time>
      </trkpt>
      <trkpt lat="44.37997" lon="5.95324">
        <ele>588</ele>
        <time>2019-03-05T14:20:26Z</time>
      </trkpt>
      <trkpt lat="44.37989" lon="5.95325">
        <ele>588</ele>
        <time>2019-03-05T14:20:27Z</time>
      </trkpt>
      <trkpt lat="44.3798" lon="5.95327">
        <ele>587</ele>
        <time>2019-03-05T14:20:28Z</time>
      </trkpt>
      <trkpt lat="44.37971" lon="5.95328">
        <ele>587</ele>
        <time>2019-03-05T14:20:29Z</time>
      </trkpt>
      <trkpt lat="44.37963" lon="5.9533">
        <ele>587</ele>
        <time>2019-03-05T14:20:30Z</time>
      </trkpt>
      <trkpt lat="44.37955" lon="5.95332">
        <ele>586</ele>
        <time>2019-03-05T14:20:31Z</time>
      </trkpt>
      <trkpt lat="44.37946" lon="5.95335">
        <ele>586</ele>
        <time>2019-03-05T14:20:32Z</time>
      </trkpt>
      <trkpt lat="44.37938" lon="5.95337">
        <ele>586</ele>
        <time>2019-03-05T14:20:33Z</time>
      </trkpt>
      <trkpt lat="44.3793" lon="5.9534">
        <ele>586</ele>
        <time>2019-03-05T14:20:34Z</time>
      </trkpt>
      <trkpt lat="44.37922" lon="5.95342">
        <ele>586</ele>
        <time>2019-03-05T14:20:35Z</time>
      </trkpt>
      <trkpt lat="44.37914" lon="5.95343">
        <ele>586</ele>
        <time>2019-03-05T14:20:36Z</time>
      </trkpt>
      <trkpt lat="44.37906" lon="5.95345">
        <ele>586</ele>
        <time>2019-03-05T14:20:37Z</time>
      </trkpt>
      <trkpt lat="44.37899" lon="5.95347">
        <ele>586</ele>
        <time>2019-03-05T14:20:38Z</time>
      </trkpt>
      <trkpt lat="44.37891" lon="5.95348">
        <ele>586</ele>
        <time>2019-03-05T14:20:39Z</time>
      </trkpt>
      <trkpt lat="44.37883" lon="5.9535">
        <ele>586</ele>
        <time>2019-03-05T14:20:40Z</time>
      </trkpt>
      <trkpt lat="44.37876" lon="5.95352">
        <ele>586</ele>
        <time>2019-03-05T14:20:41Z</time>
      </trkpt>
      <trkpt lat="44.37868" lon="5.95355">
        <ele>586</ele>
        <time>2019-03-05T14:20:42Z</time>
      </trkpt>
      <trkpt lat="44.37861" lon="5.95356">
        <ele>585</ele>
        <time>2019-03-05T14:20:43Z</time>
      </trkpt>
      <trkpt lat="44.37853" lon="5.95357">
        <ele>585</ele>
        <time>2019-03-05T14:20:44Z</time>
      </trkpt>
      <trkpt lat="44.37845" lon="5.95358">
        <ele>585</ele>
        <time>2019-03-05T14:20:45Z</time>
      </trkpt>
      <trkpt lat="44.37838" lon="5.95356">
        <ele>585</ele>
        <time>2019-03-05T14:20:46Z</time>
      </trkpt>
      <trkpt lat="44.3783" lon="5.95353">
        <ele>585</ele>
        <time>2019-03-05T14:20:47Z</time>
      </trkpt>
      <trkpt lat="44.37823" lon="5.95348">
        <ele>585</ele>
        <time>2019-03-05T14:20:48Z</time>
      </trkpt>
      <trkpt lat="44.37816" lon="5.95344">
        <ele>585</ele>
        <time>2019-03-05T14:20:50Z</time>
      </trkpt>
      <trkpt lat="44.3781" lon="5.95338">
        <ele>585</ele>
        <time>2019-03-05T14:20:50Z</time>
      </trkpt>
      <trkpt lat="44.37803" lon="5.95333">
        <ele>585</ele>
        <time>2019-03-05T14:20:51Z</time>
      </trkpt>
      <trkpt lat="44.37796" lon="5.95328">
        <ele>585</ele>
        <time>2019-03-05T14:20:52Z</time>
      </trkpt>
      <trkpt lat="44.3779" lon="5.95323">
        <ele>584</ele>
        <time>2019-03-05T14:20:53Z</time>
      </trkpt>
      <trkpt lat="44.37784" lon="5.95318">
        <ele>584</ele>
        <time>2019-03-05T14:20:54Z</time>
      </trkpt>
      <trkpt lat="44.37778" lon="5.95313">
        <ele>584</ele>
        <time>2019-03-05T14:20:55Z</time>
      </trkpt>
      <trkpt lat="44.37772" lon="5.95308">
        <ele>584</ele>
        <time>2019-03-05T14:20:56Z</time>
      </trkpt>
      <trkpt lat="44.37766" lon="5.95303">
        <ele>584</ele>
        <time>2019-03-05T14:20:57Z</time>
      </trkpt>
      <trkpt lat="44.3776" lon="5.95299">
        <ele>584</ele>
        <time>2019-03-05T14:20:58Z</time>
      </trkpt>
      <trkpt lat="44.37754" lon="5.95295">
        <ele>584</ele>
        <time>2019-03-05T14:20:59Z</time>
      </trkpt>
      <trkpt lat="44.37747" lon="5.95292">
        <ele>584</ele>
        <time>2019-03-05T14:21:00Z</time>
      </trkpt>
      <trkpt lat="44.37741" lon="5.95289">
        <ele>584</ele>
        <time>2019-03-05T14:21:01Z</time>
      </trkpt>
      <trkpt lat="44.37735" lon="5.95286">
        <ele>584</ele>
        <time>2019-03-05T14:21:02Z</time>
      </trkpt>
      <trkpt lat="44.37729" lon="5.95283">
        <ele>583</ele>
        <time>2019-03-05T14:21:03Z</time>
      </trkpt>
      <trkpt lat="44.37722" lon="5.9528">
        <ele>583</ele>
        <time>2019-03-05T14:21:04Z</time>
      </trkpt>
      <trkpt lat="44.37716" lon="5.95276">
        <ele>583</ele>
        <time>2019-03-05T14:21:05Z</time>
      </trkpt>
      <trkpt lat="44.3771" lon="5.95273">
        <ele>583</ele>
        <time>2019-03-05T14:21:06Z</time>
      </trkpt>
      <trkpt lat="44.37704" lon="5.95269">
        <ele>583</ele>
        <time>2019-03-05T14:21:07Z</time>
      </trkpt>
      <trkpt lat="44.37699" lon="5.95264">
        <ele>583</ele>
        <time>2019-03-05T14:21:08Z</time>
      </trkpt>
      <trkpt lat="44.37694" lon="5.9526">
        <ele>583</ele>
        <time>2019-03-05T14:21:09Z</time>
      </trkpt>
      <trkpt lat="44.37689" lon="5.95255">
        <ele>583</ele>
        <time>2019-03-05T14:21:10Z</time>
      </trkpt>
      <trkpt lat="44.37684" lon="5.9525">
        <ele>583</ele>
        <time>2019-03-05T14:21:11Z</time>
      </trkpt>
      <trkpt lat="44.3768" lon="5.95245">
        <ele>583</ele>
        <time>2019-03-05T14:21:12Z</time>
      </trkpt>
      <trkpt lat="44.37675" lon="5.9524">
        <ele>583</ele>
        <time>2019-03-05T14:21:13Z</time>
      </trkpt>
      <trkpt lat="44.37672" lon="5.95235">
        <ele>583</ele>
        <time>2019-03-05T14:21:14Z</time>
      </trkpt>
      <trkpt lat="44.37669" lon="5.9523">
        <ele>583</ele>
        <time>2019-03-05T14:21:15Z</time>
      </trkpt>
      <trkpt lat="44.37665" lon="5.95225">
        <ele>582</ele>
        <time>2019-03-05T14:21:16Z</time>
      </trkpt>
      <trkpt lat="44.37662" lon="5.95221">
        <ele>582</ele>
        <time>2019-03-05T14:21:17Z</time>
      </trkpt>
      <trkpt lat="44.37659" lon="5.95216">
        <ele>582</ele>
        <time>2019-03-05T14:21:18Z</time>
      </trkpt>
      <trkpt lat="44.37656" lon="5.95212">
        <ele>582</ele>
        <time>2019-03-05T14:21:19Z</time>
      </trkpt>
      <trkpt lat="44.37653" lon="5.95209">
        <ele>582</ele>
        <time>2019-03-05T14:21:20Z</time>
      </trkpt>
      <trkpt lat="44.37649" lon="5.95205">
        <ele>582</ele>
        <time>2019-03-05T14:21:21Z</time>
      </trkpt>
      <trkpt lat="44.37646" lon="5.95201">
        <ele>582</ele>
        <time>2019-03-05T14:21:22Z</time>
      </trkpt>
      <trkpt lat="44.37643" lon="5.95198">
        <ele>582</ele>
        <time>2019-03-05T14:21:23Z</time>
      </trkpt>
      <trkpt lat="44.3764" lon="5.95195">
        <ele>582</ele>
        <time>2019-03-05T14:21:24Z</time>
      </trkpt>
      <trkpt lat="44.37636" lon="5.95191">
        <ele>582</ele>
        <time>2019-03-05T14:21:25Z</time>
      </trkpt>
      <trkpt lat="44.37633" lon="5.95188">
        <ele>582</ele>
        <time>2019-03-05T14:21:26Z</time>
      </trkpt>
      <trkpt lat="44.3763" lon="5.95185">
        <ele>582</ele>
        <time>2019-03-05T14:21:27Z</time>
      </trkpt>
      <trkpt lat="44.37627" lon="5.95183">
        <ele>582</ele>
        <time>2019-03-05T14:21:28Z</time>
      </trkpt>
      <trkpt lat="44.37624" lon="5.9518">
        <ele>582</ele>
        <time>2019-03-05T14:21:29Z</time>
      </trkpt>
      <trkpt lat="44.3762" lon="5.95178">
        <ele>582</ele>
        <time>2019-03-05T14:21:30Z</time>
      </trkpt>
      <trkpt lat="44.37616" lon="5.95177">
        <ele>582</ele>
        <time>2019-03-05T14:21:31Z</time>
      </trkpt>
      <trkpt lat="44.37612" lon="5.95175">
        <ele>582</ele>
        <time>2019-03-05T14:21:32Z</time>
      </trkpt>
      <trkpt lat="44.37608" lon="5.95173">
        <ele>582</ele>
        <time>2019-03-05T14:21:33Z</time>
      </trkpt>
      <trkpt lat="44.37603" lon="5.95171">
        <ele>582</ele>
        <time>2019-03-05T14:21:34Z</time>
      </trkpt>
      <trkpt lat="44.37599" lon="5.95169">
        <ele>582</ele>
        <time>2019-03-05T14:21:35Z</time>
      </trkpt>
      <trkpt lat="44.37595" lon="5.95167">
        <ele>582</ele>
        <time>2019-03-05T14:21:36Z</time>
      </trkpt>
      <trkpt lat="44.37592" lon="5.95165">
        <ele>582</ele>
        <time>2019-03-05T14:21:37Z</time>
      </trkpt>
      <trkpt lat="44.37588" lon="5.95164">
        <ele>581</ele>
        <time>2019-03-05T14:21:38Z</time>
      </trkpt>
      <trkpt lat="44.37585" lon="5.95162">
        <ele>581</ele>
        <time>2019-03-05T14:21:39Z</time>
      </trkpt>
      <trkpt lat="44.37581" lon="5.95161">
        <ele>581</ele>
        <time>2019-03-05T14:21:40Z</time>
      </trkpt>
      <trkpt lat="44.37578" lon="5.95159">
        <ele>581</ele>
        <time>2019-03-05T14:21:41Z</time>
      </trkpt>
      <trkpt lat="44.37576" lon="5.95154">
        <ele>580</ele>
        <time>2019-03-05T14:21:42Z</time>
      </trkpt>
      <trkpt lat="44.37575" lon="5.9515">
        <ele>580</ele>
        <time>2019-03-05T14:21:43Z</time>
      </trkpt>
      <trkpt lat="44.37576" lon="5.95145">
        <ele>580</ele>
        <time>2019-03-05T14:21:44Z</time>
      </trkpt>
      <trkpt lat="44.37579" lon="5.95142">
        <ele>580</ele>
        <time>2019-03-05T14:21:45Z</time>
      </trkpt>
      <trkpt lat="44.37582" lon="5.95139">
        <ele>579</ele>
        <time>2019-03-05T14:21:46Z</time>
      </trkpt>
      <trkpt lat="44.37587" lon="5.95137">
        <ele>579</ele>
        <time>2019-03-05T14:21:47Z</time>
      </trkpt>
      <trkpt lat="44.37591" lon="5.95135">
        <ele>579</ele>
        <time>2019-03-05T14:21:48Z</time>
      </trkpt>
      <trkpt lat="44.37596" lon="5.95133">
        <ele>579</ele>
        <time>2019-03-05T14:21:49Z</time>
      </trkpt>
      <trkpt lat="44.37601" lon="5.95131">
        <ele>579</ele>
        <time>2019-03-05T14:21:50Z</time>
      </trkpt>
      <trkpt lat="44.37606" lon="5.95129">
        <ele>579</ele>
        <time>2019-03-05T14:21:51Z</time>
      </trkpt>
      <trkpt lat="44.37611" lon="5.95126">
        <ele>579</ele>
        <time>2019-03-05T14:21:52Z</time>
      </trkpt>
      <trkpt lat="44.37616" lon="5.95124">
        <ele>579</ele>
        <time>2019-03-05T14:21:53Z</time>
      </trkpt>
      <trkpt lat="44.37621" lon="5.95122">
        <ele>579</ele>
        <time>2019-03-05T14:21:54Z</time>
      </trkpt>
      <trkpt lat="44.37627" lon="5.95119">
        <ele>579</ele>
        <time>2019-03-05T14:21:55Z</time>
      </trkpt>
      <trkpt lat="44.37632" lon="5.95117">
        <ele>579</ele>
        <time>2019-03-05T14:21:56Z</time>
      </trkpt>
      <trkpt lat="44.37637" lon="5.95114">
        <ele>579</ele>
        <time>2019-03-05T14:21:57Z</time>
      </trkpt>
      <trkpt lat="44.37642" lon="5.95111">
        <ele>578</ele>
        <time>2019-03-05T14:21:58Z</time>
      </trkpt>
      <trkpt lat="44.37647" lon="5.95109">
        <ele>578</ele>
        <time>2019-03-05T14:21:59Z</time>
      </trkpt>
      <trkpt lat="44.37653" lon="5.95107">
        <ele>578</ele>
        <time>2019-03-05T14:22:00Z</time>
      </trkpt>
      <trkpt lat="44.37659" lon="5.95105">
        <ele>578</ele>
        <time>2019-03-05T14:22:01Z</time>
      </trkpt>
      <trkpt lat="44.37666" lon="5.95103">
        <ele>577</ele>
        <time>2019-03-05T14:22:02Z</time>
      </trkpt>
      <trkpt lat="44.37672" lon="5.95099">
        <ele>577</ele>
        <time>2019-03-05T14:22:03Z</time>
      </trkpt>
      <trkpt lat="44.37678" lon="5.95096">
        <ele>577</ele>
        <time>2019-03-05T14:22:04Z</time>
      </trkpt>
      <trkpt lat="44.37684" lon="5.95093">
        <ele>577</ele>
        <time>2019-03-05T14:22:05Z</time>
      </trkpt>
      <trkpt lat="44.37691" lon="5.9509">
        <ele>577</ele>
        <time>2019-03-05T14:22:06Z</time>
      </trkpt>
      <trkpt lat="44.37698" lon="5.95087">
        <ele>576</ele>
        <time>2019-03-05T14:22:07Z</time>
      </trkpt>
      <trkpt lat="44.37705" lon="5.95085">
        <ele>576</ele>
        <time>2019-03-05T14:22:08Z</time>
      </trkpt>
      <trkpt lat="44.37712" lon="5.95082">
        <ele>576</ele>
        <time>2019-03-05T14:22:09Z</time>
      </trkpt>
      <trkpt lat="44.37719" lon="5.95079">
        <ele>575</ele>
        <time>2019-03-05T14:22:10Z</time>
      </trkpt>
      <trkpt lat="44.37725" lon="5.95076">
        <ele>575</ele>
        <time>2019-03-05T14:22:11Z</time>
      </trkpt>
      <trkpt lat="44.37732" lon="5.95073">
        <ele>574</ele>
        <time>2019-03-05T14:22:12Z</time>
      </trkpt>
      <trkpt lat="44.3774" lon="5.9507">
        <ele>574</ele>
        <time>2019-03-05T14:22:13Z</time>
      </trkpt>
      <trkpt lat="44.37747" lon="5.95066">
        <ele>573</ele>
        <time>2019-03-05T14:22:14Z</time>
      </trkpt>
      <trkpt lat="44.37754" lon="5.95063">
        <ele>573</ele>
        <time>2019-03-05T14:22:15Z</time>
      </trkpt>
      <trkpt lat="44.37761" lon="5.9506">
        <ele>572</ele>
        <time>2019-03-05T14:22:16Z</time>
      </trkpt>
      <trkpt lat="44.37768" lon="5.95056">
        <ele>572</ele>
        <time>2019-03-05T14:22:17Z</time>
      </trkpt>
      <trkpt lat="44.37775" lon="5.95053">
        <ele>572</ele>
        <time>2019-03-05T14:22:18Z</time>
      </trkpt>
      <trkpt lat="44.37782" lon="5.95049">
        <ele>571</ele>
        <time>2019-03-05T14:22:19Z</time>
      </trkpt>
      <trkpt lat="44.37789" lon="5.95045">
        <ele>571</ele>
        <time>2019-03-05T14:22:20Z</time>
      </trkpt>
      <trkpt lat="44.37796" lon="5.9504">
        <ele>570</ele>
        <time>2019-03-05T14:22:21Z</time>
      </trkpt>
      <trkpt lat="44.37801" lon="5.95034">
        <ele>570</ele>
        <time>2019-03-05T14:22:22Z</time>
      </trkpt>
      <trkpt lat="44.37806" lon="5.95025">
        <ele>570</ele>
        <time>2019-03-05T14:22:23Z</time>
      </trkpt>
      <trkpt lat="44.3781" lon="5.95015">
        <ele>570</ele>
        <time>2019-03-05T14:22:24Z</time>
      </trkpt>
      <trkpt lat="44.37812" lon="5.95005">
        <ele>570</ele>
        <time>2019-03-05T14:22:25Z</time>
      </trkpt>
      <trkpt lat="44.37814" lon="5.94994">
        <ele>569</ele>
        <time>2019-03-05T14:22:26Z</time>
      </trkpt>
      <trkpt lat="44.37817" lon="5.94983">
        <ele>569</ele>
        <time>2019-03-05T14:22:27Z</time>
      </trkpt>
      <trkpt lat="44.37818" lon="5.94971">
        <ele>569</ele>
        <time>2019-03-05T14:22:28Z</time>
      </trkpt>
      <trkpt lat="44.3782" lon="5.9496">
        <ele>568</ele>
        <time>2019-03-05T14:22:29Z</time>
      </trkpt>
      <trkpt lat="44.37822" lon="5.94948">
        <ele>567</ele>
        <time>2019-03-05T14:22:30Z</time>
      </trkpt>
      <trkpt lat="44.37823" lon="5.94937">
        <ele>567</ele>
        <time>2019-03-05T14:22:31Z</time>
      </trkpt>
      <trkpt lat="44.37825" lon="5.94925">
        <ele>566</ele>
        <time>2019-03-05T14:22:32Z</time>
      </trkpt>
      <trkpt lat="44.37827" lon="5.94913">
        <ele>565</ele>
        <time>2019-03-05T14:22:33Z</time>
      </trkpt>
      <trkpt lat="44.37829" lon="5.94901">
        <ele>564</ele>
        <time>2019-03-05T14:22:34Z</time>
      </trkpt>
      <trkpt lat="44.37831" lon="5.94889">
        <ele>564</ele>
        <time>2019-03-05T14:22:35Z</time>
      </trkpt>
      <trkpt lat="44.37833" lon="5.94877">
        <ele>563</ele>
        <time>2019-03-05T14:22:36Z</time>
      </trkpt>
      <trkpt lat="44.37835" lon="5.94864">
        <ele>562</ele>
        <time>2019-03-05T14:22:37Z</time>
      </trkpt>
      <trkpt lat="44.37835" lon="5.94852">
        <ele>561</ele>
        <time>2019-03-05T14:22:38Z</time>
      </trkpt>
      <trkpt lat="44.37836" lon="5.9484">
        <ele>560</ele>
        <time>2019-03-05T14:22:39Z</time>
      </trkpt>
      <trkpt lat="44.37837" lon="5.94829">
        <ele>559</ele>
        <time>2019-03-05T14:22:40Z</time>
      </trkpt>
      <trkpt lat="44.37839" lon="5.94818">
        <ele>558</ele>
        <time>2019-03-05T14:22:41Z</time>
      </trkpt>
      <trkpt lat="44.37841" lon="5.94807">
        <ele>558</ele>
        <time>2019-03-05T14:22:42Z</time>
      </trkpt>
      <trkpt lat="44.37845" lon="5.94797">
        <ele>557</ele>
        <time>2019-03-05T14:22:43Z</time>
      </trkpt>
      <trkpt lat="44.37851" lon="5.94788">
        <ele>556</ele>
        <time>2019-03-05T14:22:44Z</time>
      </trkpt>
      <trkpt lat="44.37858" lon="5.94781">
        <ele>556</ele>
        <time>2019-03-05T14:22:45Z</time>
      </trkpt>
      <trkpt lat="44.37866" lon="5.94775">
        <ele>556</ele>
        <time>2019-03-05T14:22:46Z</time>
      </trkpt>
      <trkpt lat="44.37874" lon="5.94769">
        <ele>555</ele>
        <time>2019-03-05T14:22:47Z</time>
      </trkpt>
      <trkpt lat="44.37881" lon="5.94762">
        <ele>555</ele>
        <time>2019-03-05T14:22:48Z</time>
      </trkpt>
      <trkpt lat="44.37889" lon="5.94754">
        <ele>554</ele>
        <time>2019-03-05T14:22:49Z</time>
      </trkpt>
      <trkpt lat="44.37895" lon="5.94745">
        <ele>554</ele>
        <time>2019-03-05T14:22:50Z</time>
      </trkpt>
      <trkpt lat="44.379" lon="5.94734">
        <ele>553</ele>
        <time>2019-03-05T14:22:51Z</time>
      </trkpt>
      <trkpt lat="44.37906" lon="5.94723">
        <ele>553</ele>
        <time>2019-03-05T14:22:52Z</time>
      </trkpt>
      <trkpt lat="44.37912" lon="5.94712">
        <ele>552</ele>
        <time>2019-03-05T14:22:53Z</time>
      </trkpt>
      <trkpt lat="44.37918" lon="5.94702">
        <ele>552</ele>
        <time>2019-03-05T14:22:54Z</time>
      </trkpt>
      <trkpt lat="44.37925" lon="5.94694">
        <ele>552</ele>
        <time>2019-03-05T14:22:55Z</time>
      </trkpt>
      <trkpt lat="44.37933" lon="5.94687">
        <ele>551</ele>
        <time>2019-03-05T14:22:56Z</time>
      </trkpt>
      <trkpt lat="44.37941" lon="5.94681">
        <ele>551</ele>
        <time>2019-03-05T14:22:57Z</time>
      </trkpt>
      <trkpt lat="44.37949" lon="5.94675">
        <ele>551</ele>
        <time>2019-03-05T14:22:58Z</time>
      </trkpt>
      <trkpt lat="44.37958" lon="5.94671">
        <ele>550</ele>
        <time>2019-03-05T14:22:59Z</time>
      </trkpt>
      <trkpt lat="44.37967" lon="5.94668">
        <ele>550</ele>
        <time>2019-03-05T14:23:00Z</time>
      </trkpt>
      <trkpt lat="44.37976" lon="5.94666">
        <ele>550</ele>
        <time>2019-03-05T14:23:01Z</time>
      </trkpt>
      <trkpt lat="44.37984" lon="5.94664">
        <ele>549</ele>
        <time>2019-03-05T14:23:02Z</time>
      </trkpt>
      <trkpt lat="44.37992" lon="5.94662">
        <ele>549</ele>
        <time>2019-03-05T14:23:03Z</time>
      </trkpt>
      <trkpt lat="44.38" lon="5.94658">
        <ele>549</ele>
        <time>2019-03-05T14:23:04Z</time>
      </trkpt>
      <trkpt lat="44.38007" lon="5.94652">
        <ele>549</ele>
        <time>2019-03-05T14:23:05Z</time>
      </trkpt>
      <trkpt lat="44.38013" lon="5.94645">
        <ele>549</ele>
        <time>2019-03-05T14:23:06Z</time>
      </trkpt>
      <trkpt lat="44.38018" lon="5.94636">
        <ele>548</ele>
        <time>2019-03-05T14:23:07Z</time>
      </trkpt>
      <trkpt lat="44.38023" lon="5.94627">
        <ele>548</ele>
        <time>2019-03-05T14:23:08Z</time>
      </trkpt>
      <trkpt lat="44.38026" lon="5.94617">
        <ele>548</ele>
        <time>2019-03-05T14:23:09Z</time>
      </trkpt>
      <trkpt lat="44.38028" lon="5.94607">
        <ele>548</ele>
        <time>2019-03-05T14:23:10Z</time>
      </trkpt>
      <trkpt lat="44.38031" lon="5.94597">
        <ele>548</ele>
        <time>2019-03-05T14:23:11Z</time>
      </trkpt>
      <trkpt lat="44.38034" lon="5.94587">
        <ele>548</ele>
        <time>2019-03-05T14:23:12Z</time>
      </trkpt>
      <trkpt lat="44.38036" lon="5.94578">
        <ele>548</ele>
        <time>2019-03-05T14:23:13Z</time>
      </trkpt>
      <trkpt lat="44.38039" lon="5.94568">
        <ele>548</ele>
        <time>2019-03-05T14:23:14Z</time>
      </trkpt>
      <trkpt lat="44.38041" lon="5.94559">
        <ele>548</ele>
        <time>2019-03-05T14:23:15Z</time>
      </trkpt>
      <trkpt lat="44.38043" lon="5.94551">
        <ele>548</ele>
        <time>2019-03-05T14:23:16Z</time>
      </trkpt>
      <trkpt lat="44.38046" lon="5.94542">
        <ele>548</ele>
        <time>2019-03-05T14:23:17Z</time>
      </trkpt>
      <trkpt lat="44.38048" lon="5.94534">
        <ele>548</ele>
        <time>2019-03-05T14:23:18Z</time>
      </trkpt>
      <trkpt lat="44.3805" lon="5.94525">
        <ele>548</ele>
        <time>2019-03-05T14:23:19Z</time>
      </trkpt>
      <trkpt lat="44.38053" lon="5.94517">
        <ele>548</ele>
        <time>2019-03-05T14:23:20Z</time>
      </trkpt>
      <trkpt lat="44.38055" lon="5.94509">
        <ele>548</ele>
        <time>2019-03-05T14:23:21Z</time>
      </trkpt>
      <trkpt lat="44.38057" lon="5.945">
        <ele>548</ele>
        <time>2019-03-05T14:23:22Z</time>
      </trkpt>
      <trkpt lat="44.3806" lon="5.94492">
        <ele>548</ele>
        <time>2019-03-05T14:23:23Z</time>
      </trkpt>
      <trkpt lat="44.38062" lon="5.94484">
        <ele>548</ele>
        <time>2019-03-05T14:23:24Z</time>
      </trkpt>
      <trkpt lat="44.38065" lon="5.94476">
        <ele>548</ele>
        <time>2019-03-05T14:23:25Z</time>
      </trkpt>
      <trkpt lat="44.38067" lon="5.94468">
        <ele>548</ele>
        <time>2019-03-05T14:23:26Z</time>
      </trkpt>
      <trkpt lat="44.3807" lon="5.94461">
        <ele>548</ele>
        <time>2019-03-05T14:23:27Z</time>
      </trkpt>
      <trkpt lat="44.38073" lon="5.94453">
        <ele>548</ele>
        <time>2019-03-05T14:23:28Z</time>
      </trkpt>
      <trkpt lat="44.38076" lon="5.94446">
        <ele>548</ele>
        <time>2019-03-05T14:23:29Z</time>
      </trkpt>
      <trkpt lat="44.38081" lon="5.94439">
        <ele>548</ele>
        <time>2019-03-05T14:23:30Z</time>
      </trkpt>
      <trkpt lat="44.38086" lon="5.94433">
        <ele>548</ele>
        <time>2019-03-05T14:23:31Z</time>
      </trkpt>
      <trkpt lat="44.38092" lon="5.94428">
        <ele>548</ele>
        <time>2019-03-05T14:23:32Z</time>
      </trkpt>
      <trkpt lat="44.38099" lon="5.94425">
        <ele>548</ele>
        <time>2019-03-05T14:23:33Z</time>
      </trkpt>
      <trkpt lat="44.38105" lon="5.94422">
        <ele>548</ele>
        <time>2019-03-05T14:23:34Z</time>
      </trkpt>
      <trkpt lat="44.38113" lon="5.94419">
        <ele>548</ele>
        <time>2019-03-05T14:23:35Z</time>
      </trkpt>
      <trkpt lat="44.3812" lon="5.94416">
        <ele>548</ele>
        <time>2019-03-05T14:23:36Z</time>
      </trkpt>
      <trkpt lat="44.38127" lon="5.94413">
        <ele>548</ele>
        <time>2019-03-05T14:23:37Z</time>
      </trkpt>
      <trkpt lat="44.38134" lon="5.94409">
        <ele>548</ele>
        <time>2019-03-05T14:23:38Z</time>
      </trkpt>
      <trkpt lat="44.38141" lon="5.94405">
        <ele>548</ele>
        <time>2019-03-05T14:23:39Z</time>
      </trkpt>
      <trkpt lat="44.38148" lon="5.944">
        <ele>547</ele>
        <time>2019-03-05T14:23:40Z</time>
      </trkpt>
      <trkpt lat="44.38154" lon="5.94393">
        <ele>547</ele>
        <time>2019-03-05T14:23:41Z</time>
      </trkpt>
      <trkpt lat="44.38161" lon="5.94387">
        <ele>547</ele>
        <time>2019-03-05T14:23:42Z</time>
      </trkpt>
      <trkpt lat="44.38167" lon="5.94381">
        <ele>547</ele>
        <time>2019-03-05T14:23:43Z</time>
      </trkpt>
      <trkpt lat="44.38173" lon="5.94374">
        <ele>547</ele>
        <time>2019-03-05T14:23:44Z</time>
      </trkpt>
      <trkpt lat="44.38179" lon="5.94368">
        <ele>546</ele>
        <time>2019-03-05T14:23:45Z</time>
      </trkpt>
      <trkpt lat="44.38185" lon="5.94363">
        <ele>546</ele>
        <time>2019-03-05T14:23:46Z</time>
      </trkpt>
      <trkpt lat="44.38191" lon="5.94357">
        <ele>546</ele>
        <time>2019-03-05T14:23:47Z</time>
      </trkpt>
      <trkpt lat="44.38197" lon="5.94351">
        <ele>546</ele>
        <time>2019-03-05T14:23:48Z</time>
      </trkpt>
      <trkpt lat="44.38203" lon="5.94345">
        <ele>546</ele>
        <time>2019-03-05T14:23:49Z</time>
      </trkpt>
      <trkpt lat="44.38208" lon="5.94339">
        <ele>546</ele>
        <time>2019-03-05T14:23:50Z</time>
      </trkpt>
      <trkpt lat="44.38214" lon="5.94333">
        <ele>546</ele>
        <time>2019-03-05T14:23:51Z</time>
      </trkpt>
      <trkpt lat="44.38219" lon="5.94327">
        <ele>546</ele>
        <time>2019-03-05T14:23:52Z</time>
      </trkpt>
      <trkpt lat="44.38224" lon="5.9432">
        <ele>546</ele>
        <time>2019-03-05T14:23:53Z</time>
      </trkpt>
      <trkpt lat="44.38229" lon="5.94314">
        <ele>546</ele>
        <time>2019-03-05T14:23:54Z</time>
      </trkpt>
      <trkpt lat="44.38234" lon="5.94306">
        <ele>546</ele>
        <time>2019-03-05T14:23:55Z</time>
      </trkpt>
      <trkpt lat="44.38238" lon="5.94298">
        <ele>546</ele>
        <time>2019-03-05T14:23:56Z</time>
      </trkpt>
      <trkpt lat="44.38242" lon="5.9429">
        <ele>546</ele>
        <time>2019-03-05T14:23:57Z</time>
      </trkpt>
      <trkpt lat="44.38245" lon="5.94283">
        <ele>546</ele>
        <time>2019-03-05T14:23:58Z</time>
      </trkpt>
      <trkpt lat="44.38249" lon="5.94276">
        <ele>546</ele>
        <time>2019-03-05T14:23:59Z</time>
      </trkpt>
      <trkpt lat="44.38253" lon="5.94268">
        <ele>546</ele>
        <time>2019-03-05T14:24:00Z</time>
      </trkpt>
      <trkpt lat="44.38256" lon="5.9426">
        <ele>546</ele>
        <time>2019-03-05T14:24:01Z</time>
      </trkpt>
      <trkpt lat="44.38259" lon="5.94253">
        <ele>546</ele>
        <time>2019-03-05T14:24:02Z</time>
      </trkpt>
      <trkpt lat="44.38262" lon="5.94246">
        <ele>546</ele>
        <time>2019-03-05T14:24:03Z</time>
      </trkpt>
      <trkpt lat="44.38265" lon="5.94239">
        <ele>546</ele>
        <time>2019-03-05T14:24:04Z</time>
      </trkpt>
      <trkpt lat="44.38269" lon="5.94232">
        <ele>546</ele>
        <time>2019-03-05T14:24:05Z</time>
      </trkpt>
      <trkpt lat="44.38272" lon="5.94225">
        <ele>546</ele>
        <time>2019-03-05T14:24:06Z</time>
      </trkpt>
      <trkpt lat="44.38276" lon="5.94219">
        <ele>546</ele>
        <time>2019-03-05T14:24:07Z</time>
      </trkpt>
      <trkpt lat="44.38279" lon="5.94212">
        <ele>546</ele>
        <time>2019-03-05T14:24:08Z</time>
      </trkpt>
      <trkpt lat="44.38283" lon="5.94206">
        <ele>546</ele>
        <time>2019-03-05T14:24:09Z</time>
      </trkpt>
      <trkpt lat="44.38286" lon="5.94199">
        <ele>546</ele>
        <time>2019-03-05T14:24:10Z</time>
      </trkpt>
      <trkpt lat="44.38289" lon="5.94193">
        <ele>546</ele>
        <time>2019-03-05T14:24:11Z</time>
      </trkpt>
      <trkpt lat="44.38292" lon="5.94186">
        <ele>546</ele>
        <time>2019-03-05T14:24:12Z</time>
      </trkpt>
      <trkpt lat="44.38296" lon="5.9418">
        <ele>546</ele>
        <time>2019-03-05T14:24:13Z</time>
      </trkpt>
      <trkpt lat="44.38299" lon="5.94174">
        <ele>546</ele>
        <time>2019-03-05T14:24:14Z</time>
      </trkpt>
      <trkpt lat="44.38302" lon="5.94167">
        <ele>546</ele>
        <time>2019-03-05T14:24:15Z</time>
      </trkpt>
      <trkpt lat="44.38305" lon="5.94162">
        <ele>546</ele>
        <time>2019-03-05T14:24:16Z</time>
      </trkpt>
      <trkpt lat="44.38309" lon="5.94156">
        <ele>546</ele>
        <time>2019-03-05T14:24:17Z</time>
      </trkpt>
      <trkpt lat="44.38312" lon="5.94151">
        <ele>546</ele>
        <time>2019-03-05T14:24:18Z</time>
      </trkpt>
      <trkpt lat="44.38316" lon="5.94148">
        <ele>546</ele>
        <time>2019-03-05T14:24:19Z</time>
      </trkpt>
      <trkpt lat="44.3832" lon="5.94145">
        <ele>546</ele>
        <time>2019-03-05T14:24:20Z</time>
      </trkpt>
      <trkpt lat="44.38324" lon="5.94144">
        <ele>546</ele>
        <time>2019-03-05T14:24:21Z</time>
      </trkpt>
      <trkpt lat="44.38329" lon="5.94145">
        <ele>546</ele>
        <time>2019-03-05T14:24:22Z</time>
      </trkpt>
      <trkpt lat="44.38333" lon="5.94146">
        <ele>546</ele>
        <time>2019-03-05T14:24:23Z</time>
      </trkpt>
      <trkpt lat="44.38337" lon="5.94149">
        <ele>546</ele>
        <time>2019-03-05T14:24:24Z</time>
      </trkpt>
      <trkpt lat="44.38342" lon="5.94152">
        <ele>546</ele>
        <time>2019-03-05T14:24:25Z</time>
      </trkpt>
      <trkpt lat="44.38346" lon="5.94156">
        <ele>546</ele>
        <time>2019-03-05T14:24:26Z</time>
      </trkpt>
      <trkpt lat="44.3835" lon="5.94161">
        <ele>546</ele>
        <time>2019-03-05T14:24:27Z</time>
      </trkpt>
      <trkpt lat="44.38354" lon="5.94166">
        <ele>546</ele>
        <time>2019-03-05T14:24:28Z</time>
      </trkpt>
      <trkpt lat="44.38357" lon="5.94171">
        <ele>546</ele>
        <time>2019-03-05T14:24:29Z</time>
      </trkpt>
      <trkpt lat="44.3836" lon="5.94177">
        <ele>546</ele>
        <time>2019-03-05T14:24:30Z</time>
      </trkpt>
      <trkpt lat="44.38362" lon="5.94182">
        <ele>546</ele>
        <time>2019-03-05T14:24:31Z</time>
      </trkpt>
      <trkpt lat="44.38365" lon="5.94187">
        <ele>546</ele>
        <time>2019-03-05T14:24:32Z</time>
      </trkpt>
      <trkpt lat="44.38367" lon="5.94192">
        <ele>546</ele>
        <time>2019-03-05T14:24:33Z</time>
      </trkpt>
      <trkpt lat="44.38369" lon="5.94198">
        <ele>546</ele>
        <time>2019-03-05T14:24:34Z</time>
      </trkpt>
      <trkpt lat="44.38372" lon="5.94203">
        <ele>546</ele>
        <time>2019-03-05T14:24:35Z</time>
      </trkpt>
      <trkpt lat="44.38374" lon="5.94208">
        <ele>546</ele>
        <time>2019-03-05T14:24:36Z</time>
      </trkpt>
      <trkpt lat="44.38376" lon="5.94212">
        <ele>546</ele>
        <time>2019-03-05T14:24:37Z</time>
      </trkpt>
      <trkpt lat="44.38379" lon="5.94217">
        <ele>546</ele>
        <time>2019-03-05T14:24:38Z</time>
      </trkpt>
      <trkpt lat="44.38381" lon="5.94222">
        <ele>547</ele>
        <time>2019-03-05T14:24:39Z</time>
      </trkpt>
      <trkpt lat="44.38384" lon="5.94227">
        <ele>547</ele>
        <time>2019-03-05T14:24:40Z</time>
      </trkpt>
      <trkpt lat="44.38387" lon="5.94231">
        <ele>547</ele>
        <time>2019-03-05T14:24:41Z</time>
      </trkpt>
      <trkpt lat="44.3839" lon="5.94236">
        <ele>548</ele>
        <time>2019-03-05T14:24:42Z</time>
      </trkpt>
      <trkpt lat="44.38393" lon="5.94239">
        <ele>548</ele>
        <time>2019-03-05T14:24:43Z</time>
      </trkpt>
      <trkpt lat="44.38397" lon="5.94242">
        <ele>548</ele>
        <time>2019-03-05T14:24:44Z</time>
      </trkpt>
      <trkpt lat="44.38401" lon="5.94244">
        <ele>548</ele>
        <time>2019-03-05T14:24:45Z</time>
      </trkpt>
      <trkpt lat="44.38405" lon="5.94247">
        <ele>548</ele>
        <time>2019-03-05T14:24:46Z</time>
      </trkpt>
      <trkpt lat="44.38409" lon="5.94249">
        <ele>548</ele>
        <time>2019-03-05T14:24:47Z</time>
      </trkpt>
      <trkpt lat="44.38412" lon="5.94252">
        <ele>548</ele>
        <time>2019-03-05T14:24:48Z</time>
      </trkpt>
      <trkpt lat="44.38416" lon="5.94254">
        <ele>548</ele>
        <time>2019-03-05T14:24:49Z</time>
      </trkpt>
      <trkpt lat="44.3842" lon="5.94257">
        <ele>548</ele>
        <time>2019-03-05T14:24:50Z</time>
      </trkpt>
      <trkpt lat="44.38424" lon="5.9426">
        <ele>548</ele>
        <time>2019-03-05T14:24:51Z</time>
      </trkpt>
      <trkpt lat="44.38428" lon="5.94263">
        <ele>548</ele>
        <time>2019-03-05T14:24:52Z</time>
      </trkpt>
      <trkpt lat="44.38432" lon="5.94266">
        <ele>548</ele>
        <time>2019-03-05T14:24:53Z</time>
      </trkpt>
      <trkpt lat="44.38436" lon="5.94269">
        <ele>548</ele>
        <time>2019-03-05T14:24:54Z</time>
      </trkpt>
      <trkpt lat="44.3844" lon="5.94272">
        <ele>548</ele>
        <time>2019-03-05T14:24:55Z</time>
      </trkpt>
      <trkpt lat="44.38443" lon="5.94274">
        <ele>548</ele>
        <time>2019-03-05T14:24:56Z</time>
      </trkpt>
      <trkpt lat="44.38447" lon="5.94276">
        <ele>549</ele>
        <time>2019-03-05T14:24:57Z</time>
      </trkpt>
      <trkpt lat="44.38451" lon="5.94277">
        <ele>549</ele>
        <time>2019-03-05T14:24:58Z</time>
      </trkpt>
      <trkpt lat="44.38455" lon="5.94279">
        <ele>549</ele>
        <time>2019-03-05T14:24:59Z</time>
      </trkpt>
      <trkpt lat="44.38458" lon="5.9428">
        <ele>549</ele>
        <time>2019-03-05T14:25:00Z</time>
      </trkpt>
      <trkpt lat="44.38461" lon="5.9428">
        <ele>549</ele>
        <time>2019-03-05T14:25:01Z</time>
      </trkpt>
      <trkpt lat="44.38464" lon="5.94281">
        <ele>550</ele>
        <time>2019-03-05T14:25:02Z</time>
      </trkpt>
      <trkpt lat="44.38468" lon="5.9428">
        <ele>550</ele>
        <time>2019-03-05T14:25:03Z</time>
      </trkpt>
      <trkpt lat="44.38471" lon="5.94279">
        <ele>550</ele>
        <time>2019-03-05T14:25:04Z</time>
      </trkpt>
      <trkpt lat="44.38475" lon="5.94278">
        <ele>551</ele>
        <time>2019-03-05T14:25:05Z</time>
      </trkpt>
      <trkpt lat="44.38477" lon="5.94277">
        <ele>551</ele>
        <time>2019-03-05T14:25:06Z</time>
      </trkpt>
      <trkpt lat="44.3848" lon="5.94275">
        <ele>552</ele>
        <time>2019-03-05T14:25:07Z</time>
      </trkpt>
      <trkpt lat="44.38482" lon="5.94274">
        <ele>552</ele>
        <time>2019-03-05T14:25:08Z</time>
      </trkpt>
      <trkpt lat="44.38483" lon="5.94273">
        <ele>553</ele>
        <time>2019-03-05T14:25:09Z</time>
      </trkpt>
      <trkpt lat="44.38484" lon="5.94271">
        <ele>553</ele>
        <time>2019-03-05T14:25:10Z</time>
      </trkpt>
      <trkpt lat="44.38485" lon="5.94269">
        <ele>555</ele>
        <time>2019-03-05T14:25:12Z</time>
      </trkpt>
      <trkpt lat="44.38486" lon="5.94267">
        <ele>558</ele>
        <time>2019-03-05T14:25:15Z</time>
      </trkpt>
      <trkpt lat="44.38487" lon="5.94267">
        <ele>562</ele>
        <time>2019-03-05T14:25:20Z</time>
      </trkpt>
      <trkpt lat="44.38488" lon="5.94269">
        <ele>562</ele>
        <time>2019-03-05T14:25:33Z</time>
      </trkpt>
      <trkpt lat="44.38489" lon="5.9427">
        <ele>562</ele>
        <time>2019-03-05T14:25:41Z</time>
      </trkpt>
      <trkpt lat="44.38489" lon="5.94272">
        <ele>562</ele>
        <time>2019-03-05T14:26:01Z</time>
      </trkpt>
      <trkpt lat="44.3849" lon="5.9427">
        <ele>562</ele>
        <time>2019-03-05T14:26:08Z</time>
      </trkpt>
      <trkpt lat="44.38491" lon="5.94269">
        <ele>562</ele>
        <time>2019-03-05T14:26:18Z</time>
      </trkpt>
      <trkpt lat="44.38491" lon="5.94268">
        <ele>561</ele>
        <time>2019-03-05T14:27:16Z</time>
      </trkpt>
      <trkpt lat="44.38491" lon="5.94269">
        <ele>561</ele>
        <time>2019-03-05T14:27:29Z</time>
      </trkpt>
      <trkpt lat="44.38492" lon="5.94269">
        <ele>561</ele>
        <time>2019-03-05T14:27:36Z</time>
      </trkpt>
      <trkpt lat="44.38492" lon="5.94268">
        <ele>561</ele>
        <time>2019-03-05T14:27:42Z</time>
      </trkpt>
      <trkpt lat="44.38491" lon="5.94269">
        <ele>561</ele>
        <time>2019-03-05T14:27:50Z</time>
      </trkpt>
      <trkpt lat="44.3849" lon="5.9427">
        <ele>561</ele>
        <time>2019-03-05T14:27:54Z</time>
      </trkpt>
      <trkpt lat="44.38491" lon="5.94269">
        <ele>561</ele>
        <time>2019-03-05T14:28:13Z</time>
      </trkpt>
      <trkpt lat="44.38492" lon="5.94268">
        <ele>561</ele>
        <time>2019-03-05T14:28:15Z</time>
      </trkpt>
      <trkpt lat="44.38492" lon="5.94266">
        <ele>561</ele>
        <time>2019-03-05T14:28:22Z</time>
      </trkpt>
      <trkpt lat="44.38491" lon="5.94267">
        <ele>561</ele>
        <time>2019-03-05T14:28:26Z</time>
      </trkpt>
      <trkpt lat="44.38491" lon="5.94267">
        <ele>561</ele>
        <time>2019-03-05T14:28:37Z</time>
      </trkpt>
      <trkpt lat="44.38491" lon="5.94265">
        <ele>561</ele>
        <time>2019-03-05T14:28:38Z</time>
      </trkpt>
      <trkpt lat="44.38491" lon="5.94263">
        <ele>561</ele>
        <time>2019-03-05T14:28:39Z</time>
      </trkpt>
      <trkpt lat="44.38491" lon="5.94262">
        <ele>561</ele>
        <time>2019-03-05T14:28:40Z</time>
      </trkpt>
      <trkpt lat="44.38491" lon="5.9426">
        <ele>561</ele>
        <time>2019-03-05T14:28:41Z</time>
      </trkpt>
      <trkpt lat="44.3849" lon="5.94258">
        <ele>561</ele>
        <time>2019-03-05T14:28:42Z</time>
      </trkpt>
      <trkpt lat="44.3849" lon="5.94256">
        <ele>561</ele>
        <time>2019-03-05T14:28:43Z</time>
      </trkpt>
      <trkpt lat="44.3849" lon="5.94254">
        <ele>561</ele>
        <time>2019-03-05T14:28:44Z</time>
      </trkpt>
      <trkpt lat="44.3849" lon="5.94253">
        <ele>561</ele>
        <time>2019-03-05T14:28:45Z</time>
      </trkpt>
      <trkpt lat="44.3849" lon="5.9425">
        <ele>561</ele>
        <time>2019-03-05T14:28:46Z</time>
      </trkpt>
      <trkpt lat="44.3849" lon="5.94247">
        <ele>560</ele>
        <time>2019-03-05T14:28:47Z</time>
      </trkpt>
      <trkpt lat="44.38489" lon="5.94244">
        <ele>560</ele>
        <time>2019-03-05T14:28:48Z</time>
      </trkpt>
      <trkpt lat="44.38489" lon="5.94241">
        <ele>560</ele>
        <time>2019-03-05T14:28:49Z</time>
      </trkpt>
      <trkpt lat="44.38489" lon="5.94237">
        <ele>560</ele>
        <time>2019-03-05T14:28:50Z</time>
      </trkpt>
      <trkpt lat="44.38489" lon="5.94233">
        <ele>560</ele>
        <time>2019-03-05T14:28:51Z</time>
      </trkpt>
      <trkpt lat="44.3849" lon="5.94229">
        <ele>560</ele>
        <time>2019-03-05T14:28:52Z</time>
      </trkpt>
      <trkpt lat="44.38489" lon="5.94223">
        <ele>560</ele>
        <time>2019-03-05T14:28:53Z</time>
      </trkpt>
      <trkpt lat="44.38489" lon="5.94219">
        <ele>560</ele>
        <time>2019-03-05T14:28:54Z</time>
      </trkpt>
      <trkpt lat="44.38489" lon="5.94215">
        <ele>560</ele>
        <time>2019-03-05T14:28:55Z</time>
      </trkpt>
      <trkpt lat="44.38489" lon="5.94211">
        <ele>560</ele>
        <time>2019-03-05T14:28:56Z</time>
      </trkpt>
      <trkpt lat="44.38489" lon="5.94206">
        <ele>559</ele>
        <time>2019-03-05T14:28:57Z</time>
      </trkpt>
      <trkpt lat="44.3849" lon="5.94201">
        <ele>559</ele>
        <time>2019-03-05T14:28:58Z</time>
      </trkpt>
      <trkpt lat="44.38491" lon="5.94196">
        <ele>559</ele>
        <time>2019-03-05T14:28:59Z</time>
      </trkpt>
      <trkpt lat="44.38491" lon="5.94192">
        <ele>559</ele>
        <time>2019-03-05T14:29:00Z</time>
      </trkpt>
      <trkpt lat="44.38491" lon="5.94188">
        <ele>559</ele>
        <time>2019-03-05T14:29:01Z</time>
      </trkpt>
      <trkpt lat="44.38491" lon="5.94183">
        <ele>559</ele>
        <time>2019-03-05T14:29:02Z</time>
      </trkpt>
      <trkpt lat="44.38492" lon="5.94179">
        <ele>559</ele>
        <time>2019-03-05T14:29:03Z</time>
      </trkpt>
      <trkpt lat="44.38493" lon="5.94173">
        <ele>559</ele>
        <time>2019-03-05T14:29:04Z</time>
      </trkpt>
      <trkpt lat="44.38495" lon="5.94168">
        <ele>559</ele>
        <time>2019-03-05T14:29:05Z</time>
      </trkpt>
      <trkpt lat="44.38497" lon="5.94162">
        <ele>558</ele>
        <time>2019-03-05T14:29:06Z</time>
      </trkpt>
      <trkpt lat="44.38499" lon="5.94156">
        <ele>558</ele>
        <time>2019-03-05T14:29:07Z</time>
      </trkpt>
      <trkpt lat="44.38501" lon="5.9415">
        <ele>558</ele>
        <time>2019-03-05T14:29:08Z</time>
      </trkpt>
      <trkpt lat="44.38501" lon="5.94144">
        <ele>558</ele>
        <time>2019-03-05T14:29:09Z</time>
      </trkpt>
      <trkpt lat="44.38503" lon="5.94138">
        <ele>558</ele>
        <time>2019-03-05T14:29:10Z</time>
      </trkpt>
      <trkpt lat="44.38503" lon="5.94132">
        <ele>558</ele>
        <time>2019-03-05T14:29:11Z</time>
      </trkpt>
      <trkpt lat="44.38504" lon="5.94125">
        <ele>558</ele>
        <time>2019-03-05T14:29:12Z</time>
      </trkpt>
      <trkpt lat="44.38504" lon="5.94118">
        <ele>558</ele>
        <time>2019-03-05T14:29:13Z</time>
      </trkpt>
      <trkpt lat="44.38505" lon="5.94112">
        <ele>558</ele>
        <time>2019-03-05T14:29:14Z</time>
      </trkpt>
      <trkpt lat="44.38506" lon="5.94106">
        <ele>558</ele>
        <time>2019-03-05T14:29:15Z</time>
      </trkpt>
      <trkpt lat="44.38506" lon="5.941">
        <ele>558</ele>
        <time>2019-03-05T14:29:16Z</time>
      </trkpt>
      <trkpt lat="44.38507" lon="5.94095">
        <ele>558</ele>
        <time>2019-03-05T14:29:17Z</time>
      </trkpt>
      <trkpt lat="44.38508" lon="5.94089">
        <ele>557</ele>
        <time>2019-03-05T14:29:18Z</time>
      </trkpt>
      <trkpt lat="44.38508" lon="5.94082">
        <ele>556</ele>
        <time>2019-03-05T14:29:19Z</time>
      </trkpt>
      <trkpt lat="44.38509" lon="5.94076">
        <ele>555</ele>
        <time>2019-03-05T14:29:20Z</time>
      </trkpt>
      <trkpt lat="44.3851" lon="5.9407">
        <ele>554</ele>
        <time>2019-03-05T14:29:21Z</time>
      </trkpt>
      <trkpt lat="44.38511" lon="5.94063">
        <ele>554</ele>
        <time>2019-03-05T14:29:22Z</time>
      </trkpt>
      <trkpt lat="44.38511" lon="5.94056">
        <ele>553</ele>
        <time>2019-03-05T14:29:23Z</time>
      </trkpt>
      <trkpt lat="44.38512" lon="5.94049">
        <ele>553</ele>
        <time>2019-03-05T14:29:24Z</time>
      </trkpt>
      <trkpt lat="44.38512" lon="5.94042">
        <ele>552</ele>
        <time>2019-03-05T14:29:25Z</time>
      </trkpt>
      <trkpt lat="44.38512" lon="5.94034">
        <ele>552</ele>
        <time>2019-03-05T14:29:26Z</time>
      </trkpt>
      <trkpt lat="44.38512" lon="5.94027">
        <ele>552</ele>
        <time>2019-03-05T14:29:27Z</time>
      </trkpt>
      <trkpt lat="44.38511" lon="5.94019">
        <ele>552</ele>
        <time>2019-03-05T14:29:28Z</time>
      </trkpt>
      <trkpt lat="44.3851" lon="5.94012">
        <ele>552</ele>
        <time>2019-03-05T14:29:29Z</time>
      </trkpt>
      <trkpt lat="44.38509" lon="5.94004">
        <ele>552</ele>
        <time>2019-03-05T14:29:30Z</time>
      </trkpt>
      <trkpt lat="44.38507" lon="5.93997">
        <ele>552</ele>
        <time>2019-03-05T14:29:31Z</time>
      </trkpt>
      <trkpt lat="44.38506" lon="5.9399">
        <ele>552</ele>
        <time>2019-03-05T14:29:32Z</time>
      </trkpt>
      <trkpt lat="44.38506" lon="5.93982">
        <ele>552</ele>
        <time>2019-03-05T14:29:33Z</time>
      </trkpt>
      <trkpt lat="44.38506" lon="5.93974">
        <ele>552</ele>
        <time>2019-03-05T14:29:34Z</time>
      </trkpt>
      <trkpt lat="44.38506" lon="5.93967">
        <ele>552</ele>
        <time>2019-03-05T14:29:35Z</time>
      </trkpt>
      <trkpt lat="44.38507" lon="5.9396">
        <ele>552</ele>
        <time>2019-03-05T14:29:36Z</time>
      </trkpt>
      <trkpt lat="44.38509" lon="5.93953">
        <ele>552</ele>
        <time>2019-03-05T14:29:37Z</time>
      </trkpt>
      <trkpt lat="44.38512" lon="5.93947">
        <ele>552</ele>
        <time>2019-03-05T14:29:38Z</time>
      </trkpt>
      <trkpt lat="44.38516" lon="5.93943">
        <ele>552</ele>
        <time>2019-03-05T14:29:39Z</time>
      </trkpt>
      <trkpt lat="44.3852" lon="5.93941">
        <ele>552</ele>
        <time>2019-03-05T14:29:40Z</time>
      </trkpt>
      <trkpt lat="44.38523" lon="5.93939">
        <ele>552</ele>
        <time>2019-03-05T14:29:41Z</time>
      </trkpt>
      <trkpt lat="44.38527" lon="5.93938">
        <ele>552</ele>
        <time>2019-03-05T14:29:42Z</time>
      </trkpt>
      <trkpt lat="44.38529" lon="5.93938">
        <ele>552</ele>
        <time>2019-03-05T14:29:43Z</time>
      </trkpt>
      <trkpt lat="44.38532" lon="5.93937">
        <ele>552</ele>
        <time>2019-03-05T14:29:44Z</time>
      </trkpt>
      <trkpt lat="44.38536" lon="5.93936">
        <ele>552</ele>
        <time>2019-03-05T14:29:45Z</time>
      </trkpt>
      <trkpt lat="44.38539" lon="5.93935">
        <ele>552</ele>
        <time>2019-03-05T14:29:46Z</time>
      </trkpt>
      <trkpt lat="44.38543" lon="5.93934">
        <ele>552</ele>
        <time>2019-03-05T14:29:47Z</time>
      </trkpt>
      <trkpt lat="44.38546" lon="5.93933">
        <ele>552</ele>
        <time>2019-03-05T14:29:48Z</time>
      </trkpt>
      <trkpt lat="44.38549" lon="5.93933">
        <ele>552</ele>
        <time>2019-03-05T14:29:49Z</time>
      </trkpt>
      <trkpt lat="44.38552" lon="5.93932">
        <ele>552</ele>
        <time>2019-03-05T14:29:50Z</time>
      </trkpt>
      <trkpt lat="44.38555" lon="5.93931">
        <ele>552</ele>
        <time>2019-03-05T14:29:51Z</time>
      </trkpt>
      <trkpt lat="44.38558" lon="5.93931">
        <ele>552</ele>
        <time>2019-03-05T14:29:52Z</time>
      </trkpt>
      <trkpt lat="44.38561" lon="5.93931">
        <ele>552</ele>
        <time>2019-03-05T14:29:53Z</time>
      </trkpt>
      <trkpt lat="44.38564" lon="5.9393">
        <ele>552</ele>
        <time>2019-03-05T14:29:54Z</time>
      </trkpt>
      <trkpt lat="44.38567" lon="5.93929">
        <ele>552</ele>
        <time>2019-03-05T14:29:55Z</time>
      </trkpt>
      <trkpt lat="44.3857" lon="5.93928">
        <ele>552</ele>
        <time>2019-03-05T14:29:56Z</time>
      </trkpt>
      <trkpt lat="44.38573" lon="5.93928">
        <ele>552</ele>
        <time>2019-03-05T14:29:57Z</time>
      </trkpt>
      <trkpt lat="44.38576" lon="5.93928">
        <ele>552</ele>
        <time>2019-03-05T14:29:58Z</time>
      </trkpt>
      <trkpt lat="44.38579" lon="5.93927">
        <ele>552</ele>
        <time>2019-03-05T14:29:59Z</time>
      </trkpt>
      <trkpt lat="44.38582" lon="5.93927">
        <ele>552</ele>
        <time>2019-03-05T14:30:00Z</time>
      </trkpt>
      <trkpt lat="44.38585" lon="5.93927">
        <ele>552</ele>
        <time>2019-03-05T14:30:01Z</time>
      </trkpt>
      <trkpt lat="44.38588" lon="5.93926">
        <ele>552</ele>
        <time>2019-03-05T14:30:02Z</time>
      </trkpt>
      <trkpt lat="44.38591" lon="5.93926">
        <ele>552</ele>
        <time>2019-03-05T14:30:03Z</time>
      </trkpt>
      <trkpt lat="44.38594" lon="5.93925">
        <ele>552</ele>
        <time>2019-03-05T14:30:04Z</time>
      </trkpt>
      <trkpt lat="44.38597" lon="5.93925">
        <ele>552</ele>
        <time>2019-03-05T14:30:05Z</time>
      </trkpt>
      <trkpt lat="44.386" lon="5.93924">
        <ele>552</ele>
        <time>2019-03-05T14:30:06Z</time>
      </trkpt>
      <trkpt lat="44.38602" lon="5.93924">
        <ele>552</ele>
        <time>2019-03-05T14:30:07Z</time>
      </trkpt>
      <trkpt lat="44.38605" lon="5.93923">
        <ele>552</ele>
        <time>2019-03-05T14:30:08Z</time>
      </trkpt>
      <trkpt lat="44.38608" lon="5.93923">
        <ele>552</ele>
        <time>2019-03-05T14:30:09Z</time>
      </trkpt>
      <trkpt lat="44.3861" lon="5.93923">
        <ele>552</ele>
        <time>2019-03-05T14:30:10Z</time>
      </trkpt>
      <trkpt lat="44.38613" lon="5.93922">
        <ele>552</ele>
        <time>2019-03-05T14:30:11Z</time>
      </trkpt>
      <trkpt lat="44.38615" lon="5.93922">
        <ele>552</ele>
        <time>2019-03-05T14:30:12Z</time>
      </trkpt>
      <trkpt lat="44.38618" lon="5.93922">
        <ele>552</ele>
        <time>2019-03-05T14:30:13Z</time>
      </trkpt>
      <trkpt lat="44.38621" lon="5.93921">
        <ele>552</ele>
        <time>2019-03-05T14:30:14Z</time>
      </trkpt>
      <trkpt lat="44.38624" lon="5.93921">
        <ele>552</ele>
        <time>2019-03-05T14:30:15Z</time>
      </trkpt>
      <trkpt lat="44.38627" lon="5.9392">
        <ele>552</ele>
        <time>2019-03-05T14:30:16Z</time>
      </trkpt>
      <trkpt lat="44.3863" lon="5.93919">
        <ele>553</ele>
        <time>2019-03-05T14:30:17Z</time>
      </trkpt>
      <trkpt lat="44.38633" lon="5.93919">
        <ele>553</ele>
        <time>2019-03-05T14:30:18Z</time>
      </trkpt>
      <trkpt lat="44.38636" lon="5.93918">
        <ele>554</ele>
        <time>2019-03-05T14:30:19Z</time>
      </trkpt>
      <trkpt lat="44.38639" lon="5.93918">
        <ele>555</ele>
        <time>2019-03-05T14:30:20Z</time>
      </trkpt>
      <trkpt lat="44.38641" lon="5.93917">
        <ele>555</ele>
        <time>2019-03-05T14:30:21Z</time>
      </trkpt>
      <trkpt lat="44.38644" lon="5.93917">
        <ele>556</ele>
        <time>2019-03-05T14:30:22Z</time>
      </trkpt>
      <trkpt lat="44.38647" lon="5.93916">
        <ele>556</ele>
        <time>2019-03-05T14:30:23Z</time>
      </trkpt>
      <trkpt lat="44.3865" lon="5.93915">
        <ele>556</ele>
        <time>2019-03-05T14:30:24Z</time>
      </trkpt>
      <trkpt lat="44.38653" lon="5.93915">
        <ele>557</ele>
        <time>2019-03-05T14:30:25Z</time>
      </trkpt>
      <trkpt lat="44.38656" lon="5.93915">
        <ele>557</ele>
        <time>2019-03-05T14:30:26Z</time>
      </trkpt>
      <trkpt lat="44.38658" lon="5.93914">
        <ele>557</ele>
        <time>2019-03-05T14:30:27Z</time>
      </trkpt>
      <trkpt lat="44.38661" lon="5.93914">
        <ele>557</ele>
        <time>2019-03-05T14:30:28Z</time>
      </trkpt>
      <trkpt lat="44.38663" lon="5.93913">
        <ele>558</ele>
        <time>2019-03-05T14:30:29Z</time>
      </trkpt>
      <trkpt lat="44.38666" lon="5.93912">
        <ele>558</ele>
        <time>2019-03-05T14:30:30Z</time>
      </trkpt>
      <trkpt lat="44.38668" lon="5.93912">
        <ele>558</ele>
        <time>2019-03-05T14:30:31Z</time>
      </trkpt>
      <trkpt lat="44.38671" lon="5.9391">
        <ele>558</ele>
        <time>2019-03-05T14:30:32Z</time>
      </trkpt>
      <trkpt lat="44.38674" lon="5.93909">
        <ele>558</ele>
        <time>2019-03-05T14:30:33Z</time>
      </trkpt>
      <trkpt lat="44.38676" lon="5.93907">
        <ele>559</ele>
        <time>2019-03-05T14:30:34Z</time>
      </trkpt>
      <trkpt lat="44.38678" lon="5.93906">
        <ele>559</ele>
        <time>2019-03-05T14:30:35Z</time>
      </trkpt>
      <trkpt lat="44.3868" lon="5.93905">
        <ele>559</ele>
        <time>2019-03-05T14:30:36Z</time>
      </trkpt>
      <trkpt lat="44.38683" lon="5.93904">
        <ele>559</ele>
        <time>2019-03-05T14:30:37Z</time>
      </trkpt>
      <trkpt lat="44.38685" lon="5.93903">
        <ele>560</ele>
        <time>2019-03-05T14:30:38Z</time>
      </trkpt>
      <trkpt lat="44.38687" lon="5.93901">
        <ele>560</ele>
        <time>2019-03-05T14:30:39Z</time>
      </trkpt>
      <trkpt lat="44.38689" lon="5.939">
        <ele>560</ele>
        <time>2019-03-05T14:30:40Z</time>
      </trkpt>
      <trkpt lat="44.38691" lon="5.93899">
        <ele>560</ele>
        <time>2019-03-05T14:30:41Z</time>
      </trkpt>
      <trkpt lat="44.38692" lon="5.93897">
        <ele>560</ele>
        <time>2019-03-05T14:30:42Z</time>
      </trkpt>
      <trkpt lat="44.38694" lon="5.93895">
        <ele>560</ele>
        <time>2019-03-05T14:30:43Z</time>
      </trkpt>
      <trkpt lat="44.38696" lon="5.93893">
        <ele>560</ele>
        <time>2019-03-05T14:30:44Z</time>
      </trkpt>
      <trkpt lat="44.38697" lon="5.93889">
        <ele>560</ele>
        <time>2019-03-05T14:30:45Z</time>
      </trkpt>
      <trkpt lat="44.38699" lon="5.93885">
        <ele>560</ele>
        <time>2019-03-05T14:30:46Z</time>
      </trkpt>
      <trkpt lat="44.38699" lon="5.93881">
        <ele>560</ele>
        <time>2019-03-05T14:30:47Z</time>
      </trkpt>
      <trkpt lat="44.387" lon="5.93876">
        <ele>560</ele>
        <time>2019-03-05T14:30:48Z</time>
      </trkpt>
      <trkpt lat="44.387" lon="5.93871">
        <ele>561</ele>
        <time>2019-03-05T14:30:49Z</time>
      </trkpt>
      <trkpt lat="44.387" lon="5.93866">
        <ele>561</ele>
        <time>2019-03-05T14:30:50Z</time>
      </trkpt>
      <trkpt lat="44.387" lon="5.93861">
        <ele>562</ele>
        <time>2019-03-05T14:30:51Z</time>
      </trkpt>
      <trkpt lat="44.38699" lon="5.93856">
        <ele>562</ele>
        <time>2019-03-05T14:30:52Z</time>
      </trkpt>
      <trkpt lat="44.38699" lon="5.93852">
        <ele>563</ele>
        <time>2019-03-05T14:30:53Z</time>
      </trkpt>
      <trkpt lat="44.38699" lon="5.93847">
        <ele>564</ele>
        <time>2019-03-05T14:30:54Z</time>
      </trkpt>
      <trkpt lat="44.38699" lon="5.93843">
        <ele>564</ele>
        <time>2019-03-05T14:30:55Z</time>
      </trkpt>
      <trkpt lat="44.38699" lon="5.93838">
        <ele>564</ele>
        <time>2019-03-05T14:30:56Z</time>
      </trkpt>
      <trkpt lat="44.38699" lon="5.93833">
        <ele>565</ele>
        <time>2019-03-05T14:30:57Z</time>
      </trkpt>
      <trkpt lat="44.38699" lon="5.93829">
        <ele>565</ele>
        <time>2019-03-05T14:30:58Z</time>
      </trkpt>
      <trkpt lat="44.387" lon="5.93825">
        <ele>566</ele>
        <time>2019-03-05T14:30:59Z</time>
      </trkpt>
      <trkpt lat="44.387" lon="5.93821">
        <ele>566</ele>
        <time>2019-03-05T14:31:00Z</time>
      </trkpt>
      <trkpt lat="44.387" lon="5.93816">
        <ele>567</ele>
        <time>2019-03-05T14:31:01Z</time>
      </trkpt>
      <trkpt lat="44.38701" lon="5.93812">
        <ele>567</ele>
        <time>2019-03-05T14:31:02Z</time>
      </trkpt>
      <trkpt lat="44.38701" lon="5.93808">
        <ele>567</ele>
        <time>2019-03-05T14:31:03Z</time>
      </trkpt>
      <trkpt lat="44.38701" lon="5.93804">
        <ele>568</ele>
        <time>2019-03-05T14:31:04Z</time>
      </trkpt>
      <trkpt lat="44.38701" lon="5.93799">
        <ele>568</ele>
        <time>2019-03-05T14:31:05Z</time>
      </trkpt>
      <trkpt lat="44.38701" lon="5.93795">
        <ele>568</ele>
        <time>2019-03-05T14:31:06Z</time>
      </trkpt>
      <trkpt lat="44.38702" lon="5.93791">
        <ele>568</ele>
        <time>2019-03-05T14:31:07Z</time>
      </trkpt>
      <trkpt lat="44.38702" lon="5.93787">
        <ele>569</ele>
        <time>2019-03-05T14:31:08Z</time>
      </trkpt>
      <trkpt lat="44.38702" lon="5.93782">
        <ele>569</ele>
        <time>2019-03-05T14:31:09Z</time>
      </trkpt>
      <trkpt lat="44.38702" lon="5.93778">
        <ele>569</ele>
        <time>2019-03-05T14:31:10Z</time>
      </trkpt>
      <trkpt lat="44.38702" lon="5.93774">
        <ele>569</ele>
        <time>2019-03-05T14:31:11Z</time>
      </trkpt>
      <trkpt lat="44.38702" lon="5.93769">
        <ele>570</ele>
        <time>2019-03-05T14:31:12Z</time>
      </trkpt>
      <trkpt lat="44.38702" lon="5.93765">
        <ele>570</ele>
        <time>2019-03-05T14:31:13Z</time>
      </trkpt>
      <trkpt lat="44.38703" lon="5.9376">
        <ele>570</ele>
        <time>2019-03-05T14:31:14Z</time>
      </trkpt>
      <trkpt lat="44.38704" lon="5.93756">
        <ele>570</ele>
        <time>2019-03-05T14:31:15Z</time>
      </trkpt>
      <trkpt lat="44.38704" lon="5.93752">
        <ele>571</ele>
        <time>2019-03-05T14:31:16Z</time>
      </trkpt>
      <trkpt lat="44.38704" lon="5.93747">
        <ele>571</ele>
        <time>2019-03-05T14:31:17Z</time>
      </trkpt>
      <trkpt lat="44.38704" lon="5.93743">
        <ele>571</ele>
        <time>2019-03-05T14:31:18Z</time>
      </trkpt>
      <trkpt lat="44.38705" lon="5.93738">
        <ele>571</ele>
        <time>2019-03-05T14:31:19Z</time>
      </trkpt>
      <trkpt lat="44.38705" lon="5.93734">
        <ele>571</ele>
        <time>2019-03-05T14:31:20Z</time>
      </trkpt>
      <trkpt lat="44.38705" lon="5.93729">
        <ele>571</ele>
        <time>2019-03-05T14:31:21Z</time>
      </trkpt>
      <trkpt lat="44.38706" lon="5.93725">
        <ele>571</ele>
        <time>2019-03-05T14:31:22Z</time>
      </trkpt>
      <trkpt lat="44.38706" lon="5.9372">
        <ele>572</ele>
        <time>2019-03-05T14:31:23Z</time>
      </trkpt>
      <trkpt lat="44.38706" lon="5.93716">
        <ele>572</ele>
        <time>2019-03-05T14:31:24Z</time>
      </trkpt>
      <trkpt lat="44.38706" lon="5.93712">
        <ele>572</ele>
        <time>2019-03-05T14:31:25Z</time>
      </trkpt>
      <trkpt lat="44.38707" lon="5.93708">
        <ele>572</ele>
        <time>2019-03-05T14:31:26Z</time>
      </trkpt>
      <trkpt lat="44.38707" lon="5.93703">
        <ele>572</ele>
        <time>2019-03-05T14:31:27Z</time>
      </trkpt>
      <trkpt lat="44.38707" lon="5.93699">
        <ele>573</ele>
        <time>2019-03-05T14:31:28Z</time>
      </trkpt>
      <trkpt lat="44.38707" lon="5.93695">
        <ele>573</ele>
        <time>2019-03-05T14:31:29Z</time>
      </trkpt>
      <trkpt lat="44.38707" lon="5.93691">
        <ele>573</ele>
        <time>2019-03-05T14:31:30Z</time>
      </trkpt>
      <trkpt lat="44.38707" lon="5.93686">
        <ele>573</ele>
        <time>2019-03-05T14:31:31Z</time>
      </trkpt>
      <trkpt lat="44.38707" lon="5.93682">
        <ele>573</ele>
        <time>2019-03-05T14:31:32Z</time>
      </trkpt>
      <trkpt lat="44.38707" lon="5.93678">
        <ele>573</ele>
        <time>2019-03-05T14:31:33Z</time>
      </trkpt>
      <trkpt lat="44.38707" lon="5.93673">
        <ele>574</ele>
        <time>2019-03-05T14:31:34Z</time>
      </trkpt>
      <trkpt lat="44.38707" lon="5.93668">
        <ele>574</ele>
        <time>2019-03-05T14:31:35Z</time>
      </trkpt>
      <trkpt lat="44.38707" lon="5.93664">
        <ele>574</ele>
        <time>2019-03-05T14:31:36Z</time>
      </trkpt>
      <trkpt lat="44.38707" lon="5.93659">
        <ele>574</ele>
        <time>2019-03-05T14:31:37Z</time>
      </trkpt>
      <trkpt lat="44.38707" lon="5.93655">
        <ele>574</ele>
        <time>2019-03-05T14:31:38Z</time>
      </trkpt>
      <trkpt lat="44.38707" lon="5.9365">
        <ele>574</ele>
        <time>2019-03-05T14:31:39Z</time>
      </trkpt>
      <trkpt lat="44.38707" lon="5.93646">
        <ele>574</ele>
        <time>2019-03-05T14:31:40Z</time>
      </trkpt>
      <trkpt lat="44.38708" lon="5.93641">
        <ele>574</ele>
        <time>2019-03-05T14:31:41Z</time>
      </trkpt>
      <trkpt lat="44.38708" lon="5.93636">
        <ele>574</ele>
        <time>2019-03-05T14:31:42Z</time>
      </trkpt>
      <trkpt lat="44.38708" lon="5.93632">
        <ele>575</ele>
        <time>2019-03-05T14:31:43Z</time>
      </trkpt>
      <trkpt lat="44.38708" lon="5.93627">
        <ele>575</ele>
        <time>2019-03-05T14:31:44Z</time>
      </trkpt>
      <trkpt lat="44.38709" lon="5.93622">
        <ele>575</ele>
        <time>2019-03-05T14:31:45Z</time>
      </trkpt>
      <trkpt lat="44.38709" lon="5.93618">
        <ele>575</ele>
        <time>2019-03-05T14:31:46Z</time>
      </trkpt>
      <trkpt lat="44.38709" lon="5.93613">
        <ele>575</ele>
        <time>2019-03-05T14:31:47Z</time>
      </trkpt>
      <trkpt lat="44.38709" lon="5.93609">
        <ele>575</ele>
        <time>2019-03-05T14:31:48Z</time>
      </trkpt>
      <trkpt lat="44.38709" lon="5.93605">
        <ele>575</ele>
        <time>2019-03-05T14:31:49Z</time>
      </trkpt>
      <trkpt lat="44.38709" lon="5.93601">
        <ele>575</ele>
        <time>2019-03-05T14:31:50Z</time>
      </trkpt>
      <trkpt lat="44.38709" lon="5.93597">
        <ele>575</ele>
        <time>2019-03-05T14:31:51Z</time>
      </trkpt>
      <trkpt lat="44.38708" lon="5.93593">
        <ele>575</ele>
        <time>2019-03-05T14:31:52Z</time>
      </trkpt>
      <trkpt lat="44.38707" lon="5.9359">
        <ele>575</ele>
        <time>2019-03-05T14:31:53Z</time>
      </trkpt>
      <trkpt lat="44.38705" lon="5.93587">
        <ele>575</ele>
        <time>2019-03-05T14:31:54Z</time>
      </trkpt>
      <trkpt lat="44.38703" lon="5.93585">
        <ele>575</ele>
        <time>2019-03-05T14:31:55Z</time>
      </trkpt>
      <trkpt lat="44.38701" lon="5.93583">
        <ele>575</ele>
        <time>2019-03-05T14:31:56Z</time>
      </trkpt>
      <trkpt lat="44.38697" lon="5.93581">
        <ele>575</ele>
        <time>2019-03-05T14:31:57Z</time>
      </trkpt>
      <trkpt lat="44.38694" lon="5.93579">
        <ele>575</ele>
        <time>2019-03-05T14:31:58Z</time>
      </trkpt>
      <trkpt lat="44.3869" lon="5.93577">
        <ele>575</ele>
        <time>2019-03-05T14:31:59Z</time>
      </trkpt>
      <trkpt lat="44.38686" lon="5.93575">
        <ele>575</ele>
        <time>2019-03-05T14:32:00Z</time>
      </trkpt>
      <trkpt lat="44.38682" lon="5.93572">
        <ele>575</ele>
        <time>2019-03-05T14:32:01Z</time>
      </trkpt>
      <trkpt lat="44.38678" lon="5.93569">
        <ele>575</ele>
        <time>2019-03-05T14:32:02Z</time>
      </trkpt>
      <trkpt lat="44.38674" lon="5.93567">
        <ele>575</ele>
        <time>2019-03-05T14:32:03Z</time>
      </trkpt>
      <trkpt lat="44.38669" lon="5.93564">
        <ele>575</ele>
        <time>2019-03-05T14:32:04Z</time>
      </trkpt>
      <trkpt lat="44.38664" lon="5.93561">
        <ele>575</ele>
        <time>2019-03-05T14:32:05Z</time>
      </trkpt>
      <trkpt lat="44.38659" lon="5.93558">
        <ele>575</ele>
        <time>2019-03-05T14:32:06Z</time>
      </trkpt>
      <trkpt lat="44.38654" lon="5.93555">
        <ele>575</ele>
        <time>2019-03-05T14:32:07Z</time>
      </trkpt>
      <trkpt lat="44.38649" lon="5.93552">
        <ele>575</ele>
        <time>2019-03-05T14:32:08Z</time>
      </trkpt>
      <trkpt lat="44.38644" lon="5.93548">
        <ele>575</ele>
        <time>2019-03-05T14:32:09Z</time>
      </trkpt>
      <trkpt lat="44.38639" lon="5.93545">
        <ele>575</ele>
        <time>2019-03-05T14:32:10Z</time>
      </trkpt>
      <trkpt lat="44.38633" lon="5.93542">
        <ele>575</ele>
        <time>2019-03-05T14:32:11Z</time>
      </trkpt>
      <trkpt lat="44.38628" lon="5.93538">
        <ele>575</ele>
        <time>2019-03-05T14:32:12Z</time>
      </trkpt>
      <trkpt lat="44.38622" lon="5.93534">
        <ele>575</ele>
        <time>2019-03-05T14:32:13Z</time>
      </trkpt>
      <trkpt lat="44.38616" lon="5.9353">
        <ele>575</ele>
        <time>2019-03-05T14:32:14Z</time>
      </trkpt>
      <trkpt lat="44.38611" lon="5.93525">
        <ele>575</ele>
        <time>2019-03-05T14:32:15Z</time>
      </trkpt>
      <trkpt lat="44.38605" lon="5.93521">
        <ele>575</ele>
        <time>2019-03-05T14:32:16Z</time>
      </trkpt>
      <trkpt lat="44.38599" lon="5.93516">
        <ele>575</ele>
        <time>2019-03-05T14:32:17Z</time>
      </trkpt>
      <trkpt lat="44.38593" lon="5.93512">
        <ele>574</ele>
        <time>2019-03-05T14:32:18Z</time>
      </trkpt>
      <trkpt lat="44.38587" lon="5.93507">
        <ele>574</ele>
        <time>2019-03-05T14:32:19Z</time>
      </trkpt>
      <trkpt lat="44.38581" lon="5.93503">
        <ele>574</ele>
        <time>2019-03-05T14:32:20Z</time>
      </trkpt>
      <trkpt lat="44.38575" lon="5.93499">
        <ele>574</ele>
        <time>2019-03-05T14:32:21Z</time>
      </trkpt>
      <trkpt lat="44.38569" lon="5.93494">
        <ele>573</ele>
        <time>2019-03-05T14:32:22Z</time>
      </trkpt>
      <trkpt lat="44.38563" lon="5.9349">
        <ele>573</ele>
        <time>2019-03-05T14:32:23Z</time>
      </trkpt>
      <trkpt lat="44.38557" lon="5.93485">
        <ele>573</ele>
        <time>2019-03-05T14:32:24Z</time>
      </trkpt>
      <trkpt lat="44.38552" lon="5.93481">
        <ele>573</ele>
        <time>2019-03-05T14:32:25Z</time>
      </trkpt>
      <trkpt lat="44.38546" lon="5.93476">
        <ele>573</ele>
        <time>2019-03-05T14:32:26Z</time>
      </trkpt>
      <trkpt lat="44.3854" lon="5.93472">
        <ele>573</ele>
        <time>2019-03-05T14:32:27Z</time>
      </trkpt>
      <trkpt lat="44.38534" lon="5.93467">
        <ele>573</ele>
        <time>2019-03-05T14:32:28Z</time>
      </trkpt>
      <trkpt lat="44.38528" lon="5.93463">
        <ele>573</ele>
        <time>2019-03-05T14:32:29Z</time>
      </trkpt>
      <trkpt lat="44.38522" lon="5.93459">
        <ele>573</ele>
        <time>2019-03-05T14:32:30Z</time>
      </trkpt>
      <trkpt lat="44.38516" lon="5.93455">
        <ele>572</ele>
        <time>2019-03-05T14:32:31Z</time>
      </trkpt>
      <trkpt lat="44.38511" lon="5.93451">
        <ele>572</ele>
        <time>2019-03-05T14:32:32Z</time>
      </trkpt>
      <trkpt lat="44.38505" lon="5.93447">
        <ele>572</ele>
        <time>2019-03-05T14:32:33Z</time>
      </trkpt>
      <trkpt lat="44.38499" lon="5.93444">
        <ele>572</ele>
        <time>2019-03-05T14:32:34Z</time>
      </trkpt>
      <trkpt lat="44.38493" lon="5.93441">
        <ele>571</ele>
        <time>2019-03-05T14:32:35Z</time>
      </trkpt>
      <trkpt lat="44.38488" lon="5.93438">
        <ele>571</ele>
        <time>2019-03-05T14:32:36Z</time>
      </trkpt>
      <trkpt lat="44.38483" lon="5.93434">
        <ele>571</ele>
        <time>2019-03-05T14:32:37Z</time>
      </trkpt>
      <trkpt lat="44.38478" lon="5.93431">
        <ele>571</ele>
        <time>2019-03-05T14:32:38Z</time>
      </trkpt>
      <trkpt lat="44.38473" lon="5.93428">
        <ele>571</ele>
        <time>2019-03-05T14:32:39Z</time>
      </trkpt>
      <trkpt lat="44.38467" lon="5.93425">
        <ele>571</ele>
        <time>2019-03-05T14:32:40Z</time>
      </trkpt>
      <trkpt lat="44.38462" lon="5.93422">
        <ele>571</ele>
        <time>2019-03-05T14:32:41Z</time>
      </trkpt>
      <trkpt lat="44.38458" lon="5.93419">
        <ele>571</ele>
        <time>2019-03-05T14:32:42Z</time>
      </trkpt>
      <trkpt lat="44.38453" lon="5.93415">
        <ele>571</ele>
        <time>2019-03-05T14:32:43Z</time>
      </trkpt>
      <trkpt lat="44.38448" lon="5.93412">
        <ele>571</ele>
        <time>2019-03-05T14:32:44Z</time>
      </trkpt>
      <trkpt lat="44.38443" lon="5.93408">
        <ele>571</ele>
        <time>2019-03-05T14:32:45Z</time>
      </trkpt>
      <trkpt lat="44.38438" lon="5.93405">
        <ele>571</ele>
        <time>2019-03-05T14:32:46Z</time>
      </trkpt>
      <trkpt lat="44.38434" lon="5.93402">
        <ele>571</ele>
        <time>2019-03-05T14:32:47Z</time>
      </trkpt>
      <trkpt lat="44.38429" lon="5.93399">
        <ele>571</ele>
        <time>2019-03-05T14:32:48Z</time>
      </trkpt>
      <trkpt lat="44.38424" lon="5.93396">
        <ele>571</ele>
        <time>2019-03-05T14:32:49Z</time>
      </trkpt>
      <trkpt lat="44.3842" lon="5.93393">
        <ele>571</ele>
        <time>2019-03-05T14:32:50Z</time>
      </trkpt>
      <trkpt lat="44.38415" lon="5.93389">
        <ele>571</ele>
        <time>2019-03-05T14:32:51Z</time>
      </trkpt>
      <trkpt lat="44.3841" lon="5.93386">
        <ele>571</ele>
        <time>2019-03-05T14:32:52Z</time>
      </trkpt>
      <trkpt lat="44.38406" lon="5.93383">
        <ele>571</ele>
        <time>2019-03-05T14:32:53Z</time>
      </trkpt>
      <trkpt lat="44.38401" lon="5.93379">
        <ele>571</ele>
        <time>2019-03-05T14:32:54Z</time>
      </trkpt>
      <trkpt lat="44.38397" lon="5.93376">
        <ele>571</ele>
        <time>2019-03-05T14:32:55Z</time>
      </trkpt>
      <trkpt lat="44.38392" lon="5.93373">
        <ele>571</ele>
        <time>2019-03-05T14:32:56Z</time>
      </trkpt>
      <trkpt lat="44.38388" lon="5.93369">
        <ele>571</ele>
        <time>2019-03-05T14:32:57Z</time>
      </trkpt>
      <trkpt lat="44.38383" lon="5.93366">
        <ele>571</ele>
        <time>2019-03-05T14:32:58Z</time>
      </trkpt>
      <trkpt lat="44.38379" lon="5.93363">
        <ele>571</ele>
        <time>2019-03-05T14:32:59Z</time>
      </trkpt>
      <trkpt lat="44.38374" lon="5.9336">
        <ele>571</ele>
        <time>2019-03-05T14:33:00Z</time>
      </trkpt>
      <trkpt lat="44.38369" lon="5.93357">
        <ele>571</ele>
        <time>2019-03-05T14:33:01Z</time>
      </trkpt>
      <trkpt lat="44.38365" lon="5.93354">
        <ele>571</ele>
        <time>2019-03-05T14:33:02Z</time>
      </trkpt>
      <trkpt lat="44.38361" lon="5.93351">
        <ele>571</ele>
        <time>2019-03-05T14:33:03Z</time>
      </trkpt>
      <trkpt lat="44.38356" lon="5.93349">
        <ele>571</ele>
        <time>2019-03-05T14:33:04Z</time>
      </trkpt>
      <trkpt lat="44.38352" lon="5.93346">
        <ele>571</ele>
        <time>2019-03-05T14:33:05Z</time>
      </trkpt>
      <trkpt lat="44.38347" lon="5.93343">
        <ele>571</ele>
        <time>2019-03-05T14:33:06Z</time>
      </trkpt>
      <trkpt lat="44.38343" lon="5.9334">
        <ele>571</ele>
        <time>2019-03-05T14:33:07Z</time>
      </trkpt>
      <trkpt lat="44.38338" lon="5.93337">
        <ele>571</ele>
        <time>2019-03-05T14:33:08Z</time>
      </trkpt>
      <trkpt lat="44.38333" lon="5.93334">
        <ele>571</ele>
        <time>2019-03-05T14:33:09Z</time>
      </trkpt>
      <trkpt lat="44.38329" lon="5.93331">
        <ele>571</ele>
        <time>2019-03-05T14:33:10Z</time>
      </trkpt>
      <trkpt lat="44.38325" lon="5.93328">
        <ele>571</ele>
        <time>2019-03-05T14:33:11Z</time>
      </trkpt>
      <trkpt lat="44.38321" lon="5.93325">
        <ele>571</ele>
        <time>2019-03-05T14:33:12Z</time>
      </trkpt>
      <trkpt lat="44.38316" lon="5.93322">
        <ele>571</ele>
        <time>2019-03-05T14:33:13Z</time>
      </trkpt>
      <trkpt lat="44.38311" lon="5.93319">
        <ele>571</ele>
        <time>2019-03-05T14:33:14Z</time>
      </trkpt>
      <trkpt lat="44.38307" lon="5.93316">
        <ele>571</ele>
        <time>2019-03-05T14:33:15Z</time>
      </trkpt>
      <trkpt lat="44.38303" lon="5.93314">
        <ele>571</ele>
        <time>2019-03-05T14:33:16Z</time>
      </trkpt>
      <trkpt lat="44.38298" lon="5.9331">
        <ele>571</ele>
        <time>2019-03-05T14:33:17Z</time>
      </trkpt>
      <trkpt lat="44.38293" lon="5.93307">
        <ele>571</ele>
        <time>2019-03-05T14:33:18Z</time>
      </trkpt>
      <trkpt lat="44.38289" lon="5.93304">
        <ele>571</ele>
        <time>2019-03-05T14:33:19Z</time>
      </trkpt>
      <trkpt lat="44.38284" lon="5.93301">
        <ele>571</ele>
        <time>2019-03-05T14:33:20Z</time>
      </trkpt>
      <trkpt lat="44.3828" lon="5.93298">
        <ele>571</ele>
        <time>2019-03-05T14:33:21Z</time>
      </trkpt>
      <trkpt lat="44.38275" lon="5.93295">
        <ele>571</ele>
        <time>2019-03-05T14:33:22Z</time>
      </trkpt>
      <trkpt lat="44.38271" lon="5.93293">
        <ele>571</ele>
        <time>2019-03-05T14:33:23Z</time>
      </trkpt>
      <trkpt lat="44.38266" lon="5.9329">
        <ele>571</ele>
        <time>2019-03-05T14:33:24Z</time>
      </trkpt>
      <trkpt lat="44.38261" lon="5.93287">
        <ele>571</ele>
        <time>2019-03-05T14:33:25Z</time>
      </trkpt>
      <trkpt lat="44.38257" lon="5.93284">
        <ele>571</ele>
        <time>2019-03-05T14:33:26Z</time>
      </trkpt>
      <trkpt lat="44.38253" lon="5.93281">
        <ele>571</ele>
        <time>2019-03-05T14:33:27Z</time>
      </trkpt>
      <trkpt lat="44.38248" lon="5.93278">
        <ele>571</ele>
        <time>2019-03-05T14:33:28Z</time>
      </trkpt>
      <trkpt lat="44.38243" lon="5.93275">
        <ele>571</ele>
        <time>2019-03-05T14:33:29Z</time>
      </trkpt>
      <trkpt lat="44.38239" lon="5.93272">
        <ele>571</ele>
        <time>2019-03-05T14:33:30Z</time>
      </trkpt>
      <trkpt lat="44.38234" lon="5.93269">
        <ele>571</ele>
        <time>2019-03-05T14:33:31Z</time>
      </trkpt>
      <trkpt lat="44.3823" lon="5.93266">
        <ele>571</ele>
        <time>2019-03-05T14:33:32Z</time>
      </trkpt>
      <trkpt lat="44.38226" lon="5.93263">
        <ele>571</ele>
        <time>2019-03-05T14:33:33Z</time>
      </trkpt>
      <trkpt lat="44.38221" lon="5.9326">
        <ele>571</ele>
        <time>2019-03-05T14:33:34Z</time>
      </trkpt>
      <trkpt lat="44.38217" lon="5.93257">
        <ele>571</ele>
        <time>2019-03-05T14:33:35Z</time>
      </trkpt>
      <trkpt lat="44.38213" lon="5.93254">
        <ele>571</ele>
        <time>2019-03-05T14:33:36Z</time>
      </trkpt>
      <trkpt lat="44.38208" lon="5.93251">
        <ele>571</ele>
        <time>2019-03-05T14:33:37Z</time>
      </trkpt>
      <trkpt lat="44.38203" lon="5.93248">
        <ele>571</ele>
        <time>2019-03-05T14:33:38Z</time>
      </trkpt>
      <trkpt lat="44.38199" lon="5.93245">
        <ele>571</ele>
        <time>2019-03-05T14:33:39Z</time>
      </trkpt>
      <trkpt lat="44.38195" lon="5.93242">
        <ele>571</ele>
        <time>2019-03-05T14:33:40Z</time>
      </trkpt>
      <trkpt lat="44.3819" lon="5.93239">
        <ele>571</ele>
        <time>2019-03-05T14:33:41Z</time>
      </trkpt>
      <trkpt lat="44.38186" lon="5.93236">
        <ele>571</ele>
        <time>2019-03-05T14:33:42Z</time>
      </trkpt>
      <trkpt lat="44.38181" lon="5.93233">
        <ele>571</ele>
        <time>2019-03-05T14:33:43Z</time>
      </trkpt>
      <trkpt lat="44.38177" lon="5.93229">
        <ele>571</ele>
        <time>2019-03-05T14:33:44Z</time>
      </trkpt>
      <trkpt lat="44.38172" lon="5.93226">
        <ele>571</ele>
        <time>2019-03-05T14:33:45Z</time>
      </trkpt>
      <trkpt lat="44.38168" lon="5.93223">
        <ele>571</ele>
        <time>2019-03-05T14:33:46Z</time>
      </trkpt>
      <trkpt lat="44.38163" lon="5.93219">
        <ele>571</ele>
        <time>2019-03-05T14:33:47Z</time>
      </trkpt>
      <trkpt lat="44.38158" lon="5.93216">
        <ele>571</ele>
        <time>2019-03-05T14:33:48Z</time>
      </trkpt>
      <trkpt lat="44.38153" lon="5.93213">
        <ele>571</ele>
        <time>2019-03-05T14:33:49Z</time>
      </trkpt>
      <trkpt lat="44.38149" lon="5.9321">
        <ele>571</ele>
        <time>2019-03-05T14:33:50Z</time>
      </trkpt>
      <trkpt lat="44.38144" lon="5.93206">
        <ele>571</ele>
        <time>2019-03-05T14:33:51Z</time>
      </trkpt>
      <trkpt lat="44.38139" lon="5.93203">
        <ele>571</ele>
        <time>2019-03-05T14:33:52Z</time>
      </trkpt>
      <trkpt lat="44.38135" lon="5.932">
        <ele>571</ele>
        <time>2019-03-05T14:33:53Z</time>
      </trkpt>
      <trkpt lat="44.3813" lon="5.93196">
        <ele>570</ele>
        <time>2019-03-05T14:33:54Z</time>
      </trkpt>
      <trkpt lat="44.38125" lon="5.93193">
        <ele>570</ele>
        <time>2019-03-05T14:33:55Z</time>
      </trkpt>
      <trkpt lat="44.3812" lon="5.93189">
        <ele>570</ele>
        <time>2019-03-05T14:33:56Z</time>
      </trkpt>
      <trkpt lat="44.38115" lon="5.93186">
        <ele>570</ele>
        <time>2019-03-05T14:33:57Z</time>
      </trkpt>
      <trkpt lat="44.3811" lon="5.93182">
        <ele>570</ele>
        <time>2019-03-05T14:33:58Z</time>
      </trkpt>
      <trkpt lat="44.38105" lon="5.93179">
        <ele>570</ele>
        <time>2019-03-05T14:33:59Z</time>
      </trkpt>
      <trkpt lat="44.381" lon="5.93175">
        <ele>570</ele>
        <time>2019-03-05T14:34:00Z</time>
      </trkpt>
      <trkpt lat="44.38095" lon="5.93172">
        <ele>570</ele>
        <time>2019-03-05T14:34:01Z</time>
      </trkpt>
      <trkpt lat="44.3809" lon="5.93168">
        <ele>570</ele>
        <time>2019-03-05T14:34:02Z</time>
      </trkpt>
      <trkpt lat="44.38085" lon="5.93164">
        <ele>570</ele>
        <time>2019-03-05T14:34:03Z</time>
      </trkpt>
      <trkpt lat="44.3808" lon="5.9316">
        <ele>570</ele>
        <time>2019-03-05T14:34:04Z</time>
      </trkpt>
      <trkpt lat="44.38075" lon="5.93157">
        <ele>570</ele>
        <time>2019-03-05T14:34:05Z</time>
      </trkpt>
      <trkpt lat="44.3807" lon="5.93153">
        <ele>570</ele>
        <time>2019-03-05T14:34:06Z</time>
      </trkpt>
      <trkpt lat="44.38065" lon="5.9315">
        <ele>570</ele>
        <time>2019-03-05T14:34:07Z</time>
      </trkpt>
      <trkpt lat="44.38059" lon="5.93146">
        <ele>570</ele>
        <time>2019-03-05T14:34:08Z</time>
      </trkpt>
      <trkpt lat="44.38054" lon="5.93142">
        <ele>569</ele>
        <time>2019-03-05T14:34:09Z</time>
      </trkpt>
      <trkpt lat="44.38049" lon="5.93138">
        <ele>569</ele>
        <time>2019-03-05T14:34:10Z</time>
      </trkpt>
      <trkpt lat="44.38044" lon="5.93133">
        <ele>569</ele>
        <time>2019-03-05T14:34:11Z</time>
      </trkpt>
      <trkpt lat="44.38038" lon="5.93129">
        <ele>569</ele>
        <time>2019-03-05T14:34:12Z</time>
      </trkpt>
      <trkpt lat="44.38033" lon="5.93125">
        <ele>569</ele>
        <time>2019-03-05T14:34:13Z</time>
      </trkpt>
      <trkpt lat="44.38027" lon="5.93121">
        <ele>569</ele>
        <time>2019-03-05T14:34:14Z</time>
      </trkpt>
      <trkpt lat="44.38022" lon="5.93118">
        <ele>569</ele>
        <time>2019-03-05T14:34:15Z</time>
      </trkpt>
      <trkpt lat="44.38017" lon="5.93114">
        <ele>569</ele>
        <time>2019-03-05T14:34:16Z</time>
      </trkpt>
      <trkpt lat="44.38012" lon="5.9311">
        <ele>569</ele>
        <time>2019-03-05T14:34:17Z</time>
      </trkpt>
      <trkpt lat="44.38007" lon="5.93106">
        <ele>569</ele>
        <time>2019-03-05T14:34:18Z</time>
      </trkpt>
      <trkpt lat="44.38001" lon="5.93102">
        <ele>569</ele>
        <time>2019-03-05T14:34:19Z</time>
      </trkpt>
      <trkpt lat="44.37996" lon="5.93098">
        <ele>569</ele>
        <time>2019-03-05T14:34:20Z</time>
      </trkpt>
      <trkpt lat="44.37991" lon="5.93093">
        <ele>569</ele>
        <time>2019-03-05T14:34:21Z</time>
      </trkpt>
      <trkpt lat="44.37986" lon="5.93089">
        <ele>569</ele>
        <time>2019-03-05T14:34:22Z</time>
      </trkpt>
      <trkpt lat="44.3798" lon="5.93085">
        <ele>569</ele>
        <time>2019-03-05T14:34:23Z</time>
      </trkpt>
      <trkpt lat="44.37975" lon="5.93081">
        <ele>569</ele>
        <time>2019-03-05T14:34:24Z</time>
      </trkpt>
      <trkpt lat="44.3797" lon="5.93078">
        <ele>569</ele>
        <time>2019-03-05T14:34:25Z</time>
      </trkpt>
      <trkpt lat="44.37964" lon="5.93074">
        <ele>569</ele>
        <time>2019-03-05T14:34:26Z</time>
      </trkpt>
      <trkpt lat="44.37959" lon="5.9307">
        <ele>569</ele>
        <time>2019-03-05T14:34:27Z</time>
      </trkpt>
      <trkpt lat="44.37954" lon="5.93066">
        <ele>569</ele>
        <time>2019-03-05T14:34:28Z</time>
      </trkpt>
      <trkpt lat="44.37948" lon="5.93061">
        <ele>569</ele>
        <time>2019-03-05T14:34:29Z</time>
      </trkpt>
      <trkpt lat="44.37943" lon="5.93057">
        <ele>569</ele>
        <time>2019-03-05T14:34:30Z</time>
      </trkpt>
      <trkpt lat="44.37938" lon="5.93054">
        <ele>569</ele>
        <time>2019-03-05T14:34:31Z</time>
      </trkpt>
      <trkpt lat="44.37933" lon="5.93051">
        <ele>568</ele>
        <time>2019-03-05T14:34:32Z</time>
      </trkpt>
      <trkpt lat="44.37928" lon="5.93047">
        <ele>568</ele>
        <time>2019-03-05T14:34:33Z</time>
      </trkpt>
      <trkpt lat="44.37922" lon="5.93044">
        <ele>568</ele>
        <time>2019-03-05T14:34:34Z</time>
      </trkpt>
      <trkpt lat="44.37917" lon="5.9304">
        <ele>568</ele>
        <time>2019-03-05T14:34:35Z</time>
      </trkpt>
      <trkpt lat="44.37912" lon="5.93037">
        <ele>568</ele>
        <time>2019-03-05T14:34:36Z</time>
      </trkpt>
      <trkpt lat="44.37906" lon="5.93033">
        <ele>568</ele>
        <time>2019-03-05T14:34:37Z</time>
      </trkpt>
      <trkpt lat="44.37901" lon="5.93029">
        <ele>568</ele>
        <time>2019-03-05T14:34:38Z</time>
      </trkpt>
      <trkpt lat="44.37896" lon="5.93025">
        <ele>568</ele>
        <time>2019-03-05T14:34:39Z</time>
      </trkpt>
      <trkpt lat="44.37891" lon="5.93021">
        <ele>568</ele>
        <time>2019-03-05T14:34:40Z</time>
      </trkpt>
      <trkpt lat="44.37885" lon="5.93018">
        <ele>568</ele>
        <time>2019-03-05T14:34:41Z</time>
      </trkpt>
      <trkpt lat="44.3788" lon="5.93014">
        <ele>568</ele>
        <time>2019-03-05T14:34:42Z</time>
      </trkpt>
      <trkpt lat="44.37875" lon="5.93011">
        <ele>568</ele>
        <time>2019-03-05T14:34:43Z</time>
      </trkpt>
      <trkpt lat="44.37869" lon="5.93007">
        <ele>568</ele>
        <time>2019-03-05T14:34:44Z</time>
      </trkpt>
      <trkpt lat="44.37864" lon="5.93003">
        <ele>568</ele>
        <time>2019-03-05T14:34:45Z</time>
      </trkpt>
      <trkpt lat="44.37859" lon="5.92999">
        <ele>568</ele>
        <time>2019-03-05T14:34:46Z</time>
      </trkpt>
      <trkpt lat="44.37854" lon="5.92996">
        <ele>568</ele>
        <time>2019-03-05T14:34:47Z</time>
      </trkpt>
      <trkpt lat="44.37849" lon="5.92992">
        <ele>568</ele>
        <time>2019-03-05T14:34:48Z</time>
      </trkpt>
      <trkpt lat="44.37844" lon="5.92988">
        <ele>568</ele>
        <time>2019-03-05T14:34:49Z</time>
      </trkpt>
      <trkpt lat="44.37839" lon="5.92984">
        <ele>568</ele>
        <time>2019-03-05T14:34:50Z</time>
      </trkpt>
      <trkpt lat="44.37833" lon="5.92981">
        <ele>568</ele>
        <time>2019-03-05T14:34:51Z</time>
      </trkpt>
      <trkpt lat="44.37828" lon="5.92978">
        <ele>568</ele>
        <time>2019-03-05T14:34:52Z</time>
      </trkpt>
      <trkpt lat="44.37823" lon="5.92974">
        <ele>568</ele>
        <time>2019-03-05T14:34:53Z</time>
      </trkpt>
      <trkpt lat="44.37817" lon="5.92971">
        <ele>568</ele>
        <time>2019-03-05T14:34:54Z</time>
      </trkpt>
      <trkpt lat="44.37812" lon="5.92967">
        <ele>568</ele>
        <time>2019-03-05T14:34:55Z</time>
      </trkpt>
      <trkpt lat="44.37807" lon="5.92964">
        <ele>568</ele>
        <time>2019-03-05T14:34:56Z</time>
      </trkpt>
      <trkpt lat="44.37802" lon="5.92961">
        <ele>568</ele>
        <time>2019-03-05T14:34:57Z</time>
      </trkpt>
      <trkpt lat="44.37796" lon="5.92957">
        <ele>568</ele>
        <time>2019-03-05T14:34:58Z</time>
      </trkpt>
      <trkpt lat="44.37791" lon="5.92954">
        <ele>568</ele>
        <time>2019-03-05T14:34:59Z</time>
      </trkpt>
      <trkpt lat="44.37786" lon="5.92951">
        <ele>568</ele>
        <time>2019-03-05T14:35:00Z</time>
      </trkpt>
      <trkpt lat="44.37781" lon="5.92947">
        <ele>568</ele>
        <time>2019-03-05T14:35:01Z</time>
      </trkpt>
      <trkpt lat="44.37775" lon="5.92944">
        <ele>568</ele>
        <time>2019-03-05T14:35:02Z</time>
      </trkpt>
      <trkpt lat="44.3777" lon="5.92941">
        <ele>568</ele>
        <time>2019-03-05T14:35:03Z</time>
      </trkpt>
      <trkpt lat="44.37765" lon="5.92937">
        <ele>568</ele>
        <time>2019-03-05T14:35:04Z</time>
      </trkpt>
      <trkpt lat="44.37761" lon="5.92934">
        <ele>568</ele>
        <time>2019-03-05T14:35:05Z</time>
      </trkpt>
      <trkpt lat="44.37756" lon="5.9293">
        <ele>568</ele>
        <time>2019-03-05T14:35:06Z</time>
      </trkpt>
      <trkpt lat="44.37751" lon="5.92927">
        <ele>568</ele>
        <time>2019-03-05T14:35:07Z</time>
      </trkpt>
      <trkpt lat="44.37746" lon="5.92923">
        <ele>568</ele>
        <time>2019-03-05T14:35:08Z</time>
      </trkpt>
      <trkpt lat="44.37741" lon="5.9292">
        <ele>568</ele>
        <time>2019-03-05T14:35:09Z</time>
      </trkpt>
      <trkpt lat="44.37736" lon="5.92916">
        <ele>568</ele>
        <time>2019-03-05T14:35:10Z</time>
      </trkpt>
      <trkpt lat="44.37731" lon="5.92913">
        <ele>568</ele>
        <time>2019-03-05T14:35:11Z</time>
      </trkpt>
      <trkpt lat="44.37726" lon="5.9291">
        <ele>568</ele>
        <time>2019-03-05T14:35:12Z</time>
      </trkpt>
      <trkpt lat="44.37722" lon="5.92907">
        <ele>568</ele>
        <time>2019-03-05T14:35:13Z</time>
      </trkpt>
      <trkpt lat="44.37717" lon="5.92903">
        <ele>568</ele>
        <time>2019-03-05T14:35:14Z</time>
      </trkpt>
      <trkpt lat="44.37712" lon="5.929">
        <ele>568</ele>
        <time>2019-03-05T14:35:15Z</time>
      </trkpt>
      <trkpt lat="44.37707" lon="5.92897">
        <ele>568</ele>
        <time>2019-03-05T14:35:16Z</time>
      </trkpt>
      <trkpt lat="44.37702" lon="5.92894">
        <ele>568</ele>
        <time>2019-03-05T14:35:17Z</time>
      </trkpt>
      <trkpt lat="44.37697" lon="5.9289">
        <ele>568</ele>
        <time>2019-03-05T14:35:18Z</time>
      </trkpt>
      <trkpt lat="44.37692" lon="5.92887">
        <ele>568</ele>
        <time>2019-03-05T14:35:19Z</time>
      </trkpt>
      <trkpt lat="44.37688" lon="5.92883">
        <ele>568</ele>
        <time>2019-03-05T14:35:20Z</time>
      </trkpt>
      <trkpt lat="44.37683" lon="5.9288">
        <ele>568</ele>
        <time>2019-03-05T14:35:21Z</time>
      </trkpt>
      <trkpt lat="44.37678" lon="5.92877">
        <ele>568</ele>
        <time>2019-03-05T14:35:22Z</time>
      </trkpt>
      <trkpt lat="44.37673" lon="5.92873">
        <ele>568</ele>
        <time>2019-03-05T14:35:23Z</time>
      </trkpt>
      <trkpt lat="44.37668" lon="5.9287">
        <ele>568</ele>
        <time>2019-03-05T14:35:24Z</time>
      </trkpt>
      <trkpt lat="44.37663" lon="5.92867">
        <ele>568</ele>
        <time>2019-03-05T14:35:25Z</time>
      </trkpt>
      <trkpt lat="44.37658" lon="5.92864">
        <ele>568</ele>
        <time>2019-03-05T14:35:26Z</time>
      </trkpt>
      <trkpt lat="44.37653" lon="5.92861">
        <ele>568</ele>
        <time>2019-03-05T14:35:27Z</time>
      </trkpt>
      <trkpt lat="44.37648" lon="5.92858">
        <ele>568</ele>
        <time>2019-03-05T14:35:28Z</time>
      </trkpt>
      <trkpt lat="44.37643" lon="5.92854">
        <ele>568</ele>
        <time>2019-03-05T14:35:29Z</time>
      </trkpt>
      <trkpt lat="44.37638" lon="5.92851">
        <ele>568</ele>
        <time>2019-03-05T14:35:30Z</time>
      </trkpt>
      <trkpt lat="44.37633" lon="5.92847">
        <ele>568</ele>
        <time>2019-03-05T14:35:31Z</time>
      </trkpt>
      <trkpt lat="44.37628" lon="5.92844">
        <ele>568</ele>
        <time>2019-03-05T14:35:32Z</time>
      </trkpt>
      <trkpt lat="44.37623" lon="5.9284">
        <ele>568</ele>
        <time>2019-03-05T14:35:33Z</time>
      </trkpt>
      <trkpt lat="44.37618" lon="5.92837">
        <ele>568</ele>
        <time>2019-03-05T14:35:34Z</time>
      </trkpt>
      <trkpt lat="44.37613" lon="5.92834">
        <ele>568</ele>
        <time>2019-03-05T14:35:35Z</time>
      </trkpt>
      <trkpt lat="44.37608" lon="5.92831">
        <ele>568</ele>
        <time>2019-03-05T14:35:36Z</time>
      </trkpt>
      <trkpt lat="44.37603" lon="5.92828">
        <ele>568</ele>
        <time>2019-03-05T14:35:37Z</time>
      </trkpt>
      <trkpt lat="44.37598" lon="5.92824">
        <ele>568</ele>
        <time>2019-03-05T14:35:38Z</time>
      </trkpt>
      <trkpt lat="44.37593" lon="5.92821">
        <ele>568</ele>
        <time>2019-03-05T14:35:39Z</time>
      </trkpt>
      <trkpt lat="44.37589" lon="5.92818">
        <ele>568</ele>
        <time>2019-03-05T14:35:40Z</time>
      </trkpt>
      <trkpt lat="44.37584" lon="5.92815">
        <ele>568</ele>
        <time>2019-03-05T14:35:41Z</time>
      </trkpt>
      <trkpt lat="44.37579" lon="5.92811">
        <ele>568</ele>
        <time>2019-03-05T14:35:42Z</time>
      </trkpt>
      <trkpt lat="44.37574" lon="5.92808">
        <ele>568</ele>
        <time>2019-03-05T14:35:43Z</time>
      </trkpt>
      <trkpt lat="44.37569" lon="5.92804">
        <ele>568</ele>
        <time>2019-03-05T14:35:44Z</time>
      </trkpt>
      <trkpt lat="44.37564" lon="5.92801">
        <ele>568</ele>
        <time>2019-03-05T14:35:45Z</time>
      </trkpt>
      <trkpt lat="44.3756" lon="5.92797">
        <ele>568</ele>
        <time>2019-03-05T14:35:46Z</time>
      </trkpt>
      <trkpt lat="44.37555" lon="5.92794">
        <ele>568</ele>
        <time>2019-03-05T14:35:47Z</time>
      </trkpt>
      <trkpt lat="44.3755" lon="5.92791">
        <ele>568</ele>
        <time>2019-03-05T14:35:48Z</time>
      </trkpt>
      <trkpt lat="44.37545" lon="5.92788">
        <ele>568</ele>
        <time>2019-03-05T14:35:49Z</time>
      </trkpt>
      <trkpt lat="44.3754" lon="5.92785">
        <ele>568</ele>
        <time>2019-03-05T14:35:50Z</time>
      </trkpt>
      <trkpt lat="44.37535" lon="5.92782">
        <ele>568</ele>
        <time>2019-03-05T14:35:51Z</time>
      </trkpt>
      <trkpt lat="44.3753" lon="5.92779">
        <ele>568</ele>
        <time>2019-03-05T14:35:52Z</time>
      </trkpt>
      <trkpt lat="44.37525" lon="5.92775">
        <ele>568</ele>
        <time>2019-03-05T14:35:53Z</time>
      </trkpt>
      <trkpt lat="44.3752" lon="5.92772">
        <ele>568</ele>
        <time>2019-03-05T14:35:54Z</time>
      </trkpt>
      <trkpt lat="44.37515" lon="5.92769">
        <ele>568</ele>
        <time>2019-03-05T14:35:55Z</time>
      </trkpt>
      <trkpt lat="44.37511" lon="5.92766">
        <ele>568</ele>
        <time>2019-03-05T14:35:56Z</time>
      </trkpt>
      <trkpt lat="44.37506" lon="5.92762">
        <ele>568</ele>
        <time>2019-03-05T14:35:57Z</time>
      </trkpt>
      <trkpt lat="44.37501" lon="5.92759">
        <ele>568</ele>
        <time>2019-03-05T14:35:58Z</time>
      </trkpt>
      <trkpt lat="44.37496" lon="5.92756">
        <ele>568</ele>
        <time>2019-03-05T14:35:59Z</time>
      </trkpt>
      <trkpt lat="44.37491" lon="5.92753">
        <ele>568</ele>
        <time>2019-03-05T14:36:00Z</time>
      </trkpt>
      <trkpt lat="44.37486" lon="5.9275">
        <ele>568</ele>
        <time>2019-03-05T14:36:01Z</time>
      </trkpt>
      <trkpt lat="44.37482" lon="5.92747">
        <ele>568</ele>
        <time>2019-03-05T14:36:02Z</time>
      </trkpt>
      <trkpt lat="44.37476" lon="5.92743">
        <ele>568</ele>
        <time>2019-03-05T14:36:03Z</time>
      </trkpt>
      <trkpt lat="44.37471" lon="5.9274">
        <ele>568</ele>
        <time>2019-03-05T14:36:04Z</time>
      </trkpt>
      <trkpt lat="44.37466" lon="5.92736">
        <ele>568</ele>
        <time>2019-03-05T14:36:05Z</time>
      </trkpt>
      <trkpt lat="44.37461" lon="5.92733">
        <ele>568</ele>
        <time>2019-03-05T14:36:06Z</time>
      </trkpt>
      <trkpt lat="44.37456" lon="5.9273">
        <ele>568</ele>
        <time>2019-03-05T14:36:07Z</time>
      </trkpt>
      <trkpt lat="44.37451" lon="5.92726">
        <ele>568</ele>
        <time>2019-03-05T14:36:08Z</time>
      </trkpt>
      <trkpt lat="44.37446" lon="5.92723">
        <ele>568</ele>
        <time>2019-03-05T14:36:09Z</time>
      </trkpt>
      <trkpt lat="44.37441" lon="5.92719">
        <ele>568</ele>
        <time>2019-03-05T14:36:10Z</time>
      </trkpt>
      <trkpt lat="44.37436" lon="5.92716">
        <ele>568</ele>
        <time>2019-03-05T14:36:11Z</time>
      </trkpt>
      <trkpt lat="44.37431" lon="5.92712">
        <ele>568</ele>
        <time>2019-03-05T14:36:12Z</time>
      </trkpt>
      <trkpt lat="44.37426" lon="5.92709">
        <ele>568</ele>
        <time>2019-03-05T14:36:13Z</time>
      </trkpt>
      <trkpt lat="44.37421" lon="5.92705">
        <ele>568</ele>
        <time>2019-03-05T14:36:14Z</time>
      </trkpt>
      <trkpt lat="44.37417" lon="5.92702">
        <ele>568</ele>
        <time>2019-03-05T14:36:15Z</time>
      </trkpt>
      <trkpt lat="44.37412" lon="5.92698">
        <ele>568</ele>
        <time>2019-03-05T14:36:16Z</time>
      </trkpt>
      <trkpt lat="44.37407" lon="5.92695">
        <ele>568</ele>
        <time>2019-03-05T14:36:17Z</time>
      </trkpt>
      <trkpt lat="44.37401" lon="5.92691">
        <ele>568</ele>
        <time>2019-03-05T14:36:18Z</time>
      </trkpt>
      <trkpt lat="44.37396" lon="5.92687">
        <ele>568</ele>
        <time>2019-03-05T14:36:19Z</time>
      </trkpt>
      <trkpt lat="44.37392" lon="5.92684">
        <ele>568</ele>
        <time>2019-03-05T14:36:20Z</time>
      </trkpt>
      <trkpt lat="44.37386" lon="5.9268">
        <ele>568</ele>
        <time>2019-03-05T14:36:21Z</time>
      </trkpt>
      <trkpt lat="44.37381" lon="5.92676">
        <ele>568</ele>
        <time>2019-03-05T14:36:22Z</time>
      </trkpt>
      <trkpt lat="44.37376" lon="5.92672">
        <ele>568</ele>
        <time>2019-03-05T14:36:23Z</time>
      </trkpt>
      <trkpt lat="44.37371" lon="5.92668">
        <ele>568</ele>
        <time>2019-03-05T14:36:24Z</time>
      </trkpt>
      <trkpt lat="44.37366" lon="5.92664">
        <ele>568</ele>
        <time>2019-03-05T14:36:25Z</time>
      </trkpt>
      <trkpt lat="44.37361" lon="5.92661">
        <ele>568</ele>
        <time>2019-03-05T14:36:26Z</time>
      </trkpt>
      <trkpt lat="44.37356" lon="5.92657">
        <ele>568</ele>
        <time>2019-03-05T14:36:27Z</time>
      </trkpt>
      <trkpt lat="44.37351" lon="5.92654">
        <ele>568</ele>
        <time>2019-03-05T14:36:28Z</time>
      </trkpt>
      <trkpt lat="44.37346" lon="5.9265">
        <ele>568</ele>
        <time>2019-03-05T14:36:29Z</time>
      </trkpt>
      <trkpt lat="44.37341" lon="5.92646">
        <ele>568</ele>
        <time>2019-03-05T14:36:30Z</time>
      </trkpt>
      <trkpt lat="44.37336" lon="5.92642">
        <ele>568</ele>
        <time>2019-03-05T14:36:31Z</time>
      </trkpt>
      <trkpt lat="44.37331" lon="5.92637">
        <ele>568</ele>
        <time>2019-03-05T14:36:32Z</time>
      </trkpt>
      <trkpt lat="44.37326" lon="5.92633">
        <ele>568</ele>
        <time>2019-03-05T14:36:33Z</time>
      </trkpt>
      <trkpt lat="44.37321" lon="5.92629">
        <ele>568</ele>
        <time>2019-03-05T14:36:34Z</time>
      </trkpt>
      <trkpt lat="44.37316" lon="5.92625">
        <ele>568</ele>
        <time>2019-03-05T14:36:35Z</time>
      </trkpt>
      <trkpt lat="44.3731" lon="5.9262">
        <ele>568</ele>
        <time>2019-03-05T14:36:36Z</time>
      </trkpt>
      <trkpt lat="44.37305" lon="5.92616">
        <ele>568</ele>
        <time>2019-03-05T14:36:37Z</time>
      </trkpt>
      <trkpt lat="44.373" lon="5.92611">
        <ele>568</ele>
        <time>2019-03-05T14:36:38Z</time>
      </trkpt>
      <trkpt lat="44.37295" lon="5.92606">
        <ele>568</ele>
        <time>2019-03-05T14:36:39Z</time>
      </trkpt>
      <trkpt lat="44.37289" lon="5.92601">
        <ele>568</ele>
        <time>2019-03-05T14:36:40Z</time>
      </trkpt>
      <trkpt lat="44.37284" lon="5.92596">
        <ele>568</ele>
        <time>2019-03-05T14:36:41Z</time>
      </trkpt>
      <trkpt lat="44.37278" lon="5.92591">
        <ele>568</ele>
        <time>2019-03-05T14:36:42Z</time>
      </trkpt>
      <trkpt lat="44.37273" lon="5.92586">
        <ele>568</ele>
        <time>2019-03-05T14:36:43Z</time>
      </trkpt>
      <trkpt lat="44.37268" lon="5.92581">
        <ele>568</ele>
        <time>2019-03-05T14:36:44Z</time>
      </trkpt>
      <trkpt lat="44.37263" lon="5.92576">
        <ele>568</ele>
        <time>2019-03-05T14:36:45Z</time>
      </trkpt>
      <trkpt lat="44.37257" lon="5.92571">
        <ele>568</ele>
        <time>2019-03-05T14:36:46Z</time>
      </trkpt>
      <trkpt lat="44.37252" lon="5.92566">
        <ele>568</ele>
        <time>2019-03-05T14:36:47Z</time>
      </trkpt>
      <trkpt lat="44.37247" lon="5.92561">
        <ele>567</ele>
        <time>2019-03-05T14:36:48Z</time>
      </trkpt>
      <trkpt lat="44.37241" lon="5.92555">
        <ele>567</ele>
        <time>2019-03-05T14:36:49Z</time>
      </trkpt>
      <trkpt lat="44.37236" lon="5.9255">
        <ele>566</ele>
        <time>2019-03-05T14:36:50Z</time>
      </trkpt>
      <trkpt lat="44.3723" lon="5.92545">
        <ele>566</ele>
        <time>2019-03-05T14:36:51Z</time>
      </trkpt>
      <trkpt lat="44.37225" lon="5.9254">
        <ele>565</ele>
        <time>2019-03-05T14:36:52Z</time>
      </trkpt>
      <trkpt lat="44.37219" lon="5.92534">
        <ele>565</ele>
        <time>2019-03-05T14:36:53Z</time>
      </trkpt>
      <trkpt lat="44.37213" lon="5.92529">
        <ele>565</ele>
        <time>2019-03-05T14:36:54Z</time>
      </trkpt>
      <trkpt lat="44.37207" lon="5.92523">
        <ele>565</ele>
        <time>2019-03-05T14:36:55Z</time>
      </trkpt>
      <trkpt lat="44.37202" lon="5.92518">
        <ele>565</ele>
        <time>2019-03-05T14:36:56Z</time>
      </trkpt>
      <trkpt lat="44.37196" lon="5.92512">
        <ele>565</ele>
        <time>2019-03-05T14:36:57Z</time>
      </trkpt>
      <trkpt lat="44.3719" lon="5.92507">
        <ele>565</ele>
        <time>2019-03-05T14:36:58Z</time>
      </trkpt>
      <trkpt lat="44.37184" lon="5.92502">
        <ele>565</ele>
        <time>2019-03-05T14:36:59Z</time>
      </trkpt>
      <trkpt lat="44.37178" lon="5.92497">
        <ele>565</ele>
        <time>2019-03-05T14:37:00Z</time>
      </trkpt>
      <trkpt lat="44.37173" lon="5.92492">
        <ele>565</ele>
        <time>2019-03-05T14:37:01Z</time>
      </trkpt>
      <trkpt lat="44.37167" lon="5.92487">
        <ele>565</ele>
        <time>2019-03-05T14:37:02Z</time>
      </trkpt>
      <trkpt lat="44.37162" lon="5.92483">
        <ele>565</ele>
        <time>2019-03-05T14:37:03Z</time>
      </trkpt>
      <trkpt lat="44.37157" lon="5.92478">
        <ele>565</ele>
        <time>2019-03-05T14:37:04Z</time>
      </trkpt>
      <trkpt lat="44.37151" lon="5.92473">
        <ele>565</ele>
        <time>2019-03-05T14:37:05Z</time>
      </trkpt>
      <trkpt lat="44.37146" lon="5.92469">
        <ele>565</ele>
        <time>2019-03-05T14:37:06Z</time>
      </trkpt>
      <trkpt lat="44.37141" lon="5.92464">
        <ele>565</ele>
        <time>2019-03-05T14:37:07Z</time>
      </trkpt>
      <trkpt lat="44.37135" lon="5.9246">
        <ele>565</ele>
        <time>2019-03-05T14:37:08Z</time>
      </trkpt>
      <trkpt lat="44.3713" lon="5.92455">
        <ele>565</ele>
        <time>2019-03-05T14:37:09Z</time>
      </trkpt>
      <trkpt lat="44.37125" lon="5.9245">
        <ele>565</ele>
        <time>2019-03-05T14:37:10Z</time>
      </trkpt>
      <trkpt lat="44.3712" lon="5.92446">
        <ele>565</ele>
        <time>2019-03-05T14:37:11Z</time>
      </trkpt>
      <trkpt lat="44.37115" lon="5.92441">
        <ele>565</ele>
        <time>2019-03-05T14:37:12Z</time>
      </trkpt>
      <trkpt lat="44.3711" lon="5.92437">
        <ele>565</ele>
        <time>2019-03-05T14:37:13Z</time>
      </trkpt>
      <trkpt lat="44.37105" lon="5.92432">
        <ele>565</ele>
        <time>2019-03-05T14:37:14Z</time>
      </trkpt>
      <trkpt lat="44.371" lon="5.92428">
        <ele>565</ele>
        <time>2019-03-05T14:37:15Z</time>
      </trkpt>
      <trkpt lat="44.37095" lon="5.92423">
        <ele>565</ele>
        <time>2019-03-05T14:37:16Z</time>
      </trkpt>
      <trkpt lat="44.3709" lon="5.92419">
        <ele>565</ele>
        <time>2019-03-05T14:37:17Z</time>
      </trkpt>
      <trkpt lat="44.37084" lon="5.92415">
        <ele>565</ele>
        <time>2019-03-05T14:37:18Z</time>
      </trkpt>
      <trkpt lat="44.37079" lon="5.9241">
        <ele>565</ele>
        <time>2019-03-05T14:37:19Z</time>
      </trkpt>
      <trkpt lat="44.37074" lon="5.92406">
        <ele>565</ele>
        <time>2019-03-05T14:37:20Z</time>
      </trkpt>
      <trkpt lat="44.37069" lon="5.92402">
        <ele>565</ele>
        <time>2019-03-05T14:37:21Z</time>
      </trkpt>
      <trkpt lat="44.37064" lon="5.92397">
        <ele>565</ele>
        <time>2019-03-05T14:37:22Z</time>
      </trkpt>
      <trkpt lat="44.37059" lon="5.92393">
        <ele>565</ele>
        <time>2019-03-05T14:37:23Z</time>
      </trkpt>
      <trkpt lat="44.37054" lon="5.92389">
        <ele>565</ele>
        <time>2019-03-05T14:37:24Z</time>
      </trkpt>
      <trkpt lat="44.3705" lon="5.92385">
        <ele>565</ele>
        <time>2019-03-05T14:37:25Z</time>
      </trkpt>
      <trkpt lat="44.37045" lon="5.92382">
        <ele>565</ele>
        <time>2019-03-05T14:37:26Z</time>
      </trkpt>
      <trkpt lat="44.3704" lon="5.92378">
        <ele>566</ele>
        <time>2019-03-05T14:37:27Z</time>
      </trkpt>
      <trkpt lat="44.37036" lon="5.92374">
        <ele>566</ele>
        <time>2019-03-05T14:37:28Z</time>
      </trkpt>
      <trkpt lat="44.37031" lon="5.9237">
        <ele>566</ele>
        <time>2019-03-05T14:37:29Z</time>
      </trkpt>
      <trkpt lat="44.37027" lon="5.92366">
        <ele>566</ele>
        <time>2019-03-05T14:37:30Z</time>
      </trkpt>
      <trkpt lat="44.37022" lon="5.92363">
        <ele>567</ele>
        <time>2019-03-05T14:37:31Z</time>
      </trkpt>
      <trkpt lat="44.37018" lon="5.92359">
        <ele>567</ele>
        <time>2019-03-05T14:37:32Z</time>
      </trkpt>
      <trkpt lat="44.37013" lon="5.92356">
        <ele>567</ele>
        <time>2019-03-05T14:37:33Z</time>
      </trkpt>
      <trkpt lat="44.37009" lon="5.92352">
        <ele>567</ele>
        <time>2019-03-05T14:37:34Z</time>
      </trkpt>
      <trkpt lat="44.37004" lon="5.92348">
        <ele>567</ele>
        <time>2019-03-05T14:37:35Z</time>
      </trkpt>
      <trkpt lat="44.37" lon="5.92345">
        <ele>567</ele>
        <time>2019-03-05T14:37:36Z</time>
      </trkpt>
      <trkpt lat="44.36995" lon="5.92342">
        <ele>567</ele>
        <time>2019-03-05T14:37:37Z</time>
      </trkpt>
      <trkpt lat="44.36991" lon="5.92338">
        <ele>567</ele>
        <time>2019-03-05T14:37:38Z</time>
      </trkpt>
      <trkpt lat="44.36987" lon="5.92335">
        <ele>567</ele>
        <time>2019-03-05T14:37:39Z</time>
      </trkpt>
      <trkpt lat="44.36983" lon="5.92331">
        <ele>567</ele>
        <time>2019-03-05T14:37:40Z</time>
      </trkpt>
      <trkpt lat="44.36979" lon="5.92328">
        <ele>567</ele>
        <time>2019-03-05T14:37:41Z</time>
      </trkpt>
      <trkpt lat="44.36974" lon="5.92324">
        <ele>567</ele>
        <time>2019-03-05T14:37:42Z</time>
      </trkpt>
      <trkpt lat="44.3697" lon="5.92321">
        <ele>567</ele>
        <time>2019-03-05T14:37:43Z</time>
      </trkpt>
      <trkpt lat="44.36966" lon="5.92318">
        <ele>567</ele>
        <time>2019-03-05T14:37:44Z</time>
      </trkpt>
      <trkpt lat="44.36961" lon="5.92314">
        <ele>567</ele>
        <time>2019-03-05T14:37:45Z</time>
      </trkpt>
      <trkpt lat="44.36957" lon="5.92311">
        <ele>567</ele>
        <time>2019-03-05T14:37:46Z</time>
      </trkpt>
      <trkpt lat="44.36953" lon="5.92307">
        <ele>567</ele>
        <time>2019-03-05T14:37:47Z</time>
      </trkpt>
      <trkpt lat="44.36948" lon="5.92304">
        <ele>567</ele>
        <time>2019-03-05T14:37:48Z</time>
      </trkpt>
      <trkpt lat="44.36944" lon="5.923">
        <ele>567</ele>
        <time>2019-03-05T14:37:49Z</time>
      </trkpt>
      <trkpt lat="44.3694" lon="5.92297">
        <ele>567</ele>
        <time>2019-03-05T14:37:50Z</time>
      </trkpt>
      <trkpt lat="44.36935" lon="5.92293">
        <ele>567</ele>
        <time>2019-03-05T14:37:51Z</time>
      </trkpt>
      <trkpt lat="44.36931" lon="5.92289">
        <ele>567</ele>
        <time>2019-03-05T14:37:52Z</time>
      </trkpt>
      <trkpt lat="44.36927" lon="5.92286">
        <ele>567</ele>
        <time>2019-03-05T14:37:53Z</time>
      </trkpt>
      <trkpt lat="44.36922" lon="5.92283">
        <ele>567</ele>
        <time>2019-03-05T14:37:54Z</time>
      </trkpt>
      <trkpt lat="44.36919" lon="5.92279">
        <ele>567</ele>
        <time>2019-03-05T14:37:55Z</time>
      </trkpt>
      <trkpt lat="44.36914" lon="5.92276">
        <ele>567</ele>
        <time>2019-03-05T14:37:56Z</time>
      </trkpt>
      <trkpt lat="44.3691" lon="5.92274">
        <ele>567</ele>
        <time>2019-03-05T14:37:57Z</time>
      </trkpt>
      <trkpt lat="44.36906" lon="5.92271">
        <ele>567</ele>
        <time>2019-03-05T14:37:58Z</time>
      </trkpt>
      <trkpt lat="44.36901" lon="5.92268">
        <ele>567</ele>
        <time>2019-03-05T14:37:59Z</time>
      </trkpt>
      <trkpt lat="44.36897" lon="5.92265">
        <ele>567</ele>
        <time>2019-03-05T14:38:00Z</time>
      </trkpt>
      <trkpt lat="44.36893" lon="5.92263">
        <ele>567</ele>
        <time>2019-03-05T14:38:01Z</time>
      </trkpt>
      <trkpt lat="44.36889" lon="5.92261">
        <ele>567</ele>
        <time>2019-03-05T14:38:02Z</time>
      </trkpt>
      <trkpt lat="44.36885" lon="5.92258">
        <ele>567</ele>
        <time>2019-03-05T14:38:03Z</time>
      </trkpt>
      <trkpt lat="44.36881" lon="5.92255">
        <ele>567</ele>
        <time>2019-03-05T14:38:04Z</time>
      </trkpt>
      <trkpt lat="44.36877" lon="5.92253">
        <ele>567</ele>
        <time>2019-03-05T14:38:05Z</time>
      </trkpt>
      <trkpt lat="44.36873" lon="5.92251">
        <ele>567</ele>
        <time>2019-03-05T14:38:06Z</time>
      </trkpt>
      <trkpt lat="44.36869" lon="5.92249">
        <ele>567</ele>
        <time>2019-03-05T14:38:07Z</time>
      </trkpt>
      <trkpt lat="44.36865" lon="5.92246">
        <ele>567</ele>
        <time>2019-03-05T14:38:08Z</time>
      </trkpt>
      <trkpt lat="44.36861" lon="5.92244">
        <ele>567</ele>
        <time>2019-03-05T14:38:09Z</time>
      </trkpt>
      <trkpt lat="44.36857" lon="5.92242">
        <ele>567</ele>
        <time>2019-03-05T14:38:10Z</time>
      </trkpt>
      <trkpt lat="44.36853" lon="5.9224">
        <ele>567</ele>
        <time>2019-03-05T14:38:11Z</time>
      </trkpt>
      <trkpt lat="44.36849" lon="5.92237">
        <ele>568</ele>
        <time>2019-03-05T14:38:12Z</time>
      </trkpt>
      <trkpt lat="44.36846" lon="5.92235">
        <ele>568</ele>
        <time>2019-03-05T14:38:13Z</time>
      </trkpt>
      <trkpt lat="44.36842" lon="5.92233">
        <ele>568</ele>
        <time>2019-03-05T14:38:14Z</time>
      </trkpt>
      <trkpt lat="44.36839" lon="5.9223">
        <ele>568</ele>
        <time>2019-03-05T14:38:15Z</time>
      </trkpt>
      <trkpt lat="44.36835" lon="5.92228">
        <ele>569</ele>
        <time>2019-03-05T14:38:16Z</time>
      </trkpt>
      <trkpt lat="44.36832" lon="5.92226">
        <ele>569</ele>
        <time>2019-03-05T14:38:17Z</time>
      </trkpt>
      <trkpt lat="44.36829" lon="5.92224">
        <ele>569</ele>
        <time>2019-03-05T14:38:18Z</time>
      </trkpt>
      <trkpt lat="44.36826" lon="5.92222">
        <ele>569</ele>
        <time>2019-03-05T14:38:19Z</time>
      </trkpt>
      <trkpt lat="44.36823" lon="5.92221">
        <ele>569</ele>
        <time>2019-03-05T14:38:20Z</time>
      </trkpt>
      <trkpt lat="44.36821" lon="5.9222">
        <ele>569</ele>
        <time>2019-03-05T14:38:21Z</time>
      </trkpt>
      <trkpt lat="44.36818" lon="5.92219">
        <ele>569</ele>
        <time>2019-03-05T14:38:22Z</time>
      </trkpt>
      <trkpt lat="44.36814" lon="5.92217">
        <ele>569</ele>
        <time>2019-03-05T14:38:23Z</time>
      </trkpt>
      <trkpt lat="44.36811" lon="5.92215">
        <ele>569</ele>
        <time>2019-03-05T14:38:24Z</time>
      </trkpt>
      <trkpt lat="44.36807" lon="5.92213">
        <ele>569</ele>
        <time>2019-03-05T14:38:25Z</time>
      </trkpt>
      <trkpt lat="44.36802" lon="5.9221">
        <ele>569</ele>
        <time>2019-03-05T14:38:26Z</time>
      </trkpt>
      <trkpt lat="44.36797" lon="5.92207">
        <ele>569</ele>
        <time>2019-03-05T14:38:27Z</time>
      </trkpt>
      <trkpt lat="44.36792" lon="5.92204">
        <ele>569</ele>
        <time>2019-03-05T14:38:28Z</time>
      </trkpt>
      <trkpt lat="44.36786" lon="5.92201">
        <ele>569</ele>
        <time>2019-03-05T14:38:29Z</time>
      </trkpt>
      <trkpt lat="44.36779" lon="5.92198">
        <ele>569</ele>
        <time>2019-03-05T14:38:30Z</time>
      </trkpt>
      <trkpt lat="44.36772" lon="5.92195">
        <ele>569</ele>
        <time>2019-03-05T14:38:31Z</time>
      </trkpt>
      <trkpt lat="44.36765" lon="5.92191">
        <ele>569</ele>
        <time>2019-03-05T14:38:32Z</time>
      </trkpt>
      <trkpt lat="44.36758" lon="5.92188">
        <ele>569</ele>
        <time>2019-03-05T14:38:33Z</time>
      </trkpt>
      <trkpt lat="44.3675" lon="5.92185">
        <ele>569</ele>
        <time>2019-03-05T14:38:34Z</time>
      </trkpt>
      <trkpt lat="44.36742" lon="5.92183">
        <ele>569</ele>
        <time>2019-03-05T14:38:35Z</time>
      </trkpt>
      <trkpt lat="44.36734" lon="5.9218">
        <ele>569</ele>
        <time>2019-03-05T14:38:36Z</time>
      </trkpt>
      <trkpt lat="44.36727" lon="5.92178">
        <ele>569</ele>
        <time>2019-03-05T14:38:37Z</time>
      </trkpt>
      <trkpt lat="44.3672" lon="5.92176">
        <ele>569</ele>
        <time>2019-03-05T14:38:38Z</time>
      </trkpt>
      <trkpt lat="44.36712" lon="5.92174">
        <ele>569</ele>
        <time>2019-03-05T14:38:39Z</time>
      </trkpt>
      <trkpt lat="44.36705" lon="5.92172">
        <ele>569</ele>
        <time>2019-03-05T14:38:40Z</time>
      </trkpt>
      <trkpt lat="44.36698" lon="5.9217">
        <ele>569</ele>
        <time>2019-03-05T14:38:41Z</time>
      </trkpt>
      <trkpt lat="44.36691" lon="5.92169">
        <ele>569</ele>
        <time>2019-03-05T14:38:42Z</time>
      </trkpt>
      <trkpt lat="44.36684" lon="5.92167">
        <ele>569</ele>
        <time>2019-03-05T14:38:43Z</time>
      </trkpt>
      <trkpt lat="44.36678" lon="5.92165">
        <ele>569</ele>
        <time>2019-03-05T14:38:44Z</time>
      </trkpt>
      <trkpt lat="44.36671" lon="5.92164">
        <ele>569</ele>
        <time>2019-03-05T14:38:45Z</time>
      </trkpt>
      <trkpt lat="44.36665" lon="5.92162">
        <ele>569</ele>
        <time>2019-03-05T14:38:46Z</time>
      </trkpt>
      <trkpt lat="44.36658" lon="5.9216">
        <ele>569</ele>
        <time>2019-03-05T14:38:47Z</time>
      </trkpt>
      <trkpt lat="44.36652" lon="5.92158">
        <ele>569</ele>
        <time>2019-03-05T14:38:48Z</time>
      </trkpt>
      <trkpt lat="44.36646" lon="5.92156">
        <ele>569</ele>
        <time>2019-03-05T14:38:49Z</time>
      </trkpt>
      <trkpt lat="44.36639" lon="5.92154">
        <ele>569</ele>
        <time>2019-03-05T14:38:50Z</time>
      </trkpt>
      <trkpt lat="44.36633" lon="5.92152">
        <ele>569</ele>
        <time>2019-03-05T14:38:51Z</time>
      </trkpt>
      <trkpt lat="44.36627" lon="5.92149">
        <ele>569</ele>
        <time>2019-03-05T14:38:52Z</time>
      </trkpt>
      <trkpt lat="44.3662" lon="5.92147">
        <ele>569</ele>
        <time>2019-03-05T14:38:53Z</time>
      </trkpt>
      <trkpt lat="44.36614" lon="5.92145">
        <ele>569</ele>
        <time>2019-03-05T14:38:54Z</time>
      </trkpt>
      <trkpt lat="44.36608" lon="5.92142">
        <ele>569</ele>
        <time>2019-03-05T14:38:55Z</time>
      </trkpt>
      <trkpt lat="44.36602" lon="5.92139">
        <ele>569</ele>
        <time>2019-03-05T14:38:56Z</time>
      </trkpt>
      <trkpt lat="44.36596" lon="5.92136">
        <ele>569</ele>
        <time>2019-03-05T14:38:57Z</time>
      </trkpt>
      <trkpt lat="44.3659" lon="5.92133">
        <ele>569</ele>
        <time>2019-03-05T14:38:58Z</time>
      </trkpt>
      <trkpt lat="44.36584" lon="5.9213">
        <ele>569</ele>
        <time>2019-03-05T14:38:59Z</time>
      </trkpt>
      <trkpt lat="44.36578" lon="5.92127">
        <ele>569</ele>
        <time>2019-03-05T14:39:00Z</time>
      </trkpt>
      <trkpt lat="44.36573" lon="5.92123">
        <ele>569</ele>
        <time>2019-03-05T14:39:01Z</time>
      </trkpt>
      <trkpt lat="44.36567" lon="5.9212">
        <ele>569</ele>
        <time>2019-03-05T14:39:02Z</time>
      </trkpt>
      <trkpt lat="44.36562" lon="5.92116">
        <ele>569</ele>
        <time>2019-03-05T14:39:03Z</time>
      </trkpt>
      <trkpt lat="44.36556" lon="5.92112">
        <ele>569</ele>
        <time>2019-03-05T14:39:04Z</time>
      </trkpt>
      <trkpt lat="44.36551" lon="5.92108">
        <ele>569</ele>
        <time>2019-03-05T14:39:05Z</time>
      </trkpt>
      <trkpt lat="44.36545" lon="5.92104">
        <ele>569</ele>
        <time>2019-03-05T14:39:06Z</time>
      </trkpt>
      <trkpt lat="44.36539" lon="5.921">
        <ele>569</ele>
        <time>2019-03-05T14:39:07Z</time>
      </trkpt>
      <trkpt lat="44.36534" lon="5.92097">
        <ele>569</ele>
        <time>2019-03-05T14:39:08Z</time>
      </trkpt>
      <trkpt lat="44.36528" lon="5.92093">
        <ele>569</ele>
        <time>2019-03-05T14:39:09Z</time>
      </trkpt>
      <trkpt lat="44.36523" lon="5.92089">
        <ele>569</ele>
        <time>2019-03-05T14:39:10Z</time>
      </trkpt>
      <trkpt lat="44.36517" lon="5.92085">
        <ele>569</ele>
        <time>2019-03-05T14:39:11Z</time>
      </trkpt>
      <trkpt lat="44.36512" lon="5.92081">
        <ele>569</ele>
        <time>2019-03-05T14:39:12Z</time>
      </trkpt>
      <trkpt lat="44.36507" lon="5.92077">
        <ele>569</ele>
        <time>2019-03-05T14:39:13Z</time>
      </trkpt>
      <trkpt lat="44.36501" lon="5.92074">
        <ele>569</ele>
        <time>2019-03-05T14:39:14Z</time>
      </trkpt>
      <trkpt lat="44.36496" lon="5.9207">
        <ele>569</ele>
        <time>2019-03-05T14:39:15Z</time>
      </trkpt>
      <trkpt lat="44.3649" lon="5.92066">
        <ele>569</ele>
        <time>2019-03-05T14:39:16Z</time>
      </trkpt>
      <trkpt lat="44.36485" lon="5.92063">
        <ele>569</ele>
        <time>2019-03-05T14:39:17Z</time>
      </trkpt>
      <trkpt lat="44.36479" lon="5.92059">
        <ele>569</ele>
        <time>2019-03-05T14:39:18Z</time>
      </trkpt>
      <trkpt lat="44.36473" lon="5.92055">
        <ele>569</ele>
        <time>2019-03-05T14:39:19Z</time>
      </trkpt>
      <trkpt lat="44.36468" lon="5.92051">
        <ele>569</ele>
        <time>2019-03-05T14:39:20Z</time>
      </trkpt>
      <trkpt lat="44.36462" lon="5.92048">
        <ele>569</ele>
        <time>2019-03-05T14:39:21Z</time>
      </trkpt>
      <trkpt lat="44.36456" lon="5.92044">
        <ele>569</ele>
        <time>2019-03-05T14:39:22Z</time>
      </trkpt>
      <trkpt lat="44.36451" lon="5.9204">
        <ele>569</ele>
        <time>2019-03-05T14:39:23Z</time>
      </trkpt>
      <trkpt lat="44.36445" lon="5.92036">
        <ele>569</ele>
        <time>2019-03-05T14:39:24Z</time>
      </trkpt>
      <trkpt lat="44.3644" lon="5.92031">
        <ele>569</ele>
        <time>2019-03-05T14:39:25Z</time>
      </trkpt>
      <trkpt lat="44.36434" lon="5.92028">
        <ele>569</ele>
        <time>2019-03-05T14:39:26Z</time>
      </trkpt>
      <trkpt lat="44.36429" lon="5.92024">
        <ele>569</ele>
        <time>2019-03-05T14:39:27Z</time>
      </trkpt>
      <trkpt lat="44.36424" lon="5.9202">
        <ele>569</ele>
        <time>2019-03-05T14:39:28Z</time>
      </trkpt>
      <trkpt lat="44.36418" lon="5.92016">
        <ele>569</ele>
        <time>2019-03-05T14:39:29Z</time>
      </trkpt>
      <trkpt lat="44.36413" lon="5.92013">
        <ele>569</ele>
        <time>2019-03-05T14:39:30Z</time>
      </trkpt>
      <trkpt lat="44.36407" lon="5.92009">
        <ele>569</ele>
        <time>2019-03-05T14:39:31Z</time>
      </trkpt>
      <trkpt lat="44.36402" lon="5.92006">
        <ele>569</ele>
        <time>2019-03-05T14:39:32Z</time>
      </trkpt>
      <trkpt lat="44.36397" lon="5.92002">
        <ele>569</ele>
        <time>2019-03-05T14:39:33Z</time>
      </trkpt>
      <trkpt lat="44.36392" lon="5.91998">
        <ele>569</ele>
        <time>2019-03-05T14:39:34Z</time>
      </trkpt>
      <trkpt lat="44.36387" lon="5.91994">
        <ele>569</ele>
        <time>2019-03-05T14:39:35Z</time>
      </trkpt>
      <trkpt lat="44.36382" lon="5.91991">
        <ele>569</ele>
        <time>2019-03-05T14:39:36Z</time>
      </trkpt>
      <trkpt lat="44.36377" lon="5.91988">
        <ele>569</ele>
        <time>2019-03-05T14:39:37Z</time>
      </trkpt>
      <trkpt lat="44.36372" lon="5.91984">
        <ele>569</ele>
        <time>2019-03-05T14:39:38Z</time>
      </trkpt>
      <trkpt lat="44.36367" lon="5.9198">
        <ele>569</ele>
        <time>2019-03-05T14:39:39Z</time>
      </trkpt>
      <trkpt lat="44.36362" lon="5.91976">
        <ele>569</ele>
        <time>2019-03-05T14:39:40Z</time>
      </trkpt>
      <trkpt lat="44.36356" lon="5.91972">
        <ele>569</ele>
        <time>2019-03-05T14:39:41Z</time>
      </trkpt>
      <trkpt lat="44.36351" lon="5.91968">
        <ele>569</ele>
        <time>2019-03-05T14:39:42Z</time>
      </trkpt>
      <trkpt lat="44.36346" lon="5.91965">
        <ele>569</ele>
        <time>2019-03-05T14:39:43Z</time>
      </trkpt>
      <trkpt lat="44.3634" lon="5.91961">
        <ele>569</ele>
        <time>2019-03-05T14:39:44Z</time>
      </trkpt>
      <trkpt lat="44.36335" lon="5.91958">
        <ele>569</ele>
        <time>2019-03-05T14:39:45Z</time>
      </trkpt>
      <trkpt lat="44.36329" lon="5.91954">
        <ele>569</ele>
        <time>2019-03-05T14:39:46Z</time>
      </trkpt>
      <trkpt lat="44.36324" lon="5.9195">
        <ele>569</ele>
        <time>2019-03-05T14:39:47Z</time>
      </trkpt>
      <trkpt lat="44.36318" lon="5.91946">
        <ele>569</ele>
        <time>2019-03-05T14:39:48Z</time>
      </trkpt>
      <trkpt lat="44.36313" lon="5.91942">
        <ele>569</ele>
        <time>2019-03-05T14:39:49Z</time>
      </trkpt>
      <trkpt lat="44.36307" lon="5.91939">
        <ele>569</ele>
        <time>2019-03-05T14:39:50Z</time>
      </trkpt>
      <trkpt lat="44.36302" lon="5.91935">
        <ele>569</ele>
        <time>2019-03-05T14:39:51Z</time>
      </trkpt>
      <trkpt lat="44.36296" lon="5.91931">
        <ele>569</ele>
        <time>2019-03-05T14:39:52Z</time>
      </trkpt>
      <trkpt lat="44.36291" lon="5.91927">
        <ele>569</ele>
        <time>2019-03-05T14:39:53Z</time>
      </trkpt>
      <trkpt lat="44.36286" lon="5.91924">
        <ele>569</ele>
        <time>2019-03-05T14:39:54Z</time>
      </trkpt>
      <trkpt lat="44.3628" lon="5.91921">
        <ele>569</ele>
        <time>2019-03-05T14:39:55Z</time>
      </trkpt>
      <trkpt lat="44.36275" lon="5.91917">
        <ele>569</ele>
        <time>2019-03-05T14:39:56Z</time>
      </trkpt>
      <trkpt lat="44.3627" lon="5.91914">
        <ele>569</ele>
        <time>2019-03-05T14:39:57Z</time>
      </trkpt>
      <trkpt lat="44.36265" lon="5.9191">
        <ele>569</ele>
        <time>2019-03-05T14:39:58Z</time>
      </trkpt>
      <trkpt lat="44.36259" lon="5.91907">
        <ele>569</ele>
        <time>2019-03-05T14:39:59Z</time>
      </trkpt>
      <trkpt lat="44.36254" lon="5.91903">
        <ele>569</ele>
        <time>2019-03-05T14:40:00Z</time>
      </trkpt>
      <trkpt lat="44.36249" lon="5.919">
        <ele>569</ele>
        <time>2019-03-05T14:40:01Z</time>
      </trkpt>
      <trkpt lat="44.36244" lon="5.91896">
        <ele>569</ele>
        <time>2019-03-05T14:40:02Z</time>
      </trkpt>
      <trkpt lat="44.36239" lon="5.91892">
        <ele>569</ele>
        <time>2019-03-05T14:40:03Z</time>
      </trkpt>
      <trkpt lat="44.36234" lon="5.91889">
        <ele>569</ele>
        <time>2019-03-05T14:40:04Z</time>
      </trkpt>
      <trkpt lat="44.36229" lon="5.91886">
        <ele>569</ele>
        <time>2019-03-05T14:40:05Z</time>
      </trkpt>
      <trkpt lat="44.36224" lon="5.91882">
        <ele>569</ele>
        <time>2019-03-05T14:40:06Z</time>
      </trkpt>
      <trkpt lat="44.36219" lon="5.91879">
        <ele>569</ele>
        <time>2019-03-05T14:40:07Z</time>
      </trkpt>
      <trkpt lat="44.36213" lon="5.91875">
        <ele>569</ele>
        <time>2019-03-05T14:40:08Z</time>
      </trkpt>
      <trkpt lat="44.36208" lon="5.91871">
        <ele>569</ele>
        <time>2019-03-05T14:40:09Z</time>
      </trkpt>
      <trkpt lat="44.36203" lon="5.91868">
        <ele>569</ele>
        <time>2019-03-05T14:40:10Z</time>
      </trkpt>
      <trkpt lat="44.36197" lon="5.91865">
        <ele>569</ele>
        <time>2019-03-05T14:40:11Z</time>
      </trkpt>
      <trkpt lat="44.36192" lon="5.91861">
        <ele>569</ele>
        <time>2019-03-05T14:40:12Z</time>
      </trkpt>
      <trkpt lat="44.36187" lon="5.91857">
        <ele>569</ele>
        <time>2019-03-05T14:40:13Z</time>
      </trkpt>
      <trkpt lat="44.36181" lon="5.91854">
        <ele>569</ele>
        <time>2019-03-05T14:40:14Z</time>
      </trkpt>
      <trkpt lat="44.36176" lon="5.9185">
        <ele>569</ele>
        <time>2019-03-05T14:40:15Z</time>
      </trkpt>
      <trkpt lat="44.36171" lon="5.91846">
        <ele>569</ele>
        <time>2019-03-05T14:40:16Z</time>
      </trkpt>
      <trkpt lat="44.36165" lon="5.91842">
        <ele>569</ele>
        <time>2019-03-05T14:40:17Z</time>
      </trkpt>
      <trkpt lat="44.36159" lon="5.91838">
        <ele>569</ele>
        <time>2019-03-05T14:40:18Z</time>
      </trkpt>
      <trkpt lat="44.36154" lon="5.91834">
        <ele>569</ele>
        <time>2019-03-05T14:40:19Z</time>
      </trkpt>
      <trkpt lat="44.36148" lon="5.9183">
        <ele>569</ele>
        <time>2019-03-05T14:40:20Z</time>
      </trkpt>
      <trkpt lat="44.36142" lon="5.91827">
        <ele>569</ele>
        <time>2019-03-05T14:40:21Z</time>
      </trkpt>
      <trkpt lat="44.36137" lon="5.91823">
        <ele>569</ele>
        <time>2019-03-05T14:40:22Z</time>
      </trkpt>
      <trkpt lat="44.36131" lon="5.91819">
        <ele>569</ele>
        <time>2019-03-05T14:40:23Z</time>
      </trkpt>
      <trkpt lat="44.36125" lon="5.91815">
        <ele>569</ele>
        <time>2019-03-05T14:40:24Z</time>
      </trkpt>
      <trkpt lat="44.3612" lon="5.91811">
        <ele>569</ele>
        <time>2019-03-05T14:40:25Z</time>
      </trkpt>
      <trkpt lat="44.36114" lon="5.91807">
        <ele>569</ele>
        <time>2019-03-05T14:40:26Z</time>
      </trkpt>
      <trkpt lat="44.36108" lon="5.91803">
        <ele>569</ele>
        <time>2019-03-05T14:40:27Z</time>
      </trkpt>
      <trkpt lat="44.36102" lon="5.918">
        <ele>569</ele>
        <time>2019-03-05T14:40:28Z</time>
      </trkpt>
      <trkpt lat="44.36096" lon="5.91796">
        <ele>569</ele>
        <time>2019-03-05T14:40:29Z</time>
      </trkpt>
      <trkpt lat="44.3609" lon="5.91792">
        <ele>569</ele>
        <time>2019-03-05T14:40:30Z</time>
      </trkpt>
      <trkpt lat="44.36085" lon="5.91788">
        <ele>569</ele>
        <time>2019-03-05T14:40:31Z</time>
      </trkpt>
      <trkpt lat="44.36079" lon="5.91783">
        <ele>569</ele>
        <time>2019-03-05T14:40:32Z</time>
      </trkpt>
      <trkpt lat="44.36074" lon="5.91779">
        <ele>569</ele>
        <time>2019-03-05T14:40:33Z</time>
      </trkpt>
      <trkpt lat="44.36068" lon="5.91775">
        <ele>569</ele>
        <time>2019-03-05T14:40:34Z</time>
      </trkpt>
      <trkpt lat="44.36062" lon="5.9177">
        <ele>569</ele>
        <time>2019-03-05T14:40:35Z</time>
      </trkpt>
      <trkpt lat="44.36056" lon="5.91766">
        <ele>569</ele>
        <time>2019-03-05T14:40:36Z</time>
      </trkpt>
      <trkpt lat="44.3605" lon="5.91762">
        <ele>569</ele>
        <time>2019-03-05T14:40:37Z</time>
      </trkpt>
      <trkpt lat="44.36045" lon="5.91757">
        <ele>569</ele>
        <time>2019-03-05T14:40:38Z</time>
      </trkpt>
      <trkpt lat="44.36039" lon="5.91753">
        <ele>569</ele>
        <time>2019-03-05T14:40:39Z</time>
      </trkpt>
      <trkpt lat="44.36034" lon="5.91749">
        <ele>569</ele>
        <time>2019-03-05T14:40:40Z</time>
      </trkpt>
      <trkpt lat="44.36028" lon="5.91745">
        <ele>569</ele>
        <time>2019-03-05T14:40:41Z</time>
      </trkpt>
      <trkpt lat="44.36022" lon="5.91741">
        <ele>569</ele>
        <time>2019-03-05T14:40:42Z</time>
      </trkpt>
      <trkpt lat="44.36017" lon="5.91737">
        <ele>569</ele>
        <time>2019-03-05T14:40:43Z</time>
      </trkpt>
      <trkpt lat="44.36011" lon="5.91733">
        <ele>569</ele>
        <time>2019-03-05T14:40:44Z</time>
      </trkpt>
      <trkpt lat="44.36005" lon="5.9173">
        <ele>569</ele>
        <time>2019-03-05T14:40:45Z</time>
      </trkpt>
      <trkpt lat="44.36" lon="5.91726">
        <ele>569</ele>
        <time>2019-03-05T14:40:46Z</time>
      </trkpt>
      <trkpt lat="44.35994" lon="5.91722">
        <ele>569</ele>
        <time>2019-03-05T14:40:47Z</time>
      </trkpt>
      <trkpt lat="44.35988" lon="5.91718">
        <ele>569</ele>
        <time>2019-03-05T14:40:48Z</time>
      </trkpt>
      <trkpt lat="44.35983" lon="5.91714">
        <ele>569</ele>
        <time>2019-03-05T14:40:49Z</time>
      </trkpt>
      <trkpt lat="44.35977" lon="5.91711">
        <ele>569</ele>
        <time>2019-03-05T14:40:50Z</time>
      </trkpt>
      <trkpt lat="44.35971" lon="5.91706">
        <ele>569</ele>
        <time>2019-03-05T14:40:51Z</time>
      </trkpt>
      <trkpt lat="44.35966" lon="5.91702">
        <ele>569</ele>
        <time>2019-03-05T14:40:52Z</time>
      </trkpt>
      <trkpt lat="44.3596" lon="5.91698">
        <ele>569</ele>
        <time>2019-03-05T14:40:53Z</time>
      </trkpt>
      <trkpt lat="44.35955" lon="5.91693">
        <ele>569</ele>
        <time>2019-03-05T14:40:54Z</time>
      </trkpt>
      <trkpt lat="44.35949" lon="5.9169">
        <ele>569</ele>
        <time>2019-03-05T14:40:55Z</time>
      </trkpt>
      <trkpt lat="44.35943" lon="5.91686">
        <ele>569</ele>
        <time>2019-03-05T14:40:56Z</time>
      </trkpt>
      <trkpt lat="44.35937" lon="5.91682">
        <ele>569</ele>
        <time>2019-03-05T14:40:57Z</time>
      </trkpt>
      <trkpt lat="44.35931" lon="5.91678">
        <ele>569</ele>
        <time>2019-03-05T14:40:58Z</time>
      </trkpt>
      <trkpt lat="44.35926" lon="5.91674">
        <ele>569</ele>
        <time>2019-03-05T14:40:59Z</time>
      </trkpt>
      <trkpt lat="44.3592" lon="5.91669">
        <ele>569</ele>
        <time>2019-03-05T14:41:00Z</time>
      </trkpt>
      <trkpt lat="44.35914" lon="5.91665">
        <ele>569</ele>
        <time>2019-03-05T14:41:01Z</time>
      </trkpt>
      <trkpt lat="44.35908" lon="5.91662">
        <ele>569</ele>
        <time>2019-03-05T14:41:02Z</time>
      </trkpt>
      <trkpt lat="44.35902" lon="5.91658">
        <ele>569</ele>
        <time>2019-03-05T14:41:03Z</time>
      </trkpt>
      <trkpt lat="44.35896" lon="5.91654">
        <ele>569</ele>
        <time>2019-03-05T14:41:04Z</time>
      </trkpt>
      <trkpt lat="44.3589" lon="5.9165">
        <ele>569</ele>
        <time>2019-03-05T14:41:05Z</time>
      </trkpt>
      <trkpt lat="44.35884" lon="5.91647">
        <ele>569</ele>
        <time>2019-03-05T14:41:06Z</time>
      </trkpt>
      <trkpt lat="44.35878" lon="5.91643">
        <ele>569</ele>
        <time>2019-03-05T14:41:07Z</time>
      </trkpt>
      <trkpt lat="44.35872" lon="5.91639">
        <ele>569</ele>
        <time>2019-03-05T14:41:08Z</time>
      </trkpt>
      <trkpt lat="44.35867" lon="5.91635">
        <ele>569</ele>
        <time>2019-03-05T14:41:09Z</time>
      </trkpt>
      <trkpt lat="44.35861" lon="5.91631">
        <ele>569</ele>
        <time>2019-03-05T14:41:10Z</time>
      </trkpt>
      <trkpt lat="44.35855" lon="5.91627">
        <ele>569</ele>
        <time>2019-03-05T14:41:11Z</time>
      </trkpt>
      <trkpt lat="44.35849" lon="5.91623">
        <ele>569</ele>
        <time>2019-03-05T14:41:12Z</time>
      </trkpt>
      <trkpt lat="44.35844" lon="5.91619">
        <ele>569</ele>
        <time>2019-03-05T14:41:13Z</time>
      </trkpt>
      <trkpt lat="44.35838" lon="5.91615">
        <ele>569</ele>
        <time>2019-03-05T14:41:14Z</time>
      </trkpt>
      <trkpt lat="44.35833" lon="5.91611">
        <ele>569</ele>
        <time>2019-03-05T14:41:15Z</time>
      </trkpt>
      <trkpt lat="44.35828" lon="5.91607">
        <ele>569</ele>
        <time>2019-03-05T14:41:16Z</time>
      </trkpt>
      <trkpt lat="44.35823" lon="5.91603">
        <ele>569</ele>
        <time>2019-03-05T14:41:17Z</time>
      </trkpt>
      <trkpt lat="44.35817" lon="5.91599">
        <ele>569</ele>
        <time>2019-03-05T14:41:18Z</time>
      </trkpt>
      <trkpt lat="44.35812" lon="5.91596">
        <ele>569</ele>
        <time>2019-03-05T14:41:19Z</time>
      </trkpt>
      <trkpt lat="44.35807" lon="5.91592">
        <ele>569</ele>
        <time>2019-03-05T14:41:20Z</time>
      </trkpt>
      <trkpt lat="44.35801" lon="5.91588">
        <ele>569</ele>
        <time>2019-03-05T14:41:21Z</time>
      </trkpt>
      <trkpt lat="44.35796" lon="5.91584">
        <ele>569</ele>
        <time>2019-03-05T14:41:22Z</time>
      </trkpt>
      <trkpt lat="44.3579" lon="5.9158">
        <ele>569</ele>
        <time>2019-03-05T14:41:23Z</time>
      </trkpt>
      <trkpt lat="44.35784" lon="5.91576">
        <ele>569</ele>
        <time>2019-03-05T14:41:24Z</time>
      </trkpt>
      <trkpt lat="44.35779" lon="5.91573">
        <ele>569</ele>
        <time>2019-03-05T14:41:25Z</time>
      </trkpt>
      <trkpt lat="44.35773" lon="5.91569">
        <ele>569</ele>
        <time>2019-03-05T14:41:26Z</time>
      </trkpt>
      <trkpt lat="44.35768" lon="5.91565">
        <ele>569</ele>
        <time>2019-03-05T14:41:27Z</time>
      </trkpt>
      <trkpt lat="44.35762" lon="5.91561">
        <ele>569</ele>
        <time>2019-03-05T14:41:28Z</time>
      </trkpt>
      <trkpt lat="44.35757" lon="5.91557">
        <ele>569</ele>
        <time>2019-03-05T14:41:29Z</time>
      </trkpt>
      <trkpt lat="44.35751" lon="5.91553">
        <ele>569</ele>
        <time>2019-03-05T14:41:30Z</time>
      </trkpt>
      <trkpt lat="44.35746" lon="5.91549">
        <ele>569</ele>
        <time>2019-03-05T14:41:31Z</time>
      </trkpt>
      <trkpt lat="44.3574" lon="5.91546">
        <ele>569</ele>
        <time>2019-03-05T14:41:32Z</time>
      </trkpt>
      <trkpt lat="44.35734" lon="5.91542">
        <ele>569</ele>
        <time>2019-03-05T14:41:33Z</time>
      </trkpt>
      <trkpt lat="44.35728" lon="5.91538">
        <ele>569</ele>
        <time>2019-03-05T14:41:34Z</time>
      </trkpt>
      <trkpt lat="44.35723" lon="5.91534">
        <ele>569</ele>
        <time>2019-03-05T14:41:35Z</time>
      </trkpt>
      <trkpt lat="44.35717" lon="5.9153">
        <ele>569</ele>
        <time>2019-03-05T14:41:36Z</time>
      </trkpt>
      <trkpt lat="44.35711" lon="5.91526">
        <ele>569</ele>
        <time>2019-03-05T14:41:37Z</time>
      </trkpt>
      <trkpt lat="44.35705" lon="5.91522">
        <ele>569</ele>
        <time>2019-03-05T14:41:38Z</time>
      </trkpt>
      <trkpt lat="44.35699" lon="5.91517">
        <ele>569</ele>
        <time>2019-03-05T14:41:39Z</time>
      </trkpt>
      <trkpt lat="44.35693" lon="5.91513">
        <ele>569</ele>
        <time>2019-03-05T14:41:40Z</time>
      </trkpt>
      <trkpt lat="44.35688" lon="5.91509">
        <ele>569</ele>
        <time>2019-03-05T14:41:41Z</time>
      </trkpt>
      <trkpt lat="44.35682" lon="5.91505">
        <ele>569</ele>
        <time>2019-03-05T14:41:42Z</time>
      </trkpt>
      <trkpt lat="44.35677" lon="5.91501">
        <ele>569</ele>
        <time>2019-03-05T14:41:43Z</time>
      </trkpt>
      <trkpt lat="44.35671" lon="5.91497">
        <ele>569</ele>
        <time>2019-03-05T14:41:44Z</time>
      </trkpt>
      <trkpt lat="44.35666" lon="5.91493">
        <ele>569</ele>
        <time>2019-03-05T14:41:45Z</time>
      </trkpt>
      <trkpt lat="44.3566" lon="5.91489">
        <ele>569</ele>
        <time>2019-03-05T14:41:46Z</time>
      </trkpt>
      <trkpt lat="44.35654" lon="5.91486">
        <ele>569</ele>
        <time>2019-03-05T14:41:47Z</time>
      </trkpt>
      <trkpt lat="44.35649" lon="5.91481">
        <ele>569</ele>
        <time>2019-03-05T14:41:48Z</time>
      </trkpt>
      <trkpt lat="44.35643" lon="5.91477">
        <ele>569</ele>
        <time>2019-03-05T14:41:49Z</time>
      </trkpt>
      <trkpt lat="44.35638" lon="5.91473">
        <ele>569</ele>
        <time>2019-03-05T14:41:50Z</time>
      </trkpt>
      <trkpt lat="44.35632" lon="5.91469">
        <ele>569</ele>
        <time>2019-03-05T14:41:51Z</time>
      </trkpt>
      <trkpt lat="44.35627" lon="5.91466">
        <ele>569</ele>
        <time>2019-03-05T14:41:52Z</time>
      </trkpt>
      <trkpt lat="44.35621" lon="5.91463">
        <ele>569</ele>
        <time>2019-03-05T14:41:53Z</time>
      </trkpt>
      <trkpt lat="44.35616" lon="5.9146">
        <ele>569</ele>
        <time>2019-03-05T14:41:54Z</time>
      </trkpt>
      <trkpt lat="44.35611" lon="5.91457">
        <ele>569</ele>
        <time>2019-03-05T14:41:55Z</time>
      </trkpt>
      <trkpt lat="44.35605" lon="5.91453">
        <ele>569</ele>
        <time>2019-03-05T14:41:56Z</time>
      </trkpt>
      <trkpt lat="44.356" lon="5.9145">
        <ele>569</ele>
        <time>2019-03-05T14:41:57Z</time>
      </trkpt>
      <trkpt lat="44.35595" lon="5.91446">
        <ele>569</ele>
        <time>2019-03-05T14:41:58Z</time>
      </trkpt>
      <trkpt lat="44.3559" lon="5.91443">
        <ele>569</ele>
        <time>2019-03-05T14:41:59Z</time>
      </trkpt>
      <trkpt lat="44.35585" lon="5.91439">
        <ele>569</ele>
        <time>2019-03-05T14:42:00Z</time>
      </trkpt>
      <trkpt lat="44.3558" lon="5.91435">
        <ele>569</ele>
        <time>2019-03-05T14:42:01Z</time>
      </trkpt>
      <trkpt lat="44.35575" lon="5.91432">
        <ele>569</ele>
        <time>2019-03-05T14:42:02Z</time>
      </trkpt>
      <trkpt lat="44.35571" lon="5.91428">
        <ele>569</ele>
        <time>2019-03-05T14:42:03Z</time>
      </trkpt>
      <trkpt lat="44.35566" lon="5.91425">
        <ele>569</ele>
        <time>2019-03-05T14:42:04Z</time>
      </trkpt>
      <trkpt lat="44.35561" lon="5.91422">
        <ele>569</ele>
        <time>2019-03-05T14:42:05Z</time>
      </trkpt>
      <trkpt lat="44.35556" lon="5.91418">
        <ele>569</ele>
        <time>2019-03-05T14:42:06Z</time>
      </trkpt>
      <trkpt lat="44.35551" lon="5.91415">
        <ele>569</ele>
        <time>2019-03-05T14:42:07Z</time>
      </trkpt>
      <trkpt lat="44.35546" lon="5.91412">
        <ele>570</ele>
        <time>2019-03-05T14:42:08Z</time>
      </trkpt>
      <trkpt lat="44.35541" lon="5.91409">
        <ele>570</ele>
        <time>2019-03-05T14:42:09Z</time>
      </trkpt>
      <trkpt lat="44.35537" lon="5.91406">
        <ele>570</ele>
        <time>2019-03-05T14:42:10Z</time>
      </trkpt>
      <trkpt lat="44.35532" lon="5.91403">
        <ele>570</ele>
        <time>2019-03-05T14:42:11Z</time>
      </trkpt>
      <trkpt lat="44.35527" lon="5.914">
        <ele>570</ele>
        <time>2019-03-05T14:42:12Z</time>
      </trkpt>
      <trkpt lat="44.35523" lon="5.91397">
        <ele>570</ele>
        <time>2019-03-05T14:42:13Z</time>
      </trkpt>
      <trkpt lat="44.35518" lon="5.91395">
        <ele>570</ele>
        <time>2019-03-05T14:42:14Z</time>
      </trkpt>
      <trkpt lat="44.35513" lon="5.91392">
        <ele>570</ele>
        <time>2019-03-05T14:42:15Z</time>
      </trkpt>
      <trkpt lat="44.35508" lon="5.91389">
        <ele>570</ele>
        <time>2019-03-05T14:42:16Z</time>
      </trkpt>
      <trkpt lat="44.35503" lon="5.91386">
        <ele>570</ele>
        <time>2019-03-05T14:42:17Z</time>
      </trkpt>
      <trkpt lat="44.35498" lon="5.91383">
        <ele>570</ele>
        <time>2019-03-05T14:42:18Z</time>
      </trkpt>
      <trkpt lat="44.35493" lon="5.9138">
        <ele>570</ele>
        <time>2019-03-05T14:42:19Z</time>
      </trkpt>
      <trkpt lat="44.35488" lon="5.91377">
        <ele>570</ele>
        <time>2019-03-05T14:42:20Z</time>
      </trkpt>
      <trkpt lat="44.35482" lon="5.91374">
        <ele>570</ele>
        <time>2019-03-05T14:42:21Z</time>
      </trkpt>
      <trkpt lat="44.35477" lon="5.91371">
        <ele>570</ele>
        <time>2019-03-05T14:42:22Z</time>
      </trkpt>
      <trkpt lat="44.35471" lon="5.91367">
        <ele>570</ele>
        <time>2019-03-05T14:42:23Z</time>
      </trkpt>
      <trkpt lat="44.35466" lon="5.91363">
        <ele>570</ele>
        <time>2019-03-05T14:42:24Z</time>
      </trkpt>
      <trkpt lat="44.3546" lon="5.91359">
        <ele>570</ele>
        <time>2019-03-05T14:42:25Z</time>
      </trkpt>
      <trkpt lat="44.35455" lon="5.91355">
        <ele>570</ele>
        <time>2019-03-05T14:42:26Z</time>
      </trkpt>
      <trkpt lat="44.35448" lon="5.91351">
        <ele>570</ele>
        <time>2019-03-05T14:42:27Z</time>
      </trkpt>
      <trkpt lat="44.35443" lon="5.91347">
        <ele>570</ele>
        <time>2019-03-05T14:42:28Z</time>
      </trkpt>
      <trkpt lat="44.35437" lon="5.91343">
        <ele>570</ele>
        <time>2019-03-05T14:42:29Z</time>
      </trkpt>
      <trkpt lat="44.35431" lon="5.91338">
        <ele>570</ele>
        <time>2019-03-05T14:42:30Z</time>
      </trkpt>
      <trkpt lat="44.35425" lon="5.91334">
        <ele>570</ele>
        <time>2019-03-05T14:42:31Z</time>
      </trkpt>
      <trkpt lat="44.35419" lon="5.9133">
        <ele>570</ele>
        <time>2019-03-05T14:42:32Z</time>
      </trkpt>
      <trkpt lat="44.35414" lon="5.91326">
        <ele>570</ele>
        <time>2019-03-05T14:42:33Z</time>
      </trkpt>
      <trkpt lat="44.35408" lon="5.91322">
        <ele>570</ele>
        <time>2019-03-05T14:42:34Z</time>
      </trkpt>
      <trkpt lat="44.35402" lon="5.91319">
        <ele>570</ele>
        <time>2019-03-05T14:42:35Z</time>
      </trkpt>
      <trkpt lat="44.35397" lon="5.91315">
        <ele>570</ele>
        <time>2019-03-05T14:42:36Z</time>
      </trkpt>
      <trkpt lat="44.35391" lon="5.9131">
        <ele>570</ele>
        <time>2019-03-05T14:42:37Z</time>
      </trkpt>
      <trkpt lat="44.35386" lon="5.91305">
        <ele>570</ele>
        <time>2019-03-05T14:42:38Z</time>
      </trkpt>
      <trkpt lat="44.3538" lon="5.91301">
        <ele>570</ele>
        <time>2019-03-05T14:42:39Z</time>
      </trkpt>
      <trkpt lat="44.35374" lon="5.91297">
        <ele>570</ele>
        <time>2019-03-05T14:42:40Z</time>
      </trkpt>
      <trkpt lat="44.35369" lon="5.91293">
        <ele>570</ele>
        <time>2019-03-05T14:42:41Z</time>
      </trkpt>
      <trkpt lat="44.35363" lon="5.91289">
        <ele>570</ele>
        <time>2019-03-05T14:42:42Z</time>
      </trkpt>
      <trkpt lat="44.35358" lon="5.91284">
        <ele>570</ele>
        <time>2019-03-05T14:42:43Z</time>
      </trkpt>
      <trkpt lat="44.35353" lon="5.9128">
        <ele>570</ele>
        <time>2019-03-05T14:42:44Z</time>
      </trkpt>
      <trkpt lat="44.35347" lon="5.91275">
        <ele>570</ele>
        <time>2019-03-05T14:42:45Z</time>
      </trkpt>
      <trkpt lat="44.35342" lon="5.9127">
        <ele>570</ele>
        <time>2019-03-05T14:42:46Z</time>
      </trkpt>
      <trkpt lat="44.35336" lon="5.91265">
        <ele>570</ele>
        <time>2019-03-05T14:42:47Z</time>
      </trkpt>
      <trkpt lat="44.3533" lon="5.91261">
        <ele>570</ele>
        <time>2019-03-05T14:42:48Z</time>
      </trkpt>
      <trkpt lat="44.35324" lon="5.91257">
        <ele>570</ele>
        <time>2019-03-05T14:42:49Z</time>
      </trkpt>
      <trkpt lat="44.35318" lon="5.91252">
        <ele>570</ele>
        <time>2019-03-05T14:42:50Z</time>
      </trkpt>
      <trkpt lat="44.35313" lon="5.91248">
        <ele>570</ele>
        <time>2019-03-05T14:42:51Z</time>
      </trkpt>
      <trkpt lat="44.35307" lon="5.91244">
        <ele>570</ele>
        <time>2019-03-05T14:42:52Z</time>
      </trkpt>
      <trkpt lat="44.35301" lon="5.9124">
        <ele>570</ele>
        <time>2019-03-05T14:42:53Z</time>
      </trkpt>
      <trkpt lat="44.35296" lon="5.91236">
        <ele>570</ele>
        <time>2019-03-05T14:42:54Z</time>
      </trkpt>
      <trkpt lat="44.35291" lon="5.91232">
        <ele>570</ele>
        <time>2019-03-05T14:42:55Z</time>
      </trkpt>
      <trkpt lat="44.35286" lon="5.91227">
        <ele>570</ele>
        <time>2019-03-05T14:42:56Z</time>
      </trkpt>
      <trkpt lat="44.35281" lon="5.91222">
        <ele>570</ele>
        <time>2019-03-05T14:42:57Z</time>
      </trkpt>
      <trkpt lat="44.35276" lon="5.91218">
        <ele>570</ele>
        <time>2019-03-05T14:42:58Z</time>
      </trkpt>
      <trkpt lat="44.3527" lon="5.91213">
        <ele>570</ele>
        <time>2019-03-05T14:42:59Z</time>
      </trkpt>
      <trkpt lat="44.35265" lon="5.91208">
        <ele>570</ele>
        <time>2019-03-05T14:43:00Z</time>
      </trkpt>
      <trkpt lat="44.35259" lon="5.91203">
        <ele>570</ele>
        <time>2019-03-05T14:43:01Z</time>
      </trkpt>
      <trkpt lat="44.35254" lon="5.91199">
        <ele>570</ele>
        <time>2019-03-05T14:43:02Z</time>
      </trkpt>
      <trkpt lat="44.35248" lon="5.91194">
        <ele>570</ele>
        <time>2019-03-05T14:43:03Z</time>
      </trkpt>
      <trkpt lat="44.35243" lon="5.91189">
        <ele>570</ele>
        <time>2019-03-05T14:43:04Z</time>
      </trkpt>
      <trkpt lat="44.35237" lon="5.91184">
        <ele>570</ele>
        <time>2019-03-05T14:43:05Z</time>
      </trkpt>
      <trkpt lat="44.35231" lon="5.91179">
        <ele>570</ele>
        <time>2019-03-05T14:43:06Z</time>
      </trkpt>
      <trkpt lat="44.35226" lon="5.91175">
        <ele>570</ele>
        <time>2019-03-05T14:43:07Z</time>
      </trkpt>
      <trkpt lat="44.3522" lon="5.91169">
        <ele>570</ele>
        <time>2019-03-05T14:43:08Z</time>
      </trkpt>
      <trkpt lat="44.35215" lon="5.91164">
        <ele>570</ele>
        <time>2019-03-05T14:43:09Z</time>
      </trkpt>
      <trkpt lat="44.3521" lon="5.9116">
        <ele>570</ele>
        <time>2019-03-05T14:43:10Z</time>
      </trkpt>
      <trkpt lat="44.35204" lon="5.91154">
        <ele>570</ele>
        <time>2019-03-05T14:43:11Z</time>
      </trkpt>
      <trkpt lat="44.35198" lon="5.91149">
        <ele>570</ele>
        <time>2019-03-05T14:43:12Z</time>
      </trkpt>
      <trkpt lat="44.35193" lon="5.91144">
        <ele>569</ele>
        <time>2019-03-05T14:43:13Z</time>
      </trkpt>
      <trkpt lat="44.35187" lon="5.91138">
        <ele>569</ele>
        <time>2019-03-05T14:43:14Z</time>
      </trkpt>
      <trkpt lat="44.35181" lon="5.91132">
        <ele>569</ele>
        <time>2019-03-05T14:43:15Z</time>
      </trkpt>
      <trkpt lat="44.35176" lon="5.91127">
        <ele>568</ele>
        <time>2019-03-05T14:43:16Z</time>
      </trkpt>
      <trkpt lat="44.3517" lon="5.91122">
        <ele>568</ele>
        <time>2019-03-05T14:43:17Z</time>
      </trkpt>
      <trkpt lat="44.35164" lon="5.91116">
        <ele>567</ele>
        <time>2019-03-05T14:43:18Z</time>
      </trkpt>
      <trkpt lat="44.35158" lon="5.91111">
        <ele>567</ele>
        <time>2019-03-05T14:43:19Z</time>
      </trkpt>
      <trkpt lat="44.35152" lon="5.91106">
        <ele>567</ele>
        <time>2019-03-05T14:43:20Z</time>
      </trkpt>
      <trkpt lat="44.35146" lon="5.91101">
        <ele>567</ele>
        <time>2019-03-05T14:43:21Z</time>
      </trkpt>
      <trkpt lat="44.35139" lon="5.91095">
        <ele>566</ele>
        <time>2019-03-05T14:43:22Z</time>
      </trkpt>
      <trkpt lat="44.35133" lon="5.91089">
        <ele>566</ele>
        <time>2019-03-05T14:43:23Z</time>
      </trkpt>
      <trkpt lat="44.35127" lon="5.91084">
        <ele>566</ele>
        <time>2019-03-05T14:43:24Z</time>
      </trkpt>
      <trkpt lat="44.35121" lon="5.91078">
        <ele>566</ele>
        <time>2019-03-05T14:43:25Z</time>
      </trkpt>
      <trkpt lat="44.35115" lon="5.91073">
        <ele>566</ele>
        <time>2019-03-05T14:43:26Z</time>
      </trkpt>
      <trkpt lat="44.35109" lon="5.91067">
        <ele>566</ele>
        <time>2019-03-05T14:43:27Z</time>
      </trkpt>
      <trkpt lat="44.35103" lon="5.91061">
        <ele>566</ele>
        <time>2019-03-05T14:43:28Z</time>
      </trkpt>
      <trkpt lat="44.35096" lon="5.91055">
        <ele>566</ele>
        <time>2019-03-05T14:43:29Z</time>
      </trkpt>
      <trkpt lat="44.35091" lon="5.9105">
        <ele>566</ele>
        <time>2019-03-05T14:43:30Z</time>
      </trkpt>
      <trkpt lat="44.35085" lon="5.91044">
        <ele>566</ele>
        <time>2019-03-05T14:43:31Z</time>
      </trkpt>
      <trkpt lat="44.35079" lon="5.91039">
        <ele>566</ele>
        <time>2019-03-05T14:43:32Z</time>
      </trkpt>
      <trkpt lat="44.35073" lon="5.91033">
        <ele>566</ele>
        <time>2019-03-05T14:43:33Z</time>
      </trkpt>
      <trkpt lat="44.35067" lon="5.91027">
        <ele>566</ele>
        <time>2019-03-05T14:43:34Z</time>
      </trkpt>
      <trkpt lat="44.35061" lon="5.91022">
        <ele>566</ele>
        <time>2019-03-05T14:43:35Z</time>
      </trkpt>
      <trkpt lat="44.35055" lon="5.91016">
        <ele>566</ele>
        <time>2019-03-05T14:43:36Z</time>
      </trkpt>
      <trkpt lat="44.35049" lon="5.91011">
        <ele>565</ele>
        <time>2019-03-05T14:43:37Z</time>
      </trkpt>
      <trkpt lat="44.35043" lon="5.91005">
        <ele>565</ele>
        <time>2019-03-05T14:43:38Z</time>
      </trkpt>
      <trkpt lat="44.35036" lon="5.90998">
        <ele>565</ele>
        <time>2019-03-05T14:43:39Z</time>
      </trkpt>
      <trkpt lat="44.35029" lon="5.90992">
        <ele>565</ele>
        <time>2019-03-05T14:43:40Z</time>
      </trkpt>
      <trkpt lat="44.35023" lon="5.90986">
        <ele>565</ele>
        <time>2019-03-05T14:43:41Z</time>
      </trkpt>
      <trkpt lat="44.35016" lon="5.9098">
        <ele>565</ele>
        <time>2019-03-05T14:43:42Z</time>
      </trkpt>
      <trkpt lat="44.35009" lon="5.90974">
        <ele>565</ele>
        <time>2019-03-05T14:43:43Z</time>
      </trkpt>
      <trkpt lat="44.35003" lon="5.90969">
        <ele>565</ele>
        <time>2019-03-05T14:43:44Z</time>
      </trkpt>
      <trkpt lat="44.34996" lon="5.90963">
        <ele>564</ele>
        <time>2019-03-05T14:43:45Z</time>
      </trkpt>
      <trkpt lat="44.3499" lon="5.90957">
        <ele>564</ele>
        <time>2019-03-05T14:43:46Z</time>
      </trkpt>
      <trkpt lat="44.34983" lon="5.90951">
        <ele>564</ele>
        <time>2019-03-05T14:43:47Z</time>
      </trkpt>
      <trkpt lat="44.34976" lon="5.90944">
        <ele>564</ele>
        <time>2019-03-05T14:43:48Z</time>
      </trkpt>
      <trkpt lat="44.3497" lon="5.90938">
        <ele>563</ele>
        <time>2019-03-05T14:43:49Z</time>
      </trkpt>
      <trkpt lat="44.34963" lon="5.90932">
        <ele>563</ele>
        <time>2019-03-05T14:43:50Z</time>
      </trkpt>
      <trkpt lat="44.34956" lon="5.90926">
        <ele>562</ele>
        <time>2019-03-05T14:43:51Z</time>
      </trkpt>
      <trkpt lat="44.34949" lon="5.90919">
        <ele>562</ele>
        <time>2019-03-05T14:43:52Z</time>
      </trkpt>
      <trkpt lat="44.34942" lon="5.90914">
        <ele>562</ele>
        <time>2019-03-05T14:43:53Z</time>
      </trkpt>
      <trkpt lat="44.34935" lon="5.90908">
        <ele>562</ele>
        <time>2019-03-05T14:43:54Z</time>
      </trkpt>
      <trkpt lat="44.34928" lon="5.90902">
        <ele>562</ele>
        <time>2019-03-05T14:43:55Z</time>
      </trkpt>
      <trkpt lat="44.34921" lon="5.90897">
        <ele>562</ele>
        <time>2019-03-05T14:43:56Z</time>
      </trkpt>
      <trkpt lat="44.34915" lon="5.90892">
        <ele>562</ele>
        <time>2019-03-05T14:43:57Z</time>
      </trkpt>
      <trkpt lat="44.34909" lon="5.90887">
        <ele>562</ele>
        <time>2019-03-05T14:43:58Z</time>
      </trkpt>
      <trkpt lat="44.34903" lon="5.90883">
        <ele>562</ele>
        <time>2019-03-05T14:43:59Z</time>
      </trkpt>
      <trkpt lat="44.34897" lon="5.90878">
        <ele>562</ele>
        <time>2019-03-05T14:44:00Z</time>
      </trkpt>
      <trkpt lat="44.34891" lon="5.90874">
        <ele>562</ele>
        <time>2019-03-05T14:44:01Z</time>
      </trkpt>
      <trkpt lat="44.34885" lon="5.9087">
        <ele>562</ele>
        <time>2019-03-05T14:44:02Z</time>
      </trkpt>
      <trkpt lat="44.3488" lon="5.90866">
        <ele>562</ele>
        <time>2019-03-05T14:44:03Z</time>
      </trkpt>
      <trkpt lat="44.34874" lon="5.90862">
        <ele>562</ele>
        <time>2019-03-05T14:44:04Z</time>
      </trkpt>
      <trkpt lat="44.34869" lon="5.90857">
        <ele>562</ele>
        <time>2019-03-05T14:44:05Z</time>
      </trkpt>
      <trkpt lat="44.34863" lon="5.90853">
        <ele>562</ele>
        <time>2019-03-05T14:44:06Z</time>
      </trkpt>
      <trkpt lat="44.34858" lon="5.90849">
        <ele>562</ele>
        <time>2019-03-05T14:44:07Z</time>
      </trkpt>
      <trkpt lat="44.34852" lon="5.90845">
        <ele>562</ele>
        <time>2019-03-05T14:44:08Z</time>
      </trkpt>
      <trkpt lat="44.34847" lon="5.90841">
        <ele>562</ele>
        <time>2019-03-05T14:44:09Z</time>
      </trkpt>
      <trkpt lat="44.34841" lon="5.90837">
        <ele>562</ele>
        <time>2019-03-05T14:44:10Z</time>
      </trkpt>
      <trkpt lat="44.34836" lon="5.90832">
        <ele>562</ele>
        <time>2019-03-05T14:44:11Z</time>
      </trkpt>
      <trkpt lat="44.3483" lon="5.90828">
        <ele>562</ele>
        <time>2019-03-05T14:44:12Z</time>
      </trkpt>
      <trkpt lat="44.34825" lon="5.90824">
        <ele>562</ele>
        <time>2019-03-05T14:44:13Z</time>
      </trkpt>
      <trkpt lat="44.3482" lon="5.9082">
        <ele>562</ele>
        <time>2019-03-05T14:44:14Z</time>
      </trkpt>
      <trkpt lat="44.34814" lon="5.90816">
        <ele>562</ele>
        <time>2019-03-05T14:44:15Z</time>
      </trkpt>
      <trkpt lat="44.34809" lon="5.90811">
        <ele>562</ele>
        <time>2019-03-05T14:44:16Z</time>
      </trkpt>
      <trkpt lat="44.34804" lon="5.90807">
        <ele>562</ele>
        <time>2019-03-05T14:44:17Z</time>
      </trkpt>
      <trkpt lat="44.34799" lon="5.90803">
        <ele>562</ele>
        <time>2019-03-05T14:44:18Z</time>
      </trkpt>
      <trkpt lat="44.34794" lon="5.90799">
        <ele>562</ele>
        <time>2019-03-05T14:44:19Z</time>
      </trkpt>
      <trkpt lat="44.34789" lon="5.90796">
        <ele>562</ele>
        <time>2019-03-05T14:44:20Z</time>
      </trkpt>
      <trkpt lat="44.34784" lon="5.90792">
        <ele>562</ele>
        <time>2019-03-05T14:44:21Z</time>
      </trkpt>
      <trkpt lat="44.34779" lon="5.90788">
        <ele>562</ele>
        <time>2019-03-05T14:44:22Z</time>
      </trkpt>
      <trkpt lat="44.34775" lon="5.90784">
        <ele>562</ele>
        <time>2019-03-05T14:44:23Z</time>
      </trkpt>
      <trkpt lat="44.3477" lon="5.9078">
        <ele>562</ele>
        <time>2019-03-05T14:44:24Z</time>
      </trkpt>
      <trkpt lat="44.34766" lon="5.90776">
        <ele>562</ele>
        <time>2019-03-05T14:44:25Z</time>
      </trkpt>
      <trkpt lat="44.34761" lon="5.90772">
        <ele>562</ele>
        <time>2019-03-05T14:44:26Z</time>
      </trkpt>
      <trkpt lat="44.34756" lon="5.90769">
        <ele>562</ele>
        <time>2019-03-05T14:44:27Z</time>
      </trkpt>
      <trkpt lat="44.34752" lon="5.90765">
        <ele>562</ele>
        <time>2019-03-05T14:44:28Z</time>
      </trkpt>
      <trkpt lat="44.34747" lon="5.90761">
        <ele>562</ele>
        <time>2019-03-05T14:44:29Z</time>
      </trkpt>
      <trkpt lat="44.34742" lon="5.90758">
        <ele>562</ele>
        <time>2019-03-05T14:44:30Z</time>
      </trkpt>
      <trkpt lat="44.34738" lon="5.90754">
        <ele>562</ele>
        <time>2019-03-05T14:44:31Z</time>
      </trkpt>
      <trkpt lat="44.34733" lon="5.90751">
        <ele>562</ele>
        <time>2019-03-05T14:44:32Z</time>
      </trkpt>
      <trkpt lat="44.34729" lon="5.90747">
        <ele>562</ele>
        <time>2019-03-05T14:44:33Z</time>
      </trkpt>
      <trkpt lat="44.34724" lon="5.90744">
        <ele>562</ele>
        <time>2019-03-05T14:44:34Z</time>
      </trkpt>
      <trkpt lat="44.34719" lon="5.9074">
        <ele>562</ele>
        <time>2019-03-05T14:44:35Z</time>
      </trkpt>
      <trkpt lat="44.34715" lon="5.90736">
        <ele>562</ele>
        <time>2019-03-05T14:44:36Z</time>
      </trkpt>
      <trkpt lat="44.3471" lon="5.90732">
        <ele>562</ele>
        <time>2019-03-05T14:44:37Z</time>
      </trkpt>
      <trkpt lat="44.34705" lon="5.90728">
        <ele>562</ele>
        <time>2019-03-05T14:44:38Z</time>
      </trkpt>
      <trkpt lat="44.347" lon="5.90725">
        <ele>562</ele>
        <time>2019-03-05T14:44:39Z</time>
      </trkpt>
      <trkpt lat="44.34696" lon="5.90722">
        <ele>562</ele>
        <time>2019-03-05T14:44:40Z</time>
      </trkpt>
      <trkpt lat="44.34691" lon="5.90719">
        <ele>562</ele>
        <time>2019-03-05T14:44:41Z</time>
      </trkpt>
      <trkpt lat="44.34687" lon="5.90716">
        <ele>562</ele>
        <time>2019-03-05T14:44:42Z</time>
      </trkpt>
      <trkpt lat="44.34682" lon="5.90713">
        <ele>562</ele>
        <time>2019-03-05T14:44:43Z</time>
      </trkpt>
      <trkpt lat="44.34678" lon="5.90711">
        <ele>563</ele>
        <time>2019-03-05T14:44:44Z</time>
      </trkpt>
      <trkpt lat="44.34674" lon="5.90708">
        <ele>563</ele>
        <time>2019-03-05T14:44:45Z</time>
      </trkpt>
      <trkpt lat="44.3467" lon="5.90706">
        <ele>563</ele>
        <time>2019-03-05T14:44:46Z</time>
      </trkpt>
      <trkpt lat="44.34665" lon="5.90703">
        <ele>563</ele>
        <time>2019-03-05T14:44:47Z</time>
      </trkpt>
      <trkpt lat="44.34661" lon="5.907">
        <ele>564</ele>
        <time>2019-03-05T14:44:48Z</time>
      </trkpt>
      <trkpt lat="44.34657" lon="5.90697">
        <ele>564</ele>
        <time>2019-03-05T14:44:49Z</time>
      </trkpt>
      <trkpt lat="44.34653" lon="5.90695">
        <ele>564</ele>
        <time>2019-03-05T14:44:50Z</time>
      </trkpt>
      <trkpt lat="44.34649" lon="5.90692">
        <ele>564</ele>
        <time>2019-03-05T14:44:51Z</time>
      </trkpt>
      <trkpt lat="44.34645" lon="5.9069">
        <ele>564</ele>
        <time>2019-03-05T14:44:52Z</time>
      </trkpt>
      <trkpt lat="44.34641" lon="5.90687">
        <ele>565</ele>
        <time>2019-03-05T14:44:53Z</time>
      </trkpt>
      <trkpt lat="44.34637" lon="5.90685">
        <ele>565</ele>
        <time>2019-03-05T14:44:54Z</time>
      </trkpt>
      <trkpt lat="44.34633" lon="5.90683">
        <ele>565</ele>
        <time>2019-03-05T14:44:55Z</time>
      </trkpt>
      <trkpt lat="44.34629" lon="5.9068">
        <ele>565</ele>
        <time>2019-03-05T14:44:56Z</time>
      </trkpt>
      <trkpt lat="44.34626" lon="5.90677">
        <ele>565</ele>
        <time>2019-03-05T14:44:57Z</time>
      </trkpt>
      <trkpt lat="44.34622" lon="5.90674">
        <ele>565</ele>
        <time>2019-03-05T14:44:58Z</time>
      </trkpt>
      <trkpt lat="44.34618" lon="5.90671">
        <ele>565</ele>
        <time>2019-03-05T14:44:59Z</time>
      </trkpt>
      <trkpt lat="44.34614" lon="5.90668">
        <ele>565</ele>
        <time>2019-03-05T14:45:00Z</time>
      </trkpt>
      <trkpt lat="44.3461" lon="5.90665">
        <ele>566</ele>
        <time>2019-03-05T14:45:01Z</time>
      </trkpt>
      <trkpt lat="44.34606" lon="5.90662">
        <ele>566</ele>
        <time>2019-03-05T14:45:02Z</time>
      </trkpt>
      <trkpt lat="44.34602" lon="5.90659">
        <ele>566</ele>
        <time>2019-03-05T14:45:03Z</time>
      </trkpt>
      <trkpt lat="44.34599" lon="5.90656">
        <ele>567</ele>
        <time>2019-03-05T14:45:04Z</time>
      </trkpt>
      <trkpt lat="44.34595" lon="5.90652">
        <ele>567</ele>
        <time>2019-03-05T14:45:05Z</time>
      </trkpt>
      <trkpt lat="44.34591" lon="5.90648">
        <ele>568</ele>
        <time>2019-03-05T14:45:06Z</time>
      </trkpt>
      <trkpt lat="44.34587" lon="5.90645">
        <ele>568</ele>
        <time>2019-03-05T14:45:07Z</time>
      </trkpt>
      <trkpt lat="44.34583" lon="5.90641">
        <ele>568</ele>
        <time>2019-03-05T14:45:08Z</time>
      </trkpt>
      <trkpt lat="44.34579" lon="5.90637">
        <ele>568</ele>
        <time>2019-03-05T14:45:09Z</time>
      </trkpt>
      <trkpt lat="44.34574" lon="5.90634">
        <ele>569</ele>
        <time>2019-03-05T14:45:10Z</time>
      </trkpt>
      <trkpt lat="44.3457" lon="5.9063">
        <ele>569</ele>
        <time>2019-03-05T14:45:11Z</time>
      </trkpt>
      <trkpt lat="44.34565" lon="5.90626">
        <ele>569</ele>
        <time>2019-03-05T14:45:12Z</time>
      </trkpt>
      <trkpt lat="44.34561" lon="5.90622">
        <ele>569</ele>
        <time>2019-03-05T14:45:13Z</time>
      </trkpt>
      <trkpt lat="44.34557" lon="5.90619">
        <ele>569</ele>
        <time>2019-03-05T14:45:14Z</time>
      </trkpt>
      <trkpt lat="44.34552" lon="5.90615">
        <ele>570</ele>
        <time>2019-03-05T14:45:15Z</time>
      </trkpt>
      <trkpt lat="44.34548" lon="5.90611">
        <ele>570</ele>
        <time>2019-03-05T14:45:16Z</time>
      </trkpt>
      <trkpt lat="44.34544" lon="5.90608">
        <ele>570</ele>
        <time>2019-03-05T14:45:17Z</time>
      </trkpt>
      <trkpt lat="44.34539" lon="5.90604">
        <ele>570</ele>
        <time>2019-03-05T14:45:18Z</time>
      </trkpt>
      <trkpt lat="44.34534" lon="5.906">
        <ele>570</ele>
        <time>2019-03-05T14:45:19Z</time>
      </trkpt>
      <trkpt lat="44.3453" lon="5.90597">
        <ele>570</ele>
        <time>2019-03-05T14:45:20Z</time>
      </trkpt>
      <trkpt lat="44.34525" lon="5.90593">
        <ele>570</ele>
        <time>2019-03-05T14:45:21Z</time>
      </trkpt>
      <trkpt lat="44.34521" lon="5.90589">
        <ele>570</ele>
        <time>2019-03-05T14:45:22Z</time>
      </trkpt>
      <trkpt lat="44.34516" lon="5.90585">
        <ele>570</ele>
        <time>2019-03-05T14:45:23Z</time>
      </trkpt>
      <trkpt lat="44.34511" lon="5.90582">
        <ele>570</ele>
        <time>2019-03-05T14:45:24Z</time>
      </trkpt>
      <trkpt lat="44.34507" lon="5.90578">
        <ele>570</ele>
        <time>2019-03-05T14:45:25Z</time>
      </trkpt>
      <trkpt lat="44.34502" lon="5.90574">
        <ele>570</ele>
        <time>2019-03-05T14:45:26Z</time>
      </trkpt>
      <trkpt lat="44.34497" lon="5.9057">
        <ele>571</ele>
        <time>2019-03-05T14:45:27Z</time>
      </trkpt>
      <trkpt lat="44.34492" lon="5.90566">
        <ele>571</ele>
        <time>2019-03-05T14:45:28Z</time>
      </trkpt>
      <trkpt lat="44.34488" lon="5.90562">
        <ele>571</ele>
        <time>2019-03-05T14:45:29Z</time>
      </trkpt>
      <trkpt lat="44.34483" lon="5.90558">
        <ele>571</ele>
        <time>2019-03-05T14:45:30Z</time>
      </trkpt>
      <trkpt lat="44.34478" lon="5.90555">
        <ele>572</ele>
        <time>2019-03-05T14:45:31Z</time>
      </trkpt>
      <trkpt lat="44.34474" lon="5.90551">
        <ele>572</ele>
        <time>2019-03-05T14:45:32Z</time>
      </trkpt>
      <trkpt lat="44.34469" lon="5.90547">
        <ele>572</ele>
        <time>2019-03-05T14:45:33Z</time>
      </trkpt>
      <trkpt lat="44.34464" lon="5.90543">
        <ele>572</ele>
        <time>2019-03-05T14:45:34Z</time>
      </trkpt>
      <trkpt lat="44.34459" lon="5.90539">
        <ele>572</ele>
        <time>2019-03-05T14:45:35Z</time>
      </trkpt>
      <trkpt lat="44.34455" lon="5.90535">
        <ele>572</ele>
        <time>2019-03-05T14:45:36Z</time>
      </trkpt>
      <trkpt lat="44.3445" lon="5.90531">
        <ele>572</ele>
        <time>2019-03-05T14:45:37Z</time>
      </trkpt>
      <trkpt lat="44.34446" lon="5.90526">
        <ele>572</ele>
        <time>2019-03-05T14:45:38Z</time>
      </trkpt>
      <trkpt lat="44.34441" lon="5.90522">
        <ele>573</ele>
        <time>2019-03-05T14:45:39Z</time>
      </trkpt>
      <trkpt lat="44.34437" lon="5.90518">
        <ele>573</ele>
        <time>2019-03-05T14:45:40Z</time>
      </trkpt>
      <trkpt lat="44.34433" lon="5.90514">
        <ele>573</ele>
        <time>2019-03-05T14:45:41Z</time>
      </trkpt>
      <trkpt lat="44.34429" lon="5.9051">
        <ele>573</ele>
        <time>2019-03-05T14:45:42Z</time>
      </trkpt>
      <trkpt lat="44.34425" lon="5.90507">
        <ele>573</ele>
        <time>2019-03-05T14:45:43Z</time>
      </trkpt>
      <trkpt lat="44.34422" lon="5.90503">
        <ele>573</ele>
        <time>2019-03-05T14:45:44Z</time>
      </trkpt>
      <trkpt lat="44.34418" lon="5.90499">
        <ele>573</ele>
        <time>2019-03-05T14:45:45Z</time>
      </trkpt>
      <trkpt lat="44.34415" lon="5.90496">
        <ele>573</ele>
        <time>2019-03-05T14:45:46Z</time>
      </trkpt>
      <trkpt lat="44.34412" lon="5.90491">
        <ele>573</ele>
        <time>2019-03-05T14:45:47Z</time>
      </trkpt>
      <trkpt lat="44.34409" lon="5.90487">
        <ele>573</ele>
        <time>2019-03-05T14:45:48Z</time>
      </trkpt>
      <trkpt lat="44.34407" lon="5.90482">
        <ele>573</ele>
        <time>2019-03-05T14:45:49Z</time>
      </trkpt>
      <trkpt lat="44.34405" lon="5.90478">
        <ele>573</ele>
        <time>2019-03-05T14:45:50Z</time>
      </trkpt>
      <trkpt lat="44.34402" lon="5.90473">
        <ele>573</ele>
        <time>2019-03-05T14:45:51Z</time>
      </trkpt>
      <trkpt lat="44.34399" lon="5.90469">
        <ele>573</ele>
        <time>2019-03-05T14:45:52Z</time>
      </trkpt>
      <trkpt lat="44.34396" lon="5.90465">
        <ele>573</ele>
        <time>2019-03-05T14:45:53Z</time>
      </trkpt>
      <trkpt lat="44.34392" lon="5.90462">
        <ele>573</ele>
        <time>2019-03-05T14:45:54Z</time>
      </trkpt>
      <trkpt lat="44.34388" lon="5.9046">
        <ele>573</ele>
        <time>2019-03-05T14:45:55Z</time>
      </trkpt>
      <trkpt lat="44.34385" lon="5.90457">
        <ele>573</ele>
        <time>2019-03-05T14:45:56Z</time>
      </trkpt>
      <trkpt lat="44.34381" lon="5.90454">
        <ele>573</ele>
        <time>2019-03-05T14:45:57Z</time>
      </trkpt>
      <trkpt lat="44.34377" lon="5.90451">
        <ele>573</ele>
        <time>2019-03-05T14:45:58Z</time>
      </trkpt>
      <trkpt lat="44.34372" lon="5.90448">
        <ele>573</ele>
        <time>2019-03-05T14:45:59Z</time>
      </trkpt>
      <trkpt lat="44.34367" lon="5.90446">
        <ele>573</ele>
        <time>2019-03-05T14:46:00Z</time>
      </trkpt>
      <trkpt lat="44.34361" lon="5.90443">
        <ele>573</ele>
        <time>2019-03-05T14:46:01Z</time>
      </trkpt>
      <trkpt lat="44.34355" lon="5.9044">
        <ele>573</ele>
        <time>2019-03-05T14:46:02Z</time>
      </trkpt>
      <trkpt lat="44.34349" lon="5.90436">
        <ele>573</ele>
        <time>2019-03-05T14:46:03Z</time>
      </trkpt>
      <trkpt lat="44.34342" lon="5.90432">
        <ele>573</ele>
        <time>2019-03-05T14:46:04Z</time>
      </trkpt>
      <trkpt lat="44.34335" lon="5.90427">
        <ele>573</ele>
        <time>2019-03-05T14:46:05Z</time>
      </trkpt>
      <trkpt lat="44.34329" lon="5.90423">
        <ele>573</ele>
        <time>2019-03-05T14:46:06Z</time>
      </trkpt>
      <trkpt lat="44.34323" lon="5.90418">
        <ele>573</ele>
        <time>2019-03-05T14:46:07Z</time>
      </trkpt>
      <trkpt lat="44.34317" lon="5.90413">
        <ele>573</ele>
        <time>2019-03-05T14:46:08Z</time>
      </trkpt>
      <trkpt lat="44.34312" lon="5.90408">
        <ele>573</ele>
        <time>2019-03-05T14:46:09Z</time>
      </trkpt>
      <trkpt lat="44.34306" lon="5.90403">
        <ele>573</ele>
        <time>2019-03-05T14:46:10Z</time>
      </trkpt>
      <trkpt lat="44.34301" lon="5.90398">
        <ele>573</ele>
        <time>2019-03-05T14:46:11Z</time>
      </trkpt>
      <trkpt lat="44.34296" lon="5.90393">
        <ele>573</ele>
        <time>2019-03-05T14:46:12Z</time>
      </trkpt>
      <trkpt lat="44.34291" lon="5.90388">
        <ele>573</ele>
        <time>2019-03-05T14:46:13Z</time>
      </trkpt>
      <trkpt lat="44.34286" lon="5.90383">
        <ele>573</ele>
        <time>2019-03-05T14:46:14Z</time>
      </trkpt>
      <trkpt lat="44.34282" lon="5.90378">
        <ele>573</ele>
        <time>2019-03-05T14:46:15Z</time>
      </trkpt>
      <trkpt lat="44.34277" lon="5.90373">
        <ele>573</ele>
        <time>2019-03-05T14:46:16Z</time>
      </trkpt>
      <trkpt lat="44.34273" lon="5.90368">
        <ele>573</ele>
        <time>2019-03-05T14:46:17Z</time>
      </trkpt>
      <trkpt lat="44.34268" lon="5.90363">
        <ele>573</ele>
        <time>2019-03-05T14:46:18Z</time>
      </trkpt>
      <trkpt lat="44.34264" lon="5.90358">
        <ele>573</ele>
        <time>2019-03-05T14:46:19Z</time>
      </trkpt>
      <trkpt lat="44.3426" lon="5.90353">
        <ele>573</ele>
        <time>2019-03-05T14:46:20Z</time>
      </trkpt>
      <trkpt lat="44.34256" lon="5.90348">
        <ele>573</ele>
        <time>2019-03-05T14:46:21Z</time>
      </trkpt>
      <trkpt lat="44.34252" lon="5.90343">
        <ele>573</ele>
        <time>2019-03-05T14:46:22Z</time>
      </trkpt>
      <trkpt lat="44.34248" lon="5.90339">
        <ele>573</ele>
        <time>2019-03-05T14:46:23Z</time>
      </trkpt>
      <trkpt lat="44.34245" lon="5.90335">
        <ele>573</ele>
        <time>2019-03-05T14:46:24Z</time>
      </trkpt>
      <trkpt lat="44.34241" lon="5.9033">
        <ele>573</ele>
        <time>2019-03-05T14:46:25Z</time>
      </trkpt>
      <trkpt lat="44.34238" lon="5.90326">
        <ele>573</ele>
        <time>2019-03-05T14:46:26Z</time>
      </trkpt>
      <trkpt lat="44.34235" lon="5.90322">
        <ele>573</ele>
        <time>2019-03-05T14:46:27Z</time>
      </trkpt>
      <trkpt lat="44.34232" lon="5.90318">
        <ele>573</ele>
        <time>2019-03-05T14:46:28Z</time>
      </trkpt>
      <trkpt lat="44.34229" lon="5.90314">
        <ele>573</ele>
        <time>2019-03-05T14:46:29Z</time>
      </trkpt>
      <trkpt lat="44.34225" lon="5.9031">
        <ele>573</ele>
        <time>2019-03-05T14:46:30Z</time>
      </trkpt>
      <trkpt lat="44.34222" lon="5.90306">
        <ele>573</ele>
        <time>2019-03-05T14:46:31Z</time>
      </trkpt>
      <trkpt lat="44.34219" lon="5.90302">
        <ele>573</ele>
        <time>2019-03-05T14:46:32Z</time>
      </trkpt>
      <trkpt lat="44.34216" lon="5.90298">
        <ele>573</ele>
        <time>2019-03-05T14:46:33Z</time>
      </trkpt>
      <trkpt lat="44.34213" lon="5.90294">
        <ele>573</ele>
        <time>2019-03-05T14:46:34Z</time>
      </trkpt>
      <trkpt lat="44.3421" lon="5.90291">
        <ele>573</ele>
        <time>2019-03-05T14:46:35Z</time>
      </trkpt>
      <trkpt lat="44.34207" lon="5.90287">
        <ele>573</ele>
        <time>2019-03-05T14:46:36Z</time>
      </trkpt>
      <trkpt lat="44.34204" lon="5.90283">
        <ele>573</ele>
        <time>2019-03-05T14:46:37Z</time>
      </trkpt>
      <trkpt lat="44.34201" lon="5.90279">
        <ele>573</ele>
        <time>2019-03-05T14:46:38Z</time>
      </trkpt>
      <trkpt lat="44.34198" lon="5.90276">
        <ele>573</ele>
        <time>2019-03-05T14:46:39Z</time>
      </trkpt>
      <trkpt lat="44.34195" lon="5.90272">
        <ele>573</ele>
        <time>2019-03-05T14:46:40Z</time>
      </trkpt>
      <trkpt lat="44.34193" lon="5.90268">
        <ele>573</ele>
        <time>2019-03-05T14:46:41Z</time>
      </trkpt>
      <trkpt lat="44.3419" lon="5.90264">
        <ele>573</ele>
        <time>2019-03-05T14:46:42Z</time>
      </trkpt>
      <trkpt lat="44.34187" lon="5.90261">
        <ele>574</ele>
        <time>2019-03-05T14:46:43Z</time>
      </trkpt>
      <trkpt lat="44.34184" lon="5.90257">
        <ele>574</ele>
        <time>2019-03-05T14:46:44Z</time>
      </trkpt>
      <trkpt lat="44.34181" lon="5.90253">
        <ele>574</ele>
        <time>2019-03-05T14:46:45Z</time>
      </trkpt>
      <trkpt lat="44.34178" lon="5.90249">
        <ele>575</ele>
        <time>2019-03-05T14:46:46Z</time>
      </trkpt>
      <trkpt lat="44.34175" lon="5.90244">
        <ele>575</ele>
        <time>2019-03-05T14:46:47Z</time>
      </trkpt>
      <trkpt lat="44.34172" lon="5.90241">
        <ele>575</ele>
        <time>2019-03-05T14:46:48Z</time>
      </trkpt>
      <trkpt lat="44.34169" lon="5.90238">
        <ele>576</ele>
        <time>2019-03-05T14:46:49Z</time>
      </trkpt>
      <trkpt lat="44.34166" lon="5.90234">
        <ele>577</ele>
        <time>2019-03-05T14:46:50Z</time>
      </trkpt>
      <trkpt lat="44.34163" lon="5.90231">
        <ele>577</ele>
        <time>2019-03-05T14:46:51Z</time>
      </trkpt>
      <trkpt lat="44.34161" lon="5.90227">
        <ele>577</ele>
        <time>2019-03-05T14:46:52Z</time>
      </trkpt>
      <trkpt lat="44.34158" lon="5.90224">
        <ele>578</ele>
        <time>2019-03-05T14:46:53Z</time>
      </trkpt>
      <trkpt lat="44.34155" lon="5.9022">
        <ele>578</ele>
        <time>2019-03-05T14:46:54Z</time>
      </trkpt>
      <trkpt lat="44.34152" lon="5.90217">
        <ele>578</ele>
        <time>2019-03-05T14:46:55Z</time>
      </trkpt>
      <trkpt lat="44.34149" lon="5.90213">
        <ele>578</ele>
        <time>2019-03-05T14:46:56Z</time>
      </trkpt>
      <trkpt lat="44.34146" lon="5.90209">
        <ele>579</ele>
        <time>2019-03-05T14:46:57Z</time>
      </trkpt>
      <trkpt lat="44.34143" lon="5.90206">
        <ele>579</ele>
        <time>2019-03-05T14:46:58Z</time>
      </trkpt>
      <trkpt lat="44.3414" lon="5.90203">
        <ele>579</ele>
        <time>2019-03-05T14:46:59Z</time>
      </trkpt>
      <trkpt lat="44.34137" lon="5.902">
        <ele>580</ele>
        <time>2019-03-05T14:47:00Z</time>
      </trkpt>
      <trkpt lat="44.34134" lon="5.90197">
        <ele>580</ele>
        <time>2019-03-05T14:47:01Z</time>
      </trkpt>
      <trkpt lat="44.34131" lon="5.90194">
        <ele>580</ele>
        <time>2019-03-05T14:47:02Z</time>
      </trkpt>
      <trkpt lat="44.34128" lon="5.9019">
        <ele>580</ele>
        <time>2019-03-05T14:47:03Z</time>
      </trkpt>
      <trkpt lat="44.34126" lon="5.90186">
        <ele>580</ele>
        <time>2019-03-05T14:47:04Z</time>
      </trkpt>
      <trkpt lat="44.34122" lon="5.90182">
        <ele>580</ele>
        <time>2019-03-05T14:47:05Z</time>
      </trkpt>
      <trkpt lat="44.34119" lon="5.90179">
        <ele>580</ele>
        <time>2019-03-05T14:47:06Z</time>
      </trkpt>
      <trkpt lat="44.34116" lon="5.90175">
        <ele>580</ele>
        <time>2019-03-05T14:47:07Z</time>
      </trkpt>
      <trkpt lat="44.34112" lon="5.90172">
        <ele>581</ele>
        <time>2019-03-05T14:47:08Z</time>
      </trkpt>
      <trkpt lat="44.34109" lon="5.90168">
        <ele>581</ele>
        <time>2019-03-05T14:47:09Z</time>
      </trkpt>
      <trkpt lat="44.34105" lon="5.90164">
        <ele>581</ele>
        <time>2019-03-05T14:47:10Z</time>
      </trkpt>
      <trkpt lat="44.34101" lon="5.9016">
        <ele>581</ele>
        <time>2019-03-05T14:47:11Z</time>
      </trkpt>
      <trkpt lat="44.34097" lon="5.90156">
        <ele>581</ele>
        <time>2019-03-05T14:47:12Z</time>
      </trkpt>
      <trkpt lat="44.34093" lon="5.90152">
        <ele>581</ele>
        <time>2019-03-05T14:47:13Z</time>
      </trkpt>
      <trkpt lat="44.34089" lon="5.90148">
        <ele>581</ele>
        <time>2019-03-05T14:47:14Z</time>
      </trkpt>
      <trkpt lat="44.34084" lon="5.90145">
        <ele>581</ele>
        <time>2019-03-05T14:47:15Z</time>
      </trkpt>
      <trkpt lat="44.34079" lon="5.90141">
        <ele>581</ele>
        <time>2019-03-05T14:47:16Z</time>
      </trkpt>
      <trkpt lat="44.34074" lon="5.90136">
        <ele>581</ele>
        <time>2019-03-05T14:47:17Z</time>
      </trkpt>
      <trkpt lat="44.34069" lon="5.90132">
        <ele>581</ele>
        <time>2019-03-05T14:47:18Z</time>
      </trkpt>
      <trkpt lat="44.34063" lon="5.90127">
        <ele>581</ele>
        <time>2019-03-05T14:47:19Z</time>
      </trkpt>
      <trkpt lat="44.34058" lon="5.90122">
        <ele>581</ele>
        <time>2019-03-05T14:47:20Z</time>
      </trkpt>
      <trkpt lat="44.34051" lon="5.90118">
        <ele>581</ele>
        <time>2019-03-05T14:47:21Z</time>
      </trkpt>
      <trkpt lat="44.34045" lon="5.90112">
        <ele>581</ele>
        <time>2019-03-05T14:47:22Z</time>
      </trkpt>
      <trkpt lat="44.34038" lon="5.90107">
        <ele>581</ele>
        <time>2019-03-05T14:47:23Z</time>
      </trkpt>
      <trkpt lat="44.34032" lon="5.90101">
        <ele>581</ele>
        <time>2019-03-05T14:47:24Z</time>
      </trkpt>
      <trkpt lat="44.34026" lon="5.90096">
        <ele>581</ele>
        <time>2019-03-05T14:47:25Z</time>
      </trkpt>
      <trkpt lat="44.34019" lon="5.9009">
        <ele>581</ele>
        <time>2019-03-05T14:47:26Z</time>
      </trkpt>
      <trkpt lat="44.34013" lon="5.90084">
        <ele>581</ele>
        <time>2019-03-05T14:47:27Z</time>
      </trkpt>
      <trkpt lat="44.34007" lon="5.90078">
        <ele>581</ele>
        <time>2019-03-05T14:47:28Z</time>
      </trkpt>
      <trkpt lat="44.34" lon="5.90072">
        <ele>581</ele>
        <time>2019-03-05T14:47:29Z</time>
      </trkpt>
      <trkpt lat="44.33994" lon="5.90066">
        <ele>581</ele>
        <time>2019-03-05T14:47:30Z</time>
      </trkpt>
      <trkpt lat="44.33987" lon="5.90061">
        <ele>581</ele>
        <time>2019-03-05T14:47:31Z</time>
      </trkpt>
      <trkpt lat="44.33981" lon="5.90055">
        <ele>581</ele>
        <time>2019-03-05T14:47:32Z</time>
      </trkpt>
      <trkpt lat="44.33976" lon="5.90049">
        <ele>581</ele>
        <time>2019-03-05T14:47:33Z</time>
      </trkpt>
      <trkpt lat="44.3397" lon="5.90043">
        <ele>581</ele>
        <time>2019-03-05T14:47:34Z</time>
      </trkpt>
      <trkpt lat="44.33965" lon="5.90037">
        <ele>581</ele>
        <time>2019-03-05T14:47:35Z</time>
      </trkpt>
      <trkpt lat="44.3396" lon="5.90032">
        <ele>581</ele>
        <time>2019-03-05T14:47:36Z</time>
      </trkpt>
      <trkpt lat="44.33955" lon="5.90027">
        <ele>581</ele>
        <time>2019-03-05T14:47:37Z</time>
      </trkpt>
      <trkpt lat="44.33951" lon="5.90022">
        <ele>581</ele>
        <time>2019-03-05T14:47:38Z</time>
      </trkpt>
      <trkpt lat="44.33947" lon="5.90016">
        <ele>581</ele>
        <time>2019-03-05T14:47:39Z</time>
      </trkpt>
      <trkpt lat="44.33943" lon="5.90011">
        <ele>581</ele>
        <time>2019-03-05T14:47:40Z</time>
      </trkpt>
      <trkpt lat="44.33939" lon="5.90006">
        <ele>581</ele>
        <time>2019-03-05T14:47:41Z</time>
      </trkpt>
      <trkpt lat="44.33936" lon="5.90001">
        <ele>581</ele>
        <time>2019-03-05T14:47:42Z</time>
      </trkpt>
      <trkpt lat="44.33932" lon="5.89997">
        <ele>581</ele>
        <time>2019-03-05T14:47:43Z</time>
      </trkpt>
      <trkpt lat="44.33928" lon="5.89993">
        <ele>581</ele>
        <time>2019-03-05T14:47:44Z</time>
      </trkpt>
      <trkpt lat="44.33924" lon="5.8999">
        <ele>581</ele>
        <time>2019-03-05T14:47:45Z</time>
      </trkpt>
      <trkpt lat="44.33921" lon="5.89986">
        <ele>581</ele>
        <time>2019-03-05T14:47:46Z</time>
      </trkpt>
      <trkpt lat="44.33917" lon="5.89982">
        <ele>581</ele>
        <time>2019-03-05T14:47:47Z</time>
      </trkpt>
      <trkpt lat="44.33913" lon="5.89978">
        <ele>581</ele>
        <time>2019-03-05T14:47:48Z</time>
      </trkpt>
      <trkpt lat="44.33908" lon="5.89973">
        <ele>581</ele>
        <time>2019-03-05T14:47:49Z</time>
      </trkpt>
      <trkpt lat="44.33904" lon="5.89969">
        <ele>581</ele>
        <time>2019-03-05T14:47:50Z</time>
      </trkpt>
      <trkpt lat="44.339" lon="5.89964">
        <ele>581</ele>
        <time>2019-03-05T14:47:51Z</time>
      </trkpt>
      <trkpt lat="44.33895" lon="5.89959">
        <ele>581</ele>
        <time>2019-03-05T14:47:52Z</time>
      </trkpt>
      <trkpt lat="44.3389" lon="5.89954">
        <ele>581</ele>
        <time>2019-03-05T14:47:53Z</time>
      </trkpt>
      <trkpt lat="44.33885" lon="5.89949">
        <ele>581</ele>
        <time>2019-03-05T14:47:54Z</time>
      </trkpt>
      <trkpt lat="44.3388" lon="5.89945">
        <ele>581</ele>
        <time>2019-03-05T14:47:55Z</time>
      </trkpt>
      <trkpt lat="44.33875" lon="5.8994">
        <ele>581</ele>
        <time>2019-03-05T14:47:56Z</time>
      </trkpt>
      <trkpt lat="44.3387" lon="5.89935">
        <ele>581</ele>
        <time>2019-03-05T14:47:57Z</time>
      </trkpt>
      <trkpt lat="44.33865" lon="5.8993">
        <ele>581</ele>
        <time>2019-03-05T14:47:58Z</time>
      </trkpt>
      <trkpt lat="44.3386" lon="5.89925">
        <ele>581</ele>
        <time>2019-03-05T14:47:59Z</time>
      </trkpt>
      <trkpt lat="44.33854" lon="5.8992">
        <ele>581</ele>
        <time>2019-03-05T14:48:00Z</time>
      </trkpt>
      <trkpt lat="44.33849" lon="5.89916">
        <ele>581</ele>
        <time>2019-03-05T14:48:01Z</time>
      </trkpt>
      <trkpt lat="44.33843" lon="5.89911">
        <ele>581</ele>
        <time>2019-03-05T14:48:02Z</time>
      </trkpt>
      <trkpt lat="44.33837" lon="5.89907">
        <ele>581</ele>
        <time>2019-03-05T14:48:03Z</time>
      </trkpt>
      <trkpt lat="44.33831" lon="5.89902">
        <ele>580</ele>
        <time>2019-03-05T14:48:04Z</time>
      </trkpt>
      <trkpt lat="44.33825" lon="5.89897">
        <ele>580</ele>
        <time>2019-03-05T14:48:05Z</time>
      </trkpt>
      <trkpt lat="44.33818" lon="5.89893">
        <ele>580</ele>
        <time>2019-03-05T14:48:06Z</time>
      </trkpt>
      <trkpt lat="44.33813" lon="5.89888">
        <ele>580</ele>
        <time>2019-03-05T14:48:07Z</time>
      </trkpt>
      <trkpt lat="44.33807" lon="5.89883">
        <ele>580</ele>
        <time>2019-03-05T14:48:08Z</time>
      </trkpt>
      <trkpt lat="44.338" lon="5.89878">
        <ele>579</ele>
        <time>2019-03-05T14:48:09Z</time>
      </trkpt>
      <trkpt lat="44.33794" lon="5.89873">
        <ele>579</ele>
        <time>2019-03-05T14:48:10Z</time>
      </trkpt>
      <trkpt lat="44.33788" lon="5.89867">
        <ele>579</ele>
        <time>2019-03-05T14:48:11Z</time>
      </trkpt>
      <trkpt lat="44.33781" lon="5.89862">
        <ele>579</ele>
        <time>2019-03-05T14:48:12Z</time>
      </trkpt>
      <trkpt lat="44.33775" lon="5.89856">
        <ele>578</ele>
        <time>2019-03-05T14:48:13Z</time>
      </trkpt>
      <trkpt lat="44.33768" lon="5.89851">
        <ele>578</ele>
        <time>2019-03-05T14:48:14Z</time>
      </trkpt>
      <trkpt lat="44.33761" lon="5.89845">
        <ele>578</ele>
        <time>2019-03-05T14:48:15Z</time>
      </trkpt>
      <trkpt lat="44.33754" lon="5.89839">
        <ele>577</ele>
        <time>2019-03-05T14:48:16Z</time>
      </trkpt>
      <trkpt lat="44.33748" lon="5.89834">
        <ele>577</ele>
        <time>2019-03-05T14:48:17Z</time>
      </trkpt>
      <trkpt lat="44.33741" lon="5.89829">
        <ele>577</ele>
        <time>2019-03-05T14:48:18Z</time>
      </trkpt>
      <trkpt lat="44.33735" lon="5.89823">
        <ele>577</ele>
        <time>2019-03-05T14:48:19Z</time>
      </trkpt>
      <trkpt lat="44.33728" lon="5.89819">
        <ele>577</ele>
        <time>2019-03-05T14:48:20Z</time>
      </trkpt>
      <trkpt lat="44.33722" lon="5.89815">
        <ele>577</ele>
        <time>2019-03-05T14:48:21Z</time>
      </trkpt>
      <trkpt lat="44.33715" lon="5.89811">
        <ele>577</ele>
        <time>2019-03-05T14:48:22Z</time>
      </trkpt>
      <trkpt lat="44.33709" lon="5.89807">
        <ele>577</ele>
        <time>2019-03-05T14:48:23Z</time>
      </trkpt>
      <trkpt lat="44.33704" lon="5.89804">
        <ele>577</ele>
        <time>2019-03-05T14:48:24Z</time>
      </trkpt>
      <trkpt lat="44.33698" lon="5.89801">
        <ele>577</ele>
        <time>2019-03-05T14:48:25Z</time>
      </trkpt>
      <trkpt lat="44.33693" lon="5.89798">
        <ele>577</ele>
        <time>2019-03-05T14:48:26Z</time>
      </trkpt>
      <trkpt lat="44.33688" lon="5.89796">
        <ele>577</ele>
        <time>2019-03-05T14:48:27Z</time>
      </trkpt>
      <trkpt lat="44.33683" lon="5.89794">
        <ele>577</ele>
        <time>2019-03-05T14:48:28Z</time>
      </trkpt>
      <trkpt lat="44.33679" lon="5.89791">
        <ele>577</ele>
        <time>2019-03-05T14:48:29Z</time>
      </trkpt>
      <trkpt lat="44.33675" lon="5.89789">
        <ele>577</ele>
        <time>2019-03-05T14:48:30Z</time>
      </trkpt>
      <trkpt lat="44.3367" lon="5.89786">
        <ele>577</ele>
        <time>2019-03-05T14:48:31Z</time>
      </trkpt>
      <trkpt lat="44.33665" lon="5.89784">
        <ele>577</ele>
        <time>2019-03-05T14:48:32Z</time>
      </trkpt>
      <trkpt lat="44.33661" lon="5.89781">
        <ele>577</ele>
        <time>2019-03-05T14:48:33Z</time>
      </trkpt>
      <trkpt lat="44.33656" lon="5.89779">
        <ele>577</ele>
        <time>2019-03-05T14:48:34Z</time>
      </trkpt>
      <trkpt lat="44.33651" lon="5.89776">
        <ele>577</ele>
        <time>2019-03-05T14:48:35Z</time>
      </trkpt>
      <trkpt lat="44.33645" lon="5.89774">
        <ele>577</ele>
        <time>2019-03-05T14:48:36Z</time>
      </trkpt>
      <trkpt lat="44.3364" lon="5.89771">
        <ele>577</ele>
        <time>2019-03-05T14:48:37Z</time>
      </trkpt>
      <trkpt lat="44.33635" lon="5.89768">
        <ele>577</ele>
        <time>2019-03-05T14:48:38Z</time>
      </trkpt>
      <trkpt lat="44.3363" lon="5.89765">
        <ele>577</ele>
        <time>2019-03-05T14:48:39Z</time>
      </trkpt>
      <trkpt lat="44.33624" lon="5.89762">
        <ele>577</ele>
        <time>2019-03-05T14:48:40Z</time>
      </trkpt>
      <trkpt lat="44.33619" lon="5.89759">
        <ele>577</ele>
        <time>2019-03-05T14:48:41Z</time>
      </trkpt>
      <trkpt lat="44.33614" lon="5.89756">
        <ele>577</ele>
        <time>2019-03-05T14:48:42Z</time>
      </trkpt>
      <trkpt lat="44.33608" lon="5.89753">
        <ele>577</ele>
        <time>2019-03-05T14:48:43Z</time>
      </trkpt>
      <trkpt lat="44.33603" lon="5.89751">
        <ele>577</ele>
        <time>2019-03-05T14:48:44Z</time>
      </trkpt>
      <trkpt lat="44.33597" lon="5.89748">
        <ele>577</ele>
        <time>2019-03-05T14:48:45Z</time>
      </trkpt>
      <trkpt lat="44.33591" lon="5.89746">
        <ele>577</ele>
        <time>2019-03-05T14:48:46Z</time>
      </trkpt>
      <trkpt lat="44.33586" lon="5.89743">
        <ele>577</ele>
        <time>2019-03-05T14:48:47Z</time>
      </trkpt>
      <trkpt lat="44.3358" lon="5.8974">
        <ele>577</ele>
        <time>2019-03-05T14:48:48Z</time>
      </trkpt>
      <trkpt lat="44.33575" lon="5.89737">
        <ele>577</ele>
        <time>2019-03-05T14:48:49Z</time>
      </trkpt>
      <trkpt lat="44.33569" lon="5.89734">
        <ele>577</ele>
        <time>2019-03-05T14:48:50Z</time>
      </trkpt>
      <trkpt lat="44.33563" lon="5.89732">
        <ele>577</ele>
        <time>2019-03-05T14:48:51Z</time>
      </trkpt>
      <trkpt lat="44.33557" lon="5.89729">
        <ele>577</ele>
        <time>2019-03-05T14:48:52Z</time>
      </trkpt>
      <trkpt lat="44.33551" lon="5.89727">
        <ele>577</ele>
        <time>2019-03-05T14:48:53Z</time>
      </trkpt>
      <trkpt lat="44.33545" lon="5.89724">
        <ele>577</ele>
        <time>2019-03-05T14:48:54Z</time>
      </trkpt>
      <trkpt lat="44.33539" lon="5.89722">
        <ele>577</ele>
        <time>2019-03-05T14:48:55Z</time>
      </trkpt>
      <trkpt lat="44.33533" lon="5.89719">
        <ele>577</ele>
        <time>2019-03-05T14:48:56Z</time>
      </trkpt>
      <trkpt lat="44.33527" lon="5.89716">
        <ele>577</ele>
        <time>2019-03-05T14:48:57Z</time>
      </trkpt>
      <trkpt lat="44.33522" lon="5.89713">
        <ele>577</ele>
        <time>2019-03-05T14:48:58Z</time>
      </trkpt>
      <trkpt lat="44.33516" lon="5.8971">
        <ele>577</ele>
        <time>2019-03-05T14:48:59Z</time>
      </trkpt>
      <trkpt lat="44.33511" lon="5.89707">
        <ele>577</ele>
        <time>2019-03-05T14:49:00Z</time>
      </trkpt>
      <trkpt lat="44.33505" lon="5.89704">
        <ele>577</ele>
        <time>2019-03-05T14:49:01Z</time>
      </trkpt>
      <trkpt lat="44.33499" lon="5.89701">
        <ele>577</ele>
        <time>2019-03-05T14:49:02Z</time>
      </trkpt>
      <trkpt lat="44.33493" lon="5.89698">
        <ele>577</ele>
        <time>2019-03-05T14:49:03Z</time>
      </trkpt>
      <trkpt lat="44.33488" lon="5.89696">
        <ele>577</ele>
        <time>2019-03-05T14:49:04Z</time>
      </trkpt>
      <trkpt lat="44.33482" lon="5.89693">
        <ele>577</ele>
        <time>2019-03-05T14:49:05Z</time>
      </trkpt>
      <trkpt lat="44.33476" lon="5.8969">
        <ele>577</ele>
        <time>2019-03-05T14:49:06Z</time>
      </trkpt>
      <trkpt lat="44.33471" lon="5.89688">
        <ele>577</ele>
        <time>2019-03-05T14:49:07Z</time>
      </trkpt>
      <trkpt lat="44.33465" lon="5.89685">
        <ele>577</ele>
        <time>2019-03-05T14:49:08Z</time>
      </trkpt>
      <trkpt lat="44.33459" lon="5.89682">
        <ele>577</ele>
        <time>2019-03-05T14:49:09Z</time>
      </trkpt>
      <trkpt lat="44.33453" lon="5.89678">
        <ele>577</ele>
        <time>2019-03-05T14:49:10Z</time>
      </trkpt>
      <trkpt lat="44.33448" lon="5.89676">
        <ele>577</ele>
        <time>2019-03-05T14:49:11Z</time>
      </trkpt>
      <trkpt lat="44.33442" lon="5.89673">
        <ele>577</ele>
        <time>2019-03-05T14:49:12Z</time>
      </trkpt>
      <trkpt lat="44.33436" lon="5.8967">
        <ele>577</ele>
        <time>2019-03-05T14:49:13Z</time>
      </trkpt>
      <trkpt lat="44.3343" lon="5.89667">
        <ele>577</ele>
        <time>2019-03-05T14:49:14Z</time>
      </trkpt>
      <trkpt lat="44.33425" lon="5.89664">
        <ele>577</ele>
        <time>2019-03-05T14:49:15Z</time>
      </trkpt>
      <trkpt lat="44.33419" lon="5.89661">
        <ele>577</ele>
        <time>2019-03-05T14:49:16Z</time>
      </trkpt>
      <trkpt lat="44.33413" lon="5.89658">
        <ele>577</ele>
        <time>2019-03-05T14:49:17Z</time>
      </trkpt>
      <trkpt lat="44.33407" lon="5.89655">
        <ele>577</ele>
        <time>2019-03-05T14:49:18Z</time>
      </trkpt>
      <trkpt lat="44.33401" lon="5.89652">
        <ele>577</ele>
        <time>2019-03-05T14:49:19Z</time>
      </trkpt>
      <trkpt lat="44.33395" lon="5.89649">
        <ele>577</ele>
        <time>2019-03-05T14:49:20Z</time>
      </trkpt>
      <trkpt lat="44.33389" lon="5.89647">
        <ele>577</ele>
        <time>2019-03-05T14:49:21Z</time>
      </trkpt>
      <trkpt lat="44.33384" lon="5.89644">
        <ele>577</ele>
        <time>2019-03-05T14:49:22Z</time>
      </trkpt>
      <trkpt lat="44.33377" lon="5.89642">
        <ele>577</ele>
        <time>2019-03-05T14:49:23Z</time>
      </trkpt>
      <trkpt lat="44.33372" lon="5.8964">
        <ele>577</ele>
        <time>2019-03-05T14:49:24Z</time>
      </trkpt>
      <trkpt lat="44.33366" lon="5.89637">
        <ele>577</ele>
        <time>2019-03-05T14:49:25Z</time>
      </trkpt>
      <trkpt lat="44.33361" lon="5.89635">
        <ele>577</ele>
        <time>2019-03-05T14:49:26Z</time>
      </trkpt>
      <trkpt lat="44.33355" lon="5.89633">
        <ele>577</ele>
        <time>2019-03-05T14:49:27Z</time>
      </trkpt>
      <trkpt lat="44.33349" lon="5.8963">
        <ele>577</ele>
        <time>2019-03-05T14:49:28Z</time>
      </trkpt>
      <trkpt lat="44.33344" lon="5.89628">
        <ele>577</ele>
        <time>2019-03-05T14:49:29Z</time>
      </trkpt>
      <trkpt lat="44.33338" lon="5.89625">
        <ele>577</ele>
        <time>2019-03-05T14:49:30Z</time>
      </trkpt>
      <trkpt lat="44.33333" lon="5.89623">
        <ele>577</ele>
        <time>2019-03-05T14:49:31Z</time>
      </trkpt>
      <trkpt lat="44.33327" lon="5.8962">
        <ele>577</ele>
        <time>2019-03-05T14:49:32Z</time>
      </trkpt>
      <trkpt lat="44.33322" lon="5.89618">
        <ele>577</ele>
        <time>2019-03-05T14:49:33Z</time>
      </trkpt>
      <trkpt lat="44.33316" lon="5.89616">
        <ele>577</ele>
        <time>2019-03-05T14:49:34Z</time>
      </trkpt>
      <trkpt lat="44.3331" lon="5.89613">
        <ele>577</ele>
        <time>2019-03-05T14:49:35Z</time>
      </trkpt>
      <trkpt lat="44.33305" lon="5.89611">
        <ele>577</ele>
        <time>2019-03-05T14:49:36Z</time>
      </trkpt>
      <trkpt lat="44.33299" lon="5.89609">
        <ele>577</ele>
        <time>2019-03-05T14:49:37Z</time>
      </trkpt>
      <trkpt lat="44.33294" lon="5.89607">
        <ele>577</ele>
        <time>2019-03-05T14:49:38Z</time>
      </trkpt>
      <trkpt lat="44.33289" lon="5.89604">
        <ele>577</ele>
        <time>2019-03-05T14:49:39Z</time>
      </trkpt>
      <trkpt lat="44.33284" lon="5.89602">
        <ele>577</ele>
        <time>2019-03-05T14:49:40Z</time>
      </trkpt>
      <trkpt lat="44.33278" lon="5.896">
        <ele>577</ele>
        <time>2019-03-05T14:49:41Z</time>
      </trkpt>
      <trkpt lat="44.33273" lon="5.89598">
        <ele>577</ele>
        <time>2019-03-05T14:49:42Z</time>
      </trkpt>
      <trkpt lat="44.33268" lon="5.89596">
        <ele>577</ele>
        <time>2019-03-05T14:49:43Z</time>
      </trkpt>
      <trkpt lat="44.33263" lon="5.89594">
        <ele>577</ele>
        <time>2019-03-05T14:49:44Z</time>
      </trkpt>
      <trkpt lat="44.33258" lon="5.89592">
        <ele>577</ele>
        <time>2019-03-05T14:49:45Z</time>
      </trkpt>
      <trkpt lat="44.33253" lon="5.8959">
        <ele>577</ele>
        <time>2019-03-05T14:49:46Z</time>
      </trkpt>
      <trkpt lat="44.33248" lon="5.89588">
        <ele>577</ele>
        <time>2019-03-05T14:49:47Z</time>
      </trkpt>
      <trkpt lat="44.33243" lon="5.89586">
        <ele>577</ele>
        <time>2019-03-05T14:49:48Z</time>
      </trkpt>
      <trkpt lat="44.33238" lon="5.89584">
        <ele>577</ele>
        <time>2019-03-05T14:49:49Z</time>
      </trkpt>
      <trkpt lat="44.33232" lon="5.89582">
        <ele>577</ele>
        <time>2019-03-05T14:49:50Z</time>
      </trkpt>
      <trkpt lat="44.33227" lon="5.8958">
        <ele>577</ele>
        <time>2019-03-05T14:49:51Z</time>
      </trkpt>
      <trkpt lat="44.33221" lon="5.89577">
        <ele>577</ele>
        <time>2019-03-05T14:49:52Z</time>
      </trkpt>
      <trkpt lat="44.33216" lon="5.89575">
        <ele>577</ele>
        <time>2019-03-05T14:49:53Z</time>
      </trkpt>
      <trkpt lat="44.3321" lon="5.89574">
        <ele>577</ele>
        <time>2019-03-05T14:49:54Z</time>
      </trkpt>
      <trkpt lat="44.33205" lon="5.89572">
        <ele>577</ele>
        <time>2019-03-05T14:49:55Z</time>
      </trkpt>
      <trkpt lat="44.33199" lon="5.8957">
        <ele>577</ele>
        <time>2019-03-05T14:49:56Z</time>
      </trkpt>
      <trkpt lat="44.33194" lon="5.89567">
        <ele>577</ele>
        <time>2019-03-05T14:49:57Z</time>
      </trkpt>
      <trkpt lat="44.33188" lon="5.89566">
        <ele>577</ele>
        <time>2019-03-05T14:49:58Z</time>
      </trkpt>
      <trkpt lat="44.33182" lon="5.89564">
        <ele>577</ele>
        <time>2019-03-05T14:49:59Z</time>
      </trkpt>
      <trkpt lat="44.33176" lon="5.89561">
        <ele>577</ele>
        <time>2019-03-05T14:50:00Z</time>
      </trkpt>
      <trkpt lat="44.3317" lon="5.8956">
        <ele>577</ele>
        <time>2019-03-05T14:50:01Z</time>
      </trkpt>
      <trkpt lat="44.33164" lon="5.89558">
        <ele>577</ele>
        <time>2019-03-05T14:50:02Z</time>
      </trkpt>
      <trkpt lat="44.33158" lon="5.89556">
        <ele>577</ele>
        <time>2019-03-05T14:50:03Z</time>
      </trkpt>
      <trkpt lat="44.33152" lon="5.89554">
        <ele>577</ele>
        <time>2019-03-05T14:50:04Z</time>
      </trkpt>
      <trkpt lat="44.33147" lon="5.89552">
        <ele>577</ele>
        <time>2019-03-05T14:50:05Z</time>
      </trkpt>
      <trkpt lat="44.3314" lon="5.8955">
        <ele>577</ele>
        <time>2019-03-05T14:50:06Z</time>
      </trkpt>
      <trkpt lat="44.33134" lon="5.89548">
        <ele>577</ele>
        <time>2019-03-05T14:50:07Z</time>
      </trkpt>
      <trkpt lat="44.33128" lon="5.89546">
        <ele>577</ele>
        <time>2019-03-05T14:50:08Z</time>
      </trkpt>
      <trkpt lat="44.33122" lon="5.89544">
        <ele>577</ele>
        <time>2019-03-05T14:50:09Z</time>
      </trkpt>
      <trkpt lat="44.33116" lon="5.89542">
        <ele>577</ele>
        <time>2019-03-05T14:50:10Z</time>
      </trkpt>
      <trkpt lat="44.3311" lon="5.8954">
        <ele>577</ele>
        <time>2019-03-05T14:50:11Z</time>
      </trkpt>
      <trkpt lat="44.33104" lon="5.89538">
        <ele>577</ele>
        <time>2019-03-05T14:50:12Z</time>
      </trkpt>
      <trkpt lat="44.33098" lon="5.89536">
        <ele>577</ele>
        <time>2019-03-05T14:50:13Z</time>
      </trkpt>
      <trkpt lat="44.33092" lon="5.89534">
        <ele>577</ele>
        <time>2019-03-05T14:50:14Z</time>
      </trkpt>
      <trkpt lat="44.33086" lon="5.89532">
        <ele>577</ele>
        <time>2019-03-05T14:50:15Z</time>
      </trkpt>
      <trkpt lat="44.3308" lon="5.8953">
        <ele>577</ele>
        <time>2019-03-05T14:50:16Z</time>
      </trkpt>
      <trkpt lat="44.33074" lon="5.89529">
        <ele>577</ele>
        <time>2019-03-05T14:50:17Z</time>
      </trkpt>
      <trkpt lat="44.33068" lon="5.89527">
        <ele>577</ele>
        <time>2019-03-05T14:50:18Z</time>
      </trkpt>
      <trkpt lat="44.33062" lon="5.89526">
        <ele>577</ele>
        <time>2019-03-05T14:50:19Z</time>
      </trkpt>
      <trkpt lat="44.33056" lon="5.89524">
        <ele>577</ele>
        <time>2019-03-05T14:50:20Z</time>
      </trkpt>
      <trkpt lat="44.3305" lon="5.89522">
        <ele>577</ele>
        <time>2019-03-05T14:50:21Z</time>
      </trkpt>
      <trkpt lat="44.33044" lon="5.8952">
        <ele>577</ele>
        <time>2019-03-05T14:50:22Z</time>
      </trkpt>
      <trkpt lat="44.33038" lon="5.89518">
        <ele>577</ele>
        <time>2019-03-05T14:50:23Z</time>
      </trkpt>
      <trkpt lat="44.33032" lon="5.89515">
        <ele>577</ele>
        <time>2019-03-05T14:50:24Z</time>
      </trkpt>
      <trkpt lat="44.33026" lon="5.89513">
        <ele>577</ele>
        <time>2019-03-05T14:50:25Z</time>
      </trkpt>
      <trkpt lat="44.3302" lon="5.89511">
        <ele>577</ele>
        <time>2019-03-05T14:50:26Z</time>
      </trkpt>
      <trkpt lat="44.33014" lon="5.89509">
        <ele>577</ele>
        <time>2019-03-05T14:50:27Z</time>
      </trkpt>
      <trkpt lat="44.33008" lon="5.89507">
        <ele>577</ele>
        <time>2019-03-05T14:50:28Z</time>
      </trkpt>
      <trkpt lat="44.33002" lon="5.89504">
        <ele>577</ele>
        <time>2019-03-05T14:50:29Z</time>
      </trkpt>
      <trkpt lat="44.32996" lon="5.89502">
        <ele>577</ele>
        <time>2019-03-05T14:50:30Z</time>
      </trkpt>
      <trkpt lat="44.32991" lon="5.895">
        <ele>577</ele>
        <time>2019-03-05T14:50:31Z</time>
      </trkpt>
      <trkpt lat="44.32985" lon="5.89498">
        <ele>577</ele>
        <time>2019-03-05T14:50:32Z</time>
      </trkpt>
      <trkpt lat="44.3298" lon="5.89493">
        <ele>577</ele>
        <time>2019-03-05T14:50:33Z</time>
      </trkpt>
      <trkpt lat="44.32974" lon="5.89491">
        <ele>577</ele>
        <time>2019-03-05T14:50:34Z</time>
      </trkpt>
      <trkpt lat="44.32968" lon="5.89488">
        <ele>577</ele>
        <time>2019-03-05T14:50:35Z</time>
      </trkpt>
      <trkpt lat="44.32963" lon="5.89485">
        <ele>577</ele>
        <time>2019-03-05T14:50:36Z</time>
      </trkpt>
      <trkpt lat="44.32957" lon="5.89483">
        <ele>577</ele>
        <time>2019-03-05T14:50:37Z</time>
      </trkpt>
      <trkpt lat="44.32952" lon="5.8948">
        <ele>577</ele>
        <time>2019-03-05T14:50:38Z</time>
      </trkpt>
      <trkpt lat="44.32946" lon="5.89477">
        <ele>577</ele>
        <time>2019-03-05T14:50:39Z</time>
      </trkpt>
      <trkpt lat="44.32941" lon="5.89474">
        <ele>577</ele>
        <time>2019-03-05T14:50:40Z</time>
      </trkpt>
      <trkpt lat="44.32935" lon="5.89471">
        <ele>577</ele>
        <time>2019-03-05T14:50:41Z</time>
      </trkpt>
      <trkpt lat="44.3293" lon="5.89468">
        <ele>577</ele>
        <time>2019-03-05T14:50:42Z</time>
      </trkpt>
      <trkpt lat="44.32924" lon="5.89465">
        <ele>577</ele>
        <time>2019-03-05T14:50:43Z</time>
      </trkpt>
      <trkpt lat="44.32919" lon="5.89462">
        <ele>577</ele>
        <time>2019-03-05T14:50:44Z</time>
      </trkpt>
      <trkpt lat="44.32913" lon="5.89459">
        <ele>577</ele>
        <time>2019-03-05T14:50:45Z</time>
      </trkpt>
      <trkpt lat="44.32908" lon="5.89455">
        <ele>577</ele>
        <time>2019-03-05T14:50:46Z</time>
      </trkpt>
      <trkpt lat="44.32902" lon="5.89452">
        <ele>577</ele>
        <time>2019-03-05T14:50:47Z</time>
      </trkpt>
      <trkpt lat="44.32897" lon="5.89448">
        <ele>577</ele>
        <time>2019-03-05T14:50:48Z</time>
      </trkpt>
      <trkpt lat="44.32892" lon="5.89444">
        <ele>577</ele>
        <time>2019-03-05T14:50:49Z</time>
      </trkpt>
      <trkpt lat="44.32886" lon="5.89441">
        <ele>577</ele>
        <time>2019-03-05T14:50:50Z</time>
      </trkpt>
      <trkpt lat="44.32881" lon="5.89437">
        <ele>577</ele>
        <time>2019-03-05T14:50:51Z</time>
      </trkpt>
      <trkpt lat="44.32875" lon="5.89433">
        <ele>577</ele>
        <time>2019-03-05T14:50:52Z</time>
      </trkpt>
      <trkpt lat="44.3287" lon="5.8943">
        <ele>577</ele>
        <time>2019-03-05T14:50:53Z</time>
      </trkpt>
      <trkpt lat="44.32864" lon="5.89426">
        <ele>577</ele>
        <time>2019-03-05T14:50:54Z</time>
      </trkpt>
      <trkpt lat="44.32859" lon="5.89422">
        <ele>577</ele>
        <time>2019-03-05T14:50:55Z</time>
      </trkpt>
      <trkpt lat="44.32854" lon="5.89419">
        <ele>577</ele>
        <time>2019-03-05T14:50:56Z</time>
      </trkpt>
      <trkpt lat="44.32848" lon="5.89415">
        <ele>577</ele>
        <time>2019-03-05T14:50:57Z</time>
      </trkpt>
      <trkpt lat="44.32843" lon="5.89411">
        <ele>577</ele>
        <time>2019-03-05T14:50:58Z</time>
      </trkpt>
      <trkpt lat="44.32838" lon="5.89408">
        <ele>577</ele>
        <time>2019-03-05T14:50:59Z</time>
      </trkpt>
      <trkpt lat="44.32832" lon="5.89404">
        <ele>577</ele>
        <time>2019-03-05T14:51:00Z</time>
      </trkpt>
      <trkpt lat="44.32827" lon="5.89401">
        <ele>577</ele>
        <time>2019-03-05T14:51:01Z</time>
      </trkpt>
      <trkpt lat="44.32822" lon="5.89397">
        <ele>577</ele>
        <time>2019-03-05T14:51:02Z</time>
      </trkpt>
      <trkpt lat="44.32816" lon="5.89393">
        <ele>577</ele>
        <time>2019-03-05T14:51:03Z</time>
      </trkpt>
      <trkpt lat="44.32811" lon="5.89389">
        <ele>577</ele>
        <time>2019-03-05T14:51:04Z</time>
      </trkpt>
      <trkpt lat="44.32806" lon="5.89385">
        <ele>577</ele>
        <time>2019-03-05T14:51:05Z</time>
      </trkpt>
      <trkpt lat="44.328" lon="5.89381">
        <ele>577</ele>
        <time>2019-03-05T14:51:06Z</time>
      </trkpt>
      <trkpt lat="44.32795" lon="5.89376">
        <ele>577</ele>
        <time>2019-03-05T14:51:07Z</time>
      </trkpt>
      <trkpt lat="44.32789" lon="5.89372">
        <ele>577</ele>
        <time>2019-03-05T14:51:08Z</time>
      </trkpt>
      <trkpt lat="44.32784" lon="5.89368">
        <ele>577</ele>
        <time>2019-03-05T14:51:09Z</time>
      </trkpt>
      <trkpt lat="44.32779" lon="5.89364">
        <ele>577</ele>
        <time>2019-03-05T14:51:10Z</time>
      </trkpt>
      <trkpt lat="44.32773" lon="5.8936">
        <ele>577</ele>
        <time>2019-03-05T14:51:11Z</time>
      </trkpt>
      <trkpt lat="44.32768" lon="5.89356">
        <ele>577</ele>
        <time>2019-03-05T14:51:12Z</time>
      </trkpt>
      <trkpt lat="44.32763" lon="5.89353">
        <ele>577</ele>
        <time>2019-03-05T14:51:13Z</time>
      </trkpt>
      <trkpt lat="44.32757" lon="5.89349">
        <ele>577</ele>
        <time>2019-03-05T14:51:14Z</time>
      </trkpt>
      <trkpt lat="44.32752" lon="5.89345">
        <ele>577</ele>
        <time>2019-03-05T14:51:15Z</time>
      </trkpt>
      <trkpt lat="44.32747" lon="5.89341">
        <ele>577</ele>
        <time>2019-03-05T14:51:16Z</time>
      </trkpt>
      <trkpt lat="44.32742" lon="5.89338">
        <ele>577</ele>
        <time>2019-03-05T14:51:17Z</time>
      </trkpt>
      <trkpt lat="44.32736" lon="5.89334">
        <ele>577</ele>
        <time>2019-03-05T14:51:18Z</time>
      </trkpt>
      <trkpt lat="44.32731" lon="5.8933">
        <ele>577</ele>
        <time>2019-03-05T14:51:19Z</time>
      </trkpt>
      <trkpt lat="44.32726" lon="5.89326">
        <ele>577</ele>
        <time>2019-03-05T14:51:20Z</time>
      </trkpt>
      <trkpt lat="44.32721" lon="5.89323">
        <ele>577</ele>
        <time>2019-03-05T14:51:21Z</time>
      </trkpt>
      <trkpt lat="44.32716" lon="5.89319">
        <ele>577</ele>
        <time>2019-03-05T14:51:22Z</time>
      </trkpt>
      <trkpt lat="44.32711" lon="5.89315">
        <ele>577</ele>
        <time>2019-03-05T14:51:23Z</time>
      </trkpt>
      <trkpt lat="44.32705" lon="5.89311">
        <ele>577</ele>
        <time>2019-03-05T14:51:24Z</time>
      </trkpt>
      <trkpt lat="44.327" lon="5.89308">
        <ele>577</ele>
        <time>2019-03-05T14:51:25Z</time>
      </trkpt>
      <trkpt lat="44.32695" lon="5.89304">
        <ele>577</ele>
        <time>2019-03-05T14:51:26Z</time>
      </trkpt>
      <trkpt lat="44.3269" lon="5.893">
        <ele>577</ele>
        <time>2019-03-05T14:51:27Z</time>
      </trkpt>
      <trkpt lat="44.32684" lon="5.89297">
        <ele>577</ele>
        <time>2019-03-05T14:51:28Z</time>
      </trkpt>
      <trkpt lat="44.32679" lon="5.89293">
        <ele>577</ele>
        <time>2019-03-05T14:51:29Z</time>
      </trkpt>
      <trkpt lat="44.32674" lon="5.89289">
        <ele>577</ele>
        <time>2019-03-05T14:51:30Z</time>
      </trkpt>
      <trkpt lat="44.32669" lon="5.89286">
        <ele>577</ele>
        <time>2019-03-05T14:51:31Z</time>
      </trkpt>
      <trkpt lat="44.32664" lon="5.89282">
        <ele>577</ele>
        <time>2019-03-05T14:51:32Z</time>
      </trkpt>
      <trkpt lat="44.32658" lon="5.89278">
        <ele>577</ele>
        <time>2019-03-05T14:51:33Z</time>
      </trkpt>
      <trkpt lat="44.32653" lon="5.89274">
        <ele>577</ele>
        <time>2019-03-05T14:51:34Z</time>
      </trkpt>
      <trkpt lat="44.32648" lon="5.89269">
        <ele>577</ele>
        <time>2019-03-05T14:51:35Z</time>
      </trkpt>
      <trkpt lat="44.32643" lon="5.89265">
        <ele>577</ele>
        <time>2019-03-05T14:51:36Z</time>
      </trkpt>
      <trkpt lat="44.32639" lon="5.89261">
        <ele>577</ele>
        <time>2019-03-05T14:51:37Z</time>
      </trkpt>
      <trkpt lat="44.32634" lon="5.89257">
        <ele>577</ele>
        <time>2019-03-05T14:51:38Z</time>
      </trkpt>
      <trkpt lat="44.32629" lon="5.89254">
        <ele>577</ele>
        <time>2019-03-05T14:51:39Z</time>
      </trkpt>
      <trkpt lat="44.32625" lon="5.89251">
        <ele>577</ele>
        <time>2019-03-05T14:51:40Z</time>
      </trkpt>
      <trkpt lat="44.32619" lon="5.89248">
        <ele>577</ele>
        <time>2019-03-05T14:51:41Z</time>
      </trkpt>
      <trkpt lat="44.32614" lon="5.89245">
        <ele>577</ele>
        <time>2019-03-05T14:51:42Z</time>
      </trkpt>
      <trkpt lat="44.32609" lon="5.89241">
        <ele>577</ele>
        <time>2019-03-05T14:51:43Z</time>
      </trkpt>
      <trkpt lat="44.32603" lon="5.89238">
        <ele>577</ele>
        <time>2019-03-05T14:51:44Z</time>
      </trkpt>
      <trkpt lat="44.32597" lon="5.89235">
        <ele>577</ele>
        <time>2019-03-05T14:51:45Z</time>
      </trkpt>
      <trkpt lat="44.32592" lon="5.89232">
        <ele>577</ele>
        <time>2019-03-05T14:51:46Z</time>
      </trkpt>
      <trkpt lat="44.32586" lon="5.89228">
        <ele>577</ele>
        <time>2019-03-05T14:51:47Z</time>
      </trkpt>
      <trkpt lat="44.32579" lon="5.89225">
        <ele>577</ele>
        <time>2019-03-05T14:51:48Z</time>
      </trkpt>
      <trkpt lat="44.32573" lon="5.89222">
        <ele>577</ele>
        <time>2019-03-05T14:51:49Z</time>
      </trkpt>
      <trkpt lat="44.32567" lon="5.89219">
        <ele>577</ele>
        <time>2019-03-05T14:51:50Z</time>
      </trkpt>
      <trkpt lat="44.32561" lon="5.89216">
        <ele>577</ele>
        <time>2019-03-05T14:51:51Z</time>
      </trkpt>
      <trkpt lat="44.32555" lon="5.89213">
        <ele>577</ele>
        <time>2019-03-05T14:51:52Z</time>
      </trkpt>
      <trkpt lat="44.3255" lon="5.8921">
        <ele>577</ele>
        <time>2019-03-05T14:51:53Z</time>
      </trkpt>
      <trkpt lat="44.32544" lon="5.89208">
        <ele>577</ele>
        <time>2019-03-05T14:51:54Z</time>
      </trkpt>
      <trkpt lat="44.32537" lon="5.89205">
        <ele>577</ele>
        <time>2019-03-05T14:51:55Z</time>
      </trkpt>
      <trkpt lat="44.32531" lon="5.89202">
        <ele>577</ele>
        <time>2019-03-05T14:51:56Z</time>
      </trkpt>
      <trkpt lat="44.32525" lon="5.892">
        <ele>577</ele>
        <time>2019-03-05T14:51:57Z</time>
      </trkpt>
      <trkpt lat="44.32518" lon="5.89197">
        <ele>577</ele>
        <time>2019-03-05T14:51:58Z</time>
      </trkpt>
      <trkpt lat="44.32512" lon="5.89195">
        <ele>577</ele>
        <time>2019-03-05T14:51:59Z</time>
      </trkpt>
      <trkpt lat="44.32506" lon="5.89192">
        <ele>577</ele>
        <time>2019-03-05T14:52:00Z</time>
      </trkpt>
      <trkpt lat="44.325" lon="5.8919">
        <ele>577</ele>
        <time>2019-03-05T14:52:01Z</time>
      </trkpt>
      <trkpt lat="44.32494" lon="5.89187">
        <ele>577</ele>
        <time>2019-03-05T14:52:02Z</time>
      </trkpt>
      <trkpt lat="44.32487" lon="5.89185">
        <ele>577</ele>
        <time>2019-03-05T14:52:03Z</time>
      </trkpt>
      <trkpt lat="44.32481" lon="5.89183">
        <ele>577</ele>
        <time>2019-03-05T14:52:04Z</time>
      </trkpt>
      <trkpt lat="44.32474" lon="5.89181">
        <ele>577</ele>
        <time>2019-03-05T14:52:05Z</time>
      </trkpt>
      <trkpt lat="44.32468" lon="5.89178">
        <ele>577</ele>
        <time>2019-03-05T14:52:06Z</time>
      </trkpt>
      <trkpt lat="44.32461" lon="5.89176">
        <ele>577</ele>
        <time>2019-03-05T14:52:07Z</time>
      </trkpt>
      <trkpt lat="44.32454" lon="5.89174">
        <ele>577</ele>
        <time>2019-03-05T14:52:08Z</time>
      </trkpt>
      <trkpt lat="44.32448" lon="5.89172">
        <ele>577</ele>
        <time>2019-03-05T14:52:09Z</time>
      </trkpt>
      <trkpt lat="44.32441" lon="5.89171">
        <ele>577</ele>
        <time>2019-03-05T14:52:10Z</time>
      </trkpt>
      <trkpt lat="44.32435" lon="5.89169">
        <ele>577</ele>
        <time>2019-03-05T14:52:11Z</time>
      </trkpt>
      <trkpt lat="44.32429" lon="5.89166">
        <ele>577</ele>
        <time>2019-03-05T14:52:12Z</time>
      </trkpt>
      <trkpt lat="44.32423" lon="5.89164">
        <ele>577</ele>
        <time>2019-03-05T14:52:13Z</time>
      </trkpt>
      <trkpt lat="44.32417" lon="5.89162">
        <ele>577</ele>
        <time>2019-03-05T14:52:14Z</time>
      </trkpt>
      <trkpt lat="44.32411" lon="5.8916">
        <ele>577</ele>
        <time>2019-03-05T14:52:15Z</time>
      </trkpt>
      <trkpt lat="44.32405" lon="5.89157">
        <ele>577</ele>
        <time>2019-03-05T14:52:16Z</time>
      </trkpt>
      <trkpt lat="44.32399" lon="5.89155">
        <ele>577</ele>
        <time>2019-03-05T14:52:17Z</time>
      </trkpt>
      <trkpt lat="44.32393" lon="5.89153">
        <ele>577</ele>
        <time>2019-03-05T14:52:18Z</time>
      </trkpt>
      <trkpt lat="44.32386" lon="5.89152">
        <ele>577</ele>
        <time>2019-03-05T14:52:19Z</time>
      </trkpt>
      <trkpt lat="44.3238" lon="5.8915">
        <ele>577</ele>
        <time>2019-03-05T14:52:20Z</time>
      </trkpt>
      <trkpt lat="44.32374" lon="5.89148">
        <ele>577</ele>
        <time>2019-03-05T14:52:21Z</time>
      </trkpt>
      <trkpt lat="44.32368" lon="5.89146">
        <ele>577</ele>
        <time>2019-03-05T14:52:22Z</time>
      </trkpt>
      <trkpt lat="44.32362" lon="5.89144">
        <ele>577</ele>
        <time>2019-03-05T14:52:23Z</time>
      </trkpt>
      <trkpt lat="44.32356" lon="5.89143">
        <ele>577</ele>
        <time>2019-03-05T14:52:24Z</time>
      </trkpt>
      <trkpt lat="44.3235" lon="5.89141">
        <ele>577</ele>
        <time>2019-03-05T14:52:25Z</time>
      </trkpt>
      <trkpt lat="44.32344" lon="5.8914">
        <ele>577</ele>
        <time>2019-03-05T14:52:26Z</time>
      </trkpt>
      <trkpt lat="44.32337" lon="5.89138">
        <ele>577</ele>
        <time>2019-03-05T14:52:27Z</time>
      </trkpt>
      <trkpt lat="44.32331" lon="5.89136">
        <ele>577</ele>
        <time>2019-03-05T14:52:28Z</time>
      </trkpt>
      <trkpt lat="44.32325" lon="5.89134">
        <ele>577</ele>
        <time>2019-03-05T14:52:29Z</time>
      </trkpt>
      <trkpt lat="44.32319" lon="5.89131">
        <ele>577</ele>
        <time>2019-03-05T14:52:30Z</time>
      </trkpt>
      <trkpt lat="44.32313" lon="5.89128">
        <ele>577</ele>
        <time>2019-03-05T14:52:31Z</time>
      </trkpt>
      <trkpt lat="44.32307" lon="5.89126">
        <ele>577</ele>
        <time>2019-03-05T14:52:32Z</time>
      </trkpt>
      <trkpt lat="44.32301" lon="5.89124">
        <ele>577</ele>
        <time>2019-03-05T14:52:33Z</time>
      </trkpt>
      <trkpt lat="44.32295" lon="5.89122">
        <ele>577</ele>
        <time>2019-03-05T14:52:34Z</time>
      </trkpt>
      <trkpt lat="44.32289" lon="5.8912">
        <ele>577</ele>
        <time>2019-03-05T14:52:35Z</time>
      </trkpt>
      <trkpt lat="44.32283" lon="5.89118">
        <ele>577</ele>
        <time>2019-03-05T14:52:36Z</time>
      </trkpt>
      <trkpt lat="44.32278" lon="5.89115">
        <ele>577</ele>
        <time>2019-03-05T14:52:37Z</time>
      </trkpt>
      <trkpt lat="44.32272" lon="5.89114">
        <ele>577</ele>
        <time>2019-03-05T14:52:38Z</time>
      </trkpt>
      <trkpt lat="44.32265" lon="5.89112">
        <ele>577</ele>
        <time>2019-03-05T14:52:39Z</time>
      </trkpt>
      <trkpt lat="44.32259" lon="5.89111">
        <ele>577</ele>
        <time>2019-03-05T14:52:40Z</time>
      </trkpt>
      <trkpt lat="44.32253" lon="5.89109">
        <ele>577</ele>
        <time>2019-03-05T14:52:41Z</time>
      </trkpt>
      <trkpt lat="44.32247" lon="5.89108">
        <ele>577</ele>
        <time>2019-03-05T14:52:42Z</time>
      </trkpt>
      <trkpt lat="44.32241" lon="5.89106">
        <ele>577</ele>
        <time>2019-03-05T14:52:43Z</time>
      </trkpt>
      <trkpt lat="44.32235" lon="5.89104">
        <ele>577</ele>
        <time>2019-03-05T14:52:44Z</time>
      </trkpt>
      <trkpt lat="44.32228" lon="5.89102">
        <ele>577</ele>
        <time>2019-03-05T14:52:45Z</time>
      </trkpt>
      <trkpt lat="44.32222" lon="5.891">
        <ele>577</ele>
        <time>2019-03-05T14:52:46Z</time>
      </trkpt>
      <trkpt lat="44.32216" lon="5.89098">
        <ele>577</ele>
        <time>2019-03-05T14:52:47Z</time>
      </trkpt>
      <trkpt lat="44.3221" lon="5.89096">
        <ele>577</ele>
        <time>2019-03-05T14:52:48Z</time>
      </trkpt>
      <trkpt lat="44.32204" lon="5.89095">
        <ele>577</ele>
        <time>2019-03-05T14:52:49Z</time>
      </trkpt>
      <trkpt lat="44.32198" lon="5.89093">
        <ele>577</ele>
        <time>2019-03-05T14:52:50Z</time>
      </trkpt>
      <trkpt lat="44.32191" lon="5.89091">
        <ele>577</ele>
        <time>2019-03-05T14:52:51Z</time>
      </trkpt>
      <trkpt lat="44.32185" lon="5.89089">
        <ele>577</ele>
        <time>2019-03-05T14:52:52Z</time>
      </trkpt>
      <trkpt lat="44.32179" lon="5.89087">
        <ele>577</ele>
        <time>2019-03-05T14:52:53Z</time>
      </trkpt>
      <trkpt lat="44.32173" lon="5.89085">
        <ele>577</ele>
        <time>2019-03-05T14:52:54Z</time>
      </trkpt>
      <trkpt lat="44.32167" lon="5.89084">
        <ele>577</ele>
        <time>2019-03-05T14:52:55Z</time>
      </trkpt>
      <trkpt lat="44.32161" lon="5.89082">
        <ele>577</ele>
        <time>2019-03-05T14:52:56Z</time>
      </trkpt>
      <trkpt lat="44.32154" lon="5.8908">
        <ele>577</ele>
        <time>2019-03-05T14:52:57Z</time>
      </trkpt>
      <trkpt lat="44.32148" lon="5.89078">
        <ele>577</ele>
        <time>2019-03-05T14:52:58Z</time>
      </trkpt>
      <trkpt lat="44.32142" lon="5.89076">
        <ele>577</ele>
        <time>2019-03-05T14:52:59Z</time>
      </trkpt>
      <trkpt lat="44.32136" lon="5.89075">
        <ele>577</ele>
        <time>2019-03-05T14:53:00Z</time>
      </trkpt>
      <trkpt lat="44.32129" lon="5.89073">
        <ele>577</ele>
        <time>2019-03-05T14:53:01Z</time>
      </trkpt>
      <trkpt lat="44.32123" lon="5.89071">
        <ele>577</ele>
        <time>2019-03-05T14:53:02Z</time>
      </trkpt>
      <trkpt lat="44.32117" lon="5.8907">
        <ele>577</ele>
        <time>2019-03-05T14:53:03Z</time>
      </trkpt>
      <trkpt lat="44.32111" lon="5.89069">
        <ele>577</ele>
        <time>2019-03-05T14:53:04Z</time>
      </trkpt>
      <trkpt lat="44.32105" lon="5.89068">
        <ele>577</ele>
        <time>2019-03-05T14:53:05Z</time>
      </trkpt>
      <trkpt lat="44.321" lon="5.89067">
        <ele>577</ele>
        <time>2019-03-05T14:53:06Z</time>
      </trkpt>
      <trkpt lat="44.32094" lon="5.89066">
        <ele>577</ele>
        <time>2019-03-05T14:53:07Z</time>
      </trkpt>
      <trkpt lat="44.32088" lon="5.89065">
        <ele>577</ele>
        <time>2019-03-05T14:53:08Z</time>
      </trkpt>
      <trkpt lat="44.32083" lon="5.89064">
        <ele>577</ele>
        <time>2019-03-05T14:53:09Z</time>
      </trkpt>
      <trkpt lat="44.32078" lon="5.89063">
        <ele>577</ele>
        <time>2019-03-05T14:53:10Z</time>
      </trkpt>
      <trkpt lat="44.32073" lon="5.89061">
        <ele>577</ele>
        <time>2019-03-05T14:53:11Z</time>
      </trkpt>
      <trkpt lat="44.32068" lon="5.8906">
        <ele>577</ele>
        <time>2019-03-05T14:53:12Z</time>
      </trkpt>
      <trkpt lat="44.32063" lon="5.89059">
        <ele>577</ele>
        <time>2019-03-05T14:53:13Z</time>
      </trkpt>
      <trkpt lat="44.32059" lon="5.89058">
        <ele>577</ele>
        <time>2019-03-05T14:53:14Z</time>
      </trkpt>
      <trkpt lat="44.32054" lon="5.89058">
        <ele>577</ele>
        <time>2019-03-05T14:53:15Z</time>
      </trkpt>
      <trkpt lat="44.3205" lon="5.89057">
        <ele>577</ele>
        <time>2019-03-05T14:53:16Z</time>
      </trkpt>
      <trkpt lat="44.32045" lon="5.89056">
        <ele>577</ele>
        <time>2019-03-05T14:53:17Z</time>
      </trkpt>
      <trkpt lat="44.32041" lon="5.89055">
        <ele>577</ele>
        <time>2019-03-05T14:53:18Z</time>
      </trkpt>
      <trkpt lat="44.32036" lon="5.89054">
        <ele>577</ele>
        <time>2019-03-05T14:53:19Z</time>
      </trkpt>
      <trkpt lat="44.32032" lon="5.89053">
        <ele>577</ele>
        <time>2019-03-05T14:53:20Z</time>
      </trkpt>
      <trkpt lat="44.32027" lon="5.89051">
        <ele>577</ele>
        <time>2019-03-05T14:53:21Z</time>
      </trkpt>
      <trkpt lat="44.32023" lon="5.89049">
        <ele>577</ele>
        <time>2019-03-05T14:53:22Z</time>
      </trkpt>
      <trkpt lat="44.32018" lon="5.89047">
        <ele>577</ele>
        <time>2019-03-05T14:53:23Z</time>
      </trkpt>
      <trkpt lat="44.32014" lon="5.89044">
        <ele>577</ele>
        <time>2019-03-05T14:53:24Z</time>
      </trkpt>
      <trkpt lat="44.3201" lon="5.89042">
        <ele>577</ele>
        <time>2019-03-05T14:53:25Z</time>
      </trkpt>
      <trkpt lat="44.32006" lon="5.89039">
        <ele>577</ele>
        <time>2019-03-05T14:53:26Z</time>
      </trkpt>
      <trkpt lat="44.32002" lon="5.89036">
        <ele>577</ele>
        <time>2019-03-05T14:53:27Z</time>
      </trkpt>
      <trkpt lat="44.31998" lon="5.89034">
        <ele>577</ele>
        <time>2019-03-05T14:53:28Z</time>
      </trkpt>
      <trkpt lat="44.31994" lon="5.89031">
        <ele>577</ele>
        <time>2019-03-05T14:53:29Z</time>
      </trkpt>
      <trkpt lat="44.3199" lon="5.89028">
        <ele>577</ele>
        <time>2019-03-05T14:53:30Z</time>
      </trkpt>
      <trkpt lat="44.31987" lon="5.89025">
        <ele>577</ele>
        <time>2019-03-05T14:53:31Z</time>
      </trkpt>
      <trkpt lat="44.31983" lon="5.89021">
        <ele>577</ele>
        <time>2019-03-05T14:53:32Z</time>
      </trkpt>
      <trkpt lat="44.3198" lon="5.89018">
        <ele>577</ele>
        <time>2019-03-05T14:53:33Z</time>
      </trkpt>
      <trkpt lat="44.31976" lon="5.89015">
        <ele>577</ele>
        <time>2019-03-05T14:53:34Z</time>
      </trkpt>
      <trkpt lat="44.31972" lon="5.89012">
        <ele>577</ele>
        <time>2019-03-05T14:53:35Z</time>
      </trkpt>
      <trkpt lat="44.31968" lon="5.89009">
        <ele>577</ele>
        <time>2019-03-05T14:53:36Z</time>
      </trkpt>
      <trkpt lat="44.31964" lon="5.89007">
        <ele>578</ele>
        <time>2019-03-05T14:53:37Z</time>
      </trkpt>
      <trkpt lat="44.3196" lon="5.89004">
        <ele>578</ele>
        <time>2019-03-05T14:53:38Z</time>
      </trkpt>
      <trkpt lat="44.31956" lon="5.89002">
        <ele>578</ele>
        <time>2019-03-05T14:53:39Z</time>
      </trkpt>
      <trkpt lat="44.31952" lon="5.89">
        <ele>578</ele>
        <time>2019-03-05T14:53:40Z</time>
      </trkpt>
      <trkpt lat="44.31947" lon="5.88998">
        <ele>578</ele>
        <time>2019-03-05T14:53:41Z</time>
      </trkpt>
      <trkpt lat="44.31942" lon="5.88996">
        <ele>578</ele>
        <time>2019-03-05T14:53:42Z</time>
      </trkpt>
      <trkpt lat="44.31938" lon="5.88995">
        <ele>578</ele>
        <time>2019-03-05T14:53:43Z</time>
      </trkpt>
      <trkpt lat="44.31933" lon="5.88993">
        <ele>578</ele>
        <time>2019-03-05T14:53:44Z</time>
      </trkpt>
      <trkpt lat="44.31928" lon="5.88991">
        <ele>578</ele>
        <time>2019-03-05T14:53:45Z</time>
      </trkpt>
      <trkpt lat="44.31924" lon="5.8899">
        <ele>578</ele>
        <time>2019-03-05T14:53:46Z</time>
      </trkpt>
      <trkpt lat="44.31919" lon="5.88989">
        <ele>578</ele>
        <time>2019-03-05T14:53:47Z</time>
      </trkpt>
      <trkpt lat="44.31914" lon="5.88988">
        <ele>578</ele>
        <time>2019-03-05T14:53:48Z</time>
      </trkpt>
      <trkpt lat="44.3191" lon="5.88988">
        <ele>579</ele>
        <time>2019-03-05T14:53:49Z</time>
      </trkpt>
      <trkpt lat="44.31905" lon="5.88987">
        <ele>579</ele>
        <time>2019-03-05T14:53:50Z</time>
      </trkpt>
      <trkpt lat="44.319" lon="5.88987">
        <ele>579</ele>
        <time>2019-03-05T14:53:51Z</time>
      </trkpt>
      <trkpt lat="44.31896" lon="5.88988">
        <ele>579</ele>
        <time>2019-03-05T14:53:52Z</time>
      </trkpt>
      <trkpt lat="44.31891" lon="5.88989">
        <ele>579</ele>
        <time>2019-03-05T14:53:53Z</time>
      </trkpt>
      <trkpt lat="44.31886" lon="5.88989">
        <ele>579</ele>
        <time>2019-03-05T14:53:54Z</time>
      </trkpt>
      <trkpt lat="44.31881" lon="5.8899">
        <ele>579</ele>
        <time>2019-03-05T14:53:55Z</time>
      </trkpt>
      <trkpt lat="44.31877" lon="5.88991">
        <ele>579</ele>
        <time>2019-03-05T14:53:56Z</time>
      </trkpt>
      <trkpt lat="44.31872" lon="5.88993">
        <ele>579</ele>
        <time>2019-03-05T14:53:57Z</time>
      </trkpt>
      <trkpt lat="44.31868" lon="5.88995">
        <ele>579</ele>
        <time>2019-03-05T14:53:58Z</time>
      </trkpt>
      <trkpt lat="44.31863" lon="5.88997">
        <ele>579</ele>
        <time>2019-03-05T14:53:59Z</time>
      </trkpt>
      <trkpt lat="44.31859" lon="5.89">
        <ele>579</ele>
        <time>2019-03-05T14:54:00Z</time>
      </trkpt>
      <trkpt lat="44.31854" lon="5.89003">
        <ele>579</ele>
        <time>2019-03-05T14:54:01Z</time>
      </trkpt>
      <trkpt lat="44.3185" lon="5.89006">
        <ele>579</ele>
        <time>2019-03-05T14:54:02Z</time>
      </trkpt>
      <trkpt lat="44.31846" lon="5.89009">
        <ele>579</ele>
        <time>2019-03-05T14:54:03Z</time>
      </trkpt>
      <trkpt lat="44.31841" lon="5.89012">
        <ele>579</ele>
        <time>2019-03-05T14:54:04Z</time>
      </trkpt>
      <trkpt lat="44.31837" lon="5.89015">
        <ele>580</ele>
        <time>2019-03-05T14:54:05Z</time>
      </trkpt>
      <trkpt lat="44.31833" lon="5.89017">
        <ele>580</ele>
        <time>2019-03-05T14:54:06Z</time>
      </trkpt>
      <trkpt lat="44.31828" lon="5.8902">
        <ele>581</ele>
        <time>2019-03-05T14:54:07Z</time>
      </trkpt>
      <trkpt lat="44.31824" lon="5.89023">
        <ele>581</ele>
        <time>2019-03-05T14:54:08Z</time>
      </trkpt>
      <trkpt lat="44.3182" lon="5.89026">
        <ele>581</ele>
        <time>2019-03-05T14:54:09Z</time>
      </trkpt>
      <trkpt lat="44.31815" lon="5.8903">
        <ele>581</ele>
        <time>2019-03-05T14:54:10Z</time>
      </trkpt>
      <trkpt lat="44.3181" lon="5.89033">
        <ele>582</ele>
        <time>2019-03-05T14:54:11Z</time>
      </trkpt>
      <trkpt lat="44.31806" lon="5.89036">
        <ele>582</ele>
        <time>2019-03-05T14:54:12Z</time>
      </trkpt>
      <trkpt lat="44.31802" lon="5.89039">
        <ele>582</ele>
        <time>2019-03-05T14:54:13Z</time>
      </trkpt>
      <trkpt lat="44.31797" lon="5.89042">
        <ele>582</ele>
        <time>2019-03-05T14:54:14Z</time>
      </trkpt>
      <trkpt lat="44.31792" lon="5.89045">
        <ele>582</ele>
        <time>2019-03-05T14:54:15Z</time>
      </trkpt>
      <trkpt lat="44.31788" lon="5.89048">
        <ele>583</ele>
        <time>2019-03-05T14:54:16Z</time>
      </trkpt>
      <trkpt lat="44.31783" lon="5.89051">
        <ele>583</ele>
        <time>2019-03-05T14:54:17Z</time>
      </trkpt>
      <trkpt lat="44.31778" lon="5.89054">
        <ele>583</ele>
        <time>2019-03-05T14:54:18Z</time>
      </trkpt>
      <trkpt lat="44.31774" lon="5.89057">
        <ele>583</ele>
        <time>2019-03-05T14:54:19Z</time>
      </trkpt>
      <trkpt lat="44.3177" lon="5.8906">
        <ele>584</ele>
        <time>2019-03-05T14:54:20Z</time>
      </trkpt>
      <trkpt lat="44.31765" lon="5.89063">
        <ele>584</ele>
        <time>2019-03-05T14:54:21Z</time>
      </trkpt>
      <trkpt lat="44.3176" lon="5.89066">
        <ele>584</ele>
        <time>2019-03-05T14:54:22Z</time>
      </trkpt>
      <trkpt lat="44.31756" lon="5.89068">
        <ele>584</ele>
        <time>2019-03-05T14:54:23Z</time>
      </trkpt>
      <trkpt lat="44.31751" lon="5.89071">
        <ele>585</ele>
        <time>2019-03-05T14:54:24Z</time>
      </trkpt>
      <trkpt lat="44.31747" lon="5.89074">
        <ele>585</ele>
        <time>2019-03-05T14:54:25Z</time>
      </trkpt>
      <trkpt lat="44.31742" lon="5.89075">
        <ele>585</ele>
        <time>2019-03-05T14:54:26Z</time>
      </trkpt>
      <trkpt lat="44.31738" lon="5.89078">
        <ele>585</ele>
        <time>2019-03-05T14:54:27Z</time>
      </trkpt>
      <trkpt lat="44.31733" lon="5.8908">
        <ele>585</ele>
        <time>2019-03-05T14:54:28Z</time>
      </trkpt>
      <trkpt lat="44.31728" lon="5.89082">
        <ele>585</ele>
        <time>2019-03-05T14:54:29Z</time>
      </trkpt>
      <trkpt lat="44.31723" lon="5.89083">
        <ele>585</ele>
        <time>2019-03-05T14:54:30Z</time>
      </trkpt>
      <trkpt lat="44.31719" lon="5.89085">
        <ele>585</ele>
        <time>2019-03-05T14:54:31Z</time>
      </trkpt>
      <trkpt lat="44.31714" lon="5.89086">
        <ele>585</ele>
        <time>2019-03-05T14:54:32Z</time>
      </trkpt>
      <trkpt lat="44.31709" lon="5.89087">
        <ele>585</ele>
        <time>2019-03-05T14:54:33Z</time>
      </trkpt>
      <trkpt lat="44.31704" lon="5.89088">
        <ele>585</ele>
        <time>2019-03-05T14:54:34Z</time>
      </trkpt>
      <trkpt lat="44.317" lon="5.8909">
        <ele>585</ele>
        <time>2019-03-05T14:54:35Z</time>
      </trkpt>
      <trkpt lat="44.31695" lon="5.89091">
        <ele>585</ele>
        <time>2019-03-05T14:54:36Z</time>
      </trkpt>
      <trkpt lat="44.3169" lon="5.89092">
        <ele>585</ele>
        <time>2019-03-05T14:54:37Z</time>
      </trkpt>
      <trkpt lat="44.31686" lon="5.89093">
        <ele>585</ele>
        <time>2019-03-05T14:54:38Z</time>
      </trkpt>
      <trkpt lat="44.31681" lon="5.89093">
        <ele>585</ele>
        <time>2019-03-05T14:54:39Z</time>
      </trkpt>
      <trkpt lat="44.31676" lon="5.89094">
        <ele>585</ele>
        <time>2019-03-05T14:54:40Z</time>
      </trkpt>
      <trkpt lat="44.31671" lon="5.89094">
        <ele>585</ele>
        <time>2019-03-05T14:54:41Z</time>
      </trkpt>
      <trkpt lat="44.31666" lon="5.89095">
        <ele>585</ele>
        <time>2019-03-05T14:54:42Z</time>
      </trkpt>
      <trkpt lat="44.31661" lon="5.89095">
        <ele>585</ele>
        <time>2019-03-05T14:54:43Z</time>
      </trkpt>
      <trkpt lat="44.31656" lon="5.89095">
        <ele>585</ele>
        <time>2019-03-05T14:54:44Z</time>
      </trkpt>
      <trkpt lat="44.31651" lon="5.89095">
        <ele>585</ele>
        <time>2019-03-05T14:54:45Z</time>
      </trkpt>
      <trkpt lat="44.31646" lon="5.89094">
        <ele>585</ele>
        <time>2019-03-05T14:54:46Z</time>
      </trkpt>
      <trkpt lat="44.31641" lon="5.89094">
        <ele>585</ele>
        <time>2019-03-05T14:54:47Z</time>
      </trkpt>
      <trkpt lat="44.31637" lon="5.89094">
        <ele>585</ele>
        <time>2019-03-05T14:54:48Z</time>
      </trkpt>
      <trkpt lat="44.31632" lon="5.89095">
        <ele>585</ele>
        <time>2019-03-05T14:54:49Z</time>
      </trkpt>
      <trkpt lat="44.31627" lon="5.89095">
        <ele>585</ele>
        <time>2019-03-05T14:54:50Z</time>
      </trkpt>
      <trkpt lat="44.31622" lon="5.89094">
        <ele>585</ele>
        <time>2019-03-05T14:54:51Z</time>
      </trkpt>
      <trkpt lat="44.31618" lon="5.89094">
        <ele>585</ele>
        <time>2019-03-05T14:54:52Z</time>
      </trkpt>
      <trkpt lat="44.31613" lon="5.89093">
        <ele>586</ele>
        <time>2019-03-05T14:54:53Z</time>
      </trkpt>
      <trkpt lat="44.31608" lon="5.89094">
        <ele>586</ele>
        <time>2019-03-05T14:54:54Z</time>
      </trkpt>
      <trkpt lat="44.31603" lon="5.89094">
        <ele>586</ele>
        <time>2019-03-05T14:54:55Z</time>
      </trkpt>
      <trkpt lat="44.31599" lon="5.89094">
        <ele>586</ele>
        <time>2019-03-05T14:54:56Z</time>
      </trkpt>
      <trkpt lat="44.31594" lon="5.89093">
        <ele>586</ele>
        <time>2019-03-05T14:54:57Z</time>
      </trkpt>
      <trkpt lat="44.3159" lon="5.89093">
        <ele>586</ele>
        <time>2019-03-05T14:54:58Z</time>
      </trkpt>
      <trkpt lat="44.31585" lon="5.89093">
        <ele>586</ele>
        <time>2019-03-05T14:54:59Z</time>
      </trkpt>
      <trkpt lat="44.3158" lon="5.89093">
        <ele>587</ele>
        <time>2019-03-05T14:55:00Z</time>
      </trkpt>
      <trkpt lat="44.31576" lon="5.89093">
        <ele>587</ele>
        <time>2019-03-05T14:55:01Z</time>
      </trkpt>
      <trkpt lat="44.31572" lon="5.89093">
        <ele>587</ele>
        <time>2019-03-05T14:55:02Z</time>
      </trkpt>
      <trkpt lat="44.31567" lon="5.89092">
        <ele>587</ele>
        <time>2019-03-05T14:55:03Z</time>
      </trkpt>
      <trkpt lat="44.31563" lon="5.89092">
        <ele>587</ele>
        <time>2019-03-05T14:55:04Z</time>
      </trkpt>
      <trkpt lat="44.31559" lon="5.89092">
        <ele>588</ele>
        <time>2019-03-05T14:55:05Z</time>
      </trkpt>
      <trkpt lat="44.31556" lon="5.89092">
        <ele>588</ele>
        <time>2019-03-05T14:55:06Z</time>
      </trkpt>
      <trkpt lat="44.31552" lon="5.89092">
        <ele>588</ele>
        <time>2019-03-05T14:55:07Z</time>
      </trkpt>
      <trkpt lat="44.31548" lon="5.89092">
        <ele>588</ele>
        <time>2019-03-05T14:55:08Z</time>
      </trkpt>
      <trkpt lat="44.31544" lon="5.89092">
        <ele>588</ele>
        <time>2019-03-05T14:55:09Z</time>
      </trkpt>
      <trkpt lat="44.31541" lon="5.89092">
        <ele>589</ele>
        <time>2019-03-05T14:55:10Z</time>
      </trkpt>
      <trkpt lat="44.31538" lon="5.89092">
        <ele>589</ele>
        <time>2019-03-05T14:55:11Z</time>
      </trkpt>
      <trkpt lat="44.31534" lon="5.89092">
        <ele>589</ele>
        <time>2019-03-05T14:55:12Z</time>
      </trkpt>
      <trkpt lat="44.31531" lon="5.89092">
        <ele>590</ele>
        <time>2019-03-05T14:55:13Z</time>
      </trkpt>
      <trkpt lat="44.31528" lon="5.89092">
        <ele>590</ele>
        <time>2019-03-05T14:55:14Z</time>
      </trkpt>
      <trkpt lat="44.31525" lon="5.89091">
        <ele>590</ele>
        <time>2019-03-05T14:55:15Z</time>
      </trkpt>
      <trkpt lat="44.31522" lon="5.89091">
        <ele>590</ele>
        <time>2019-03-05T14:55:16Z</time>
      </trkpt>
      <trkpt lat="44.31519" lon="5.89091">
        <ele>590</ele>
        <time>2019-03-05T14:55:17Z</time>
      </trkpt>
      <trkpt lat="44.31516" lon="5.8909">
        <ele>590</ele>
        <time>2019-03-05T14:55:18Z</time>
      </trkpt>
      <trkpt lat="44.31513" lon="5.89088">
        <ele>591</ele>
        <time>2019-03-05T14:55:19Z</time>
      </trkpt>
      <trkpt lat="44.31512" lon="5.89085">
        <ele>591</ele>
        <time>2019-03-05T14:55:20Z</time>
      </trkpt>
      <trkpt lat="44.31512" lon="5.8908">
        <ele>591</ele>
        <time>2019-03-05T14:55:21Z</time>
      </trkpt>
      <trkpt lat="44.31512" lon="5.89076">
        <ele>591</ele>
        <time>2019-03-05T14:55:22Z</time>
      </trkpt>
      <trkpt lat="44.31513" lon="5.89071">
        <ele>591</ele>
        <time>2019-03-05T14:55:23Z</time>
      </trkpt>
      <trkpt lat="44.31515" lon="5.89066">
        <ele>591</ele>
        <time>2019-03-05T14:55:24Z</time>
      </trkpt>
      <trkpt lat="44.31516" lon="5.8906">
        <ele>591</ele>
        <time>2019-03-05T14:55:25Z</time>
      </trkpt>
      <trkpt lat="44.31518" lon="5.89055">
        <ele>591</ele>
        <time>2019-03-05T14:55:26Z</time>
      </trkpt>
      <trkpt lat="44.3152" lon="5.8905">
        <ele>591</ele>
        <time>2019-03-05T14:55:27Z</time>
      </trkpt>
      <trkpt lat="44.31522" lon="5.89045">
        <ele>591</ele>
        <time>2019-03-05T14:55:28Z</time>
      </trkpt>
      <trkpt lat="44.31524" lon="5.8904">
        <ele>591</ele>
        <time>2019-03-05T14:55:29Z</time>
      </trkpt>
      <trkpt lat="44.31525" lon="5.89035">
        <ele>591</ele>
        <time>2019-03-05T14:55:30Z</time>
      </trkpt>
      <trkpt lat="44.31527" lon="5.8903">
        <ele>591</ele>
        <time>2019-03-05T14:55:31Z</time>
      </trkpt>
      <trkpt lat="44.3153" lon="5.89024">
        <ele>591</ele>
        <time>2019-03-05T14:55:32Z</time>
      </trkpt>
      <trkpt lat="44.31531" lon="5.89019">
        <ele>591</ele>
        <time>2019-03-05T14:55:33Z</time>
      </trkpt>
      <trkpt lat="44.31532" lon="5.89014">
        <ele>591</ele>
        <time>2019-03-05T14:55:34Z</time>
      </trkpt>
      <trkpt lat="44.31534" lon="5.89009">
        <ele>591</ele>
        <time>2019-03-05T14:55:35Z</time>
      </trkpt>
      <trkpt lat="44.31535" lon="5.89004">
        <ele>591</ele>
        <time>2019-03-05T14:55:36Z</time>
      </trkpt>
      <trkpt lat="44.31537" lon="5.89">
        <ele>591</ele>
        <time>2019-03-05T14:55:37Z</time>
      </trkpt>
      <trkpt lat="44.31538" lon="5.88996">
        <ele>591</ele>
        <time>2019-03-05T14:55:38Z</time>
      </trkpt>
      <trkpt lat="44.3154" lon="5.88992">
        <ele>591</ele>
        <time>2019-03-05T14:55:39Z</time>
      </trkpt>
      <trkpt lat="44.31541" lon="5.88988">
        <ele>591</ele>
        <time>2019-03-05T14:55:40Z</time>
      </trkpt>
      <trkpt lat="44.31543" lon="5.88984">
        <ele>591</ele>
        <time>2019-03-05T14:55:41Z</time>
      </trkpt>
      <trkpt lat="44.31544" lon="5.8898">
        <ele>591</ele>
        <time>2019-03-05T14:55:42Z</time>
      </trkpt>
      <trkpt lat="44.31545" lon="5.88976">
        <ele>591</ele>
        <time>2019-03-05T14:55:43Z</time>
      </trkpt>
      <trkpt lat="44.31546" lon="5.88973">
        <ele>591</ele>
        <time>2019-03-05T14:55:44Z</time>
      </trkpt>
      <trkpt lat="44.31548" lon="5.88969">
        <ele>591</ele>
        <time>2019-03-05T14:55:45Z</time>
      </trkpt>
      <trkpt lat="44.31549" lon="5.88966">
        <ele>591</ele>
        <time>2019-03-05T14:55:46Z</time>
      </trkpt>
      <trkpt lat="44.31551" lon="5.88962">
        <ele>591</ele>
        <time>2019-03-05T14:55:47Z</time>
      </trkpt>
      <trkpt lat="44.31552" lon="5.88959">
        <ele>591</ele>
        <time>2019-03-05T14:55:48Z</time>
      </trkpt>
      <trkpt lat="44.31554" lon="5.88955">
        <ele>591</ele>
        <time>2019-03-05T14:55:49Z</time>
      </trkpt>
      <trkpt lat="44.31554" lon="5.88951">
        <ele>592</ele>
        <time>2019-03-05T14:55:50Z</time>
      </trkpt>
      <trkpt lat="44.31556" lon="5.88948">
        <ele>592</ele>
        <time>2019-03-05T14:55:51Z</time>
      </trkpt>
      <trkpt lat="44.31557" lon="5.88945">
        <ele>592</ele>
        <time>2019-03-05T14:55:52Z</time>
      </trkpt>
      <trkpt lat="44.31558" lon="5.88942">
        <ele>592</ele>
        <time>2019-03-05T14:55:53Z</time>
      </trkpt>
      <trkpt lat="44.31559" lon="5.88939">
        <ele>593</ele>
        <time>2019-03-05T14:55:54Z</time>
      </trkpt>
      <trkpt lat="44.3156" lon="5.88936">
        <ele>593</ele>
        <time>2019-03-05T14:55:55Z</time>
      </trkpt>
      <trkpt lat="44.31561" lon="5.88934">
        <ele>593</ele>
        <time>2019-03-05T14:55:56Z</time>
      </trkpt>
      <trkpt lat="44.31562" lon="5.88931">
        <ele>593</ele>
        <time>2019-03-05T14:55:57Z</time>
      </trkpt>
      <trkpt lat="44.31564" lon="5.88928">
        <ele>593</ele>
        <time>2019-03-05T14:55:58Z</time>
      </trkpt>
      <trkpt lat="44.31565" lon="5.88925">
        <ele>594</ele>
        <time>2019-03-05T14:55:59Z</time>
      </trkpt>
      <trkpt lat="44.31566" lon="5.88921">
        <ele>594</ele>
        <time>2019-03-05T14:56:00Z</time>
      </trkpt>
      <trkpt lat="44.31567" lon="5.88918">
        <ele>594</ele>
        <time>2019-03-05T14:56:01Z</time>
      </trkpt>
      <trkpt lat="44.31568" lon="5.88915">
        <ele>595</ele>
        <time>2019-03-05T14:56:02Z</time>
      </trkpt>
      <trkpt lat="44.31569" lon="5.88911">
        <ele>595</ele>
        <time>2019-03-05T14:56:03Z</time>
      </trkpt>
      <trkpt lat="44.3157" lon="5.88908">
        <ele>595</ele>
        <time>2019-03-05T14:56:04Z</time>
      </trkpt>
      <trkpt lat="44.31572" lon="5.88904">
        <ele>595</ele>
        <time>2019-03-05T14:56:05Z</time>
      </trkpt>
      <trkpt lat="44.31573" lon="5.88901">
        <ele>596</ele>
        <time>2019-03-05T14:56:06Z</time>
      </trkpt>
      <trkpt lat="44.31574" lon="5.88897">
        <ele>596</ele>
        <time>2019-03-05T14:56:07Z</time>
      </trkpt>
      <trkpt lat="44.31575" lon="5.88894">
        <ele>596</ele>
        <time>2019-03-05T14:56:08Z</time>
      </trkpt>
      <trkpt lat="44.31577" lon="5.8889">
        <ele>596</ele>
        <time>2019-03-05T14:56:09Z</time>
      </trkpt>
      <trkpt lat="44.31578" lon="5.88887">
        <ele>597</ele>
        <time>2019-03-05T14:56:10Z</time>
      </trkpt>
      <trkpt lat="44.31579" lon="5.88884">
        <ele>597</ele>
        <time>2019-03-05T14:56:11Z</time>
      </trkpt>
      <trkpt lat="44.3158" lon="5.8888">
        <ele>597</ele>
        <time>2019-03-05T14:56:12Z</time>
      </trkpt>
      <trkpt lat="44.31581" lon="5.88877">
        <ele>597</ele>
        <time>2019-03-05T14:56:13Z</time>
      </trkpt>
      <trkpt lat="44.31583" lon="5.88874">
        <ele>598</ele>
        <time>2019-03-05T14:56:14Z</time>
      </trkpt>
      <trkpt lat="44.31584" lon="5.88871">
        <ele>598</ele>
        <time>2019-03-05T14:56:15Z</time>
      </trkpt>
      <trkpt lat="44.31585" lon="5.88868">
        <ele>598</ele>
        <time>2019-03-05T14:56:16Z</time>
      </trkpt>
      <trkpt lat="44.31587" lon="5.88865">
        <ele>598</ele>
        <time>2019-03-05T14:56:17Z</time>
      </trkpt>
      <trkpt lat="44.31588" lon="5.88861">
        <ele>599</ele>
        <time>2019-03-05T14:56:18Z</time>
      </trkpt>
      <trkpt lat="44.3159" lon="5.88858">
        <ele>599</ele>
        <time>2019-03-05T14:56:19Z</time>
      </trkpt>
      <trkpt lat="44.31591" lon="5.88855">
        <ele>599</ele>
        <time>2019-03-05T14:56:20Z</time>
      </trkpt>
      <trkpt lat="44.31592" lon="5.88852">
        <ele>599</ele>
        <time>2019-03-05T14:56:21Z</time>
      </trkpt>
      <trkpt lat="44.31593" lon="5.88849">
        <ele>599</ele>
        <time>2019-03-05T14:56:22Z</time>
      </trkpt>
      <trkpt lat="44.31594" lon="5.88846">
        <ele>599</ele>
        <time>2019-03-05T14:56:23Z</time>
      </trkpt>
      <trkpt lat="44.31595" lon="5.88843">
        <ele>599</ele>
        <time>2019-03-05T14:56:24Z</time>
      </trkpt>
      <trkpt lat="44.31596" lon="5.8884">
        <ele>599</ele>
        <time>2019-03-05T14:56:25Z</time>
      </trkpt>
      <trkpt lat="44.31597" lon="5.88837">
        <ele>599</ele>
        <time>2019-03-05T14:56:26Z</time>
      </trkpt>
      <trkpt lat="44.31599" lon="5.88834">
        <ele>599</ele>
        <time>2019-03-05T14:56:27Z</time>
      </trkpt>
      <trkpt lat="44.316" lon="5.88831">
        <ele>599</ele>
        <time>2019-03-05T14:56:28Z</time>
      </trkpt>
      <trkpt lat="44.31601" lon="5.88828">
        <ele>599</ele>
        <time>2019-03-05T14:56:29Z</time>
      </trkpt>
      <trkpt lat="44.31602" lon="5.88826">
        <ele>599</ele>
        <time>2019-03-05T14:56:30Z</time>
      </trkpt>
      <trkpt lat="44.31603" lon="5.88823">
        <ele>599</ele>
        <time>2019-03-05T14:56:31Z</time>
      </trkpt>
      <trkpt lat="44.31604" lon="5.8882">
        <ele>600</ele>
        <time>2019-03-05T14:56:32Z</time>
      </trkpt>
      <trkpt lat="44.31605" lon="5.88817">
        <ele>600</ele>
        <time>2019-03-05T14:56:33Z</time>
      </trkpt>
      <trkpt lat="44.31606" lon="5.88814">
        <ele>600</ele>
        <time>2019-03-05T14:56:34Z</time>
      </trkpt>
      <trkpt lat="44.31607" lon="5.88811">
        <ele>600</ele>
        <time>2019-03-05T14:56:35Z</time>
      </trkpt>
      <trkpt lat="44.31608" lon="5.88808">
        <ele>601</ele>
        <time>2019-03-05T14:56:36Z</time>
      </trkpt>
      <trkpt lat="44.31609" lon="5.88805">
        <ele>601</ele>
        <time>2019-03-05T14:56:37Z</time>
      </trkpt>
      <trkpt lat="44.31611" lon="5.88802">
        <ele>601</ele>
        <time>2019-03-05T14:56:38Z</time>
      </trkpt>
      <trkpt lat="44.31612" lon="5.88799">
        <ele>601</ele>
        <time>2019-03-05T14:56:39Z</time>
      </trkpt>
      <trkpt lat="44.31613" lon="5.88797">
        <ele>601</ele>
        <time>2019-03-05T14:56:40Z</time>
      </trkpt>
      <trkpt lat="44.31614" lon="5.88794">
        <ele>601</ele>
        <time>2019-03-05T14:56:41Z</time>
      </trkpt>
      <trkpt lat="44.31616" lon="5.88791">
        <ele>601</ele>
        <time>2019-03-05T14:56:42Z</time>
      </trkpt>
      <trkpt lat="44.31617" lon="5.88789">
        <ele>602</ele>
        <time>2019-03-05T14:56:43Z</time>
      </trkpt>
      <trkpt lat="44.31618" lon="5.88786">
        <ele>602</ele>
        <time>2019-03-05T14:56:44Z</time>
      </trkpt>
      <trkpt lat="44.3162" lon="5.88782">
        <ele>602</ele>
        <time>2019-03-05T14:56:45Z</time>
      </trkpt>
      <trkpt lat="44.31621" lon="5.88779">
        <ele>602</ele>
        <time>2019-03-05T14:56:46Z</time>
      </trkpt>
      <trkpt lat="44.31622" lon="5.88776">
        <ele>602</ele>
        <time>2019-03-05T14:56:47Z</time>
      </trkpt>
      <trkpt lat="44.31622" lon="5.88773">
        <ele>602</ele>
        <time>2019-03-05T14:56:48Z</time>
      </trkpt>
      <trkpt lat="44.31623" lon="5.88769">
        <ele>602</ele>
        <time>2019-03-05T14:56:49Z</time>
      </trkpt>
      <trkpt lat="44.31625" lon="5.88766">
        <ele>602</ele>
        <time>2019-03-05T14:56:50Z</time>
      </trkpt>
      <trkpt lat="44.31626" lon="5.88763">
        <ele>602</ele>
        <time>2019-03-05T14:56:51Z</time>
      </trkpt>
      <trkpt lat="44.31627" lon="5.8876">
        <ele>602</ele>
        <time>2019-03-05T14:56:52Z</time>
      </trkpt>
      <trkpt lat="44.31628" lon="5.88756">
        <ele>602</ele>
        <time>2019-03-05T14:56:53Z</time>
      </trkpt>
      <trkpt lat="44.31629" lon="5.88753">
        <ele>602</ele>
        <time>2019-03-05T14:56:54Z</time>
      </trkpt>
      <trkpt lat="44.31631" lon="5.88749">
        <ele>602</ele>
        <time>2019-03-05T14:56:55Z</time>
      </trkpt>
      <trkpt lat="44.31632" lon="5.88746">
        <ele>602</ele>
        <time>2019-03-05T14:56:56Z</time>
      </trkpt>
      <trkpt lat="44.31633" lon="5.88742">
        <ele>602</ele>
        <time>2019-03-05T14:56:57Z</time>
      </trkpt>
      <trkpt lat="44.31634" lon="5.88738">
        <ele>603</ele>
        <time>2019-03-05T14:56:58Z</time>
      </trkpt>
      <trkpt lat="44.31636" lon="5.88735">
        <ele>603</ele>
        <time>2019-03-05T14:56:59Z</time>
      </trkpt>
      <trkpt lat="44.31637" lon="5.88731">
        <ele>603</ele>
        <time>2019-03-05T14:57:00Z</time>
      </trkpt>
      <trkpt lat="44.31638" lon="5.88727">
        <ele>603</ele>
        <time>2019-03-05T14:57:01Z</time>
      </trkpt>
      <trkpt lat="44.3164" lon="5.88723">
        <ele>603</ele>
        <time>2019-03-05T14:57:02Z</time>
      </trkpt>
      <trkpt lat="44.31641" lon="5.88719">
        <ele>603</ele>
        <time>2019-03-05T14:57:03Z</time>
      </trkpt>
      <trkpt lat="44.31642" lon="5.88715">
        <ele>603</ele>
        <time>2019-03-05T14:57:04Z</time>
      </trkpt>
      <trkpt lat="44.31643" lon="5.8871">
        <ele>603</ele>
        <time>2019-03-05T14:57:05Z</time>
      </trkpt>
      <trkpt lat="44.31644" lon="5.88706">
        <ele>603</ele>
        <time>2019-03-05T14:57:06Z</time>
      </trkpt>
      <trkpt lat="44.31645" lon="5.88701">
        <ele>603</ele>
        <time>2019-03-05T14:57:07Z</time>
      </trkpt>
      <trkpt lat="44.31646" lon="5.88697">
        <ele>604</ele>
        <time>2019-03-05T14:57:08Z</time>
      </trkpt>
      <trkpt lat="44.31648" lon="5.88692">
        <ele>604</ele>
        <time>2019-03-05T14:57:09Z</time>
      </trkpt>
      <trkpt lat="44.31649" lon="5.88688">
        <ele>604</ele>
        <time>2019-03-05T14:57:10Z</time>
      </trkpt>
      <trkpt lat="44.3165" lon="5.88683">
        <ele>604</ele>
        <time>2019-03-05T14:57:11Z</time>
      </trkpt>
      <trkpt lat="44.31651" lon="5.88678">
        <ele>604</ele>
        <time>2019-03-05T14:57:12Z</time>
      </trkpt>
      <trkpt lat="44.31652" lon="5.88674">
        <ele>605</ele>
        <time>2019-03-05T14:57:13Z</time>
      </trkpt>
      <trkpt lat="44.31652" lon="5.88669">
        <ele>605</ele>
        <time>2019-03-05T14:57:14Z</time>
      </trkpt>
      <trkpt lat="44.31653" lon="5.88666">
        <ele>605</ele>
        <time>2019-03-05T14:57:15Z</time>
      </trkpt>
      <trkpt lat="44.31654" lon="5.88662">
        <ele>606</ele>
        <time>2019-03-05T14:57:16Z</time>
      </trkpt>
      <trkpt lat="44.31655" lon="5.88658">
        <ele>606</ele>
        <time>2019-03-05T14:57:17Z</time>
      </trkpt>
      <trkpt lat="44.31657" lon="5.88654">
        <ele>606</ele>
        <time>2019-03-05T14:57:18Z</time>
      </trkpt>
      <trkpt lat="44.31657" lon="5.8865">
        <ele>607</ele>
        <time>2019-03-05T14:57:19Z</time>
      </trkpt>
      <trkpt lat="44.31658" lon="5.88646">
        <ele>607</ele>
        <time>2019-03-05T14:57:20Z</time>
      </trkpt>
      <trkpt lat="44.31659" lon="5.88642">
        <ele>607</ele>
        <time>2019-03-05T14:57:21Z</time>
      </trkpt>
      <trkpt lat="44.31661" lon="5.88639">
        <ele>607</ele>
        <time>2019-03-05T14:57:22Z</time>
      </trkpt>
      <trkpt lat="44.31662" lon="5.88635">
        <ele>607</ele>
        <time>2019-03-05T14:57:23Z</time>
      </trkpt>
      <trkpt lat="44.31663" lon="5.88632">
        <ele>607</ele>
        <time>2019-03-05T14:57:24Z</time>
      </trkpt>
      <trkpt lat="44.31664" lon="5.8863">
        <ele>607</ele>
        <time>2019-03-05T14:57:25Z</time>
      </trkpt>
      <trkpt lat="44.31666" lon="5.88627">
        <ele>607</ele>
        <time>2019-03-05T14:57:26Z</time>
      </trkpt>
      <trkpt lat="44.31668" lon="5.88624">
        <ele>607</ele>
        <time>2019-03-05T14:57:27Z</time>
      </trkpt>
      <trkpt lat="44.31671" lon="5.88622">
        <ele>607</ele>
        <time>2019-03-05T14:57:28Z</time>
      </trkpt>
      <trkpt lat="44.31673" lon="5.8862">
        <ele>607</ele>
        <time>2019-03-05T14:57:29Z</time>
      </trkpt>
      <trkpt lat="44.31676" lon="5.88619">
        <ele>607</ele>
        <time>2019-03-05T14:57:30Z</time>
      </trkpt>
      <trkpt lat="44.31678" lon="5.88618">
        <ele>607</ele>
        <time>2019-03-05T14:57:31Z</time>
      </trkpt>
      <trkpt lat="44.31681" lon="5.88618">
        <ele>607</ele>
        <time>2019-03-05T14:57:32Z</time>
      </trkpt>
      <trkpt lat="44.31684" lon="5.88617">
        <ele>607</ele>
        <time>2019-03-05T14:57:33Z</time>
      </trkpt>
      <trkpt lat="44.31686" lon="5.88617">
        <ele>607</ele>
        <time>2019-03-05T14:57:34Z</time>
      </trkpt>
      <trkpt lat="44.31689" lon="5.88617">
        <ele>607</ele>
        <time>2019-03-05T14:57:35Z</time>
      </trkpt>
      <trkpt lat="44.31692" lon="5.88618">
        <ele>607</ele>
        <time>2019-03-05T14:57:36Z</time>
      </trkpt>
      <trkpt lat="44.31695" lon="5.88619">
        <ele>607</ele>
        <time>2019-03-05T14:57:37Z</time>
      </trkpt>
      <trkpt lat="44.31697" lon="5.8862">
        <ele>607</ele>
        <time>2019-03-05T14:57:38Z</time>
      </trkpt>
      <trkpt lat="44.31699" lon="5.88621">
        <ele>608</ele>
        <time>2019-03-05T14:57:39Z</time>
      </trkpt>
      <trkpt lat="44.31702" lon="5.88622">
        <ele>608</ele>
        <time>2019-03-05T14:57:40Z</time>
      </trkpt>
      <trkpt lat="44.31704" lon="5.88623">
        <ele>608</ele>
        <time>2019-03-05T14:57:41Z</time>
      </trkpt>
      <trkpt lat="44.31707" lon="5.88624">
        <ele>609</ele>
        <time>2019-03-05T14:57:42Z</time>
      </trkpt>
      <trkpt lat="44.31709" lon="5.88625">
        <ele>610</ele>
        <time>2019-03-05T14:57:43Z</time>
      </trkpt>
      <trkpt lat="44.31711" lon="5.88626">
        <ele>610</ele>
        <time>2019-03-05T14:57:44Z</time>
      </trkpt>
      <trkpt lat="44.31712" lon="5.88627">
        <ele>611</ele>
        <time>2019-03-05T14:57:45Z</time>
      </trkpt>
      <trkpt lat="44.31714" lon="5.88629">
        <ele>612</ele>
        <time>2019-03-05T14:57:46Z</time>
      </trkpt>
      <trkpt lat="44.31716" lon="5.8863">
        <ele>612</ele>
        <time>2019-03-05T14:57:47Z</time>
      </trkpt>
      <trkpt lat="44.31718" lon="5.88631">
        <ele>613</ele>
        <time>2019-03-05T14:57:48Z</time>
      </trkpt>
      <trkpt lat="44.3172" lon="5.88631">
        <ele>614</ele>
        <time>2019-03-05T14:57:49Z</time>
      </trkpt>
      <trkpt lat="44.31722" lon="5.88632">
        <ele>614</ele>
        <time>2019-03-05T14:57:50Z</time>
      </trkpt>
      <trkpt lat="44.31725" lon="5.88632">
        <ele>615</ele>
        <time>2019-03-05T14:57:51Z</time>
      </trkpt>
      <trkpt lat="44.31726" lon="5.88633">
        <ele>615</ele>
        <time>2019-03-05T14:57:52Z</time>
      </trkpt>
      <trkpt lat="44.31729" lon="5.88633">
        <ele>616</ele>
        <time>2019-03-05T14:57:53Z</time>
      </trkpt>
      <trkpt lat="44.31731" lon="5.88634">
        <ele>616</ele>
        <time>2019-03-05T14:57:54Z</time>
      </trkpt>
      <trkpt lat="44.31732" lon="5.88635">
        <ele>617</ele>
        <time>2019-03-05T14:57:55Z</time>
      </trkpt>
      <trkpt lat="44.31734" lon="5.88635">
        <ele>617</ele>
        <time>2019-03-05T14:57:56Z</time>
      </trkpt>
      <trkpt lat="44.31737" lon="5.88634">
        <ele>617</ele>
        <time>2019-03-05T14:57:57Z</time>
      </trkpt>
      <trkpt lat="44.31739" lon="5.88634">
        <ele>617</ele>
        <time>2019-03-05T14:57:58Z</time>
      </trkpt>
      <trkpt lat="44.31742" lon="5.88634">
        <ele>617</ele>
        <time>2019-03-05T14:57:59Z</time>
      </trkpt>
      <trkpt lat="44.31744" lon="5.88633">
        <ele>617</ele>
        <time>2019-03-05T14:58:00Z</time>
      </trkpt>
      <trkpt lat="44.31747" lon="5.88633">
        <ele>617</ele>
        <time>2019-03-05T14:58:01Z</time>
      </trkpt>
      <trkpt lat="44.31749" lon="5.88632">
        <ele>617</ele>
        <time>2019-03-05T14:58:02Z</time>
      </trkpt>
      <trkpt lat="44.3175" lon="5.88631">
        <ele>617</ele>
        <time>2019-03-05T14:58:03Z</time>
      </trkpt>
      <trkpt lat="44.31752" lon="5.8863">
        <ele>617</ele>
        <time>2019-03-05T14:58:04Z</time>
      </trkpt>
      <trkpt lat="44.31755" lon="5.88629">
        <ele>617</ele>
        <time>2019-03-05T14:58:05Z</time>
      </trkpt>
      <trkpt lat="44.31757" lon="5.88629">
        <ele>617</ele>
        <time>2019-03-05T14:58:06Z</time>
      </trkpt>
      <trkpt lat="44.3176" lon="5.88628">
        <ele>617</ele>
        <time>2019-03-05T14:58:07Z</time>
      </trkpt>
      <trkpt lat="44.31763" lon="5.88628">
        <ele>617</ele>
        <time>2019-03-05T14:58:08Z</time>
      </trkpt>
      <trkpt lat="44.31766" lon="5.88627">
        <ele>617</ele>
        <time>2019-03-05T14:58:09Z</time>
      </trkpt>
      <trkpt lat="44.31769" lon="5.88626">
        <ele>617</ele>
        <time>2019-03-05T14:58:10Z</time>
      </trkpt>
      <trkpt lat="44.31771" lon="5.88625">
        <ele>617</ele>
        <time>2019-03-05T14:58:11Z</time>
      </trkpt>
      <trkpt lat="44.31774" lon="5.88624">
        <ele>618</ele>
        <time>2019-03-05T14:58:12Z</time>
      </trkpt>
      <trkpt lat="44.31776" lon="5.88623">
        <ele>618</ele>
        <time>2019-03-05T14:58:13Z</time>
      </trkpt>
      <trkpt lat="44.31779" lon="5.88622">
        <ele>618</ele>
        <time>2019-03-05T14:58:14Z</time>
      </trkpt>
      <trkpt lat="44.31782" lon="5.88622">
        <ele>618</ele>
        <time>2019-03-05T14:58:15Z</time>
      </trkpt>
      <trkpt lat="44.31784" lon="5.88621">
        <ele>618</ele>
        <time>2019-03-05T14:58:16Z</time>
      </trkpt>
      <trkpt lat="44.31787" lon="5.8862">
        <ele>619</ele>
        <time>2019-03-05T14:58:17Z</time>
      </trkpt>
      <trkpt lat="44.31789" lon="5.88619">
        <ele>619</ele>
        <time>2019-03-05T14:58:18Z</time>
      </trkpt>
      <trkpt lat="44.31792" lon="5.88618">
        <ele>619</ele>
        <time>2019-03-05T14:58:19Z</time>
      </trkpt>
      <trkpt lat="44.31794" lon="5.88617">
        <ele>619</ele>
        <time>2019-03-05T14:58:20Z</time>
      </trkpt>
      <trkpt lat="44.31797" lon="5.88616">
        <ele>619</ele>
        <time>2019-03-05T14:58:21Z</time>
      </trkpt>
      <trkpt lat="44.318" lon="5.88615">
        <ele>619</ele>
        <time>2019-03-05T14:58:22Z</time>
      </trkpt>
      <trkpt lat="44.31802" lon="5.88614">
        <ele>619</ele>
        <time>2019-03-05T14:58:23Z</time>
      </trkpt>
      <trkpt lat="44.31805" lon="5.88614">
        <ele>619</ele>
        <time>2019-03-05T14:58:24Z</time>
      </trkpt>
      <trkpt lat="44.31807" lon="5.88613">
        <ele>620</ele>
        <time>2019-03-05T14:58:25Z</time>
      </trkpt>
      <trkpt lat="44.3181" lon="5.88612">
        <ele>620</ele>
        <time>2019-03-05T14:58:26Z</time>
      </trkpt>
      <trkpt lat="44.31812" lon="5.88612">
        <ele>620</ele>
        <time>2019-03-05T14:58:27Z</time>
      </trkpt>
      <trkpt lat="44.31815" lon="5.88611">
        <ele>620</ele>
        <time>2019-03-05T14:58:28Z</time>
      </trkpt>
      <trkpt lat="44.31817" lon="5.88611">
        <ele>620</ele>
        <time>2019-03-05T14:58:29Z</time>
      </trkpt>
      <trkpt lat="44.3182" lon="5.8861">
        <ele>620</ele>
        <time>2019-03-05T14:58:30Z</time>
      </trkpt>
      <trkpt lat="44.31823" lon="5.88609">
        <ele>620</ele>
        <time>2019-03-05T14:58:31Z</time>
      </trkpt>
      <trkpt lat="44.31826" lon="5.88609">
        <ele>620</ele>
        <time>2019-03-05T14:58:32Z</time>
      </trkpt>
      <trkpt lat="44.31828" lon="5.88608">
        <ele>620</ele>
        <time>2019-03-05T14:58:33Z</time>
      </trkpt>
      <trkpt lat="44.31831" lon="5.88607">
        <ele>620</ele>
        <time>2019-03-05T14:58:34Z</time>
      </trkpt>
      <trkpt lat="44.31833" lon="5.88606">
        <ele>621</ele>
        <time>2019-03-05T14:58:35Z</time>
      </trkpt>
      <trkpt lat="44.31835" lon="5.88605">
        <ele>621</ele>
        <time>2019-03-05T14:58:36Z</time>
      </trkpt>
      <trkpt lat="44.31838" lon="5.88604">
        <ele>621</ele>
        <time>2019-03-05T14:58:37Z</time>
      </trkpt>
      <trkpt lat="44.31841" lon="5.88603">
        <ele>621</ele>
        <time>2019-03-05T14:58:38Z</time>
      </trkpt>
      <trkpt lat="44.31843" lon="5.88601">
        <ele>621</ele>
        <time>2019-03-05T14:58:39Z</time>
      </trkpt>
      <trkpt lat="44.31846" lon="5.88599">
        <ele>621</ele>
        <time>2019-03-05T14:58:40Z</time>
      </trkpt>
      <trkpt lat="44.31848" lon="5.88597">
        <ele>621</ele>
        <time>2019-03-05T14:58:41Z</time>
      </trkpt>
      <trkpt lat="44.31851" lon="5.88595">
        <ele>621</ele>
        <time>2019-03-05T14:58:42Z</time>
      </trkpt>
      <trkpt lat="44.31854" lon="5.88592">
        <ele>621</ele>
        <time>2019-03-05T14:58:43Z</time>
      </trkpt>
      <trkpt lat="44.31857" lon="5.8859">
        <ele>621</ele>
        <time>2019-03-05T14:58:44Z</time>
      </trkpt>
      <trkpt lat="44.3186" lon="5.88588">
        <ele>621</ele>
        <time>2019-03-05T14:58:45Z</time>
      </trkpt>
      <trkpt lat="44.31863" lon="5.88586">
        <ele>621</ele>
        <time>2019-03-05T14:58:46Z</time>
      </trkpt>
      <trkpt lat="44.31866" lon="5.88584">
        <ele>621</ele>
        <time>2019-03-05T14:58:47Z</time>
      </trkpt>
      <trkpt lat="44.31869" lon="5.88582">
        <ele>621</ele>
        <time>2019-03-05T14:58:48Z</time>
      </trkpt>
      <trkpt lat="44.31872" lon="5.8858">
        <ele>621</ele>
        <time>2019-03-05T14:58:49Z</time>
      </trkpt>
      <trkpt lat="44.31875" lon="5.88578">
        <ele>621</ele>
        <time>2019-03-05T14:58:50Z</time>
      </trkpt>
      <trkpt lat="44.31878" lon="5.88575">
        <ele>621</ele>
        <time>2019-03-05T14:58:51Z</time>
      </trkpt>
      <trkpt lat="44.31881" lon="5.88573">
        <ele>621</ele>
        <time>2019-03-05T14:58:52Z</time>
      </trkpt>
      <trkpt lat="44.31884" lon="5.88572">
        <ele>622</ele>
        <time>2019-03-05T14:58:53Z</time>
      </trkpt>
      <trkpt lat="44.31887" lon="5.88571">
        <ele>622</ele>
        <time>2019-03-05T14:58:54Z</time>
      </trkpt>
      <trkpt lat="44.31891" lon="5.88569">
        <ele>622</ele>
        <time>2019-03-05T14:58:55Z</time>
      </trkpt>
      <trkpt lat="44.31894" lon="5.88568">
        <ele>622</ele>
        <time>2019-03-05T14:58:56Z</time>
      </trkpt>
      <trkpt lat="44.31897" lon="5.88566">
        <ele>622</ele>
        <time>2019-03-05T14:58:57Z</time>
      </trkpt>
      <trkpt lat="44.31901" lon="5.88565">
        <ele>622</ele>
        <time>2019-03-05T14:58:58Z</time>
      </trkpt>
      <trkpt lat="44.31904" lon="5.88563">
        <ele>623</ele>
        <time>2019-03-05T14:58:59Z</time>
      </trkpt>
      <trkpt lat="44.31907" lon="5.88562">
        <ele>623</ele>
        <time>2019-03-05T14:59:00Z</time>
      </trkpt>
      <trkpt lat="44.3191" lon="5.88561">
        <ele>623</ele>
        <time>2019-03-05T14:59:01Z</time>
      </trkpt>
      <trkpt lat="44.31914" lon="5.8856">
        <ele>623</ele>
        <time>2019-03-05T14:59:02Z</time>
      </trkpt>
      <trkpt lat="44.31918" lon="5.88559">
        <ele>624</ele>
        <time>2019-03-05T14:59:03Z</time>
      </trkpt>
      <trkpt lat="44.31921" lon="5.88558">
        <ele>624</ele>
        <time>2019-03-05T14:59:04Z</time>
      </trkpt>
      <trkpt lat="44.31924" lon="5.88557">
        <ele>624</ele>
        <time>2019-03-05T14:59:05Z</time>
      </trkpt>
      <trkpt lat="44.31928" lon="5.88556">
        <ele>624</ele>
        <time>2019-03-05T14:59:06Z</time>
      </trkpt>
      <trkpt lat="44.31931" lon="5.88556">
        <ele>624</ele>
        <time>2019-03-05T14:59:07Z</time>
      </trkpt>
      <trkpt lat="44.31935" lon="5.88556">
        <ele>624</ele>
        <time>2019-03-05T14:59:08Z</time>
      </trkpt>
      <trkpt lat="44.31938" lon="5.88555">
        <ele>625</ele>
        <time>2019-03-05T14:59:09Z</time>
      </trkpt>
      <trkpt lat="44.31941" lon="5.88554">
        <ele>625</ele>
        <time>2019-03-05T14:59:10Z</time>
      </trkpt>
      <trkpt lat="44.31945" lon="5.88553">
        <ele>625</ele>
        <time>2019-03-05T14:59:11Z</time>
      </trkpt>
      <trkpt lat="44.31948" lon="5.88553">
        <ele>625</ele>
        <time>2019-03-05T14:59:12Z</time>
      </trkpt>
      <trkpt lat="44.31952" lon="5.88553">
        <ele>626</ele>
        <time>2019-03-05T14:59:13Z</time>
      </trkpt>
      <trkpt lat="44.31955" lon="5.88553">
        <ele>626</ele>
        <time>2019-03-05T14:59:14Z</time>
      </trkpt>
      <trkpt lat="44.31958" lon="5.88553">
        <ele>626</ele>
        <time>2019-03-05T14:59:15Z</time>
      </trkpt>
      <trkpt lat="44.31961" lon="5.88554">
        <ele>626</ele>
        <time>2019-03-05T14:59:16Z</time>
      </trkpt>
      <trkpt lat="44.31964" lon="5.88554">
        <ele>626</ele>
        <time>2019-03-05T14:59:17Z</time>
      </trkpt>
      <trkpt lat="44.31968" lon="5.88554">
        <ele>626</ele>
        <time>2019-03-05T14:59:18Z</time>
      </trkpt>
      <trkpt lat="44.31971" lon="5.88555">
        <ele>626</ele>
        <time>2019-03-05T14:59:19Z</time>
      </trkpt>
      <trkpt lat="44.31975" lon="5.88556">
        <ele>626</ele>
        <time>2019-03-05T14:59:20Z</time>
      </trkpt>
      <trkpt lat="44.31979" lon="5.88557">
        <ele>626</ele>
        <time>2019-03-05T14:59:21Z</time>
      </trkpt>
      <trkpt lat="44.31984" lon="5.88558">
        <ele>626</ele>
        <time>2019-03-05T14:59:22Z</time>
      </trkpt>
      <trkpt lat="44.31988" lon="5.88559">
        <ele>626</ele>
        <time>2019-03-05T14:59:23Z</time>
      </trkpt>
      <trkpt lat="44.31992" lon="5.88561">
        <ele>626</ele>
        <time>2019-03-05T14:59:24Z</time>
      </trkpt>
      <trkpt lat="44.31995" lon="5.88563">
        <ele>626</ele>
        <time>2019-03-05T14:59:25Z</time>
      </trkpt>
      <trkpt lat="44.31999" lon="5.88565">
        <ele>626</ele>
        <time>2019-03-05T14:59:26Z</time>
      </trkpt>
      <trkpt lat="44.32003" lon="5.88566">
        <ele>626</ele>
        <time>2019-03-05T14:59:27Z</time>
      </trkpt>
      <trkpt lat="44.32007" lon="5.88567">
        <ele>626</ele>
        <time>2019-03-05T14:59:28Z</time>
      </trkpt>
      <trkpt lat="44.3201" lon="5.88568">
        <ele>626</ele>
        <time>2019-03-05T14:59:29Z</time>
      </trkpt>
      <trkpt lat="44.32013" lon="5.88569">
        <ele>627</ele>
        <time>2019-03-05T14:59:30Z</time>
      </trkpt>
      <trkpt lat="44.32017" lon="5.88569">
        <ele>627</ele>
        <time>2019-03-05T14:59:31Z</time>
      </trkpt>
      <trkpt lat="44.32021" lon="5.88568">
        <ele>627</ele>
        <time>2019-03-05T14:59:32Z</time>
      </trkpt>
      <trkpt lat="44.32024" lon="5.88566">
        <ele>627</ele>
        <time>2019-03-05T14:59:33Z</time>
      </trkpt>
      <trkpt lat="44.32028" lon="5.88565">
        <ele>627</ele>
        <time>2019-03-05T14:59:34Z</time>
      </trkpt>
      <trkpt lat="44.32031" lon="5.88564">
        <ele>627</ele>
        <time>2019-03-05T14:59:35Z</time>
      </trkpt>
      <trkpt lat="44.32035" lon="5.88562">
        <ele>627</ele>
        <time>2019-03-05T14:59:36Z</time>
      </trkpt>
      <trkpt lat="44.32039" lon="5.8856">
        <ele>627</ele>
        <time>2019-03-05T14:59:37Z</time>
      </trkpt>
      <trkpt lat="44.32043" lon="5.88558">
        <ele>627</ele>
        <time>2019-03-05T14:59:38Z</time>
      </trkpt>
      <trkpt lat="44.32047" lon="5.88555">
        <ele>627</ele>
        <time>2019-03-05T14:59:39Z</time>
      </trkpt>
      <trkpt lat="44.3205" lon="5.88553">
        <ele>627</ele>
        <time>2019-03-05T14:59:40Z</time>
      </trkpt>
      <trkpt lat="44.32054" lon="5.88551">
        <ele>627</ele>
        <time>2019-03-05T14:59:41Z</time>
      </trkpt>
      <trkpt lat="44.32057" lon="5.88548">
        <ele>627</ele>
        <time>2019-03-05T14:59:42Z</time>
      </trkpt>
      <trkpt lat="44.3206" lon="5.88546">
        <ele>627</ele>
        <time>2019-03-05T14:59:43Z</time>
      </trkpt>
      <trkpt lat="44.32064" lon="5.88544">
        <ele>627</ele>
        <time>2019-03-05T14:59:44Z</time>
      </trkpt>
      <trkpt lat="44.32067" lon="5.88542">
        <ele>627</ele>
        <time>2019-03-05T14:59:45Z</time>
      </trkpt>
      <trkpt lat="44.3207" lon="5.88541">
        <ele>627</ele>
        <time>2019-03-05T14:59:46Z</time>
      </trkpt>
      <trkpt lat="44.32073" lon="5.88539">
        <ele>627</ele>
        <time>2019-03-05T14:59:47Z</time>
      </trkpt>
      <trkpt lat="44.32077" lon="5.88537">
        <ele>627</ele>
        <time>2019-03-05T14:59:48Z</time>
      </trkpt>
      <trkpt lat="44.32081" lon="5.88536">
        <ele>627</ele>
        <time>2019-03-05T14:59:49Z</time>
      </trkpt>
      <trkpt lat="44.32085" lon="5.88534">
        <ele>627</ele>
        <time>2019-03-05T14:59:50Z</time>
      </trkpt>
      <trkpt lat="44.32088" lon="5.88532">
        <ele>627</ele>
        <time>2019-03-05T14:59:51Z</time>
      </trkpt>
      <trkpt lat="44.32091" lon="5.88529">
        <ele>627</ele>
        <time>2019-03-05T14:59:52Z</time>
      </trkpt>
      <trkpt lat="44.32094" lon="5.88527">
        <ele>627</ele>
        <time>2019-03-05T14:59:53Z</time>
      </trkpt>
      <trkpt lat="44.32098" lon="5.88525">
        <ele>628</ele>
        <time>2019-03-05T14:59:54Z</time>
      </trkpt>
      <trkpt lat="44.32101" lon="5.88524">
        <ele>628</ele>
        <time>2019-03-05T14:59:55Z</time>
      </trkpt>
      <trkpt lat="44.32104" lon="5.88523">
        <ele>628</ele>
        <time>2019-03-05T14:59:56Z</time>
      </trkpt>
      <trkpt lat="44.32108" lon="5.88521">
        <ele>628</ele>
        <time>2019-03-05T14:59:57Z</time>
      </trkpt>
      <trkpt lat="44.32111" lon="5.88519">
        <ele>628</ele>
        <time>2019-03-05T14:59:58Z</time>
      </trkpt>
      <trkpt lat="44.32115" lon="5.88517">
        <ele>628</ele>
        <time>2019-03-05T14:59:59Z</time>
      </trkpt>
      <trkpt lat="44.32118" lon="5.88515">
        <ele>628</ele>
        <time>2019-03-05T15:00:00Z</time>
      </trkpt>
      <trkpt lat="44.32122" lon="5.88513">
        <ele>628</ele>
        <time>2019-03-05T15:00:01Z</time>
      </trkpt>
      <trkpt lat="44.32125" lon="5.88511">
        <ele>628</ele>
        <time>2019-03-05T15:00:02Z</time>
      </trkpt>
      <trkpt lat="44.32128" lon="5.88509">
        <ele>628</ele>
        <time>2019-03-05T15:00:03Z</time>
      </trkpt>
      <trkpt lat="44.32132" lon="5.88507">
        <ele>628</ele>
        <time>2019-03-05T15:00:04Z</time>
      </trkpt>
      <trkpt lat="44.32135" lon="5.88505">
        <ele>628</ele>
        <time>2019-03-05T15:00:05Z</time>
      </trkpt>
      <trkpt lat="44.32138" lon="5.88503">
        <ele>628</ele>
        <time>2019-03-05T15:00:06Z</time>
      </trkpt>
      <trkpt lat="44.32142" lon="5.88501">
        <ele>628</ele>
        <time>2019-03-05T15:00:07Z</time>
      </trkpt>
      <trkpt lat="44.32145" lon="5.88499">
        <ele>628</ele>
        <time>2019-03-05T15:00:08Z</time>
      </trkpt>
      <trkpt lat="44.32148" lon="5.88497">
        <ele>628</ele>
        <time>2019-03-05T15:00:09Z</time>
      </trkpt>
      <trkpt lat="44.32151" lon="5.88495">
        <ele>628</ele>
        <time>2019-03-05T15:00:10Z</time>
      </trkpt>
      <trkpt lat="44.32154" lon="5.88492">
        <ele>628</ele>
        <time>2019-03-05T15:00:11Z</time>
      </trkpt>
      <trkpt lat="44.32158" lon="5.88489">
        <ele>628</ele>
        <time>2019-03-05T15:00:12Z</time>
      </trkpt>
      <trkpt lat="44.32161" lon="5.88486">
        <ele>628</ele>
        <time>2019-03-05T15:00:13Z</time>
      </trkpt>
      <trkpt lat="44.32164" lon="5.88483">
        <ele>628</ele>
        <time>2019-03-05T15:00:14Z</time>
      </trkpt>
      <trkpt lat="44.32167" lon="5.8848">
        <ele>628</ele>
        <time>2019-03-05T15:00:15Z</time>
      </trkpt>
      <trkpt lat="44.32171" lon="5.88477">
        <ele>628</ele>
        <time>2019-03-05T15:00:16Z</time>
      </trkpt>
      <trkpt lat="44.32174" lon="5.88474">
        <ele>628</ele>
        <time>2019-03-05T15:00:17Z</time>
      </trkpt>
      <trkpt lat="44.32177" lon="5.88471">
        <ele>629</ele>
        <time>2019-03-05T15:00:18Z</time>
      </trkpt>
      <trkpt lat="44.3218" lon="5.88468">
        <ele>629</ele>
        <time>2019-03-05T15:00:19Z</time>
      </trkpt>
      <trkpt lat="44.32183" lon="5.88465">
        <ele>629</ele>
        <time>2019-03-05T15:00:20Z</time>
      </trkpt>
      <trkpt lat="44.32186" lon="5.88462">
        <ele>629</ele>
        <time>2019-03-05T15:00:21Z</time>
      </trkpt>
      <trkpt lat="44.32189" lon="5.8846">
        <ele>630</ele>
        <time>2019-03-05T15:00:22Z</time>
      </trkpt>
      <trkpt lat="44.32192" lon="5.88457">
        <ele>630</ele>
        <time>2019-03-05T15:00:23Z</time>
      </trkpt>
      <trkpt lat="44.32195" lon="5.88455">
        <ele>630</ele>
        <time>2019-03-05T15:00:24Z</time>
      </trkpt>
      <trkpt lat="44.32198" lon="5.88452">
        <ele>631</ele>
        <time>2019-03-05T15:00:25Z</time>
      </trkpt>
      <trkpt lat="44.32201" lon="5.88449">
        <ele>631</ele>
        <time>2019-03-05T15:00:26Z</time>
      </trkpt>
      <trkpt lat="44.32204" lon="5.88447">
        <ele>631</ele>
        <time>2019-03-05T15:00:27Z</time>
      </trkpt>
      <trkpt lat="44.32208" lon="5.88445">
        <ele>632</ele>
        <time>2019-03-05T15:00:28Z</time>
      </trkpt>
      <trkpt lat="44.32212" lon="5.88443">
        <ele>632</ele>
        <time>2019-03-05T15:00:29Z</time>
      </trkpt>
      <trkpt lat="44.32215" lon="5.88442">
        <ele>632</ele>
        <time>2019-03-05T15:00:30Z</time>
      </trkpt>
      <trkpt lat="44.32218" lon="5.8844">
        <ele>632</ele>
        <time>2019-03-05T15:00:31Z</time>
      </trkpt>
      <trkpt lat="44.32222" lon="5.88439">
        <ele>633</ele>
        <time>2019-03-05T15:00:32Z</time>
      </trkpt>
      <trkpt lat="44.32226" lon="5.88438">
        <ele>633</ele>
        <time>2019-03-05T15:00:33Z</time>
      </trkpt>
      <trkpt lat="44.3223" lon="5.88437">
        <ele>633</ele>
        <time>2019-03-05T15:00:34Z</time>
      </trkpt>
      <trkpt lat="44.32234" lon="5.88436">
        <ele>633</ele>
        <time>2019-03-05T15:00:35Z</time>
      </trkpt>
      <trkpt lat="44.32238" lon="5.88435">
        <ele>634</ele>
        <time>2019-03-05T15:00:36Z</time>
      </trkpt>
      <trkpt lat="44.32241" lon="5.88435">
        <ele>634</ele>
        <time>2019-03-05T15:00:37Z</time>
      </trkpt>
      <trkpt lat="44.32245" lon="5.88434">
        <ele>634</ele>
        <time>2019-03-05T15:00:38Z</time>
      </trkpt>
      <trkpt lat="44.32249" lon="5.88433">
        <ele>634</ele>
        <time>2019-03-05T15:00:39Z</time>
      </trkpt>
      <trkpt lat="44.32253" lon="5.88433">
        <ele>634</ele>
        <time>2019-03-05T15:00:40Z</time>
      </trkpt>
      <trkpt lat="44.32256" lon="5.88432">
        <ele>634</ele>
        <time>2019-03-05T15:00:41Z</time>
      </trkpt>
      <trkpt lat="44.3226" lon="5.88431">
        <ele>634</ele>
        <time>2019-03-05T15:00:42Z</time>
      </trkpt>
      <trkpt lat="44.32264" lon="5.88429">
        <ele>634</ele>
        <time>2019-03-05T15:00:43Z</time>
      </trkpt>
      <trkpt lat="44.32267" lon="5.88429">
        <ele>635</ele>
        <time>2019-03-05T15:00:44Z</time>
      </trkpt>
      <trkpt lat="44.32271" lon="5.88428">
        <ele>635</ele>
        <time>2019-03-05T15:00:45Z</time>
      </trkpt>
      <trkpt lat="44.32275" lon="5.88427">
        <ele>635</ele>
        <time>2019-03-05T15:00:46Z</time>
      </trkpt>
      <trkpt lat="44.32279" lon="5.88427">
        <ele>635</ele>
        <time>2019-03-05T15:00:47Z</time>
      </trkpt>
      <trkpt lat="44.32283" lon="5.88425">
        <ele>635</ele>
        <time>2019-03-05T15:00:48Z</time>
      </trkpt>
      <trkpt lat="44.32287" lon="5.88424">
        <ele>635</ele>
        <time>2019-03-05T15:00:49Z</time>
      </trkpt>
      <trkpt lat="44.32291" lon="5.88423">
        <ele>636</ele>
        <time>2019-03-05T15:00:50Z</time>
      </trkpt>
      <trkpt lat="44.32295" lon="5.88422">
        <ele>636</ele>
        <time>2019-03-05T15:00:51Z</time>
      </trkpt>
      <trkpt lat="44.32299" lon="5.88421">
        <ele>636</ele>
        <time>2019-03-05T15:00:52Z</time>
      </trkpt>
      <trkpt lat="44.32302" lon="5.88419">
        <ele>636</ele>
        <time>2019-03-05T15:00:53Z</time>
      </trkpt>
      <trkpt lat="44.32305" lon="5.88417">
        <ele>636</ele>
        <time>2019-03-05T15:00:54Z</time>
      </trkpt>
      <trkpt lat="44.32309" lon="5.88415">
        <ele>636</ele>
        <time>2019-03-05T15:00:55Z</time>
      </trkpt>
      <trkpt lat="44.32312" lon="5.88412">
        <ele>636</ele>
        <time>2019-03-05T15:00:56Z</time>
      </trkpt>
      <trkpt lat="44.32315" lon="5.88409">
        <ele>636</ele>
        <time>2019-03-05T15:00:57Z</time>
      </trkpt>
      <trkpt lat="44.32317" lon="5.88406">
        <ele>637</ele>
        <time>2019-03-05T15:00:58Z</time>
      </trkpt>
      <trkpt lat="44.3232" lon="5.88403">
        <ele>637</ele>
        <time>2019-03-05T15:00:59Z</time>
      </trkpt>
      <trkpt lat="44.32322" lon="5.88399">
        <ele>637</ele>
        <time>2019-03-05T15:01:00Z</time>
      </trkpt>
      <trkpt lat="44.32325" lon="5.88396">
        <ele>637</ele>
        <time>2019-03-05T15:01:01Z</time>
      </trkpt>
      <trkpt lat="44.32327" lon="5.88391">
        <ele>637</ele>
        <time>2019-03-05T15:01:02Z</time>
      </trkpt>
      <trkpt lat="44.32329" lon="5.88387">
        <ele>637</ele>
        <time>2019-03-05T15:01:03Z</time>
      </trkpt>
      <trkpt lat="44.3233" lon="5.88383">
        <ele>637</ele>
        <time>2019-03-05T15:01:04Z</time>
      </trkpt>
      <trkpt lat="44.32332" lon="5.88378">
        <ele>637</ele>
        <time>2019-03-05T15:01:05Z</time>
      </trkpt>
      <trkpt lat="44.32333" lon="5.88374">
        <ele>637</ele>
        <time>2019-03-05T15:01:06Z</time>
      </trkpt>
      <trkpt lat="44.32334" lon="5.8837">
        <ele>637</ele>
        <time>2019-03-05T15:01:07Z</time>
      </trkpt>
      <trkpt lat="44.32335" lon="5.88365">
        <ele>637</ele>
        <time>2019-03-05T15:01:08Z</time>
      </trkpt>
      <trkpt lat="44.32336" lon="5.88361">
        <ele>637</ele>
        <time>2019-03-05T15:01:09Z</time>
      </trkpt>
      <trkpt lat="44.32337" lon="5.88356">
        <ele>637</ele>
        <time>2019-03-05T15:01:10Z</time>
      </trkpt>
      <trkpt lat="44.32338" lon="5.88351">
        <ele>637</ele>
        <time>2019-03-05T15:01:11Z</time>
      </trkpt>
      <trkpt lat="44.32338" lon="5.88346">
        <ele>637</ele>
        <time>2019-03-05T15:01:12Z</time>
      </trkpt>
      <trkpt lat="44.32339" lon="5.88342">
        <ele>637</ele>
        <time>2019-03-05T15:01:13Z</time>
      </trkpt>
      <trkpt lat="44.3234" lon="5.88337">
        <ele>637</ele>
        <time>2019-03-05T15:01:14Z</time>
      </trkpt>
      <trkpt lat="44.32341" lon="5.88332">
        <ele>637</ele>
        <time>2019-03-05T15:01:15Z</time>
      </trkpt>
      <trkpt lat="44.32343" lon="5.88327">
        <ele>637</ele>
        <time>2019-03-05T15:01:16Z</time>
      </trkpt>
      <trkpt lat="44.32345" lon="5.88322">
        <ele>637</ele>
        <time>2019-03-05T15:01:17Z</time>
      </trkpt>
      <trkpt lat="44.32346" lon="5.88318">
        <ele>637</ele>
        <time>2019-03-05T15:01:18Z</time>
      </trkpt>
      <trkpt lat="44.32348" lon="5.88313">
        <ele>637</ele>
        <time>2019-03-05T15:01:19Z</time>
      </trkpt>
      <trkpt lat="44.32351" lon="5.88308">
        <ele>637</ele>
        <time>2019-03-05T15:01:20Z</time>
      </trkpt>
      <trkpt lat="44.32352" lon="5.88304">
        <ele>637</ele>
        <time>2019-03-05T15:01:21Z</time>
      </trkpt>
      <trkpt lat="44.32354" lon="5.883">
        <ele>637</ele>
        <time>2019-03-05T15:01:22Z</time>
      </trkpt>
      <trkpt lat="44.32356" lon="5.88295">
        <ele>637</ele>
        <time>2019-03-05T15:01:23Z</time>
      </trkpt>
      <trkpt lat="44.32358" lon="5.88291">
        <ele>637</ele>
        <time>2019-03-05T15:01:24Z</time>
      </trkpt>
      <trkpt lat="44.3236" lon="5.88287">
        <ele>637</ele>
        <time>2019-03-05T15:01:25Z</time>
      </trkpt>
      <trkpt lat="44.32362" lon="5.88283">
        <ele>637</ele>
        <time>2019-03-05T15:01:26Z</time>
      </trkpt>
      <trkpt lat="44.32364" lon="5.88279">
        <ele>637</ele>
        <time>2019-03-05T15:01:27Z</time>
      </trkpt>
      <trkpt lat="44.32365" lon="5.88275">
        <ele>638</ele>
        <time>2019-03-05T15:01:28Z</time>
      </trkpt>
      <trkpt lat="44.32367" lon="5.88271">
        <ele>638</ele>
        <time>2019-03-05T15:01:29Z</time>
      </trkpt>
      <trkpt lat="44.32369" lon="5.88267">
        <ele>638</ele>
        <time>2019-03-05T15:01:30Z</time>
      </trkpt>
      <trkpt lat="44.3237" lon="5.88263">
        <ele>638</ele>
        <time>2019-03-05T15:01:31Z</time>
      </trkpt>
      <trkpt lat="44.32372" lon="5.88259">
        <ele>639</ele>
        <time>2019-03-05T15:01:32Z</time>
      </trkpt>
      <trkpt lat="44.32374" lon="5.88255">
        <ele>639</ele>
        <time>2019-03-05T15:01:33Z</time>
      </trkpt>
      <trkpt lat="44.32376" lon="5.88251">
        <ele>639</ele>
        <time>2019-03-05T15:01:34Z</time>
      </trkpt>
      <trkpt lat="44.32378" lon="5.88247">
        <ele>639</ele>
        <time>2019-03-05T15:01:35Z</time>
      </trkpt>
      <trkpt lat="44.32379" lon="5.88242">
        <ele>639</ele>
        <time>2019-03-05T15:01:36Z</time>
      </trkpt>
      <trkpt lat="44.32381" lon="5.88238">
        <ele>640</ele>
        <time>2019-03-05T15:01:37Z</time>
      </trkpt>
      <trkpt lat="44.32382" lon="5.88234">
        <ele>640</ele>
        <time>2019-03-05T15:01:38Z</time>
      </trkpt>
      <trkpt lat="44.32383" lon="5.88231">
        <ele>640</ele>
        <time>2019-03-05T15:01:39Z</time>
      </trkpt>
      <trkpt lat="44.32384" lon="5.88227">
        <ele>640</ele>
        <time>2019-03-05T15:01:40Z</time>
      </trkpt>
      <trkpt lat="44.32385" lon="5.88223">
        <ele>640</ele>
        <time>2019-03-05T15:01:41Z</time>
      </trkpt>
      <trkpt lat="44.32386" lon="5.88219">
        <ele>640</ele>
        <time>2019-03-05T15:01:42Z</time>
      </trkpt>
      <trkpt lat="44.32388" lon="5.88215">
        <ele>640</ele>
        <time>2019-03-05T15:01:43Z</time>
      </trkpt>
      <trkpt lat="44.32389" lon="5.88211">
        <ele>640</ele>
        <time>2019-03-05T15:01:44Z</time>
      </trkpt>
      <trkpt lat="44.32391" lon="5.88208">
        <ele>640</ele>
        <time>2019-03-05T15:01:45Z</time>
      </trkpt>
      <trkpt lat="44.32393" lon="5.88206">
        <ele>640</ele>
        <time>2019-03-05T15:01:46Z</time>
      </trkpt>
      <trkpt lat="44.32394" lon="5.88204">
        <ele>640</ele>
        <time>2019-03-05T15:01:47Z</time>
      </trkpt>
      <trkpt lat="44.32395" lon="5.88202">
        <ele>640</ele>
        <time>2019-03-05T15:01:48Z</time>
      </trkpt>
      <trkpt lat="44.32396" lon="5.882">
        <ele>640</ele>
        <time>2019-03-05T15:01:50Z</time>
      </trkpt>
      <trkpt lat="44.32396" lon="5.88199">
        <ele>640</ele>
        <time>2019-03-05T15:01:56Z</time>
      </trkpt>
      <trkpt lat="44.32395" lon="5.88197">
        <ele>640</ele>
        <time>2019-03-05T15:02:12Z</time>
      </trkpt>
      <trkpt lat="44.32395" lon="5.88196">
        <ele>639</ele>
        <time>2019-03-05T15:02:19Z</time>
      </trkpt>
      <trkpt lat="44.32394" lon="5.88194">
        <ele>639</ele>
        <time>2019-03-05T15:02:24Z</time>
      </trkpt>
      <trkpt lat="44.32394" lon="5.88192">
        <ele>639</ele>
        <time>2019-03-05T15:02:26Z</time>
      </trkpt>
      <trkpt lat="44.32394" lon="5.88191">
        <ele>639</ele>
        <time>2019-03-05T15:02:27Z</time>
      </trkpt>
      <trkpt lat="44.32394" lon="5.88189">
        <ele>639</ele>
        <time>2019-03-05T15:02:28Z</time>
      </trkpt>
      <trkpt lat="44.32394" lon="5.88187">
        <ele>639</ele>
        <time>2019-03-05T15:02:29Z</time>
      </trkpt>
      <trkpt lat="44.32395" lon="5.88184">
        <ele>639</ele>
        <time>2019-03-05T15:02:30Z</time>
      </trkpt>
      <trkpt lat="44.32396" lon="5.88182">
        <ele>639</ele>
        <time>2019-03-05T15:02:31Z</time>
      </trkpt>
      <trkpt lat="44.32397" lon="5.88178">
        <ele>639</ele>
        <time>2019-03-05T15:02:32Z</time>
      </trkpt>
      <trkpt lat="44.32398" lon="5.88173">
        <ele>639</ele>
        <time>2019-03-05T15:02:33Z</time>
      </trkpt>
      <trkpt lat="44.32399" lon="5.88168">
        <ele>639</ele>
        <time>2019-03-05T15:02:34Z</time>
      </trkpt>
      <trkpt lat="44.32401" lon="5.88163">
        <ele>639</ele>
        <time>2019-03-05T15:02:35Z</time>
      </trkpt>
      <trkpt lat="44.32402" lon="5.88157">
        <ele>639</ele>
        <time>2019-03-05T15:02:36Z</time>
      </trkpt>
      <trkpt lat="44.32404" lon="5.88151">
        <ele>639</ele>
        <time>2019-03-05T15:02:37Z</time>
      </trkpt>
      <trkpt lat="44.32406" lon="5.88145">
        <ele>639</ele>
        <time>2019-03-05T15:02:38Z</time>
      </trkpt>
      <trkpt lat="44.32407" lon="5.88139">
        <ele>639</ele>
        <time>2019-03-05T15:02:39Z</time>
      </trkpt>
      <trkpt lat="44.32409" lon="5.88133">
        <ele>639</ele>
        <time>2019-03-05T15:02:40Z</time>
      </trkpt>
      <trkpt lat="44.3241" lon="5.88127">
        <ele>639</ele>
        <time>2019-03-05T15:02:41Z</time>
      </trkpt>
      <trkpt lat="44.32411" lon="5.8812">
        <ele>639</ele>
        <time>2019-03-05T15:02:42Z</time>
      </trkpt>
      <trkpt lat="44.32412" lon="5.88114">
        <ele>639</ele>
        <time>2019-03-05T15:02:43Z</time>
      </trkpt>
      <trkpt lat="44.32414" lon="5.88107">
        <ele>638</ele>
        <time>2019-03-05T15:02:44Z</time>
      </trkpt>
      <trkpt lat="44.32415" lon="5.88101">
        <ele>638</ele>
        <time>2019-03-05T15:02:45Z</time>
      </trkpt>
      <trkpt lat="44.32416" lon="5.88094">
        <ele>638</ele>
        <time>2019-03-05T15:02:46Z</time>
      </trkpt>
      <trkpt lat="44.32418" lon="5.88088">
        <ele>638</ele>
        <time>2019-03-05T15:02:47Z</time>
      </trkpt>
      <trkpt lat="44.32421" lon="5.88082">
        <ele>638</ele>
        <time>2019-03-05T15:02:48Z</time>
      </trkpt>
      <trkpt lat="44.32425" lon="5.88076">
        <ele>638</ele>
        <time>2019-03-05T15:02:49Z</time>
      </trkpt>
      <trkpt lat="44.32428" lon="5.88071">
        <ele>638</ele>
        <time>2019-03-05T15:02:50Z</time>
      </trkpt>
      <trkpt lat="44.32432" lon="5.88066">
        <ele>638</ele>
        <time>2019-03-05T15:02:51Z</time>
      </trkpt>
      <trkpt lat="44.32436" lon="5.88061">
        <ele>638</ele>
        <time>2019-03-05T15:02:52Z</time>
      </trkpt>
      <trkpt lat="44.32439" lon="5.88056">
        <ele>638</ele>
        <time>2019-03-05T15:02:53Z</time>
      </trkpt>
      <trkpt lat="44.32444" lon="5.88052">
        <ele>638</ele>
        <time>2019-03-05T15:02:54Z</time>
      </trkpt>
      <trkpt lat="44.32448" lon="5.88047">
        <ele>638</ele>
        <time>2019-03-05T15:02:55Z</time>
      </trkpt>
      <trkpt lat="44.32452" lon="5.88042">
        <ele>638</ele>
        <time>2019-03-05T15:02:56Z</time>
      </trkpt>
      <trkpt lat="44.32455" lon="5.88037">
        <ele>638</ele>
        <time>2019-03-05T15:02:57Z</time>
      </trkpt>
      <trkpt lat="44.32459" lon="5.88032">
        <ele>638</ele>
        <time>2019-03-05T15:02:58Z</time>
      </trkpt>
      <trkpt lat="44.32463" lon="5.88027">
        <ele>638</ele>
        <time>2019-03-05T15:02:59Z</time>
      </trkpt>
      <trkpt lat="44.32467" lon="5.88022">
        <ele>638</ele>
        <time>2019-03-05T15:03:00Z</time>
      </trkpt>
      <trkpt lat="44.3247" lon="5.88017">
        <ele>638</ele>
        <time>2019-03-05T15:03:01Z</time>
      </trkpt>
      <trkpt lat="44.32473" lon="5.88012">
        <ele>637</ele>
        <time>2019-03-05T15:03:02Z</time>
      </trkpt>
      <trkpt lat="44.32477" lon="5.88007">
        <ele>637</ele>
        <time>2019-03-05T15:03:03Z</time>
      </trkpt>
      <trkpt lat="44.32481" lon="5.88001">
        <ele>637</ele>
        <time>2019-03-05T15:03:04Z</time>
      </trkpt>
      <trkpt lat="44.32484" lon="5.87995">
        <ele>637</ele>
        <time>2019-03-05T15:03:05Z</time>
      </trkpt>
      <trkpt lat="44.32487" lon="5.87989">
        <ele>637</ele>
        <time>2019-03-05T15:03:06Z</time>
      </trkpt>
      <trkpt lat="44.3249" lon="5.87983">
        <ele>637</ele>
        <time>2019-03-05T15:03:07Z</time>
      </trkpt>
      <trkpt lat="44.32492" lon="5.87976">
        <ele>637</ele>
        <time>2019-03-05T15:03:08Z</time>
      </trkpt>
      <trkpt lat="44.32495" lon="5.87969">
        <ele>637</ele>
        <time>2019-03-05T15:03:09Z</time>
      </trkpt>
      <trkpt lat="44.32497" lon="5.87962">
        <ele>637</ele>
        <time>2019-03-05T15:03:10Z</time>
      </trkpt>
      <trkpt lat="44.32499" lon="5.87955">
        <ele>637</ele>
        <time>2019-03-05T15:03:11Z</time>
      </trkpt>
      <trkpt lat="44.325" lon="5.87948">
        <ele>637</ele>
        <time>2019-03-05T15:03:12Z</time>
      </trkpt>
      <trkpt lat="44.32501" lon="5.8794">
        <ele>637</ele>
        <time>2019-03-05T15:03:13Z</time>
      </trkpt>
      <trkpt lat="44.32502" lon="5.87933">
        <ele>637</ele>
        <time>2019-03-05T15:03:14Z</time>
      </trkpt>
      <trkpt lat="44.32502" lon="5.87925">
        <ele>637</ele>
        <time>2019-03-05T15:03:15Z</time>
      </trkpt>
      <trkpt lat="44.32503" lon="5.87917">
        <ele>637</ele>
        <time>2019-03-05T15:03:16Z</time>
      </trkpt>
      <trkpt lat="44.32503" lon="5.87909">
        <ele>637</ele>
        <time>2019-03-05T15:03:17Z</time>
      </trkpt>
      <trkpt lat="44.32504" lon="5.87901">
        <ele>637</ele>
        <time>2019-03-05T15:03:18Z</time>
      </trkpt>
      <trkpt lat="44.32505" lon="5.87893">
        <ele>637</ele>
        <time>2019-03-05T15:03:19Z</time>
      </trkpt>
      <trkpt lat="44.32505" lon="5.87885">
        <ele>637</ele>
        <time>2019-03-05T15:03:20Z</time>
      </trkpt>
      <trkpt lat="44.32505" lon="5.87876">
        <ele>637</ele>
        <time>2019-03-05T15:03:21Z</time>
      </trkpt>
      <trkpt lat="44.32506" lon="5.87866">
        <ele>637</ele>
        <time>2019-03-05T15:03:22Z</time>
      </trkpt>
      <trkpt lat="44.32507" lon="5.87857">
        <ele>637</ele>
        <time>2019-03-05T15:03:23Z</time>
      </trkpt>
      <trkpt lat="44.32507" lon="5.87848">
        <ele>637</ele>
        <time>2019-03-05T15:03:24Z</time>
      </trkpt>
      <trkpt lat="44.32508" lon="5.87838">
        <ele>637</ele>
        <time>2019-03-05T15:03:25Z</time>
      </trkpt>
      <trkpt lat="44.32509" lon="5.87829">
        <ele>637</ele>
        <time>2019-03-05T15:03:26Z</time>
      </trkpt>
      <trkpt lat="44.3251" lon="5.87819">
        <ele>637</ele>
        <time>2019-03-05T15:03:27Z</time>
      </trkpt>
      <trkpt lat="44.3251" lon="5.87808">
        <ele>637</ele>
        <time>2019-03-05T15:03:28Z</time>
      </trkpt>
      <trkpt lat="44.32512" lon="5.87798">
        <ele>637</ele>
        <time>2019-03-05T15:03:29Z</time>
      </trkpt>
      <trkpt lat="44.32512" lon="5.87788">
        <ele>637</ele>
        <time>2019-03-05T15:03:30Z</time>
      </trkpt>
      <trkpt lat="44.32513" lon="5.87778">
        <ele>637</ele>
        <time>2019-03-05T15:03:31Z</time>
      </trkpt>
      <trkpt lat="44.32514" lon="5.87768">
        <ele>637</ele>
        <time>2019-03-05T15:03:32Z</time>
      </trkpt>
      <trkpt lat="44.32515" lon="5.87757">
        <ele>637</ele>
        <time>2019-03-05T15:03:33Z</time>
      </trkpt>
      <trkpt lat="44.32515" lon="5.87747">
        <ele>637</ele>
        <time>2019-03-05T15:03:34Z</time>
      </trkpt>
      <trkpt lat="44.32516" lon="5.87737">
        <ele>637</ele>
        <time>2019-03-05T15:03:35Z</time>
      </trkpt>
      <trkpt lat="44.32517" lon="5.87726">
        <ele>637</ele>
        <time>2019-03-05T15:03:36Z</time>
      </trkpt>
      <trkpt lat="44.32518" lon="5.87716">
        <ele>637</ele>
        <time>2019-03-05T15:03:37Z</time>
      </trkpt>
      <trkpt lat="44.32518" lon="5.87705">
        <ele>637</ele>
        <time>2019-03-05T15:03:38Z</time>
      </trkpt>
      <trkpt lat="44.32519" lon="5.87695">
        <ele>637</ele>
        <time>2019-03-05T15:03:39Z</time>
      </trkpt>
      <trkpt lat="44.3252" lon="5.87684">
        <ele>637</ele>
        <time>2019-03-05T15:03:40Z</time>
      </trkpt>
      <trkpt lat="44.3252" lon="5.87674">
        <ele>636</ele>
        <time>2019-03-05T15:03:41Z</time>
      </trkpt>
      <trkpt lat="44.32521" lon="5.87663">
        <ele>636</ele>
        <time>2019-03-05T15:03:42Z</time>
      </trkpt>
      <trkpt lat="44.32522" lon="5.87654">
        <ele>635</ele>
        <time>2019-03-05T15:03:43Z</time>
      </trkpt>
      <trkpt lat="44.32522" lon="5.87644">
        <ele>635</ele>
        <time>2019-03-05T15:03:44Z</time>
      </trkpt>
      <trkpt lat="44.32523" lon="5.87635">
        <ele>634</ele>
        <time>2019-03-05T15:03:45Z</time>
      </trkpt>
      <trkpt lat="44.32523" lon="5.87626">
        <ele>634</ele>
        <time>2019-03-05T15:03:46Z</time>
      </trkpt>
      <trkpt lat="44.32524" lon="5.87616">
        <ele>633</ele>
        <time>2019-03-05T15:03:47Z</time>
      </trkpt>
      <trkpt lat="44.32524" lon="5.87608">
        <ele>633</ele>
        <time>2019-03-05T15:03:48Z</time>
      </trkpt>
      <trkpt lat="44.32523" lon="5.87599">
        <ele>633</ele>
        <time>2019-03-05T15:03:49Z</time>
      </trkpt>
      <trkpt lat="44.32521" lon="5.87591">
        <ele>633</ele>
        <time>2019-03-05T15:03:50Z</time>
      </trkpt>
      <trkpt lat="44.32518" lon="5.87583">
        <ele>633</ele>
        <time>2019-03-05T15:03:51Z</time>
      </trkpt>
      <trkpt lat="44.32516" lon="5.87575">
        <ele>633</ele>
        <time>2019-03-05T15:03:52Z</time>
      </trkpt>
      <trkpt lat="44.32512" lon="5.87569">
        <ele>633</ele>
        <time>2019-03-05T15:03:53Z</time>
      </trkpt>
      <trkpt lat="44.32508" lon="5.87562">
        <ele>633</ele>
        <time>2019-03-05T15:03:54Z</time>
      </trkpt>
      <trkpt lat="44.32504" lon="5.87556">
        <ele>633</ele>
        <time>2019-03-05T15:03:55Z</time>
      </trkpt>
      <trkpt lat="44.32499" lon="5.8755">
        <ele>633</ele>
        <time>2019-03-05T15:03:56Z</time>
      </trkpt>
      <trkpt lat="44.32495" lon="5.87544">
        <ele>633</ele>
        <time>2019-03-05T15:03:57Z</time>
      </trkpt>
      <trkpt lat="44.32491" lon="5.87538">
        <ele>633</ele>
        <time>2019-03-05T15:03:58Z</time>
      </trkpt>
      <trkpt lat="44.32486" lon="5.87532">
        <ele>633</ele>
        <time>2019-03-05T15:03:59Z</time>
      </trkpt>
      <trkpt lat="44.32482" lon="5.87525">
        <ele>633</ele>
        <time>2019-03-05T15:04:00Z</time>
      </trkpt>
      <trkpt lat="44.32478" lon="5.87518">
        <ele>633</ele>
        <time>2019-03-05T15:04:01Z</time>
      </trkpt>
      <trkpt lat="44.32474" lon="5.87512">
        <ele>633</ele>
        <time>2019-03-05T15:04:02Z</time>
      </trkpt>
      <trkpt lat="44.32471" lon="5.87505">
        <ele>633</ele>
        <time>2019-03-05T15:04:03Z</time>
      </trkpt>
      <trkpt lat="44.32467" lon="5.87498">
        <ele>633</ele>
        <time>2019-03-05T15:04:04Z</time>
      </trkpt>
      <trkpt lat="44.32464" lon="5.87491">
        <ele>633</ele>
        <time>2019-03-05T15:04:05Z</time>
      </trkpt>
      <trkpt lat="44.3246" lon="5.87484">
        <ele>633</ele>
        <time>2019-03-05T15:04:06Z</time>
      </trkpt>
      <trkpt lat="44.32457" lon="5.87477">
        <ele>633</ele>
        <time>2019-03-05T15:04:07Z</time>
      </trkpt>
      <trkpt lat="44.32454" lon="5.8747">
        <ele>633</ele>
        <time>2019-03-05T15:04:08Z</time>
      </trkpt>
      <trkpt lat="44.3245" lon="5.87463">
        <ele>633</ele>
        <time>2019-03-05T15:04:09Z</time>
      </trkpt>
      <trkpt lat="44.32447" lon="5.87456">
        <ele>633</ele>
        <time>2019-03-05T15:04:10Z</time>
      </trkpt>
      <trkpt lat="44.32444" lon="5.87448">
        <ele>633</ele>
        <time>2019-03-05T15:04:11Z</time>
      </trkpt>
      <trkpt lat="44.32442" lon="5.87439">
        <ele>633</ele>
        <time>2019-03-05T15:04:12Z</time>
      </trkpt>
      <trkpt lat="44.32441" lon="5.8743">
        <ele>633</ele>
        <time>2019-03-05T15:04:13Z</time>
      </trkpt>
      <trkpt lat="44.3244" lon="5.87421">
        <ele>633</ele>
        <time>2019-03-05T15:04:14Z</time>
      </trkpt>
      <trkpt lat="44.3244" lon="5.87412">
        <ele>633</ele>
        <time>2019-03-05T15:04:15Z</time>
      </trkpt>
      <trkpt lat="44.32441" lon="5.87403">
        <ele>633</ele>
        <time>2019-03-05T15:04:16Z</time>
      </trkpt>
      <trkpt lat="44.32441" lon="5.87395">
        <ele>633</ele>
        <time>2019-03-05T15:04:17Z</time>
      </trkpt>
      <trkpt lat="44.32442" lon="5.87386">
        <ele>633</ele>
        <time>2019-03-05T15:04:18Z</time>
      </trkpt>
      <trkpt lat="44.32443" lon="5.87377">
        <ele>633</ele>
        <time>2019-03-05T15:04:19Z</time>
      </trkpt>
      <trkpt lat="44.32444" lon="5.87368">
        <ele>633</ele>
        <time>2019-03-05T15:04:20Z</time>
      </trkpt>
      <trkpt lat="44.32445" lon="5.8736">
        <ele>633</ele>
        <time>2019-03-05T15:04:21Z</time>
      </trkpt>
      <trkpt lat="44.32445" lon="5.87351">
        <ele>633</ele>
        <time>2019-03-05T15:04:22Z</time>
      </trkpt>
      <trkpt lat="44.32446" lon="5.87342">
        <ele>633</ele>
        <time>2019-03-05T15:04:23Z</time>
      </trkpt>
      <trkpt lat="44.32447" lon="5.87333">
        <ele>633</ele>
        <time>2019-03-05T15:04:24Z</time>
      </trkpt>
      <trkpt lat="44.32448" lon="5.87325">
        <ele>633</ele>
        <time>2019-03-05T15:04:25Z</time>
      </trkpt>
      <trkpt lat="44.32449" lon="5.87316">
        <ele>633</ele>
        <time>2019-03-05T15:04:26Z</time>
      </trkpt>
      <trkpt lat="44.32449" lon="5.87308">
        <ele>633</ele>
        <time>2019-03-05T15:04:27Z</time>
      </trkpt>
      <trkpt lat="44.3245" lon="5.87299">
        <ele>633</ele>
        <time>2019-03-05T15:04:28Z</time>
      </trkpt>
      <trkpt lat="44.32451" lon="5.8729">
        <ele>633</ele>
        <time>2019-03-05T15:04:29Z</time>
      </trkpt>
      <trkpt lat="44.32452" lon="5.87282">
        <ele>633</ele>
        <time>2019-03-05T15:04:30Z</time>
      </trkpt>
      <trkpt lat="44.32453" lon="5.87273">
        <ele>633</ele>
        <time>2019-03-05T15:04:31Z</time>
      </trkpt>
      <trkpt lat="44.32454" lon="5.87264">
        <ele>633</ele>
        <time>2019-03-05T15:04:32Z</time>
      </trkpt>
      <trkpt lat="44.32455" lon="5.87256">
        <ele>633</ele>
        <time>2019-03-05T15:04:33Z</time>
      </trkpt>
      <trkpt lat="44.32457" lon="5.87247">
        <ele>633</ele>
        <time>2019-03-05T15:04:34Z</time>
      </trkpt>
      <trkpt lat="44.32459" lon="5.87238">
        <ele>633</ele>
        <time>2019-03-05T15:04:35Z</time>
      </trkpt>
      <trkpt lat="44.32461" lon="5.8723">
        <ele>633</ele>
        <time>2019-03-05T15:04:36Z</time>
      </trkpt>
      <trkpt lat="44.32465" lon="5.87222">
        <ele>633</ele>
        <time>2019-03-05T15:04:37Z</time>
      </trkpt>
      <trkpt lat="44.32468" lon="5.87215">
        <ele>633</ele>
        <time>2019-03-05T15:04:38Z</time>
      </trkpt>
      <trkpt lat="44.32473" lon="5.87208">
        <ele>633</ele>
        <time>2019-03-05T15:04:39Z</time>
      </trkpt>
      <trkpt lat="44.32477" lon="5.87203">
        <ele>632</ele>
        <time>2019-03-05T15:04:40Z</time>
      </trkpt>
      <trkpt lat="44.32483" lon="5.87197">
        <ele>631</ele>
        <time>2019-03-05T15:04:41Z</time>
      </trkpt>
      <trkpt lat="44.32489" lon="5.87193">
        <ele>630</ele>
        <time>2019-03-05T15:04:42Z</time>
      </trkpt>
      <trkpt lat="44.32494" lon="5.87188">
        <ele>629</ele>
        <time>2019-03-05T15:04:43Z</time>
      </trkpt>
      <trkpt lat="44.325" lon="5.87183">
        <ele>629</ele>
        <time>2019-03-05T15:04:44Z</time>
      </trkpt>
      <trkpt lat="44.32507" lon="5.87179">
        <ele>628</ele>
        <time>2019-03-05T15:04:45Z</time>
      </trkpt>
      <trkpt lat="44.32513" lon="5.87174">
        <ele>628</ele>
        <time>2019-03-05T15:04:46Z</time>
      </trkpt>
      <trkpt lat="44.32521" lon="5.87169">
        <ele>627</ele>
        <time>2019-03-05T15:04:47Z</time>
      </trkpt>
      <trkpt lat="44.32528" lon="5.87164">
        <ele>626</ele>
        <time>2019-03-05T15:04:48Z</time>
      </trkpt>
      <trkpt lat="44.32535" lon="5.87159">
        <ele>626</ele>
        <time>2019-03-05T15:04:49Z</time>
      </trkpt>
      <trkpt lat="44.32542" lon="5.87155">
        <ele>625</ele>
        <time>2019-03-05T15:04:50Z</time>
      </trkpt>
      <trkpt lat="44.3255" lon="5.87151">
        <ele>624</ele>
        <time>2019-03-05T15:04:51Z</time>
      </trkpt>
      <trkpt lat="44.32557" lon="5.87147">
        <ele>624</ele>
        <time>2019-03-05T15:04:52Z</time>
      </trkpt>
      <trkpt lat="44.32564" lon="5.87144">
        <ele>623</ele>
        <time>2019-03-05T15:04:53Z</time>
      </trkpt>
      <trkpt lat="44.3257" lon="5.87142">
        <ele>623</ele>
        <time>2019-03-05T15:04:54Z</time>
      </trkpt>
      <trkpt lat="44.32577" lon="5.87141">
        <ele>622</ele>
        <time>2019-03-05T15:04:55Z</time>
      </trkpt>
      <trkpt lat="44.32584" lon="5.8714">
        <ele>622</ele>
        <time>2019-03-05T15:04:56Z</time>
      </trkpt>
      <trkpt lat="44.32591" lon="5.87141">
        <ele>621</ele>
        <time>2019-03-05T15:04:57Z</time>
      </trkpt>
      <trkpt lat="44.32598" lon="5.87142">
        <ele>621</ele>
        <time>2019-03-05T15:04:58Z</time>
      </trkpt>
      <trkpt lat="44.32605" lon="5.87143">
        <ele>621</ele>
        <time>2019-03-05T15:04:59Z</time>
      </trkpt>
      <trkpt lat="44.32611" lon="5.87143">
        <ele>621</ele>
        <time>2019-03-05T15:05:00Z</time>
      </trkpt>
      <trkpt lat="44.32618" lon="5.87144">
        <ele>621</ele>
        <time>2019-03-05T15:05:01Z</time>
      </trkpt>
      <trkpt lat="44.32625" lon="5.87143">
        <ele>621</ele>
        <time>2019-03-05T15:05:02Z</time>
      </trkpt>
      <trkpt lat="44.32632" lon="5.87142">
        <ele>621</ele>
        <time>2019-03-05T15:05:03Z</time>
      </trkpt>
      <trkpt lat="44.32639" lon="5.8714">
        <ele>621</ele>
        <time>2019-03-05T15:05:04Z</time>
      </trkpt>
      <trkpt lat="44.32646" lon="5.87138">
        <ele>621</ele>
        <time>2019-03-05T15:05:05Z</time>
      </trkpt>
      <trkpt lat="44.32653" lon="5.87136">
        <ele>621</ele>
        <time>2019-03-05T15:05:06Z</time>
      </trkpt>
      <trkpt lat="44.32659" lon="5.87133">
        <ele>621</ele>
        <time>2019-03-05T15:05:07Z</time>
      </trkpt>
      <trkpt lat="44.32666" lon="5.87129">
        <ele>621</ele>
        <time>2019-03-05T15:05:08Z</time>
      </trkpt>
      <trkpt lat="44.32672" lon="5.87124">
        <ele>620</ele>
        <time>2019-03-05T15:05:09Z</time>
      </trkpt>
      <trkpt lat="44.32678" lon="5.87119">
        <ele>619</ele>
        <time>2019-03-05T15:05:10Z</time>
      </trkpt>
      <trkpt lat="44.32683" lon="5.87112">
        <ele>619</ele>
        <time>2019-03-05T15:05:11Z</time>
      </trkpt>
      <trkpt lat="44.32688" lon="5.87104">
        <ele>619</ele>
        <time>2019-03-05T15:05:12Z</time>
      </trkpt>
      <trkpt lat="44.32691" lon="5.87095">
        <ele>619</ele>
        <time>2019-03-05T15:05:13Z</time>
      </trkpt>
      <trkpt lat="44.32695" lon="5.87085">
        <ele>619</ele>
        <time>2019-03-05T15:05:14Z</time>
      </trkpt>
      <trkpt lat="44.32696" lon="5.87075">
        <ele>619</ele>
        <time>2019-03-05T15:05:15Z</time>
      </trkpt>
      <trkpt lat="44.32698" lon="5.87065">
        <ele>619</ele>
        <time>2019-03-05T15:05:16Z</time>
      </trkpt>
      <trkpt lat="44.32699" lon="5.87054">
        <ele>619</ele>
        <time>2019-03-05T15:05:17Z</time>
      </trkpt>
      <trkpt lat="44.327" lon="5.87044">
        <ele>619</ele>
        <time>2019-03-05T15:05:18Z</time>
      </trkpt>
      <trkpt lat="44.32702" lon="5.87034">
        <ele>619</ele>
        <time>2019-03-05T15:05:19Z</time>
      </trkpt>
      <trkpt lat="44.32704" lon="5.87023">
        <ele>619</ele>
        <time>2019-03-05T15:05:20Z</time>
      </trkpt>
      <trkpt lat="44.32706" lon="5.87013">
        <ele>619</ele>
        <time>2019-03-05T15:05:21Z</time>
      </trkpt>
      <trkpt lat="44.32707" lon="5.87002">
        <ele>619</ele>
        <time>2019-03-05T15:05:22Z</time>
      </trkpt>
      <trkpt lat="44.32709" lon="5.86993">
        <ele>619</ele>
        <time>2019-03-05T15:05:23Z</time>
      </trkpt>
      <trkpt lat="44.32711" lon="5.86983">
        <ele>619</ele>
        <time>2019-03-05T15:05:24Z</time>
      </trkpt>
      <trkpt lat="44.32713" lon="5.86974">
        <ele>619</ele>
        <time>2019-03-05T15:05:25Z</time>
      </trkpt>
      <trkpt lat="44.32715" lon="5.86965">
        <ele>619</ele>
        <time>2019-03-05T15:05:26Z</time>
      </trkpt>
      <trkpt lat="44.32717" lon="5.86956">
        <ele>619</ele>
        <time>2019-03-05T15:05:27Z</time>
      </trkpt>
      <trkpt lat="44.32719" lon="5.86947">
        <ele>619</ele>
        <time>2019-03-05T15:05:28Z</time>
      </trkpt>
      <trkpt lat="44.32721" lon="5.86938">
        <ele>619</ele>
        <time>2019-03-05T15:05:29Z</time>
      </trkpt>
      <trkpt lat="44.32723" lon="5.86929">
        <ele>619</ele>
        <time>2019-03-05T15:05:30Z</time>
      </trkpt>
      <trkpt lat="44.32725" lon="5.86919">
        <ele>619</ele>
        <time>2019-03-05T15:05:31Z</time>
      </trkpt>
      <trkpt lat="44.32727" lon="5.8691">
        <ele>619</ele>
        <time>2019-03-05T15:05:32Z</time>
      </trkpt>
      <trkpt lat="44.3273" lon="5.86902">
        <ele>619</ele>
        <time>2019-03-05T15:05:33Z</time>
      </trkpt>
      <trkpt lat="44.32733" lon="5.86893">
        <ele>619</ele>
        <time>2019-03-05T15:05:34Z</time>
      </trkpt>
      <trkpt lat="44.32736" lon="5.86884">
        <ele>619</ele>
        <time>2019-03-05T15:05:35Z</time>
      </trkpt>
      <trkpt lat="44.32738" lon="5.86875">
        <ele>619</ele>
        <time>2019-03-05T15:05:36Z</time>
      </trkpt>
      <trkpt lat="44.32741" lon="5.86867">
        <ele>619</ele>
        <time>2019-03-05T15:05:37Z</time>
      </trkpt>
      <trkpt lat="44.32743" lon="5.86858">
        <ele>619</ele>
        <time>2019-03-05T15:05:38Z</time>
      </trkpt>
      <trkpt lat="44.32746" lon="5.86849">
        <ele>619</ele>
        <time>2019-03-05T15:05:39Z</time>
      </trkpt>
      <trkpt lat="44.32748" lon="5.8684">
        <ele>619</ele>
        <time>2019-03-05T15:05:40Z</time>
      </trkpt>
      <trkpt lat="44.32751" lon="5.86832">
        <ele>619</ele>
        <time>2019-03-05T15:05:41Z</time>
      </trkpt>
      <trkpt lat="44.32753" lon="5.86823">
        <ele>619</ele>
        <time>2019-03-05T15:05:42Z</time>
      </trkpt>
      <trkpt lat="44.32755" lon="5.86814">
        <ele>619</ele>
        <time>2019-03-05T15:05:43Z</time>
      </trkpt>
      <trkpt lat="44.32757" lon="5.86805">
        <ele>619</ele>
        <time>2019-03-05T15:05:44Z</time>
      </trkpt>
      <trkpt lat="44.32758" lon="5.86796">
        <ele>619</ele>
        <time>2019-03-05T15:05:45Z</time>
      </trkpt>
      <trkpt lat="44.3276" lon="5.86788">
        <ele>619</ele>
        <time>2019-03-05T15:05:46Z</time>
      </trkpt>
      <trkpt lat="44.32761" lon="5.86779">
        <ele>619</ele>
        <time>2019-03-05T15:05:47Z</time>
      </trkpt>
      <trkpt lat="44.32761" lon="5.8677">
        <ele>619</ele>
        <time>2019-03-05T15:05:48Z</time>
      </trkpt>
      <trkpt lat="44.32762" lon="5.86761">
        <ele>619</ele>
        <time>2019-03-05T15:05:49Z</time>
      </trkpt>
      <trkpt lat="44.32762" lon="5.86752">
        <ele>619</ele>
        <time>2019-03-05T15:05:50Z</time>
      </trkpt>
      <trkpt lat="44.32762" lon="5.86743">
        <ele>619</ele>
        <time>2019-03-05T15:05:51Z</time>
      </trkpt>
      <trkpt lat="44.32761" lon="5.86734">
        <ele>619</ele>
        <time>2019-03-05T15:05:52Z</time>
      </trkpt>
      <trkpt lat="44.32761" lon="5.86726">
        <ele>619</ele>
        <time>2019-03-05T15:05:53Z</time>
      </trkpt>
      <trkpt lat="44.3276" lon="5.86717">
        <ele>619</ele>
        <time>2019-03-05T15:05:54Z</time>
      </trkpt>
      <trkpt lat="44.32759" lon="5.86708">
        <ele>619</ele>
        <time>2019-03-05T15:05:55Z</time>
      </trkpt>
      <trkpt lat="44.32758" lon="5.867">
        <ele>619</ele>
        <time>2019-03-05T15:05:56Z</time>
      </trkpt>
      <trkpt lat="44.32757" lon="5.86692">
        <ele>619</ele>
        <time>2019-03-05T15:05:57Z</time>
      </trkpt>
      <trkpt lat="44.32756" lon="5.86683">
        <ele>619</ele>
        <time>2019-03-05T15:05:58Z</time>
      </trkpt>
      <trkpt lat="44.32756" lon="5.86675">
        <ele>619</ele>
        <time>2019-03-05T15:05:59Z</time>
      </trkpt>
      <trkpt lat="44.32755" lon="5.86667">
        <ele>619</ele>
        <time>2019-03-05T15:06:00Z</time>
      </trkpt>
      <trkpt lat="44.32753" lon="5.86658">
        <ele>620</ele>
        <time>2019-03-05T15:06:01Z</time>
      </trkpt>
      <trkpt lat="44.32752" lon="5.8665">
        <ele>620</ele>
        <time>2019-03-05T15:06:02Z</time>
      </trkpt>
      <trkpt lat="44.32751" lon="5.86642">
        <ele>620</ele>
        <time>2019-03-05T15:06:03Z</time>
      </trkpt>
      <trkpt lat="44.3275" lon="5.86633">
        <ele>620</ele>
        <time>2019-03-05T15:06:04Z</time>
      </trkpt>
      <trkpt lat="44.3275" lon="5.86625">
        <ele>620</ele>
        <time>2019-03-05T15:06:05Z</time>
      </trkpt>
      <trkpt lat="44.32749" lon="5.86617">
        <ele>620</ele>
        <time>2019-03-05T15:06:06Z</time>
      </trkpt>
      <trkpt lat="44.32749" lon="5.86608">
        <ele>620</ele>
        <time>2019-03-05T15:06:07Z</time>
      </trkpt>
      <trkpt lat="44.32748" lon="5.866">
        <ele>620</ele>
        <time>2019-03-05T15:06:08Z</time>
      </trkpt>
      <trkpt lat="44.32748" lon="5.86591">
        <ele>620</ele>
        <time>2019-03-05T15:06:09Z</time>
      </trkpt>
      <trkpt lat="44.32749" lon="5.86583">
        <ele>620</ele>
        <time>2019-03-05T15:06:10Z</time>
      </trkpt>
      <trkpt lat="44.32749" lon="5.86575">
        <ele>620</ele>
        <time>2019-03-05T15:06:11Z</time>
      </trkpt>
      <trkpt lat="44.32751" lon="5.86567">
        <ele>620</ele>
        <time>2019-03-05T15:06:12Z</time>
      </trkpt>
      <trkpt lat="44.32753" lon="5.86559">
        <ele>620</ele>
        <time>2019-03-05T15:06:13Z</time>
      </trkpt>
      <trkpt lat="44.32755" lon="5.86551">
        <ele>620</ele>
        <time>2019-03-05T15:06:14Z</time>
      </trkpt>
      <trkpt lat="44.32757" lon="5.86543">
        <ele>620</ele>
        <time>2019-03-05T15:06:15Z</time>
      </trkpt>
      <trkpt lat="44.3276" lon="5.86536">
        <ele>620</ele>
        <time>2019-03-05T15:06:16Z</time>
      </trkpt>
      <trkpt lat="44.32763" lon="5.86528">
        <ele>620</ele>
        <time>2019-03-05T15:06:17Z</time>
      </trkpt>
      <trkpt lat="44.32766" lon="5.86521">
        <ele>620</ele>
        <time>2019-03-05T15:06:18Z</time>
      </trkpt>
      <trkpt lat="44.3277" lon="5.86515">
        <ele>620</ele>
        <time>2019-03-05T15:06:19Z</time>
      </trkpt>
      <trkpt lat="44.32774" lon="5.86508">
        <ele>620</ele>
        <time>2019-03-05T15:06:20Z</time>
      </trkpt>
      <trkpt lat="44.32778" lon="5.86502">
        <ele>620</ele>
        <time>2019-03-05T15:06:21Z</time>
      </trkpt>
      <trkpt lat="44.32782" lon="5.86496">
        <ele>620</ele>
        <time>2019-03-05T15:06:22Z</time>
      </trkpt>
      <trkpt lat="44.32787" lon="5.8649">
        <ele>620</ele>
        <time>2019-03-05T15:06:23Z</time>
      </trkpt>
      <trkpt lat="44.32791" lon="5.86485">
        <ele>620</ele>
        <time>2019-03-05T15:06:24Z</time>
      </trkpt>
      <trkpt lat="44.32796" lon="5.8648">
        <ele>620</ele>
        <time>2019-03-05T15:06:25Z</time>
      </trkpt>
      <trkpt lat="44.32802" lon="5.86476">
        <ele>620</ele>
        <time>2019-03-05T15:06:26Z</time>
      </trkpt>
      <trkpt lat="44.32807" lon="5.86472">
        <ele>620</ele>
        <time>2019-03-05T15:06:27Z</time>
      </trkpt>
      <trkpt lat="44.32812" lon="5.86468">
        <ele>620</ele>
        <time>2019-03-05T15:06:28Z</time>
      </trkpt>
      <trkpt lat="44.32817" lon="5.86464">
        <ele>620</ele>
        <time>2019-03-05T15:06:29Z</time>
      </trkpt>
      <trkpt lat="44.32823" lon="5.86459">
        <ele>620</ele>
        <time>2019-03-05T15:06:30Z</time>
      </trkpt>
      <trkpt lat="44.32827" lon="5.86453">
        <ele>620</ele>
        <time>2019-03-05T15:06:31Z</time>
      </trkpt>
      <trkpt lat="44.32832" lon="5.86447">
        <ele>619</ele>
        <time>2019-03-05T15:06:32Z</time>
      </trkpt>
      <trkpt lat="44.32835" lon="5.86441">
        <ele>619</ele>
        <time>2019-03-05T15:06:33Z</time>
      </trkpt>
      <trkpt lat="44.32839" lon="5.86434">
        <ele>619</ele>
        <time>2019-03-05T15:06:34Z</time>
      </trkpt>
      <trkpt lat="44.32841" lon="5.86426">
        <ele>619</ele>
        <time>2019-03-05T15:06:35Z</time>
      </trkpt>
      <trkpt lat="44.32843" lon="5.86418">
        <ele>619</ele>
        <time>2019-03-05T15:06:36Z</time>
      </trkpt>
      <trkpt lat="44.32845" lon="5.8641">
        <ele>619</ele>
        <time>2019-03-05T15:06:37Z</time>
      </trkpt>
      <trkpt lat="44.32846" lon="5.86402">
        <ele>619</ele>
        <time>2019-03-05T15:06:38Z</time>
      </trkpt>
      <trkpt lat="44.32846" lon="5.86393">
        <ele>619</ele>
        <time>2019-03-05T15:06:39Z</time>
      </trkpt>
      <trkpt lat="44.32846" lon="5.86385">
        <ele>619</ele>
        <time>2019-03-05T15:06:40Z</time>
      </trkpt>
      <trkpt lat="44.32846" lon="5.86377">
        <ele>619</ele>
        <time>2019-03-05T15:06:41Z</time>
      </trkpt>
      <trkpt lat="44.32847" lon="5.86369">
        <ele>619</ele>
        <time>2019-03-05T15:06:42Z</time>
      </trkpt>
      <trkpt lat="44.32848" lon="5.86361">
        <ele>619</ele>
        <time>2019-03-05T15:06:43Z</time>
      </trkpt>
      <trkpt lat="44.32849" lon="5.86353">
        <ele>619</ele>
        <time>2019-03-05T15:06:44Z</time>
      </trkpt>
      <trkpt lat="44.3285" lon="5.86346">
        <ele>619</ele>
        <time>2019-03-05T15:06:45Z</time>
      </trkpt>
      <trkpt lat="44.32852" lon="5.86338">
        <ele>619</ele>
        <time>2019-03-05T15:06:46Z</time>
      </trkpt>
      <trkpt lat="44.32854" lon="5.86331">
        <ele>619</ele>
        <time>2019-03-05T15:06:47Z</time>
      </trkpt>
      <trkpt lat="44.32856" lon="5.86324">
        <ele>619</ele>
        <time>2019-03-05T15:06:48Z</time>
      </trkpt>
      <trkpt lat="44.32859" lon="5.86318">
        <ele>619</ele>
        <time>2019-03-05T15:06:49Z</time>
      </trkpt>
      <trkpt lat="44.32862" lon="5.86311">
        <ele>619</ele>
        <time>2019-03-05T15:06:50Z</time>
      </trkpt>
      <trkpt lat="44.32865" lon="5.86305">
        <ele>619</ele>
        <time>2019-03-05T15:06:51Z</time>
      </trkpt>
      <trkpt lat="44.32868" lon="5.863">
        <ele>619</ele>
        <time>2019-03-05T15:06:52Z</time>
      </trkpt>
      <trkpt lat="44.32871" lon="5.86294">
        <ele>619</ele>
        <time>2019-03-05T15:06:53Z</time>
      </trkpt>
      <trkpt lat="44.32874" lon="5.86288">
        <ele>619</ele>
        <time>2019-03-05T15:06:54Z</time>
      </trkpt>
      <trkpt lat="44.32877" lon="5.86281">
        <ele>619</ele>
        <time>2019-03-05T15:06:55Z</time>
      </trkpt>
      <trkpt lat="44.3288" lon="5.86275">
        <ele>619</ele>
        <time>2019-03-05T15:06:56Z</time>
      </trkpt>
      <trkpt lat="44.32884" lon="5.86269">
        <ele>619</ele>
        <time>2019-03-05T15:06:57Z</time>
      </trkpt>
      <trkpt lat="44.32888" lon="5.86263">
        <ele>619</ele>
        <time>2019-03-05T15:06:58Z</time>
      </trkpt>
      <trkpt lat="44.32891" lon="5.86257">
        <ele>619</ele>
        <time>2019-03-05T15:06:59Z</time>
      </trkpt>
      <trkpt lat="44.32895" lon="5.86251">
        <ele>619</ele>
        <time>2019-03-05T15:07:00Z</time>
      </trkpt>
      <trkpt lat="44.32898" lon="5.86244">
        <ele>619</ele>
        <time>2019-03-05T15:07:01Z</time>
      </trkpt>
      <trkpt lat="44.32902" lon="5.86238">
        <ele>619</ele>
        <time>2019-03-05T15:07:02Z</time>
      </trkpt>
      <trkpt lat="44.32905" lon="5.86232">
        <ele>619</ele>
        <time>2019-03-05T15:07:03Z</time>
      </trkpt>
      <trkpt lat="44.32909" lon="5.86225">
        <ele>619</ele>
        <time>2019-03-05T15:07:04Z</time>
      </trkpt>
      <trkpt lat="44.32912" lon="5.86219">
        <ele>619</ele>
        <time>2019-03-05T15:07:05Z</time>
      </trkpt>
      <trkpt lat="44.32915" lon="5.86212">
        <ele>619</ele>
        <time>2019-03-05T15:07:06Z</time>
      </trkpt>
      <trkpt lat="44.32919" lon="5.86206">
        <ele>619</ele>
        <time>2019-03-05T15:07:07Z</time>
      </trkpt>
      <trkpt lat="44.32922" lon="5.862">
        <ele>619</ele>
        <time>2019-03-05T15:07:08Z</time>
      </trkpt>
      <trkpt lat="44.32926" lon="5.86193">
        <ele>619</ele>
        <time>2019-03-05T15:07:09Z</time>
      </trkpt>
      <trkpt lat="44.3293" lon="5.86187">
        <ele>619</ele>
        <time>2019-03-05T15:07:10Z</time>
      </trkpt>
      <trkpt lat="44.32933" lon="5.8618">
        <ele>619</ele>
        <time>2019-03-05T15:07:11Z</time>
      </trkpt>
      <trkpt lat="44.32937" lon="5.86174">
        <ele>619</ele>
        <time>2019-03-05T15:07:12Z</time>
      </trkpt>
      <trkpt lat="44.3294" lon="5.86167">
        <ele>619</ele>
        <time>2019-03-05T15:07:13Z</time>
      </trkpt>
      <trkpt lat="44.32944" lon="5.86161">
        <ele>619</ele>
        <time>2019-03-05T15:07:14Z</time>
      </trkpt>
      <trkpt lat="44.32948" lon="5.86154">
        <ele>619</ele>
        <time>2019-03-05T15:07:15Z</time>
      </trkpt>
      <trkpt lat="44.32952" lon="5.86148">
        <ele>619</ele>
        <time>2019-03-05T15:07:16Z</time>
      </trkpt>
      <trkpt lat="44.32956" lon="5.86141">
        <ele>619</ele>
        <time>2019-03-05T15:07:17Z</time>
      </trkpt>
      <trkpt lat="44.32959" lon="5.86134">
        <ele>619</ele>
        <time>2019-03-05T15:07:18Z</time>
      </trkpt>
      <trkpt lat="44.32963" lon="5.86128">
        <ele>619</ele>
        <time>2019-03-05T15:07:19Z</time>
      </trkpt>
      <trkpt lat="44.32967" lon="5.86121">
        <ele>619</ele>
        <time>2019-03-05T15:07:20Z</time>
      </trkpt>
      <trkpt lat="44.32971" lon="5.86114">
        <ele>619</ele>
        <time>2019-03-05T15:07:21Z</time>
      </trkpt>
      <trkpt lat="44.32975" lon="5.86106">
        <ele>619</ele>
        <time>2019-03-05T15:07:22Z</time>
      </trkpt>
      <trkpt lat="44.32978" lon="5.86099">
        <ele>619</ele>
        <time>2019-03-05T15:07:23Z</time>
      </trkpt>
      <trkpt lat="44.32981" lon="5.86091">
        <ele>619</ele>
        <time>2019-03-05T15:07:24Z</time>
      </trkpt>
      <trkpt lat="44.32984" lon="5.86083">
        <ele>619</ele>
        <time>2019-03-05T15:07:25Z</time>
      </trkpt>
      <trkpt lat="44.32985" lon="5.86074">
        <ele>619</ele>
        <time>2019-03-05T15:07:26Z</time>
      </trkpt>
      <trkpt lat="44.32986" lon="5.86065">
        <ele>619</ele>
        <time>2019-03-05T15:07:27Z</time>
      </trkpt>
      <trkpt lat="44.32986" lon="5.86056">
        <ele>619</ele>
        <time>2019-03-05T15:07:28Z</time>
      </trkpt>
      <trkpt lat="44.32986" lon="5.86047">
        <ele>619</ele>
        <time>2019-03-05T15:07:29Z</time>
      </trkpt>
      <trkpt lat="44.32985" lon="5.86038">
        <ele>619</ele>
        <time>2019-03-05T15:07:30Z</time>
      </trkpt>
      <trkpt lat="44.32983" lon="5.8603">
        <ele>619</ele>
        <time>2019-03-05T15:07:31Z</time>
      </trkpt>
      <trkpt lat="44.3298" lon="5.86022">
        <ele>619</ele>
        <time>2019-03-05T15:07:32Z</time>
      </trkpt>
      <trkpt lat="44.32977" lon="5.86014">
        <ele>619</ele>
        <time>2019-03-05T15:07:33Z</time>
      </trkpt>
      <trkpt lat="44.32973" lon="5.86006">
        <ele>619</ele>
        <time>2019-03-05T15:07:34Z</time>
      </trkpt>
      <trkpt lat="44.3297" lon="5.85998">
        <ele>618</ele>
        <time>2019-03-05T15:07:35Z</time>
      </trkpt>
      <trkpt lat="44.32967" lon="5.8599">
        <ele>618</ele>
        <time>2019-03-05T15:07:36Z</time>
      </trkpt>
      <trkpt lat="44.32963" lon="5.85983">
        <ele>618</ele>
        <time>2019-03-05T15:07:37Z</time>
      </trkpt>
      <trkpt lat="44.3296" lon="5.85976">
        <ele>617</ele>
        <time>2019-03-05T15:07:38Z</time>
      </trkpt>
      <trkpt lat="44.32956" lon="5.85969">
        <ele>617</ele>
        <time>2019-03-05T15:07:39Z</time>
      </trkpt>
      <trkpt lat="44.32954" lon="5.85961">
        <ele>617</ele>
        <time>2019-03-05T15:07:40Z</time>
      </trkpt>
      <trkpt lat="44.32951" lon="5.85953">
        <ele>617</ele>
        <time>2019-03-05T15:07:41Z</time>
      </trkpt>
      <trkpt lat="44.32949" lon="5.85944">
        <ele>617</ele>
        <time>2019-03-05T15:07:42Z</time>
      </trkpt>
      <trkpt lat="44.32947" lon="5.85936">
        <ele>617</ele>
        <time>2019-03-05T15:07:43Z</time>
      </trkpt>
      <trkpt lat="44.32946" lon="5.85927">
        <ele>617</ele>
        <time>2019-03-05T15:07:44Z</time>
      </trkpt>
      <trkpt lat="44.32945" lon="5.85918">
        <ele>617</ele>
        <time>2019-03-05T15:07:45Z</time>
      </trkpt>
      <trkpt lat="44.32944" lon="5.8591">
        <ele>617</ele>
        <time>2019-03-05T15:07:46Z</time>
      </trkpt>
      <trkpt lat="44.32943" lon="5.85901">
        <ele>617</ele>
        <time>2019-03-05T15:07:47Z</time>
      </trkpt>
      <trkpt lat="44.32944" lon="5.85892">
        <ele>617</ele>
        <time>2019-03-05T15:07:48Z</time>
      </trkpt>
      <trkpt lat="44.32944" lon="5.85884">
        <ele>617</ele>
        <time>2019-03-05T15:07:49Z</time>
      </trkpt>
      <trkpt lat="44.32944" lon="5.85875">
        <ele>617</ele>
        <time>2019-03-05T15:07:50Z</time>
      </trkpt>
      <trkpt lat="44.32944" lon="5.85866">
        <ele>617</ele>
        <time>2019-03-05T15:07:51Z</time>
      </trkpt>
      <trkpt lat="44.32945" lon="5.85857">
        <ele>617</ele>
        <time>2019-03-05T15:07:52Z</time>
      </trkpt>
      <trkpt lat="44.32945" lon="5.85848">
        <ele>617</ele>
        <time>2019-03-05T15:07:53Z</time>
      </trkpt>
      <trkpt lat="44.32945" lon="5.8584">
        <ele>617</ele>
        <time>2019-03-05T15:07:54Z</time>
      </trkpt>
      <trkpt lat="44.32945" lon="5.85831">
        <ele>617</ele>
        <time>2019-03-05T15:07:55Z</time>
      </trkpt>
      <trkpt lat="44.32945" lon="5.85823">
        <ele>617</ele>
        <time>2019-03-05T15:07:56Z</time>
      </trkpt>
      <trkpt lat="44.32946" lon="5.85815">
        <ele>617</ele>
        <time>2019-03-05T15:07:57Z</time>
      </trkpt>
      <trkpt lat="44.32946" lon="5.85806">
        <ele>617</ele>
        <time>2019-03-05T15:07:58Z</time>
      </trkpt>
      <trkpt lat="44.32946" lon="5.85798">
        <ele>617</ele>
        <time>2019-03-05T15:07:59Z</time>
      </trkpt>
      <trkpt lat="44.32946" lon="5.85789">
        <ele>617</ele>
        <time>2019-03-05T15:08:00Z</time>
      </trkpt>
      <trkpt lat="44.32946" lon="5.8578">
        <ele>617</ele>
        <time>2019-03-05T15:08:01Z</time>
      </trkpt>
      <trkpt lat="44.32946" lon="5.85771">
        <ele>617</ele>
        <time>2019-03-05T15:08:02Z</time>
      </trkpt>
      <trkpt lat="44.32946" lon="5.85763">
        <ele>617</ele>
        <time>2019-03-05T15:08:03Z</time>
      </trkpt>
      <trkpt lat="44.32946" lon="5.85754">
        <ele>617</ele>
        <time>2019-03-05T15:08:04Z</time>
      </trkpt>
      <trkpt lat="44.32946" lon="5.85746">
        <ele>617</ele>
        <time>2019-03-05T15:08:05Z</time>
      </trkpt>
      <trkpt lat="44.32946" lon="5.85738">
        <ele>617</ele>
        <time>2019-03-05T15:08:06Z</time>
      </trkpt>
      <trkpt lat="44.32947" lon="5.8573">
        <ele>617</ele>
        <time>2019-03-05T15:08:07Z</time>
      </trkpt>
      <trkpt lat="44.32947" lon="5.85722">
        <ele>617</ele>
        <time>2019-03-05T15:08:08Z</time>
      </trkpt>
      <trkpt lat="44.32947" lon="5.85714">
        <ele>617</ele>
        <time>2019-03-05T15:08:09Z</time>
      </trkpt>
      <trkpt lat="44.32947" lon="5.85706">
        <ele>617</ele>
        <time>2019-03-05T15:08:10Z</time>
      </trkpt>
      <trkpt lat="44.32947" lon="5.85698">
        <ele>617</ele>
        <time>2019-03-05T15:08:11Z</time>
      </trkpt>
      <trkpt lat="44.32948" lon="5.85691">
        <ele>617</ele>
        <time>2019-03-05T15:08:12Z</time>
      </trkpt>
      <trkpt lat="44.32948" lon="5.85683">
        <ele>617</ele>
        <time>2019-03-05T15:08:13Z</time>
      </trkpt>
      <trkpt lat="44.3295" lon="5.85674">
        <ele>617</ele>
        <time>2019-03-05T15:08:14Z</time>
      </trkpt>
      <trkpt lat="44.32951" lon="5.85665">
        <ele>617</ele>
        <time>2019-03-05T15:08:15Z</time>
      </trkpt>
      <trkpt lat="44.32951" lon="5.85656">
        <ele>617</ele>
        <time>2019-03-05T15:08:16Z</time>
      </trkpt>
      <trkpt lat="44.32951" lon="5.85647">
        <ele>617</ele>
        <time>2019-03-05T15:08:17Z</time>
      </trkpt>
      <trkpt lat="44.32951" lon="5.85638">
        <ele>617</ele>
        <time>2019-03-05T15:08:18Z</time>
      </trkpt>
      <trkpt lat="44.32951" lon="5.85628">
        <ele>617</ele>
        <time>2019-03-05T15:08:19Z</time>
      </trkpt>
      <trkpt lat="44.32951" lon="5.85619">
        <ele>617</ele>
        <time>2019-03-05T15:08:20Z</time>
      </trkpt>
      <trkpt lat="44.32951" lon="5.8561">
        <ele>617</ele>
        <time>2019-03-05T15:08:21Z</time>
      </trkpt>
      <trkpt lat="44.32952" lon="5.856">
        <ele>617</ele>
        <time>2019-03-05T15:08:22Z</time>
      </trkpt>
      <trkpt lat="44.32952" lon="5.85591">
        <ele>617</ele>
        <time>2019-03-05T15:08:23Z</time>
      </trkpt>
      <trkpt lat="44.32952" lon="5.85581">
        <ele>617</ele>
        <time>2019-03-05T15:08:24Z</time>
      </trkpt>
      <trkpt lat="44.32952" lon="5.85571">
        <ele>617</ele>
        <time>2019-03-05T15:08:25Z</time>
      </trkpt>
      <trkpt lat="44.32952" lon="5.85562">
        <ele>617</ele>
        <time>2019-03-05T15:08:26Z</time>
      </trkpt>
      <trkpt lat="44.32953" lon="5.85553">
        <ele>617</ele>
        <time>2019-03-05T15:08:27Z</time>
      </trkpt>
      <trkpt lat="44.32953" lon="5.85543">
        <ele>617</ele>
        <time>2019-03-05T15:08:28Z</time>
      </trkpt>
      <trkpt lat="44.32953" lon="5.85534">
        <ele>617</ele>
        <time>2019-03-05T15:08:29Z</time>
      </trkpt>
      <trkpt lat="44.32953" lon="5.85524">
        <ele>617</ele>
        <time>2019-03-05T15:08:30Z</time>
      </trkpt>
      <trkpt lat="44.32953" lon="5.85515">
        <ele>617</ele>
        <time>2019-03-05T15:08:31Z</time>
      </trkpt>
      <trkpt lat="44.32953" lon="5.85506">
        <ele>617</ele>
        <time>2019-03-05T15:08:32Z</time>
      </trkpt>
      <trkpt lat="44.32953" lon="5.85497">
        <ele>617</ele>
        <time>2019-03-05T15:08:33Z</time>
      </trkpt>
      <trkpt lat="44.32953" lon="5.85488">
        <ele>616</ele>
        <time>2019-03-05T15:08:34Z</time>
      </trkpt>
      <trkpt lat="44.32953" lon="5.85479">
        <ele>616</ele>
        <time>2019-03-05T15:08:35Z</time>
      </trkpt>
      <trkpt lat="44.32953" lon="5.85469">
        <ele>616</ele>
        <time>2019-03-05T15:08:36Z</time>
      </trkpt>
      <trkpt lat="44.32953" lon="5.8546">
        <ele>616</ele>
        <time>2019-03-05T15:08:37Z</time>
      </trkpt>
      <trkpt lat="44.32953" lon="5.8545">
        <ele>615</ele>
        <time>2019-03-05T15:08:38Z</time>
      </trkpt>
      <trkpt lat="44.32953" lon="5.8544">
        <ele>615</ele>
        <time>2019-03-05T15:08:39Z</time>
      </trkpt>
      <trkpt lat="44.32953" lon="5.85431">
        <ele>615</ele>
        <time>2019-03-05T15:08:40Z</time>
      </trkpt>
      <trkpt lat="44.32953" lon="5.85421">
        <ele>615</ele>
        <time>2019-03-05T15:08:41Z</time>
      </trkpt>
      <trkpt lat="44.32954" lon="5.85412">
        <ele>614</ele>
        <time>2019-03-05T15:08:42Z</time>
      </trkpt>
      <trkpt lat="44.32954" lon="5.85403">
        <ele>614</ele>
        <time>2019-03-05T15:08:43Z</time>
      </trkpt>
      <trkpt lat="44.32954" lon="5.85393">
        <ele>614</ele>
        <time>2019-03-05T15:08:44Z</time>
      </trkpt>
      <trkpt lat="44.32954" lon="5.85385">
        <ele>614</ele>
        <time>2019-03-05T15:08:45Z</time>
      </trkpt>
      <trkpt lat="44.32954" lon="5.85375">
        <ele>614</ele>
        <time>2019-03-05T15:08:46Z</time>
      </trkpt>
      <trkpt lat="44.32954" lon="5.85366">
        <ele>614</ele>
        <time>2019-03-05T15:08:47Z</time>
      </trkpt>
      <trkpt lat="44.32954" lon="5.85357">
        <ele>614</ele>
        <time>2019-03-05T15:08:48Z</time>
      </trkpt>
      <trkpt lat="44.32954" lon="5.85348">
        <ele>614</ele>
        <time>2019-03-05T15:08:49Z</time>
      </trkpt>
      <trkpt lat="44.32954" lon="5.85339">
        <ele>614</ele>
        <time>2019-03-05T15:08:50Z</time>
      </trkpt>
      <trkpt lat="44.32954" lon="5.8533">
        <ele>614</ele>
        <time>2019-03-05T15:08:51Z</time>
      </trkpt>
      <trkpt lat="44.32954" lon="5.85321">
        <ele>614</ele>
        <time>2019-03-05T15:08:52Z</time>
      </trkpt>
      <trkpt lat="44.32954" lon="5.85312">
        <ele>614</ele>
        <time>2019-03-05T15:08:53Z</time>
      </trkpt>
      <trkpt lat="44.32954" lon="5.85303">
        <ele>613</ele>
        <time>2019-03-05T15:08:54Z</time>
      </trkpt>
      <trkpt lat="44.32954" lon="5.85294">
        <ele>613</ele>
        <time>2019-03-05T15:08:55Z</time>
      </trkpt>
      <trkpt lat="44.32954" lon="5.85285">
        <ele>613</ele>
        <time>2019-03-05T15:08:56Z</time>
      </trkpt>
      <trkpt lat="44.32954" lon="5.85277">
        <ele>613</ele>
        <time>2019-03-05T15:08:57Z</time>
      </trkpt>
      <trkpt lat="44.32954" lon="5.85268">
        <ele>613</ele>
        <time>2019-03-05T15:08:58Z</time>
      </trkpt>
      <trkpt lat="44.32954" lon="5.8526">
        <ele>613</ele>
        <time>2019-03-05T15:08:59Z</time>
      </trkpt>
      <trkpt lat="44.32954" lon="5.85252">
        <ele>613</ele>
        <time>2019-03-05T15:09:00Z</time>
      </trkpt>
      <trkpt lat="44.32955" lon="5.85244">
        <ele>613</ele>
        <time>2019-03-05T15:09:01Z</time>
      </trkpt>
      <trkpt lat="44.32955" lon="5.85236">
        <ele>613</ele>
        <time>2019-03-05T15:09:02Z</time>
      </trkpt>
      <trkpt lat="44.32955" lon="5.85227">
        <ele>612</ele>
        <time>2019-03-05T15:09:03Z</time>
      </trkpt>
      <trkpt lat="44.32954" lon="5.85219">
        <ele>612</ele>
        <time>2019-03-05T15:09:04Z</time>
      </trkpt>
      <trkpt lat="44.32954" lon="5.8521">
        <ele>612</ele>
        <time>2019-03-05T15:09:05Z</time>
      </trkpt>
      <trkpt lat="44.32955" lon="5.85202">
        <ele>612</ele>
        <time>2019-03-05T15:09:06Z</time>
      </trkpt>
      <trkpt lat="44.32955" lon="5.85193">
        <ele>612</ele>
        <time>2019-03-05T15:09:07Z</time>
      </trkpt>
      <trkpt lat="44.32955" lon="5.85184">
        <ele>612</ele>
        <time>2019-03-05T15:09:08Z</time>
      </trkpt>
      <trkpt lat="44.32955" lon="5.85175">
        <ele>611</ele>
        <time>2019-03-05T15:09:09Z</time>
      </trkpt>
      <trkpt lat="44.32955" lon="5.85166">
        <ele>611</ele>
        <time>2019-03-05T15:09:10Z</time>
      </trkpt>
      <trkpt lat="44.32954" lon="5.85157">
        <ele>611</ele>
        <time>2019-03-05T15:09:11Z</time>
      </trkpt>
      <trkpt lat="44.32954" lon="5.85148">
        <ele>611</ele>
        <time>2019-03-05T15:09:12Z</time>
      </trkpt>
      <trkpt lat="44.32952" lon="5.8514">
        <ele>611</ele>
        <time>2019-03-05T15:09:13Z</time>
      </trkpt>
      <trkpt lat="44.32951" lon="5.85132">
        <ele>611</ele>
        <time>2019-03-05T15:09:14Z</time>
      </trkpt>
      <trkpt lat="44.32949" lon="5.85123">
        <ele>611</ele>
        <time>2019-03-05T15:09:15Z</time>
      </trkpt>
      <trkpt lat="44.32946" lon="5.85116">
        <ele>611</ele>
        <time>2019-03-05T15:09:16Z</time>
      </trkpt>
      <trkpt lat="44.32943" lon="5.85108">
        <ele>611</ele>
        <time>2019-03-05T15:09:17Z</time>
      </trkpt>
      <trkpt lat="44.32941" lon="5.85101">
        <ele>611</ele>
        <time>2019-03-05T15:09:18Z</time>
      </trkpt>
      <trkpt lat="44.32937" lon="5.85093">
        <ele>611</ele>
        <time>2019-03-05T15:09:19Z</time>
      </trkpt>
      <trkpt lat="44.32934" lon="5.85087">
        <ele>611</ele>
        <time>2019-03-05T15:09:20Z</time>
      </trkpt>
      <trkpt lat="44.3293" lon="5.8508">
        <ele>611</ele>
        <time>2019-03-05T15:09:21Z</time>
      </trkpt>
      <trkpt lat="44.32926" lon="5.85073">
        <ele>611</ele>
        <time>2019-03-05T15:09:22Z</time>
      </trkpt>
      <trkpt lat="44.32922" lon="5.85067">
        <ele>611</ele>
        <time>2019-03-05T15:09:23Z</time>
      </trkpt>
      <trkpt lat="44.32918" lon="5.8506">
        <ele>611</ele>
        <time>2019-03-05T15:09:24Z</time>
      </trkpt>
      <trkpt lat="44.32914" lon="5.85053">
        <ele>611</ele>
        <time>2019-03-05T15:09:25Z</time>
      </trkpt>
      <trkpt lat="44.32911" lon="5.85046">
        <ele>611</ele>
        <time>2019-03-05T15:09:26Z</time>
      </trkpt>
      <trkpt lat="44.32906" lon="5.85041">
        <ele>611</ele>
        <time>2019-03-05T15:09:27Z</time>
      </trkpt>
      <trkpt lat="44.32901" lon="5.85035">
        <ele>611</ele>
        <time>2019-03-05T15:09:28Z</time>
      </trkpt>
      <trkpt lat="44.32897" lon="5.85029">
        <ele>611</ele>
        <time>2019-03-05T15:09:29Z</time>
      </trkpt>
      <trkpt lat="44.32892" lon="5.85024">
        <ele>611</ele>
        <time>2019-03-05T15:09:30Z</time>
      </trkpt>
      <trkpt lat="44.32886" lon="5.85019">
        <ele>611</ele>
        <time>2019-03-05T15:09:31Z</time>
      </trkpt>
      <trkpt lat="44.3288" lon="5.85016">
        <ele>611</ele>
        <time>2019-03-05T15:09:32Z</time>
      </trkpt>
      <trkpt lat="44.32874" lon="5.85014">
        <ele>611</ele>
        <time>2019-03-05T15:09:33Z</time>
      </trkpt>
      <trkpt lat="44.32868" lon="5.85013">
        <ele>611</ele>
        <time>2019-03-05T15:09:34Z</time>
      </trkpt>
      <trkpt lat="44.32862" lon="5.85012">
        <ele>611</ele>
        <time>2019-03-05T15:09:35Z</time>
      </trkpt>
      <trkpt lat="44.32856" lon="5.85013">
        <ele>611</ele>
        <time>2019-03-05T15:09:36Z</time>
      </trkpt>
      <trkpt lat="44.3285" lon="5.85015">
        <ele>611</ele>
        <time>2019-03-05T15:09:37Z</time>
      </trkpt>
      <trkpt lat="44.32844" lon="5.85018">
        <ele>611</ele>
        <time>2019-03-05T15:09:38Z</time>
      </trkpt>
      <trkpt lat="44.32838" lon="5.85021">
        <ele>611</ele>
        <time>2019-03-05T15:09:39Z</time>
      </trkpt>
      <trkpt lat="44.32832" lon="5.85024">
        <ele>611</ele>
        <time>2019-03-05T15:09:40Z</time>
      </trkpt>
      <trkpt lat="44.32826" lon="5.85027">
        <ele>611</ele>
        <time>2019-03-05T15:09:41Z</time>
      </trkpt>
      <trkpt lat="44.3282" lon="5.85029">
        <ele>611</ele>
        <time>2019-03-05T15:09:42Z</time>
      </trkpt>
      <trkpt lat="44.32814" lon="5.85031">
        <ele>611</ele>
        <time>2019-03-05T15:09:43Z</time>
      </trkpt>
      <trkpt lat="44.32807" lon="5.85033">
        <ele>611</ele>
        <time>2019-03-05T15:09:44Z</time>
      </trkpt>
      <trkpt lat="44.32799" lon="5.85032">
        <ele>611</ele>
        <time>2019-03-05T15:09:45Z</time>
      </trkpt>
      <trkpt lat="44.32791" lon="5.85031">
        <ele>611</ele>
        <time>2019-03-05T15:09:46Z</time>
      </trkpt>
      <trkpt lat="44.32784" lon="5.85028">
        <ele>611</ele>
        <time>2019-03-05T15:09:47Z</time>
      </trkpt>
      <trkpt lat="44.32777" lon="5.85023">
        <ele>610</ele>
        <time>2019-03-05T15:09:48Z</time>
      </trkpt>
      <trkpt lat="44.32771" lon="5.85015">
        <ele>610</ele>
        <time>2019-03-05T15:09:49Z</time>
      </trkpt>
      <trkpt lat="44.32766" lon="5.85006">
        <ele>610</ele>
        <time>2019-03-05T15:09:50Z</time>
      </trkpt>
      <trkpt lat="44.32762" lon="5.84995">
        <ele>609</ele>
        <time>2019-03-05T15:09:51Z</time>
      </trkpt>
      <trkpt lat="44.32759" lon="5.84984">
        <ele>608</ele>
        <time>2019-03-05T15:09:52Z</time>
      </trkpt>
      <trkpt lat="44.32758" lon="5.84972">
        <ele>608</ele>
        <time>2019-03-05T15:09:53Z</time>
      </trkpt>
      <trkpt lat="44.32757" lon="5.8496">
        <ele>607</ele>
        <time>2019-03-05T15:09:54Z</time>
      </trkpt>
      <trkpt lat="44.32756" lon="5.84948">
        <ele>607</ele>
        <time>2019-03-05T15:09:55Z</time>
      </trkpt>
      <trkpt lat="44.32756" lon="5.84937">
        <ele>606</ele>
        <time>2019-03-05T15:09:56Z</time>
      </trkpt>
      <trkpt lat="44.32756" lon="5.84926">
        <ele>606</ele>
        <time>2019-03-05T15:09:57Z</time>
      </trkpt>
      <trkpt lat="44.32756" lon="5.84916">
        <ele>606</ele>
        <time>2019-03-05T15:09:58Z</time>
      </trkpt>
      <trkpt lat="44.32756" lon="5.84905">
        <ele>606</ele>
        <time>2019-03-05T15:09:59Z</time>
      </trkpt>
      <trkpt lat="44.32756" lon="5.84895">
        <ele>606</ele>
        <time>2019-03-05T15:10:00Z</time>
      </trkpt>
      <trkpt lat="44.32756" lon="5.84883">
        <ele>605</ele>
        <time>2019-03-05T15:10:01Z</time>
      </trkpt>
      <trkpt lat="44.32756" lon="5.84873">
        <ele>605</ele>
        <time>2019-03-05T15:10:02Z</time>
      </trkpt>
      <trkpt lat="44.32756" lon="5.84862">
        <ele>605</ele>
        <time>2019-03-05T15:10:03Z</time>
      </trkpt>
      <trkpt lat="44.32756" lon="5.84852">
        <ele>605</ele>
        <time>2019-03-05T15:10:04Z</time>
      </trkpt>
      <trkpt lat="44.32756" lon="5.84841">
        <ele>605</ele>
        <time>2019-03-05T15:10:05Z</time>
      </trkpt>
      <trkpt lat="44.32756" lon="5.8483">
        <ele>605</ele>
        <time>2019-03-05T15:10:06Z</time>
      </trkpt>
      <trkpt lat="44.32756" lon="5.84819">
        <ele>605</ele>
        <time>2019-03-05T15:10:07Z</time>
      </trkpt>
      <trkpt lat="44.32755" lon="5.84809">
        <ele>605</ele>
        <time>2019-03-05T15:10:08Z</time>
      </trkpt>
      <trkpt lat="44.32755" lon="5.84799">
        <ele>605</ele>
        <time>2019-03-05T15:10:09Z</time>
      </trkpt>
      <trkpt lat="44.32754" lon="5.84789">
        <ele>605</ele>
        <time>2019-03-05T15:10:10Z</time>
      </trkpt>
      <trkpt lat="44.32754" lon="5.84779">
        <ele>604</ele>
        <time>2019-03-05T15:10:11Z</time>
      </trkpt>
      <trkpt lat="44.32754" lon="5.8477">
        <ele>604</ele>
        <time>2019-03-05T15:10:12Z</time>
      </trkpt>
      <trkpt lat="44.32754" lon="5.84761">
        <ele>604</ele>
        <time>2019-03-05T15:10:13Z</time>
      </trkpt>
      <trkpt lat="44.32754" lon="5.84752">
        <ele>603</ele>
        <time>2019-03-05T15:10:14Z</time>
      </trkpt>
      <trkpt lat="44.32754" lon="5.84744">
        <ele>603</ele>
        <time>2019-03-05T15:10:15Z</time>
      </trkpt>
      <trkpt lat="44.32754" lon="5.84736">
        <ele>603</ele>
        <time>2019-03-05T15:10:16Z</time>
      </trkpt>
      <trkpt lat="44.32754" lon="5.84728">
        <ele>602</ele>
        <time>2019-03-05T15:10:17Z</time>
      </trkpt>
      <trkpt lat="44.32754" lon="5.8472">
        <ele>602</ele>
        <time>2019-03-05T15:10:18Z</time>
      </trkpt>
      <trkpt lat="44.32754" lon="5.84711">
        <ele>602</ele>
        <time>2019-03-05T15:10:19Z</time>
      </trkpt>
      <trkpt lat="44.32754" lon="5.84701">
        <ele>602</ele>
        <time>2019-03-05T15:10:20Z</time>
      </trkpt>
      <trkpt lat="44.32754" lon="5.84693">
        <ele>602</ele>
        <time>2019-03-05T15:10:21Z</time>
      </trkpt>
      <trkpt lat="44.32754" lon="5.84684">
        <ele>602</ele>
        <time>2019-03-05T15:10:22Z</time>
      </trkpt>
      <trkpt lat="44.32756" lon="5.84674">
        <ele>602</ele>
        <time>2019-03-05T15:10:23Z</time>
      </trkpt>
      <trkpt lat="44.32757" lon="5.84665">
        <ele>602</ele>
        <time>2019-03-05T15:10:24Z</time>
      </trkpt>
      <trkpt lat="44.32759" lon="5.84655">
        <ele>602</ele>
        <time>2019-03-05T15:10:25Z</time>
      </trkpt>
      <trkpt lat="44.32761" lon="5.84646">
        <ele>602</ele>
        <time>2019-03-05T15:10:26Z</time>
      </trkpt>
      <trkpt lat="44.32764" lon="5.84637">
        <ele>602</ele>
        <time>2019-03-05T15:10:27Z</time>
      </trkpt>
      <trkpt lat="44.32766" lon="5.84627">
        <ele>602</ele>
        <time>2019-03-05T15:10:28Z</time>
      </trkpt>
      <trkpt lat="44.32768" lon="5.84618">
        <ele>602</ele>
        <time>2019-03-05T15:10:29Z</time>
      </trkpt>
      <trkpt lat="44.3277" lon="5.84608">
        <ele>602</ele>
        <time>2019-03-05T15:10:30Z</time>
      </trkpt>
      <trkpt lat="44.32772" lon="5.84598">
        <ele>602</ele>
        <time>2019-03-05T15:10:31Z</time>
      </trkpt>
      <trkpt lat="44.32774" lon="5.84589">
        <ele>602</ele>
        <time>2019-03-05T15:10:32Z</time>
      </trkpt>
      <trkpt lat="44.32777" lon="5.8458">
        <ele>602</ele>
        <time>2019-03-05T15:10:33Z</time>
      </trkpt>
      <trkpt lat="44.32779" lon="5.84571">
        <ele>602</ele>
        <time>2019-03-05T15:10:34Z</time>
      </trkpt>
      <trkpt lat="44.32782" lon="5.84562">
        <ele>602</ele>
        <time>2019-03-05T15:10:35Z</time>
      </trkpt>
      <trkpt lat="44.32784" lon="5.84554">
        <ele>602</ele>
        <time>2019-03-05T15:10:36Z</time>
      </trkpt>
      <trkpt lat="44.32787" lon="5.84545">
        <ele>602</ele>
        <time>2019-03-05T15:10:37Z</time>
      </trkpt>
      <trkpt lat="44.32789" lon="5.84536">
        <ele>602</ele>
        <time>2019-03-05T15:10:38Z</time>
      </trkpt>
      <trkpt lat="44.32791" lon="5.84527">
        <ele>602</ele>
        <time>2019-03-05T15:10:39Z</time>
      </trkpt>
      <trkpt lat="44.32793" lon="5.84518">
        <ele>602</ele>
        <time>2019-03-05T15:10:40Z</time>
      </trkpt>
      <trkpt lat="44.32796" lon="5.84509">
        <ele>602</ele>
        <time>2019-03-05T15:10:41Z</time>
      </trkpt>
      <trkpt lat="44.32798" lon="5.845">
        <ele>602</ele>
        <time>2019-03-05T15:10:42Z</time>
      </trkpt>
      <trkpt lat="44.32801" lon="5.84491">
        <ele>602</ele>
        <time>2019-03-05T15:10:43Z</time>
      </trkpt>
      <trkpt lat="44.32803" lon="5.84481">
        <ele>602</ele>
        <time>2019-03-05T15:10:44Z</time>
      </trkpt>
      <trkpt lat="44.32805" lon="5.84472">
        <ele>602</ele>
        <time>2019-03-05T15:10:45Z</time>
      </trkpt>
      <trkpt lat="44.32806" lon="5.84462">
        <ele>602</ele>
        <time>2019-03-05T15:10:46Z</time>
      </trkpt>
      <trkpt lat="44.32807" lon="5.84452">
        <ele>602</ele>
        <time>2019-03-05T15:10:47Z</time>
      </trkpt>
      <trkpt lat="44.32807" lon="5.84441">
        <ele>602</ele>
        <time>2019-03-05T15:10:48Z</time>
      </trkpt>
      <trkpt lat="44.32807" lon="5.84431">
        <ele>602</ele>
        <time>2019-03-05T15:10:49Z</time>
      </trkpt>
      <trkpt lat="44.32806" lon="5.8442">
        <ele>601</ele>
        <time>2019-03-05T15:10:50Z</time>
      </trkpt>
      <trkpt lat="44.32804" lon="5.8441">
        <ele>601</ele>
        <time>2019-03-05T15:10:51Z</time>
      </trkpt>
      <trkpt lat="44.32802" lon="5.844">
        <ele>600</ele>
        <time>2019-03-05T15:10:52Z</time>
      </trkpt>
      <trkpt lat="44.32801" lon="5.8439">
        <ele>600</ele>
        <time>2019-03-05T15:10:53Z</time>
      </trkpt>
      <trkpt lat="44.32799" lon="5.84379">
        <ele>599</ele>
        <time>2019-03-05T15:10:54Z</time>
      </trkpt>
      <trkpt lat="44.32798" lon="5.84368">
        <ele>599</ele>
        <time>2019-03-05T15:10:55Z</time>
      </trkpt>
      <trkpt lat="44.32797" lon="5.84357">
        <ele>598</ele>
        <time>2019-03-05T15:10:56Z</time>
      </trkpt>
      <trkpt lat="44.32795" lon="5.84345">
        <ele>597</ele>
        <time>2019-03-05T15:10:57Z</time>
      </trkpt>
      <trkpt lat="44.32794" lon="5.84334">
        <ele>597</ele>
        <time>2019-03-05T15:10:58Z</time>
      </trkpt>
      <trkpt lat="44.32792" lon="5.84322">
        <ele>596</ele>
        <time>2019-03-05T15:10:59Z</time>
      </trkpt>
      <trkpt lat="44.32791" lon="5.84311">
        <ele>595</ele>
        <time>2019-03-05T15:11:00Z</time>
      </trkpt>
      <trkpt lat="44.32789" lon="5.84299">
        <ele>595</ele>
        <time>2019-03-05T15:11:01Z</time>
      </trkpt>
      <trkpt lat="44.32788" lon="5.84288">
        <ele>594</ele>
        <time>2019-03-05T15:11:02Z</time>
      </trkpt>
      <trkpt lat="44.32786" lon="5.84276">
        <ele>593</ele>
        <time>2019-03-05T15:11:03Z</time>
      </trkpt>
      <trkpt lat="44.32785" lon="5.84265">
        <ele>593</ele>
        <time>2019-03-05T15:11:04Z</time>
      </trkpt>
      <trkpt lat="44.32783" lon="5.84254">
        <ele>592</ele>
        <time>2019-03-05T15:11:05Z</time>
      </trkpt>
      <trkpt lat="44.32782" lon="5.84242">
        <ele>592</ele>
        <time>2019-03-05T15:11:06Z</time>
      </trkpt>
      <trkpt lat="44.3278" lon="5.8423">
        <ele>591</ele>
        <time>2019-03-05T15:11:07Z</time>
      </trkpt>
      <trkpt lat="44.32779" lon="5.84219">
        <ele>591</ele>
        <time>2019-03-05T15:11:08Z</time>
      </trkpt>
      <trkpt lat="44.32777" lon="5.84207">
        <ele>590</ele>
        <time>2019-03-05T15:11:09Z</time>
      </trkpt>
      <trkpt lat="44.32776" lon="5.84195">
        <ele>590</ele>
        <time>2019-03-05T15:11:10Z</time>
      </trkpt>
      <trkpt lat="44.32774" lon="5.84183">
        <ele>589</ele>
        <time>2019-03-05T15:11:11Z</time>
      </trkpt>
      <trkpt lat="44.32773" lon="5.84171">
        <ele>589</ele>
        <time>2019-03-05T15:11:12Z</time>
      </trkpt>
      <trkpt lat="44.32771" lon="5.8416">
        <ele>588</ele>
        <time>2019-03-05T15:11:13Z</time>
      </trkpt>
      <trkpt lat="44.3277" lon="5.84148">
        <ele>588</ele>
        <time>2019-03-05T15:11:14Z</time>
      </trkpt>
      <trkpt lat="44.32769" lon="5.84137">
        <ele>588</ele>
        <time>2019-03-05T15:11:15Z</time>
      </trkpt>
      <trkpt lat="44.32767" lon="5.84126">
        <ele>587</ele>
        <time>2019-03-05T15:11:16Z</time>
      </trkpt>
      <trkpt lat="44.32766" lon="5.84116">
        <ele>587</ele>
        <time>2019-03-05T15:11:17Z</time>
      </trkpt>
      <trkpt lat="44.32765" lon="5.84105">
        <ele>587</ele>
        <time>2019-03-05T15:11:18Z</time>
      </trkpt>
      <trkpt lat="44.32763" lon="5.84095">
        <ele>587</ele>
        <time>2019-03-05T15:11:19Z</time>
      </trkpt>
      <trkpt lat="44.32761" lon="5.84086">
        <ele>587</ele>
        <time>2019-03-05T15:11:20Z</time>
      </trkpt>
      <trkpt lat="44.32759" lon="5.84076">
        <ele>587</ele>
        <time>2019-03-05T15:11:21Z</time>
      </trkpt>
      <trkpt lat="44.32756" lon="5.84067">
        <ele>587</ele>
        <time>2019-03-05T15:11:22Z</time>
      </trkpt>
      <trkpt lat="44.32752" lon="5.84058">
        <ele>587</ele>
        <time>2019-03-05T15:11:23Z</time>
      </trkpt>
      <trkpt lat="44.32748" lon="5.84049">
        <ele>587</ele>
        <time>2019-03-05T15:11:24Z</time>
      </trkpt>
      <trkpt lat="44.32742" lon="5.84041">
        <ele>587</ele>
        <time>2019-03-05T15:11:25Z</time>
      </trkpt>
      <trkpt lat="44.32737" lon="5.84034">
        <ele>587</ele>
        <time>2019-03-05T15:11:26Z</time>
      </trkpt>
      <trkpt lat="44.32732" lon="5.84026">
        <ele>587</ele>
        <time>2019-03-05T15:11:27Z</time>
      </trkpt>
      <trkpt lat="44.32727" lon="5.84019">
        <ele>587</ele>
        <time>2019-03-05T15:11:28Z</time>
      </trkpt>
      <trkpt lat="44.32722" lon="5.84011">
        <ele>587</ele>
        <time>2019-03-05T15:11:29Z</time>
      </trkpt>
      <trkpt lat="44.32717" lon="5.84003">
        <ele>587</ele>
        <time>2019-03-05T15:11:30Z</time>
      </trkpt>
      <trkpt lat="44.32713" lon="5.83994">
        <ele>587</ele>
        <time>2019-03-05T15:11:31Z</time>
      </trkpt>
      <trkpt lat="44.3271" lon="5.83985">
        <ele>587</ele>
        <time>2019-03-05T15:11:32Z</time>
      </trkpt>
      <trkpt lat="44.32706" lon="5.83974">
        <ele>587</ele>
        <time>2019-03-05T15:11:33Z</time>
      </trkpt>
      <trkpt lat="44.32703" lon="5.83964">
        <ele>587</ele>
        <time>2019-03-05T15:11:34Z</time>
      </trkpt>
      <trkpt lat="44.32701" lon="5.83953">
        <ele>587</ele>
        <time>2019-03-05T15:11:35Z</time>
      </trkpt>
      <trkpt lat="44.327" lon="5.83942">
        <ele>587</ele>
        <time>2019-03-05T15:11:36Z</time>
      </trkpt>
      <trkpt lat="44.32698" lon="5.83932">
        <ele>587</ele>
        <time>2019-03-05T15:11:37Z</time>
      </trkpt>
      <trkpt lat="44.32698" lon="5.83921">
        <ele>587</ele>
        <time>2019-03-05T15:11:38Z</time>
      </trkpt>
      <trkpt lat="44.32697" lon="5.83911">
        <ele>587</ele>
        <time>2019-03-05T15:11:39Z</time>
      </trkpt>
      <trkpt lat="44.32696" lon="5.839">
        <ele>587</ele>
        <time>2019-03-05T15:11:40Z</time>
      </trkpt>
      <trkpt lat="44.32696" lon="5.8389">
        <ele>587</ele>
        <time>2019-03-05T15:11:41Z</time>
      </trkpt>
      <trkpt lat="44.32695" lon="5.8388">
        <ele>587</ele>
        <time>2019-03-05T15:11:42Z</time>
      </trkpt>
      <trkpt lat="44.32695" lon="5.8387">
        <ele>587</ele>
        <time>2019-03-05T15:11:43Z</time>
      </trkpt>
      <trkpt lat="44.32693" lon="5.83861">
        <ele>587</ele>
        <time>2019-03-05T15:11:44Z</time>
      </trkpt>
      <trkpt lat="44.32691" lon="5.83851">
        <ele>587</ele>
        <time>2019-03-05T15:11:45Z</time>
      </trkpt>
      <trkpt lat="44.32689" lon="5.83841">
        <ele>587</ele>
        <time>2019-03-05T15:11:46Z</time>
      </trkpt>
      <trkpt lat="44.32686" lon="5.83831">
        <ele>587</ele>
        <time>2019-03-05T15:11:47Z</time>
      </trkpt>
      <trkpt lat="44.32684" lon="5.83821">
        <ele>587</ele>
        <time>2019-03-05T15:11:48Z</time>
      </trkpt>
      <trkpt lat="44.32681" lon="5.83811">
        <ele>587</ele>
        <time>2019-03-05T15:11:49Z</time>
      </trkpt>
      <trkpt lat="44.32679" lon="5.83801">
        <ele>587</ele>
        <time>2019-03-05T15:11:50Z</time>
      </trkpt>
      <trkpt lat="44.32676" lon="5.83791">
        <ele>587</ele>
        <time>2019-03-05T15:11:51Z</time>
      </trkpt>
      <trkpt lat="44.32674" lon="5.83782">
        <ele>587</ele>
        <time>2019-03-05T15:11:52Z</time>
      </trkpt>
      <trkpt lat="44.32672" lon="5.83772">
        <ele>587</ele>
        <time>2019-03-05T15:11:53Z</time>
      </trkpt>
      <trkpt lat="44.32669" lon="5.83762">
        <ele>587</ele>
        <time>2019-03-05T15:11:54Z</time>
      </trkpt>
      <trkpt lat="44.32667" lon="5.83752">
        <ele>587</ele>
        <time>2019-03-05T15:11:55Z</time>
      </trkpt>
      <trkpt lat="44.32664" lon="5.83743">
        <ele>587</ele>
        <time>2019-03-05T15:11:56Z</time>
      </trkpt>
      <trkpt lat="44.32662" lon="5.83734">
        <ele>587</ele>
        <time>2019-03-05T15:11:57Z</time>
      </trkpt>
      <trkpt lat="44.3266" lon="5.83724">
        <ele>587</ele>
        <time>2019-03-05T15:11:58Z</time>
      </trkpt>
      <trkpt lat="44.32657" lon="5.83716">
        <ele>587</ele>
        <time>2019-03-05T15:11:59Z</time>
      </trkpt>
      <trkpt lat="44.32655" lon="5.83707">
        <ele>587</ele>
        <time>2019-03-05T15:12:00Z</time>
      </trkpt>
      <trkpt lat="44.32653" lon="5.83698">
        <ele>587</ele>
        <time>2019-03-05T15:12:01Z</time>
      </trkpt>
      <trkpt lat="44.32651" lon="5.83689">
        <ele>587</ele>
        <time>2019-03-05T15:12:02Z</time>
      </trkpt>
      <trkpt lat="44.32649" lon="5.8368">
        <ele>587</ele>
        <time>2019-03-05T15:12:03Z</time>
      </trkpt>
      <trkpt lat="44.32646" lon="5.83671">
        <ele>587</ele>
        <time>2019-03-05T15:12:04Z</time>
      </trkpt>
      <trkpt lat="44.32644" lon="5.83662">
        <ele>587</ele>
        <time>2019-03-05T15:12:05Z</time>
      </trkpt>
      <trkpt lat="44.32642" lon="5.83653">
        <ele>587</ele>
        <time>2019-03-05T15:12:06Z</time>
      </trkpt>
      <trkpt lat="44.3264" lon="5.83644">
        <ele>587</ele>
        <time>2019-03-05T15:12:07Z</time>
      </trkpt>
      <trkpt lat="44.32637" lon="5.83636">
        <ele>587</ele>
        <time>2019-03-05T15:12:08Z</time>
      </trkpt>
      <trkpt lat="44.32635" lon="5.83627">
        <ele>587</ele>
        <time>2019-03-05T15:12:09Z</time>
      </trkpt>
      <trkpt lat="44.32633" lon="5.83618">
        <ele>587</ele>
        <time>2019-03-05T15:12:10Z</time>
      </trkpt>
      <trkpt lat="44.32632" lon="5.83609">
        <ele>587</ele>
        <time>2019-03-05T15:12:11Z</time>
      </trkpt>
      <trkpt lat="44.3263" lon="5.836">
        <ele>587</ele>
        <time>2019-03-05T15:12:12Z</time>
      </trkpt>
      <trkpt lat="44.32629" lon="5.83592">
        <ele>587</ele>
        <time>2019-03-05T15:12:13Z</time>
      </trkpt>
      <trkpt lat="44.32628" lon="5.83583">
        <ele>587</ele>
        <time>2019-03-05T15:12:14Z</time>
      </trkpt>
      <trkpt lat="44.32628" lon="5.83574">
        <ele>587</ele>
        <time>2019-03-05T15:12:15Z</time>
      </trkpt>
      <trkpt lat="44.32628" lon="5.83566">
        <ele>587</ele>
        <time>2019-03-05T15:12:16Z</time>
      </trkpt>
      <trkpt lat="44.32628" lon="5.83557">
        <ele>587</ele>
        <time>2019-03-05T15:12:17Z</time>
      </trkpt>
      <trkpt lat="44.32628" lon="5.83549">
        <ele>587</ele>
        <time>2019-03-05T15:12:18Z</time>
      </trkpt>
      <trkpt lat="44.32629" lon="5.8354">
        <ele>587</ele>
        <time>2019-03-05T15:12:19Z</time>
      </trkpt>
      <trkpt lat="44.32629" lon="5.83532">
        <ele>587</ele>
        <time>2019-03-05T15:12:20Z</time>
      </trkpt>
      <trkpt lat="44.3263" lon="5.83524">
        <ele>587</ele>
        <time>2019-03-05T15:12:21Z</time>
      </trkpt>
      <trkpt lat="44.32631" lon="5.83517">
        <ele>587</ele>
        <time>2019-03-05T15:12:22Z</time>
      </trkpt>
      <trkpt lat="44.32632" lon="5.83509">
        <ele>587</ele>
        <time>2019-03-05T15:12:23Z</time>
      </trkpt>
      <trkpt lat="44.32632" lon="5.83502">
        <ele>587</ele>
        <time>2019-03-05T15:12:24Z</time>
      </trkpt>
      <trkpt lat="44.32633" lon="5.83495">
        <ele>587</ele>
        <time>2019-03-05T15:12:25Z</time>
      </trkpt>
      <trkpt lat="44.32634" lon="5.83488">
        <ele>587</ele>
        <time>2019-03-05T15:12:26Z</time>
      </trkpt>
      <trkpt lat="44.32634" lon="5.83481">
        <ele>587</ele>
        <time>2019-03-05T15:12:27Z</time>
      </trkpt>
      <trkpt lat="44.32635" lon="5.83474">
        <ele>587</ele>
        <time>2019-03-05T15:12:28Z</time>
      </trkpt>
      <trkpt lat="44.32636" lon="5.83467">
        <ele>587</ele>
        <time>2019-03-05T15:12:29Z</time>
      </trkpt>
      <trkpt lat="44.32637" lon="5.83461">
        <ele>587</ele>
        <time>2019-03-05T15:12:30Z</time>
      </trkpt>
      <trkpt lat="44.32638" lon="5.83454">
        <ele>587</ele>
        <time>2019-03-05T15:12:31Z</time>
      </trkpt>
      <trkpt lat="44.32639" lon="5.83448">
        <ele>587</ele>
        <time>2019-03-05T15:12:32Z</time>
      </trkpt>
      <trkpt lat="44.3264" lon="5.83441">
        <ele>587</ele>
        <time>2019-03-05T15:12:33Z</time>
      </trkpt>
      <trkpt lat="44.32641" lon="5.83435">
        <ele>587</ele>
        <time>2019-03-05T15:12:34Z</time>
      </trkpt>
      <trkpt lat="44.32642" lon="5.83429">
        <ele>587</ele>
        <time>2019-03-05T15:12:35Z</time>
      </trkpt>
      <trkpt lat="44.32642" lon="5.83423">
        <ele>587</ele>
        <time>2019-03-05T15:12:36Z</time>
      </trkpt>
      <trkpt lat="44.32643" lon="5.83416">
        <ele>587</ele>
        <time>2019-03-05T15:12:37Z</time>
      </trkpt>
      <trkpt lat="44.32645" lon="5.83409">
        <ele>587</ele>
        <time>2019-03-05T15:12:38Z</time>
      </trkpt>
      <trkpt lat="44.32645" lon="5.83403">
        <ele>587</ele>
        <time>2019-03-05T15:12:39Z</time>
      </trkpt>
      <trkpt lat="44.32646" lon="5.83396">
        <ele>587</ele>
        <time>2019-03-05T15:12:40Z</time>
      </trkpt>
      <trkpt lat="44.32647" lon="5.8339">
        <ele>587</ele>
        <time>2019-03-05T15:12:41Z</time>
      </trkpt>
      <trkpt lat="44.32648" lon="5.83383">
        <ele>587</ele>
        <time>2019-03-05T15:12:42Z</time>
      </trkpt>
      <trkpt lat="44.32649" lon="5.83377">
        <ele>587</ele>
        <time>2019-03-05T15:12:43Z</time>
      </trkpt>
      <trkpt lat="44.3265" lon="5.8337">
        <ele>587</ele>
        <time>2019-03-05T15:12:44Z</time>
      </trkpt>
      <trkpt lat="44.3265" lon="5.83364">
        <ele>587</ele>
        <time>2019-03-05T15:12:45Z</time>
      </trkpt>
      <trkpt lat="44.32651" lon="5.83359">
        <ele>587</ele>
        <time>2019-03-05T15:12:46Z</time>
      </trkpt>
      <trkpt lat="44.32652" lon="5.83353">
        <ele>587</ele>
        <time>2019-03-05T15:12:47Z</time>
      </trkpt>
      <trkpt lat="44.32652" lon="5.83347">
        <ele>587</ele>
        <time>2019-03-05T15:12:48Z</time>
      </trkpt>
      <trkpt lat="44.32653" lon="5.83341">
        <ele>587</ele>
        <time>2019-03-05T15:12:49Z</time>
      </trkpt>
      <trkpt lat="44.32654" lon="5.83335">
        <ele>586</ele>
        <time>2019-03-05T15:12:50Z</time>
      </trkpt>
      <trkpt lat="44.32655" lon="5.83329">
        <ele>586</ele>
        <time>2019-03-05T15:12:51Z</time>
      </trkpt>
      <trkpt lat="44.32655" lon="5.83323">
        <ele>586</ele>
        <time>2019-03-05T15:12:52Z</time>
      </trkpt>
      <trkpt lat="44.32656" lon="5.83316">
        <ele>586</ele>
        <time>2019-03-05T15:12:53Z</time>
      </trkpt>
      <trkpt lat="44.32657" lon="5.8331">
        <ele>586</ele>
        <time>2019-03-05T15:12:54Z</time>
      </trkpt>
      <trkpt lat="44.32658" lon="5.83304">
        <ele>585</ele>
        <time>2019-03-05T15:12:55Z</time>
      </trkpt>
      <trkpt lat="44.32658" lon="5.83298">
        <ele>585</ele>
        <time>2019-03-05T15:12:56Z</time>
      </trkpt>
      <trkpt lat="44.32659" lon="5.83294">
        <ele>584</ele>
        <time>2019-03-05T15:12:57Z</time>
      </trkpt>
      <trkpt lat="44.3266" lon="5.8329">
        <ele>584</ele>
        <time>2019-03-05T15:12:58Z</time>
      </trkpt>
      <trkpt lat="44.3266" lon="5.83287">
        <ele>583</ele>
        <time>2019-03-05T15:12:59Z</time>
      </trkpt>
      <trkpt lat="44.3266" lon="5.83286">
        <ele>583</ele>
        <time>2019-03-05T15:13:00Z</time>
      </trkpt>
      <trkpt lat="44.32661" lon="5.83285">
        <ele>583</ele>
        <time>2019-03-05T15:13:02Z</time>
      </trkpt>
      <trkpt lat="44.3266" lon="5.83283">
        <ele>583</ele>
        <time>2019-03-05T15:13:04Z</time>
      </trkpt>
      <trkpt lat="44.3266" lon="5.83281">
        <ele>582</ele>
        <time>2019-03-05T15:13:05Z</time>
      </trkpt>
      <trkpt lat="44.3266" lon="5.8328">
        <ele>582</ele>
        <time>2019-03-05T15:13:06Z</time>
      </trkpt>
      <trkpt lat="44.32659" lon="5.83278">
        <ele>582</ele>
        <time>2019-03-05T15:13:07Z</time>
      </trkpt>
      <trkpt lat="44.32658" lon="5.83277">
        <ele>582</ele>
        <time>2019-03-05T15:13:08Z</time>
      </trkpt>
      <trkpt lat="44.32657" lon="5.83275">
        <ele>582</ele>
        <time>2019-03-05T15:13:09Z</time>
      </trkpt>
      <trkpt lat="44.32655" lon="5.83273">
        <ele>582</ele>
        <time>2019-03-05T15:13:10Z</time>
      </trkpt>
      <trkpt lat="44.32653" lon="5.8327">
        <ele>581</ele>
        <time>2019-03-05T15:13:11Z</time>
      </trkpt>
      <trkpt lat="44.32651" lon="5.83268">
        <ele>581</ele>
        <time>2019-03-05T15:13:12Z</time>
      </trkpt>
      <trkpt lat="44.32648" lon="5.83266">
        <ele>580</ele>
        <time>2019-03-05T15:13:13Z</time>
      </trkpt>
      <trkpt lat="44.32645" lon="5.83264">
        <ele>580</ele>
        <time>2019-03-05T15:13:14Z</time>
      </trkpt>
      <trkpt lat="44.32641" lon="5.83261">
        <ele>579</ele>
        <time>2019-03-05T15:13:15Z</time>
      </trkpt>
      <trkpt lat="44.32637" lon="5.83258">
        <ele>579</ele>
        <time>2019-03-05T15:13:16Z</time>
      </trkpt>
      <trkpt lat="44.32632" lon="5.83255">
        <ele>579</ele>
        <time>2019-03-05T15:13:17Z</time>
      </trkpt>
      <trkpt lat="44.32628" lon="5.83252">
        <ele>579</ele>
        <time>2019-03-05T15:13:18Z</time>
      </trkpt>
      <trkpt lat="44.32623" lon="5.83249">
        <ele>578</ele>
        <time>2019-03-05T15:13:19Z</time>
      </trkpt>
      <trkpt lat="44.32619" lon="5.83245">
        <ele>578</ele>
        <time>2019-03-05T15:13:20Z</time>
      </trkpt>
      <trkpt lat="44.32614" lon="5.83242">
        <ele>578</ele>
        <time>2019-03-05T15:13:21Z</time>
      </trkpt>
      <trkpt lat="44.32609" lon="5.83239">
        <ele>578</ele>
        <time>2019-03-05T15:13:22Z</time>
      </trkpt>
      <trkpt lat="44.32604" lon="5.83236">
        <ele>578</ele>
        <time>2019-03-05T15:13:23Z</time>
      </trkpt>
      <trkpt lat="44.32599" lon="5.83232">
        <ele>578</ele>
        <time>2019-03-05T15:13:24Z</time>
      </trkpt>
      <trkpt lat="44.32593" lon="5.83229">
        <ele>578</ele>
        <time>2019-03-05T15:13:25Z</time>
      </trkpt>
      <trkpt lat="44.32588" lon="5.83226">
        <ele>578</ele>
        <time>2019-03-05T15:13:26Z</time>
      </trkpt>
      <trkpt lat="44.32582" lon="5.83224">
        <ele>578</ele>
        <time>2019-03-05T15:13:27Z</time>
      </trkpt>
      <trkpt lat="44.32577" lon="5.83221">
        <ele>578</ele>
        <time>2019-03-05T15:13:28Z</time>
      </trkpt>
      <trkpt lat="44.32571" lon="5.83218">
        <ele>578</ele>
        <time>2019-03-05T15:13:29Z</time>
      </trkpt>
      <trkpt lat="44.32565" lon="5.83215">
        <ele>578</ele>
        <time>2019-03-05T15:13:30Z</time>
      </trkpt>
      <trkpt lat="44.32559" lon="5.83212">
        <ele>578</ele>
        <time>2019-03-05T15:13:31Z</time>
      </trkpt>
      <trkpt lat="44.32553" lon="5.83209">
        <ele>578</ele>
        <time>2019-03-05T15:13:32Z</time>
      </trkpt>
      <trkpt lat="44.32548" lon="5.83206">
        <ele>578</ele>
        <time>2019-03-05T15:13:33Z</time>
      </trkpt>
      <trkpt lat="44.32542" lon="5.83204">
        <ele>578</ele>
        <time>2019-03-05T15:13:34Z</time>
      </trkpt>
      <trkpt lat="44.32536" lon="5.83201">
        <ele>578</ele>
        <time>2019-03-05T15:13:35Z</time>
      </trkpt>
      <trkpt lat="44.32531" lon="5.83198">
        <ele>578</ele>
        <time>2019-03-05T15:13:36Z</time>
      </trkpt>
      <trkpt lat="44.32526" lon="5.83196">
        <ele>578</ele>
        <time>2019-03-05T15:13:37Z</time>
      </trkpt>
      <trkpt lat="44.3252" lon="5.83193">
        <ele>578</ele>
        <time>2019-03-05T15:13:38Z</time>
      </trkpt>
      <trkpt lat="44.32515" lon="5.83191">
        <ele>578</ele>
        <time>2019-03-05T15:13:39Z</time>
      </trkpt>
      <trkpt lat="44.3251" lon="5.83188">
        <ele>578</ele>
        <time>2019-03-05T15:13:40Z</time>
      </trkpt>
      <trkpt lat="44.32504" lon="5.83185">
        <ele>578</ele>
        <time>2019-03-05T15:13:41Z</time>
      </trkpt>
      <trkpt lat="44.32499" lon="5.83182">
        <ele>578</ele>
        <time>2019-03-05T15:13:42Z</time>
      </trkpt>
      <trkpt lat="44.32494" lon="5.8318">
        <ele>578</ele>
        <time>2019-03-05T15:13:43Z</time>
      </trkpt>
      <trkpt lat="44.32489" lon="5.83176">
        <ele>578</ele>
        <time>2019-03-05T15:13:44Z</time>
      </trkpt>
      <trkpt lat="44.32484" lon="5.83174">
        <ele>578</ele>
        <time>2019-03-05T15:13:45Z</time>
      </trkpt>
      <trkpt lat="44.32479" lon="5.8317">
        <ele>578</ele>
        <time>2019-03-05T15:13:46Z</time>
      </trkpt>
      <trkpt lat="44.32475" lon="5.83167">
        <ele>578</ele>
        <time>2019-03-05T15:13:47Z</time>
      </trkpt>
      <trkpt lat="44.3247" lon="5.83164">
        <ele>578</ele>
        <time>2019-03-05T15:13:48Z</time>
      </trkpt>
      <trkpt lat="44.32466" lon="5.8316">
        <ele>578</ele>
        <time>2019-03-05T15:13:49Z</time>
      </trkpt>
      <trkpt lat="44.32461" lon="5.83157">
        <ele>578</ele>
        <time>2019-03-05T15:13:50Z</time>
      </trkpt>
      <trkpt lat="44.32457" lon="5.83154">
        <ele>578</ele>
        <time>2019-03-05T15:13:51Z</time>
      </trkpt>
      <trkpt lat="44.32452" lon="5.83151">
        <ele>578</ele>
        <time>2019-03-05T15:13:52Z</time>
      </trkpt>
      <trkpt lat="44.32448" lon="5.83147">
        <ele>578</ele>
        <time>2019-03-05T15:13:53Z</time>
      </trkpt>
      <trkpt lat="44.32443" lon="5.83143">
        <ele>578</ele>
        <time>2019-03-05T15:13:54Z</time>
      </trkpt>
      <trkpt lat="44.32438" lon="5.8314">
        <ele>578</ele>
        <time>2019-03-05T15:13:55Z</time>
      </trkpt>
      <trkpt lat="44.32433" lon="5.83136">
        <ele>578</ele>
        <time>2019-03-05T15:13:56Z</time>
      </trkpt>
      <trkpt lat="44.32428" lon="5.83132">
        <ele>578</ele>
        <time>2019-03-05T15:13:57Z</time>
      </trkpt>
      <trkpt lat="44.32423" lon="5.83128">
        <ele>578</ele>
        <time>2019-03-05T15:13:58Z</time>
      </trkpt>
      <trkpt lat="44.32418" lon="5.83124">
        <ele>578</ele>
        <time>2019-03-05T15:13:59Z</time>
      </trkpt>
      <trkpt lat="44.32413" lon="5.8312">
        <ele>578</ele>
        <time>2019-03-05T15:14:00Z</time>
      </trkpt>
      <trkpt lat="44.32408" lon="5.83115">
        <ele>578</ele>
        <time>2019-03-05T15:14:01Z</time>
      </trkpt>
      <trkpt lat="44.32404" lon="5.83109">
        <ele>578</ele>
        <time>2019-03-05T15:14:02Z</time>
      </trkpt>
      <trkpt lat="44.324" lon="5.83103">
        <ele>578</ele>
        <time>2019-03-05T15:14:03Z</time>
      </trkpt>
      <trkpt lat="44.32396" lon="5.83097">
        <ele>578</ele>
        <time>2019-03-05T15:14:04Z</time>
      </trkpt>
      <trkpt lat="44.32393" lon="5.83091">
        <ele>578</ele>
        <time>2019-03-05T15:14:05Z</time>
      </trkpt>
      <trkpt lat="44.3239" lon="5.83084">
        <ele>578</ele>
        <time>2019-03-05T15:14:06Z</time>
      </trkpt>
      <trkpt lat="44.32387" lon="5.83077">
        <ele>578</ele>
        <time>2019-03-05T15:14:07Z</time>
      </trkpt>
      <trkpt lat="44.32384" lon="5.8307">
        <ele>578</ele>
        <time>2019-03-05T15:14:08Z</time>
      </trkpt>
      <trkpt lat="44.32382" lon="5.83063">
        <ele>578</ele>
        <time>2019-03-05T15:14:09Z</time>
      </trkpt>
      <trkpt lat="44.3238" lon="5.83056">
        <ele>578</ele>
        <time>2019-03-05T15:14:10Z</time>
      </trkpt>
      <trkpt lat="44.32378" lon="5.83049">
        <ele>578</ele>
        <time>2019-03-05T15:14:11Z</time>
      </trkpt>
      <trkpt lat="44.32376" lon="5.83042">
        <ele>578</ele>
        <time>2019-03-05T15:14:12Z</time>
      </trkpt>
      <trkpt lat="44.32375" lon="5.83035">
        <ele>578</ele>
        <time>2019-03-05T15:14:13Z</time>
      </trkpt>
      <trkpt lat="44.32373" lon="5.83028">
        <ele>578</ele>
        <time>2019-03-05T15:14:14Z</time>
      </trkpt>
      <trkpt lat="44.32371" lon="5.83021">
        <ele>578</ele>
        <time>2019-03-05T15:14:15Z</time>
      </trkpt>
      <trkpt lat="44.32369" lon="5.83015">
        <ele>578</ele>
        <time>2019-03-05T15:14:16Z</time>
      </trkpt>
      <trkpt lat="44.32367" lon="5.83008">
        <ele>578</ele>
        <time>2019-03-05T15:14:17Z</time>
      </trkpt>
      <trkpt lat="44.32365" lon="5.83002">
        <ele>578</ele>
        <time>2019-03-05T15:14:18Z</time>
      </trkpt>
      <trkpt lat="44.32362" lon="5.82996">
        <ele>579</ele>
        <time>2019-03-05T15:14:19Z</time>
      </trkpt>
      <trkpt lat="44.32359" lon="5.82991">
        <ele>579</ele>
        <time>2019-03-05T15:14:20Z</time>
      </trkpt>
      <trkpt lat="44.32356" lon="5.82986">
        <ele>580</ele>
        <time>2019-03-05T15:14:21Z</time>
      </trkpt>
      <trkpt lat="44.32352" lon="5.82982">
        <ele>580</ele>
        <time>2019-03-05T15:14:22Z</time>
      </trkpt>
      <trkpt lat="44.32348" lon="5.82977">
        <ele>580</ele>
        <time>2019-03-05T15:14:23Z</time>
      </trkpt>
      <trkpt lat="44.32343" lon="5.82974">
        <ele>580</ele>
        <time>2019-03-05T15:14:24Z</time>
      </trkpt>
      <trkpt lat="44.32338" lon="5.82971">
        <ele>580</ele>
        <time>2019-03-05T15:14:25Z</time>
      </trkpt>
      <trkpt lat="44.32333" lon="5.82968">
        <ele>580</ele>
        <time>2019-03-05T15:14:26Z</time>
      </trkpt>
      <trkpt lat="44.32327" lon="5.82965">
        <ele>580</ele>
        <time>2019-03-05T15:14:27Z</time>
      </trkpt>
      <trkpt lat="44.32321" lon="5.82962">
        <ele>580</ele>
        <time>2019-03-05T15:14:28Z</time>
      </trkpt>
      <trkpt lat="44.32315" lon="5.82959">
        <ele>580</ele>
        <time>2019-03-05T15:14:29Z</time>
      </trkpt>
      <trkpt lat="44.3231" lon="5.82955">
        <ele>580</ele>
        <time>2019-03-05T15:14:30Z</time>
      </trkpt>
      <trkpt lat="44.32304" lon="5.82952">
        <ele>580</ele>
        <time>2019-03-05T15:14:31Z</time>
      </trkpt>
      <trkpt lat="44.32297" lon="5.82949">
        <ele>580</ele>
        <time>2019-03-05T15:14:32Z</time>
      </trkpt>
      <trkpt lat="44.32291" lon="5.82946">
        <ele>580</ele>
        <time>2019-03-05T15:14:33Z</time>
      </trkpt>
      <trkpt lat="44.32284" lon="5.82942">
        <ele>580</ele>
        <time>2019-03-05T15:14:34Z</time>
      </trkpt>
      <trkpt lat="44.32278" lon="5.82938">
        <ele>580</ele>
        <time>2019-03-05T15:14:35Z</time>
      </trkpt>
      <trkpt lat="44.32271" lon="5.82935">
        <ele>580</ele>
        <time>2019-03-05T15:14:36Z</time>
      </trkpt>
      <trkpt lat="44.32264" lon="5.82931">
        <ele>580</ele>
        <time>2019-03-05T15:14:37Z</time>
      </trkpt>
      <trkpt lat="44.32256" lon="5.82928">
        <ele>580</ele>
        <time>2019-03-05T15:14:38Z</time>
      </trkpt>
      <trkpt lat="44.32249" lon="5.82924">
        <ele>580</ele>
        <time>2019-03-05T15:14:39Z</time>
      </trkpt>
      <trkpt lat="44.32241" lon="5.8292">
        <ele>580</ele>
        <time>2019-03-05T15:14:40Z</time>
      </trkpt>
      <trkpt lat="44.32233" lon="5.82915">
        <ele>580</ele>
        <time>2019-03-05T15:14:41Z</time>
      </trkpt>
      <trkpt lat="44.32226" lon="5.82911">
        <ele>580</ele>
        <time>2019-03-05T15:14:42Z</time>
      </trkpt>
      <trkpt lat="44.32218" lon="5.82907">
        <ele>579</ele>
        <time>2019-03-05T15:14:43Z</time>
      </trkpt>
      <trkpt lat="44.32211" lon="5.82904">
        <ele>579</ele>
        <time>2019-03-05T15:14:44Z</time>
      </trkpt>
      <trkpt lat="44.32204" lon="5.82901">
        <ele>579</ele>
        <time>2019-03-05T15:14:45Z</time>
      </trkpt>
      <trkpt lat="44.32197" lon="5.82898">
        <ele>579</ele>
        <time>2019-03-05T15:14:46Z</time>
      </trkpt>
      <trkpt lat="44.3219" lon="5.82893">
        <ele>579</ele>
        <time>2019-03-05T15:14:47Z</time>
      </trkpt>
      <trkpt lat="44.32183" lon="5.82889">
        <ele>579</ele>
        <time>2019-03-05T15:14:48Z</time>
      </trkpt>
      <trkpt lat="44.32177" lon="5.82886">
        <ele>579</ele>
        <time>2019-03-05T15:14:49Z</time>
      </trkpt>
      <trkpt lat="44.32169" lon="5.82882">
        <ele>579</ele>
        <time>2019-03-05T15:14:50Z</time>
      </trkpt>
      <trkpt lat="44.32163" lon="5.82879">
        <ele>579</ele>
        <time>2019-03-05T15:14:51Z</time>
      </trkpt>
      <trkpt lat="44.32156" lon="5.82875">
        <ele>579</ele>
        <time>2019-03-05T15:14:52Z</time>
      </trkpt>
      <trkpt lat="44.32149" lon="5.82872">
        <ele>579</ele>
        <time>2019-03-05T15:14:53Z</time>
      </trkpt>
      <trkpt lat="44.32143" lon="5.82869">
        <ele>579</ele>
        <time>2019-03-05T15:14:54Z</time>
      </trkpt>
      <trkpt lat="44.32135" lon="5.82867">
        <ele>579</ele>
        <time>2019-03-05T15:14:55Z</time>
      </trkpt>
      <trkpt lat="44.32129" lon="5.82865">
        <ele>579</ele>
        <time>2019-03-05T15:14:56Z</time>
      </trkpt>
      <trkpt lat="44.32122" lon="5.82862">
        <ele>579</ele>
        <time>2019-03-05T15:14:57Z</time>
      </trkpt>
      <trkpt lat="44.32115" lon="5.82859">
        <ele>579</ele>
        <time>2019-03-05T15:14:58Z</time>
      </trkpt>
      <trkpt lat="44.32108" lon="5.82857">
        <ele>579</ele>
        <time>2019-03-05T15:14:59Z</time>
      </trkpt>
      <trkpt lat="44.32101" lon="5.82856">
        <ele>578</ele>
        <time>2019-03-05T15:15:00Z</time>
      </trkpt>
      <trkpt lat="44.32093" lon="5.82854">
        <ele>578</ele>
        <time>2019-03-05T15:15:01Z</time>
      </trkpt>
      <trkpt lat="44.32086" lon="5.82852">
        <ele>577</ele>
        <time>2019-03-05T15:15:02Z</time>
      </trkpt>
      <trkpt lat="44.32079" lon="5.82849">
        <ele>576</ele>
        <time>2019-03-05T15:15:03Z</time>
      </trkpt>
      <trkpt lat="44.32072" lon="5.82845">
        <ele>575</ele>
        <time>2019-03-05T15:15:04Z</time>
      </trkpt>
      <trkpt lat="44.32064" lon="5.8284">
        <ele>574</ele>
        <time>2019-03-05T15:15:05Z</time>
      </trkpt>
      <trkpt lat="44.32056" lon="5.82835">
        <ele>574</ele>
        <time>2019-03-05T15:15:06Z</time>
      </trkpt>
      <trkpt lat="44.32048" lon="5.82829">
        <ele>573</ele>
        <time>2019-03-05T15:15:07Z</time>
      </trkpt>
      <trkpt lat="44.32039" lon="5.82823">
        <ele>573</ele>
        <time>2019-03-05T15:15:08Z</time>
      </trkpt>
      <trkpt lat="44.3203" lon="5.82818">
        <ele>572</ele>
        <time>2019-03-05T15:15:09Z</time>
      </trkpt>
      <trkpt lat="44.32022" lon="5.82812">
        <ele>572</ele>
        <time>2019-03-05T15:15:10Z</time>
      </trkpt>
      <trkpt lat="44.32014" lon="5.82807">
        <ele>572</ele>
        <time>2019-03-05T15:15:11Z</time>
      </trkpt>
      <trkpt lat="44.32005" lon="5.82802">
        <ele>571</ele>
        <time>2019-03-05T15:15:12Z</time>
      </trkpt>
      <trkpt lat="44.31997" lon="5.82797">
        <ele>571</ele>
        <time>2019-03-05T15:15:13Z</time>
      </trkpt>
      <trkpt lat="44.31988" lon="5.82794">
        <ele>571</ele>
        <time>2019-03-05T15:15:14Z</time>
      </trkpt>
      <trkpt lat="44.31979" lon="5.8279">
        <ele>571</ele>
        <time>2019-03-05T15:15:15Z</time>
      </trkpt>
      <trkpt lat="44.31971" lon="5.82786">
        <ele>571</ele>
        <time>2019-03-05T15:15:16Z</time>
      </trkpt>
      <trkpt lat="44.31962" lon="5.82783">
        <ele>570</ele>
        <time>2019-03-05T15:15:17Z</time>
      </trkpt>
      <trkpt lat="44.31954" lon="5.82779">
        <ele>570</ele>
        <time>2019-03-05T15:15:18Z</time>
      </trkpt>
      <trkpt lat="44.31945" lon="5.82775">
        <ele>570</ele>
        <time>2019-03-05T15:15:19Z</time>
      </trkpt>
      <trkpt lat="44.31937" lon="5.82772">
        <ele>570</ele>
        <time>2019-03-05T15:15:20Z</time>
      </trkpt>
      <trkpt lat="44.31929" lon="5.8277">
        <ele>570</ele>
        <time>2019-03-05T15:15:21Z</time>
      </trkpt>
      <trkpt lat="44.31921" lon="5.82769">
        <ele>569</ele>
        <time>2019-03-05T15:15:22Z</time>
      </trkpt>
      <trkpt lat="44.31913" lon="5.82768">
        <ele>569</ele>
        <time>2019-03-05T15:15:23Z</time>
      </trkpt>
      <trkpt lat="44.31905" lon="5.82767">
        <ele>569</ele>
        <time>2019-03-05T15:15:24Z</time>
      </trkpt>
      <trkpt lat="44.31897" lon="5.82766">
        <ele>568</ele>
        <time>2019-03-05T15:15:25Z</time>
      </trkpt>
      <trkpt lat="44.31889" lon="5.82766">
        <ele>568</ele>
        <time>2019-03-05T15:15:26Z</time>
      </trkpt>
      <trkpt lat="44.3188" lon="5.82766">
        <ele>568</ele>
        <time>2019-03-05T15:15:27Z</time>
      </trkpt>
      <trkpt lat="44.31871" lon="5.82766">
        <ele>568</ele>
        <time>2019-03-05T15:15:28Z</time>
      </trkpt>
      <trkpt lat="44.31863" lon="5.82765">
        <ele>568</ele>
        <time>2019-03-05T15:15:29Z</time>
      </trkpt>
      <trkpt lat="44.31854" lon="5.82763">
        <ele>568</ele>
        <time>2019-03-05T15:15:30Z</time>
      </trkpt>
      <trkpt lat="44.31846" lon="5.8276">
        <ele>568</ele>
        <time>2019-03-05T15:15:31Z</time>
      </trkpt>
      <trkpt lat="44.31838" lon="5.82757">
        <ele>568</ele>
        <time>2019-03-05T15:15:32Z</time>
      </trkpt>
      <trkpt lat="44.31831" lon="5.82752">
        <ele>568</ele>
        <time>2019-03-05T15:15:33Z</time>
      </trkpt>
      <trkpt lat="44.31823" lon="5.82748">
        <ele>568</ele>
        <time>2019-03-05T15:15:34Z</time>
      </trkpt>
      <trkpt lat="44.31816" lon="5.82743">
        <ele>568</ele>
        <time>2019-03-05T15:15:35Z</time>
      </trkpt>
      <trkpt lat="44.31809" lon="5.82738">
        <ele>568</ele>
        <time>2019-03-05T15:15:36Z</time>
      </trkpt>
      <trkpt lat="44.31802" lon="5.82731">
        <ele>568</ele>
        <time>2019-03-05T15:15:37Z</time>
      </trkpt>
      <trkpt lat="44.31796" lon="5.82725">
        <ele>568</ele>
        <time>2019-03-05T15:15:38Z</time>
      </trkpt>
      <trkpt lat="44.31789" lon="5.8272">
        <ele>568</ele>
        <time>2019-03-05T15:15:39Z</time>
      </trkpt>
      <trkpt lat="44.31783" lon="5.82714">
        <ele>568</ele>
        <time>2019-03-05T15:15:40Z</time>
      </trkpt>
      <trkpt lat="44.31777" lon="5.82708">
        <ele>568</ele>
        <time>2019-03-05T15:15:41Z</time>
      </trkpt>
      <trkpt lat="44.31771" lon="5.82702">
        <ele>568</ele>
        <time>2019-03-05T15:15:42Z</time>
      </trkpt>
      <trkpt lat="44.31765" lon="5.82695">
        <ele>568</ele>
        <time>2019-03-05T15:15:43Z</time>
      </trkpt>
      <trkpt lat="44.31758" lon="5.8269">
        <ele>568</ele>
        <time>2019-03-05T15:15:44Z</time>
      </trkpt>
      <trkpt lat="44.31752" lon="5.82684">
        <ele>568</ele>
        <time>2019-03-05T15:15:45Z</time>
      </trkpt>
      <trkpt lat="44.31746" lon="5.82678">
        <ele>568</ele>
        <time>2019-03-05T15:15:46Z</time>
      </trkpt>
      <trkpt lat="44.31739" lon="5.82672">
        <ele>568</ele>
        <time>2019-03-05T15:15:47Z</time>
      </trkpt>
      <trkpt lat="44.31733" lon="5.82666">
        <ele>568</ele>
        <time>2019-03-05T15:15:48Z</time>
      </trkpt>
      <trkpt lat="44.31728" lon="5.8266">
        <ele>568</ele>
        <time>2019-03-05T15:15:49Z</time>
      </trkpt>
      <trkpt lat="44.31722" lon="5.82655">
        <ele>568</ele>
        <time>2019-03-05T15:15:50Z</time>
      </trkpt>
      <trkpt lat="44.31716" lon="5.82649">
        <ele>568</ele>
        <time>2019-03-05T15:15:51Z</time>
      </trkpt>
      <trkpt lat="44.31711" lon="5.82642">
        <ele>568</ele>
        <time>2019-03-05T15:15:52Z</time>
      </trkpt>
      <trkpt lat="44.31705" lon="5.82635">
        <ele>568</ele>
        <time>2019-03-05T15:15:53Z</time>
      </trkpt>
      <trkpt lat="44.31699" lon="5.8263">
        <ele>568</ele>
        <time>2019-03-05T15:15:54Z</time>
      </trkpt>
      <trkpt lat="44.31694" lon="5.82625">
        <ele>568</ele>
        <time>2019-03-05T15:15:55Z</time>
      </trkpt>
      <trkpt lat="44.31688" lon="5.8262">
        <ele>568</ele>
        <time>2019-03-05T15:15:56Z</time>
      </trkpt>
      <trkpt lat="44.31683" lon="5.82615">
        <ele>568</ele>
        <time>2019-03-05T15:15:57Z</time>
      </trkpt>
      <trkpt lat="44.31677" lon="5.8261">
        <ele>568</ele>
        <time>2019-03-05T15:15:58Z</time>
      </trkpt>
      <trkpt lat="44.31672" lon="5.82605">
        <ele>568</ele>
        <time>2019-03-05T15:15:59Z</time>
      </trkpt>
      <trkpt lat="44.31666" lon="5.826">
        <ele>568</ele>
        <time>2019-03-05T15:16:00Z</time>
      </trkpt>
      <trkpt lat="44.31661" lon="5.82594">
        <ele>568</ele>
        <time>2019-03-05T15:16:01Z</time>
      </trkpt>
      <trkpt lat="44.31656" lon="5.82588">
        <ele>568</ele>
        <time>2019-03-05T15:16:02Z</time>
      </trkpt>
      <trkpt lat="44.31651" lon="5.82583">
        <ele>568</ele>
        <time>2019-03-05T15:16:03Z</time>
      </trkpt>
      <trkpt lat="44.31646" lon="5.82578">
        <ele>568</ele>
        <time>2019-03-05T15:16:04Z</time>
      </trkpt>
      <trkpt lat="44.31641" lon="5.82573">
        <ele>568</ele>
        <time>2019-03-05T15:16:05Z</time>
      </trkpt>
      <trkpt lat="44.31636" lon="5.82567">
        <ele>568</ele>
        <time>2019-03-05T15:16:06Z</time>
      </trkpt>
      <trkpt lat="44.31631" lon="5.82561">
        <ele>568</ele>
        <time>2019-03-05T15:16:07Z</time>
      </trkpt>
      <trkpt lat="44.31626" lon="5.82556">
        <ele>568</ele>
        <time>2019-03-05T15:16:08Z</time>
      </trkpt>
      <trkpt lat="44.3162" lon="5.82552">
        <ele>568</ele>
        <time>2019-03-05T15:16:09Z</time>
      </trkpt>
      <trkpt lat="44.31615" lon="5.82547">
        <ele>568</ele>
        <time>2019-03-05T15:16:10Z</time>
      </trkpt>
      <trkpt lat="44.31609" lon="5.82544">
        <ele>568</ele>
        <time>2019-03-05T15:16:11Z</time>
      </trkpt>
      <trkpt lat="44.31603" lon="5.8254">
        <ele>568</ele>
        <time>2019-03-05T15:16:12Z</time>
      </trkpt>
      <trkpt lat="44.31597" lon="5.82536">
        <ele>568</ele>
        <time>2019-03-05T15:16:13Z</time>
      </trkpt>
      <trkpt lat="44.31592" lon="5.8253">
        <ele>568</ele>
        <time>2019-03-05T15:16:14Z</time>
      </trkpt>
      <trkpt lat="44.31588" lon="5.82525">
        <ele>568</ele>
        <time>2019-03-05T15:16:15Z</time>
      </trkpt>
      <trkpt lat="44.31585" lon="5.8252">
        <ele>567</ele>
        <time>2019-03-05T15:16:16Z</time>
      </trkpt>
      <trkpt lat="44.31582" lon="5.82516">
        <ele>567</ele>
        <time>2019-03-05T15:16:17Z</time>
      </trkpt>
      <trkpt lat="44.3158" lon="5.82513">
        <ele>567</ele>
        <time>2019-03-05T15:16:18Z</time>
      </trkpt>
      <trkpt lat="44.3158" lon="5.82511">
        <ele>567</ele>
        <time>2019-03-05T15:16:19Z</time>
      </trkpt>
      <trkpt lat="44.31578" lon="5.82509">
        <ele>567</ele>
        <time>2019-03-05T15:16:21Z</time>
      </trkpt>
      <trkpt lat="44.31579" lon="5.82507">
        <ele>567</ele>
        <time>2019-03-05T15:16:23Z</time>
      </trkpt>
      <trkpt lat="44.31579" lon="5.82506">
        <ele>567</ele>
        <time>2019-03-05T15:16:25Z</time>
      </trkpt>
      <trkpt lat="44.31578" lon="5.82503">
        <ele>567</ele>
        <time>2019-03-05T15:16:27Z</time>
      </trkpt>
      <trkpt lat="44.31577" lon="5.82502">
        <ele>567</ele>
        <time>2019-03-05T15:16:28Z</time>
      </trkpt>
      <trkpt lat="44.31576" lon="5.82501">
        <ele>567</ele>
        <time>2019-03-05T15:16:29Z</time>
      </trkpt>
      <trkpt lat="44.31574" lon="5.82501">
        <ele>567</ele>
        <time>2019-03-05T15:16:30Z</time>
      </trkpt>
      <trkpt lat="44.31573" lon="5.825">
        <ele>567</ele>
        <time>2019-03-05T15:16:31Z</time>
      </trkpt>
      <trkpt lat="44.31571" lon="5.82499">
        <ele>567</ele>
        <time>2019-03-05T15:16:32Z</time>
      </trkpt>
      <trkpt lat="44.3157" lon="5.82497">
        <ele>567</ele>
        <time>2019-03-05T15:16:33Z</time>
      </trkpt>
      <trkpt lat="44.31567" lon="5.82495">
        <ele>567</ele>
        <time>2019-03-05T15:16:34Z</time>
      </trkpt>
      <trkpt lat="44.31565" lon="5.82492">
        <ele>567</ele>
        <time>2019-03-05T15:16:35Z</time>
      </trkpt>
      <trkpt lat="44.31562" lon="5.82488">
        <ele>566</ele>
        <time>2019-03-05T15:16:36Z</time>
      </trkpt>
      <trkpt lat="44.31559" lon="5.82486">
        <ele>565</ele>
        <time>2019-03-05T15:16:37Z</time>
      </trkpt>
      <trkpt lat="44.31556" lon="5.82483">
        <ele>565</ele>
        <time>2019-03-05T15:16:38Z</time>
      </trkpt>
      <trkpt lat="44.31554" lon="5.8248">
        <ele>564</ele>
        <time>2019-03-05T15:16:39Z</time>
      </trkpt>
      <trkpt lat="44.31551" lon="5.82477">
        <ele>563</ele>
        <time>2019-03-05T15:16:40Z</time>
      </trkpt>
      <trkpt lat="44.31547" lon="5.82474">
        <ele>562</ele>
        <time>2019-03-05T15:16:41Z</time>
      </trkpt>
      <trkpt lat="44.31544" lon="5.82472">
        <ele>561</ele>
        <time>2019-03-05T15:16:42Z</time>
      </trkpt>
      <trkpt lat="44.31541" lon="5.8247">
        <ele>560</ele>
        <time>2019-03-05T15:16:43Z</time>
      </trkpt>
      <trkpt lat="44.31537" lon="5.82467">
        <ele>560</ele>
        <time>2019-03-05T15:16:44Z</time>
      </trkpt>
      <trkpt lat="44.31533" lon="5.82464">
        <ele>559</ele>
        <time>2019-03-05T15:16:45Z</time>
      </trkpt>
      <trkpt lat="44.31529" lon="5.8246">
        <ele>559</ele>
        <time>2019-03-05T15:16:46Z</time>
      </trkpt>
      <trkpt lat="44.31526" lon="5.82456">
        <ele>559</ele>
        <time>2019-03-05T15:16:47Z</time>
      </trkpt>
      <trkpt lat="44.31522" lon="5.82453">
        <ele>559</ele>
        <time>2019-03-05T15:16:48Z</time>
      </trkpt>
      <trkpt lat="44.31519" lon="5.82449">
        <ele>559</ele>
        <time>2019-03-05T15:16:49Z</time>
      </trkpt>
      <trkpt lat="44.31515" lon="5.82446">
        <ele>559</ele>
        <time>2019-03-05T15:16:50Z</time>
      </trkpt>
      <trkpt lat="44.31511" lon="5.82442">
        <ele>559</ele>
        <time>2019-03-05T15:16:51Z</time>
      </trkpt>
      <trkpt lat="44.31507" lon="5.82438">
        <ele>559</ele>
        <time>2019-03-05T15:16:52Z</time>
      </trkpt>
      <trkpt lat="44.31503" lon="5.82433">
        <ele>560</ele>
        <time>2019-03-05T15:16:53Z</time>
      </trkpt>
      <trkpt lat="44.31499" lon="5.82429">
        <ele>561</ele>
        <time>2019-03-05T15:16:54Z</time>
      </trkpt>
      <trkpt lat="44.31496" lon="5.82424">
        <ele>561</ele>
        <time>2019-03-05T15:16:55Z</time>
      </trkpt>
      <trkpt lat="44.31491" lon="5.8242">
        <ele>561</ele>
        <time>2019-03-05T15:16:56Z</time>
      </trkpt>
      <trkpt lat="44.31488" lon="5.82417">
        <ele>561</ele>
        <time>2019-03-05T15:16:57Z</time>
      </trkpt>
      <trkpt lat="44.31485" lon="5.82413">
        <ele>561</ele>
        <time>2019-03-05T15:16:58Z</time>
      </trkpt>
      <trkpt lat="44.31482" lon="5.8241">
        <ele>562</ele>
        <time>2019-03-05T15:16:59Z</time>
      </trkpt>
      <trkpt lat="44.31479" lon="5.82406">
        <ele>562</ele>
        <time>2019-03-05T15:17:00Z</time>
      </trkpt>
      <trkpt lat="44.31476" lon="5.82402">
        <ele>562</ele>
        <time>2019-03-05T15:17:01Z</time>
      </trkpt>
      <trkpt lat="44.31472" lon="5.824">
        <ele>563</ele>
        <time>2019-03-05T15:17:02Z</time>
      </trkpt>
      <trkpt lat="44.31469" lon="5.82398">
        <ele>564</ele>
        <time>2019-03-05T15:17:03Z</time>
      </trkpt>
      <trkpt lat="44.31466" lon="5.82395">
        <ele>564</ele>
        <time>2019-03-05T15:17:04Z</time>
      </trkpt>
      <trkpt lat="44.31463" lon="5.82392">
        <ele>565</ele>
        <time>2019-03-05T15:17:05Z</time>
      </trkpt>
      <trkpt lat="44.31459" lon="5.8239">
        <ele>566</ele>
        <time>2019-03-05T15:17:06Z</time>
      </trkpt>
      <trkpt lat="44.31456" lon="5.82387">
        <ele>566</ele>
        <time>2019-03-05T15:17:07Z</time>
      </trkpt>
      <trkpt lat="44.31454" lon="5.82384">
        <ele>567</ele>
        <time>2019-03-05T15:17:08Z</time>
      </trkpt>
      <trkpt lat="44.31451" lon="5.82381">
        <ele>568</ele>
        <time>2019-03-05T15:17:09Z</time>
      </trkpt>
      <trkpt lat="44.3145" lon="5.82379">
        <ele>568</ele>
        <time>2019-03-05T15:17:10Z</time>
      </trkpt>
      <trkpt lat="44.31445" lon="5.82374">
        <ele>569</ele>
        <time>2019-03-05T15:17:13Z</time>
      </trkpt>
      <trkpt lat="44.31445" lon="5.82368">
        <ele>570</ele>
        <time>2019-03-05T15:17:16Z</time>
      </trkpt>
      <trkpt lat="44.31444" lon="5.8237">
        <ele>571</ele>
        <time>2019-03-05T15:17:17Z</time>
      </trkpt>
      <trkpt lat="44.31441" lon="5.82367">
        <ele>573</ele>
        <time>2019-03-05T15:17:20Z</time>
      </trkpt>
      <trkpt lat="44.3144" lon="5.82369">
        <ele>574</ele>
        <time>2019-03-05T15:17:21Z</time>
      </trkpt>
      <trkpt lat="44.31438" lon="5.82367">
        <ele>576</ele>
        <time>2019-03-05T15:17:23Z</time>
      </trkpt>
      <trkpt lat="44.31437" lon="5.82364">
        <ele>576</ele>
        <time>2019-03-05T15:17:27Z</time>
      </trkpt>
      <trkpt lat="44.31435" lon="5.82362">
        <ele>576</ele>
        <time>2019-03-05T15:17:30Z</time>
      </trkpt>
      <trkpt lat="44.31435" lon="5.8236">
        <ele>576</ele>
        <time>2019-03-05T15:17:33Z</time>
      </trkpt>
      <trkpt lat="44.31434" lon="5.82358">
        <ele>575</ele>
        <time>2019-03-05T15:17:34Z</time>
      </trkpt>
      <trkpt lat="44.31434" lon="5.8236">
        <ele>572</ele>
        <time>2019-03-05T15:17:38Z</time>
      </trkpt>
      <trkpt lat="44.31433" lon="5.82359">
        <ele>571</ele>
        <time>2019-03-05T15:17:44Z</time>
      </trkpt>
      <trkpt lat="44.31432" lon="5.82361">
        <ele>571</ele>
        <time>2019-03-05T15:17:46Z</time>
      </trkpt>
      <trkpt lat="44.31432" lon="5.82364">
        <ele>571</ele>
        <time>2019-03-05T15:17:48Z</time>
      </trkpt>
      <trkpt lat="44.31432" lon="5.82367">
        <ele>571</ele>
        <time>2019-03-05T15:17:49Z</time>
      </trkpt>
      <trkpt lat="44.31432" lon="5.82369">
        <ele>571</ele>
        <time>2019-03-05T15:17:50Z</time>
      </trkpt>
      <trkpt lat="44.31433" lon="5.82371">
        <ele>571</ele>
        <time>2019-03-05T15:17:51Z</time>
      </trkpt>
      <trkpt lat="44.31434" lon="5.82375">
        <ele>571</ele>
        <time>2019-03-05T15:17:52Z</time>
      </trkpt>
      <trkpt lat="44.31434" lon="5.82379">
        <ele>571</ele>
        <time>2019-03-05T15:17:53Z</time>
      </trkpt>
      <trkpt lat="44.31435" lon="5.82384">
        <ele>571</ele>
        <time>2019-03-05T15:17:54Z</time>
      </trkpt>
      <trkpt lat="44.31435" lon="5.8239">
        <ele>571</ele>
        <time>2019-03-05T15:17:55Z</time>
      </trkpt>
      <trkpt lat="44.31434" lon="5.82397">
        <ele>571</ele>
        <time>2019-03-05T15:17:56Z</time>
      </trkpt>
      <trkpt lat="44.31434" lon="5.82402">
        <ele>571</ele>
        <time>2019-03-05T15:17:57Z</time>
      </trkpt>
      <trkpt lat="44.31433" lon="5.82409">
        <ele>571</ele>
        <time>2019-03-05T15:17:58Z</time>
      </trkpt>
      <trkpt lat="44.31433" lon="5.82416">
        <ele>571</ele>
        <time>2019-03-05T15:17:59Z</time>
      </trkpt>
      <trkpt lat="44.31433" lon="5.82422">
        <ele>571</ele>
        <time>2019-03-05T15:18:00Z</time>
      </trkpt>
      <trkpt lat="44.31433" lon="5.82429">
        <ele>571</ele>
        <time>2019-03-05T15:18:01Z</time>
      </trkpt>
      <trkpt lat="44.31433" lon="5.82436">
        <ele>571</ele>
        <time>2019-03-05T15:18:02Z</time>
      </trkpt>
      <trkpt lat="44.31432" lon="5.82444">
        <ele>571</ele>
        <time>2019-03-05T15:18:03Z</time>
      </trkpt>
      <trkpt lat="44.3143" lon="5.82451">
        <ele>571</ele>
        <time>2019-03-05T15:18:04Z</time>
      </trkpt>
      <trkpt lat="44.31428" lon="5.82457">
        <ele>571</ele>
        <time>2019-03-05T15:18:05Z</time>
      </trkpt>
      <trkpt lat="44.31427" lon="5.82465">
        <ele>571</ele>
        <time>2019-03-05T15:18:06Z</time>
      </trkpt>
      <trkpt lat="44.31426" lon="5.82473">
        <ele>571</ele>
        <time>2019-03-05T15:18:07Z</time>
      </trkpt>
      <trkpt lat="44.31425" lon="5.8248">
        <ele>571</ele>
        <time>2019-03-05T15:18:08Z</time>
      </trkpt>
      <trkpt lat="44.31423" lon="5.82488">
        <ele>571</ele>
        <time>2019-03-05T15:18:09Z</time>
      </trkpt>
      <trkpt lat="44.31422" lon="5.82495">
        <ele>571</ele>
        <time>2019-03-05T15:18:10Z</time>
      </trkpt>
      <trkpt lat="44.31421" lon="5.82503">
        <ele>571</ele>
        <time>2019-03-05T15:18:11Z</time>
      </trkpt>
      <trkpt lat="44.3142" lon="5.82511">
        <ele>571</ele>
        <time>2019-03-05T15:18:12Z</time>
      </trkpt>
      <trkpt lat="44.3142" lon="5.82519">
        <ele>571</ele>
        <time>2019-03-05T15:18:13Z</time>
      </trkpt>
      <trkpt lat="44.31419" lon="5.82526">
        <ele>571</ele>
        <time>2019-03-05T15:18:14Z</time>
      </trkpt>
      <trkpt lat="44.31419" lon="5.82534">
        <ele>571</ele>
        <time>2019-03-05T15:18:15Z</time>
      </trkpt>
      <trkpt lat="44.31418" lon="5.82541">
        <ele>571</ele>
        <time>2019-03-05T15:18:16Z</time>
      </trkpt>
      <trkpt lat="44.31416" lon="5.82549">
        <ele>571</ele>
        <time>2019-03-05T15:18:17Z</time>
      </trkpt>
      <trkpt lat="44.31414" lon="5.82556">
        <ele>571</ele>
        <time>2019-03-05T15:18:18Z</time>
      </trkpt>
      <trkpt lat="44.31413" lon="5.82564">
        <ele>571</ele>
        <time>2019-03-05T15:18:19Z</time>
      </trkpt>
      <trkpt lat="44.31411" lon="5.82571">
        <ele>571</ele>
        <time>2019-03-05T15:18:20Z</time>
      </trkpt>
      <trkpt lat="44.3141" lon="5.82579">
        <ele>571</ele>
        <time>2019-03-05T15:18:21Z</time>
      </trkpt>
      <trkpt lat="44.31408" lon="5.82586">
        <ele>570</ele>
        <time>2019-03-05T15:18:22Z</time>
      </trkpt>
      <trkpt lat="44.31406" lon="5.82593">
        <ele>570</ele>
        <time>2019-03-05T15:18:23Z</time>
      </trkpt>
      <trkpt lat="44.31404" lon="5.826">
        <ele>570</ele>
        <time>2019-03-05T15:18:24Z</time>
      </trkpt>
      <trkpt lat="44.31403" lon="5.82607">
        <ele>569</ele>
        <time>2019-03-05T15:18:25Z</time>
      </trkpt>
      <trkpt lat="44.31401" lon="5.82613">
        <ele>569</ele>
        <time>2019-03-05T15:18:26Z</time>
      </trkpt>
      <trkpt lat="44.31399" lon="5.8262">
        <ele>569</ele>
        <time>2019-03-05T15:18:27Z</time>
      </trkpt>
      <trkpt lat="44.31397" lon="5.82626">
        <ele>568</ele>
        <time>2019-03-05T15:18:28Z</time>
      </trkpt>
      <trkpt lat="44.31395" lon="5.82633">
        <ele>568</ele>
        <time>2019-03-05T15:18:29Z</time>
      </trkpt>
      <trkpt lat="44.31393" lon="5.8264">
        <ele>568</ele>
        <time>2019-03-05T15:18:30Z</time>
      </trkpt>
      <trkpt lat="44.3139" lon="5.82646">
        <ele>568</ele>
        <time>2019-03-05T15:18:31Z</time>
      </trkpt>
      <trkpt lat="44.31387" lon="5.82652">
        <ele>568</ele>
        <time>2019-03-05T15:18:32Z</time>
      </trkpt>
      <trkpt lat="44.31384" lon="5.82659">
        <ele>568</ele>
        <time>2019-03-05T15:18:33Z</time>
      </trkpt>
      <trkpt lat="44.3138" lon="5.82665">
        <ele>568</ele>
        <time>2019-03-05T15:18:34Z</time>
      </trkpt>
      <trkpt lat="44.31377" lon="5.82671">
        <ele>568</ele>
        <time>2019-03-05T15:18:35Z</time>
      </trkpt>
      <trkpt lat="44.31374" lon="5.82678">
        <ele>568</ele>
        <time>2019-03-05T15:18:36Z</time>
      </trkpt>
      <trkpt lat="44.31371" lon="5.82683">
        <ele>568</ele>
        <time>2019-03-05T15:18:37Z</time>
      </trkpt>
      <trkpt lat="44.31367" lon="5.82688">
        <ele>568</ele>
        <time>2019-03-05T15:18:38Z</time>
      </trkpt>
      <trkpt lat="44.31363" lon="5.82693">
        <ele>568</ele>
        <time>2019-03-05T15:18:39Z</time>
      </trkpt>
      <trkpt lat="44.31361" lon="5.82699">
        <ele>568</ele>
        <time>2019-03-05T15:18:40Z</time>
      </trkpt>
      <trkpt lat="44.31361" lon="5.82705">
        <ele>568</ele>
        <time>2019-03-05T15:18:41Z</time>
      </trkpt>
      <trkpt lat="44.31361" lon="5.8271">
        <ele>568</ele>
        <time>2019-03-05T15:18:42Z</time>
      </trkpt>
      <trkpt lat="44.31364" lon="5.82716">
        <ele>568</ele>
        <time>2019-03-05T15:18:43Z</time>
      </trkpt>
      <trkpt lat="44.31367" lon="5.82722">
        <ele>568</ele>
        <time>2019-03-05T15:18:44Z</time>
      </trkpt>
      <trkpt lat="44.3137" lon="5.82729">
        <ele>568</ele>
        <time>2019-03-05T15:18:45Z</time>
      </trkpt>
      <trkpt lat="44.31371" lon="5.82737">
        <ele>568</ele>
        <time>2019-03-05T15:18:46Z</time>
      </trkpt>
      <trkpt lat="44.31372" lon="5.82745">
        <ele>567</ele>
        <time>2019-03-05T15:18:47Z</time>
      </trkpt>
      <trkpt lat="44.31372" lon="5.82752">
        <ele>566</ele>
        <time>2019-03-05T15:18:48Z</time>
      </trkpt>
      <trkpt lat="44.31373" lon="5.8276">
        <ele>566</ele>
        <time>2019-03-05T15:18:49Z</time>
      </trkpt>
      <trkpt lat="44.31373" lon="5.82768">
        <ele>565</ele>
        <time>2019-03-05T15:18:50Z</time>
      </trkpt>
      <trkpt lat="44.31373" lon="5.82776">
        <ele>564</ele>
        <time>2019-03-05T15:18:51Z</time>
      </trkpt>
      <trkpt lat="44.31374" lon="5.82783">
        <ele>563</ele>
        <time>2019-03-05T15:18:52Z</time>
      </trkpt>
      <trkpt lat="44.31374" lon="5.82791">
        <ele>563</ele>
        <time>2019-03-05T15:18:53Z</time>
      </trkpt>
      <trkpt lat="44.31374" lon="5.82799">
        <ele>563</ele>
        <time>2019-03-05T15:18:54Z</time>
      </trkpt>
      <trkpt lat="44.31374" lon="5.82807">
        <ele>563</ele>
        <time>2019-03-05T15:18:55Z</time>
      </trkpt>
      <trkpt lat="44.31373" lon="5.82815">
        <ele>563</ele>
        <time>2019-03-05T15:18:56Z</time>
      </trkpt>
      <trkpt lat="44.31373" lon="5.82822">
        <ele>563</ele>
        <time>2019-03-05T15:18:57Z</time>
      </trkpt>
      <trkpt lat="44.31373" lon="5.8283">
        <ele>563</ele>
        <time>2019-03-05T15:18:58Z</time>
      </trkpt>
      <trkpt lat="44.31373" lon="5.82837">
        <ele>563</ele>
        <time>2019-03-05T15:18:59Z</time>
      </trkpt>
      <trkpt lat="44.31372" lon="5.82845">
        <ele>563</ele>
        <time>2019-03-05T15:19:00Z</time>
      </trkpt>
      <trkpt lat="44.31371" lon="5.82852">
        <ele>562</ele>
        <time>2019-03-05T15:19:01Z</time>
      </trkpt>
      <trkpt lat="44.3137" lon="5.8286">
        <ele>562</ele>
        <time>2019-03-05T15:19:02Z</time>
      </trkpt>
      <trkpt lat="44.31369" lon="5.82867">
        <ele>562</ele>
        <time>2019-03-05T15:19:03Z</time>
      </trkpt>
      <trkpt lat="44.31369" lon="5.82875">
        <ele>562</ele>
        <time>2019-03-05T15:19:04Z</time>
      </trkpt>
      <trkpt lat="44.31368" lon="5.82883">
        <ele>562</ele>
        <time>2019-03-05T15:19:05Z</time>
      </trkpt>
      <trkpt lat="44.31367" lon="5.82891">
        <ele>562</ele>
        <time>2019-03-05T15:19:06Z</time>
      </trkpt>
      <trkpt lat="44.31366" lon="5.82898">
        <ele>562</ele>
        <time>2019-03-05T15:19:07Z</time>
      </trkpt>
      <trkpt lat="44.31366" lon="5.82905">
        <ele>562</ele>
        <time>2019-03-05T15:19:08Z</time>
      </trkpt>
      <trkpt lat="44.31364" lon="5.82913">
        <ele>562</ele>
        <time>2019-03-05T15:19:09Z</time>
      </trkpt>
      <trkpt lat="44.31363" lon="5.8292">
        <ele>562</ele>
        <time>2019-03-05T15:19:10Z</time>
      </trkpt>
      <trkpt lat="44.31361" lon="5.82928">
        <ele>562</ele>
        <time>2019-03-05T15:19:11Z</time>
      </trkpt>
      <trkpt lat="44.3136" lon="5.82936">
        <ele>562</ele>
        <time>2019-03-05T15:19:12Z</time>
      </trkpt>
      <trkpt lat="44.31359" lon="5.82943">
        <ele>562</ele>
        <time>2019-03-05T15:19:13Z</time>
      </trkpt>
      <trkpt lat="44.31358" lon="5.82951">
        <ele>562</ele>
        <time>2019-03-05T15:19:14Z</time>
      </trkpt>
      <trkpt lat="44.31357" lon="5.82958">
        <ele>562</ele>
        <time>2019-03-05T15:19:15Z</time>
      </trkpt>
      <trkpt lat="44.31356" lon="5.82966">
        <ele>562</ele>
        <time>2019-03-05T15:19:16Z</time>
      </trkpt>
      <trkpt lat="44.31354" lon="5.82973">
        <ele>562</ele>
        <time>2019-03-05T15:19:17Z</time>
      </trkpt>
      <trkpt lat="44.31353" lon="5.82981">
        <ele>562</ele>
        <time>2019-03-05T15:19:18Z</time>
      </trkpt>
      <trkpt lat="44.31353" lon="5.82988">
        <ele>562</ele>
        <time>2019-03-05T15:19:19Z</time>
      </trkpt>
      <trkpt lat="44.31352" lon="5.82996">
        <ele>562</ele>
        <time>2019-03-05T15:19:20Z</time>
      </trkpt>
      <trkpt lat="44.31351" lon="5.83003">
        <ele>562</ele>
        <time>2019-03-05T15:19:21Z</time>
      </trkpt>
      <trkpt lat="44.31351" lon="5.83009">
        <ele>562</ele>
        <time>2019-03-05T15:19:22Z</time>
      </trkpt>
      <trkpt lat="44.3135" lon="5.83017">
        <ele>562</ele>
        <time>2019-03-05T15:19:23Z</time>
      </trkpt>
      <trkpt lat="44.3135" lon="5.83024">
        <ele>562</ele>
        <time>2019-03-05T15:19:24Z</time>
      </trkpt>
      <trkpt lat="44.31348" lon="5.8303">
        <ele>562</ele>
        <time>2019-03-05T15:19:25Z</time>
      </trkpt>
      <trkpt lat="44.31348" lon="5.83037">
        <ele>562</ele>
        <time>2019-03-05T15:19:26Z</time>
      </trkpt>
      <trkpt lat="44.31346" lon="5.83043">
        <ele>562</ele>
        <time>2019-03-05T15:19:27Z</time>
      </trkpt>
      <trkpt lat="44.31345" lon="5.83049">
        <ele>562</ele>
        <time>2019-03-05T15:19:28Z</time>
      </trkpt>
      <trkpt lat="44.31344" lon="5.83056">
        <ele>562</ele>
        <time>2019-03-05T15:19:29Z</time>
      </trkpt>
      <trkpt lat="44.31343" lon="5.83062">
        <ele>562</ele>
        <time>2019-03-05T15:19:30Z</time>
      </trkpt>
      <trkpt lat="44.31342" lon="5.83068">
        <ele>562</ele>
        <time>2019-03-05T15:19:31Z</time>
      </trkpt>
      <trkpt lat="44.31342" lon="5.83075">
        <ele>562</ele>
        <time>2019-03-05T15:19:32Z</time>
      </trkpt>
      <trkpt lat="44.31341" lon="5.83081">
        <ele>562</ele>
        <time>2019-03-05T15:19:33Z</time>
      </trkpt>
      <trkpt lat="44.31341" lon="5.83086">
        <ele>562</ele>
        <time>2019-03-05T15:19:34Z</time>
      </trkpt>
      <trkpt lat="44.31341" lon="5.83092">
        <ele>562</ele>
        <time>2019-03-05T15:19:35Z</time>
      </trkpt>
      <trkpt lat="44.31342" lon="5.83097">
        <ele>562</ele>
        <time>2019-03-05T15:19:36Z</time>
      </trkpt>
      <trkpt lat="44.31343" lon="5.83102">
        <ele>562</ele>
        <time>2019-03-05T15:19:37Z</time>
      </trkpt>
      <trkpt lat="44.31346" lon="5.83103">
        <ele>562</ele>
        <time>2019-03-05T15:19:38Z</time>
      </trkpt>
      <trkpt lat="44.3135" lon="5.83103">
        <ele>562</ele>
        <time>2019-03-05T15:19:39Z</time>
      </trkpt>
      <trkpt lat="44.31353" lon="5.83102">
        <ele>562</ele>
        <time>2019-03-05T15:19:40Z</time>
      </trkpt>
      <trkpt lat="44.31356" lon="5.831">
        <ele>562</ele>
        <time>2019-03-05T15:19:41Z</time>
      </trkpt>
      <trkpt lat="44.31358" lon="5.83098">
        <ele>562</ele>
        <time>2019-03-05T15:19:42Z</time>
      </trkpt>
      <trkpt lat="44.31361" lon="5.83095">
        <ele>562</ele>
        <time>2019-03-05T15:19:43Z</time>
      </trkpt>
      <trkpt lat="44.31362" lon="5.8309">
        <ele>562</ele>
        <time>2019-03-05T15:19:44Z</time>
      </trkpt>
      <trkpt lat="44.31364" lon="5.83086">
        <ele>562</ele>
        <time>2019-03-05T15:19:45Z</time>
      </trkpt>
      <trkpt lat="44.31366" lon="5.83082">
        <ele>562</ele>
        <time>2019-03-05T15:19:46Z</time>
      </trkpt>
      <trkpt lat="44.31369" lon="5.83078">
        <ele>562</ele>
        <time>2019-03-05T15:19:47Z</time>
      </trkpt>
      <trkpt lat="44.31371" lon="5.83074">
        <ele>562</ele>
        <time>2019-03-05T15:19:48Z</time>
      </trkpt>
      <trkpt lat="44.31374" lon="5.83069">
        <ele>562</ele>
        <time>2019-03-05T15:19:49Z</time>
      </trkpt>
      <trkpt lat="44.31376" lon="5.83064">
        <ele>562</ele>
        <time>2019-03-05T15:19:50Z</time>
      </trkpt>
      <trkpt lat="44.31378" lon="5.8306">
        <ele>562</ele>
        <time>2019-03-05T15:19:51Z</time>
      </trkpt>
      <trkpt lat="44.31381" lon="5.83054">
        <ele>562</ele>
        <time>2019-03-05T15:19:52Z</time>
      </trkpt>
      <trkpt lat="44.31384" lon="5.8305">
        <ele>562</ele>
        <time>2019-03-05T15:19:53Z</time>
      </trkpt>
      <trkpt lat="44.31387" lon="5.83045">
        <ele>562</ele>
        <time>2019-03-05T15:19:54Z</time>
      </trkpt>
      <trkpt lat="44.3139" lon="5.8304">
        <ele>562</ele>
        <time>2019-03-05T15:19:55Z</time>
      </trkpt>
      <trkpt lat="44.31394" lon="5.83035">
        <ele>562</ele>
        <time>2019-03-05T15:19:56Z</time>
      </trkpt>
      <trkpt lat="44.31398" lon="5.8303">
        <ele>562</ele>
        <time>2019-03-05T15:19:57Z</time>
      </trkpt>
      <trkpt lat="44.31401" lon="5.83024">
        <ele>562</ele>
        <time>2019-03-05T15:19:58Z</time>
      </trkpt>
      <trkpt lat="44.31405" lon="5.83019">
        <ele>562</ele>
        <time>2019-03-05T15:19:59Z</time>
      </trkpt>
      <trkpt lat="44.31408" lon="5.83013">
        <ele>562</ele>
        <time>2019-03-05T15:20:00Z</time>
      </trkpt>
      <trkpt lat="44.31411" lon="5.83008">
        <ele>562</ele>
        <time>2019-03-05T15:20:01Z</time>
      </trkpt>
      <trkpt lat="44.31415" lon="5.83004">
        <ele>562</ele>
        <time>2019-03-05T15:20:02Z</time>
      </trkpt>
      <trkpt lat="44.31419" lon="5.82999">
        <ele>562</ele>
        <time>2019-03-05T15:20:03Z</time>
      </trkpt>
      <trkpt lat="44.31422" lon="5.82994">
        <ele>562</ele>
        <time>2019-03-05T15:20:04Z</time>
      </trkpt>
      <trkpt lat="44.31424" lon="5.82988">
        <ele>562</ele>
        <time>2019-03-05T15:20:05Z</time>
      </trkpt>
      <trkpt lat="44.31428" lon="5.82984">
        <ele>562</ele>
        <time>2019-03-05T15:20:06Z</time>
      </trkpt>
      <trkpt lat="44.31431" lon="5.82979">
        <ele>562</ele>
        <time>2019-03-05T15:20:07Z</time>
      </trkpt>
      <trkpt lat="44.31435" lon="5.82974">
        <ele>562</ele>
        <time>2019-03-05T15:20:08Z</time>
      </trkpt>
      <trkpt lat="44.31437" lon="5.82969">
        <ele>562</ele>
        <time>2019-03-05T15:20:09Z</time>
      </trkpt>
      <trkpt lat="44.31439" lon="5.82964">
        <ele>562</ele>
        <time>2019-03-05T15:20:10Z</time>
      </trkpt>
      <trkpt lat="44.31442" lon="5.82959">
        <ele>562</ele>
        <time>2019-03-05T15:20:11Z</time>
      </trkpt>
      <trkpt lat="44.31445" lon="5.82954">
        <ele>562</ele>
        <time>2019-03-05T15:20:12Z</time>
      </trkpt>
      <trkpt lat="44.31448" lon="5.82949">
        <ele>562</ele>
        <time>2019-03-05T15:20:13Z</time>
      </trkpt>
      <trkpt lat="44.31451" lon="5.82944">
        <ele>562</ele>
        <time>2019-03-05T15:20:14Z</time>
      </trkpt>
      <trkpt lat="44.31454" lon="5.8294">
        <ele>562</ele>
        <time>2019-03-05T15:20:15Z</time>
      </trkpt>
      <trkpt lat="44.31457" lon="5.82935">
        <ele>562</ele>
        <time>2019-03-05T15:20:16Z</time>
      </trkpt>
      <trkpt lat="44.31461" lon="5.8293">
        <ele>562</ele>
        <time>2019-03-05T15:20:17Z</time>
      </trkpt>
      <trkpt lat="44.31464" lon="5.82926">
        <ele>562</ele>
        <time>2019-03-05T15:20:18Z</time>
      </trkpt>
      <trkpt lat="44.31467" lon="5.82922">
        <ele>562</ele>
        <time>2019-03-05T15:20:19Z</time>
      </trkpt>
      <trkpt lat="44.31469" lon="5.82917">
        <ele>562</ele>
        <time>2019-03-05T15:20:20Z</time>
      </trkpt>
      <trkpt lat="44.31472" lon="5.82912">
        <ele>562</ele>
        <time>2019-03-05T15:20:21Z</time>
      </trkpt>
      <trkpt lat="44.31475" lon="5.82908">
        <ele>562</ele>
        <time>2019-03-05T15:20:22Z</time>
      </trkpt>
      <trkpt lat="44.31478" lon="5.82903">
        <ele>562</ele>
        <time>2019-03-05T15:20:23Z</time>
      </trkpt>
      <trkpt lat="44.31481" lon="5.82899">
        <ele>562</ele>
        <time>2019-03-05T15:20:24Z</time>
      </trkpt>
      <trkpt lat="44.31484" lon="5.82894">
        <ele>562</ele>
        <time>2019-03-05T15:20:25Z</time>
      </trkpt>
      <trkpt lat="44.31487" lon="5.8289">
        <ele>562</ele>
        <time>2019-03-05T15:20:26Z</time>
      </trkpt>
      <trkpt lat="44.3149" lon="5.82886">
        <ele>562</ele>
        <time>2019-03-05T15:20:27Z</time>
      </trkpt>
      <trkpt lat="44.31493" lon="5.82881">
        <ele>562</ele>
        <time>2019-03-05T15:20:28Z</time>
      </trkpt>
      <trkpt lat="44.31496" lon="5.82877">
        <ele>562</ele>
        <time>2019-03-05T15:20:29Z</time>
      </trkpt>
      <trkpt lat="44.31499" lon="5.82875">
        <ele>562</ele>
        <time>2019-03-05T15:20:30Z</time>
      </trkpt>
      <trkpt lat="44.31503" lon="5.82873">
        <ele>562</ele>
        <time>2019-03-05T15:20:31Z</time>
      </trkpt>
      <trkpt lat="44.31507" lon="5.82874">
        <ele>562</ele>
        <time>2019-03-05T15:20:32Z</time>
      </trkpt>
      <trkpt lat="44.31511" lon="5.82876">
        <ele>562</ele>
        <time>2019-03-05T15:20:33Z</time>
      </trkpt>
      <trkpt lat="44.31514" lon="5.82879">
        <ele>562</ele>
        <time>2019-03-05T15:20:34Z</time>
      </trkpt>
      <trkpt lat="44.31517" lon="5.82883">
        <ele>562</ele>
        <time>2019-03-05T15:20:35Z</time>
      </trkpt>
      <trkpt lat="44.31521" lon="5.82887">
        <ele>562</ele>
        <time>2019-03-05T15:20:36Z</time>
      </trkpt>
      <trkpt lat="44.31524" lon="5.8289">
        <ele>562</ele>
        <time>2019-03-05T15:20:37Z</time>
      </trkpt>
      <trkpt lat="44.31527" lon="5.82893">
        <ele>562</ele>
        <time>2019-03-05T15:20:38Z</time>
      </trkpt>
      <trkpt lat="44.3153" lon="5.82897">
        <ele>562</ele>
        <time>2019-03-05T15:20:39Z</time>
      </trkpt>
      <trkpt lat="44.31533" lon="5.82899">
        <ele>562</ele>
        <time>2019-03-05T15:20:40Z</time>
      </trkpt>
      <trkpt lat="44.31535" lon="5.82902">
        <ele>562</ele>
        <time>2019-03-05T15:20:41Z</time>
      </trkpt>
      <trkpt lat="44.31538" lon="5.82905">
        <ele>562</ele>
        <time>2019-03-05T15:20:42Z</time>
      </trkpt>
      <trkpt lat="44.31541" lon="5.82908">
        <ele>562</ele>
        <time>2019-03-05T15:20:43Z</time>
      </trkpt>
      <trkpt lat="44.31544" lon="5.82911">
        <ele>562</ele>
        <time>2019-03-05T15:20:44Z</time>
      </trkpt>
      <trkpt lat="44.31547" lon="5.82913">
        <ele>562</ele>
        <time>2019-03-05T15:20:45Z</time>
      </trkpt>
      <trkpt lat="44.3155" lon="5.82915">
        <ele>562</ele>
        <time>2019-03-05T15:20:46Z</time>
      </trkpt>
      <trkpt lat="44.31553" lon="5.82917">
        <ele>562</ele>
        <time>2019-03-05T15:20:47Z</time>
      </trkpt>
      <trkpt lat="44.31556" lon="5.82918">
        <ele>562</ele>
        <time>2019-03-05T15:20:48Z</time>
      </trkpt>
      <trkpt lat="44.31559" lon="5.82919">
        <ele>562</ele>
        <time>2019-03-05T15:20:49Z</time>
      </trkpt>
      <trkpt lat="44.31561" lon="5.82921">
        <ele>562</ele>
        <time>2019-03-05T15:20:50Z</time>
      </trkpt>
      <trkpt lat="44.31564" lon="5.82922">
        <ele>562</ele>
        <time>2019-03-05T15:20:51Z</time>
      </trkpt>
      <trkpt lat="44.31567" lon="5.82924">
        <ele>562</ele>
        <time>2019-03-05T15:20:52Z</time>
      </trkpt>
      <trkpt lat="44.3157" lon="5.82926">
        <ele>562</ele>
        <time>2019-03-05T15:20:53Z</time>
      </trkpt>
      <trkpt lat="44.31573" lon="5.82927">
        <ele>562</ele>
        <time>2019-03-05T15:20:54Z</time>
      </trkpt>
      <trkpt lat="44.31576" lon="5.82929">
        <ele>562</ele>
        <time>2019-03-05T15:20:55Z</time>
      </trkpt>
      <trkpt lat="44.31579" lon="5.82932">
        <ele>562</ele>
        <time>2019-03-05T15:20:56Z</time>
      </trkpt>
      <trkpt lat="44.31581" lon="5.82934">
        <ele>562</ele>
        <time>2019-03-05T15:20:57Z</time>
      </trkpt>
      <trkpt lat="44.31584" lon="5.82936">
        <ele>562</ele>
        <time>2019-03-05T15:20:58Z</time>
      </trkpt>
      <trkpt lat="44.3159" lon="5.82941">
        <ele>562</ele>
        <time>2019-03-05T15:21:01Z</time>
      </trkpt>
      <trkpt lat="44.31591" lon="5.82942">
        <ele>562</ele>
        <time>2019-03-05T15:21:02Z</time>
      </trkpt>
      <trkpt lat="44.31592" lon="5.82944">
        <ele>562</ele>
        <time>2019-03-05T15:21:03Z</time>
      </trkpt>
      <trkpt lat="44.31594" lon="5.82945">
        <ele>562</ele>
        <time>2019-03-05T15:21:04Z</time>
      </trkpt>
      <trkpt lat="44.31595" lon="5.82946">
        <ele>562</ele>
        <time>2019-03-05T15:21:07Z</time>
      </trkpt>
      <trkpt lat="44.31596" lon="5.82945">
        <ele>563</ele>
        <time>2019-03-05T15:21:15Z</time>
      </trkpt>
      <trkpt lat="44.31597" lon="5.82944">
        <ele>563</ele>
        <time>2019-03-05T15:21:18Z</time>
      </trkpt>
      <trkpt lat="44.31596" lon="5.82945">
        <ele>566</ele>
        <time>2019-03-05T15:21:30Z</time>
      </trkpt>
      <trkpt lat="44.31597" lon="5.82944">
        <ele>566</ele>
        <time>2019-03-05T15:21:31Z</time>
      </trkpt>
    </trkseg>
  </trk>
</gpx>